<?xml version="1.0" encoding="UTF-8" standalone="no" ?>
<gpx xmlns="http://www.topografix.com/GPX/1/1" xmlns:xsi="http://www.w3.org/2001/XMLSchema-instance" xsi:schemaLocation="http://www.topografix.com/GPX/1/1 http://www.topografix.com/GPX/1/1/gpx.xsd" version="1.1" creator="VisuGPX - https://www.visugpx.com">
  <metadata>
    <name>Les sources du Tarn 02</name>
    <desc><![CDATA[[url]https://youtu.be/HWNP5YvhOzg?si=yN5ZVyqZIrEmMf2k[/url]]]></desc>
  </metadata>
  <trk>
    <name><![CDATA[Refuge de l'Aigle - Pont du Tarn - Florac]]></name>
    <trkseg>
      <trkpt lat="44.40204" lon="3.85828">
        <ele>1462.8</ele>
        <time>2022-10-29T06:25:40Z</time>
      </trkpt>
      <trkpt lat="44.40204" lon="3.85828">
        <ele>1462.8</ele>
        <time>2022-10-29T06:25:41Z</time>
      </trkpt>
      <trkpt lat="44.40204" lon="3.85828">
        <ele>1463</ele>
        <time>2022-10-29T06:25:42Z</time>
      </trkpt>
      <trkpt lat="44.40204" lon="3.85829">
        <ele>1463</ele>
        <time>2022-10-29T06:25:43Z</time>
      </trkpt>
      <trkpt lat="44.40204" lon="3.85829">
        <ele>1463</ele>
        <time>2022-10-29T06:25:44Z</time>
      </trkpt>
      <trkpt lat="44.40204" lon="3.85829">
        <ele>1463</ele>
        <time>2022-10-29T06:25:45Z</time>
      </trkpt>
      <trkpt lat="44.40204" lon="3.8583">
        <ele>1463</ele>
        <time>2022-10-29T06:25:46Z</time>
      </trkpt>
      <trkpt lat="44.40204" lon="3.8583">
        <ele>1463</ele>
        <time>2022-10-29T06:25:47Z</time>
      </trkpt>
      <trkpt lat="44.40204" lon="3.8583">
        <ele>1463</ele>
        <time>2022-10-29T06:25:48Z</time>
      </trkpt>
      <trkpt lat="44.40204" lon="3.8583">
        <ele>1463</ele>
        <time>2022-10-29T06:25:49Z</time>
      </trkpt>
      <trkpt lat="44.40204" lon="3.8583">
        <ele>1463</ele>
        <time>2022-10-29T06:25:50Z</time>
      </trkpt>
      <trkpt lat="44.40204" lon="3.8583">
        <ele>1463</ele>
        <time>2022-10-29T06:25:51Z</time>
      </trkpt>
      <trkpt lat="44.40204" lon="3.8583">
        <ele>1463</ele>
        <time>2022-10-29T06:25:52Z</time>
      </trkpt>
      <trkpt lat="44.40204" lon="3.85829">
        <ele>1463</ele>
        <time>2022-10-29T06:25:53Z</time>
      </trkpt>
      <trkpt lat="44.40204" lon="3.85829">
        <ele>1463</ele>
        <time>2022-10-29T06:25:54Z</time>
      </trkpt>
      <trkpt lat="44.40204" lon="3.85829">
        <ele>1463</ele>
        <time>2022-10-29T06:25:55Z</time>
      </trkpt>
      <trkpt lat="44.40204" lon="3.85829">
        <ele>1463</ele>
        <time>2022-10-29T06:25:56Z</time>
      </trkpt>
      <trkpt lat="44.40204" lon="3.85829">
        <ele>1463</ele>
        <time>2022-10-29T06:25:57Z</time>
      </trkpt>
      <trkpt lat="44.40204" lon="3.85829">
        <ele>1463</ele>
        <time>2022-10-29T06:25:58Z</time>
      </trkpt>
      <trkpt lat="44.40204" lon="3.85828">
        <ele>1463</ele>
        <time>2022-10-29T06:25:59Z</time>
      </trkpt>
      <trkpt lat="44.40204" lon="3.85828">
        <ele>1463</ele>
        <time>2022-10-29T06:26:00Z</time>
      </trkpt>
      <trkpt lat="44.40204" lon="3.85828">
        <ele>1463</ele>
        <time>2022-10-29T06:26:01Z</time>
      </trkpt>
      <trkpt lat="44.40204" lon="3.85828">
        <ele>1463</ele>
        <time>2022-10-29T06:26:02Z</time>
      </trkpt>
      <trkpt lat="44.40204" lon="3.85828">
        <ele>1463</ele>
        <time>2022-10-29T06:26:03Z</time>
      </trkpt>
      <trkpt lat="44.40204" lon="3.85828">
        <ele>1463</ele>
        <time>2022-10-29T06:26:04Z</time>
      </trkpt>
      <trkpt lat="44.40204" lon="3.85829">
        <ele>1463</ele>
        <time>2022-10-29T06:26:05Z</time>
      </trkpt>
      <trkpt lat="44.40205" lon="3.85829">
        <ele>1463</ele>
        <time>2022-10-29T06:26:06Z</time>
      </trkpt>
      <trkpt lat="44.40205" lon="3.85829">
        <ele>1463</ele>
        <time>2022-10-29T06:26:07Z</time>
      </trkpt>
      <trkpt lat="44.40205" lon="3.85829">
        <ele>1463</ele>
        <time>2022-10-29T06:26:08Z</time>
      </trkpt>
      <trkpt lat="44.40205" lon="3.85829">
        <ele>1463</ele>
        <time>2022-10-29T06:26:09Z</time>
      </trkpt>
      <trkpt lat="44.40205" lon="3.85829">
        <ele>1463</ele>
        <time>2022-10-29T06:26:10Z</time>
      </trkpt>
      <trkpt lat="44.40205" lon="3.85829">
        <ele>1463</ele>
        <time>2022-10-29T06:26:11Z</time>
      </trkpt>
      <trkpt lat="44.40205" lon="3.85829">
        <ele>1463</ele>
        <time>2022-10-29T06:26:12Z</time>
      </trkpt>
      <trkpt lat="44.40205" lon="3.85829">
        <ele>1463</ele>
        <time>2022-10-29T06:26:13Z</time>
      </trkpt>
      <trkpt lat="44.40205" lon="3.85829">
        <ele>1463</ele>
        <time>2022-10-29T06:26:14Z</time>
      </trkpt>
      <trkpt lat="44.40205" lon="3.85829">
        <ele>1463</ele>
        <time>2022-10-29T06:26:15Z</time>
      </trkpt>
      <trkpt lat="44.40205" lon="3.85829">
        <ele>1463</ele>
        <time>2022-10-29T06:26:16Z</time>
      </trkpt>
      <trkpt lat="44.40205" lon="3.85829">
        <ele>1463</ele>
        <time>2022-10-29T06:26:17Z</time>
      </trkpt>
      <trkpt lat="44.40205" lon="3.85829">
        <ele>1463</ele>
        <time>2022-10-29T06:26:18Z</time>
      </trkpt>
      <trkpt lat="44.40205" lon="3.85829">
        <ele>1463</ele>
        <time>2022-10-29T06:26:19Z</time>
      </trkpt>
      <trkpt lat="44.40205" lon="3.85829">
        <ele>1463</ele>
        <time>2022-10-29T06:26:20Z</time>
      </trkpt>
      <trkpt lat="44.40205" lon="3.85829">
        <ele>1463</ele>
        <time>2022-10-29T06:26:21Z</time>
      </trkpt>
      <trkpt lat="44.40205" lon="3.85829">
        <ele>1463</ele>
        <time>2022-10-29T06:26:22Z</time>
      </trkpt>
      <trkpt lat="44.40205" lon="3.85829">
        <ele>1463</ele>
        <time>2022-10-29T06:26:23Z</time>
      </trkpt>
      <trkpt lat="44.40205" lon="3.85829">
        <ele>1463</ele>
        <time>2022-10-29T06:26:24Z</time>
      </trkpt>
      <trkpt lat="44.40205" lon="3.85829">
        <ele>1463</ele>
        <time>2022-10-29T06:26:25Z</time>
      </trkpt>
      <trkpt lat="44.40205" lon="3.85829">
        <ele>1463</ele>
        <time>2022-10-29T06:26:26Z</time>
      </trkpt>
      <trkpt lat="44.40205" lon="3.85829">
        <ele>1463</ele>
        <time>2022-10-29T06:26:27Z</time>
      </trkpt>
      <trkpt lat="44.40205" lon="3.85829">
        <ele>1463</ele>
        <time>2022-10-29T06:26:28Z</time>
      </trkpt>
      <trkpt lat="44.40205" lon="3.8583">
        <ele>1463</ele>
        <time>2022-10-29T06:26:29Z</time>
      </trkpt>
      <trkpt lat="44.40205" lon="3.8583">
        <ele>1463</ele>
        <time>2022-10-29T06:26:30Z</time>
      </trkpt>
      <trkpt lat="44.40205" lon="3.8583">
        <ele>1463</ele>
        <time>2022-10-29T06:26:31Z</time>
      </trkpt>
      <trkpt lat="44.40205" lon="3.8583">
        <ele>1463</ele>
        <time>2022-10-29T06:26:32Z</time>
      </trkpt>
      <trkpt lat="44.40205" lon="3.8583">
        <ele>1463</ele>
        <time>2022-10-29T06:26:33Z</time>
      </trkpt>
      <trkpt lat="44.40205" lon="3.8583">
        <ele>1463</ele>
        <time>2022-10-29T06:26:34Z</time>
      </trkpt>
      <trkpt lat="44.40204" lon="3.8583">
        <ele>1463</ele>
        <time>2022-10-29T06:26:35Z</time>
      </trkpt>
      <trkpt lat="44.40204" lon="3.8583">
        <ele>1463</ele>
        <time>2022-10-29T06:26:36Z</time>
      </trkpt>
      <trkpt lat="44.40204" lon="3.8583">
        <ele>1463</ele>
        <time>2022-10-29T06:26:37Z</time>
      </trkpt>
      <trkpt lat="44.40204" lon="3.8583">
        <ele>1463</ele>
        <time>2022-10-29T06:26:38Z</time>
      </trkpt>
      <trkpt lat="44.40204" lon="3.8583">
        <ele>1463</ele>
        <time>2022-10-29T06:26:39Z</time>
      </trkpt>
      <trkpt lat="44.40204" lon="3.8583">
        <ele>1463</ele>
        <time>2022-10-29T06:26:40Z</time>
      </trkpt>
      <trkpt lat="44.40204" lon="3.8583">
        <ele>1463</ele>
        <time>2022-10-29T06:26:41Z</time>
      </trkpt>
      <trkpt lat="44.40204" lon="3.8583">
        <ele>1463</ele>
        <time>2022-10-29T06:26:42Z</time>
      </trkpt>
      <trkpt lat="44.40204" lon="3.8583">
        <ele>1463</ele>
        <time>2022-10-29T06:26:43Z</time>
      </trkpt>
      <trkpt lat="44.40205" lon="3.8583">
        <ele>1463</ele>
        <time>2022-10-29T06:26:44Z</time>
      </trkpt>
      <trkpt lat="44.40205" lon="3.8583">
        <ele>1463</ele>
        <time>2022-10-29T06:26:45Z</time>
      </trkpt>
      <trkpt lat="44.40205" lon="3.8583">
        <ele>1463</ele>
        <time>2022-10-29T06:26:46Z</time>
      </trkpt>
      <trkpt lat="44.40205" lon="3.8583">
        <ele>1463</ele>
        <time>2022-10-29T06:26:47Z</time>
      </trkpt>
      <trkpt lat="44.40204" lon="3.8583">
        <ele>1463</ele>
        <time>2022-10-29T06:26:48Z</time>
      </trkpt>
      <trkpt lat="44.40204" lon="3.8583">
        <ele>1463</ele>
        <time>2022-10-29T06:26:49Z</time>
      </trkpt>
      <trkpt lat="44.40204" lon="3.8583">
        <ele>1463</ele>
        <time>2022-10-29T06:26:50Z</time>
      </trkpt>
      <trkpt lat="44.40204" lon="3.8583">
        <ele>1463</ele>
        <time>2022-10-29T06:26:51Z</time>
      </trkpt>
      <trkpt lat="44.40204" lon="3.8583">
        <ele>1463</ele>
        <time>2022-10-29T06:26:52Z</time>
      </trkpt>
      <trkpt lat="44.40204" lon="3.8583">
        <ele>1463</ele>
        <time>2022-10-29T06:26:53Z</time>
      </trkpt>
      <trkpt lat="44.40204" lon="3.8583">
        <ele>1463</ele>
        <time>2022-10-29T06:26:54Z</time>
      </trkpt>
      <trkpt lat="44.40204" lon="3.8583">
        <ele>1463</ele>
        <time>2022-10-29T06:26:55Z</time>
      </trkpt>
      <trkpt lat="44.40204" lon="3.8583">
        <ele>1463</ele>
        <time>2022-10-29T06:26:56Z</time>
      </trkpt>
      <trkpt lat="44.40204" lon="3.8583">
        <ele>1463</ele>
        <time>2022-10-29T06:26:57Z</time>
      </trkpt>
      <trkpt lat="44.40204" lon="3.85831">
        <ele>1463</ele>
        <time>2022-10-29T06:26:58Z</time>
      </trkpt>
      <trkpt lat="44.40204" lon="3.85831">
        <ele>1463</ele>
        <time>2022-10-29T06:26:59Z</time>
      </trkpt>
      <trkpt lat="44.40204" lon="3.85831">
        <ele>1463</ele>
        <time>2022-10-29T06:27:00Z</time>
      </trkpt>
      <trkpt lat="44.40204" lon="3.85831">
        <ele>1463</ele>
        <time>2022-10-29T06:27:01Z</time>
      </trkpt>
      <trkpt lat="44.40204" lon="3.8583">
        <ele>1463</ele>
        <time>2022-10-29T06:27:02Z</time>
      </trkpt>
      <trkpt lat="44.40204" lon="3.8583">
        <ele>1463</ele>
        <time>2022-10-29T06:27:03Z</time>
      </trkpt>
      <trkpt lat="44.40204" lon="3.85831">
        <ele>1463</ele>
        <time>2022-10-29T06:27:04Z</time>
      </trkpt>
      <trkpt lat="44.40204" lon="3.85831">
        <ele>1463</ele>
        <time>2022-10-29T06:27:05Z</time>
      </trkpt>
      <trkpt lat="44.40204" lon="3.8583">
        <ele>1463</ele>
        <time>2022-10-29T06:27:06Z</time>
      </trkpt>
      <trkpt lat="44.40204" lon="3.8583">
        <ele>1463</ele>
        <time>2022-10-29T06:27:07Z</time>
      </trkpt>
      <trkpt lat="44.40204" lon="3.8583">
        <ele>1463</ele>
        <time>2022-10-29T06:27:08Z</time>
      </trkpt>
      <trkpt lat="44.40204" lon="3.8583">
        <ele>1463</ele>
        <time>2022-10-29T06:27:09Z</time>
      </trkpt>
      <trkpt lat="44.40204" lon="3.8583">
        <ele>1463</ele>
        <time>2022-10-29T06:27:10Z</time>
      </trkpt>
      <trkpt lat="44.40204" lon="3.8583">
        <ele>1463</ele>
        <time>2022-10-29T06:27:11Z</time>
      </trkpt>
      <trkpt lat="44.40204" lon="3.8583">
        <ele>1463</ele>
        <time>2022-10-29T06:27:12Z</time>
      </trkpt>
      <trkpt lat="44.40204" lon="3.8583">
        <ele>1463</ele>
        <time>2022-10-29T06:27:13Z</time>
      </trkpt>
      <trkpt lat="44.40204" lon="3.8583">
        <ele>1463</ele>
        <time>2022-10-29T06:27:14Z</time>
      </trkpt>
      <trkpt lat="44.40204" lon="3.85831">
        <ele>1463</ele>
        <time>2022-10-29T06:27:15Z</time>
      </trkpt>
      <trkpt lat="44.40204" lon="3.85831">
        <ele>1463</ele>
        <time>2022-10-29T06:27:16Z</time>
      </trkpt>
      <trkpt lat="44.40205" lon="3.85831">
        <ele>1463</ele>
        <time>2022-10-29T06:27:17Z</time>
      </trkpt>
      <trkpt lat="44.40205" lon="3.85831">
        <ele>1463</ele>
        <time>2022-10-29T06:27:18Z</time>
      </trkpt>
      <trkpt lat="44.40205" lon="3.85831">
        <ele>1463</ele>
        <time>2022-10-29T06:27:19Z</time>
      </trkpt>
      <trkpt lat="44.40205" lon="3.85831">
        <ele>1463</ele>
        <time>2022-10-29T06:27:20Z</time>
      </trkpt>
      <trkpt lat="44.40204" lon="3.85831">
        <ele>1463</ele>
        <time>2022-10-29T06:27:21Z</time>
      </trkpt>
      <trkpt lat="44.40204" lon="3.85831">
        <ele>1463</ele>
        <time>2022-10-29T06:27:22Z</time>
      </trkpt>
      <trkpt lat="44.40204" lon="3.85831">
        <ele>1463</ele>
        <time>2022-10-29T06:27:23Z</time>
      </trkpt>
      <trkpt lat="44.40204" lon="3.85832">
        <ele>1463</ele>
        <time>2022-10-29T06:27:24Z</time>
      </trkpt>
      <trkpt lat="44.40204" lon="3.85832">
        <ele>1463</ele>
        <time>2022-10-29T06:27:25Z</time>
      </trkpt>
      <trkpt lat="44.40204" lon="3.85832">
        <ele>1463</ele>
        <time>2022-10-29T06:27:26Z</time>
      </trkpt>
      <trkpt lat="44.40204" lon="3.85832">
        <ele>1463</ele>
        <time>2022-10-29T06:27:27Z</time>
      </trkpt>
      <trkpt lat="44.40204" lon="3.85832">
        <ele>1463</ele>
        <time>2022-10-29T06:27:28Z</time>
      </trkpt>
      <trkpt lat="44.40204" lon="3.85833">
        <ele>1463</ele>
        <time>2022-10-29T06:27:29Z</time>
      </trkpt>
      <trkpt lat="44.40204" lon="3.85833">
        <ele>1463</ele>
        <time>2022-10-29T06:27:30Z</time>
      </trkpt>
      <trkpt lat="44.40204" lon="3.85833">
        <ele>1463</ele>
        <time>2022-10-29T06:27:31Z</time>
      </trkpt>
      <trkpt lat="44.40204" lon="3.85833">
        <ele>1463</ele>
        <time>2022-10-29T06:27:32Z</time>
      </trkpt>
      <trkpt lat="44.40204" lon="3.85833">
        <ele>1463</ele>
        <time>2022-10-29T06:27:33Z</time>
      </trkpt>
      <trkpt lat="44.40204" lon="3.85833">
        <ele>1463</ele>
        <time>2022-10-29T06:27:34Z</time>
      </trkpt>
      <trkpt lat="44.40204" lon="3.85832">
        <ele>1463</ele>
        <time>2022-10-29T06:27:35Z</time>
      </trkpt>
      <trkpt lat="44.40204" lon="3.85832">
        <ele>1463</ele>
        <time>2022-10-29T06:27:36Z</time>
      </trkpt>
      <trkpt lat="44.40204" lon="3.85833">
        <ele>1463</ele>
        <time>2022-10-29T06:27:37Z</time>
      </trkpt>
      <trkpt lat="44.40204" lon="3.85833">
        <ele>1463</ele>
        <time>2022-10-29T06:27:38Z</time>
      </trkpt>
      <trkpt lat="44.40204" lon="3.85833">
        <ele>1463</ele>
        <time>2022-10-29T06:27:39Z</time>
      </trkpt>
      <trkpt lat="44.40204" lon="3.85833">
        <ele>1463</ele>
        <time>2022-10-29T06:27:40Z</time>
      </trkpt>
      <trkpt lat="44.40204" lon="3.85833">
        <ele>1463</ele>
        <time>2022-10-29T06:27:41Z</time>
      </trkpt>
      <trkpt lat="44.40204" lon="3.85833">
        <ele>1463</ele>
        <time>2022-10-29T06:27:42Z</time>
      </trkpt>
      <trkpt lat="44.40204" lon="3.85833">
        <ele>1463</ele>
        <time>2022-10-29T06:27:43Z</time>
      </trkpt>
      <trkpt lat="44.40204" lon="3.85833">
        <ele>1463</ele>
        <time>2022-10-29T06:27:44Z</time>
      </trkpt>
      <trkpt lat="44.40204" lon="3.85833">
        <ele>1463</ele>
        <time>2022-10-29T06:27:45Z</time>
      </trkpt>
      <trkpt lat="44.40204" lon="3.85833">
        <ele>1463</ele>
        <time>2022-10-29T06:27:46Z</time>
      </trkpt>
      <trkpt lat="44.40203" lon="3.85833">
        <ele>1463</ele>
        <time>2022-10-29T06:27:47Z</time>
      </trkpt>
      <trkpt lat="44.40203" lon="3.85833">
        <ele>1463</ele>
        <time>2022-10-29T06:27:48Z</time>
      </trkpt>
      <trkpt lat="44.40203" lon="3.85833">
        <ele>1463</ele>
        <time>2022-10-29T06:27:49Z</time>
      </trkpt>
      <trkpt lat="44.40203" lon="3.85833">
        <ele>1463</ele>
        <time>2022-10-29T06:27:50Z</time>
      </trkpt>
      <trkpt lat="44.40203" lon="3.85833">
        <ele>1463</ele>
        <time>2022-10-29T06:27:51Z</time>
      </trkpt>
      <trkpt lat="44.40203" lon="3.85833">
        <ele>1463</ele>
        <time>2022-10-29T06:27:52Z</time>
      </trkpt>
      <trkpt lat="44.40203" lon="3.85833">
        <ele>1463</ele>
        <time>2022-10-29T06:27:53Z</time>
      </trkpt>
      <trkpt lat="44.40203" lon="3.85833">
        <ele>1463</ele>
        <time>2022-10-29T06:27:54Z</time>
      </trkpt>
      <trkpt lat="44.40203" lon="3.85833">
        <ele>1463</ele>
        <time>2022-10-29T06:27:55Z</time>
      </trkpt>
      <trkpt lat="44.40203" lon="3.85833">
        <ele>1463</ele>
        <time>2022-10-29T06:27:56Z</time>
      </trkpt>
      <trkpt lat="44.40203" lon="3.85833">
        <ele>1463</ele>
        <time>2022-10-29T06:27:57Z</time>
      </trkpt>
      <trkpt lat="44.40203" lon="3.85833">
        <ele>1463</ele>
        <time>2022-10-29T06:27:58Z</time>
      </trkpt>
      <trkpt lat="44.40203" lon="3.85833">
        <ele>1463</ele>
        <time>2022-10-29T06:27:59Z</time>
      </trkpt>
      <trkpt lat="44.40203" lon="3.85833">
        <ele>1463</ele>
        <time>2022-10-29T06:28:00Z</time>
      </trkpt>
      <trkpt lat="44.40203" lon="3.85833">
        <ele>1463</ele>
        <time>2022-10-29T06:28:01Z</time>
      </trkpt>
      <trkpt lat="44.40203" lon="3.85832">
        <ele>1463</ele>
        <time>2022-10-29T06:28:02Z</time>
      </trkpt>
      <trkpt lat="44.40203" lon="3.85832">
        <ele>1463</ele>
        <time>2022-10-29T06:28:03Z</time>
      </trkpt>
      <trkpt lat="44.40202" lon="3.85832">
        <ele>1463</ele>
        <time>2022-10-29T06:28:04Z</time>
      </trkpt>
      <trkpt lat="44.40202" lon="3.85832">
        <ele>1463</ele>
        <time>2022-10-29T06:28:05Z</time>
      </trkpt>
      <trkpt lat="44.40201" lon="3.85832">
        <ele>1463</ele>
        <time>2022-10-29T06:28:06Z</time>
      </trkpt>
      <trkpt lat="44.40199" lon="3.85833">
        <ele>1463</ele>
        <time>2022-10-29T06:28:07Z</time>
      </trkpt>
      <trkpt lat="44.40197" lon="3.85834">
        <ele>1463</ele>
        <time>2022-10-29T06:28:08Z</time>
      </trkpt>
      <trkpt lat="44.40195" lon="3.85835">
        <ele>1463</ele>
        <time>2022-10-29T06:28:09Z</time>
      </trkpt>
      <trkpt lat="44.40193" lon="3.85837">
        <ele>1462.8</ele>
        <time>2022-10-29T06:28:10Z</time>
      </trkpt>
      <trkpt lat="44.40191" lon="3.8584">
        <ele>1462.8</ele>
        <time>2022-10-29T06:28:11Z</time>
      </trkpt>
      <trkpt lat="44.40188" lon="3.85842">
        <ele>1462.8</ele>
        <time>2022-10-29T06:28:12Z</time>
      </trkpt>
      <trkpt lat="44.40187" lon="3.85845">
        <ele>1462.8</ele>
        <time>2022-10-29T06:28:13Z</time>
      </trkpt>
      <trkpt lat="44.40185" lon="3.85848">
        <ele>1462.8</ele>
        <time>2022-10-29T06:28:14Z</time>
      </trkpt>
      <trkpt lat="44.40184" lon="3.85851">
        <ele>1462.8</ele>
        <time>2022-10-29T06:28:15Z</time>
      </trkpt>
      <trkpt lat="44.40182" lon="3.85854">
        <ele>1462.6</ele>
        <time>2022-10-29T06:28:16Z</time>
      </trkpt>
      <trkpt lat="44.4018" lon="3.85858">
        <ele>1462.4</ele>
        <time>2022-10-29T06:28:17Z</time>
      </trkpt>
      <trkpt lat="44.40178" lon="3.85862">
        <ele>1462</ele>
        <time>2022-10-29T06:28:18Z</time>
      </trkpt>
      <trkpt lat="44.40177" lon="3.85866">
        <ele>1461.8</ele>
        <time>2022-10-29T06:28:19Z</time>
      </trkpt>
      <trkpt lat="44.40175" lon="3.8587">
        <ele>1461.4</ele>
        <time>2022-10-29T06:28:20Z</time>
      </trkpt>
      <trkpt lat="44.40173" lon="3.85873">
        <ele>1461</ele>
        <time>2022-10-29T06:28:21Z</time>
      </trkpt>
      <trkpt lat="44.40171" lon="3.85876">
        <ele>1460.6</ele>
        <time>2022-10-29T06:28:22Z</time>
      </trkpt>
      <trkpt lat="44.4017" lon="3.85879">
        <ele>1460.2</ele>
        <time>2022-10-29T06:28:23Z</time>
      </trkpt>
      <trkpt lat="44.40169" lon="3.85882">
        <ele>1459.8</ele>
        <time>2022-10-29T06:28:24Z</time>
      </trkpt>
      <trkpt lat="44.40168" lon="3.85885">
        <ele>1459.6</ele>
        <time>2022-10-29T06:28:25Z</time>
      </trkpt>
      <trkpt lat="44.40166" lon="3.85889">
        <ele>1459.2</ele>
        <time>2022-10-29T06:28:26Z</time>
      </trkpt>
      <trkpt lat="44.40164" lon="3.85894">
        <ele>1458.8</ele>
        <time>2022-10-29T06:28:27Z</time>
      </trkpt>
      <trkpt lat="44.40162" lon="3.85899">
        <ele>1458.4</ele>
        <time>2022-10-29T06:28:28Z</time>
      </trkpt>
      <trkpt lat="44.40161" lon="3.85904">
        <ele>1458</ele>
        <time>2022-10-29T06:28:29Z</time>
      </trkpt>
      <trkpt lat="44.4016" lon="3.8591">
        <ele>1457.6</ele>
        <time>2022-10-29T06:28:30Z</time>
      </trkpt>
      <trkpt lat="44.40159" lon="3.85916">
        <ele>1457.2</ele>
        <time>2022-10-29T06:28:31Z</time>
      </trkpt>
      <trkpt lat="44.40158" lon="3.85922">
        <ele>1456.8</ele>
        <time>2022-10-29T06:28:32Z</time>
      </trkpt>
      <trkpt lat="44.40157" lon="3.85928">
        <ele>1456.4</ele>
        <time>2022-10-29T06:28:33Z</time>
      </trkpt>
      <trkpt lat="44.40156" lon="3.85935">
        <ele>1455.8</ele>
        <time>2022-10-29T06:28:34Z</time>
      </trkpt>
      <trkpt lat="44.40154" lon="3.85942">
        <ele>1455.4</ele>
        <time>2022-10-29T06:28:35Z</time>
      </trkpt>
      <trkpt lat="44.40152" lon="3.85948">
        <ele>1454.8</ele>
        <time>2022-10-29T06:28:36Z</time>
      </trkpt>
      <trkpt lat="44.4015" lon="3.85954">
        <ele>1454.4</ele>
        <time>2022-10-29T06:28:37Z</time>
      </trkpt>
      <trkpt lat="44.40149" lon="3.8596">
        <ele>1454</ele>
        <time>2022-10-29T06:28:38Z</time>
      </trkpt>
      <trkpt lat="44.40146" lon="3.85967">
        <ele>1453.4</ele>
        <time>2022-10-29T06:28:39Z</time>
      </trkpt>
      <trkpt lat="44.40144" lon="3.85974">
        <ele>1453</ele>
        <time>2022-10-29T06:28:40Z</time>
      </trkpt>
      <trkpt lat="44.40141" lon="3.8598">
        <ele>1452.4</ele>
        <time>2022-10-29T06:28:41Z</time>
      </trkpt>
      <trkpt lat="44.40139" lon="3.85987">
        <ele>1451.8</ele>
        <time>2022-10-29T06:28:42Z</time>
      </trkpt>
      <trkpt lat="44.40136" lon="3.85994">
        <ele>1451.2</ele>
        <time>2022-10-29T06:28:43Z</time>
      </trkpt>
      <trkpt lat="44.40133" lon="3.86001">
        <ele>1450.6</ele>
        <time>2022-10-29T06:28:44Z</time>
      </trkpt>
      <trkpt lat="44.4013" lon="3.86007">
        <ele>1450</ele>
        <time>2022-10-29T06:28:45Z</time>
      </trkpt>
      <trkpt lat="44.40127" lon="3.86014">
        <ele>1449.6</ele>
        <time>2022-10-29T06:28:46Z</time>
      </trkpt>
      <trkpt lat="44.40124" lon="3.86021">
        <ele>1449</ele>
        <time>2022-10-29T06:28:47Z</time>
      </trkpt>
      <trkpt lat="44.4012" lon="3.86029">
        <ele>1448.4</ele>
        <time>2022-10-29T06:28:48Z</time>
      </trkpt>
      <trkpt lat="44.40115" lon="3.86037">
        <ele>1447.8</ele>
        <time>2022-10-29T06:28:49Z</time>
      </trkpt>
      <trkpt lat="44.40111" lon="3.86045">
        <ele>1447.2</ele>
        <time>2022-10-29T06:28:50Z</time>
      </trkpt>
      <trkpt lat="44.40106" lon="3.86054">
        <ele>1446.8</ele>
        <time>2022-10-29T06:28:51Z</time>
      </trkpt>
      <trkpt lat="44.40101" lon="3.86063">
        <ele>1446.2</ele>
        <time>2022-10-29T06:28:52Z</time>
      </trkpt>
      <trkpt lat="44.40096" lon="3.86071">
        <ele>1446</ele>
        <time>2022-10-29T06:28:53Z</time>
      </trkpt>
      <trkpt lat="44.4009" lon="3.86077">
        <ele>1445.6</ele>
        <time>2022-10-29T06:28:54Z</time>
      </trkpt>
      <trkpt lat="44.40085" lon="3.86082">
        <ele>1445.6</ele>
        <time>2022-10-29T06:28:55Z</time>
      </trkpt>
      <trkpt lat="44.40079" lon="3.86085">
        <ele>1445.4</ele>
        <time>2022-10-29T06:28:56Z</time>
      </trkpt>
      <trkpt lat="44.40074" lon="3.86087">
        <ele>1445.4</ele>
        <time>2022-10-29T06:28:57Z</time>
      </trkpt>
      <trkpt lat="44.40069" lon="3.86088">
        <ele>1445.4</ele>
        <time>2022-10-29T06:28:58Z</time>
      </trkpt>
      <trkpt lat="44.40065" lon="3.86088">
        <ele>1445.6</ele>
        <time>2022-10-29T06:28:59Z</time>
      </trkpt>
      <trkpt lat="44.40061" lon="3.86089">
        <ele>1445.6</ele>
        <time>2022-10-29T06:29:00Z</time>
      </trkpt>
      <trkpt lat="44.40059" lon="3.86089">
        <ele>1445.8</ele>
        <time>2022-10-29T06:29:01Z</time>
      </trkpt>
      <trkpt lat="44.40055" lon="3.8609">
        <ele>1446</ele>
        <time>2022-10-29T06:29:02Z</time>
      </trkpt>
      <trkpt lat="44.40051" lon="3.86092">
        <ele>1446.2</ele>
        <time>2022-10-29T06:29:03Z</time>
      </trkpt>
      <trkpt lat="44.40048" lon="3.86093">
        <ele>1446.4</ele>
        <time>2022-10-29T06:29:04Z</time>
      </trkpt>
      <trkpt lat="44.40045" lon="3.86094">
        <ele>1446.8</ele>
        <time>2022-10-29T06:29:05Z</time>
      </trkpt>
      <trkpt lat="44.40042" lon="3.86095">
        <ele>1447.2</ele>
        <time>2022-10-29T06:29:06Z</time>
      </trkpt>
      <trkpt lat="44.40039" lon="3.86096">
        <ele>1447.6</ele>
        <time>2022-10-29T06:29:07Z</time>
      </trkpt>
      <trkpt lat="44.40036" lon="3.86098">
        <ele>1448</ele>
        <time>2022-10-29T06:29:08Z</time>
      </trkpt>
      <trkpt lat="44.40034" lon="3.86099">
        <ele>1448.4</ele>
        <time>2022-10-29T06:29:09Z</time>
      </trkpt>
      <trkpt lat="44.40032" lon="3.86101">
        <ele>1448.6</ele>
        <time>2022-10-29T06:29:10Z</time>
      </trkpt>
      <trkpt lat="44.40029" lon="3.86102">
        <ele>1449</ele>
        <time>2022-10-29T06:29:11Z</time>
      </trkpt>
      <trkpt lat="44.40027" lon="3.86104">
        <ele>1449.2</ele>
        <time>2022-10-29T06:29:12Z</time>
      </trkpt>
      <trkpt lat="44.40025" lon="3.86106">
        <ele>1449.4</ele>
        <time>2022-10-29T06:29:13Z</time>
      </trkpt>
      <trkpt lat="44.40023" lon="3.86108">
        <ele>1449.6</ele>
        <time>2022-10-29T06:29:14Z</time>
      </trkpt>
      <trkpt lat="44.40021" lon="3.8611">
        <ele>1450</ele>
        <time>2022-10-29T06:29:15Z</time>
      </trkpt>
      <trkpt lat="44.40019" lon="3.86111">
        <ele>1450.2</ele>
        <time>2022-10-29T06:29:16Z</time>
      </trkpt>
      <trkpt lat="44.40017" lon="3.86113">
        <ele>1450.2</ele>
        <time>2022-10-29T06:29:17Z</time>
      </trkpt>
      <trkpt lat="44.40015" lon="3.86114">
        <ele>1450.4</ele>
        <time>2022-10-29T06:29:18Z</time>
      </trkpt>
      <trkpt lat="44.40013" lon="3.86115">
        <ele>1450.6</ele>
        <time>2022-10-29T06:29:19Z</time>
      </trkpt>
      <trkpt lat="44.40011" lon="3.86116">
        <ele>1450.8</ele>
        <time>2022-10-29T06:29:20Z</time>
      </trkpt>
      <trkpt lat="44.40009" lon="3.86118">
        <ele>1450.8</ele>
        <time>2022-10-29T06:29:21Z</time>
      </trkpt>
      <trkpt lat="44.40007" lon="3.86119">
        <ele>1451</ele>
        <time>2022-10-29T06:29:22Z</time>
      </trkpt>
      <trkpt lat="44.40004" lon="3.8612">
        <ele>1451.2</ele>
        <time>2022-10-29T06:29:23Z</time>
      </trkpt>
      <trkpt lat="44.40002" lon="3.86122">
        <ele>1451.4</ele>
        <time>2022-10-29T06:29:24Z</time>
      </trkpt>
      <trkpt lat="44.4" lon="3.86123">
        <ele>1451.8</ele>
        <time>2022-10-29T06:29:25Z</time>
      </trkpt>
      <trkpt lat="44.39998" lon="3.86125">
        <ele>1452</ele>
        <time>2022-10-29T06:29:26Z</time>
      </trkpt>
      <trkpt lat="44.39996" lon="3.86126">
        <ele>1452.4</ele>
        <time>2022-10-29T06:29:27Z</time>
      </trkpt>
      <trkpt lat="44.39994" lon="3.86127">
        <ele>1452.8</ele>
        <time>2022-10-29T06:29:28Z</time>
      </trkpt>
      <trkpt lat="44.39992" lon="3.86128">
        <ele>1453</ele>
        <time>2022-10-29T06:29:29Z</time>
      </trkpt>
      <trkpt lat="44.39991" lon="3.86129">
        <ele>1453.4</ele>
        <time>2022-10-29T06:29:30Z</time>
      </trkpt>
      <trkpt lat="44.39989" lon="3.8613">
        <ele>1453.8</ele>
        <time>2022-10-29T06:29:31Z</time>
      </trkpt>
      <trkpt lat="44.39987" lon="3.86132">
        <ele>1454</ele>
        <time>2022-10-29T06:29:32Z</time>
      </trkpt>
      <trkpt lat="44.39985" lon="3.86133">
        <ele>1454.4</ele>
        <time>2022-10-29T06:29:33Z</time>
      </trkpt>
      <trkpt lat="44.39983" lon="3.86134">
        <ele>1454.6</ele>
        <time>2022-10-29T06:29:34Z</time>
      </trkpt>
      <trkpt lat="44.39982" lon="3.86135">
        <ele>1454.8</ele>
        <time>2022-10-29T06:29:35Z</time>
      </trkpt>
      <trkpt lat="44.3998" lon="3.86136">
        <ele>1455</ele>
        <time>2022-10-29T06:29:36Z</time>
      </trkpt>
      <trkpt lat="44.39978" lon="3.86138">
        <ele>1455.2</ele>
        <time>2022-10-29T06:29:37Z</time>
      </trkpt>
      <trkpt lat="44.39977" lon="3.86139">
        <ele>1455.4</ele>
        <time>2022-10-29T06:29:38Z</time>
      </trkpt>
      <trkpt lat="44.39975" lon="3.8614">
        <ele>1455.6</ele>
        <time>2022-10-29T06:29:39Z</time>
      </trkpt>
      <trkpt lat="44.39973" lon="3.86142">
        <ele>1455.8</ele>
        <time>2022-10-29T06:29:40Z</time>
      </trkpt>
      <trkpt lat="44.39972" lon="3.86143">
        <ele>1456.2</ele>
        <time>2022-10-29T06:29:41Z</time>
      </trkpt>
      <trkpt lat="44.3997" lon="3.86145">
        <ele>1456.4</ele>
        <time>2022-10-29T06:29:42Z</time>
      </trkpt>
      <trkpt lat="44.39968" lon="3.86146">
        <ele>1456.8</ele>
        <time>2022-10-29T06:29:43Z</time>
      </trkpt>
      <trkpt lat="44.39967" lon="3.86148">
        <ele>1457</ele>
        <time>2022-10-29T06:29:44Z</time>
      </trkpt>
      <trkpt lat="44.39965" lon="3.8615">
        <ele>1457.4</ele>
        <time>2022-10-29T06:29:45Z</time>
      </trkpt>
      <trkpt lat="44.39963" lon="3.86152">
        <ele>1457.6</ele>
        <time>2022-10-29T06:29:46Z</time>
      </trkpt>
      <trkpt lat="44.39962" lon="3.86154">
        <ele>1458</ele>
        <time>2022-10-29T06:29:47Z</time>
      </trkpt>
      <trkpt lat="44.3996" lon="3.86156">
        <ele>1458.2</ele>
        <time>2022-10-29T06:29:48Z</time>
      </trkpt>
      <trkpt lat="44.39959" lon="3.86158">
        <ele>1458.6</ele>
        <time>2022-10-29T06:29:49Z</time>
      </trkpt>
      <trkpt lat="44.39957" lon="3.86159">
        <ele>1458.8</ele>
        <time>2022-10-29T06:29:50Z</time>
      </trkpt>
      <trkpt lat="44.39956" lon="3.8616">
        <ele>1459</ele>
        <time>2022-10-29T06:29:51Z</time>
      </trkpt>
      <trkpt lat="44.39954" lon="3.86163">
        <ele>1459.2</ele>
        <time>2022-10-29T06:29:52Z</time>
      </trkpt>
      <trkpt lat="44.39952" lon="3.86165">
        <ele>1459.4</ele>
        <time>2022-10-29T06:29:53Z</time>
      </trkpt>
      <trkpt lat="44.3995" lon="3.86167">
        <ele>1459.6</ele>
        <time>2022-10-29T06:29:54Z</time>
      </trkpt>
      <trkpt lat="44.39949" lon="3.86169">
        <ele>1460</ele>
        <time>2022-10-29T06:29:55Z</time>
      </trkpt>
      <trkpt lat="44.39948" lon="3.86171">
        <ele>1460.2</ele>
        <time>2022-10-29T06:29:56Z</time>
      </trkpt>
      <trkpt lat="44.39946" lon="3.86173">
        <ele>1460.6</ele>
        <time>2022-10-29T06:29:57Z</time>
      </trkpt>
      <trkpt lat="44.39945" lon="3.86175">
        <ele>1460.8</ele>
        <time>2022-10-29T06:29:58Z</time>
      </trkpt>
      <trkpt lat="44.39944" lon="3.86177">
        <ele>1461.2</ele>
        <time>2022-10-29T06:29:59Z</time>
      </trkpt>
      <trkpt lat="44.39942" lon="3.86179">
        <ele>1461.4</ele>
        <time>2022-10-29T06:30:00Z</time>
      </trkpt>
      <trkpt lat="44.39941" lon="3.86181">
        <ele>1461.8</ele>
        <time>2022-10-29T06:30:01Z</time>
      </trkpt>
      <trkpt lat="44.39939" lon="3.86182">
        <ele>1462.2</ele>
        <time>2022-10-29T06:30:02Z</time>
      </trkpt>
      <trkpt lat="44.39938" lon="3.86185">
        <ele>1462.4</ele>
        <time>2022-10-29T06:30:03Z</time>
      </trkpt>
      <trkpt lat="44.39937" lon="3.86187">
        <ele>1462.8</ele>
        <time>2022-10-29T06:30:04Z</time>
      </trkpt>
      <trkpt lat="44.39936" lon="3.86189">
        <ele>1463</ele>
        <time>2022-10-29T06:30:05Z</time>
      </trkpt>
      <trkpt lat="44.39935" lon="3.86191">
        <ele>1463.2</ele>
        <time>2022-10-29T06:30:06Z</time>
      </trkpt>
      <trkpt lat="44.39934" lon="3.86194">
        <ele>1463.4</ele>
        <time>2022-10-29T06:30:07Z</time>
      </trkpt>
      <trkpt lat="44.39933" lon="3.86196">
        <ele>1463.6</ele>
        <time>2022-10-29T06:30:08Z</time>
      </trkpt>
      <trkpt lat="44.39932" lon="3.86198">
        <ele>1463.8</ele>
        <time>2022-10-29T06:30:09Z</time>
      </trkpt>
      <trkpt lat="44.39931" lon="3.86201">
        <ele>1464</ele>
        <time>2022-10-29T06:30:10Z</time>
      </trkpt>
      <trkpt lat="44.39931" lon="3.86203">
        <ele>1464</ele>
        <time>2022-10-29T06:30:11Z</time>
      </trkpt>
      <trkpt lat="44.3993" lon="3.86206">
        <ele>1464.2</ele>
        <time>2022-10-29T06:30:12Z</time>
      </trkpt>
      <trkpt lat="44.39929" lon="3.86208">
        <ele>1464.2</ele>
        <time>2022-10-29T06:30:13Z</time>
      </trkpt>
      <trkpt lat="44.39928" lon="3.86211">
        <ele>1464.4</ele>
        <time>2022-10-29T06:30:14Z</time>
      </trkpt>
      <trkpt lat="44.39927" lon="3.86214">
        <ele>1464.4</ele>
        <time>2022-10-29T06:30:15Z</time>
      </trkpt>
      <trkpt lat="44.39926" lon="3.86217">
        <ele>1464.6</ele>
        <time>2022-10-29T06:30:16Z</time>
      </trkpt>
      <trkpt lat="44.39925" lon="3.8622">
        <ele>1464.6</ele>
        <time>2022-10-29T06:30:17Z</time>
      </trkpt>
      <trkpt lat="44.39924" lon="3.86222">
        <ele>1464.8</ele>
        <time>2022-10-29T06:30:18Z</time>
      </trkpt>
      <trkpt lat="44.39923" lon="3.86225">
        <ele>1464.8</ele>
        <time>2022-10-29T06:30:19Z</time>
      </trkpt>
      <trkpt lat="44.39921" lon="3.86228">
        <ele>1465</ele>
        <time>2022-10-29T06:30:20Z</time>
      </trkpt>
      <trkpt lat="44.3992" lon="3.86231">
        <ele>1465</ele>
        <time>2022-10-29T06:30:21Z</time>
      </trkpt>
      <trkpt lat="44.39919" lon="3.86234">
        <ele>1465</ele>
        <time>2022-10-29T06:30:22Z</time>
      </trkpt>
      <trkpt lat="44.39918" lon="3.86237">
        <ele>1465.2</ele>
        <time>2022-10-29T06:30:23Z</time>
      </trkpt>
      <trkpt lat="44.39916" lon="3.86239">
        <ele>1465.4</ele>
        <time>2022-10-29T06:30:24Z</time>
      </trkpt>
      <trkpt lat="44.39915" lon="3.86243">
        <ele>1465.4</ele>
        <time>2022-10-29T06:30:25Z</time>
      </trkpt>
      <trkpt lat="44.39913" lon="3.86245">
        <ele>1465.6</ele>
        <time>2022-10-29T06:30:26Z</time>
      </trkpt>
      <trkpt lat="44.39912" lon="3.86248">
        <ele>1465.8</ele>
        <time>2022-10-29T06:30:27Z</time>
      </trkpt>
      <trkpt lat="44.3991" lon="3.8625">
        <ele>1466</ele>
        <time>2022-10-29T06:30:28Z</time>
      </trkpt>
      <trkpt lat="44.39909" lon="3.86253">
        <ele>1466.2</ele>
        <time>2022-10-29T06:30:29Z</time>
      </trkpt>
      <trkpt lat="44.39908" lon="3.86255">
        <ele>1466.4</ele>
        <time>2022-10-29T06:30:30Z</time>
      </trkpt>
      <trkpt lat="44.39907" lon="3.86258">
        <ele>1466.4</ele>
        <time>2022-10-29T06:30:31Z</time>
      </trkpt>
      <trkpt lat="44.39906" lon="3.86261">
        <ele>1466.6</ele>
        <time>2022-10-29T06:30:32Z</time>
      </trkpt>
      <trkpt lat="44.39905" lon="3.86264">
        <ele>1466.8</ele>
        <time>2022-10-29T06:30:33Z</time>
      </trkpt>
      <trkpt lat="44.39905" lon="3.86267">
        <ele>1467</ele>
        <time>2022-10-29T06:30:34Z</time>
      </trkpt>
      <trkpt lat="44.39904" lon="3.8627">
        <ele>1467.2</ele>
        <time>2022-10-29T06:30:35Z</time>
      </trkpt>
      <trkpt lat="44.39904" lon="3.86273">
        <ele>1467.4</ele>
        <time>2022-10-29T06:30:36Z</time>
      </trkpt>
      <trkpt lat="44.39904" lon="3.86276">
        <ele>1467.4</ele>
        <time>2022-10-29T06:30:37Z</time>
      </trkpt>
      <trkpt lat="44.39904" lon="3.86279">
        <ele>1467.6</ele>
        <time>2022-10-29T06:30:38Z</time>
      </trkpt>
      <trkpt lat="44.39904" lon="3.86282">
        <ele>1467.8</ele>
        <time>2022-10-29T06:30:39Z</time>
      </trkpt>
      <trkpt lat="44.39904" lon="3.86285">
        <ele>1467.8</ele>
        <time>2022-10-29T06:30:40Z</time>
      </trkpt>
      <trkpt lat="44.39905" lon="3.86289">
        <ele>1468</ele>
        <time>2022-10-29T06:30:41Z</time>
      </trkpt>
      <trkpt lat="44.39905" lon="3.86293">
        <ele>1468</ele>
        <time>2022-10-29T06:30:42Z</time>
      </trkpt>
      <trkpt lat="44.39906" lon="3.86297">
        <ele>1468.2</ele>
        <time>2022-10-29T06:30:43Z</time>
      </trkpt>
      <trkpt lat="44.39907" lon="3.863">
        <ele>1468.4</ele>
        <time>2022-10-29T06:30:44Z</time>
      </trkpt>
      <trkpt lat="44.39907" lon="3.86303">
        <ele>1468.4</ele>
        <time>2022-10-29T06:30:45Z</time>
      </trkpt>
      <trkpt lat="44.39906" lon="3.86306">
        <ele>1468.6</ele>
        <time>2022-10-29T06:30:46Z</time>
      </trkpt>
      <trkpt lat="44.39906" lon="3.86309">
        <ele>1468.6</ele>
        <time>2022-10-29T06:30:47Z</time>
      </trkpt>
      <trkpt lat="44.39907" lon="3.86313">
        <ele>1468.8</ele>
        <time>2022-10-29T06:30:48Z</time>
      </trkpt>
      <trkpt lat="44.39907" lon="3.86316">
        <ele>1469</ele>
        <time>2022-10-29T06:30:49Z</time>
      </trkpt>
      <trkpt lat="44.39906" lon="3.86319">
        <ele>1469</ele>
        <time>2022-10-29T06:30:50Z</time>
      </trkpt>
      <trkpt lat="44.39906" lon="3.86322">
        <ele>1469.2</ele>
        <time>2022-10-29T06:30:51Z</time>
      </trkpt>
      <trkpt lat="44.39905" lon="3.86325">
        <ele>1469.4</ele>
        <time>2022-10-29T06:30:52Z</time>
      </trkpt>
      <trkpt lat="44.39905" lon="3.86328">
        <ele>1469.6</ele>
        <time>2022-10-29T06:30:53Z</time>
      </trkpt>
      <trkpt lat="44.39904" lon="3.86331">
        <ele>1469.6</ele>
        <time>2022-10-29T06:30:54Z</time>
      </trkpt>
      <trkpt lat="44.39904" lon="3.86334">
        <ele>1469.8</ele>
        <time>2022-10-29T06:30:55Z</time>
      </trkpt>
      <trkpt lat="44.39904" lon="3.86337">
        <ele>1470</ele>
        <time>2022-10-29T06:30:56Z</time>
      </trkpt>
      <trkpt lat="44.39903" lon="3.8634">
        <ele>1470</ele>
        <time>2022-10-29T06:30:57Z</time>
      </trkpt>
      <trkpt lat="44.39903" lon="3.86343">
        <ele>1470.2</ele>
        <time>2022-10-29T06:30:58Z</time>
      </trkpt>
      <trkpt lat="44.39902" lon="3.86346">
        <ele>1470.4</ele>
        <time>2022-10-29T06:30:59Z</time>
      </trkpt>
      <trkpt lat="44.39902" lon="3.86349">
        <ele>1470.4</ele>
        <time>2022-10-29T06:31:00Z</time>
      </trkpt>
      <trkpt lat="44.39902" lon="3.86353">
        <ele>1470.6</ele>
        <time>2022-10-29T06:31:01Z</time>
      </trkpt>
      <trkpt lat="44.39901" lon="3.86356">
        <ele>1470.8</ele>
        <time>2022-10-29T06:31:02Z</time>
      </trkpt>
      <trkpt lat="44.39901" lon="3.86359">
        <ele>1471</ele>
        <time>2022-10-29T06:31:03Z</time>
      </trkpt>
      <trkpt lat="44.39901" lon="3.86362">
        <ele>1471.2</ele>
        <time>2022-10-29T06:31:04Z</time>
      </trkpt>
      <trkpt lat="44.39901" lon="3.86364">
        <ele>1471.4</ele>
        <time>2022-10-29T06:31:05Z</time>
      </trkpt>
      <trkpt lat="44.39901" lon="3.86367">
        <ele>1471.6</ele>
        <time>2022-10-29T06:31:06Z</time>
      </trkpt>
      <trkpt lat="44.39902" lon="3.86369">
        <ele>1471.8</ele>
        <time>2022-10-29T06:31:07Z</time>
      </trkpt>
      <trkpt lat="44.39902" lon="3.86372">
        <ele>1472</ele>
        <time>2022-10-29T06:31:08Z</time>
      </trkpt>
      <trkpt lat="44.39901" lon="3.86375">
        <ele>1472.2</ele>
        <time>2022-10-29T06:31:09Z</time>
      </trkpt>
      <trkpt lat="44.39902" lon="3.86377">
        <ele>1472.4</ele>
        <time>2022-10-29T06:31:10Z</time>
      </trkpt>
      <trkpt lat="44.39902" lon="3.8638">
        <ele>1472.6</ele>
        <time>2022-10-29T06:31:11Z</time>
      </trkpt>
      <trkpt lat="44.39903" lon="3.86382">
        <ele>1472.8</ele>
        <time>2022-10-29T06:31:12Z</time>
      </trkpt>
      <trkpt lat="44.39903" lon="3.86384">
        <ele>1473.2</ele>
        <time>2022-10-29T06:31:13Z</time>
      </trkpt>
      <trkpt lat="44.39903" lon="3.86386">
        <ele>1473.4</ele>
        <time>2022-10-29T06:31:14Z</time>
      </trkpt>
      <trkpt lat="44.39904" lon="3.86389">
        <ele>1473.6</ele>
        <time>2022-10-29T06:31:15Z</time>
      </trkpt>
      <trkpt lat="44.39904" lon="3.86391">
        <ele>1473.8</ele>
        <time>2022-10-29T06:31:16Z</time>
      </trkpt>
      <trkpt lat="44.39904" lon="3.86394">
        <ele>1474</ele>
        <time>2022-10-29T06:31:17Z</time>
      </trkpt>
      <trkpt lat="44.39903" lon="3.86396">
        <ele>1474.2</ele>
        <time>2022-10-29T06:31:18Z</time>
      </trkpt>
      <trkpt lat="44.39903" lon="3.86399">
        <ele>1474.4</ele>
        <time>2022-10-29T06:31:19Z</time>
      </trkpt>
      <trkpt lat="44.39903" lon="3.86401">
        <ele>1474.6</ele>
        <time>2022-10-29T06:31:20Z</time>
      </trkpt>
      <trkpt lat="44.39902" lon="3.86404">
        <ele>1474.8</ele>
        <time>2022-10-29T06:31:21Z</time>
      </trkpt>
      <trkpt lat="44.39902" lon="3.86407">
        <ele>1475</ele>
        <time>2022-10-29T06:31:22Z</time>
      </trkpt>
      <trkpt lat="44.39902" lon="3.86409">
        <ele>1475.2</ele>
        <time>2022-10-29T06:31:23Z</time>
      </trkpt>
      <trkpt lat="44.39901" lon="3.86412">
        <ele>1475.2</ele>
        <time>2022-10-29T06:31:24Z</time>
      </trkpt>
      <trkpt lat="44.39901" lon="3.86415">
        <ele>1475.4</ele>
        <time>2022-10-29T06:31:25Z</time>
      </trkpt>
      <trkpt lat="44.39901" lon="3.86417">
        <ele>1475.6</ele>
        <time>2022-10-29T06:31:26Z</time>
      </trkpt>
      <trkpt lat="44.39901" lon="3.8642">
        <ele>1475.6</ele>
        <time>2022-10-29T06:31:27Z</time>
      </trkpt>
      <trkpt lat="44.399" lon="3.86424">
        <ele>1475.8</ele>
        <time>2022-10-29T06:31:28Z</time>
      </trkpt>
      <trkpt lat="44.399" lon="3.86427">
        <ele>1476</ele>
        <time>2022-10-29T06:31:29Z</time>
      </trkpt>
      <trkpt lat="44.399" lon="3.8643">
        <ele>1476.2</ele>
        <time>2022-10-29T06:31:30Z</time>
      </trkpt>
      <trkpt lat="44.399" lon="3.86433">
        <ele>1476.4</ele>
        <time>2022-10-29T06:31:31Z</time>
      </trkpt>
      <trkpt lat="44.39901" lon="3.86436">
        <ele>1476.6</ele>
        <time>2022-10-29T06:31:32Z</time>
      </trkpt>
      <trkpt lat="44.399" lon="3.86439">
        <ele>1476.8</ele>
        <time>2022-10-29T06:31:33Z</time>
      </trkpt>
      <trkpt lat="44.399" lon="3.86442">
        <ele>1477</ele>
        <time>2022-10-29T06:31:34Z</time>
      </trkpt>
      <trkpt lat="44.39899" lon="3.86444">
        <ele>1477.2</ele>
        <time>2022-10-29T06:31:35Z</time>
      </trkpt>
      <trkpt lat="44.39899" lon="3.86447">
        <ele>1477.2</ele>
        <time>2022-10-29T06:31:36Z</time>
      </trkpt>
      <trkpt lat="44.39898" lon="3.8645">
        <ele>1477.4</ele>
        <time>2022-10-29T06:31:37Z</time>
      </trkpt>
      <trkpt lat="44.39898" lon="3.86453">
        <ele>1477.6</ele>
        <time>2022-10-29T06:31:38Z</time>
      </trkpt>
      <trkpt lat="44.39897" lon="3.86455">
        <ele>1477.8</ele>
        <time>2022-10-29T06:31:39Z</time>
      </trkpt>
      <trkpt lat="44.39897" lon="3.86458">
        <ele>1478</ele>
        <time>2022-10-29T06:31:40Z</time>
      </trkpt>
      <trkpt lat="44.39896" lon="3.86461">
        <ele>1478.2</ele>
        <time>2022-10-29T06:31:41Z</time>
      </trkpt>
      <trkpt lat="44.39895" lon="3.86464">
        <ele>1478.4</ele>
        <time>2022-10-29T06:31:42Z</time>
      </trkpt>
      <trkpt lat="44.39894" lon="3.86467">
        <ele>1478.4</ele>
        <time>2022-10-29T06:31:43Z</time>
      </trkpt>
      <trkpt lat="44.39894" lon="3.8647">
        <ele>1478.6</ele>
        <time>2022-10-29T06:31:44Z</time>
      </trkpt>
      <trkpt lat="44.39894" lon="3.86472">
        <ele>1478.8</ele>
        <time>2022-10-29T06:31:45Z</time>
      </trkpt>
      <trkpt lat="44.39893" lon="3.86475">
        <ele>1479</ele>
        <time>2022-10-29T06:31:46Z</time>
      </trkpt>
      <trkpt lat="44.39893" lon="3.86477">
        <ele>1479.2</ele>
        <time>2022-10-29T06:31:47Z</time>
      </trkpt>
      <trkpt lat="44.39892" lon="3.8648">
        <ele>1479.2</ele>
        <time>2022-10-29T06:31:48Z</time>
      </trkpt>
      <trkpt lat="44.39891" lon="3.86483">
        <ele>1479.4</ele>
        <time>2022-10-29T06:31:49Z</time>
      </trkpt>
      <trkpt lat="44.3989" lon="3.86486">
        <ele>1479.6</ele>
        <time>2022-10-29T06:31:50Z</time>
      </trkpt>
      <trkpt lat="44.39889" lon="3.86489">
        <ele>1479.6</ele>
        <time>2022-10-29T06:31:51Z</time>
      </trkpt>
      <trkpt lat="44.39889" lon="3.86493">
        <ele>1479.8</ele>
        <time>2022-10-29T06:31:52Z</time>
      </trkpt>
      <trkpt lat="44.39889" lon="3.86496">
        <ele>1480</ele>
        <time>2022-10-29T06:31:53Z</time>
      </trkpt>
      <trkpt lat="44.39888" lon="3.86499">
        <ele>1480.2</ele>
        <time>2022-10-29T06:31:54Z</time>
      </trkpt>
      <trkpt lat="44.39887" lon="3.86502">
        <ele>1480.4</ele>
        <time>2022-10-29T06:31:55Z</time>
      </trkpt>
      <trkpt lat="44.39886" lon="3.86504">
        <ele>1480.6</ele>
        <time>2022-10-29T06:31:56Z</time>
      </trkpt>
      <trkpt lat="44.39885" lon="3.86507">
        <ele>1480.8</ele>
        <time>2022-10-29T06:31:57Z</time>
      </trkpt>
      <trkpt lat="44.39884" lon="3.8651">
        <ele>1481</ele>
        <time>2022-10-29T06:31:58Z</time>
      </trkpt>
      <trkpt lat="44.39882" lon="3.86513">
        <ele>1481</ele>
        <time>2022-10-29T06:31:59Z</time>
      </trkpt>
      <trkpt lat="44.39881" lon="3.86516">
        <ele>1481.2</ele>
        <time>2022-10-29T06:32:00Z</time>
      </trkpt>
      <trkpt lat="44.3988" lon="3.8652">
        <ele>1481.4</ele>
        <time>2022-10-29T06:32:01Z</time>
      </trkpt>
      <trkpt lat="44.39879" lon="3.86523">
        <ele>1481.4</ele>
        <time>2022-10-29T06:32:02Z</time>
      </trkpt>
      <trkpt lat="44.39878" lon="3.86526">
        <ele>1481.6</ele>
        <time>2022-10-29T06:32:03Z</time>
      </trkpt>
      <trkpt lat="44.39878" lon="3.86529">
        <ele>1481.8</ele>
        <time>2022-10-29T06:32:04Z</time>
      </trkpt>
      <trkpt lat="44.39877" lon="3.86532">
        <ele>1481.8</ele>
        <time>2022-10-29T06:32:05Z</time>
      </trkpt>
      <trkpt lat="44.39876" lon="3.86535">
        <ele>1482</ele>
        <time>2022-10-29T06:32:06Z</time>
      </trkpt>
      <trkpt lat="44.39875" lon="3.86538">
        <ele>1482</ele>
        <time>2022-10-29T06:32:07Z</time>
      </trkpt>
      <trkpt lat="44.39874" lon="3.8654">
        <ele>1482.2</ele>
        <time>2022-10-29T06:32:08Z</time>
      </trkpt>
      <trkpt lat="44.39872" lon="3.86544">
        <ele>1482.2</ele>
        <time>2022-10-29T06:32:09Z</time>
      </trkpt>
      <trkpt lat="44.39871" lon="3.86546">
        <ele>1482.4</ele>
        <time>2022-10-29T06:32:10Z</time>
      </trkpt>
      <trkpt lat="44.3987" lon="3.86549">
        <ele>1482.4</ele>
        <time>2022-10-29T06:32:11Z</time>
      </trkpt>
      <trkpt lat="44.39869" lon="3.86553">
        <ele>1482.6</ele>
        <time>2022-10-29T06:32:12Z</time>
      </trkpt>
      <trkpt lat="44.39868" lon="3.86556">
        <ele>1482.6</ele>
        <time>2022-10-29T06:32:13Z</time>
      </trkpt>
      <trkpt lat="44.39867" lon="3.86558">
        <ele>1482.8</ele>
        <time>2022-10-29T06:32:14Z</time>
      </trkpt>
      <trkpt lat="44.39866" lon="3.86561">
        <ele>1483</ele>
        <time>2022-10-29T06:32:15Z</time>
      </trkpt>
      <trkpt lat="44.39865" lon="3.86564">
        <ele>1483</ele>
        <time>2022-10-29T06:32:16Z</time>
      </trkpt>
      <trkpt lat="44.39864" lon="3.86567">
        <ele>1483.2</ele>
        <time>2022-10-29T06:32:17Z</time>
      </trkpt>
      <trkpt lat="44.39863" lon="3.8657">
        <ele>1483.2</ele>
        <time>2022-10-29T06:32:18Z</time>
      </trkpt>
      <trkpt lat="44.39861" lon="3.86573">
        <ele>1483.4</ele>
        <time>2022-10-29T06:32:19Z</time>
      </trkpt>
      <trkpt lat="44.3986" lon="3.86576">
        <ele>1483.4</ele>
        <time>2022-10-29T06:32:20Z</time>
      </trkpt>
      <trkpt lat="44.39859" lon="3.86578">
        <ele>1483.6</ele>
        <time>2022-10-29T06:32:21Z</time>
      </trkpt>
      <trkpt lat="44.39858" lon="3.86581">
        <ele>1483.6</ele>
        <time>2022-10-29T06:32:22Z</time>
      </trkpt>
      <trkpt lat="44.39857" lon="3.86584">
        <ele>1483.6</ele>
        <time>2022-10-29T06:32:23Z</time>
      </trkpt>
      <trkpt lat="44.39856" lon="3.86587">
        <ele>1483.8</ele>
        <time>2022-10-29T06:32:24Z</time>
      </trkpt>
      <trkpt lat="44.39855" lon="3.86591">
        <ele>1483.8</ele>
        <time>2022-10-29T06:32:25Z</time>
      </trkpt>
      <trkpt lat="44.39854" lon="3.86594">
        <ele>1483.8</ele>
        <time>2022-10-29T06:32:26Z</time>
      </trkpt>
      <trkpt lat="44.39853" lon="3.86596">
        <ele>1483.8</ele>
        <time>2022-10-29T06:32:27Z</time>
      </trkpt>
      <trkpt lat="44.39853" lon="3.86595">
        <ele>1484</ele>
        <time>2022-10-29T06:32:31Z</time>
      </trkpt>
      <trkpt lat="44.39853" lon="3.86593">
        <ele>1484</ele>
        <time>2022-10-29T06:32:32Z</time>
      </trkpt>
      <trkpt lat="44.39852" lon="3.86592">
        <ele>1484</ele>
        <time>2022-10-29T06:32:33Z</time>
      </trkpt>
      <trkpt lat="44.39852" lon="3.86591">
        <ele>1483.8</ele>
        <time>2022-10-29T06:32:34Z</time>
      </trkpt>
      <trkpt lat="44.39852" lon="3.8659">
        <ele>1483.8</ele>
        <time>2022-10-29T06:32:35Z</time>
      </trkpt>
      <trkpt lat="44.39853" lon="3.86589">
        <ele>1483.8</ele>
        <time>2022-10-29T06:32:36Z</time>
      </trkpt>
      <trkpt lat="44.39853" lon="3.86587">
        <ele>1483.8</ele>
        <time>2022-10-29T06:32:37Z</time>
      </trkpt>
      <trkpt lat="44.39854" lon="3.86585">
        <ele>1483.8</ele>
        <time>2022-10-29T06:32:38Z</time>
      </trkpt>
      <trkpt lat="44.39854" lon="3.86584">
        <ele>1483.8</ele>
        <time>2022-10-29T06:32:39Z</time>
      </trkpt>
      <trkpt lat="44.39855" lon="3.86583">
        <ele>1483.8</ele>
        <time>2022-10-29T06:32:40Z</time>
      </trkpt>
      <trkpt lat="44.39855" lon="3.86582">
        <ele>1483.6</ele>
        <time>2022-10-29T06:32:41Z</time>
      </trkpt>
      <trkpt lat="44.39855" lon="3.86582">
        <ele>1483.6</ele>
        <time>2022-10-29T06:32:42Z</time>
      </trkpt>
      <trkpt lat="44.39855" lon="3.86582">
        <ele>1483.4</ele>
        <time>2022-10-29T06:32:43Z</time>
      </trkpt>
      <trkpt lat="44.39855" lon="3.86582">
        <ele>1483.4</ele>
        <time>2022-10-29T06:32:44Z</time>
      </trkpt>
      <trkpt lat="44.39855" lon="3.86582">
        <ele>1483.4</ele>
        <time>2022-10-29T06:32:45Z</time>
      </trkpt>
      <trkpt lat="44.39856" lon="3.8658">
        <ele>1483.2</ele>
        <time>2022-10-29T06:33:17Z</time>
      </trkpt>
      <trkpt lat="44.39857" lon="3.86579">
        <ele>1483.2</ele>
        <time>2022-10-29T06:33:18Z</time>
      </trkpt>
      <trkpt lat="44.39858" lon="3.86575">
        <ele>1483.2</ele>
        <time>2022-10-29T06:33:19Z</time>
      </trkpt>
      <trkpt lat="44.39861" lon="3.8657">
        <ele>1483.2</ele>
        <time>2022-10-29T06:33:20Z</time>
      </trkpt>
      <trkpt lat="44.39864" lon="3.86565">
        <ele>1483.2</ele>
        <time>2022-10-29T06:33:21Z</time>
      </trkpt>
      <trkpt lat="44.39865" lon="3.86561">
        <ele>1483</ele>
        <time>2022-10-29T06:33:22Z</time>
      </trkpt>
      <trkpt lat="44.39867" lon="3.86557">
        <ele>1483</ele>
        <time>2022-10-29T06:33:23Z</time>
      </trkpt>
      <trkpt lat="44.39869" lon="3.86553">
        <ele>1482.8</ele>
        <time>2022-10-29T06:33:24Z</time>
      </trkpt>
      <trkpt lat="44.3987" lon="3.86549">
        <ele>1482.8</ele>
        <time>2022-10-29T06:33:25Z</time>
      </trkpt>
      <trkpt lat="44.39871" lon="3.86545">
        <ele>1482.6</ele>
        <time>2022-10-29T06:33:26Z</time>
      </trkpt>
      <trkpt lat="44.39873" lon="3.86541">
        <ele>1482.4</ele>
        <time>2022-10-29T06:33:27Z</time>
      </trkpt>
      <trkpt lat="44.39874" lon="3.86538">
        <ele>1482.2</ele>
        <time>2022-10-29T06:33:28Z</time>
      </trkpt>
      <trkpt lat="44.39875" lon="3.86535">
        <ele>1482</ele>
        <time>2022-10-29T06:33:29Z</time>
      </trkpt>
      <trkpt lat="44.39876" lon="3.86532">
        <ele>1482</ele>
        <time>2022-10-29T06:33:30Z</time>
      </trkpt>
      <trkpt lat="44.39877" lon="3.8653">
        <ele>1481.8</ele>
        <time>2022-10-29T06:33:31Z</time>
      </trkpt>
      <trkpt lat="44.39877" lon="3.86529">
        <ele>1481.8</ele>
        <time>2022-10-29T06:33:32Z</time>
      </trkpt>
      <trkpt lat="44.39878" lon="3.86529">
        <ele>1481.6</ele>
        <time>2022-10-29T06:33:33Z</time>
      </trkpt>
      <trkpt lat="44.39878" lon="3.86529">
        <ele>1481.6</ele>
        <time>2022-10-29T06:33:34Z</time>
      </trkpt>
      <trkpt lat="44.39878" lon="3.86529">
        <ele>1481.6</ele>
        <time>2022-10-29T06:33:35Z</time>
      </trkpt>
      <trkpt lat="44.39878" lon="3.86529">
        <ele>1481.6</ele>
        <time>2022-10-29T06:33:36Z</time>
      </trkpt>
      <trkpt lat="44.39878" lon="3.86529">
        <ele>1481.4</ele>
        <time>2022-10-29T06:33:37Z</time>
      </trkpt>
      <trkpt lat="44.39878" lon="3.86528">
        <ele>1481.4</ele>
        <time>2022-10-29T06:33:40Z</time>
      </trkpt>
      <trkpt lat="44.39878" lon="3.86527">
        <ele>1481.4</ele>
        <time>2022-10-29T06:33:41Z</time>
      </trkpt>
      <trkpt lat="44.39878" lon="3.86526">
        <ele>1481.4</ele>
        <time>2022-10-29T06:33:42Z</time>
      </trkpt>
      <trkpt lat="44.39879" lon="3.86525">
        <ele>1481.4</ele>
        <time>2022-10-29T06:33:43Z</time>
      </trkpt>
      <trkpt lat="44.39879" lon="3.86525">
        <ele>1481.4</ele>
        <time>2022-10-29T06:33:44Z</time>
      </trkpt>
      <trkpt lat="44.39879" lon="3.86525">
        <ele>1481.4</ele>
        <time>2022-10-29T06:33:45Z</time>
      </trkpt>
      <trkpt lat="44.39879" lon="3.86525">
        <ele>1481.4</ele>
        <time>2022-10-29T06:33:46Z</time>
      </trkpt>
      <trkpt lat="44.3988" lon="3.86522">
        <ele>1481</ele>
        <time>2022-10-29T06:34:40Z</time>
      </trkpt>
      <trkpt lat="44.39881" lon="3.8652">
        <ele>1481</ele>
        <time>2022-10-29T06:34:41Z</time>
      </trkpt>
      <trkpt lat="44.39882" lon="3.86517">
        <ele>1481</ele>
        <time>2022-10-29T06:34:42Z</time>
      </trkpt>
      <trkpt lat="44.39883" lon="3.86516">
        <ele>1480.8</ele>
        <time>2022-10-29T06:34:43Z</time>
      </trkpt>
      <trkpt lat="44.39883" lon="3.86515">
        <ele>1480.8</ele>
        <time>2022-10-29T06:34:44Z</time>
      </trkpt>
      <trkpt lat="44.39883" lon="3.86515">
        <ele>1480.8</ele>
        <time>2022-10-29T06:34:45Z</time>
      </trkpt>
      <trkpt lat="44.39883" lon="3.86515">
        <ele>1480.8</ele>
        <time>2022-10-29T06:34:46Z</time>
      </trkpt>
      <trkpt lat="44.39883" lon="3.86515">
        <ele>1480.8</ele>
        <time>2022-10-29T06:34:47Z</time>
      </trkpt>
      <trkpt lat="44.39883" lon="3.86515">
        <ele>1480.6</ele>
        <time>2022-10-29T06:34:48Z</time>
      </trkpt>
      <trkpt lat="44.39882" lon="3.86517">
        <ele>1480.6</ele>
        <time>2022-10-29T06:34:52Z</time>
      </trkpt>
      <trkpt lat="44.39881" lon="3.86519">
        <ele>1480.6</ele>
        <time>2022-10-29T06:34:53Z</time>
      </trkpt>
      <trkpt lat="44.39881" lon="3.86521">
        <ele>1480.8</ele>
        <time>2022-10-29T06:34:54Z</time>
      </trkpt>
      <trkpt lat="44.39879" lon="3.86524">
        <ele>1480.8</ele>
        <time>2022-10-29T06:34:55Z</time>
      </trkpt>
      <trkpt lat="44.39878" lon="3.86526">
        <ele>1481</ele>
        <time>2022-10-29T06:34:56Z</time>
      </trkpt>
      <trkpt lat="44.39878" lon="3.86529">
        <ele>1481</ele>
        <time>2022-10-29T06:34:57Z</time>
      </trkpt>
      <trkpt lat="44.39877" lon="3.8653">
        <ele>1481</ele>
        <time>2022-10-29T06:34:58Z</time>
      </trkpt>
      <trkpt lat="44.39876" lon="3.86531">
        <ele>1481</ele>
        <time>2022-10-29T06:34:59Z</time>
      </trkpt>
      <trkpt lat="44.39876" lon="3.8653">
        <ele>1481</ele>
        <time>2022-10-29T06:35:00Z</time>
      </trkpt>
      <trkpt lat="44.39877" lon="3.8653">
        <ele>1481</ele>
        <time>2022-10-29T06:35:01Z</time>
      </trkpt>
      <trkpt lat="44.39877" lon="3.86529">
        <ele>1481</ele>
        <time>2022-10-29T06:35:02Z</time>
      </trkpt>
      <trkpt lat="44.39877" lon="3.86529">
        <ele>1480.8</ele>
        <time>2022-10-29T06:35:03Z</time>
      </trkpt>
      <trkpt lat="44.39877" lon="3.86529">
        <ele>1480.8</ele>
        <time>2022-10-29T06:35:04Z</time>
      </trkpt>
      <trkpt lat="44.39877" lon="3.86529">
        <ele>1480.8</ele>
        <time>2022-10-29T06:35:05Z</time>
      </trkpt>
      <trkpt lat="44.39877" lon="3.86529">
        <ele>1480.8</ele>
        <time>2022-10-29T06:35:06Z</time>
      </trkpt>
      <trkpt lat="44.39877" lon="3.86529">
        <ele>1480.8</ele>
        <time>2022-10-29T06:35:07Z</time>
      </trkpt>
      <trkpt lat="44.39876" lon="3.86532">
        <ele>1480.8</ele>
        <time>2022-10-29T06:35:18Z</time>
      </trkpt>
      <trkpt lat="44.39875" lon="3.86534">
        <ele>1480.8</ele>
        <time>2022-10-29T06:35:19Z</time>
      </trkpt>
      <trkpt lat="44.39874" lon="3.86538">
        <ele>1481</ele>
        <time>2022-10-29T06:35:20Z</time>
      </trkpt>
      <trkpt lat="44.39872" lon="3.86542">
        <ele>1481</ele>
        <time>2022-10-29T06:35:21Z</time>
      </trkpt>
      <trkpt lat="44.39871" lon="3.86545">
        <ele>1481.2</ele>
        <time>2022-10-29T06:35:22Z</time>
      </trkpt>
      <trkpt lat="44.3987" lon="3.86548">
        <ele>1481.4</ele>
        <time>2022-10-29T06:35:23Z</time>
      </trkpt>
      <trkpt lat="44.39868" lon="3.86551">
        <ele>1481.4</ele>
        <time>2022-10-29T06:35:24Z</time>
      </trkpt>
      <trkpt lat="44.39867" lon="3.86554">
        <ele>1481.6</ele>
        <time>2022-10-29T06:35:25Z</time>
      </trkpt>
      <trkpt lat="44.39865" lon="3.86557">
        <ele>1481.6</ele>
        <time>2022-10-29T06:35:26Z</time>
      </trkpt>
      <trkpt lat="44.39864" lon="3.86561">
        <ele>1481.8</ele>
        <time>2022-10-29T06:35:27Z</time>
      </trkpt>
      <trkpt lat="44.39863" lon="3.86564">
        <ele>1481.8</ele>
        <time>2022-10-29T06:35:28Z</time>
      </trkpt>
      <trkpt lat="44.39862" lon="3.86567">
        <ele>1482</ele>
        <time>2022-10-29T06:35:29Z</time>
      </trkpt>
      <trkpt lat="44.39861" lon="3.8657">
        <ele>1482</ele>
        <time>2022-10-29T06:35:30Z</time>
      </trkpt>
      <trkpt lat="44.39859" lon="3.86573">
        <ele>1482.2</ele>
        <time>2022-10-29T06:35:31Z</time>
      </trkpt>
      <trkpt lat="44.39858" lon="3.86575">
        <ele>1482.2</ele>
        <time>2022-10-29T06:35:32Z</time>
      </trkpt>
      <trkpt lat="44.39857" lon="3.86579">
        <ele>1482.4</ele>
        <time>2022-10-29T06:35:33Z</time>
      </trkpt>
      <trkpt lat="44.39856" lon="3.86582">
        <ele>1482.4</ele>
        <time>2022-10-29T06:35:34Z</time>
      </trkpt>
      <trkpt lat="44.39854" lon="3.86585">
        <ele>1482.4</ele>
        <time>2022-10-29T06:35:35Z</time>
      </trkpt>
      <trkpt lat="44.39852" lon="3.86589">
        <ele>1482.6</ele>
        <time>2022-10-29T06:35:36Z</time>
      </trkpt>
      <trkpt lat="44.39851" lon="3.86593">
        <ele>1482.6</ele>
        <time>2022-10-29T06:35:37Z</time>
      </trkpt>
      <trkpt lat="44.3985" lon="3.86596">
        <ele>1482.6</ele>
        <time>2022-10-29T06:35:38Z</time>
      </trkpt>
      <trkpt lat="44.39849" lon="3.866">
        <ele>1482.8</ele>
        <time>2022-10-29T06:35:39Z</time>
      </trkpt>
      <trkpt lat="44.39848" lon="3.86604">
        <ele>1482.8</ele>
        <time>2022-10-29T06:35:40Z</time>
      </trkpt>
      <trkpt lat="44.39847" lon="3.86608">
        <ele>1482.8</ele>
        <time>2022-10-29T06:35:41Z</time>
      </trkpt>
      <trkpt lat="44.39846" lon="3.86611">
        <ele>1483</ele>
        <time>2022-10-29T06:35:42Z</time>
      </trkpt>
      <trkpt lat="44.39845" lon="3.86616">
        <ele>1483</ele>
        <time>2022-10-29T06:35:43Z</time>
      </trkpt>
      <trkpt lat="44.39845" lon="3.86619">
        <ele>1483.2</ele>
        <time>2022-10-29T06:35:44Z</time>
      </trkpt>
      <trkpt lat="44.39845" lon="3.86623">
        <ele>1483.2</ele>
        <time>2022-10-29T06:35:45Z</time>
      </trkpt>
      <trkpt lat="44.39845" lon="3.86626">
        <ele>1483.2</ele>
        <time>2022-10-29T06:35:46Z</time>
      </trkpt>
      <trkpt lat="44.39844" lon="3.86631">
        <ele>1483.4</ele>
        <time>2022-10-29T06:35:47Z</time>
      </trkpt>
      <trkpt lat="44.39844" lon="3.86634">
        <ele>1483.4</ele>
        <time>2022-10-29T06:35:48Z</time>
      </trkpt>
      <trkpt lat="44.39844" lon="3.86637">
        <ele>1483.4</ele>
        <time>2022-10-29T06:35:49Z</time>
      </trkpt>
      <trkpt lat="44.39843" lon="3.86642">
        <ele>1483.6</ele>
        <time>2022-10-29T06:35:50Z</time>
      </trkpt>
      <trkpt lat="44.39843" lon="3.86645">
        <ele>1483.6</ele>
        <time>2022-10-29T06:35:51Z</time>
      </trkpt>
      <trkpt lat="44.39842" lon="3.86649">
        <ele>1483.8</ele>
        <time>2022-10-29T06:35:52Z</time>
      </trkpt>
      <trkpt lat="44.39843" lon="3.86652">
        <ele>1483.8</ele>
        <time>2022-10-29T06:35:53Z</time>
      </trkpt>
      <trkpt lat="44.39842" lon="3.86656">
        <ele>1484</ele>
        <time>2022-10-29T06:35:54Z</time>
      </trkpt>
      <trkpt lat="44.39842" lon="3.8666">
        <ele>1484</ele>
        <time>2022-10-29T06:35:55Z</time>
      </trkpt>
      <trkpt lat="44.39843" lon="3.86665">
        <ele>1484.2</ele>
        <time>2022-10-29T06:35:56Z</time>
      </trkpt>
      <trkpt lat="44.39843" lon="3.86669">
        <ele>1484.4</ele>
        <time>2022-10-29T06:35:57Z</time>
      </trkpt>
      <trkpt lat="44.39843" lon="3.86673">
        <ele>1484.4</ele>
        <time>2022-10-29T06:35:58Z</time>
      </trkpt>
      <trkpt lat="44.39844" lon="3.86676">
        <ele>1484.6</ele>
        <time>2022-10-29T06:35:59Z</time>
      </trkpt>
      <trkpt lat="44.39844" lon="3.8668">
        <ele>1484.6</ele>
        <time>2022-10-29T06:36:00Z</time>
      </trkpt>
      <trkpt lat="44.39844" lon="3.86683">
        <ele>1484.8</ele>
        <time>2022-10-29T06:36:01Z</time>
      </trkpt>
      <trkpt lat="44.39845" lon="3.86687">
        <ele>1484.8</ele>
        <time>2022-10-29T06:36:02Z</time>
      </trkpt>
      <trkpt lat="44.39845" lon="3.86691">
        <ele>1484.8</ele>
        <time>2022-10-29T06:36:03Z</time>
      </trkpt>
      <trkpt lat="44.39847" lon="3.86695">
        <ele>1485</ele>
        <time>2022-10-29T06:36:04Z</time>
      </trkpt>
      <trkpt lat="44.39847" lon="3.867">
        <ele>1485</ele>
        <time>2022-10-29T06:36:05Z</time>
      </trkpt>
      <trkpt lat="44.39848" lon="3.86703">
        <ele>1485.2</ele>
        <time>2022-10-29T06:36:06Z</time>
      </trkpt>
      <trkpt lat="44.39848" lon="3.86707">
        <ele>1485.2</ele>
        <time>2022-10-29T06:36:07Z</time>
      </trkpt>
      <trkpt lat="44.39849" lon="3.86711">
        <ele>1485.4</ele>
        <time>2022-10-29T06:36:08Z</time>
      </trkpt>
      <trkpt lat="44.3985" lon="3.86715">
        <ele>1485.4</ele>
        <time>2022-10-29T06:36:09Z</time>
      </trkpt>
      <trkpt lat="44.3985" lon="3.86718">
        <ele>1485.6</ele>
        <time>2022-10-29T06:36:10Z</time>
      </trkpt>
      <trkpt lat="44.3985" lon="3.86723">
        <ele>1485.6</ele>
        <time>2022-10-29T06:36:11Z</time>
      </trkpt>
      <trkpt lat="44.39852" lon="3.86728">
        <ele>1485.8</ele>
        <time>2022-10-29T06:36:12Z</time>
      </trkpt>
      <trkpt lat="44.39855" lon="3.86733">
        <ele>1485.8</ele>
        <time>2022-10-29T06:36:13Z</time>
      </trkpt>
      <trkpt lat="44.39857" lon="3.86736">
        <ele>1486</ele>
        <time>2022-10-29T06:36:14Z</time>
      </trkpt>
      <trkpt lat="44.39858" lon="3.8674">
        <ele>1486</ele>
        <time>2022-10-29T06:36:15Z</time>
      </trkpt>
      <trkpt lat="44.39858" lon="3.86743">
        <ele>1486.2</ele>
        <time>2022-10-29T06:36:16Z</time>
      </trkpt>
      <trkpt lat="44.39857" lon="3.86746">
        <ele>1486.2</ele>
        <time>2022-10-29T06:36:17Z</time>
      </trkpt>
      <trkpt lat="44.39857" lon="3.86749">
        <ele>1486.4</ele>
        <time>2022-10-29T06:36:18Z</time>
      </trkpt>
      <trkpt lat="44.39856" lon="3.86753">
        <ele>1486.4</ele>
        <time>2022-10-29T06:36:19Z</time>
      </trkpt>
      <trkpt lat="44.39856" lon="3.86756">
        <ele>1486.6</ele>
        <time>2022-10-29T06:36:20Z</time>
      </trkpt>
      <trkpt lat="44.39856" lon="3.86759">
        <ele>1486.6</ele>
        <time>2022-10-29T06:36:21Z</time>
      </trkpt>
      <trkpt lat="44.39856" lon="3.86763">
        <ele>1486.8</ele>
        <time>2022-10-29T06:36:22Z</time>
      </trkpt>
      <trkpt lat="44.39855" lon="3.86766">
        <ele>1486.8</ele>
        <time>2022-10-29T06:36:23Z</time>
      </trkpt>
      <trkpt lat="44.39855" lon="3.8677">
        <ele>1487</ele>
        <time>2022-10-29T06:36:24Z</time>
      </trkpt>
      <trkpt lat="44.39856" lon="3.86773">
        <ele>1487.2</ele>
        <time>2022-10-29T06:36:25Z</time>
      </trkpt>
      <trkpt lat="44.39857" lon="3.86777">
        <ele>1487.2</ele>
        <time>2022-10-29T06:36:26Z</time>
      </trkpt>
      <trkpt lat="44.39857" lon="3.8678">
        <ele>1487.4</ele>
        <time>2022-10-29T06:36:27Z</time>
      </trkpt>
      <trkpt lat="44.39859" lon="3.86784">
        <ele>1487.6</ele>
        <time>2022-10-29T06:36:28Z</time>
      </trkpt>
      <trkpt lat="44.3986" lon="3.86788">
        <ele>1487.6</ele>
        <time>2022-10-29T06:36:29Z</time>
      </trkpt>
      <trkpt lat="44.3986" lon="3.86793">
        <ele>1487.8</ele>
        <time>2022-10-29T06:36:30Z</time>
      </trkpt>
      <trkpt lat="44.3986" lon="3.86798">
        <ele>1488</ele>
        <time>2022-10-29T06:36:31Z</time>
      </trkpt>
      <trkpt lat="44.39861" lon="3.86803">
        <ele>1488</ele>
        <time>2022-10-29T06:36:32Z</time>
      </trkpt>
      <trkpt lat="44.39863" lon="3.86808">
        <ele>1488</ele>
        <time>2022-10-29T06:36:33Z</time>
      </trkpt>
      <trkpt lat="44.39863" lon="3.86811">
        <ele>1488.2</ele>
        <time>2022-10-29T06:36:34Z</time>
      </trkpt>
      <trkpt lat="44.39864" lon="3.86815">
        <ele>1488.2</ele>
        <time>2022-10-29T06:36:35Z</time>
      </trkpt>
      <trkpt lat="44.39865" lon="3.86818">
        <ele>1488.4</ele>
        <time>2022-10-29T06:36:36Z</time>
      </trkpt>
      <trkpt lat="44.39865" lon="3.86822">
        <ele>1488.4</ele>
        <time>2022-10-29T06:36:37Z</time>
      </trkpt>
      <trkpt lat="44.39866" lon="3.86826">
        <ele>1488.4</ele>
        <time>2022-10-29T06:36:38Z</time>
      </trkpt>
      <trkpt lat="44.39867" lon="3.8683">
        <ele>1488.4</ele>
        <time>2022-10-29T06:36:39Z</time>
      </trkpt>
      <trkpt lat="44.39868" lon="3.86833">
        <ele>1488.6</ele>
        <time>2022-10-29T06:36:40Z</time>
      </trkpt>
      <trkpt lat="44.39869" lon="3.86837">
        <ele>1488.6</ele>
        <time>2022-10-29T06:36:41Z</time>
      </trkpt>
      <trkpt lat="44.3987" lon="3.8684">
        <ele>1488.8</ele>
        <time>2022-10-29T06:36:42Z</time>
      </trkpt>
      <trkpt lat="44.39871" lon="3.86844">
        <ele>1488.8</ele>
        <time>2022-10-29T06:36:43Z</time>
      </trkpt>
      <trkpt lat="44.39872" lon="3.86848">
        <ele>1489</ele>
        <time>2022-10-29T06:36:44Z</time>
      </trkpt>
      <trkpt lat="44.39873" lon="3.86851">
        <ele>1489</ele>
        <time>2022-10-29T06:36:45Z</time>
      </trkpt>
      <trkpt lat="44.39874" lon="3.86855">
        <ele>1489</ele>
        <time>2022-10-29T06:36:46Z</time>
      </trkpt>
      <trkpt lat="44.39874" lon="3.86858">
        <ele>1489.2</ele>
        <time>2022-10-29T06:36:47Z</time>
      </trkpt>
      <trkpt lat="44.39875" lon="3.86861">
        <ele>1489.2</ele>
        <time>2022-10-29T06:36:48Z</time>
      </trkpt>
      <trkpt lat="44.39876" lon="3.86865">
        <ele>1489.2</ele>
        <time>2022-10-29T06:36:49Z</time>
      </trkpt>
      <trkpt lat="44.39877" lon="3.86869">
        <ele>1489.2</ele>
        <time>2022-10-29T06:36:50Z</time>
      </trkpt>
      <trkpt lat="44.39878" lon="3.86872">
        <ele>1489.2</ele>
        <time>2022-10-29T06:36:51Z</time>
      </trkpt>
      <trkpt lat="44.39878" lon="3.86877">
        <ele>1489.2</ele>
        <time>2022-10-29T06:36:52Z</time>
      </trkpt>
      <trkpt lat="44.39879" lon="3.86881">
        <ele>1489.4</ele>
        <time>2022-10-29T06:36:53Z</time>
      </trkpt>
      <trkpt lat="44.39879" lon="3.86884">
        <ele>1489.4</ele>
        <time>2022-10-29T06:36:54Z</time>
      </trkpt>
      <trkpt lat="44.3988" lon="3.86888">
        <ele>1489.4</ele>
        <time>2022-10-29T06:36:55Z</time>
      </trkpt>
      <trkpt lat="44.39881" lon="3.86892">
        <ele>1489.4</ele>
        <time>2022-10-29T06:36:56Z</time>
      </trkpt>
      <trkpt lat="44.39881" lon="3.86895">
        <ele>1489.6</ele>
        <time>2022-10-29T06:36:57Z</time>
      </trkpt>
      <trkpt lat="44.39882" lon="3.86899">
        <ele>1489.6</ele>
        <time>2022-10-29T06:36:58Z</time>
      </trkpt>
      <trkpt lat="44.39884" lon="3.86903">
        <ele>1489.6</ele>
        <time>2022-10-29T06:36:59Z</time>
      </trkpt>
      <trkpt lat="44.39884" lon="3.86907">
        <ele>1489.6</ele>
        <time>2022-10-29T06:37:00Z</time>
      </trkpt>
      <trkpt lat="44.39885" lon="3.86911">
        <ele>1489.8</ele>
        <time>2022-10-29T06:37:01Z</time>
      </trkpt>
      <trkpt lat="44.39885" lon="3.86915">
        <ele>1489.8</ele>
        <time>2022-10-29T06:37:02Z</time>
      </trkpt>
      <trkpt lat="44.39886" lon="3.86918">
        <ele>1490</ele>
        <time>2022-10-29T06:37:03Z</time>
      </trkpt>
      <trkpt lat="44.39885" lon="3.86921">
        <ele>1490</ele>
        <time>2022-10-29T06:37:04Z</time>
      </trkpt>
      <trkpt lat="44.39885" lon="3.86925">
        <ele>1490.2</ele>
        <time>2022-10-29T06:37:05Z</time>
      </trkpt>
      <trkpt lat="44.39886" lon="3.86929">
        <ele>1490.2</ele>
        <time>2022-10-29T06:37:06Z</time>
      </trkpt>
      <trkpt lat="44.39886" lon="3.86932">
        <ele>1490.4</ele>
        <time>2022-10-29T06:37:07Z</time>
      </trkpt>
      <trkpt lat="44.39887" lon="3.86937">
        <ele>1490.4</ele>
        <time>2022-10-29T06:37:08Z</time>
      </trkpt>
      <trkpt lat="44.39888" lon="3.86941">
        <ele>1490.6</ele>
        <time>2022-10-29T06:37:09Z</time>
      </trkpt>
      <trkpt lat="44.3989" lon="3.86945">
        <ele>1490.6</ele>
        <time>2022-10-29T06:37:10Z</time>
      </trkpt>
      <trkpt lat="44.39891" lon="3.86949">
        <ele>1490.8</ele>
        <time>2022-10-29T06:37:11Z</time>
      </trkpt>
      <trkpt lat="44.3989" lon="3.86952">
        <ele>1491</ele>
        <time>2022-10-29T06:37:12Z</time>
      </trkpt>
      <trkpt lat="44.39891" lon="3.86956">
        <ele>1491</ele>
        <time>2022-10-29T06:37:13Z</time>
      </trkpt>
      <trkpt lat="44.39891" lon="3.8696">
        <ele>1491.2</ele>
        <time>2022-10-29T06:37:14Z</time>
      </trkpt>
      <trkpt lat="44.39891" lon="3.86964">
        <ele>1491.2</ele>
        <time>2022-10-29T06:37:15Z</time>
      </trkpt>
      <trkpt lat="44.39891" lon="3.86967">
        <ele>1491.4</ele>
        <time>2022-10-29T06:37:16Z</time>
      </trkpt>
      <trkpt lat="44.39892" lon="3.86972">
        <ele>1491.4</ele>
        <time>2022-10-29T06:37:17Z</time>
      </trkpt>
      <trkpt lat="44.39893" lon="3.86976">
        <ele>1491.6</ele>
        <time>2022-10-29T06:37:18Z</time>
      </trkpt>
      <trkpt lat="44.39892" lon="3.86979">
        <ele>1491.8</ele>
        <time>2022-10-29T06:37:19Z</time>
      </trkpt>
      <trkpt lat="44.39893" lon="3.86983">
        <ele>1492</ele>
        <time>2022-10-29T06:37:20Z</time>
      </trkpt>
      <trkpt lat="44.39893" lon="3.86987">
        <ele>1492</ele>
        <time>2022-10-29T06:37:21Z</time>
      </trkpt>
      <trkpt lat="44.39893" lon="3.8699">
        <ele>1492.2</ele>
        <time>2022-10-29T06:37:22Z</time>
      </trkpt>
      <trkpt lat="44.39893" lon="3.86994">
        <ele>1492.4</ele>
        <time>2022-10-29T06:37:23Z</time>
      </trkpt>
      <trkpt lat="44.39894" lon="3.86998">
        <ele>1492.4</ele>
        <time>2022-10-29T06:37:24Z</time>
      </trkpt>
      <trkpt lat="44.39894" lon="3.87002">
        <ele>1492.6</ele>
        <time>2022-10-29T06:37:25Z</time>
      </trkpt>
      <trkpt lat="44.39894" lon="3.87006">
        <ele>1492.8</ele>
        <time>2022-10-29T06:37:26Z</time>
      </trkpt>
      <trkpt lat="44.39894" lon="3.87009">
        <ele>1492.8</ele>
        <time>2022-10-29T06:37:27Z</time>
      </trkpt>
      <trkpt lat="44.39893" lon="3.87013">
        <ele>1493</ele>
        <time>2022-10-29T06:37:28Z</time>
      </trkpt>
      <trkpt lat="44.39893" lon="3.87016">
        <ele>1493.2</ele>
        <time>2022-10-29T06:37:29Z</time>
      </trkpt>
      <trkpt lat="44.39892" lon="3.8702">
        <ele>1493.4</ele>
        <time>2022-10-29T06:37:30Z</time>
      </trkpt>
      <trkpt lat="44.39893" lon="3.87023">
        <ele>1493.4</ele>
        <time>2022-10-29T06:37:31Z</time>
      </trkpt>
      <trkpt lat="44.39892" lon="3.87026">
        <ele>1493.6</ele>
        <time>2022-10-29T06:37:32Z</time>
      </trkpt>
      <trkpt lat="44.39892" lon="3.8703">
        <ele>1493.6</ele>
        <time>2022-10-29T06:37:33Z</time>
      </trkpt>
      <trkpt lat="44.39891" lon="3.87033">
        <ele>1493.8</ele>
        <time>2022-10-29T06:37:34Z</time>
      </trkpt>
      <trkpt lat="44.39889" lon="3.87037">
        <ele>1494</ele>
        <time>2022-10-29T06:37:35Z</time>
      </trkpt>
      <trkpt lat="44.39888" lon="3.8704">
        <ele>1494.2</ele>
        <time>2022-10-29T06:37:36Z</time>
      </trkpt>
      <trkpt lat="44.39887" lon="3.87044">
        <ele>1494.2</ele>
        <time>2022-10-29T06:37:37Z</time>
      </trkpt>
      <trkpt lat="44.39886" lon="3.87047">
        <ele>1494.4</ele>
        <time>2022-10-29T06:37:38Z</time>
      </trkpt>
      <trkpt lat="44.39886" lon="3.8705">
        <ele>1494.6</ele>
        <time>2022-10-29T06:37:39Z</time>
      </trkpt>
      <trkpt lat="44.39886" lon="3.87054">
        <ele>1494.8</ele>
        <time>2022-10-29T06:37:40Z</time>
      </trkpt>
      <trkpt lat="44.39886" lon="3.87058">
        <ele>1495</ele>
        <time>2022-10-29T06:37:41Z</time>
      </trkpt>
      <trkpt lat="44.39886" lon="3.87061">
        <ele>1495.2</ele>
        <time>2022-10-29T06:37:42Z</time>
      </trkpt>
      <trkpt lat="44.39885" lon="3.87065">
        <ele>1495.2</ele>
        <time>2022-10-29T06:37:43Z</time>
      </trkpt>
      <trkpt lat="44.39885" lon="3.87069">
        <ele>1495.4</ele>
        <time>2022-10-29T06:37:44Z</time>
      </trkpt>
      <trkpt lat="44.39885" lon="3.87072">
        <ele>1495.6</ele>
        <time>2022-10-29T06:37:45Z</time>
      </trkpt>
      <trkpt lat="44.39885" lon="3.87076">
        <ele>1495.6</ele>
        <time>2022-10-29T06:37:46Z</time>
      </trkpt>
      <trkpt lat="44.39884" lon="3.8708">
        <ele>1495.8</ele>
        <time>2022-10-29T06:37:47Z</time>
      </trkpt>
      <trkpt lat="44.39884" lon="3.87084">
        <ele>1496</ele>
        <time>2022-10-29T06:37:48Z</time>
      </trkpt>
      <trkpt lat="44.39883" lon="3.87088">
        <ele>1496.2</ele>
        <time>2022-10-29T06:37:49Z</time>
      </trkpt>
      <trkpt lat="44.39883" lon="3.87092">
        <ele>1496.4</ele>
        <time>2022-10-29T06:37:50Z</time>
      </trkpt>
      <trkpt lat="44.39883" lon="3.87096">
        <ele>1496.6</ele>
        <time>2022-10-29T06:37:51Z</time>
      </trkpt>
      <trkpt lat="44.39883" lon="3.871">
        <ele>1496.6</ele>
        <time>2022-10-29T06:37:52Z</time>
      </trkpt>
      <trkpt lat="44.39884" lon="3.87103">
        <ele>1496.8</ele>
        <time>2022-10-29T06:37:53Z</time>
      </trkpt>
      <trkpt lat="44.39884" lon="3.87107">
        <ele>1497</ele>
        <time>2022-10-29T06:37:54Z</time>
      </trkpt>
      <trkpt lat="44.39884" lon="3.87111">
        <ele>1497.2</ele>
        <time>2022-10-29T06:37:55Z</time>
      </trkpt>
      <trkpt lat="44.39883" lon="3.87115">
        <ele>1497.2</ele>
        <time>2022-10-29T06:37:56Z</time>
      </trkpt>
      <trkpt lat="44.39883" lon="3.87119">
        <ele>1497.4</ele>
        <time>2022-10-29T06:37:57Z</time>
      </trkpt>
      <trkpt lat="44.39883" lon="3.87123">
        <ele>1497.6</ele>
        <time>2022-10-29T06:37:58Z</time>
      </trkpt>
      <trkpt lat="44.39882" lon="3.87127">
        <ele>1497.6</ele>
        <time>2022-10-29T06:37:59Z</time>
      </trkpt>
      <trkpt lat="44.39882" lon="3.87131">
        <ele>1497.8</ele>
        <time>2022-10-29T06:38:00Z</time>
      </trkpt>
      <trkpt lat="44.39881" lon="3.87136">
        <ele>1498</ele>
        <time>2022-10-29T06:38:01Z</time>
      </trkpt>
      <trkpt lat="44.39881" lon="3.8714">
        <ele>1498</ele>
        <time>2022-10-29T06:38:02Z</time>
      </trkpt>
      <trkpt lat="44.3988" lon="3.87144">
        <ele>1498.2</ele>
        <time>2022-10-29T06:38:03Z</time>
      </trkpt>
      <trkpt lat="44.3988" lon="3.87148">
        <ele>1498.2</ele>
        <time>2022-10-29T06:38:04Z</time>
      </trkpt>
      <trkpt lat="44.39879" lon="3.87152">
        <ele>1498.2</ele>
        <time>2022-10-29T06:38:05Z</time>
      </trkpt>
      <trkpt lat="44.39878" lon="3.87155">
        <ele>1498.4</ele>
        <time>2022-10-29T06:38:06Z</time>
      </trkpt>
      <trkpt lat="44.39877" lon="3.8716">
        <ele>1498.4</ele>
        <time>2022-10-29T06:38:07Z</time>
      </trkpt>
      <trkpt lat="44.39877" lon="3.87164">
        <ele>1498.4</ele>
        <time>2022-10-29T06:38:08Z</time>
      </trkpt>
      <trkpt lat="44.39877" lon="3.87169">
        <ele>1498.4</ele>
        <time>2022-10-29T06:38:09Z</time>
      </trkpt>
      <trkpt lat="44.39877" lon="3.87173">
        <ele>1498.4</ele>
        <time>2022-10-29T06:38:10Z</time>
      </trkpt>
      <trkpt lat="44.39876" lon="3.87177">
        <ele>1498.6</ele>
        <time>2022-10-29T06:38:11Z</time>
      </trkpt>
      <trkpt lat="44.39875" lon="3.87181">
        <ele>1498.6</ele>
        <time>2022-10-29T06:38:12Z</time>
      </trkpt>
      <trkpt lat="44.39875" lon="3.87185">
        <ele>1498.6</ele>
        <time>2022-10-29T06:38:13Z</time>
      </trkpt>
      <trkpt lat="44.39874" lon="3.87189">
        <ele>1498.8</ele>
        <time>2022-10-29T06:38:14Z</time>
      </trkpt>
      <trkpt lat="44.39875" lon="3.87194">
        <ele>1498.8</ele>
        <time>2022-10-29T06:38:15Z</time>
      </trkpt>
      <trkpt lat="44.39876" lon="3.87198">
        <ele>1499</ele>
        <time>2022-10-29T06:38:16Z</time>
      </trkpt>
      <trkpt lat="44.39876" lon="3.87202">
        <ele>1499</ele>
        <time>2022-10-29T06:38:17Z</time>
      </trkpt>
      <trkpt lat="44.39875" lon="3.87205">
        <ele>1499</ele>
        <time>2022-10-29T06:38:18Z</time>
      </trkpt>
      <trkpt lat="44.39875" lon="3.87209">
        <ele>1499.2</ele>
        <time>2022-10-29T06:38:19Z</time>
      </trkpt>
      <trkpt lat="44.39875" lon="3.87213">
        <ele>1499.2</ele>
        <time>2022-10-29T06:38:20Z</time>
      </trkpt>
      <trkpt lat="44.39874" lon="3.87216">
        <ele>1499.4</ele>
        <time>2022-10-29T06:38:21Z</time>
      </trkpt>
      <trkpt lat="44.39874" lon="3.8722">
        <ele>1499.4</ele>
        <time>2022-10-29T06:38:22Z</time>
      </trkpt>
      <trkpt lat="44.39874" lon="3.87224">
        <ele>1499.6</ele>
        <time>2022-10-29T06:38:23Z</time>
      </trkpt>
      <trkpt lat="44.39874" lon="3.87229">
        <ele>1499.6</ele>
        <time>2022-10-29T06:38:24Z</time>
      </trkpt>
      <trkpt lat="44.39874" lon="3.87234">
        <ele>1499.6</ele>
        <time>2022-10-29T06:38:25Z</time>
      </trkpt>
      <trkpt lat="44.39874" lon="3.87238">
        <ele>1499.8</ele>
        <time>2022-10-29T06:38:26Z</time>
      </trkpt>
      <trkpt lat="44.39874" lon="3.87242">
        <ele>1499.8</ele>
        <time>2022-10-29T06:38:27Z</time>
      </trkpt>
      <trkpt lat="44.39874" lon="3.87246">
        <ele>1499.8</ele>
        <time>2022-10-29T06:38:28Z</time>
      </trkpt>
      <trkpt lat="44.39874" lon="3.8725">
        <ele>1500</ele>
        <time>2022-10-29T06:38:29Z</time>
      </trkpt>
      <trkpt lat="44.39873" lon="3.87255">
        <ele>1500</ele>
        <time>2022-10-29T06:38:30Z</time>
      </trkpt>
      <trkpt lat="44.39873" lon="3.87258">
        <ele>1500</ele>
        <time>2022-10-29T06:38:31Z</time>
      </trkpt>
      <trkpt lat="44.39873" lon="3.87262">
        <ele>1500.2</ele>
        <time>2022-10-29T06:38:32Z</time>
      </trkpt>
      <trkpt lat="44.39873" lon="3.87267">
        <ele>1500.2</ele>
        <time>2022-10-29T06:38:33Z</time>
      </trkpt>
      <trkpt lat="44.39873" lon="3.87271">
        <ele>1500.2</ele>
        <time>2022-10-29T06:38:34Z</time>
      </trkpt>
      <trkpt lat="44.39872" lon="3.87275">
        <ele>1500.4</ele>
        <time>2022-10-29T06:38:35Z</time>
      </trkpt>
      <trkpt lat="44.39871" lon="3.87279">
        <ele>1500.4</ele>
        <time>2022-10-29T06:38:36Z</time>
      </trkpt>
      <trkpt lat="44.3987" lon="3.87284">
        <ele>1500.4</ele>
        <time>2022-10-29T06:38:37Z</time>
      </trkpt>
      <trkpt lat="44.3987" lon="3.87288">
        <ele>1500.4</ele>
        <time>2022-10-29T06:38:38Z</time>
      </trkpt>
      <trkpt lat="44.39869" lon="3.87291">
        <ele>1500.4</ele>
        <time>2022-10-29T06:38:39Z</time>
      </trkpt>
      <trkpt lat="44.39868" lon="3.87295">
        <ele>1500.6</ele>
        <time>2022-10-29T06:38:40Z</time>
      </trkpt>
      <trkpt lat="44.39866" lon="3.87297">
        <ele>1500.6</ele>
        <time>2022-10-29T06:38:41Z</time>
      </trkpt>
      <trkpt lat="44.39864" lon="3.873">
        <ele>1500.6</ele>
        <time>2022-10-29T06:38:42Z</time>
      </trkpt>
      <trkpt lat="44.39861" lon="3.87303">
        <ele>1500.6</ele>
        <time>2022-10-29T06:38:43Z</time>
      </trkpt>
      <trkpt lat="44.39858" lon="3.87306">
        <ele>1500.6</ele>
        <time>2022-10-29T06:38:44Z</time>
      </trkpt>
      <trkpt lat="44.39856" lon="3.87309">
        <ele>1500.6</ele>
        <time>2022-10-29T06:38:45Z</time>
      </trkpt>
      <trkpt lat="44.39853" lon="3.87313">
        <ele>1500.6</ele>
        <time>2022-10-29T06:38:46Z</time>
      </trkpt>
      <trkpt lat="44.3985" lon="3.87316">
        <ele>1500.6</ele>
        <time>2022-10-29T06:38:47Z</time>
      </trkpt>
      <trkpt lat="44.39847" lon="3.87318">
        <ele>1500.6</ele>
        <time>2022-10-29T06:38:48Z</time>
      </trkpt>
      <trkpt lat="44.39845" lon="3.87321">
        <ele>1500.8</ele>
        <time>2022-10-29T06:38:49Z</time>
      </trkpt>
      <trkpt lat="44.39842" lon="3.87324">
        <ele>1500.8</ele>
        <time>2022-10-29T06:38:50Z</time>
      </trkpt>
      <trkpt lat="44.39839" lon="3.87327">
        <ele>1500.8</ele>
        <time>2022-10-29T06:38:51Z</time>
      </trkpt>
      <trkpt lat="44.39836" lon="3.87329">
        <ele>1500.8</ele>
        <time>2022-10-29T06:38:52Z</time>
      </trkpt>
      <trkpt lat="44.39833" lon="3.87331">
        <ele>1500.8</ele>
        <time>2022-10-29T06:38:53Z</time>
      </trkpt>
      <trkpt lat="44.3983" lon="3.87333">
        <ele>1500.8</ele>
        <time>2022-10-29T06:38:54Z</time>
      </trkpt>
      <trkpt lat="44.39826" lon="3.87336">
        <ele>1500.8</ele>
        <time>2022-10-29T06:38:55Z</time>
      </trkpt>
      <trkpt lat="44.39822" lon="3.87338">
        <ele>1500.8</ele>
        <time>2022-10-29T06:38:56Z</time>
      </trkpt>
      <trkpt lat="44.39819" lon="3.8734">
        <ele>1500.8</ele>
        <time>2022-10-29T06:38:57Z</time>
      </trkpt>
      <trkpt lat="44.39815" lon="3.87342">
        <ele>1501</ele>
        <time>2022-10-29T06:38:58Z</time>
      </trkpt>
      <trkpt lat="44.39811" lon="3.87343">
        <ele>1501</ele>
        <time>2022-10-29T06:38:59Z</time>
      </trkpt>
      <trkpt lat="44.39807" lon="3.87344">
        <ele>1501</ele>
        <time>2022-10-29T06:39:00Z</time>
      </trkpt>
      <trkpt lat="44.39804" lon="3.87345">
        <ele>1501</ele>
        <time>2022-10-29T06:39:01Z</time>
      </trkpt>
      <trkpt lat="44.398" lon="3.87346">
        <ele>1501</ele>
        <time>2022-10-29T06:39:02Z</time>
      </trkpt>
      <trkpt lat="44.39796" lon="3.87347">
        <ele>1500.8</ele>
        <time>2022-10-29T06:39:03Z</time>
      </trkpt>
      <trkpt lat="44.39792" lon="3.87348">
        <ele>1500.8</ele>
        <time>2022-10-29T06:39:04Z</time>
      </trkpt>
      <trkpt lat="44.39788" lon="3.87349">
        <ele>1500.8</ele>
        <time>2022-10-29T06:39:05Z</time>
      </trkpt>
      <trkpt lat="44.39785" lon="3.8735">
        <ele>1500.8</ele>
        <time>2022-10-29T06:39:06Z</time>
      </trkpt>
      <trkpt lat="44.39782" lon="3.8735">
        <ele>1500.8</ele>
        <time>2022-10-29T06:39:07Z</time>
      </trkpt>
      <trkpt lat="44.39778" lon="3.87351">
        <ele>1500.6</ele>
        <time>2022-10-29T06:39:08Z</time>
      </trkpt>
      <trkpt lat="44.39775" lon="3.87352">
        <ele>1500.4</ele>
        <time>2022-10-29T06:39:09Z</time>
      </trkpt>
      <trkpt lat="44.39772" lon="3.87353">
        <ele>1500.4</ele>
        <time>2022-10-29T06:39:10Z</time>
      </trkpt>
      <trkpt lat="44.3977" lon="3.87354">
        <ele>1500.2</ele>
        <time>2022-10-29T06:39:11Z</time>
      </trkpt>
      <trkpt lat="44.39768" lon="3.87355">
        <ele>1500.2</ele>
        <time>2022-10-29T06:39:12Z</time>
      </trkpt>
      <trkpt lat="44.39767" lon="3.87356">
        <ele>1500</ele>
        <time>2022-10-29T06:39:13Z</time>
      </trkpt>
      <trkpt lat="44.39765" lon="3.87357">
        <ele>1500.2</ele>
        <time>2022-10-29T06:39:14Z</time>
      </trkpt>
      <trkpt lat="44.39762" lon="3.87357">
        <ele>1500.2</ele>
        <time>2022-10-29T06:39:15Z</time>
      </trkpt>
      <trkpt lat="44.3976" lon="3.87358">
        <ele>1500.2</ele>
        <time>2022-10-29T06:39:16Z</time>
      </trkpt>
      <trkpt lat="44.39757" lon="3.87358">
        <ele>1500.2</ele>
        <time>2022-10-29T06:39:17Z</time>
      </trkpt>
      <trkpt lat="44.39756" lon="3.87358">
        <ele>1500.2</ele>
        <time>2022-10-29T06:39:18Z</time>
      </trkpt>
      <trkpt lat="44.39756" lon="3.87356">
        <ele>1500.2</ele>
        <time>2022-10-29T06:39:19Z</time>
      </trkpt>
      <trkpt lat="44.39756" lon="3.87356">
        <ele>1500.2</ele>
        <time>2022-10-29T06:39:20Z</time>
      </trkpt>
      <trkpt lat="44.39757" lon="3.87355">
        <ele>1500.2</ele>
        <time>2022-10-29T06:39:21Z</time>
      </trkpt>
      <trkpt lat="44.39759" lon="3.87356">
        <ele>1500.2</ele>
        <time>2022-10-29T06:39:22Z</time>
      </trkpt>
      <trkpt lat="44.39761" lon="3.87356">
        <ele>1500.2</ele>
        <time>2022-10-29T06:39:23Z</time>
      </trkpt>
      <trkpt lat="44.39765" lon="3.87355">
        <ele>1500.2</ele>
        <time>2022-10-29T06:39:24Z</time>
      </trkpt>
      <trkpt lat="44.39768" lon="3.87355">
        <ele>1500.2</ele>
        <time>2022-10-29T06:39:25Z</time>
      </trkpt>
      <trkpt lat="44.39771" lon="3.87355">
        <ele>1500.2</ele>
        <time>2022-10-29T06:39:26Z</time>
      </trkpt>
      <trkpt lat="44.39774" lon="3.87354">
        <ele>1500.2</ele>
        <time>2022-10-29T06:39:27Z</time>
      </trkpt>
      <trkpt lat="44.39777" lon="3.87354">
        <ele>1500.2</ele>
        <time>2022-10-29T06:39:28Z</time>
      </trkpt>
      <trkpt lat="44.3978" lon="3.87353">
        <ele>1500.2</ele>
        <time>2022-10-29T06:39:29Z</time>
      </trkpt>
      <trkpt lat="44.39781" lon="3.87352">
        <ele>1500.2</ele>
        <time>2022-10-29T06:39:30Z</time>
      </trkpt>
      <trkpt lat="44.39783" lon="3.87353">
        <ele>1500.2</ele>
        <time>2022-10-29T06:39:31Z</time>
      </trkpt>
      <trkpt lat="44.39783" lon="3.87354">
        <ele>1500.2</ele>
        <time>2022-10-29T06:39:32Z</time>
      </trkpt>
      <trkpt lat="44.39783" lon="3.87355">
        <ele>1500</ele>
        <time>2022-10-29T06:39:33Z</time>
      </trkpt>
      <trkpt lat="44.39782" lon="3.87356">
        <ele>1500</ele>
        <time>2022-10-29T06:39:34Z</time>
      </trkpt>
      <trkpt lat="44.39781" lon="3.87356">
        <ele>1500</ele>
        <time>2022-10-29T06:39:35Z</time>
      </trkpt>
      <trkpt lat="44.39779" lon="3.87356">
        <ele>1500</ele>
        <time>2022-10-29T06:39:36Z</time>
      </trkpt>
      <trkpt lat="44.39778" lon="3.87356">
        <ele>1500</ele>
        <time>2022-10-29T06:39:37Z</time>
      </trkpt>
      <trkpt lat="44.39776" lon="3.87356">
        <ele>1500</ele>
        <time>2022-10-29T06:39:38Z</time>
      </trkpt>
      <trkpt lat="44.39775" lon="3.87356">
        <ele>1500</ele>
        <time>2022-10-29T06:39:39Z</time>
      </trkpt>
      <trkpt lat="44.39772" lon="3.87356">
        <ele>1500</ele>
        <time>2022-10-29T06:39:40Z</time>
      </trkpt>
      <trkpt lat="44.39769" lon="3.87356">
        <ele>1500.2</ele>
        <time>2022-10-29T06:39:41Z</time>
      </trkpt>
      <trkpt lat="44.39766" lon="3.87356">
        <ele>1500.2</ele>
        <time>2022-10-29T06:39:42Z</time>
      </trkpt>
      <trkpt lat="44.39762" lon="3.87356">
        <ele>1500.4</ele>
        <time>2022-10-29T06:39:43Z</time>
      </trkpt>
      <trkpt lat="44.39758" lon="3.87355">
        <ele>1500.4</ele>
        <time>2022-10-29T06:39:44Z</time>
      </trkpt>
      <trkpt lat="44.39755" lon="3.87355">
        <ele>1500.4</ele>
        <time>2022-10-29T06:39:45Z</time>
      </trkpt>
      <trkpt lat="44.39751" lon="3.87354">
        <ele>1500.4</ele>
        <time>2022-10-29T06:39:46Z</time>
      </trkpt>
      <trkpt lat="44.39748" lon="3.87353">
        <ele>1500.4</ele>
        <time>2022-10-29T06:39:47Z</time>
      </trkpt>
      <trkpt lat="44.39745" lon="3.87352">
        <ele>1500.2</ele>
        <time>2022-10-29T06:39:48Z</time>
      </trkpt>
      <trkpt lat="44.39741" lon="3.8735">
        <ele>1500.2</ele>
        <time>2022-10-29T06:39:49Z</time>
      </trkpt>
      <trkpt lat="44.39738" lon="3.87349">
        <ele>1500</ele>
        <time>2022-10-29T06:39:50Z</time>
      </trkpt>
      <trkpt lat="44.39735" lon="3.87348">
        <ele>1500</ele>
        <time>2022-10-29T06:39:51Z</time>
      </trkpt>
      <trkpt lat="44.39731" lon="3.87348">
        <ele>1500</ele>
        <time>2022-10-29T06:39:52Z</time>
      </trkpt>
      <trkpt lat="44.39728" lon="3.87346">
        <ele>1499.8</ele>
        <time>2022-10-29T06:39:53Z</time>
      </trkpt>
      <trkpt lat="44.39724" lon="3.87345">
        <ele>1499.8</ele>
        <time>2022-10-29T06:39:54Z</time>
      </trkpt>
      <trkpt lat="44.3972" lon="3.87344">
        <ele>1499.6</ele>
        <time>2022-10-29T06:39:55Z</time>
      </trkpt>
      <trkpt lat="44.39716" lon="3.87342">
        <ele>1499.6</ele>
        <time>2022-10-29T06:39:56Z</time>
      </trkpt>
      <trkpt lat="44.39713" lon="3.87341">
        <ele>1499.4</ele>
        <time>2022-10-29T06:39:57Z</time>
      </trkpt>
      <trkpt lat="44.39709" lon="3.87339">
        <ele>1499.4</ele>
        <time>2022-10-29T06:39:58Z</time>
      </trkpt>
      <trkpt lat="44.39705" lon="3.87338">
        <ele>1499.2</ele>
        <time>2022-10-29T06:39:59Z</time>
      </trkpt>
      <trkpt lat="44.39701" lon="3.87336">
        <ele>1499</ele>
        <time>2022-10-29T06:40:00Z</time>
      </trkpt>
      <trkpt lat="44.39696" lon="3.87335">
        <ele>1498.8</ele>
        <time>2022-10-29T06:40:01Z</time>
      </trkpt>
      <trkpt lat="44.39691" lon="3.87335">
        <ele>1498.6</ele>
        <time>2022-10-29T06:40:02Z</time>
      </trkpt>
      <trkpt lat="44.39686" lon="3.87334">
        <ele>1498.4</ele>
        <time>2022-10-29T06:40:03Z</time>
      </trkpt>
      <trkpt lat="44.39681" lon="3.87332">
        <ele>1498.4</ele>
        <time>2022-10-29T06:40:04Z</time>
      </trkpt>
      <trkpt lat="44.39676" lon="3.87329">
        <ele>1498.2</ele>
        <time>2022-10-29T06:40:05Z</time>
      </trkpt>
      <trkpt lat="44.39671" lon="3.87326">
        <ele>1498</ele>
        <time>2022-10-29T06:40:06Z</time>
      </trkpt>
      <trkpt lat="44.39666" lon="3.87323">
        <ele>1498</ele>
        <time>2022-10-29T06:40:07Z</time>
      </trkpt>
      <trkpt lat="44.3966" lon="3.8732">
        <ele>1498</ele>
        <time>2022-10-29T06:40:08Z</time>
      </trkpt>
      <trkpt lat="44.39656" lon="3.87317">
        <ele>1497.8</ele>
        <time>2022-10-29T06:40:09Z</time>
      </trkpt>
      <trkpt lat="44.39651" lon="3.87315">
        <ele>1497.8</ele>
        <time>2022-10-29T06:40:10Z</time>
      </trkpt>
      <trkpt lat="44.39647" lon="3.87314">
        <ele>1497.8</ele>
        <time>2022-10-29T06:40:11Z</time>
      </trkpt>
      <trkpt lat="44.39643" lon="3.87315">
        <ele>1497.6</ele>
        <time>2022-10-29T06:40:12Z</time>
      </trkpt>
      <trkpt lat="44.39638" lon="3.87317">
        <ele>1497.6</ele>
        <time>2022-10-29T06:40:13Z</time>
      </trkpt>
      <trkpt lat="44.39635" lon="3.87323">
        <ele>1497.6</ele>
        <time>2022-10-29T06:40:14Z</time>
      </trkpt>
      <trkpt lat="44.39633" lon="3.87328">
        <ele>1497.4</ele>
        <time>2022-10-29T06:40:15Z</time>
      </trkpt>
      <trkpt lat="44.39631" lon="3.87335">
        <ele>1497</ele>
        <time>2022-10-29T06:40:16Z</time>
      </trkpt>
      <trkpt lat="44.39631" lon="3.87342">
        <ele>1496.8</ele>
        <time>2022-10-29T06:40:17Z</time>
      </trkpt>
      <trkpt lat="44.39631" lon="3.87344">
        <ele>1496.6</ele>
        <time>2022-10-29T06:40:18Z</time>
      </trkpt>
      <trkpt lat="44.39631" lon="3.87345">
        <ele>1496.4</ele>
        <time>2022-10-29T06:40:19Z</time>
      </trkpt>
      <trkpt lat="44.39631" lon="3.87343">
        <ele>1496</ele>
        <time>2022-10-29T06:40:24Z</time>
      </trkpt>
      <trkpt lat="44.3963" lon="3.87342">
        <ele>1496</ele>
        <time>2022-10-29T06:40:25Z</time>
      </trkpt>
      <trkpt lat="44.3963" lon="3.87342">
        <ele>1495.8</ele>
        <time>2022-10-29T06:40:26Z</time>
      </trkpt>
      <trkpt lat="44.3963" lon="3.87342">
        <ele>1495.8</ele>
        <time>2022-10-29T06:40:27Z</time>
      </trkpt>
      <trkpt lat="44.3963" lon="3.87342">
        <ele>1495.6</ele>
        <time>2022-10-29T06:40:28Z</time>
      </trkpt>
      <trkpt lat="44.3963" lon="3.87342">
        <ele>1495.6</ele>
        <time>2022-10-29T06:40:29Z</time>
      </trkpt>
      <trkpt lat="44.3963" lon="3.87342">
        <ele>1495.6</ele>
        <time>2022-10-29T06:40:30Z</time>
      </trkpt>
      <trkpt lat="44.39631" lon="3.87341">
        <ele>1495.6</ele>
        <time>2022-10-29T06:41:37Z</time>
      </trkpt>
      <trkpt lat="44.39631" lon="3.87338">
        <ele>1495.6</ele>
        <time>2022-10-29T06:41:38Z</time>
      </trkpt>
      <trkpt lat="44.39632" lon="3.87334">
        <ele>1495.8</ele>
        <time>2022-10-29T06:41:39Z</time>
      </trkpt>
      <trkpt lat="44.39633" lon="3.87329">
        <ele>1496</ele>
        <time>2022-10-29T06:41:40Z</time>
      </trkpt>
      <trkpt lat="44.39634" lon="3.87326">
        <ele>1496</ele>
        <time>2022-10-29T06:41:41Z</time>
      </trkpt>
      <trkpt lat="44.39635" lon="3.87322">
        <ele>1496.2</ele>
        <time>2022-10-29T06:41:42Z</time>
      </trkpt>
      <trkpt lat="44.39636" lon="3.87319">
        <ele>1496.2</ele>
        <time>2022-10-29T06:41:43Z</time>
      </trkpt>
      <trkpt lat="44.39639" lon="3.87318">
        <ele>1496.4</ele>
        <time>2022-10-29T06:41:44Z</time>
      </trkpt>
      <trkpt lat="44.39642" lon="3.87317">
        <ele>1496.6</ele>
        <time>2022-10-29T06:41:45Z</time>
      </trkpt>
      <trkpt lat="44.39646" lon="3.87318">
        <ele>1496.8</ele>
        <time>2022-10-29T06:41:46Z</time>
      </trkpt>
      <trkpt lat="44.39649" lon="3.87319">
        <ele>1497</ele>
        <time>2022-10-29T06:41:47Z</time>
      </trkpt>
      <trkpt lat="44.39653" lon="3.87321">
        <ele>1497.2</ele>
        <time>2022-10-29T06:41:48Z</time>
      </trkpt>
      <trkpt lat="44.39656" lon="3.87323">
        <ele>1497.2</ele>
        <time>2022-10-29T06:41:49Z</time>
      </trkpt>
      <trkpt lat="44.3966" lon="3.87325">
        <ele>1497.2</ele>
        <time>2022-10-29T06:41:50Z</time>
      </trkpt>
      <trkpt lat="44.39663" lon="3.87328">
        <ele>1497.2</ele>
        <time>2022-10-29T06:41:51Z</time>
      </trkpt>
      <trkpt lat="44.39667" lon="3.8733">
        <ele>1497.4</ele>
        <time>2022-10-29T06:41:52Z</time>
      </trkpt>
      <trkpt lat="44.3967" lon="3.87332">
        <ele>1497.4</ele>
        <time>2022-10-29T06:41:53Z</time>
      </trkpt>
      <trkpt lat="44.39673" lon="3.87334">
        <ele>1497.4</ele>
        <time>2022-10-29T06:41:54Z</time>
      </trkpt>
      <trkpt lat="44.39676" lon="3.87335">
        <ele>1497.2</ele>
        <time>2022-10-29T06:41:55Z</time>
      </trkpt>
      <trkpt lat="44.39678" lon="3.87336">
        <ele>1497</ele>
        <time>2022-10-29T06:41:56Z</time>
      </trkpt>
      <trkpt lat="44.39679" lon="3.87337">
        <ele>1497</ele>
        <time>2022-10-29T06:41:57Z</time>
      </trkpt>
      <trkpt lat="44.39678" lon="3.87338">
        <ele>1497</ele>
        <time>2022-10-29T06:41:58Z</time>
      </trkpt>
      <trkpt lat="44.39678" lon="3.87337">
        <ele>1497</ele>
        <time>2022-10-29T06:41:59Z</time>
      </trkpt>
      <trkpt lat="44.39677" lon="3.87336">
        <ele>1497</ele>
        <time>2022-10-29T06:42:00Z</time>
      </trkpt>
      <trkpt lat="44.39675" lon="3.87334">
        <ele>1496.8</ele>
        <time>2022-10-29T06:42:01Z</time>
      </trkpt>
      <trkpt lat="44.39673" lon="3.87332">
        <ele>1496.8</ele>
        <time>2022-10-29T06:42:02Z</time>
      </trkpt>
      <trkpt lat="44.3967" lon="3.8733">
        <ele>1497</ele>
        <time>2022-10-29T06:42:03Z</time>
      </trkpt>
      <trkpt lat="44.39667" lon="3.87328">
        <ele>1497</ele>
        <time>2022-10-29T06:42:04Z</time>
      </trkpt>
      <trkpt lat="44.39663" lon="3.87325">
        <ele>1497</ele>
        <time>2022-10-29T06:42:05Z</time>
      </trkpt>
      <trkpt lat="44.39659" lon="3.87323">
        <ele>1497</ele>
        <time>2022-10-29T06:42:06Z</time>
      </trkpt>
      <trkpt lat="44.39655" lon="3.8732">
        <ele>1497</ele>
        <time>2022-10-29T06:42:07Z</time>
      </trkpt>
      <trkpt lat="44.3965" lon="3.87318">
        <ele>1496.8</ele>
        <time>2022-10-29T06:42:08Z</time>
      </trkpt>
      <trkpt lat="44.39645" lon="3.87318">
        <ele>1496.8</ele>
        <time>2022-10-29T06:42:09Z</time>
      </trkpt>
      <trkpt lat="44.39641" lon="3.87319">
        <ele>1496.6</ele>
        <time>2022-10-29T06:42:10Z</time>
      </trkpt>
      <trkpt lat="44.39637" lon="3.87322">
        <ele>1496.6</ele>
        <time>2022-10-29T06:42:11Z</time>
      </trkpt>
      <trkpt lat="44.39635" lon="3.87327">
        <ele>1496.4</ele>
        <time>2022-10-29T06:42:12Z</time>
      </trkpt>
      <trkpt lat="44.39632" lon="3.87332">
        <ele>1496.2</ele>
        <time>2022-10-29T06:42:13Z</time>
      </trkpt>
      <trkpt lat="44.39631" lon="3.87337">
        <ele>1496</ele>
        <time>2022-10-29T06:42:14Z</time>
      </trkpt>
      <trkpt lat="44.39631" lon="3.87342">
        <ele>1495.6</ele>
        <time>2022-10-29T06:42:15Z</time>
      </trkpt>
      <trkpt lat="44.39631" lon="3.87345">
        <ele>1495.4</ele>
        <time>2022-10-29T06:42:16Z</time>
      </trkpt>
      <trkpt lat="44.39631" lon="3.87347">
        <ele>1495.2</ele>
        <time>2022-10-29T06:42:17Z</time>
      </trkpt>
      <trkpt lat="44.39631" lon="3.87347">
        <ele>1495</ele>
        <time>2022-10-29T06:42:18Z</time>
      </trkpt>
      <trkpt lat="44.39631" lon="3.87347">
        <ele>1494.8</ele>
        <time>2022-10-29T06:42:19Z</time>
      </trkpt>
      <trkpt lat="44.39631" lon="3.87347">
        <ele>1494.6</ele>
        <time>2022-10-29T06:42:20Z</time>
      </trkpt>
      <trkpt lat="44.39631" lon="3.87347">
        <ele>1494.6</ele>
        <time>2022-10-29T06:42:21Z</time>
      </trkpt>
      <trkpt lat="44.39631" lon="3.87347">
        <ele>1494.4</ele>
        <time>2022-10-29T06:42:22Z</time>
      </trkpt>
      <trkpt lat="44.3963" lon="3.8735">
        <ele>1494.2</ele>
        <time>2022-10-29T06:42:49Z</time>
      </trkpt>
      <trkpt lat="44.3963" lon="3.87353">
        <ele>1494</ele>
        <time>2022-10-29T06:42:50Z</time>
      </trkpt>
      <trkpt lat="44.39628" lon="3.87358">
        <ele>1493.8</ele>
        <time>2022-10-29T06:42:51Z</time>
      </trkpt>
      <trkpt lat="44.39626" lon="3.87363">
        <ele>1493.6</ele>
        <time>2022-10-29T06:42:52Z</time>
      </trkpt>
      <trkpt lat="44.39624" lon="3.87367">
        <ele>1493.2</ele>
        <time>2022-10-29T06:42:53Z</time>
      </trkpt>
      <trkpt lat="44.39621" lon="3.87372">
        <ele>1492.8</ele>
        <time>2022-10-29T06:42:54Z</time>
      </trkpt>
      <trkpt lat="44.39617" lon="3.87377">
        <ele>1492.6</ele>
        <time>2022-10-29T06:42:55Z</time>
      </trkpt>
      <trkpt lat="44.39613" lon="3.87382">
        <ele>1492.2</ele>
        <time>2022-10-29T06:42:56Z</time>
      </trkpt>
      <trkpt lat="44.39609" lon="3.87388">
        <ele>1491.6</ele>
        <time>2022-10-29T06:42:57Z</time>
      </trkpt>
      <trkpt lat="44.39604" lon="3.87395">
        <ele>1491.2</ele>
        <time>2022-10-29T06:42:58Z</time>
      </trkpt>
      <trkpt lat="44.396" lon="3.87402">
        <ele>1490.6</ele>
        <time>2022-10-29T06:42:59Z</time>
      </trkpt>
      <trkpt lat="44.39595" lon="3.8741">
        <ele>1490</ele>
        <time>2022-10-29T06:43:00Z</time>
      </trkpt>
      <trkpt lat="44.3959" lon="3.87416">
        <ele>1489.6</ele>
        <time>2022-10-29T06:43:01Z</time>
      </trkpt>
      <trkpt lat="44.39585" lon="3.87422">
        <ele>1489</ele>
        <time>2022-10-29T06:43:02Z</time>
      </trkpt>
      <trkpt lat="44.39582" lon="3.87429">
        <ele>1488.6</ele>
        <time>2022-10-29T06:43:03Z</time>
      </trkpt>
      <trkpt lat="44.39578" lon="3.87437">
        <ele>1488.2</ele>
        <time>2022-10-29T06:43:04Z</time>
      </trkpt>
      <trkpt lat="44.39576" lon="3.87445">
        <ele>1487.8</ele>
        <time>2022-10-29T06:43:05Z</time>
      </trkpt>
      <trkpt lat="44.39574" lon="3.87454">
        <ele>1487.4</ele>
        <time>2022-10-29T06:43:06Z</time>
      </trkpt>
      <trkpt lat="44.39571" lon="3.87463">
        <ele>1487</ele>
        <time>2022-10-29T06:43:07Z</time>
      </trkpt>
      <trkpt lat="44.39569" lon="3.87472">
        <ele>1486.4</ele>
        <time>2022-10-29T06:43:08Z</time>
      </trkpt>
      <trkpt lat="44.39567" lon="3.87481">
        <ele>1486</ele>
        <time>2022-10-29T06:43:09Z</time>
      </trkpt>
      <trkpt lat="44.39566" lon="3.87489">
        <ele>1485.4</ele>
        <time>2022-10-29T06:43:10Z</time>
      </trkpt>
      <trkpt lat="44.39566" lon="3.87497">
        <ele>1484.8</ele>
        <time>2022-10-29T06:43:11Z</time>
      </trkpt>
      <trkpt lat="44.39569" lon="3.87504">
        <ele>1484.4</ele>
        <time>2022-10-29T06:43:12Z</time>
      </trkpt>
      <trkpt lat="44.39573" lon="3.8751">
        <ele>1483.8</ele>
        <time>2022-10-29T06:43:13Z</time>
      </trkpt>
      <trkpt lat="44.39578" lon="3.87516">
        <ele>1483.4</ele>
        <time>2022-10-29T06:43:14Z</time>
      </trkpt>
      <trkpt lat="44.39583" lon="3.87521">
        <ele>1482.8</ele>
        <time>2022-10-29T06:43:15Z</time>
      </trkpt>
      <trkpt lat="44.39588" lon="3.87526">
        <ele>1482.4</ele>
        <time>2022-10-29T06:43:16Z</time>
      </trkpt>
      <trkpt lat="44.39592" lon="3.8753">
        <ele>1481.8</ele>
        <time>2022-10-29T06:43:17Z</time>
      </trkpt>
      <trkpt lat="44.39596" lon="3.87535">
        <ele>1481.2</ele>
        <time>2022-10-29T06:43:18Z</time>
      </trkpt>
      <trkpt lat="44.396" lon="3.87541">
        <ele>1480.6</ele>
        <time>2022-10-29T06:43:19Z</time>
      </trkpt>
      <trkpt lat="44.39603" lon="3.87547">
        <ele>1480</ele>
        <time>2022-10-29T06:43:20Z</time>
      </trkpt>
      <trkpt lat="44.39607" lon="3.87553">
        <ele>1479.6</ele>
        <time>2022-10-29T06:43:21Z</time>
      </trkpt>
      <trkpt lat="44.3961" lon="3.8756">
        <ele>1479</ele>
        <time>2022-10-29T06:43:22Z</time>
      </trkpt>
      <trkpt lat="44.39613" lon="3.87567">
        <ele>1478.4</ele>
        <time>2022-10-29T06:43:23Z</time>
      </trkpt>
      <trkpt lat="44.39616" lon="3.87573">
        <ele>1478</ele>
        <time>2022-10-29T06:43:24Z</time>
      </trkpt>
      <trkpt lat="44.39619" lon="3.87581">
        <ele>1477.4</ele>
        <time>2022-10-29T06:43:25Z</time>
      </trkpt>
      <trkpt lat="44.39622" lon="3.87588">
        <ele>1477</ele>
        <time>2022-10-29T06:43:26Z</time>
      </trkpt>
      <trkpt lat="44.39624" lon="3.87596">
        <ele>1476.6</ele>
        <time>2022-10-29T06:43:27Z</time>
      </trkpt>
      <trkpt lat="44.39627" lon="3.87604">
        <ele>1476.2</ele>
        <time>2022-10-29T06:43:28Z</time>
      </trkpt>
      <trkpt lat="44.39629" lon="3.87612">
        <ele>1475.8</ele>
        <time>2022-10-29T06:43:29Z</time>
      </trkpt>
      <trkpt lat="44.39632" lon="3.87621">
        <ele>1475.2</ele>
        <time>2022-10-29T06:43:30Z</time>
      </trkpt>
      <trkpt lat="44.39635" lon="3.87629">
        <ele>1474.6</ele>
        <time>2022-10-29T06:43:31Z</time>
      </trkpt>
      <trkpt lat="44.39638" lon="3.87637">
        <ele>1474.2</ele>
        <time>2022-10-29T06:43:32Z</time>
      </trkpt>
      <trkpt lat="44.3964" lon="3.87645">
        <ele>1473.6</ele>
        <time>2022-10-29T06:43:33Z</time>
      </trkpt>
      <trkpt lat="44.39643" lon="3.87654">
        <ele>1473.2</ele>
        <time>2022-10-29T06:43:34Z</time>
      </trkpt>
      <trkpt lat="44.39645" lon="3.87663">
        <ele>1472.8</ele>
        <time>2022-10-29T06:43:35Z</time>
      </trkpt>
      <trkpt lat="44.39648" lon="3.87671">
        <ele>1472.6</ele>
        <time>2022-10-29T06:43:36Z</time>
      </trkpt>
      <trkpt lat="44.39651" lon="3.8768">
        <ele>1472.2</ele>
        <time>2022-10-29T06:43:37Z</time>
      </trkpt>
      <trkpt lat="44.39654" lon="3.87689">
        <ele>1471.8</ele>
        <time>2022-10-29T06:43:38Z</time>
      </trkpt>
      <trkpt lat="44.39657" lon="3.877">
        <ele>1471.4</ele>
        <time>2022-10-29T06:43:39Z</time>
      </trkpt>
      <trkpt lat="44.39661" lon="3.8771">
        <ele>1471</ele>
        <time>2022-10-29T06:43:40Z</time>
      </trkpt>
      <trkpt lat="44.39664" lon="3.87719">
        <ele>1470.4</ele>
        <time>2022-10-29T06:43:41Z</time>
      </trkpt>
      <trkpt lat="44.39668" lon="3.87729">
        <ele>1470</ele>
        <time>2022-10-29T06:43:42Z</time>
      </trkpt>
      <trkpt lat="44.39672" lon="3.87739">
        <ele>1469.4</ele>
        <time>2022-10-29T06:43:43Z</time>
      </trkpt>
      <trkpt lat="44.39675" lon="3.87749">
        <ele>1469</ele>
        <time>2022-10-29T06:43:44Z</time>
      </trkpt>
      <trkpt lat="44.39678" lon="3.87759">
        <ele>1468.6</ele>
        <time>2022-10-29T06:43:45Z</time>
      </trkpt>
      <trkpt lat="44.39681" lon="3.8777">
        <ele>1468</ele>
        <time>2022-10-29T06:43:46Z</time>
      </trkpt>
      <trkpt lat="44.39685" lon="3.87779">
        <ele>1467.4</ele>
        <time>2022-10-29T06:43:47Z</time>
      </trkpt>
      <trkpt lat="44.3969" lon="3.87788">
        <ele>1467</ele>
        <time>2022-10-29T06:43:48Z</time>
      </trkpt>
      <trkpt lat="44.39694" lon="3.87795">
        <ele>1466.4</ele>
        <time>2022-10-29T06:43:49Z</time>
      </trkpt>
      <trkpt lat="44.397" lon="3.878">
        <ele>1465.8</ele>
        <time>2022-10-29T06:43:50Z</time>
      </trkpt>
      <trkpt lat="44.39705" lon="3.87804">
        <ele>1465.4</ele>
        <time>2022-10-29T06:43:51Z</time>
      </trkpt>
      <trkpt lat="44.3971" lon="3.87809">
        <ele>1464.8</ele>
        <time>2022-10-29T06:43:52Z</time>
      </trkpt>
      <trkpt lat="44.39715" lon="3.87812">
        <ele>1464.2</ele>
        <time>2022-10-29T06:43:53Z</time>
      </trkpt>
      <trkpt lat="44.3972" lon="3.87816">
        <ele>1463.4</ele>
        <time>2022-10-29T06:43:54Z</time>
      </trkpt>
      <trkpt lat="44.39724" lon="3.8782">
        <ele>1462.8</ele>
        <time>2022-10-29T06:43:55Z</time>
      </trkpt>
      <trkpt lat="44.39728" lon="3.87824">
        <ele>1462</ele>
        <time>2022-10-29T06:43:56Z</time>
      </trkpt>
      <trkpt lat="44.39731" lon="3.87829">
        <ele>1461.6</ele>
        <time>2022-10-29T06:43:57Z</time>
      </trkpt>
      <trkpt lat="44.39734" lon="3.87834">
        <ele>1461</ele>
        <time>2022-10-29T06:43:58Z</time>
      </trkpt>
      <trkpt lat="44.39737" lon="3.87839">
        <ele>1460.6</ele>
        <time>2022-10-29T06:43:59Z</time>
      </trkpt>
      <trkpt lat="44.39739" lon="3.87845">
        <ele>1460</ele>
        <time>2022-10-29T06:44:00Z</time>
      </trkpt>
      <trkpt lat="44.39741" lon="3.8785">
        <ele>1459.4</ele>
        <time>2022-10-29T06:44:01Z</time>
      </trkpt>
      <trkpt lat="44.39742" lon="3.87858">
        <ele>1458.8</ele>
        <time>2022-10-29T06:44:02Z</time>
      </trkpt>
      <trkpt lat="44.39742" lon="3.87865">
        <ele>1458.2</ele>
        <time>2022-10-29T06:44:03Z</time>
      </trkpt>
      <trkpt lat="44.39742" lon="3.87872">
        <ele>1457.6</ele>
        <time>2022-10-29T06:44:04Z</time>
      </trkpt>
      <trkpt lat="44.39742" lon="3.8788">
        <ele>1456.8</ele>
        <time>2022-10-29T06:44:05Z</time>
      </trkpt>
      <trkpt lat="44.39741" lon="3.87888">
        <ele>1456</ele>
        <time>2022-10-29T06:44:06Z</time>
      </trkpt>
      <trkpt lat="44.39739" lon="3.87895">
        <ele>1455.4</ele>
        <time>2022-10-29T06:44:07Z</time>
      </trkpt>
      <trkpt lat="44.39738" lon="3.87903">
        <ele>1454.8</ele>
        <time>2022-10-29T06:44:08Z</time>
      </trkpt>
      <trkpt lat="44.39736" lon="3.87909">
        <ele>1454.2</ele>
        <time>2022-10-29T06:44:09Z</time>
      </trkpt>
      <trkpt lat="44.39734" lon="3.87916">
        <ele>1453.6</ele>
        <time>2022-10-29T06:44:10Z</time>
      </trkpt>
      <trkpt lat="44.39732" lon="3.87923">
        <ele>1453</ele>
        <time>2022-10-29T06:44:11Z</time>
      </trkpt>
      <trkpt lat="44.3973" lon="3.87929">
        <ele>1452.4</ele>
        <time>2022-10-29T06:44:12Z</time>
      </trkpt>
      <trkpt lat="44.39728" lon="3.87935">
        <ele>1452</ele>
        <time>2022-10-29T06:44:13Z</time>
      </trkpt>
      <trkpt lat="44.39726" lon="3.87942">
        <ele>1451.4</ele>
        <time>2022-10-29T06:44:14Z</time>
      </trkpt>
      <trkpt lat="44.39724" lon="3.87949">
        <ele>1450.8</ele>
        <time>2022-10-29T06:44:15Z</time>
      </trkpt>
      <trkpt lat="44.3972" lon="3.87957">
        <ele>1450.2</ele>
        <time>2022-10-29T06:44:16Z</time>
      </trkpt>
      <trkpt lat="44.39717" lon="3.87965">
        <ele>1449.6</ele>
        <time>2022-10-29T06:44:17Z</time>
      </trkpt>
      <trkpt lat="44.39714" lon="3.87973">
        <ele>1449</ele>
        <time>2022-10-29T06:44:18Z</time>
      </trkpt>
      <trkpt lat="44.39711" lon="3.87982">
        <ele>1448.4</ele>
        <time>2022-10-29T06:44:19Z</time>
      </trkpt>
      <trkpt lat="44.39707" lon="3.87991">
        <ele>1447.8</ele>
        <time>2022-10-29T06:44:20Z</time>
      </trkpt>
      <trkpt lat="44.39704" lon="3.88">
        <ele>1447</ele>
        <time>2022-10-29T06:44:21Z</time>
      </trkpt>
      <trkpt lat="44.39701" lon="3.88008">
        <ele>1446.4</ele>
        <time>2022-10-29T06:44:22Z</time>
      </trkpt>
      <trkpt lat="44.39698" lon="3.88015">
        <ele>1445.8</ele>
        <time>2022-10-29T06:44:23Z</time>
      </trkpt>
      <trkpt lat="44.39695" lon="3.88023">
        <ele>1445.2</ele>
        <time>2022-10-29T06:44:24Z</time>
      </trkpt>
      <trkpt lat="44.39691" lon="3.88032">
        <ele>1444.8</ele>
        <time>2022-10-29T06:44:25Z</time>
      </trkpt>
      <trkpt lat="44.39688" lon="3.88042">
        <ele>1444.2</ele>
        <time>2022-10-29T06:44:26Z</time>
      </trkpt>
      <trkpt lat="44.39685" lon="3.88051">
        <ele>1443.6</ele>
        <time>2022-10-29T06:44:27Z</time>
      </trkpt>
      <trkpt lat="44.39681" lon="3.88062">
        <ele>1443</ele>
        <time>2022-10-29T06:44:28Z</time>
      </trkpt>
      <trkpt lat="44.39677" lon="3.88072">
        <ele>1442.4</ele>
        <time>2022-10-29T06:44:29Z</time>
      </trkpt>
      <trkpt lat="44.39675" lon="3.88081">
        <ele>1441.8</ele>
        <time>2022-10-29T06:44:30Z</time>
      </trkpt>
      <trkpt lat="44.39672" lon="3.88089">
        <ele>1441.2</ele>
        <time>2022-10-29T06:44:31Z</time>
      </trkpt>
      <trkpt lat="44.39669" lon="3.88097">
        <ele>1440.6</ele>
        <time>2022-10-29T06:44:32Z</time>
      </trkpt>
      <trkpt lat="44.39666" lon="3.88105">
        <ele>1440.2</ele>
        <time>2022-10-29T06:44:33Z</time>
      </trkpt>
      <trkpt lat="44.39663" lon="3.88114">
        <ele>1439.6</ele>
        <time>2022-10-29T06:44:34Z</time>
      </trkpt>
      <trkpt lat="44.3966" lon="3.88123">
        <ele>1439.2</ele>
        <time>2022-10-29T06:44:35Z</time>
      </trkpt>
      <trkpt lat="44.39657" lon="3.88132">
        <ele>1438.8</ele>
        <time>2022-10-29T06:44:36Z</time>
      </trkpt>
      <trkpt lat="44.39654" lon="3.88141">
        <ele>1438.2</ele>
        <time>2022-10-29T06:44:37Z</time>
      </trkpt>
      <trkpt lat="44.39652" lon="3.88151">
        <ele>1437.6</ele>
        <time>2022-10-29T06:44:38Z</time>
      </trkpt>
      <trkpt lat="44.3965" lon="3.88161">
        <ele>1437.2</ele>
        <time>2022-10-29T06:44:39Z</time>
      </trkpt>
      <trkpt lat="44.39647" lon="3.88172">
        <ele>1436.8</ele>
        <time>2022-10-29T06:44:40Z</time>
      </trkpt>
      <trkpt lat="44.39645" lon="3.88183">
        <ele>1436.4</ele>
        <time>2022-10-29T06:44:41Z</time>
      </trkpt>
      <trkpt lat="44.39642" lon="3.88193">
        <ele>1436</ele>
        <time>2022-10-29T06:44:42Z</time>
      </trkpt>
      <trkpt lat="44.39639" lon="3.88202">
        <ele>1435.8</ele>
        <time>2022-10-29T06:44:43Z</time>
      </trkpt>
      <trkpt lat="44.39636" lon="3.88211">
        <ele>1435.4</ele>
        <time>2022-10-29T06:44:44Z</time>
      </trkpt>
      <trkpt lat="44.39633" lon="3.8822">
        <ele>1435</ele>
        <time>2022-10-29T06:44:45Z</time>
      </trkpt>
      <trkpt lat="44.3963" lon="3.8823">
        <ele>1434.8</ele>
        <time>2022-10-29T06:44:46Z</time>
      </trkpt>
      <trkpt lat="44.39627" lon="3.88239">
        <ele>1434.4</ele>
        <time>2022-10-29T06:44:47Z</time>
      </trkpt>
      <trkpt lat="44.39623" lon="3.88249">
        <ele>1434</ele>
        <time>2022-10-29T06:44:48Z</time>
      </trkpt>
      <trkpt lat="44.39619" lon="3.88259">
        <ele>1433.4</ele>
        <time>2022-10-29T06:44:49Z</time>
      </trkpt>
      <trkpt lat="44.39615" lon="3.88269">
        <ele>1433.2</ele>
        <time>2022-10-29T06:44:50Z</time>
      </trkpt>
      <trkpt lat="44.39611" lon="3.88279">
        <ele>1432.8</ele>
        <time>2022-10-29T06:44:51Z</time>
      </trkpt>
      <trkpt lat="44.39606" lon="3.88287">
        <ele>1432.4</ele>
        <time>2022-10-29T06:44:52Z</time>
      </trkpt>
      <trkpt lat="44.39602" lon="3.88295">
        <ele>1432</ele>
        <time>2022-10-29T06:44:53Z</time>
      </trkpt>
      <trkpt lat="44.39599" lon="3.88302">
        <ele>1431.6</ele>
        <time>2022-10-29T06:44:54Z</time>
      </trkpt>
      <trkpt lat="44.39597" lon="3.88308">
        <ele>1431.2</ele>
        <time>2022-10-29T06:44:55Z</time>
      </trkpt>
      <trkpt lat="44.39596" lon="3.88315">
        <ele>1430.6</ele>
        <time>2022-10-29T06:44:56Z</time>
      </trkpt>
      <trkpt lat="44.39596" lon="3.88322">
        <ele>1430.2</ele>
        <time>2022-10-29T06:44:57Z</time>
      </trkpt>
      <trkpt lat="44.39597" lon="3.88329">
        <ele>1429.6</ele>
        <time>2022-10-29T06:44:58Z</time>
      </trkpt>
      <trkpt lat="44.39599" lon="3.88336">
        <ele>1429.2</ele>
        <time>2022-10-29T06:44:59Z</time>
      </trkpt>
      <trkpt lat="44.39603" lon="3.88342">
        <ele>1428.6</ele>
        <time>2022-10-29T06:45:00Z</time>
      </trkpt>
      <trkpt lat="44.39607" lon="3.88347">
        <ele>1428.2</ele>
        <time>2022-10-29T06:45:01Z</time>
      </trkpt>
      <trkpt lat="44.39612" lon="3.88352">
        <ele>1427.8</ele>
        <time>2022-10-29T06:45:02Z</time>
      </trkpt>
      <trkpt lat="44.39617" lon="3.88357">
        <ele>1427.2</ele>
        <time>2022-10-29T06:45:03Z</time>
      </trkpt>
      <trkpt lat="44.39623" lon="3.88362">
        <ele>1426.6</ele>
        <time>2022-10-29T06:45:04Z</time>
      </trkpt>
      <trkpt lat="44.39628" lon="3.88368">
        <ele>1426</ele>
        <time>2022-10-29T06:45:05Z</time>
      </trkpt>
      <trkpt lat="44.39633" lon="3.88374">
        <ele>1425.4</ele>
        <time>2022-10-29T06:45:06Z</time>
      </trkpt>
      <trkpt lat="44.39637" lon="3.88379">
        <ele>1424.8</ele>
        <time>2022-10-29T06:45:07Z</time>
      </trkpt>
      <trkpt lat="44.39642" lon="3.88385">
        <ele>1424.2</ele>
        <time>2022-10-29T06:45:08Z</time>
      </trkpt>
      <trkpt lat="44.39645" lon="3.88391">
        <ele>1423.6</ele>
        <time>2022-10-29T06:45:09Z</time>
      </trkpt>
      <trkpt lat="44.39649" lon="3.88396">
        <ele>1423</ele>
        <time>2022-10-29T06:45:10Z</time>
      </trkpt>
      <trkpt lat="44.39652" lon="3.88403">
        <ele>1422.4</ele>
        <time>2022-10-29T06:45:11Z</time>
      </trkpt>
      <trkpt lat="44.39653" lon="3.88408">
        <ele>1422</ele>
        <time>2022-10-29T06:45:12Z</time>
      </trkpt>
      <trkpt lat="44.39655" lon="3.88415">
        <ele>1421.4</ele>
        <time>2022-10-29T06:45:13Z</time>
      </trkpt>
      <trkpt lat="44.39656" lon="3.88422">
        <ele>1420.8</ele>
        <time>2022-10-29T06:45:14Z</time>
      </trkpt>
      <trkpt lat="44.39656" lon="3.88429">
        <ele>1420.4</ele>
        <time>2022-10-29T06:45:15Z</time>
      </trkpt>
      <trkpt lat="44.39654" lon="3.88436">
        <ele>1419.8</ele>
        <time>2022-10-29T06:45:16Z</time>
      </trkpt>
      <trkpt lat="44.39652" lon="3.88443">
        <ele>1419.4</ele>
        <time>2022-10-29T06:45:17Z</time>
      </trkpt>
      <trkpt lat="44.3965" lon="3.88451">
        <ele>1419</ele>
        <time>2022-10-29T06:45:18Z</time>
      </trkpt>
      <trkpt lat="44.39647" lon="3.88458">
        <ele>1418.6</ele>
        <time>2022-10-29T06:45:19Z</time>
      </trkpt>
      <trkpt lat="44.39644" lon="3.88465">
        <ele>1418.2</ele>
        <time>2022-10-29T06:45:20Z</time>
      </trkpt>
      <trkpt lat="44.39642" lon="3.88472">
        <ele>1417.6</ele>
        <time>2022-10-29T06:45:21Z</time>
      </trkpt>
      <trkpt lat="44.3964" lon="3.88479">
        <ele>1417.2</ele>
        <time>2022-10-29T06:45:22Z</time>
      </trkpt>
      <trkpt lat="44.39637" lon="3.88487">
        <ele>1416.6</ele>
        <time>2022-10-29T06:45:23Z</time>
      </trkpt>
      <trkpt lat="44.39635" lon="3.88495">
        <ele>1416</ele>
        <time>2022-10-29T06:45:24Z</time>
      </trkpt>
      <trkpt lat="44.39633" lon="3.88504">
        <ele>1415.4</ele>
        <time>2022-10-29T06:45:25Z</time>
      </trkpt>
      <trkpt lat="44.3963" lon="3.88511">
        <ele>1414.8</ele>
        <time>2022-10-29T06:45:26Z</time>
      </trkpt>
      <trkpt lat="44.39628" lon="3.88519">
        <ele>1414.2</ele>
        <time>2022-10-29T06:45:27Z</time>
      </trkpt>
      <trkpt lat="44.39626" lon="3.88526">
        <ele>1413.6</ele>
        <time>2022-10-29T06:45:28Z</time>
      </trkpt>
      <trkpt lat="44.39623" lon="3.88533">
        <ele>1412.8</ele>
        <time>2022-10-29T06:45:29Z</time>
      </trkpt>
      <trkpt lat="44.39621" lon="3.88539">
        <ele>1412.4</ele>
        <time>2022-10-29T06:45:30Z</time>
      </trkpt>
      <trkpt lat="44.39618" lon="3.88546">
        <ele>1411.8</ele>
        <time>2022-10-29T06:45:31Z</time>
      </trkpt>
      <trkpt lat="44.39616" lon="3.88553">
        <ele>1411.2</ele>
        <time>2022-10-29T06:45:32Z</time>
      </trkpt>
      <trkpt lat="44.39614" lon="3.8856">
        <ele>1410.6</ele>
        <time>2022-10-29T06:45:33Z</time>
      </trkpt>
      <trkpt lat="44.39611" lon="3.88565">
        <ele>1410</ele>
        <time>2022-10-29T06:45:34Z</time>
      </trkpt>
      <trkpt lat="44.39608" lon="3.88571">
        <ele>1409.6</ele>
        <time>2022-10-29T06:45:35Z</time>
      </trkpt>
      <trkpt lat="44.39606" lon="3.88577">
        <ele>1409</ele>
        <time>2022-10-29T06:45:36Z</time>
      </trkpt>
      <trkpt lat="44.39604" lon="3.88583">
        <ele>1408.6</ele>
        <time>2022-10-29T06:45:37Z</time>
      </trkpt>
      <trkpt lat="44.39602" lon="3.88586">
        <ele>1408.2</ele>
        <time>2022-10-29T06:45:38Z</time>
      </trkpt>
      <trkpt lat="44.39602" lon="3.88588">
        <ele>1407.8</ele>
        <time>2022-10-29T06:45:39Z</time>
      </trkpt>
      <trkpt lat="44.39601" lon="3.8859">
        <ele>1407.6</ele>
        <time>2022-10-29T06:45:40Z</time>
      </trkpt>
      <trkpt lat="44.39601" lon="3.8859">
        <ele>1407.4</ele>
        <time>2022-10-29T06:45:41Z</time>
      </trkpt>
      <trkpt lat="44.39601" lon="3.88594">
        <ele>1406.8</ele>
        <time>2022-10-29T06:45:44Z</time>
      </trkpt>
      <trkpt lat="44.39601" lon="3.88598">
        <ele>1406.6</ele>
        <time>2022-10-29T06:45:45Z</time>
      </trkpt>
      <trkpt lat="44.39602" lon="3.88602">
        <ele>1406.6</ele>
        <time>2022-10-29T06:45:46Z</time>
      </trkpt>
      <trkpt lat="44.39602" lon="3.88608">
        <ele>1406.4</ele>
        <time>2022-10-29T06:45:47Z</time>
      </trkpt>
      <trkpt lat="44.39603" lon="3.88614">
        <ele>1406</ele>
        <time>2022-10-29T06:45:48Z</time>
      </trkpt>
      <trkpt lat="44.39605" lon="3.88622">
        <ele>1405.8</ele>
        <time>2022-10-29T06:45:49Z</time>
      </trkpt>
      <trkpt lat="44.39607" lon="3.88629">
        <ele>1405.2</ele>
        <time>2022-10-29T06:45:50Z</time>
      </trkpt>
      <trkpt lat="44.39609" lon="3.88636">
        <ele>1404.8</ele>
        <time>2022-10-29T06:45:51Z</time>
      </trkpt>
      <trkpt lat="44.39612" lon="3.88641">
        <ele>1404.2</ele>
        <time>2022-10-29T06:45:52Z</time>
      </trkpt>
      <trkpt lat="44.39615" lon="3.88647">
        <ele>1403.6</ele>
        <time>2022-10-29T06:45:53Z</time>
      </trkpt>
      <trkpt lat="44.39616" lon="3.8865">
        <ele>1403</ele>
        <time>2022-10-29T06:45:54Z</time>
      </trkpt>
      <trkpt lat="44.39618" lon="3.88654">
        <ele>1402.4</ele>
        <time>2022-10-29T06:45:55Z</time>
      </trkpt>
      <trkpt lat="44.39619" lon="3.88658">
        <ele>1402</ele>
        <time>2022-10-29T06:45:56Z</time>
      </trkpt>
      <trkpt lat="44.39621" lon="3.88662">
        <ele>1401.6</ele>
        <time>2022-10-29T06:45:57Z</time>
      </trkpt>
      <trkpt lat="44.39623" lon="3.88666">
        <ele>1401</ele>
        <time>2022-10-29T06:45:58Z</time>
      </trkpt>
      <trkpt lat="44.39626" lon="3.88671">
        <ele>1400.6</ele>
        <time>2022-10-29T06:45:59Z</time>
      </trkpt>
      <trkpt lat="44.39628" lon="3.88677">
        <ele>1400</ele>
        <time>2022-10-29T06:46:00Z</time>
      </trkpt>
      <trkpt lat="44.3963" lon="3.88683">
        <ele>1399.4</ele>
        <time>2022-10-29T06:46:01Z</time>
      </trkpt>
      <trkpt lat="44.39632" lon="3.88689">
        <ele>1398.8</ele>
        <time>2022-10-29T06:46:02Z</time>
      </trkpt>
      <trkpt lat="44.39635" lon="3.88695">
        <ele>1398.2</ele>
        <time>2022-10-29T06:46:03Z</time>
      </trkpt>
      <trkpt lat="44.39638" lon="3.88701">
        <ele>1397.8</ele>
        <time>2022-10-29T06:46:04Z</time>
      </trkpt>
      <trkpt lat="44.39641" lon="3.88707">
        <ele>1397.4</ele>
        <time>2022-10-29T06:46:05Z</time>
      </trkpt>
      <trkpt lat="44.39644" lon="3.88712">
        <ele>1397.2</ele>
        <time>2022-10-29T06:46:06Z</time>
      </trkpt>
      <trkpt lat="44.39646" lon="3.88718">
        <ele>1396.8</ele>
        <time>2022-10-29T06:46:07Z</time>
      </trkpt>
      <trkpt lat="44.39648" lon="3.88725">
        <ele>1396.6</ele>
        <time>2022-10-29T06:46:08Z</time>
      </trkpt>
      <trkpt lat="44.39649" lon="3.88732">
        <ele>1396.4</ele>
        <time>2022-10-29T06:46:09Z</time>
      </trkpt>
      <trkpt lat="44.39649" lon="3.88739">
        <ele>1396.2</ele>
        <time>2022-10-29T06:46:10Z</time>
      </trkpt>
      <trkpt lat="44.39649" lon="3.88746">
        <ele>1395.8</ele>
        <time>2022-10-29T06:46:11Z</time>
      </trkpt>
      <trkpt lat="44.3965" lon="3.88753">
        <ele>1395.2</ele>
        <time>2022-10-29T06:46:12Z</time>
      </trkpt>
      <trkpt lat="44.3965" lon="3.8876">
        <ele>1394.8</ele>
        <time>2022-10-29T06:46:13Z</time>
      </trkpt>
      <trkpt lat="44.3965" lon="3.88767">
        <ele>1394.2</ele>
        <time>2022-10-29T06:46:14Z</time>
      </trkpt>
      <trkpt lat="44.39651" lon="3.88776">
        <ele>1393.6</ele>
        <time>2022-10-29T06:46:15Z</time>
      </trkpt>
      <trkpt lat="44.39651" lon="3.88784">
        <ele>1393.2</ele>
        <time>2022-10-29T06:46:16Z</time>
      </trkpt>
      <trkpt lat="44.39651" lon="3.88792">
        <ele>1392.6</ele>
        <time>2022-10-29T06:46:17Z</time>
      </trkpt>
      <trkpt lat="44.39651" lon="3.88798">
        <ele>1392.2</ele>
        <time>2022-10-29T06:46:18Z</time>
      </trkpt>
      <trkpt lat="44.39651" lon="3.88804">
        <ele>1391.6</ele>
        <time>2022-10-29T06:46:19Z</time>
      </trkpt>
      <trkpt lat="44.39651" lon="3.8881">
        <ele>1391</ele>
        <time>2022-10-29T06:46:20Z</time>
      </trkpt>
      <trkpt lat="44.39651" lon="3.88816">
        <ele>1390.4</ele>
        <time>2022-10-29T06:46:21Z</time>
      </trkpt>
      <trkpt lat="44.39651" lon="3.88823">
        <ele>1389.8</ele>
        <time>2022-10-29T06:46:22Z</time>
      </trkpt>
      <trkpt lat="44.39651" lon="3.88828">
        <ele>1389.4</ele>
        <time>2022-10-29T06:46:23Z</time>
      </trkpt>
      <trkpt lat="44.3965" lon="3.88833">
        <ele>1388.8</ele>
        <time>2022-10-29T06:46:24Z</time>
      </trkpt>
      <trkpt lat="44.3965" lon="3.88837">
        <ele>1388.4</ele>
        <time>2022-10-29T06:46:25Z</time>
      </trkpt>
      <trkpt lat="44.3965" lon="3.88841">
        <ele>1388</ele>
        <time>2022-10-29T06:46:26Z</time>
      </trkpt>
      <trkpt lat="44.3965" lon="3.88844">
        <ele>1387.6</ele>
        <time>2022-10-29T06:46:27Z</time>
      </trkpt>
      <trkpt lat="44.3965" lon="3.88848">
        <ele>1387.4</ele>
        <time>2022-10-29T06:46:28Z</time>
      </trkpt>
      <trkpt lat="44.3965" lon="3.88852">
        <ele>1387.2</ele>
        <time>2022-10-29T06:46:29Z</time>
      </trkpt>
      <trkpt lat="44.3965" lon="3.88855">
        <ele>1387</ele>
        <time>2022-10-29T06:46:30Z</time>
      </trkpt>
      <trkpt lat="44.3965" lon="3.88859">
        <ele>1386.8</ele>
        <time>2022-10-29T06:46:31Z</time>
      </trkpt>
      <trkpt lat="44.39651" lon="3.88862">
        <ele>1386.6</ele>
        <time>2022-10-29T06:46:32Z</time>
      </trkpt>
      <trkpt lat="44.39651" lon="3.88864">
        <ele>1386.6</ele>
        <time>2022-10-29T06:46:33Z</time>
      </trkpt>
      <trkpt lat="44.39652" lon="3.88866">
        <ele>1386.4</ele>
        <time>2022-10-29T06:46:34Z</time>
      </trkpt>
      <trkpt lat="44.3965" lon="3.88856">
        <ele>1386.2</ele>
        <time>2022-10-29T06:50:17Z</time>
      </trkpt>
      <trkpt lat="44.3965" lon="3.88854">
        <ele>1386.2</ele>
        <time>2022-10-29T06:50:18Z</time>
      </trkpt>
      <trkpt lat="44.3965" lon="3.88853">
        <ele>1386.2</ele>
        <time>2022-10-29T06:50:19Z</time>
      </trkpt>
      <trkpt lat="44.3965" lon="3.88852">
        <ele>1386.2</ele>
        <time>2022-10-29T06:50:20Z</time>
      </trkpt>
      <trkpt lat="44.3965" lon="3.88851">
        <ele>1386.2</ele>
        <time>2022-10-29T06:50:21Z</time>
      </trkpt>
      <trkpt lat="44.3965" lon="3.88851">
        <ele>1386.4</ele>
        <time>2022-10-29T06:50:22Z</time>
      </trkpt>
      <trkpt lat="44.39649" lon="3.88851">
        <ele>1386.4</ele>
        <time>2022-10-29T06:50:23Z</time>
      </trkpt>
      <trkpt lat="44.39649" lon="3.88851">
        <ele>1386.4</ele>
        <time>2022-10-29T06:50:24Z</time>
      </trkpt>
      <trkpt lat="44.39649" lon="3.88851">
        <ele>1386.4</ele>
        <time>2022-10-29T06:50:25Z</time>
      </trkpt>
      <trkpt lat="44.39649" lon="3.88851">
        <ele>1386.4</ele>
        <time>2022-10-29T06:50:26Z</time>
      </trkpt>
      <trkpt lat="44.39649" lon="3.88851">
        <ele>1386.4</ele>
        <time>2022-10-29T06:50:27Z</time>
      </trkpt>
      <trkpt lat="44.3965" lon="3.88851">
        <ele>1386.4</ele>
        <time>2022-10-29T06:50:28Z</time>
      </trkpt>
      <trkpt lat="44.39651" lon="3.8886">
        <ele>1386.2</ele>
        <time>2022-10-29T06:50:35Z</time>
      </trkpt>
      <trkpt lat="44.39652" lon="3.88863">
        <ele>1386.2</ele>
        <time>2022-10-29T06:50:36Z</time>
      </trkpt>
      <trkpt lat="44.39652" lon="3.88867">
        <ele>1386.2</ele>
        <time>2022-10-29T06:50:37Z</time>
      </trkpt>
      <trkpt lat="44.39653" lon="3.8887">
        <ele>1386.2</ele>
        <time>2022-10-29T06:50:38Z</time>
      </trkpt>
      <trkpt lat="44.39652" lon="3.88874">
        <ele>1386.4</ele>
        <time>2022-10-29T06:50:39Z</time>
      </trkpt>
      <trkpt lat="44.39651" lon="3.88876">
        <ele>1386.4</ele>
        <time>2022-10-29T06:50:40Z</time>
      </trkpt>
      <trkpt lat="44.39651" lon="3.88879">
        <ele>1386.6</ele>
        <time>2022-10-29T06:50:41Z</time>
      </trkpt>
      <trkpt lat="44.3965" lon="3.88882">
        <ele>1386.6</ele>
        <time>2022-10-29T06:50:42Z</time>
      </trkpt>
      <trkpt lat="44.39649" lon="3.88885">
        <ele>1386.8</ele>
        <time>2022-10-29T06:50:43Z</time>
      </trkpt>
      <trkpt lat="44.39648" lon="3.88887">
        <ele>1386.8</ele>
        <time>2022-10-29T06:50:44Z</time>
      </trkpt>
      <trkpt lat="44.39646" lon="3.8889">
        <ele>1387</ele>
        <time>2022-10-29T06:50:45Z</time>
      </trkpt>
      <trkpt lat="44.39645" lon="3.88892">
        <ele>1387.2</ele>
        <time>2022-10-29T06:50:46Z</time>
      </trkpt>
      <trkpt lat="44.39643" lon="3.88895">
        <ele>1387.2</ele>
        <time>2022-10-29T06:50:47Z</time>
      </trkpt>
      <trkpt lat="44.39642" lon="3.88897">
        <ele>1387.4</ele>
        <time>2022-10-29T06:50:48Z</time>
      </trkpt>
      <trkpt lat="44.39641" lon="3.889">
        <ele>1387.6</ele>
        <time>2022-10-29T06:50:49Z</time>
      </trkpt>
      <trkpt lat="44.39639" lon="3.88902">
        <ele>1387.8</ele>
        <time>2022-10-29T06:50:50Z</time>
      </trkpt>
      <trkpt lat="44.39638" lon="3.88904">
        <ele>1388</ele>
        <time>2022-10-29T06:50:51Z</time>
      </trkpt>
      <trkpt lat="44.39637" lon="3.88907">
        <ele>1388.2</ele>
        <time>2022-10-29T06:50:52Z</time>
      </trkpt>
      <trkpt lat="44.39636" lon="3.88909">
        <ele>1388.4</ele>
        <time>2022-10-29T06:50:53Z</time>
      </trkpt>
      <trkpt lat="44.39634" lon="3.88912">
        <ele>1388.6</ele>
        <time>2022-10-29T06:50:54Z</time>
      </trkpt>
      <trkpt lat="44.39633" lon="3.88914">
        <ele>1388.8</ele>
        <time>2022-10-29T06:50:55Z</time>
      </trkpt>
      <trkpt lat="44.39632" lon="3.88917">
        <ele>1389</ele>
        <time>2022-10-29T06:50:56Z</time>
      </trkpt>
      <trkpt lat="44.3963" lon="3.88919">
        <ele>1389.2</ele>
        <time>2022-10-29T06:50:57Z</time>
      </trkpt>
      <trkpt lat="44.3963" lon="3.88922">
        <ele>1389.4</ele>
        <time>2022-10-29T06:50:58Z</time>
      </trkpt>
      <trkpt lat="44.39629" lon="3.88924">
        <ele>1389.6</ele>
        <time>2022-10-29T06:50:59Z</time>
      </trkpt>
      <trkpt lat="44.39627" lon="3.88927">
        <ele>1390</ele>
        <time>2022-10-29T06:51:00Z</time>
      </trkpt>
      <trkpt lat="44.39626" lon="3.88929">
        <ele>1390.2</ele>
        <time>2022-10-29T06:51:01Z</time>
      </trkpt>
      <trkpt lat="44.39625" lon="3.88932">
        <ele>1390.4</ele>
        <time>2022-10-29T06:51:02Z</time>
      </trkpt>
      <trkpt lat="44.39623" lon="3.88934">
        <ele>1390.6</ele>
        <time>2022-10-29T06:51:03Z</time>
      </trkpt>
      <trkpt lat="44.39622" lon="3.88936">
        <ele>1390.8</ele>
        <time>2022-10-29T06:51:04Z</time>
      </trkpt>
      <trkpt lat="44.39621" lon="3.88939">
        <ele>1391</ele>
        <time>2022-10-29T06:51:05Z</time>
      </trkpt>
      <trkpt lat="44.3962" lon="3.88941">
        <ele>1391.2</ele>
        <time>2022-10-29T06:51:06Z</time>
      </trkpt>
      <trkpt lat="44.39618" lon="3.88943">
        <ele>1391.4</ele>
        <time>2022-10-29T06:51:07Z</time>
      </trkpt>
      <trkpt lat="44.39617" lon="3.88946">
        <ele>1391.6</ele>
        <time>2022-10-29T06:51:08Z</time>
      </trkpt>
      <trkpt lat="44.39615" lon="3.88948">
        <ele>1391.6</ele>
        <time>2022-10-29T06:51:09Z</time>
      </trkpt>
      <trkpt lat="44.39614" lon="3.8895">
        <ele>1391.8</ele>
        <time>2022-10-29T06:51:10Z</time>
      </trkpt>
      <trkpt lat="44.39613" lon="3.88953">
        <ele>1392</ele>
        <time>2022-10-29T06:51:11Z</time>
      </trkpt>
      <trkpt lat="44.39611" lon="3.88956">
        <ele>1392.2</ele>
        <time>2022-10-29T06:51:12Z</time>
      </trkpt>
      <trkpt lat="44.3961" lon="3.88959">
        <ele>1392.2</ele>
        <time>2022-10-29T06:51:13Z</time>
      </trkpt>
      <trkpt lat="44.39609" lon="3.88962">
        <ele>1392.4</ele>
        <time>2022-10-29T06:51:14Z</time>
      </trkpt>
      <trkpt lat="44.39608" lon="3.88965">
        <ele>1392.6</ele>
        <time>2022-10-29T06:51:15Z</time>
      </trkpt>
      <trkpt lat="44.39607" lon="3.88968">
        <ele>1392.8</ele>
        <time>2022-10-29T06:51:16Z</time>
      </trkpt>
      <trkpt lat="44.39606" lon="3.88971">
        <ele>1393</ele>
        <time>2022-10-29T06:51:17Z</time>
      </trkpt>
      <trkpt lat="44.39605" lon="3.88974">
        <ele>1393.2</ele>
        <time>2022-10-29T06:51:18Z</time>
      </trkpt>
      <trkpt lat="44.39604" lon="3.88977">
        <ele>1393.6</ele>
        <time>2022-10-29T06:51:19Z</time>
      </trkpt>
      <trkpt lat="44.39603" lon="3.8898">
        <ele>1393.8</ele>
        <time>2022-10-29T06:51:20Z</time>
      </trkpt>
      <trkpt lat="44.39602" lon="3.88983">
        <ele>1394</ele>
        <time>2022-10-29T06:51:21Z</time>
      </trkpt>
      <trkpt lat="44.39601" lon="3.88986">
        <ele>1394.2</ele>
        <time>2022-10-29T06:51:22Z</time>
      </trkpt>
      <trkpt lat="44.396" lon="3.88989">
        <ele>1394.4</ele>
        <time>2022-10-29T06:51:23Z</time>
      </trkpt>
      <trkpt lat="44.396" lon="3.88992">
        <ele>1394.6</ele>
        <time>2022-10-29T06:51:24Z</time>
      </trkpt>
      <trkpt lat="44.39599" lon="3.88995">
        <ele>1394.8</ele>
        <time>2022-10-29T06:51:25Z</time>
      </trkpt>
      <trkpt lat="44.39598" lon="3.88999">
        <ele>1395</ele>
        <time>2022-10-29T06:51:26Z</time>
      </trkpt>
      <trkpt lat="44.39597" lon="3.89002">
        <ele>1395.2</ele>
        <time>2022-10-29T06:51:27Z</time>
      </trkpt>
      <trkpt lat="44.39597" lon="3.89005">
        <ele>1395.4</ele>
        <time>2022-10-29T06:51:28Z</time>
      </trkpt>
      <trkpt lat="44.39596" lon="3.89008">
        <ele>1395.8</ele>
        <time>2022-10-29T06:51:29Z</time>
      </trkpt>
      <trkpt lat="44.39595" lon="3.8901">
        <ele>1396.2</ele>
        <time>2022-10-29T06:51:30Z</time>
      </trkpt>
      <trkpt lat="44.39594" lon="3.89013">
        <ele>1396.2</ele>
        <time>2022-10-29T06:51:31Z</time>
      </trkpt>
      <trkpt lat="44.39593" lon="3.89016">
        <ele>1396.4</ele>
        <time>2022-10-29T06:51:32Z</time>
      </trkpt>
      <trkpt lat="44.39592" lon="3.89019">
        <ele>1396.6</ele>
        <time>2022-10-29T06:51:33Z</time>
      </trkpt>
      <trkpt lat="44.39591" lon="3.89021">
        <ele>1396.6</ele>
        <time>2022-10-29T06:51:34Z</time>
      </trkpt>
      <trkpt lat="44.3959" lon="3.89024">
        <ele>1396.8</ele>
        <time>2022-10-29T06:51:35Z</time>
      </trkpt>
      <trkpt lat="44.39588" lon="3.89026">
        <ele>1397</ele>
        <time>2022-10-29T06:51:36Z</time>
      </trkpt>
      <trkpt lat="44.39586" lon="3.89028">
        <ele>1397.2</ele>
        <time>2022-10-29T06:51:37Z</time>
      </trkpt>
      <trkpt lat="44.39585" lon="3.89029">
        <ele>1397.4</ele>
        <time>2022-10-29T06:51:38Z</time>
      </trkpt>
      <trkpt lat="44.39583" lon="3.89031">
        <ele>1397.8</ele>
        <time>2022-10-29T06:51:39Z</time>
      </trkpt>
      <trkpt lat="44.39582" lon="3.89033">
        <ele>1398</ele>
        <time>2022-10-29T06:51:40Z</time>
      </trkpt>
      <trkpt lat="44.3958" lon="3.89035">
        <ele>1398.2</ele>
        <time>2022-10-29T06:51:41Z</time>
      </trkpt>
      <trkpt lat="44.39579" lon="3.89037">
        <ele>1398.6</ele>
        <time>2022-10-29T06:51:42Z</time>
      </trkpt>
      <trkpt lat="44.39577" lon="3.89039">
        <ele>1398.8</ele>
        <time>2022-10-29T06:51:43Z</time>
      </trkpt>
      <trkpt lat="44.39576" lon="3.8904">
        <ele>1399</ele>
        <time>2022-10-29T06:51:44Z</time>
      </trkpt>
      <trkpt lat="44.39574" lon="3.89042">
        <ele>1399.2</ele>
        <time>2022-10-29T06:51:45Z</time>
      </trkpt>
      <trkpt lat="44.39573" lon="3.89044">
        <ele>1399.2</ele>
        <time>2022-10-29T06:51:46Z</time>
      </trkpt>
      <trkpt lat="44.39571" lon="3.89046">
        <ele>1399.4</ele>
        <time>2022-10-29T06:51:47Z</time>
      </trkpt>
      <trkpt lat="44.3957" lon="3.89047">
        <ele>1399.6</ele>
        <time>2022-10-29T06:51:48Z</time>
      </trkpt>
      <trkpt lat="44.39568" lon="3.89049">
        <ele>1399.8</ele>
        <time>2022-10-29T06:51:49Z</time>
      </trkpt>
      <trkpt lat="44.39566" lon="3.89051">
        <ele>1400</ele>
        <time>2022-10-29T06:51:50Z</time>
      </trkpt>
      <trkpt lat="44.39564" lon="3.89052">
        <ele>1400.4</ele>
        <time>2022-10-29T06:51:51Z</time>
      </trkpt>
      <trkpt lat="44.39562" lon="3.89054">
        <ele>1400.6</ele>
        <time>2022-10-29T06:51:52Z</time>
      </trkpt>
      <trkpt lat="44.3956" lon="3.89056">
        <ele>1401</ele>
        <time>2022-10-29T06:51:53Z</time>
      </trkpt>
      <trkpt lat="44.39559" lon="3.89058">
        <ele>1401.4</ele>
        <time>2022-10-29T06:51:54Z</time>
      </trkpt>
      <trkpt lat="44.39557" lon="3.8906">
        <ele>1401.6</ele>
        <time>2022-10-29T06:51:55Z</time>
      </trkpt>
      <trkpt lat="44.39556" lon="3.89062">
        <ele>1401.8</ele>
        <time>2022-10-29T06:51:56Z</time>
      </trkpt>
      <trkpt lat="44.39554" lon="3.89064">
        <ele>1401.8</ele>
        <time>2022-10-29T06:51:57Z</time>
      </trkpt>
      <trkpt lat="44.39552" lon="3.89066">
        <ele>1402</ele>
        <time>2022-10-29T06:51:58Z</time>
      </trkpt>
      <trkpt lat="44.39551" lon="3.89067">
        <ele>1402</ele>
        <time>2022-10-29T06:51:59Z</time>
      </trkpt>
      <trkpt lat="44.39549" lon="3.89069">
        <ele>1402.2</ele>
        <time>2022-10-29T06:52:00Z</time>
      </trkpt>
      <trkpt lat="44.39547" lon="3.89071">
        <ele>1402.4</ele>
        <time>2022-10-29T06:52:01Z</time>
      </trkpt>
      <trkpt lat="44.39545" lon="3.89074">
        <ele>1402.4</ele>
        <time>2022-10-29T06:52:02Z</time>
      </trkpt>
      <trkpt lat="44.39543" lon="3.89076">
        <ele>1402.6</ele>
        <time>2022-10-29T06:52:03Z</time>
      </trkpt>
      <trkpt lat="44.39542" lon="3.89078">
        <ele>1402.8</ele>
        <time>2022-10-29T06:52:04Z</time>
      </trkpt>
      <trkpt lat="44.3954" lon="3.8908">
        <ele>1403</ele>
        <time>2022-10-29T06:52:05Z</time>
      </trkpt>
      <trkpt lat="44.39539" lon="3.89082">
        <ele>1403.2</ele>
        <time>2022-10-29T06:52:06Z</time>
      </trkpt>
      <trkpt lat="44.39537" lon="3.89083">
        <ele>1403.4</ele>
        <time>2022-10-29T06:52:07Z</time>
      </trkpt>
      <trkpt lat="44.39535" lon="3.89085">
        <ele>1403.4</ele>
        <time>2022-10-29T06:52:08Z</time>
      </trkpt>
      <trkpt lat="44.39534" lon="3.89088">
        <ele>1403.6</ele>
        <time>2022-10-29T06:52:09Z</time>
      </trkpt>
      <trkpt lat="44.39533" lon="3.8909">
        <ele>1403.8</ele>
        <time>2022-10-29T06:52:10Z</time>
      </trkpt>
      <trkpt lat="44.39531" lon="3.89092">
        <ele>1403.8</ele>
        <time>2022-10-29T06:52:11Z</time>
      </trkpt>
      <trkpt lat="44.3953" lon="3.89095">
        <ele>1404</ele>
        <time>2022-10-29T06:52:12Z</time>
      </trkpt>
      <trkpt lat="44.39529" lon="3.89096">
        <ele>1404.2</ele>
        <time>2022-10-29T06:52:13Z</time>
      </trkpt>
      <trkpt lat="44.39527" lon="3.89099">
        <ele>1404.4</ele>
        <time>2022-10-29T06:52:14Z</time>
      </trkpt>
      <trkpt lat="44.39526" lon="3.89101">
        <ele>1404.6</ele>
        <time>2022-10-29T06:52:15Z</time>
      </trkpt>
      <trkpt lat="44.39524" lon="3.89103">
        <ele>1404.6</ele>
        <time>2022-10-29T06:52:16Z</time>
      </trkpt>
      <trkpt lat="44.39523" lon="3.89106">
        <ele>1404.8</ele>
        <time>2022-10-29T06:52:17Z</time>
      </trkpt>
      <trkpt lat="44.39522" lon="3.89108">
        <ele>1405</ele>
        <time>2022-10-29T06:52:18Z</time>
      </trkpt>
      <trkpt lat="44.39521" lon="3.89111">
        <ele>1405.2</ele>
        <time>2022-10-29T06:52:19Z</time>
      </trkpt>
      <trkpt lat="44.39519" lon="3.89113">
        <ele>1405.4</ele>
        <time>2022-10-29T06:52:20Z</time>
      </trkpt>
      <trkpt lat="44.39518" lon="3.89116">
        <ele>1405.6</ele>
        <time>2022-10-29T06:52:21Z</time>
      </trkpt>
      <trkpt lat="44.39517" lon="3.89118">
        <ele>1405.8</ele>
        <time>2022-10-29T06:52:22Z</time>
      </trkpt>
      <trkpt lat="44.39516" lon="3.89121">
        <ele>1406</ele>
        <time>2022-10-29T06:52:23Z</time>
      </trkpt>
      <trkpt lat="44.39515" lon="3.89123">
        <ele>1406.2</ele>
        <time>2022-10-29T06:52:24Z</time>
      </trkpt>
      <trkpt lat="44.39514" lon="3.89126">
        <ele>1406.4</ele>
        <time>2022-10-29T06:52:25Z</time>
      </trkpt>
      <trkpt lat="44.39512" lon="3.89128">
        <ele>1406.6</ele>
        <time>2022-10-29T06:52:26Z</time>
      </trkpt>
      <trkpt lat="44.39511" lon="3.8913">
        <ele>1406.8</ele>
        <time>2022-10-29T06:52:27Z</time>
      </trkpt>
      <trkpt lat="44.3951" lon="3.89133">
        <ele>1407</ele>
        <time>2022-10-29T06:52:28Z</time>
      </trkpt>
      <trkpt lat="44.39509" lon="3.89135">
        <ele>1407</ele>
        <time>2022-10-29T06:52:29Z</time>
      </trkpt>
      <trkpt lat="44.39507" lon="3.89138">
        <ele>1407.2</ele>
        <time>2022-10-29T06:52:30Z</time>
      </trkpt>
      <trkpt lat="44.39506" lon="3.8914">
        <ele>1407.4</ele>
        <time>2022-10-29T06:52:31Z</time>
      </trkpt>
      <trkpt lat="44.39505" lon="3.89143">
        <ele>1407.6</ele>
        <time>2022-10-29T06:52:32Z</time>
      </trkpt>
      <trkpt lat="44.39504" lon="3.89145">
        <ele>1407.8</ele>
        <time>2022-10-29T06:52:33Z</time>
      </trkpt>
      <trkpt lat="44.39503" lon="3.89148">
        <ele>1408</ele>
        <time>2022-10-29T06:52:34Z</time>
      </trkpt>
      <trkpt lat="44.39502" lon="3.8915">
        <ele>1408.2</ele>
        <time>2022-10-29T06:52:35Z</time>
      </trkpt>
      <trkpt lat="44.395" lon="3.89153">
        <ele>1408.4</ele>
        <time>2022-10-29T06:52:36Z</time>
      </trkpt>
      <trkpt lat="44.395" lon="3.89155">
        <ele>1408.6</ele>
        <time>2022-10-29T06:52:37Z</time>
      </trkpt>
      <trkpt lat="44.39498" lon="3.89158">
        <ele>1408.8</ele>
        <time>2022-10-29T06:52:38Z</time>
      </trkpt>
      <trkpt lat="44.39497" lon="3.8916">
        <ele>1408.8</ele>
        <time>2022-10-29T06:52:39Z</time>
      </trkpt>
      <trkpt lat="44.39495" lon="3.89163">
        <ele>1409</ele>
        <time>2022-10-29T06:52:40Z</time>
      </trkpt>
      <trkpt lat="44.39494" lon="3.89166">
        <ele>1409.2</ele>
        <time>2022-10-29T06:52:41Z</time>
      </trkpt>
      <trkpt lat="44.39493" lon="3.89169">
        <ele>1409.4</ele>
        <time>2022-10-29T06:52:42Z</time>
      </trkpt>
      <trkpt lat="44.39492" lon="3.89171">
        <ele>1409.6</ele>
        <time>2022-10-29T06:52:43Z</time>
      </trkpt>
      <trkpt lat="44.39491" lon="3.89174">
        <ele>1409.8</ele>
        <time>2022-10-29T06:52:44Z</time>
      </trkpt>
      <trkpt lat="44.3949" lon="3.89176">
        <ele>1410</ele>
        <time>2022-10-29T06:52:45Z</time>
      </trkpt>
      <trkpt lat="44.39488" lon="3.89178">
        <ele>1410.2</ele>
        <time>2022-10-29T06:52:46Z</time>
      </trkpt>
      <trkpt lat="44.39487" lon="3.89181">
        <ele>1410.4</ele>
        <time>2022-10-29T06:52:47Z</time>
      </trkpt>
      <trkpt lat="44.39486" lon="3.89183">
        <ele>1410.6</ele>
        <time>2022-10-29T06:52:48Z</time>
      </trkpt>
      <trkpt lat="44.39484" lon="3.89185">
        <ele>1410.8</ele>
        <time>2022-10-29T06:52:49Z</time>
      </trkpt>
      <trkpt lat="44.39483" lon="3.89187">
        <ele>1411</ele>
        <time>2022-10-29T06:52:50Z</time>
      </trkpt>
      <trkpt lat="44.39481" lon="3.89188">
        <ele>1411.2</ele>
        <time>2022-10-29T06:52:51Z</time>
      </trkpt>
      <trkpt lat="44.3948" lon="3.8919">
        <ele>1411.4</ele>
        <time>2022-10-29T06:52:52Z</time>
      </trkpt>
      <trkpt lat="44.39478" lon="3.89192">
        <ele>1411.4</ele>
        <time>2022-10-29T06:52:53Z</time>
      </trkpt>
      <trkpt lat="44.39477" lon="3.89193">
        <ele>1411.6</ele>
        <time>2022-10-29T06:52:54Z</time>
      </trkpt>
      <trkpt lat="44.39475" lon="3.89195">
        <ele>1411.8</ele>
        <time>2022-10-29T06:52:55Z</time>
      </trkpt>
      <trkpt lat="44.39473" lon="3.89197">
        <ele>1412</ele>
        <time>2022-10-29T06:52:56Z</time>
      </trkpt>
      <trkpt lat="44.39471" lon="3.89198">
        <ele>1412.2</ele>
        <time>2022-10-29T06:52:57Z</time>
      </trkpt>
      <trkpt lat="44.39469" lon="3.892">
        <ele>1412.4</ele>
        <time>2022-10-29T06:52:58Z</time>
      </trkpt>
      <trkpt lat="44.39468" lon="3.89202">
        <ele>1412.6</ele>
        <time>2022-10-29T06:52:59Z</time>
      </trkpt>
      <trkpt lat="44.39466" lon="3.89203">
        <ele>1412.8</ele>
        <time>2022-10-29T06:53:00Z</time>
      </trkpt>
      <trkpt lat="44.39464" lon="3.89204">
        <ele>1413</ele>
        <time>2022-10-29T06:53:01Z</time>
      </trkpt>
      <trkpt lat="44.39462" lon="3.89206">
        <ele>1413.2</ele>
        <time>2022-10-29T06:53:02Z</time>
      </trkpt>
      <trkpt lat="44.39461" lon="3.89207">
        <ele>1413.4</ele>
        <time>2022-10-29T06:53:03Z</time>
      </trkpt>
      <trkpt lat="44.39459" lon="3.89208">
        <ele>1413.6</ele>
        <time>2022-10-29T06:53:04Z</time>
      </trkpt>
      <trkpt lat="44.39457" lon="3.89209">
        <ele>1413.8</ele>
        <time>2022-10-29T06:53:05Z</time>
      </trkpt>
      <trkpt lat="44.39456" lon="3.89211">
        <ele>1414</ele>
        <time>2022-10-29T06:53:06Z</time>
      </trkpt>
      <trkpt lat="44.39454" lon="3.89212">
        <ele>1414.2</ele>
        <time>2022-10-29T06:53:07Z</time>
      </trkpt>
      <trkpt lat="44.39452" lon="3.89213">
        <ele>1414.4</ele>
        <time>2022-10-29T06:53:08Z</time>
      </trkpt>
      <trkpt lat="44.3945" lon="3.89214">
        <ele>1414.8</ele>
        <time>2022-10-29T06:53:09Z</time>
      </trkpt>
      <trkpt lat="44.39448" lon="3.89216">
        <ele>1415</ele>
        <time>2022-10-29T06:53:10Z</time>
      </trkpt>
      <trkpt lat="44.39447" lon="3.89217">
        <ele>1415.2</ele>
        <time>2022-10-29T06:53:11Z</time>
      </trkpt>
      <trkpt lat="44.39444" lon="3.89218">
        <ele>1415.4</ele>
        <time>2022-10-29T06:53:12Z</time>
      </trkpt>
      <trkpt lat="44.39443" lon="3.89219">
        <ele>1415.6</ele>
        <time>2022-10-29T06:53:13Z</time>
      </trkpt>
      <trkpt lat="44.39441" lon="3.8922">
        <ele>1415.8</ele>
        <time>2022-10-29T06:53:14Z</time>
      </trkpt>
      <trkpt lat="44.39439" lon="3.89221">
        <ele>1416</ele>
        <time>2022-10-29T06:53:15Z</time>
      </trkpt>
      <trkpt lat="44.39437" lon="3.89222">
        <ele>1416.2</ele>
        <time>2022-10-29T06:53:16Z</time>
      </trkpt>
      <trkpt lat="44.39435" lon="3.89223">
        <ele>1416.4</ele>
        <time>2022-10-29T06:53:17Z</time>
      </trkpt>
      <trkpt lat="44.39433" lon="3.89225">
        <ele>1416.6</ele>
        <time>2022-10-29T06:53:18Z</time>
      </trkpt>
      <trkpt lat="44.39431" lon="3.89226">
        <ele>1416.8</ele>
        <time>2022-10-29T06:53:19Z</time>
      </trkpt>
      <trkpt lat="44.39429" lon="3.89228">
        <ele>1417</ele>
        <time>2022-10-29T06:53:20Z</time>
      </trkpt>
      <trkpt lat="44.39427" lon="3.8923">
        <ele>1417.2</ele>
        <time>2022-10-29T06:53:21Z</time>
      </trkpt>
      <trkpt lat="44.39425" lon="3.89231">
        <ele>1417.4</ele>
        <time>2022-10-29T06:53:22Z</time>
      </trkpt>
      <trkpt lat="44.39423" lon="3.89233">
        <ele>1417.4</ele>
        <time>2022-10-29T06:53:23Z</time>
      </trkpt>
      <trkpt lat="44.39421" lon="3.89234">
        <ele>1417.6</ele>
        <time>2022-10-29T06:53:24Z</time>
      </trkpt>
      <trkpt lat="44.39419" lon="3.89236">
        <ele>1417.8</ele>
        <time>2022-10-29T06:53:25Z</time>
      </trkpt>
      <trkpt lat="44.39417" lon="3.89237">
        <ele>1418</ele>
        <time>2022-10-29T06:53:26Z</time>
      </trkpt>
      <trkpt lat="44.39415" lon="3.89238">
        <ele>1418.2</ele>
        <time>2022-10-29T06:53:27Z</time>
      </trkpt>
      <trkpt lat="44.39413" lon="3.8924">
        <ele>1418.4</ele>
        <time>2022-10-29T06:53:28Z</time>
      </trkpt>
      <trkpt lat="44.39411" lon="3.89242">
        <ele>1418.4</ele>
        <time>2022-10-29T06:53:29Z</time>
      </trkpt>
      <trkpt lat="44.3941" lon="3.89244">
        <ele>1418.6</ele>
        <time>2022-10-29T06:53:30Z</time>
      </trkpt>
      <trkpt lat="44.39407" lon="3.89245">
        <ele>1418.8</ele>
        <time>2022-10-29T06:53:31Z</time>
      </trkpt>
      <trkpt lat="44.39406" lon="3.89247">
        <ele>1419</ele>
        <time>2022-10-29T06:53:32Z</time>
      </trkpt>
      <trkpt lat="44.39404" lon="3.89248">
        <ele>1419.2</ele>
        <time>2022-10-29T06:53:33Z</time>
      </trkpt>
      <trkpt lat="44.39402" lon="3.8925">
        <ele>1419.2</ele>
        <time>2022-10-29T06:53:34Z</time>
      </trkpt>
      <trkpt lat="44.394" lon="3.89251">
        <ele>1419.6</ele>
        <time>2022-10-29T06:53:35Z</time>
      </trkpt>
      <trkpt lat="44.39398" lon="3.89252">
        <ele>1419.8</ele>
        <time>2022-10-29T06:53:36Z</time>
      </trkpt>
      <trkpt lat="44.39396" lon="3.89254">
        <ele>1420</ele>
        <time>2022-10-29T06:53:37Z</time>
      </trkpt>
      <trkpt lat="44.39395" lon="3.89256">
        <ele>1420.2</ele>
        <time>2022-10-29T06:53:38Z</time>
      </trkpt>
      <trkpt lat="44.39393" lon="3.89257">
        <ele>1420.4</ele>
        <time>2022-10-29T06:53:39Z</time>
      </trkpt>
      <trkpt lat="44.39392" lon="3.89259">
        <ele>1420.6</ele>
        <time>2022-10-29T06:53:40Z</time>
      </trkpt>
      <trkpt lat="44.3939" lon="3.8926">
        <ele>1420.8</ele>
        <time>2022-10-29T06:53:41Z</time>
      </trkpt>
      <trkpt lat="44.39388" lon="3.89261">
        <ele>1421</ele>
        <time>2022-10-29T06:53:42Z</time>
      </trkpt>
      <trkpt lat="44.39386" lon="3.89263">
        <ele>1421.4</ele>
        <time>2022-10-29T06:53:43Z</time>
      </trkpt>
      <trkpt lat="44.39384" lon="3.89264">
        <ele>1421.6</ele>
        <time>2022-10-29T06:53:44Z</time>
      </trkpt>
      <trkpt lat="44.39382" lon="3.89266">
        <ele>1421.8</ele>
        <time>2022-10-29T06:53:45Z</time>
      </trkpt>
      <trkpt lat="44.3938" lon="3.89268">
        <ele>1422</ele>
        <time>2022-10-29T06:53:46Z</time>
      </trkpt>
      <trkpt lat="44.39379" lon="3.8927">
        <ele>1422.2</ele>
        <time>2022-10-29T06:53:47Z</time>
      </trkpt>
      <trkpt lat="44.39377" lon="3.89271">
        <ele>1422.2</ele>
        <time>2022-10-29T06:53:48Z</time>
      </trkpt>
      <trkpt lat="44.39375" lon="3.89272">
        <ele>1422.4</ele>
        <time>2022-10-29T06:53:49Z</time>
      </trkpt>
      <trkpt lat="44.39373" lon="3.89273">
        <ele>1422.6</ele>
        <time>2022-10-29T06:53:50Z</time>
      </trkpt>
      <trkpt lat="44.39371" lon="3.89274">
        <ele>1422.8</ele>
        <time>2022-10-29T06:53:51Z</time>
      </trkpt>
      <trkpt lat="44.39369" lon="3.89275">
        <ele>1423</ele>
        <time>2022-10-29T06:53:52Z</time>
      </trkpt>
      <trkpt lat="44.39367" lon="3.89277">
        <ele>1423.2</ele>
        <time>2022-10-29T06:53:53Z</time>
      </trkpt>
      <trkpt lat="44.39365" lon="3.89278">
        <ele>1423.4</ele>
        <time>2022-10-29T06:53:54Z</time>
      </trkpt>
      <trkpt lat="44.39363" lon="3.89279">
        <ele>1423.6</ele>
        <time>2022-10-29T06:53:55Z</time>
      </trkpt>
      <trkpt lat="44.39361" lon="3.89281">
        <ele>1423.8</ele>
        <time>2022-10-29T06:53:56Z</time>
      </trkpt>
      <trkpt lat="44.39359" lon="3.89282">
        <ele>1423.8</ele>
        <time>2022-10-29T06:53:57Z</time>
      </trkpt>
      <trkpt lat="44.39357" lon="3.89284">
        <ele>1424</ele>
        <time>2022-10-29T06:53:58Z</time>
      </trkpt>
      <trkpt lat="44.39356" lon="3.89285">
        <ele>1424.2</ele>
        <time>2022-10-29T06:53:59Z</time>
      </trkpt>
      <trkpt lat="44.39354" lon="3.89286">
        <ele>1424.4</ele>
        <time>2022-10-29T06:54:00Z</time>
      </trkpt>
      <trkpt lat="44.39352" lon="3.89288">
        <ele>1424.6</ele>
        <time>2022-10-29T06:54:01Z</time>
      </trkpt>
      <trkpt lat="44.3935" lon="3.89289">
        <ele>1424.8</ele>
        <time>2022-10-29T06:54:02Z</time>
      </trkpt>
      <trkpt lat="44.39348" lon="3.89291">
        <ele>1425</ele>
        <time>2022-10-29T06:54:03Z</time>
      </trkpt>
      <trkpt lat="44.39346" lon="3.89292">
        <ele>1425.2</ele>
        <time>2022-10-29T06:54:04Z</time>
      </trkpt>
      <trkpt lat="44.39344" lon="3.89293">
        <ele>1425.4</ele>
        <time>2022-10-29T06:54:05Z</time>
      </trkpt>
      <trkpt lat="44.39342" lon="3.89295">
        <ele>1425.4</ele>
        <time>2022-10-29T06:54:06Z</time>
      </trkpt>
      <trkpt lat="44.3934" lon="3.89296">
        <ele>1425.6</ele>
        <time>2022-10-29T06:54:07Z</time>
      </trkpt>
      <trkpt lat="44.39338" lon="3.89297">
        <ele>1425.8</ele>
        <time>2022-10-29T06:54:08Z</time>
      </trkpt>
      <trkpt lat="44.39336" lon="3.89299">
        <ele>1426</ele>
        <time>2022-10-29T06:54:09Z</time>
      </trkpt>
      <trkpt lat="44.39334" lon="3.893">
        <ele>1426.2</ele>
        <time>2022-10-29T06:54:10Z</time>
      </trkpt>
      <trkpt lat="44.39332" lon="3.89302">
        <ele>1426.2</ele>
        <time>2022-10-29T06:54:11Z</time>
      </trkpt>
      <trkpt lat="44.3933" lon="3.89303">
        <ele>1426.4</ele>
        <time>2022-10-29T06:54:12Z</time>
      </trkpt>
      <trkpt lat="44.39328" lon="3.89305">
        <ele>1426.6</ele>
        <time>2022-10-29T06:54:13Z</time>
      </trkpt>
      <trkpt lat="44.39326" lon="3.89306">
        <ele>1427</ele>
        <time>2022-10-29T06:54:14Z</time>
      </trkpt>
      <trkpt lat="44.39324" lon="3.89307">
        <ele>1427.2</ele>
        <time>2022-10-29T06:54:15Z</time>
      </trkpt>
      <trkpt lat="44.39322" lon="3.89309">
        <ele>1427.4</ele>
        <time>2022-10-29T06:54:16Z</time>
      </trkpt>
      <trkpt lat="44.39321" lon="3.8931">
        <ele>1427.6</ele>
        <time>2022-10-29T06:54:17Z</time>
      </trkpt>
      <trkpt lat="44.39319" lon="3.89312">
        <ele>1427.8</ele>
        <time>2022-10-29T06:54:18Z</time>
      </trkpt>
      <trkpt lat="44.39317" lon="3.89313">
        <ele>1428.2</ele>
        <time>2022-10-29T06:54:19Z</time>
      </trkpt>
      <trkpt lat="44.39315" lon="3.89315">
        <ele>1428.4</ele>
        <time>2022-10-29T06:54:20Z</time>
      </trkpt>
      <trkpt lat="44.39313" lon="3.89316">
        <ele>1428.6</ele>
        <time>2022-10-29T06:54:21Z</time>
      </trkpt>
      <trkpt lat="44.39311" lon="3.89318">
        <ele>1428.8</ele>
        <time>2022-10-29T06:54:22Z</time>
      </trkpt>
      <trkpt lat="44.39309" lon="3.89319">
        <ele>1429</ele>
        <time>2022-10-29T06:54:23Z</time>
      </trkpt>
      <trkpt lat="44.39307" lon="3.89321">
        <ele>1429.2</ele>
        <time>2022-10-29T06:54:24Z</time>
      </trkpt>
      <trkpt lat="44.39305" lon="3.89322">
        <ele>1429.4</ele>
        <time>2022-10-29T06:54:25Z</time>
      </trkpt>
      <trkpt lat="44.39303" lon="3.89323">
        <ele>1429.6</ele>
        <time>2022-10-29T06:54:26Z</time>
      </trkpt>
      <trkpt lat="44.39301" lon="3.89325">
        <ele>1429.8</ele>
        <time>2022-10-29T06:54:27Z</time>
      </trkpt>
      <trkpt lat="44.39299" lon="3.89326">
        <ele>1430</ele>
        <time>2022-10-29T06:54:28Z</time>
      </trkpt>
      <trkpt lat="44.39297" lon="3.89328">
        <ele>1430.2</ele>
        <time>2022-10-29T06:54:29Z</time>
      </trkpt>
      <trkpt lat="44.39296" lon="3.8933">
        <ele>1430.4</ele>
        <time>2022-10-29T06:54:30Z</time>
      </trkpt>
      <trkpt lat="44.39294" lon="3.89332">
        <ele>1430.6</ele>
        <time>2022-10-29T06:54:31Z</time>
      </trkpt>
      <trkpt lat="44.39292" lon="3.89333">
        <ele>1430.6</ele>
        <time>2022-10-29T06:54:32Z</time>
      </trkpt>
      <trkpt lat="44.3929" lon="3.89335">
        <ele>1430.8</ele>
        <time>2022-10-29T06:54:33Z</time>
      </trkpt>
      <trkpt lat="44.39288" lon="3.89337">
        <ele>1431</ele>
        <time>2022-10-29T06:54:34Z</time>
      </trkpt>
      <trkpt lat="44.39287" lon="3.89338">
        <ele>1431.2</ele>
        <time>2022-10-29T06:54:35Z</time>
      </trkpt>
      <trkpt lat="44.39285" lon="3.8934">
        <ele>1431.4</ele>
        <time>2022-10-29T06:54:36Z</time>
      </trkpt>
      <trkpt lat="44.39283" lon="3.89342">
        <ele>1431.6</ele>
        <time>2022-10-29T06:54:37Z</time>
      </trkpt>
      <trkpt lat="44.39281" lon="3.89343">
        <ele>1431.8</ele>
        <time>2022-10-29T06:54:38Z</time>
      </trkpt>
      <trkpt lat="44.39279" lon="3.89345">
        <ele>1432</ele>
        <time>2022-10-29T06:54:39Z</time>
      </trkpt>
      <trkpt lat="44.39277" lon="3.89346">
        <ele>1432.2</ele>
        <time>2022-10-29T06:54:40Z</time>
      </trkpt>
      <trkpt lat="44.39275" lon="3.89348">
        <ele>1432.4</ele>
        <time>2022-10-29T06:54:41Z</time>
      </trkpt>
      <trkpt lat="44.39273" lon="3.89349">
        <ele>1432.6</ele>
        <time>2022-10-29T06:54:42Z</time>
      </trkpt>
      <trkpt lat="44.39271" lon="3.89351">
        <ele>1432.8</ele>
        <time>2022-10-29T06:54:43Z</time>
      </trkpt>
      <trkpt lat="44.39269" lon="3.89353">
        <ele>1433</ele>
        <time>2022-10-29T06:54:44Z</time>
      </trkpt>
      <trkpt lat="44.39268" lon="3.89354">
        <ele>1433</ele>
        <time>2022-10-29T06:54:45Z</time>
      </trkpt>
      <trkpt lat="44.39266" lon="3.89356">
        <ele>1433.2</ele>
        <time>2022-10-29T06:54:46Z</time>
      </trkpt>
      <trkpt lat="44.39264" lon="3.89358">
        <ele>1433.4</ele>
        <time>2022-10-29T06:54:47Z</time>
      </trkpt>
      <trkpt lat="44.39262" lon="3.89359">
        <ele>1433.6</ele>
        <time>2022-10-29T06:54:48Z</time>
      </trkpt>
      <trkpt lat="44.3926" lon="3.89361">
        <ele>1433.8</ele>
        <time>2022-10-29T06:54:49Z</time>
      </trkpt>
      <trkpt lat="44.39258" lon="3.89363">
        <ele>1434</ele>
        <time>2022-10-29T06:54:50Z</time>
      </trkpt>
      <trkpt lat="44.39256" lon="3.89364">
        <ele>1434.2</ele>
        <time>2022-10-29T06:54:51Z</time>
      </trkpt>
      <trkpt lat="44.39254" lon="3.89365">
        <ele>1434.2</ele>
        <time>2022-10-29T06:54:52Z</time>
      </trkpt>
      <trkpt lat="44.39252" lon="3.89367">
        <ele>1434.4</ele>
        <time>2022-10-29T06:54:53Z</time>
      </trkpt>
      <trkpt lat="44.3925" lon="3.89368">
        <ele>1434.6</ele>
        <time>2022-10-29T06:54:54Z</time>
      </trkpt>
      <trkpt lat="44.39249" lon="3.8937">
        <ele>1434.8</ele>
        <time>2022-10-29T06:54:55Z</time>
      </trkpt>
      <trkpt lat="44.39247" lon="3.89371">
        <ele>1435</ele>
        <time>2022-10-29T06:54:56Z</time>
      </trkpt>
      <trkpt lat="44.39245" lon="3.89373">
        <ele>1435</ele>
        <time>2022-10-29T06:54:57Z</time>
      </trkpt>
      <trkpt lat="44.39242" lon="3.89374">
        <ele>1435.2</ele>
        <time>2022-10-29T06:54:58Z</time>
      </trkpt>
      <trkpt lat="44.39241" lon="3.89376">
        <ele>1435.6</ele>
        <time>2022-10-29T06:54:59Z</time>
      </trkpt>
      <trkpt lat="44.39239" lon="3.89378">
        <ele>1435.6</ele>
        <time>2022-10-29T06:55:00Z</time>
      </trkpt>
      <trkpt lat="44.39237" lon="3.89379">
        <ele>1435.8</ele>
        <time>2022-10-29T06:55:01Z</time>
      </trkpt>
      <trkpt lat="44.39235" lon="3.8938">
        <ele>1436</ele>
        <time>2022-10-29T06:55:02Z</time>
      </trkpt>
      <trkpt lat="44.39233" lon="3.89382">
        <ele>1436.2</ele>
        <time>2022-10-29T06:55:03Z</time>
      </trkpt>
      <trkpt lat="44.39231" lon="3.89383">
        <ele>1436.4</ele>
        <time>2022-10-29T06:55:04Z</time>
      </trkpt>
      <trkpt lat="44.39229" lon="3.89384">
        <ele>1436.6</ele>
        <time>2022-10-29T06:55:05Z</time>
      </trkpt>
      <trkpt lat="44.39227" lon="3.89385">
        <ele>1436.8</ele>
        <time>2022-10-29T06:55:06Z</time>
      </trkpt>
      <trkpt lat="44.39225" lon="3.89387">
        <ele>1437</ele>
        <time>2022-10-29T06:55:07Z</time>
      </trkpt>
      <trkpt lat="44.39223" lon="3.89389">
        <ele>1437.2</ele>
        <time>2022-10-29T06:55:08Z</time>
      </trkpt>
      <trkpt lat="44.39221" lon="3.89391">
        <ele>1437.4</ele>
        <time>2022-10-29T06:55:09Z</time>
      </trkpt>
      <trkpt lat="44.39219" lon="3.89392">
        <ele>1437.6</ele>
        <time>2022-10-29T06:55:10Z</time>
      </trkpt>
      <trkpt lat="44.39218" lon="3.89393">
        <ele>1437.6</ele>
        <time>2022-10-29T06:55:11Z</time>
      </trkpt>
      <trkpt lat="44.39216" lon="3.89395">
        <ele>1437.8</ele>
        <time>2022-10-29T06:55:12Z</time>
      </trkpt>
      <trkpt lat="44.39214" lon="3.89396">
        <ele>1438</ele>
        <time>2022-10-29T06:55:13Z</time>
      </trkpt>
      <trkpt lat="44.39212" lon="3.89397">
        <ele>1438.2</ele>
        <time>2022-10-29T06:55:14Z</time>
      </trkpt>
      <trkpt lat="44.3921" lon="3.89399">
        <ele>1438.4</ele>
        <time>2022-10-29T06:55:15Z</time>
      </trkpt>
      <trkpt lat="44.39208" lon="3.89401">
        <ele>1438.6</ele>
        <time>2022-10-29T06:55:16Z</time>
      </trkpt>
      <trkpt lat="44.39206" lon="3.89402">
        <ele>1438.8</ele>
        <time>2022-10-29T06:55:17Z</time>
      </trkpt>
      <trkpt lat="44.39204" lon="3.89404">
        <ele>1439</ele>
        <time>2022-10-29T06:55:18Z</time>
      </trkpt>
      <trkpt lat="44.39202" lon="3.89405">
        <ele>1439.2</ele>
        <time>2022-10-29T06:55:19Z</time>
      </trkpt>
      <trkpt lat="44.39201" lon="3.89407">
        <ele>1439.4</ele>
        <time>2022-10-29T06:55:20Z</time>
      </trkpt>
      <trkpt lat="44.39199" lon="3.89408">
        <ele>1439.6</ele>
        <time>2022-10-29T06:55:21Z</time>
      </trkpt>
      <trkpt lat="44.39197" lon="3.8941">
        <ele>1439.8</ele>
        <time>2022-10-29T06:55:22Z</time>
      </trkpt>
      <trkpt lat="44.39195" lon="3.89411">
        <ele>1440</ele>
        <time>2022-10-29T06:55:23Z</time>
      </trkpt>
      <trkpt lat="44.39193" lon="3.89413">
        <ele>1440.2</ele>
        <time>2022-10-29T06:55:24Z</time>
      </trkpt>
      <trkpt lat="44.39192" lon="3.89414">
        <ele>1440.4</ele>
        <time>2022-10-29T06:55:25Z</time>
      </trkpt>
      <trkpt lat="44.3919" lon="3.89416">
        <ele>1440.6</ele>
        <time>2022-10-29T06:55:26Z</time>
      </trkpt>
      <trkpt lat="44.39188" lon="3.89418">
        <ele>1440.6</ele>
        <time>2022-10-29T06:55:27Z</time>
      </trkpt>
      <trkpt lat="44.39187" lon="3.8942">
        <ele>1440.8</ele>
        <time>2022-10-29T06:55:28Z</time>
      </trkpt>
      <trkpt lat="44.39185" lon="3.89421">
        <ele>1441</ele>
        <time>2022-10-29T06:55:29Z</time>
      </trkpt>
      <trkpt lat="44.39183" lon="3.89423">
        <ele>1441.2</ele>
        <time>2022-10-29T06:55:30Z</time>
      </trkpt>
      <trkpt lat="44.39181" lon="3.89424">
        <ele>1441.4</ele>
        <time>2022-10-29T06:55:31Z</time>
      </trkpt>
      <trkpt lat="44.39179" lon="3.89426">
        <ele>1441.6</ele>
        <time>2022-10-29T06:55:32Z</time>
      </trkpt>
      <trkpt lat="44.39177" lon="3.89428">
        <ele>1441.8</ele>
        <time>2022-10-29T06:55:33Z</time>
      </trkpt>
      <trkpt lat="44.39176" lon="3.8943">
        <ele>1441.8</ele>
        <time>2022-10-29T06:55:34Z</time>
      </trkpt>
      <trkpt lat="44.39174" lon="3.89432">
        <ele>1442</ele>
        <time>2022-10-29T06:55:35Z</time>
      </trkpt>
      <trkpt lat="44.39172" lon="3.89434">
        <ele>1442.2</ele>
        <time>2022-10-29T06:55:36Z</time>
      </trkpt>
      <trkpt lat="44.3917" lon="3.89436">
        <ele>1442.4</ele>
        <time>2022-10-29T06:55:37Z</time>
      </trkpt>
      <trkpt lat="44.39169" lon="3.89439">
        <ele>1442.4</ele>
        <time>2022-10-29T06:55:38Z</time>
      </trkpt>
      <trkpt lat="44.39167" lon="3.89441">
        <ele>1442.6</ele>
        <time>2022-10-29T06:55:39Z</time>
      </trkpt>
      <trkpt lat="44.39165" lon="3.89443">
        <ele>1442.8</ele>
        <time>2022-10-29T06:55:40Z</time>
      </trkpt>
      <trkpt lat="44.39164" lon="3.89445">
        <ele>1442.8</ele>
        <time>2022-10-29T06:55:41Z</time>
      </trkpt>
      <trkpt lat="44.39162" lon="3.89447">
        <ele>1443</ele>
        <time>2022-10-29T06:55:42Z</time>
      </trkpt>
      <trkpt lat="44.3916" lon="3.89449">
        <ele>1443</ele>
        <time>2022-10-29T06:55:43Z</time>
      </trkpt>
      <trkpt lat="44.39158" lon="3.89451">
        <ele>1443.2</ele>
        <time>2022-10-29T06:55:44Z</time>
      </trkpt>
      <trkpt lat="44.39156" lon="3.89453">
        <ele>1443.4</ele>
        <time>2022-10-29T06:55:45Z</time>
      </trkpt>
      <trkpt lat="44.39154" lon="3.89454">
        <ele>1443.4</ele>
        <time>2022-10-29T06:55:46Z</time>
      </trkpt>
      <trkpt lat="44.39152" lon="3.89455">
        <ele>1443.6</ele>
        <time>2022-10-29T06:55:47Z</time>
      </trkpt>
      <trkpt lat="44.3915" lon="3.89456">
        <ele>1443.6</ele>
        <time>2022-10-29T06:55:48Z</time>
      </trkpt>
      <trkpt lat="44.39147" lon="3.89455">
        <ele>1443.8</ele>
        <time>2022-10-29T06:55:49Z</time>
      </trkpt>
      <trkpt lat="44.39146" lon="3.89453">
        <ele>1444</ele>
        <time>2022-10-29T06:55:50Z</time>
      </trkpt>
      <trkpt lat="44.39146" lon="3.89451">
        <ele>1444.2</ele>
        <time>2022-10-29T06:55:51Z</time>
      </trkpt>
      <trkpt lat="44.39147" lon="3.89448">
        <ele>1444.4</ele>
        <time>2022-10-29T06:55:52Z</time>
      </trkpt>
      <trkpt lat="44.39148" lon="3.89445">
        <ele>1444.4</ele>
        <time>2022-10-29T06:55:53Z</time>
      </trkpt>
      <trkpt lat="44.39149" lon="3.89443">
        <ele>1444.6</ele>
        <time>2022-10-29T06:55:54Z</time>
      </trkpt>
      <trkpt lat="44.39151" lon="3.8944">
        <ele>1444.8</ele>
        <time>2022-10-29T06:55:55Z</time>
      </trkpt>
      <trkpt lat="44.39152" lon="3.89438">
        <ele>1444.8</ele>
        <time>2022-10-29T06:55:56Z</time>
      </trkpt>
      <trkpt lat="44.39154" lon="3.89436">
        <ele>1445</ele>
        <time>2022-10-29T06:55:57Z</time>
      </trkpt>
      <trkpt lat="44.39156" lon="3.89433">
        <ele>1445.2</ele>
        <time>2022-10-29T06:55:58Z</time>
      </trkpt>
      <trkpt lat="44.39158" lon="3.89431">
        <ele>1445.2</ele>
        <time>2022-10-29T06:55:59Z</time>
      </trkpt>
      <trkpt lat="44.39159" lon="3.89428">
        <ele>1445.4</ele>
        <time>2022-10-29T06:56:00Z</time>
      </trkpt>
      <trkpt lat="44.39161" lon="3.89426">
        <ele>1445.6</ele>
        <time>2022-10-29T06:56:01Z</time>
      </trkpt>
      <trkpt lat="44.39163" lon="3.89423">
        <ele>1445.8</ele>
        <time>2022-10-29T06:56:02Z</time>
      </trkpt>
      <trkpt lat="44.39164" lon="3.8942">
        <ele>1446</ele>
        <time>2022-10-29T06:56:03Z</time>
      </trkpt>
      <trkpt lat="44.39166" lon="3.89418">
        <ele>1446.2</ele>
        <time>2022-10-29T06:56:04Z</time>
      </trkpt>
      <trkpt lat="44.39168" lon="3.89416">
        <ele>1446.2</ele>
        <time>2022-10-29T06:56:05Z</time>
      </trkpt>
      <trkpt lat="44.39169" lon="3.89413">
        <ele>1446.4</ele>
        <time>2022-10-29T06:56:06Z</time>
      </trkpt>
      <trkpt lat="44.39171" lon="3.8941">
        <ele>1446.6</ele>
        <time>2022-10-29T06:56:07Z</time>
      </trkpt>
      <trkpt lat="44.39172" lon="3.89407">
        <ele>1446.8</ele>
        <time>2022-10-29T06:56:08Z</time>
      </trkpt>
      <trkpt lat="44.39173" lon="3.89405">
        <ele>1447</ele>
        <time>2022-10-29T06:56:09Z</time>
      </trkpt>
      <trkpt lat="44.39175" lon="3.89402">
        <ele>1447.2</ele>
        <time>2022-10-29T06:56:10Z</time>
      </trkpt>
      <trkpt lat="44.39176" lon="3.894">
        <ele>1447.4</ele>
        <time>2022-10-29T06:56:11Z</time>
      </trkpt>
      <trkpt lat="44.39177" lon="3.89397">
        <ele>1447.6</ele>
        <time>2022-10-29T06:56:12Z</time>
      </trkpt>
      <trkpt lat="44.39178" lon="3.89394">
        <ele>1447.8</ele>
        <time>2022-10-29T06:56:13Z</time>
      </trkpt>
      <trkpt lat="44.39179" lon="3.89391">
        <ele>1448</ele>
        <time>2022-10-29T06:56:14Z</time>
      </trkpt>
      <trkpt lat="44.3918" lon="3.89389">
        <ele>1448.2</ele>
        <time>2022-10-29T06:56:15Z</time>
      </trkpt>
      <trkpt lat="44.39181" lon="3.89386">
        <ele>1448.4</ele>
        <time>2022-10-29T06:56:16Z</time>
      </trkpt>
      <trkpt lat="44.39182" lon="3.89383">
        <ele>1448.6</ele>
        <time>2022-10-29T06:56:17Z</time>
      </trkpt>
      <trkpt lat="44.39183" lon="3.8938">
        <ele>1448.8</ele>
        <time>2022-10-29T06:56:18Z</time>
      </trkpt>
      <trkpt lat="44.39184" lon="3.89378">
        <ele>1449</ele>
        <time>2022-10-29T06:56:19Z</time>
      </trkpt>
      <trkpt lat="44.39185" lon="3.89375">
        <ele>1449.2</ele>
        <time>2022-10-29T06:56:20Z</time>
      </trkpt>
      <trkpt lat="44.39187" lon="3.89372">
        <ele>1449.4</ele>
        <time>2022-10-29T06:56:21Z</time>
      </trkpt>
      <trkpt lat="44.39188" lon="3.89369">
        <ele>1449.6</ele>
        <time>2022-10-29T06:56:22Z</time>
      </trkpt>
      <trkpt lat="44.39189" lon="3.89366">
        <ele>1449.8</ele>
        <time>2022-10-29T06:56:23Z</time>
      </trkpt>
      <trkpt lat="44.3919" lon="3.89364">
        <ele>1450</ele>
        <time>2022-10-29T06:56:24Z</time>
      </trkpt>
      <trkpt lat="44.39191" lon="3.89361">
        <ele>1450.2</ele>
        <time>2022-10-29T06:56:25Z</time>
      </trkpt>
      <trkpt lat="44.39192" lon="3.89358">
        <ele>1450.4</ele>
        <time>2022-10-29T06:56:26Z</time>
      </trkpt>
      <trkpt lat="44.39193" lon="3.89355">
        <ele>1450.6</ele>
        <time>2022-10-29T06:56:27Z</time>
      </trkpt>
      <trkpt lat="44.39195" lon="3.89353">
        <ele>1450.8</ele>
        <time>2022-10-29T06:56:28Z</time>
      </trkpt>
      <trkpt lat="44.39196" lon="3.8935">
        <ele>1451</ele>
        <time>2022-10-29T06:56:29Z</time>
      </trkpt>
      <trkpt lat="44.39197" lon="3.89347">
        <ele>1451.2</ele>
        <time>2022-10-29T06:56:30Z</time>
      </trkpt>
      <trkpt lat="44.39198" lon="3.89344">
        <ele>1451.4</ele>
        <time>2022-10-29T06:56:31Z</time>
      </trkpt>
      <trkpt lat="44.39199" lon="3.89341">
        <ele>1451.4</ele>
        <time>2022-10-29T06:56:32Z</time>
      </trkpt>
      <trkpt lat="44.392" lon="3.89339">
        <ele>1451.6</ele>
        <time>2022-10-29T06:56:33Z</time>
      </trkpt>
      <trkpt lat="44.39201" lon="3.89336">
        <ele>1451.8</ele>
        <time>2022-10-29T06:56:34Z</time>
      </trkpt>
      <trkpt lat="44.39202" lon="3.89334">
        <ele>1452</ele>
        <time>2022-10-29T06:56:35Z</time>
      </trkpt>
      <trkpt lat="44.39204" lon="3.89331">
        <ele>1452.2</ele>
        <time>2022-10-29T06:56:36Z</time>
      </trkpt>
      <trkpt lat="44.39205" lon="3.89328">
        <ele>1452.4</ele>
        <time>2022-10-29T06:56:37Z</time>
      </trkpt>
      <trkpt lat="44.39206" lon="3.89325">
        <ele>1452.8</ele>
        <time>2022-10-29T06:56:38Z</time>
      </trkpt>
      <trkpt lat="44.39207" lon="3.89322">
        <ele>1452.8</ele>
        <time>2022-10-29T06:56:39Z</time>
      </trkpt>
      <trkpt lat="44.39208" lon="3.89319">
        <ele>1453</ele>
        <time>2022-10-29T06:56:40Z</time>
      </trkpt>
      <trkpt lat="44.39209" lon="3.89316">
        <ele>1453.4</ele>
        <time>2022-10-29T06:56:41Z</time>
      </trkpt>
      <trkpt lat="44.39211" lon="3.89314">
        <ele>1453.6</ele>
        <time>2022-10-29T06:56:42Z</time>
      </trkpt>
      <trkpt lat="44.39211" lon="3.89311">
        <ele>1453.8</ele>
        <time>2022-10-29T06:56:43Z</time>
      </trkpt>
      <trkpt lat="44.39212" lon="3.89308">
        <ele>1454</ele>
        <time>2022-10-29T06:56:44Z</time>
      </trkpt>
      <trkpt lat="44.39213" lon="3.89305">
        <ele>1454.2</ele>
        <time>2022-10-29T06:56:45Z</time>
      </trkpt>
      <trkpt lat="44.39214" lon="3.89303">
        <ele>1454.2</ele>
        <time>2022-10-29T06:56:46Z</time>
      </trkpt>
      <trkpt lat="44.39215" lon="3.893">
        <ele>1454.4</ele>
        <time>2022-10-29T06:56:47Z</time>
      </trkpt>
      <trkpt lat="44.39216" lon="3.89297">
        <ele>1454.6</ele>
        <time>2022-10-29T06:56:48Z</time>
      </trkpt>
      <trkpt lat="44.39217" lon="3.89295">
        <ele>1454.8</ele>
        <time>2022-10-29T06:56:49Z</time>
      </trkpt>
      <trkpt lat="44.39217" lon="3.89291">
        <ele>1454.8</ele>
        <time>2022-10-29T06:56:50Z</time>
      </trkpt>
      <trkpt lat="44.39218" lon="3.89288">
        <ele>1455</ele>
        <time>2022-10-29T06:56:51Z</time>
      </trkpt>
      <trkpt lat="44.39219" lon="3.89285">
        <ele>1455.4</ele>
        <time>2022-10-29T06:56:52Z</time>
      </trkpt>
      <trkpt lat="44.39219" lon="3.89282">
        <ele>1455.6</ele>
        <time>2022-10-29T06:56:53Z</time>
      </trkpt>
      <trkpt lat="44.3922" lon="3.8928">
        <ele>1455.6</ele>
        <time>2022-10-29T06:56:54Z</time>
      </trkpt>
      <trkpt lat="44.3922" lon="3.89277">
        <ele>1455.8</ele>
        <time>2022-10-29T06:56:55Z</time>
      </trkpt>
      <trkpt lat="44.39221" lon="3.89274">
        <ele>1455.8</ele>
        <time>2022-10-29T06:56:56Z</time>
      </trkpt>
      <trkpt lat="44.39221" lon="3.89271">
        <ele>1455.8</ele>
        <time>2022-10-29T06:56:57Z</time>
      </trkpt>
      <trkpt lat="44.39221" lon="3.89268">
        <ele>1456</ele>
        <time>2022-10-29T06:56:58Z</time>
      </trkpt>
      <trkpt lat="44.39222" lon="3.89265">
        <ele>1456</ele>
        <time>2022-10-29T06:56:59Z</time>
      </trkpt>
      <trkpt lat="44.39222" lon="3.89261">
        <ele>1456</ele>
        <time>2022-10-29T06:57:00Z</time>
      </trkpt>
      <trkpt lat="44.39223" lon="3.89258">
        <ele>1456</ele>
        <time>2022-10-29T06:57:01Z</time>
      </trkpt>
      <trkpt lat="44.39223" lon="3.89255">
        <ele>1456.2</ele>
        <time>2022-10-29T06:57:02Z</time>
      </trkpt>
      <trkpt lat="44.39224" lon="3.89252">
        <ele>1456.2</ele>
        <time>2022-10-29T06:57:03Z</time>
      </trkpt>
      <trkpt lat="44.39224" lon="3.89249">
        <ele>1456.2</ele>
        <time>2022-10-29T06:57:04Z</time>
      </trkpt>
      <trkpt lat="44.39224" lon="3.89246">
        <ele>1456.2</ele>
        <time>2022-10-29T06:57:05Z</time>
      </trkpt>
      <trkpt lat="44.39225" lon="3.89243">
        <ele>1456.2</ele>
        <time>2022-10-29T06:57:06Z</time>
      </trkpt>
      <trkpt lat="44.39226" lon="3.89239">
        <ele>1456.4</ele>
        <time>2022-10-29T06:57:07Z</time>
      </trkpt>
      <trkpt lat="44.39226" lon="3.89237">
        <ele>1456.4</ele>
        <time>2022-10-29T06:57:08Z</time>
      </trkpt>
      <trkpt lat="44.39227" lon="3.89235">
        <ele>1456.4</ele>
        <time>2022-10-29T06:57:09Z</time>
      </trkpt>
      <trkpt lat="44.39227" lon="3.89234">
        <ele>1456.4</ele>
        <time>2022-10-29T06:57:10Z</time>
      </trkpt>
      <trkpt lat="44.39228" lon="3.89233">
        <ele>1456.4</ele>
        <time>2022-10-29T06:57:11Z</time>
      </trkpt>
      <trkpt lat="44.39228" lon="3.89232">
        <ele>1456.4</ele>
        <time>2022-10-29T06:58:00Z</time>
      </trkpt>
      <trkpt lat="44.39228" lon="3.89231">
        <ele>1456.2</ele>
        <time>2022-10-29T06:58:01Z</time>
      </trkpt>
      <trkpt lat="44.39228" lon="3.89228">
        <ele>1456.2</ele>
        <time>2022-10-29T06:58:02Z</time>
      </trkpt>
      <trkpt lat="44.39229" lon="3.89224">
        <ele>1456</ele>
        <time>2022-10-29T06:58:03Z</time>
      </trkpt>
      <trkpt lat="44.3923" lon="3.8922">
        <ele>1456</ele>
        <time>2022-10-29T06:58:04Z</time>
      </trkpt>
      <trkpt lat="44.3923" lon="3.89216">
        <ele>1456</ele>
        <time>2022-10-29T06:58:05Z</time>
      </trkpt>
      <trkpt lat="44.39231" lon="3.89213">
        <ele>1455.8</ele>
        <time>2022-10-29T06:58:06Z</time>
      </trkpt>
      <trkpt lat="44.39232" lon="3.89209">
        <ele>1455.8</ele>
        <time>2022-10-29T06:58:07Z</time>
      </trkpt>
      <trkpt lat="44.39233" lon="3.89204">
        <ele>1455.6</ele>
        <time>2022-10-29T06:58:08Z</time>
      </trkpt>
      <trkpt lat="44.39234" lon="3.892">
        <ele>1455.6</ele>
        <time>2022-10-29T06:58:09Z</time>
      </trkpt>
      <trkpt lat="44.39234" lon="3.89194">
        <ele>1455.4</ele>
        <time>2022-10-29T06:58:10Z</time>
      </trkpt>
      <trkpt lat="44.39236" lon="3.89189">
        <ele>1455.4</ele>
        <time>2022-10-29T06:58:11Z</time>
      </trkpt>
      <trkpt lat="44.39237" lon="3.89184">
        <ele>1455.2</ele>
        <time>2022-10-29T06:58:12Z</time>
      </trkpt>
      <trkpt lat="44.39238" lon="3.89179">
        <ele>1455.2</ele>
        <time>2022-10-29T06:58:13Z</time>
      </trkpt>
      <trkpt lat="44.39239" lon="3.89173">
        <ele>1455</ele>
        <time>2022-10-29T06:58:14Z</time>
      </trkpt>
      <trkpt lat="44.3924" lon="3.89168">
        <ele>1455</ele>
        <time>2022-10-29T06:58:15Z</time>
      </trkpt>
      <trkpt lat="44.39242" lon="3.89162">
        <ele>1455</ele>
        <time>2022-10-29T06:58:16Z</time>
      </trkpt>
      <trkpt lat="44.39243" lon="3.89156">
        <ele>1454.8</ele>
        <time>2022-10-29T06:58:17Z</time>
      </trkpt>
      <trkpt lat="44.39245" lon="3.8915">
        <ele>1454.6</ele>
        <time>2022-10-29T06:58:18Z</time>
      </trkpt>
      <trkpt lat="44.39246" lon="3.89144">
        <ele>1454.6</ele>
        <time>2022-10-29T06:58:19Z</time>
      </trkpt>
      <trkpt lat="44.39248" lon="3.89138">
        <ele>1454.6</ele>
        <time>2022-10-29T06:58:20Z</time>
      </trkpt>
      <trkpt lat="44.39249" lon="3.89131">
        <ele>1454.4</ele>
        <time>2022-10-29T06:58:21Z</time>
      </trkpt>
      <trkpt lat="44.3925" lon="3.89125">
        <ele>1454.4</ele>
        <time>2022-10-29T06:58:22Z</time>
      </trkpt>
      <trkpt lat="44.39251" lon="3.89119">
        <ele>1454.2</ele>
        <time>2022-10-29T06:58:23Z</time>
      </trkpt>
      <trkpt lat="44.39251" lon="3.89113">
        <ele>1454.2</ele>
        <time>2022-10-29T06:58:24Z</time>
      </trkpt>
      <trkpt lat="44.39252" lon="3.89107">
        <ele>1454.2</ele>
        <time>2022-10-29T06:58:25Z</time>
      </trkpt>
      <trkpt lat="44.39253" lon="3.89101">
        <ele>1454.2</ele>
        <time>2022-10-29T06:58:26Z</time>
      </trkpt>
      <trkpt lat="44.39253" lon="3.89096">
        <ele>1454</ele>
        <time>2022-10-29T06:58:27Z</time>
      </trkpt>
      <trkpt lat="44.39254" lon="3.89093">
        <ele>1454</ele>
        <time>2022-10-29T06:58:28Z</time>
      </trkpt>
      <trkpt lat="44.39253" lon="3.89091">
        <ele>1453.8</ele>
        <time>2022-10-29T06:58:29Z</time>
      </trkpt>
      <trkpt lat="44.39252" lon="3.8909">
        <ele>1453.8</ele>
        <time>2022-10-29T06:58:30Z</time>
      </trkpt>
      <trkpt lat="44.39251" lon="3.89089">
        <ele>1453.4</ele>
        <time>2022-10-29T06:58:31Z</time>
      </trkpt>
      <trkpt lat="44.39249" lon="3.89087">
        <ele>1453</ele>
        <time>2022-10-29T06:58:32Z</time>
      </trkpt>
      <trkpt lat="44.39247" lon="3.89086">
        <ele>1452.8</ele>
        <time>2022-10-29T06:58:33Z</time>
      </trkpt>
      <trkpt lat="44.39244" lon="3.89085">
        <ele>1452.4</ele>
        <time>2022-10-29T06:58:34Z</time>
      </trkpt>
      <trkpt lat="44.39242" lon="3.89084">
        <ele>1452</ele>
        <time>2022-10-29T06:58:35Z</time>
      </trkpt>
      <trkpt lat="44.39239" lon="3.89082">
        <ele>1451.4</ele>
        <time>2022-10-29T06:58:36Z</time>
      </trkpt>
      <trkpt lat="44.39237" lon="3.8908">
        <ele>1451.2</ele>
        <time>2022-10-29T06:58:37Z</time>
      </trkpt>
      <trkpt lat="44.39234" lon="3.89077">
        <ele>1450.8</ele>
        <time>2022-10-29T06:58:38Z</time>
      </trkpt>
      <trkpt lat="44.39232" lon="3.89073">
        <ele>1450.4</ele>
        <time>2022-10-29T06:58:39Z</time>
      </trkpt>
      <trkpt lat="44.3923" lon="3.89069">
        <ele>1450</ele>
        <time>2022-10-29T06:58:40Z</time>
      </trkpt>
      <trkpt lat="44.39228" lon="3.89064">
        <ele>1449.6</ele>
        <time>2022-10-29T06:58:41Z</time>
      </trkpt>
      <trkpt lat="44.39226" lon="3.8906">
        <ele>1449</ele>
        <time>2022-10-29T06:58:42Z</time>
      </trkpt>
      <trkpt lat="44.39224" lon="3.89055">
        <ele>1448.6</ele>
        <time>2022-10-29T06:58:43Z</time>
      </trkpt>
      <trkpt lat="44.39223" lon="3.89051">
        <ele>1448</ele>
        <time>2022-10-29T06:58:44Z</time>
      </trkpt>
      <trkpt lat="44.39222" lon="3.89046">
        <ele>1447.6</ele>
        <time>2022-10-29T06:58:45Z</time>
      </trkpt>
      <trkpt lat="44.39221" lon="3.89041">
        <ele>1447.2</ele>
        <time>2022-10-29T06:58:46Z</time>
      </trkpt>
      <trkpt lat="44.39221" lon="3.89036">
        <ele>1446.8</ele>
        <time>2022-10-29T06:58:47Z</time>
      </trkpt>
      <trkpt lat="44.3922" lon="3.89031">
        <ele>1446.4</ele>
        <time>2022-10-29T06:58:48Z</time>
      </trkpt>
      <trkpt lat="44.39218" lon="3.89027">
        <ele>1446</ele>
        <time>2022-10-29T06:58:49Z</time>
      </trkpt>
      <trkpt lat="44.39217" lon="3.89023">
        <ele>1445.6</ele>
        <time>2022-10-29T06:58:50Z</time>
      </trkpt>
      <trkpt lat="44.39215" lon="3.89019">
        <ele>1445.2</ele>
        <time>2022-10-29T06:58:51Z</time>
      </trkpt>
      <trkpt lat="44.39213" lon="3.89015">
        <ele>1444.8</ele>
        <time>2022-10-29T06:58:52Z</time>
      </trkpt>
      <trkpt lat="44.39212" lon="3.89011">
        <ele>1444.4</ele>
        <time>2022-10-29T06:58:53Z</time>
      </trkpt>
      <trkpt lat="44.3921" lon="3.89006">
        <ele>1444</ele>
        <time>2022-10-29T06:58:54Z</time>
      </trkpt>
      <trkpt lat="44.3921" lon="3.89001">
        <ele>1443.6</ele>
        <time>2022-10-29T06:58:55Z</time>
      </trkpt>
      <trkpt lat="44.39208" lon="3.88997">
        <ele>1443.4</ele>
        <time>2022-10-29T06:58:56Z</time>
      </trkpt>
      <trkpt lat="44.39206" lon="3.88993">
        <ele>1443</ele>
        <time>2022-10-29T06:58:57Z</time>
      </trkpt>
      <trkpt lat="44.39204" lon="3.88988">
        <ele>1442.6</ele>
        <time>2022-10-29T06:58:58Z</time>
      </trkpt>
      <trkpt lat="44.39202" lon="3.88983">
        <ele>1442</ele>
        <time>2022-10-29T06:58:59Z</time>
      </trkpt>
      <trkpt lat="44.39199" lon="3.88977">
        <ele>1441.6</ele>
        <time>2022-10-29T06:59:00Z</time>
      </trkpt>
      <trkpt lat="44.39196" lon="3.88971">
        <ele>1441.2</ele>
        <time>2022-10-29T06:59:01Z</time>
      </trkpt>
      <trkpt lat="44.39194" lon="3.88966">
        <ele>1440.6</ele>
        <time>2022-10-29T06:59:02Z</time>
      </trkpt>
      <trkpt lat="44.39191" lon="3.88962">
        <ele>1440.2</ele>
        <time>2022-10-29T06:59:03Z</time>
      </trkpt>
      <trkpt lat="44.39188" lon="3.88959">
        <ele>1439.8</ele>
        <time>2022-10-29T06:59:04Z</time>
      </trkpt>
      <trkpt lat="44.39186" lon="3.88957">
        <ele>1439.6</ele>
        <time>2022-10-29T06:59:05Z</time>
      </trkpt>
      <trkpt lat="44.39182" lon="3.88956">
        <ele>1439.2</ele>
        <time>2022-10-29T06:59:06Z</time>
      </trkpt>
      <trkpt lat="44.3918" lon="3.88956">
        <ele>1439</ele>
        <time>2022-10-29T06:59:07Z</time>
      </trkpt>
      <trkpt lat="44.39177" lon="3.88956">
        <ele>1438.8</ele>
        <time>2022-10-29T06:59:08Z</time>
      </trkpt>
      <trkpt lat="44.39173" lon="3.88955">
        <ele>1438.6</ele>
        <time>2022-10-29T06:59:09Z</time>
      </trkpt>
      <trkpt lat="44.3917" lon="3.88955">
        <ele>1438.4</ele>
        <time>2022-10-29T06:59:10Z</time>
      </trkpt>
      <trkpt lat="44.39166" lon="3.88955">
        <ele>1438.4</ele>
        <time>2022-10-29T06:59:11Z</time>
      </trkpt>
      <trkpt lat="44.39162" lon="3.88956">
        <ele>1438.2</ele>
        <time>2022-10-29T06:59:12Z</time>
      </trkpt>
      <trkpt lat="44.39158" lon="3.88956">
        <ele>1438</ele>
        <time>2022-10-29T06:59:13Z</time>
      </trkpt>
      <trkpt lat="44.39154" lon="3.88955">
        <ele>1438</ele>
        <time>2022-10-29T06:59:14Z</time>
      </trkpt>
      <trkpt lat="44.39151" lon="3.88954">
        <ele>1437.8</ele>
        <time>2022-10-29T06:59:15Z</time>
      </trkpt>
      <trkpt lat="44.39147" lon="3.88953">
        <ele>1437.6</ele>
        <time>2022-10-29T06:59:16Z</time>
      </trkpt>
      <trkpt lat="44.39143" lon="3.88952">
        <ele>1437.6</ele>
        <time>2022-10-29T06:59:17Z</time>
      </trkpt>
      <trkpt lat="44.3914" lon="3.88951">
        <ele>1437.4</ele>
        <time>2022-10-29T06:59:18Z</time>
      </trkpt>
      <trkpt lat="44.39136" lon="3.88949">
        <ele>1437.2</ele>
        <time>2022-10-29T06:59:19Z</time>
      </trkpt>
      <trkpt lat="44.39133" lon="3.88948">
        <ele>1437</ele>
        <time>2022-10-29T06:59:20Z</time>
      </trkpt>
      <trkpt lat="44.3913" lon="3.88945">
        <ele>1437</ele>
        <time>2022-10-29T06:59:21Z</time>
      </trkpt>
      <trkpt lat="44.39128" lon="3.88943">
        <ele>1436.8</ele>
        <time>2022-10-29T06:59:22Z</time>
      </trkpt>
      <trkpt lat="44.39126" lon="3.88941">
        <ele>1436.6</ele>
        <time>2022-10-29T06:59:23Z</time>
      </trkpt>
      <trkpt lat="44.39124" lon="3.88937">
        <ele>1436.4</ele>
        <time>2022-10-29T06:59:24Z</time>
      </trkpt>
      <trkpt lat="44.39122" lon="3.88935">
        <ele>1436.2</ele>
        <time>2022-10-29T06:59:49Z</time>
      </trkpt>
      <trkpt lat="44.39121" lon="3.88933">
        <ele>1436.2</ele>
        <time>2022-10-29T06:59:50Z</time>
      </trkpt>
      <trkpt lat="44.39118" lon="3.88928">
        <ele>1436.2</ele>
        <time>2022-10-29T06:59:51Z</time>
      </trkpt>
      <trkpt lat="44.39115" lon="3.88924">
        <ele>1436.2</ele>
        <time>2022-10-29T06:59:52Z</time>
      </trkpt>
      <trkpt lat="44.39112" lon="3.8892">
        <ele>1436</ele>
        <time>2022-10-29T06:59:53Z</time>
      </trkpt>
      <trkpt lat="44.3911" lon="3.88917">
        <ele>1436</ele>
        <time>2022-10-29T06:59:54Z</time>
      </trkpt>
      <trkpt lat="44.39108" lon="3.88914">
        <ele>1436</ele>
        <time>2022-10-29T06:59:55Z</time>
      </trkpt>
      <trkpt lat="44.39105" lon="3.8891">
        <ele>1436</ele>
        <time>2022-10-29T06:59:56Z</time>
      </trkpt>
      <trkpt lat="44.39103" lon="3.88907">
        <ele>1436</ele>
        <time>2022-10-29T06:59:57Z</time>
      </trkpt>
      <trkpt lat="44.391" lon="3.88904">
        <ele>1436</ele>
        <time>2022-10-29T06:59:58Z</time>
      </trkpt>
      <trkpt lat="44.39097" lon="3.889">
        <ele>1435.8</ele>
        <time>2022-10-29T06:59:59Z</time>
      </trkpt>
      <trkpt lat="44.39095" lon="3.88897">
        <ele>1435.8</ele>
        <time>2022-10-29T07:00:00Z</time>
      </trkpt>
      <trkpt lat="44.39091" lon="3.88894">
        <ele>1435.8</ele>
        <time>2022-10-29T07:00:01Z</time>
      </trkpt>
      <trkpt lat="44.39088" lon="3.88891">
        <ele>1435.8</ele>
        <time>2022-10-29T07:00:02Z</time>
      </trkpt>
      <trkpt lat="44.39085" lon="3.88888">
        <ele>1435.8</ele>
        <time>2022-10-29T07:00:03Z</time>
      </trkpt>
      <trkpt lat="44.39082" lon="3.88885">
        <ele>1435.8</ele>
        <time>2022-10-29T07:00:04Z</time>
      </trkpt>
      <trkpt lat="44.39079" lon="3.88881">
        <ele>1436</ele>
        <time>2022-10-29T07:00:05Z</time>
      </trkpt>
      <trkpt lat="44.39076" lon="3.88878">
        <ele>1436</ele>
        <time>2022-10-29T07:00:06Z</time>
      </trkpt>
      <trkpt lat="44.39073" lon="3.88874">
        <ele>1436</ele>
        <time>2022-10-29T07:00:07Z</time>
      </trkpt>
      <trkpt lat="44.39071" lon="3.8887">
        <ele>1436.2</ele>
        <time>2022-10-29T07:00:08Z</time>
      </trkpt>
      <trkpt lat="44.39068" lon="3.88866">
        <ele>1436.2</ele>
        <time>2022-10-29T07:00:09Z</time>
      </trkpt>
      <trkpt lat="44.39066" lon="3.88862">
        <ele>1436.2</ele>
        <time>2022-10-29T07:00:10Z</time>
      </trkpt>
      <trkpt lat="44.39064" lon="3.88858">
        <ele>1436</ele>
        <time>2022-10-29T07:00:11Z</time>
      </trkpt>
      <trkpt lat="44.39062" lon="3.88854">
        <ele>1435.8</ele>
        <time>2022-10-29T07:00:12Z</time>
      </trkpt>
      <trkpt lat="44.3906" lon="3.88849">
        <ele>1435.8</ele>
        <time>2022-10-29T07:00:13Z</time>
      </trkpt>
      <trkpt lat="44.39058" lon="3.88844">
        <ele>1435.6</ele>
        <time>2022-10-29T07:00:14Z</time>
      </trkpt>
      <trkpt lat="44.39056" lon="3.88839">
        <ele>1435.4</ele>
        <time>2022-10-29T07:00:15Z</time>
      </trkpt>
      <trkpt lat="44.39054" lon="3.88834">
        <ele>1435.2</ele>
        <time>2022-10-29T07:00:16Z</time>
      </trkpt>
      <trkpt lat="44.39053" lon="3.88828">
        <ele>1434.8</ele>
        <time>2022-10-29T07:00:17Z</time>
      </trkpt>
      <trkpt lat="44.39052" lon="3.88824">
        <ele>1434.6</ele>
        <time>2022-10-29T07:00:18Z</time>
      </trkpt>
      <trkpt lat="44.39051" lon="3.88819">
        <ele>1434.2</ele>
        <time>2022-10-29T07:00:19Z</time>
      </trkpt>
      <trkpt lat="44.39049" lon="3.88814">
        <ele>1434</ele>
        <time>2022-10-29T07:00:20Z</time>
      </trkpt>
      <trkpt lat="44.39047" lon="3.88809">
        <ele>1433.6</ele>
        <time>2022-10-29T07:00:21Z</time>
      </trkpt>
      <trkpt lat="44.39045" lon="3.88802">
        <ele>1433.4</ele>
        <time>2022-10-29T07:00:22Z</time>
      </trkpt>
      <trkpt lat="44.39044" lon="3.88796">
        <ele>1433</ele>
        <time>2022-10-29T07:00:23Z</time>
      </trkpt>
      <trkpt lat="44.39043" lon="3.88789">
        <ele>1432.8</ele>
        <time>2022-10-29T07:00:24Z</time>
      </trkpt>
      <trkpt lat="44.39043" lon="3.88783">
        <ele>1432.6</ele>
        <time>2022-10-29T07:00:25Z</time>
      </trkpt>
      <trkpt lat="44.39043" lon="3.88778">
        <ele>1432.4</ele>
        <time>2022-10-29T07:00:26Z</time>
      </trkpt>
      <trkpt lat="44.39043" lon="3.88772">
        <ele>1432</ele>
        <time>2022-10-29T07:00:27Z</time>
      </trkpt>
      <trkpt lat="44.39043" lon="3.88767">
        <ele>1431.8</ele>
        <time>2022-10-29T07:00:28Z</time>
      </trkpt>
      <trkpt lat="44.39043" lon="3.88762">
        <ele>1431.4</ele>
        <time>2022-10-29T07:00:29Z</time>
      </trkpt>
      <trkpt lat="44.39043" lon="3.88758">
        <ele>1431.2</ele>
        <time>2022-10-29T07:00:30Z</time>
      </trkpt>
      <trkpt lat="44.39041" lon="3.88753">
        <ele>1430.8</ele>
        <time>2022-10-29T07:00:31Z</time>
      </trkpt>
      <trkpt lat="44.39038" lon="3.88749">
        <ele>1430.4</ele>
        <time>2022-10-29T07:00:32Z</time>
      </trkpt>
      <trkpt lat="44.39036" lon="3.88746">
        <ele>1430.2</ele>
        <time>2022-10-29T07:00:33Z</time>
      </trkpt>
      <trkpt lat="44.39033" lon="3.88742">
        <ele>1429.6</ele>
        <time>2022-10-29T07:00:34Z</time>
      </trkpt>
      <trkpt lat="44.39031" lon="3.88739">
        <ele>1429.2</ele>
        <time>2022-10-29T07:00:35Z</time>
      </trkpt>
      <trkpt lat="44.39029" lon="3.88735">
        <ele>1428.8</ele>
        <time>2022-10-29T07:00:36Z</time>
      </trkpt>
      <trkpt lat="44.39027" lon="3.8873">
        <ele>1428.4</ele>
        <time>2022-10-29T07:00:37Z</time>
      </trkpt>
      <trkpt lat="44.39026" lon="3.88725">
        <ele>1428</ele>
        <time>2022-10-29T07:00:38Z</time>
      </trkpt>
      <trkpt lat="44.39025" lon="3.88721">
        <ele>1427.6</ele>
        <time>2022-10-29T07:00:39Z</time>
      </trkpt>
      <trkpt lat="44.39024" lon="3.88715">
        <ele>1427.4</ele>
        <time>2022-10-29T07:00:40Z</time>
      </trkpt>
      <trkpt lat="44.39022" lon="3.8871">
        <ele>1427</ele>
        <time>2022-10-29T07:00:41Z</time>
      </trkpt>
      <trkpt lat="44.3902" lon="3.88706">
        <ele>1426.8</ele>
        <time>2022-10-29T07:00:42Z</time>
      </trkpt>
      <trkpt lat="44.39018" lon="3.887">
        <ele>1426.6</ele>
        <time>2022-10-29T07:00:43Z</time>
      </trkpt>
      <trkpt lat="44.39016" lon="3.88695">
        <ele>1426.4</ele>
        <time>2022-10-29T07:00:44Z</time>
      </trkpt>
      <trkpt lat="44.39014" lon="3.8869">
        <ele>1426.2</ele>
        <time>2022-10-29T07:00:45Z</time>
      </trkpt>
      <trkpt lat="44.39012" lon="3.88685">
        <ele>1426</ele>
        <time>2022-10-29T07:00:46Z</time>
      </trkpt>
      <trkpt lat="44.39009" lon="3.8868">
        <ele>1425.8</ele>
        <time>2022-10-29T07:00:47Z</time>
      </trkpt>
      <trkpt lat="44.39007" lon="3.88675">
        <ele>1425.6</ele>
        <time>2022-10-29T07:00:48Z</time>
      </trkpt>
      <trkpt lat="44.39004" lon="3.8867">
        <ele>1425.2</ele>
        <time>2022-10-29T07:00:49Z</time>
      </trkpt>
      <trkpt lat="44.39002" lon="3.88666">
        <ele>1425</ele>
        <time>2022-10-29T07:00:50Z</time>
      </trkpt>
      <trkpt lat="44.38999" lon="3.88661">
        <ele>1424.4</ele>
        <time>2022-10-29T07:00:51Z</time>
      </trkpt>
      <trkpt lat="44.38996" lon="3.88656">
        <ele>1424</ele>
        <time>2022-10-29T07:00:52Z</time>
      </trkpt>
      <trkpt lat="44.38992" lon="3.88652">
        <ele>1423.6</ele>
        <time>2022-10-29T07:00:53Z</time>
      </trkpt>
      <trkpt lat="44.38988" lon="3.88648">
        <ele>1423</ele>
        <time>2022-10-29T07:00:54Z</time>
      </trkpt>
      <trkpt lat="44.38984" lon="3.88644">
        <ele>1422.6</ele>
        <time>2022-10-29T07:00:55Z</time>
      </trkpt>
      <trkpt lat="44.3898" lon="3.8864">
        <ele>1422.2</ele>
        <time>2022-10-29T07:00:56Z</time>
      </trkpt>
      <trkpt lat="44.38976" lon="3.88636">
        <ele>1421.8</ele>
        <time>2022-10-29T07:00:57Z</time>
      </trkpt>
      <trkpt lat="44.38973" lon="3.88632">
        <ele>1421.4</ele>
        <time>2022-10-29T07:00:58Z</time>
      </trkpt>
      <trkpt lat="44.3897" lon="3.88627">
        <ele>1421.2</ele>
        <time>2022-10-29T07:00:59Z</time>
      </trkpt>
      <trkpt lat="44.38968" lon="3.88623">
        <ele>1420.8</ele>
        <time>2022-10-29T07:01:00Z</time>
      </trkpt>
      <trkpt lat="44.38966" lon="3.88618">
        <ele>1420.6</ele>
        <time>2022-10-29T07:01:01Z</time>
      </trkpt>
      <trkpt lat="44.38962" lon="3.88613">
        <ele>1420.2</ele>
        <time>2022-10-29T07:01:02Z</time>
      </trkpt>
      <trkpt lat="44.38959" lon="3.88607">
        <ele>1419.8</ele>
        <time>2022-10-29T07:01:03Z</time>
      </trkpt>
      <trkpt lat="44.38957" lon="3.88603">
        <ele>1419.4</ele>
        <time>2022-10-29T07:01:04Z</time>
      </trkpt>
      <trkpt lat="44.38955" lon="3.886">
        <ele>1418.8</ele>
        <time>2022-10-29T07:01:05Z</time>
      </trkpt>
      <trkpt lat="44.38954" lon="3.88598">
        <ele>1418.4</ele>
        <time>2022-10-29T07:01:06Z</time>
      </trkpt>
      <trkpt lat="44.38952" lon="3.88596">
        <ele>1417.8</ele>
        <time>2022-10-29T07:01:07Z</time>
      </trkpt>
      <trkpt lat="44.3895" lon="3.88594">
        <ele>1417.4</ele>
        <time>2022-10-29T07:01:08Z</time>
      </trkpt>
      <trkpt lat="44.3895" lon="3.88593">
        <ele>1417</ele>
        <time>2022-10-29T07:01:09Z</time>
      </trkpt>
      <trkpt lat="44.38949" lon="3.88592">
        <ele>1416.6</ele>
        <time>2022-10-29T07:01:10Z</time>
      </trkpt>
      <trkpt lat="44.38948" lon="3.88591">
        <ele>1415.4</ele>
        <time>2022-10-29T07:01:29Z</time>
      </trkpt>
      <trkpt lat="44.38947" lon="3.88589">
        <ele>1415.4</ele>
        <time>2022-10-29T07:01:30Z</time>
      </trkpt>
      <trkpt lat="44.38945" lon="3.88586">
        <ele>1415.2</ele>
        <time>2022-10-29T07:01:31Z</time>
      </trkpt>
      <trkpt lat="44.38942" lon="3.88582">
        <ele>1415</ele>
        <time>2022-10-29T07:01:32Z</time>
      </trkpt>
      <trkpt lat="44.3894" lon="3.88578">
        <ele>1415</ele>
        <time>2022-10-29T07:01:33Z</time>
      </trkpt>
      <trkpt lat="44.38939" lon="3.88575">
        <ele>1414.8</ele>
        <time>2022-10-29T07:01:34Z</time>
      </trkpt>
      <trkpt lat="44.38937" lon="3.88572">
        <ele>1414.4</ele>
        <time>2022-10-29T07:01:35Z</time>
      </trkpt>
      <trkpt lat="44.38936" lon="3.88569">
        <ele>1414.2</ele>
        <time>2022-10-29T07:01:36Z</time>
      </trkpt>
      <trkpt lat="44.38935" lon="3.88566">
        <ele>1414</ele>
        <time>2022-10-29T07:01:37Z</time>
      </trkpt>
      <trkpt lat="44.38934" lon="3.88564">
        <ele>1413.8</ele>
        <time>2022-10-29T07:01:38Z</time>
      </trkpt>
      <trkpt lat="44.38933" lon="3.88562">
        <ele>1413.4</ele>
        <time>2022-10-29T07:01:39Z</time>
      </trkpt>
      <trkpt lat="44.38932" lon="3.88561">
        <ele>1413.2</ele>
        <time>2022-10-29T07:01:40Z</time>
      </trkpt>
      <trkpt lat="44.38932" lon="3.88558">
        <ele>1413.2</ele>
        <time>2022-10-29T07:01:41Z</time>
      </trkpt>
      <trkpt lat="44.3893" lon="3.88556">
        <ele>1413</ele>
        <time>2022-10-29T07:01:42Z</time>
      </trkpt>
      <trkpt lat="44.38929" lon="3.88552">
        <ele>1412.8</ele>
        <time>2022-10-29T07:01:43Z</time>
      </trkpt>
      <trkpt lat="44.38928" lon="3.88548">
        <ele>1412.6</ele>
        <time>2022-10-29T07:01:44Z</time>
      </trkpt>
      <trkpt lat="44.38928" lon="3.88544">
        <ele>1412.6</ele>
        <time>2022-10-29T07:01:45Z</time>
      </trkpt>
      <trkpt lat="44.38926" lon="3.8854">
        <ele>1412.4</ele>
        <time>2022-10-29T07:01:46Z</time>
      </trkpt>
      <trkpt lat="44.38926" lon="3.88537">
        <ele>1412.4</ele>
        <time>2022-10-29T07:01:47Z</time>
      </trkpt>
      <trkpt lat="44.38925" lon="3.88535">
        <ele>1412.2</ele>
        <time>2022-10-29T07:01:48Z</time>
      </trkpt>
      <trkpt lat="44.38924" lon="3.88532">
        <ele>1412.2</ele>
        <time>2022-10-29T07:01:49Z</time>
      </trkpt>
      <trkpt lat="44.38925" lon="3.88529">
        <ele>1412</ele>
        <time>2022-10-29T07:01:50Z</time>
      </trkpt>
      <trkpt lat="44.38925" lon="3.88526">
        <ele>1412</ele>
        <time>2022-10-29T07:01:51Z</time>
      </trkpt>
      <trkpt lat="44.38925" lon="3.88521">
        <ele>1411.8</ele>
        <time>2022-10-29T07:01:52Z</time>
      </trkpt>
      <trkpt lat="44.38925" lon="3.88518">
        <ele>1411.8</ele>
        <time>2022-10-29T07:01:53Z</time>
      </trkpt>
      <trkpt lat="44.38925" lon="3.88514">
        <ele>1411.6</ele>
        <time>2022-10-29T07:01:54Z</time>
      </trkpt>
      <trkpt lat="44.38925" lon="3.88511">
        <ele>1411.4</ele>
        <time>2022-10-29T07:01:55Z</time>
      </trkpt>
      <trkpt lat="44.38925" lon="3.88508">
        <ele>1411.2</ele>
        <time>2022-10-29T07:01:56Z</time>
      </trkpt>
      <trkpt lat="44.38925" lon="3.88505">
        <ele>1410.8</ele>
        <time>2022-10-29T07:01:57Z</time>
      </trkpt>
      <trkpt lat="44.38926" lon="3.88502">
        <ele>1410.6</ele>
        <time>2022-10-29T07:01:58Z</time>
      </trkpt>
      <trkpt lat="44.38926" lon="3.88498">
        <ele>1410.4</ele>
        <time>2022-10-29T07:01:59Z</time>
      </trkpt>
      <trkpt lat="44.38926" lon="3.88495">
        <ele>1410.2</ele>
        <time>2022-10-29T07:02:00Z</time>
      </trkpt>
      <trkpt lat="44.38926" lon="3.88493">
        <ele>1409.8</ele>
        <time>2022-10-29T07:02:01Z</time>
      </trkpt>
      <trkpt lat="44.38926" lon="3.88492">
        <ele>1409.6</ele>
        <time>2022-10-29T07:02:02Z</time>
      </trkpt>
      <trkpt lat="44.38926" lon="3.8849">
        <ele>1409.4</ele>
        <time>2022-10-29T07:02:03Z</time>
      </trkpt>
      <trkpt lat="44.38926" lon="3.88488">
        <ele>1409.2</ele>
        <time>2022-10-29T07:02:04Z</time>
      </trkpt>
      <trkpt lat="44.38926" lon="3.88485">
        <ele>1409</ele>
        <time>2022-10-29T07:02:05Z</time>
      </trkpt>
      <trkpt lat="44.38926" lon="3.88482">
        <ele>1408.6</ele>
        <time>2022-10-29T07:02:06Z</time>
      </trkpt>
      <trkpt lat="44.38926" lon="3.88479">
        <ele>1408.4</ele>
        <time>2022-10-29T07:02:07Z</time>
      </trkpt>
      <trkpt lat="44.38926" lon="3.88477">
        <ele>1408</ele>
        <time>2022-10-29T07:02:08Z</time>
      </trkpt>
      <trkpt lat="44.38926" lon="3.88474">
        <ele>1407.8</ele>
        <time>2022-10-29T07:02:09Z</time>
      </trkpt>
      <trkpt lat="44.38925" lon="3.88472">
        <ele>1407.6</ele>
        <time>2022-10-29T07:02:10Z</time>
      </trkpt>
      <trkpt lat="44.38924" lon="3.8847">
        <ele>1407.4</ele>
        <time>2022-10-29T07:02:11Z</time>
      </trkpt>
      <trkpt lat="44.38924" lon="3.88466">
        <ele>1407</ele>
        <time>2022-10-29T07:02:12Z</time>
      </trkpt>
      <trkpt lat="44.38924" lon="3.88462">
        <ele>1406.8</ele>
        <time>2022-10-29T07:02:13Z</time>
      </trkpt>
      <trkpt lat="44.38924" lon="3.88459">
        <ele>1406.6</ele>
        <time>2022-10-29T07:02:14Z</time>
      </trkpt>
      <trkpt lat="44.38923" lon="3.88456">
        <ele>1406.2</ele>
        <time>2022-10-29T07:02:15Z</time>
      </trkpt>
      <trkpt lat="44.38922" lon="3.88453">
        <ele>1406</ele>
        <time>2022-10-29T07:02:16Z</time>
      </trkpt>
      <trkpt lat="44.38921" lon="3.88451">
        <ele>1405.6</ele>
        <time>2022-10-29T07:02:17Z</time>
      </trkpt>
      <trkpt lat="44.38919" lon="3.88448">
        <ele>1405.4</ele>
        <time>2022-10-29T07:02:18Z</time>
      </trkpt>
      <trkpt lat="44.38917" lon="3.88446">
        <ele>1405</ele>
        <time>2022-10-29T07:02:19Z</time>
      </trkpt>
      <trkpt lat="44.38916" lon="3.88443">
        <ele>1404.6</ele>
        <time>2022-10-29T07:02:20Z</time>
      </trkpt>
      <trkpt lat="44.38916" lon="3.8844">
        <ele>1404.2</ele>
        <time>2022-10-29T07:02:21Z</time>
      </trkpt>
      <trkpt lat="44.38916" lon="3.88438">
        <ele>1403.8</ele>
        <time>2022-10-29T07:02:22Z</time>
      </trkpt>
      <trkpt lat="44.38916" lon="3.88436">
        <ele>1403.4</ele>
        <time>2022-10-29T07:02:23Z</time>
      </trkpt>
      <trkpt lat="44.38915" lon="3.88433">
        <ele>1403.2</ele>
        <time>2022-10-29T07:02:24Z</time>
      </trkpt>
      <trkpt lat="44.38914" lon="3.88431">
        <ele>1402.8</ele>
        <time>2022-10-29T07:02:25Z</time>
      </trkpt>
      <trkpt lat="44.38914" lon="3.88428">
        <ele>1402.6</ele>
        <time>2022-10-29T07:02:26Z</time>
      </trkpt>
      <trkpt lat="44.38914" lon="3.88426">
        <ele>1402.2</ele>
        <time>2022-10-29T07:02:27Z</time>
      </trkpt>
      <trkpt lat="44.38914" lon="3.88423">
        <ele>1402</ele>
        <time>2022-10-29T07:02:28Z</time>
      </trkpt>
      <trkpt lat="44.38914" lon="3.88421">
        <ele>1401.8</ele>
        <time>2022-10-29T07:02:29Z</time>
      </trkpt>
      <trkpt lat="44.38915" lon="3.88418">
        <ele>1401.4</ele>
        <time>2022-10-29T07:02:30Z</time>
      </trkpt>
      <trkpt lat="44.38916" lon="3.88415">
        <ele>1401.2</ele>
        <time>2022-10-29T07:02:31Z</time>
      </trkpt>
      <trkpt lat="44.38917" lon="3.88412">
        <ele>1401</ele>
        <time>2022-10-29T07:02:32Z</time>
      </trkpt>
      <trkpt lat="44.38917" lon="3.88408">
        <ele>1400.8</ele>
        <time>2022-10-29T07:02:33Z</time>
      </trkpt>
      <trkpt lat="44.38917" lon="3.88405">
        <ele>1400.4</ele>
        <time>2022-10-29T07:02:34Z</time>
      </trkpt>
      <trkpt lat="44.38917" lon="3.88402">
        <ele>1400</ele>
        <time>2022-10-29T07:02:35Z</time>
      </trkpt>
      <trkpt lat="44.38917" lon="3.884">
        <ele>1399.8</ele>
        <time>2022-10-29T07:02:36Z</time>
      </trkpt>
      <trkpt lat="44.38918" lon="3.88398">
        <ele>1399.4</ele>
        <time>2022-10-29T07:02:37Z</time>
      </trkpt>
      <trkpt lat="44.38918" lon="3.88396">
        <ele>1399.2</ele>
        <time>2022-10-29T07:02:38Z</time>
      </trkpt>
      <trkpt lat="44.38919" lon="3.88393">
        <ele>1398.8</ele>
        <time>2022-10-29T07:02:39Z</time>
      </trkpt>
      <trkpt lat="44.38919" lon="3.88391">
        <ele>1398.6</ele>
        <time>2022-10-29T07:02:40Z</time>
      </trkpt>
      <trkpt lat="44.38919" lon="3.88389">
        <ele>1398.4</ele>
        <time>2022-10-29T07:02:41Z</time>
      </trkpt>
      <trkpt lat="44.38918" lon="3.88387">
        <ele>1398.2</ele>
        <time>2022-10-29T07:02:42Z</time>
      </trkpt>
      <trkpt lat="44.38918" lon="3.88386">
        <ele>1398</ele>
        <time>2022-10-29T07:02:43Z</time>
      </trkpt>
      <trkpt lat="44.38912" lon="3.88373">
        <ele>1397.6</ele>
        <time>2022-10-29T07:03:21Z</time>
      </trkpt>
      <trkpt lat="44.38911" lon="3.88372">
        <ele>1397.6</ele>
        <time>2022-10-29T07:03:22Z</time>
      </trkpt>
      <trkpt lat="44.3891" lon="3.88372">
        <ele>1397.6</ele>
        <time>2022-10-29T07:03:23Z</time>
      </trkpt>
      <trkpt lat="44.38909" lon="3.88371">
        <ele>1397.6</ele>
        <time>2022-10-29T07:03:24Z</time>
      </trkpt>
      <trkpt lat="44.38909" lon="3.88371">
        <ele>1397.6</ele>
        <time>2022-10-29T07:03:25Z</time>
      </trkpt>
      <trkpt lat="44.38908" lon="3.8837">
        <ele>1397.6</ele>
        <time>2022-10-29T07:03:26Z</time>
      </trkpt>
      <trkpt lat="44.38907" lon="3.8837">
        <ele>1397.6</ele>
        <time>2022-10-29T07:03:27Z</time>
      </trkpt>
      <trkpt lat="44.38906" lon="3.88369">
        <ele>1397.8</ele>
        <time>2022-10-29T07:03:28Z</time>
      </trkpt>
      <trkpt lat="44.38906" lon="3.88369">
        <ele>1397.8</ele>
        <time>2022-10-29T07:03:29Z</time>
      </trkpt>
      <trkpt lat="44.38906" lon="3.88369">
        <ele>1397.8</ele>
        <time>2022-10-29T07:03:30Z</time>
      </trkpt>
      <trkpt lat="44.38905" lon="3.88369">
        <ele>1397.8</ele>
        <time>2022-10-29T07:03:31Z</time>
      </trkpt>
      <trkpt lat="44.38904" lon="3.88368">
        <ele>1397.8</ele>
        <time>2022-10-29T07:03:32Z</time>
      </trkpt>
      <trkpt lat="44.38904" lon="3.88367">
        <ele>1397.8</ele>
        <time>2022-10-29T07:03:33Z</time>
      </trkpt>
      <trkpt lat="44.38903" lon="3.88367">
        <ele>1397.8</ele>
        <time>2022-10-29T07:03:34Z</time>
      </trkpt>
      <trkpt lat="44.38902" lon="3.88366">
        <ele>1397.8</ele>
        <time>2022-10-29T07:03:35Z</time>
      </trkpt>
      <trkpt lat="44.38901" lon="3.88365">
        <ele>1397.8</ele>
        <time>2022-10-29T07:03:36Z</time>
      </trkpt>
      <trkpt lat="44.38899" lon="3.88365">
        <ele>1397.8</ele>
        <time>2022-10-29T07:03:37Z</time>
      </trkpt>
      <trkpt lat="44.38897" lon="3.88364">
        <ele>1397.8</ele>
        <time>2022-10-29T07:03:38Z</time>
      </trkpt>
      <trkpt lat="44.38896" lon="3.88363">
        <ele>1397.8</ele>
        <time>2022-10-29T07:03:39Z</time>
      </trkpt>
      <trkpt lat="44.38894" lon="3.88362">
        <ele>1397.6</ele>
        <time>2022-10-29T07:03:40Z</time>
      </trkpt>
      <trkpt lat="44.38893" lon="3.8836">
        <ele>1397.6</ele>
        <time>2022-10-29T07:03:41Z</time>
      </trkpt>
      <trkpt lat="44.38891" lon="3.88358">
        <ele>1397.6</ele>
        <time>2022-10-29T07:03:42Z</time>
      </trkpt>
      <trkpt lat="44.38888" lon="3.88354">
        <ele>1397.4</ele>
        <time>2022-10-29T07:03:43Z</time>
      </trkpt>
      <trkpt lat="44.38885" lon="3.8835">
        <ele>1397.4</ele>
        <time>2022-10-29T07:03:44Z</time>
      </trkpt>
      <trkpt lat="44.38883" lon="3.88346">
        <ele>1397.2</ele>
        <time>2022-10-29T07:03:45Z</time>
      </trkpt>
      <trkpt lat="44.38881" lon="3.88342">
        <ele>1397.2</ele>
        <time>2022-10-29T07:03:46Z</time>
      </trkpt>
      <trkpt lat="44.38879" lon="3.8834">
        <ele>1397</ele>
        <time>2022-10-29T07:03:47Z</time>
      </trkpt>
      <trkpt lat="44.38877" lon="3.88338">
        <ele>1397</ele>
        <time>2022-10-29T07:03:48Z</time>
      </trkpt>
      <trkpt lat="44.38874" lon="3.88335">
        <ele>1396.8</ele>
        <time>2022-10-29T07:03:49Z</time>
      </trkpt>
      <trkpt lat="44.38872" lon="3.88332">
        <ele>1396.8</ele>
        <time>2022-10-29T07:03:50Z</time>
      </trkpt>
      <trkpt lat="44.38871" lon="3.8833">
        <ele>1396.6</ele>
        <time>2022-10-29T07:03:51Z</time>
      </trkpt>
      <trkpt lat="44.3887" lon="3.88326">
        <ele>1396.6</ele>
        <time>2022-10-29T07:03:52Z</time>
      </trkpt>
      <trkpt lat="44.38869" lon="3.88324">
        <ele>1396.6</ele>
        <time>2022-10-29T07:03:53Z</time>
      </trkpt>
      <trkpt lat="44.38868" lon="3.88321">
        <ele>1396.6</ele>
        <time>2022-10-29T07:03:54Z</time>
      </trkpt>
      <trkpt lat="44.38868" lon="3.88318">
        <ele>1396.6</ele>
        <time>2022-10-29T07:03:55Z</time>
      </trkpt>
      <trkpt lat="44.38868" lon="3.88316">
        <ele>1396.4</ele>
        <time>2022-10-29T07:03:56Z</time>
      </trkpt>
      <trkpt lat="44.38868" lon="3.88314">
        <ele>1396.4</ele>
        <time>2022-10-29T07:03:57Z</time>
      </trkpt>
      <trkpt lat="44.38869" lon="3.88312">
        <ele>1396.4</ele>
        <time>2022-10-29T07:03:58Z</time>
      </trkpt>
      <trkpt lat="44.38868" lon="3.8831">
        <ele>1396.4</ele>
        <time>2022-10-29T07:03:59Z</time>
      </trkpt>
      <trkpt lat="44.38868" lon="3.88308">
        <ele>1396.2</ele>
        <time>2022-10-29T07:04:00Z</time>
      </trkpt>
      <trkpt lat="44.38867" lon="3.88306">
        <ele>1396.2</ele>
        <time>2022-10-29T07:04:01Z</time>
      </trkpt>
      <trkpt lat="44.38866" lon="3.88304">
        <ele>1396.2</ele>
        <time>2022-10-29T07:04:02Z</time>
      </trkpt>
      <trkpt lat="44.38866" lon="3.88304">
        <ele>1396</ele>
        <time>2022-10-29T07:04:03Z</time>
      </trkpt>
      <trkpt lat="44.38866" lon="3.88303">
        <ele>1396</ele>
        <time>2022-10-29T07:04:04Z</time>
      </trkpt>
      <trkpt lat="44.38866" lon="3.88303">
        <ele>1396</ele>
        <time>2022-10-29T07:04:05Z</time>
      </trkpt>
      <trkpt lat="44.38866" lon="3.88303">
        <ele>1396</ele>
        <time>2022-10-29T07:04:06Z</time>
      </trkpt>
      <trkpt lat="44.38866" lon="3.88302">
        <ele>1396</ele>
        <time>2022-10-29T07:04:07Z</time>
      </trkpt>
      <trkpt lat="44.38865" lon="3.88301">
        <ele>1396</ele>
        <time>2022-10-29T07:04:08Z</time>
      </trkpt>
      <trkpt lat="44.38865" lon="3.883">
        <ele>1396</ele>
        <time>2022-10-29T07:04:09Z</time>
      </trkpt>
      <trkpt lat="44.38865" lon="3.88299">
        <ele>1396</ele>
        <time>2022-10-29T07:04:10Z</time>
      </trkpt>
      <trkpt lat="44.38865" lon="3.88299">
        <ele>1396</ele>
        <time>2022-10-29T07:04:11Z</time>
      </trkpt>
      <trkpt lat="44.38865" lon="3.88298">
        <ele>1396.2</ele>
        <time>2022-10-29T07:04:12Z</time>
      </trkpt>
      <trkpt lat="44.38864" lon="3.88298">
        <ele>1396.2</ele>
        <time>2022-10-29T07:04:13Z</time>
      </trkpt>
      <trkpt lat="44.38864" lon="3.88297">
        <ele>1396.4</ele>
        <time>2022-10-29T07:04:14Z</time>
      </trkpt>
      <trkpt lat="44.38864" lon="3.88296">
        <ele>1396.4</ele>
        <time>2022-10-29T07:04:15Z</time>
      </trkpt>
      <trkpt lat="44.38865" lon="3.88289">
        <ele>1397</ele>
        <time>2022-10-29T07:04:23Z</time>
      </trkpt>
      <trkpt lat="44.38865" lon="3.88288">
        <ele>1397</ele>
        <time>2022-10-29T07:04:24Z</time>
      </trkpt>
      <trkpt lat="44.38865" lon="3.88287">
        <ele>1397</ele>
        <time>2022-10-29T07:04:25Z</time>
      </trkpt>
      <trkpt lat="44.38865" lon="3.88286">
        <ele>1397.2</ele>
        <time>2022-10-29T07:04:26Z</time>
      </trkpt>
      <trkpt lat="44.38866" lon="3.88285">
        <ele>1397.2</ele>
        <time>2022-10-29T07:04:27Z</time>
      </trkpt>
      <trkpt lat="44.38866" lon="3.88285">
        <ele>1397.2</ele>
        <time>2022-10-29T07:04:28Z</time>
      </trkpt>
      <trkpt lat="44.38867" lon="3.88284">
        <ele>1397.4</ele>
        <time>2022-10-29T07:04:29Z</time>
      </trkpt>
      <trkpt lat="44.38867" lon="3.88284">
        <ele>1397.4</ele>
        <time>2022-10-29T07:04:30Z</time>
      </trkpt>
      <trkpt lat="44.38868" lon="3.88282">
        <ele>1397.6</ele>
        <time>2022-10-29T07:04:31Z</time>
      </trkpt>
      <trkpt lat="44.38868" lon="3.88282">
        <ele>1397.6</ele>
        <time>2022-10-29T07:04:32Z</time>
      </trkpt>
      <trkpt lat="44.38869" lon="3.88281">
        <ele>1397.8</ele>
        <time>2022-10-29T07:04:33Z</time>
      </trkpt>
      <trkpt lat="44.3887" lon="3.8828">
        <ele>1397.8</ele>
        <time>2022-10-29T07:04:34Z</time>
      </trkpt>
      <trkpt lat="44.38871" lon="3.88279">
        <ele>1398</ele>
        <time>2022-10-29T07:04:35Z</time>
      </trkpt>
      <trkpt lat="44.38871" lon="3.88279">
        <ele>1398</ele>
        <time>2022-10-29T07:04:36Z</time>
      </trkpt>
      <trkpt lat="44.38872" lon="3.88278">
        <ele>1398.2</ele>
        <time>2022-10-29T07:04:37Z</time>
      </trkpt>
      <trkpt lat="44.38872" lon="3.88277">
        <ele>1398.4</ele>
        <time>2022-10-29T07:04:38Z</time>
      </trkpt>
      <trkpt lat="44.38873" lon="3.88276">
        <ele>1398.4</ele>
        <time>2022-10-29T07:04:39Z</time>
      </trkpt>
      <trkpt lat="44.38874" lon="3.88275">
        <ele>1398.6</ele>
        <time>2022-10-29T07:04:40Z</time>
      </trkpt>
      <trkpt lat="44.38874" lon="3.88274">
        <ele>1398.8</ele>
        <time>2022-10-29T07:04:41Z</time>
      </trkpt>
      <trkpt lat="44.38875" lon="3.88273">
        <ele>1398.8</ele>
        <time>2022-10-29T07:04:42Z</time>
      </trkpt>
      <trkpt lat="44.38875" lon="3.88273">
        <ele>1399</ele>
        <time>2022-10-29T07:04:43Z</time>
      </trkpt>
      <trkpt lat="44.38876" lon="3.88272">
        <ele>1399.2</ele>
        <time>2022-10-29T07:04:44Z</time>
      </trkpt>
      <trkpt lat="44.38876" lon="3.88271">
        <ele>1399.2</ele>
        <time>2022-10-29T07:04:45Z</time>
      </trkpt>
      <trkpt lat="44.38877" lon="3.8827">
        <ele>1399.4</ele>
        <time>2022-10-29T07:04:46Z</time>
      </trkpt>
      <trkpt lat="44.38877" lon="3.8827">
        <ele>1399.4</ele>
        <time>2022-10-29T07:04:47Z</time>
      </trkpt>
      <trkpt lat="44.38877" lon="3.88269">
        <ele>1399.6</ele>
        <time>2022-10-29T07:04:48Z</time>
      </trkpt>
      <trkpt lat="44.38878" lon="3.88267">
        <ele>1399.6</ele>
        <time>2022-10-29T07:04:49Z</time>
      </trkpt>
      <trkpt lat="44.38878" lon="3.88267">
        <ele>1399.8</ele>
        <time>2022-10-29T07:04:50Z</time>
      </trkpt>
      <trkpt lat="44.38878" lon="3.88266">
        <ele>1399.8</ele>
        <time>2022-10-29T07:04:51Z</time>
      </trkpt>
      <trkpt lat="44.38877" lon="3.88264">
        <ele>1399.8</ele>
        <time>2022-10-29T07:04:52Z</time>
      </trkpt>
      <trkpt lat="44.38877" lon="3.88263">
        <ele>1399.8</ele>
        <time>2022-10-29T07:04:53Z</time>
      </trkpt>
      <trkpt lat="44.38877" lon="3.88262">
        <ele>1399.8</ele>
        <time>2022-10-29T07:04:54Z</time>
      </trkpt>
      <trkpt lat="44.38877" lon="3.88261">
        <ele>1400</ele>
        <time>2022-10-29T07:04:55Z</time>
      </trkpt>
      <trkpt lat="44.38876" lon="3.8826">
        <ele>1400</ele>
        <time>2022-10-29T07:04:56Z</time>
      </trkpt>
      <trkpt lat="44.38876" lon="3.88259">
        <ele>1400</ele>
        <time>2022-10-29T07:04:57Z</time>
      </trkpt>
      <trkpt lat="44.38876" lon="3.88258">
        <ele>1399.8</ele>
        <time>2022-10-29T07:04:58Z</time>
      </trkpt>
      <trkpt lat="44.38876" lon="3.88256">
        <ele>1399.8</ele>
        <time>2022-10-29T07:04:59Z</time>
      </trkpt>
      <trkpt lat="44.38876" lon="3.88256">
        <ele>1399.8</ele>
        <time>2022-10-29T07:05:00Z</time>
      </trkpt>
      <trkpt lat="44.38876" lon="3.88255">
        <ele>1399.8</ele>
        <time>2022-10-29T07:05:01Z</time>
      </trkpt>
      <trkpt lat="44.38875" lon="3.88255">
        <ele>1399.8</ele>
        <time>2022-10-29T07:05:02Z</time>
      </trkpt>
      <trkpt lat="44.38876" lon="3.88254">
        <ele>1399.8</ele>
        <time>2022-10-29T07:05:03Z</time>
      </trkpt>
      <trkpt lat="44.38876" lon="3.88254">
        <ele>1399.6</ele>
        <time>2022-10-29T07:05:04Z</time>
      </trkpt>
      <trkpt lat="44.38876" lon="3.88254">
        <ele>1399.6</ele>
        <time>2022-10-29T07:05:05Z</time>
      </trkpt>
      <trkpt lat="44.38862" lon="3.88254">
        <ele>1399.6</ele>
        <time>2022-10-29T07:05:59Z</time>
      </trkpt>
      <trkpt lat="44.38861" lon="3.88254">
        <ele>1399.6</ele>
        <time>2022-10-29T07:06:00Z</time>
      </trkpt>
      <trkpt lat="44.38859" lon="3.88255">
        <ele>1399.4</ele>
        <time>2022-10-29T07:06:01Z</time>
      </trkpt>
      <trkpt lat="44.38857" lon="3.88256">
        <ele>1399.4</ele>
        <time>2022-10-29T07:06:02Z</time>
      </trkpt>
      <trkpt lat="44.38855" lon="3.88256">
        <ele>1399.2</ele>
        <time>2022-10-29T07:06:03Z</time>
      </trkpt>
      <trkpt lat="44.38854" lon="3.88256">
        <ele>1399</ele>
        <time>2022-10-29T07:06:04Z</time>
      </trkpt>
      <trkpt lat="44.38853" lon="3.88257">
        <ele>1399</ele>
        <time>2022-10-29T07:06:05Z</time>
      </trkpt>
      <trkpt lat="44.38852" lon="3.88257">
        <ele>1398.8</ele>
        <time>2022-10-29T07:06:06Z</time>
      </trkpt>
      <trkpt lat="44.3885" lon="3.88258">
        <ele>1398.6</ele>
        <time>2022-10-29T07:06:07Z</time>
      </trkpt>
      <trkpt lat="44.38849" lon="3.88259">
        <ele>1398.4</ele>
        <time>2022-10-29T07:06:08Z</time>
      </trkpt>
      <trkpt lat="44.38848" lon="3.88261">
        <ele>1398.2</ele>
        <time>2022-10-29T07:06:09Z</time>
      </trkpt>
      <trkpt lat="44.38847" lon="3.88262">
        <ele>1398</ele>
        <time>2022-10-29T07:06:10Z</time>
      </trkpt>
      <trkpt lat="44.38845" lon="3.88263">
        <ele>1397.8</ele>
        <time>2022-10-29T07:06:11Z</time>
      </trkpt>
      <trkpt lat="44.38844" lon="3.88264">
        <ele>1397.6</ele>
        <time>2022-10-29T07:06:12Z</time>
      </trkpt>
      <trkpt lat="44.38842" lon="3.88266">
        <ele>1397.4</ele>
        <time>2022-10-29T07:06:13Z</time>
      </trkpt>
      <trkpt lat="44.38841" lon="3.88267">
        <ele>1397.2</ele>
        <time>2022-10-29T07:06:14Z</time>
      </trkpt>
      <trkpt lat="44.38838" lon="3.88267">
        <ele>1397</ele>
        <time>2022-10-29T07:06:15Z</time>
      </trkpt>
      <trkpt lat="44.38831" lon="3.88266">
        <ele>1396.8</ele>
        <time>2022-10-29T07:06:16Z</time>
      </trkpt>
      <trkpt lat="44.38827" lon="3.88268">
        <ele>1396.4</ele>
        <time>2022-10-29T07:06:17Z</time>
      </trkpt>
      <trkpt lat="44.38825" lon="3.8827">
        <ele>1396.2</ele>
        <time>2022-10-29T07:06:18Z</time>
      </trkpt>
      <trkpt lat="44.38822" lon="3.88272">
        <ele>1396</ele>
        <time>2022-10-29T07:06:19Z</time>
      </trkpt>
      <trkpt lat="44.3882" lon="3.88273">
        <ele>1395.8</ele>
        <time>2022-10-29T07:06:20Z</time>
      </trkpt>
      <trkpt lat="44.38818" lon="3.88275">
        <ele>1395.6</ele>
        <time>2022-10-29T07:06:21Z</time>
      </trkpt>
      <trkpt lat="44.38816" lon="3.88276">
        <ele>1395.6</ele>
        <time>2022-10-29T07:06:22Z</time>
      </trkpt>
      <trkpt lat="44.38814" lon="3.88277">
        <ele>1395.4</ele>
        <time>2022-10-29T07:06:23Z</time>
      </trkpt>
      <trkpt lat="44.38813" lon="3.88279">
        <ele>1395.2</ele>
        <time>2022-10-29T07:06:24Z</time>
      </trkpt>
      <trkpt lat="44.38811" lon="3.88281">
        <ele>1395</ele>
        <time>2022-10-29T07:06:25Z</time>
      </trkpt>
      <trkpt lat="44.38809" lon="3.88284">
        <ele>1394.6</ele>
        <time>2022-10-29T07:06:26Z</time>
      </trkpt>
      <trkpt lat="44.38808" lon="3.88286">
        <ele>1394.4</ele>
        <time>2022-10-29T07:06:27Z</time>
      </trkpt>
      <trkpt lat="44.38807" lon="3.88289">
        <ele>1394</ele>
        <time>2022-10-29T07:06:28Z</time>
      </trkpt>
      <trkpt lat="44.38806" lon="3.88292">
        <ele>1393.8</ele>
        <time>2022-10-29T07:06:29Z</time>
      </trkpt>
      <trkpt lat="44.38804" lon="3.88294">
        <ele>1393.6</ele>
        <time>2022-10-29T07:06:30Z</time>
      </trkpt>
      <trkpt lat="44.38801" lon="3.88296">
        <ele>1393.4</ele>
        <time>2022-10-29T07:06:31Z</time>
      </trkpt>
      <trkpt lat="44.38799" lon="3.88298">
        <ele>1393.2</ele>
        <time>2022-10-29T07:06:32Z</time>
      </trkpt>
      <trkpt lat="44.38796" lon="3.88299">
        <ele>1393</ele>
        <time>2022-10-29T07:06:33Z</time>
      </trkpt>
      <trkpt lat="44.38793" lon="3.88301">
        <ele>1392.8</ele>
        <time>2022-10-29T07:06:34Z</time>
      </trkpt>
      <trkpt lat="44.38791" lon="3.88302">
        <ele>1392.6</ele>
        <time>2022-10-29T07:06:35Z</time>
      </trkpt>
      <trkpt lat="44.38788" lon="3.88303">
        <ele>1392.6</ele>
        <time>2022-10-29T07:06:36Z</time>
      </trkpt>
      <trkpt lat="44.38786" lon="3.88304">
        <ele>1392.4</ele>
        <time>2022-10-29T07:06:37Z</time>
      </trkpt>
      <trkpt lat="44.38783" lon="3.88305">
        <ele>1392.4</ele>
        <time>2022-10-29T07:06:38Z</time>
      </trkpt>
      <trkpt lat="44.38781" lon="3.88306">
        <ele>1392.2</ele>
        <time>2022-10-29T07:06:39Z</time>
      </trkpt>
      <trkpt lat="44.38779" lon="3.88307">
        <ele>1392</ele>
        <time>2022-10-29T07:06:40Z</time>
      </trkpt>
      <trkpt lat="44.38777" lon="3.88309">
        <ele>1392</ele>
        <time>2022-10-29T07:06:41Z</time>
      </trkpt>
      <trkpt lat="44.38775" lon="3.88311">
        <ele>1391.8</ele>
        <time>2022-10-29T07:06:42Z</time>
      </trkpt>
      <trkpt lat="44.38773" lon="3.88312">
        <ele>1391.8</ele>
        <time>2022-10-29T07:06:43Z</time>
      </trkpt>
      <trkpt lat="44.38771" lon="3.88314">
        <ele>1391.6</ele>
        <time>2022-10-29T07:06:44Z</time>
      </trkpt>
      <trkpt lat="44.38769" lon="3.88316">
        <ele>1391.6</ele>
        <time>2022-10-29T07:06:45Z</time>
      </trkpt>
      <trkpt lat="44.38768" lon="3.88319">
        <ele>1391.4</ele>
        <time>2022-10-29T07:06:46Z</time>
      </trkpt>
      <trkpt lat="44.38766" lon="3.88322">
        <ele>1391.2</ele>
        <time>2022-10-29T07:06:47Z</time>
      </trkpt>
      <trkpt lat="44.38764" lon="3.88325">
        <ele>1391</ele>
        <time>2022-10-29T07:06:48Z</time>
      </trkpt>
      <trkpt lat="44.38763" lon="3.88328">
        <ele>1391</ele>
        <time>2022-10-29T07:06:49Z</time>
      </trkpt>
      <trkpt lat="44.38761" lon="3.8833">
        <ele>1390.8</ele>
        <time>2022-10-29T07:06:50Z</time>
      </trkpt>
      <trkpt lat="44.3876" lon="3.88332">
        <ele>1390.6</ele>
        <time>2022-10-29T07:06:51Z</time>
      </trkpt>
      <trkpt lat="44.38759" lon="3.88334">
        <ele>1390.6</ele>
        <time>2022-10-29T07:06:52Z</time>
      </trkpt>
      <trkpt lat="44.38758" lon="3.88336">
        <ele>1390.4</ele>
        <time>2022-10-29T07:06:53Z</time>
      </trkpt>
      <trkpt lat="44.38757" lon="3.88339">
        <ele>1390.2</ele>
        <time>2022-10-29T07:06:54Z</time>
      </trkpt>
      <trkpt lat="44.38756" lon="3.88341">
        <ele>1390</ele>
        <time>2022-10-29T07:06:55Z</time>
      </trkpt>
      <trkpt lat="44.38755" lon="3.88344">
        <ele>1389.8</ele>
        <time>2022-10-29T07:06:56Z</time>
      </trkpt>
      <trkpt lat="44.38755" lon="3.88347">
        <ele>1389.8</ele>
        <time>2022-10-29T07:06:57Z</time>
      </trkpt>
      <trkpt lat="44.38755" lon="3.88349">
        <ele>1389.6</ele>
        <time>2022-10-29T07:06:58Z</time>
      </trkpt>
      <trkpt lat="44.38754" lon="3.88351">
        <ele>1389.4</ele>
        <time>2022-10-29T07:06:59Z</time>
      </trkpt>
      <trkpt lat="44.38753" lon="3.88353">
        <ele>1389.4</ele>
        <time>2022-10-29T07:07:00Z</time>
      </trkpt>
      <trkpt lat="44.38753" lon="3.88354">
        <ele>1389.2</ele>
        <time>2022-10-29T07:07:01Z</time>
      </trkpt>
      <trkpt lat="44.38751" lon="3.88356">
        <ele>1389</ele>
        <time>2022-10-29T07:07:02Z</time>
      </trkpt>
      <trkpt lat="44.3875" lon="3.88359">
        <ele>1388.8</ele>
        <time>2022-10-29T07:07:03Z</time>
      </trkpt>
      <trkpt lat="44.38749" lon="3.88361">
        <ele>1388.6</ele>
        <time>2022-10-29T07:07:04Z</time>
      </trkpt>
      <trkpt lat="44.38748" lon="3.88364">
        <ele>1388.4</ele>
        <time>2022-10-29T07:07:05Z</time>
      </trkpt>
      <trkpt lat="44.38747" lon="3.88367">
        <ele>1388.2</ele>
        <time>2022-10-29T07:07:06Z</time>
      </trkpt>
      <trkpt lat="44.38747" lon="3.8837">
        <ele>1388</ele>
        <time>2022-10-29T07:07:07Z</time>
      </trkpt>
      <trkpt lat="44.38747" lon="3.88373">
        <ele>1388</ele>
        <time>2022-10-29T07:07:08Z</time>
      </trkpt>
      <trkpt lat="44.38746" lon="3.88376">
        <ele>1387.8</ele>
        <time>2022-10-29T07:07:09Z</time>
      </trkpt>
      <trkpt lat="44.38745" lon="3.88379">
        <ele>1387.8</ele>
        <time>2022-10-29T07:07:10Z</time>
      </trkpt>
      <trkpt lat="44.38745" lon="3.88381">
        <ele>1387.6</ele>
        <time>2022-10-29T07:07:11Z</time>
      </trkpt>
      <trkpt lat="44.38744" lon="3.88383">
        <ele>1387.4</ele>
        <time>2022-10-29T07:07:12Z</time>
      </trkpt>
      <trkpt lat="44.38743" lon="3.88385">
        <ele>1387.4</ele>
        <time>2022-10-29T07:07:13Z</time>
      </trkpt>
      <trkpt lat="44.38743" lon="3.88385">
        <ele>1387.4</ele>
        <time>2022-10-29T07:07:14Z</time>
      </trkpt>
      <trkpt lat="44.38734" lon="3.88391">
        <ele>1386.8</ele>
        <time>2022-10-29T07:11:10Z</time>
      </trkpt>
      <trkpt lat="44.38733" lon="3.88392">
        <ele>1386.8</ele>
        <time>2022-10-29T07:11:11Z</time>
      </trkpt>
      <trkpt lat="44.38732" lon="3.88393">
        <ele>1386.8</ele>
        <time>2022-10-29T07:11:12Z</time>
      </trkpt>
      <trkpt lat="44.3873" lon="3.88394">
        <ele>1386.8</ele>
        <time>2022-10-29T07:11:13Z</time>
      </trkpt>
      <trkpt lat="44.38729" lon="3.88395">
        <ele>1386.6</ele>
        <time>2022-10-29T07:11:14Z</time>
      </trkpt>
      <trkpt lat="44.38728" lon="3.88397">
        <ele>1386.6</ele>
        <time>2022-10-29T07:11:15Z</time>
      </trkpt>
      <trkpt lat="44.38725" lon="3.88399">
        <ele>1386.4</ele>
        <time>2022-10-29T07:11:16Z</time>
      </trkpt>
      <trkpt lat="44.38723" lon="3.88401">
        <ele>1386.4</ele>
        <time>2022-10-29T07:11:17Z</time>
      </trkpt>
      <trkpt lat="44.38722" lon="3.88404">
        <ele>1386.2</ele>
        <time>2022-10-29T07:11:18Z</time>
      </trkpt>
      <trkpt lat="44.38721" lon="3.88407">
        <ele>1386.2</ele>
        <time>2022-10-29T07:11:19Z</time>
      </trkpt>
      <trkpt lat="44.3872" lon="3.8841">
        <ele>1386</ele>
        <time>2022-10-29T07:11:20Z</time>
      </trkpt>
      <trkpt lat="44.38719" lon="3.88413">
        <ele>1386</ele>
        <time>2022-10-29T07:11:21Z</time>
      </trkpt>
      <trkpt lat="44.38718" lon="3.88417">
        <ele>1385.8</ele>
        <time>2022-10-29T07:11:22Z</time>
      </trkpt>
      <trkpt lat="44.38717" lon="3.8842">
        <ele>1385.8</ele>
        <time>2022-10-29T07:11:23Z</time>
      </trkpt>
      <trkpt lat="44.38716" lon="3.88423">
        <ele>1385.6</ele>
        <time>2022-10-29T07:11:24Z</time>
      </trkpt>
      <trkpt lat="44.38715" lon="3.88426">
        <ele>1385.6</ele>
        <time>2022-10-29T07:11:25Z</time>
      </trkpt>
      <trkpt lat="44.38713" lon="3.88429">
        <ele>1385.4</ele>
        <time>2022-10-29T07:11:26Z</time>
      </trkpt>
      <trkpt lat="44.38711" lon="3.88432">
        <ele>1385.2</ele>
        <time>2022-10-29T07:11:27Z</time>
      </trkpt>
      <trkpt lat="44.3871" lon="3.88435">
        <ele>1385.2</ele>
        <time>2022-10-29T07:11:28Z</time>
      </trkpt>
      <trkpt lat="44.38709" lon="3.88437">
        <ele>1385</ele>
        <time>2022-10-29T07:11:29Z</time>
      </trkpt>
      <trkpt lat="44.38708" lon="3.88439">
        <ele>1384.8</ele>
        <time>2022-10-29T07:11:30Z</time>
      </trkpt>
      <trkpt lat="44.38708" lon="3.88441">
        <ele>1384.8</ele>
        <time>2022-10-29T07:11:31Z</time>
      </trkpt>
      <trkpt lat="44.38708" lon="3.88441">
        <ele>1384.6</ele>
        <time>2022-10-29T07:11:32Z</time>
      </trkpt>
      <trkpt lat="44.38708" lon="3.88441">
        <ele>1384.6</ele>
        <time>2022-10-29T07:11:33Z</time>
      </trkpt>
      <trkpt lat="44.38708" lon="3.88441">
        <ele>1384.6</ele>
        <time>2022-10-29T07:11:34Z</time>
      </trkpt>
      <trkpt lat="44.38708" lon="3.88441">
        <ele>1384.4</ele>
        <time>2022-10-29T07:11:35Z</time>
      </trkpt>
      <trkpt lat="44.38707" lon="3.88442">
        <ele>1384.4</ele>
        <time>2022-10-29T07:11:36Z</time>
      </trkpt>
      <trkpt lat="44.38707" lon="3.88443">
        <ele>1384.4</ele>
        <time>2022-10-29T07:11:37Z</time>
      </trkpt>
      <trkpt lat="44.38706" lon="3.88444">
        <ele>1384.2</ele>
        <time>2022-10-29T07:11:38Z</time>
      </trkpt>
      <trkpt lat="44.38706" lon="3.88446">
        <ele>1384.2</ele>
        <time>2022-10-29T07:11:39Z</time>
      </trkpt>
      <trkpt lat="44.38705" lon="3.88447">
        <ele>1384.2</ele>
        <time>2022-10-29T07:11:40Z</time>
      </trkpt>
      <trkpt lat="44.38703" lon="3.88448">
        <ele>1384.2</ele>
        <time>2022-10-29T07:11:41Z</time>
      </trkpt>
      <trkpt lat="44.38702" lon="3.8845">
        <ele>1384</ele>
        <time>2022-10-29T07:11:42Z</time>
      </trkpt>
      <trkpt lat="44.387" lon="3.88451">
        <ele>1384</ele>
        <time>2022-10-29T07:11:43Z</time>
      </trkpt>
      <trkpt lat="44.38698" lon="3.88454">
        <ele>1384</ele>
        <time>2022-10-29T07:11:44Z</time>
      </trkpt>
      <trkpt lat="44.38696" lon="3.88456">
        <ele>1383.8</ele>
        <time>2022-10-29T07:11:45Z</time>
      </trkpt>
      <trkpt lat="44.38694" lon="3.88458">
        <ele>1383.8</ele>
        <time>2022-10-29T07:11:46Z</time>
      </trkpt>
      <trkpt lat="44.38692" lon="3.8846">
        <ele>1383.8</ele>
        <time>2022-10-29T07:11:47Z</time>
      </trkpt>
      <trkpt lat="44.3869" lon="3.88462">
        <ele>1383.6</ele>
        <time>2022-10-29T07:11:48Z</time>
      </trkpt>
      <trkpt lat="44.38688" lon="3.88465">
        <ele>1383.6</ele>
        <time>2022-10-29T07:11:49Z</time>
      </trkpt>
      <trkpt lat="44.38686" lon="3.88467">
        <ele>1383.4</ele>
        <time>2022-10-29T07:11:50Z</time>
      </trkpt>
      <trkpt lat="44.38684" lon="3.88469">
        <ele>1383.2</ele>
        <time>2022-10-29T07:11:51Z</time>
      </trkpt>
      <trkpt lat="44.3868" lon="3.8847">
        <ele>1383.2</ele>
        <time>2022-10-29T07:11:52Z</time>
      </trkpt>
      <trkpt lat="44.38678" lon="3.88469">
        <ele>1383.2</ele>
        <time>2022-10-29T07:11:53Z</time>
      </trkpt>
      <trkpt lat="44.38676" lon="3.88468">
        <ele>1383.2</ele>
        <time>2022-10-29T07:11:54Z</time>
      </trkpt>
      <trkpt lat="44.38674" lon="3.88466">
        <ele>1383.2</ele>
        <time>2022-10-29T07:11:55Z</time>
      </trkpt>
      <trkpt lat="44.38672" lon="3.88464">
        <ele>1383.4</ele>
        <time>2022-10-29T07:11:56Z</time>
      </trkpt>
      <trkpt lat="44.38669" lon="3.88463">
        <ele>1383.6</ele>
        <time>2022-10-29T07:11:57Z</time>
      </trkpt>
      <trkpt lat="44.38667" lon="3.88461">
        <ele>1383.6</ele>
        <time>2022-10-29T07:11:58Z</time>
      </trkpt>
      <trkpt lat="44.38665" lon="3.8846">
        <ele>1383.8</ele>
        <time>2022-10-29T07:11:59Z</time>
      </trkpt>
      <trkpt lat="44.38662" lon="3.88459">
        <ele>1384</ele>
        <time>2022-10-29T07:12:00Z</time>
      </trkpt>
      <trkpt lat="44.3866" lon="3.88459">
        <ele>1384.2</ele>
        <time>2022-10-29T07:12:01Z</time>
      </trkpt>
      <trkpt lat="44.38657" lon="3.88458">
        <ele>1384.4</ele>
        <time>2022-10-29T07:12:02Z</time>
      </trkpt>
      <trkpt lat="44.38655" lon="3.88458">
        <ele>1384.6</ele>
        <time>2022-10-29T07:12:03Z</time>
      </trkpt>
      <trkpt lat="44.38653" lon="3.88457">
        <ele>1384.8</ele>
        <time>2022-10-29T07:12:04Z</time>
      </trkpt>
      <trkpt lat="44.38651" lon="3.88456">
        <ele>1385</ele>
        <time>2022-10-29T07:12:05Z</time>
      </trkpt>
      <trkpt lat="44.38649" lon="3.88456">
        <ele>1385.2</ele>
        <time>2022-10-29T07:12:06Z</time>
      </trkpt>
      <trkpt lat="44.38647" lon="3.88456">
        <ele>1385.4</ele>
        <time>2022-10-29T07:12:07Z</time>
      </trkpt>
      <trkpt lat="44.38645" lon="3.88456">
        <ele>1385.6</ele>
        <time>2022-10-29T07:12:08Z</time>
      </trkpt>
      <trkpt lat="44.38642" lon="3.88456">
        <ele>1385.8</ele>
        <time>2022-10-29T07:12:09Z</time>
      </trkpt>
      <trkpt lat="44.3864" lon="3.88457">
        <ele>1386</ele>
        <time>2022-10-29T07:12:10Z</time>
      </trkpt>
      <trkpt lat="44.38638" lon="3.88458">
        <ele>1386.2</ele>
        <time>2022-10-29T07:12:11Z</time>
      </trkpt>
      <trkpt lat="44.38636" lon="3.88458">
        <ele>1386.4</ele>
        <time>2022-10-29T07:12:12Z</time>
      </trkpt>
      <trkpt lat="44.38634" lon="3.88458">
        <ele>1386.6</ele>
        <time>2022-10-29T07:12:13Z</time>
      </trkpt>
      <trkpt lat="44.38631" lon="3.88459">
        <ele>1386.8</ele>
        <time>2022-10-29T07:12:14Z</time>
      </trkpt>
      <trkpt lat="44.3863" lon="3.8846">
        <ele>1387</ele>
        <time>2022-10-29T07:12:15Z</time>
      </trkpt>
      <trkpt lat="44.38627" lon="3.8846">
        <ele>1387.2</ele>
        <time>2022-10-29T07:12:16Z</time>
      </trkpt>
      <trkpt lat="44.38625" lon="3.8846">
        <ele>1387.4</ele>
        <time>2022-10-29T07:12:17Z</time>
      </trkpt>
      <trkpt lat="44.38623" lon="3.88461">
        <ele>1387.6</ele>
        <time>2022-10-29T07:12:18Z</time>
      </trkpt>
      <trkpt lat="44.38621" lon="3.88461">
        <ele>1387.6</ele>
        <time>2022-10-29T07:12:19Z</time>
      </trkpt>
      <trkpt lat="44.38619" lon="3.88462">
        <ele>1387.8</ele>
        <time>2022-10-29T07:12:20Z</time>
      </trkpt>
      <trkpt lat="44.38617" lon="3.88463">
        <ele>1388</ele>
        <time>2022-10-29T07:12:21Z</time>
      </trkpt>
      <trkpt lat="44.38615" lon="3.88465">
        <ele>1388</ele>
        <time>2022-10-29T07:12:22Z</time>
      </trkpt>
      <trkpt lat="44.38612" lon="3.88466">
        <ele>1388.2</ele>
        <time>2022-10-29T07:12:23Z</time>
      </trkpt>
      <trkpt lat="44.3861" lon="3.88467">
        <ele>1388.4</ele>
        <time>2022-10-29T07:12:24Z</time>
      </trkpt>
      <trkpt lat="44.38608" lon="3.88467">
        <ele>1388.4</ele>
        <time>2022-10-29T07:12:25Z</time>
      </trkpt>
      <trkpt lat="44.38605" lon="3.88467">
        <ele>1388.6</ele>
        <time>2022-10-29T07:12:26Z</time>
      </trkpt>
      <trkpt lat="44.38603" lon="3.88468">
        <ele>1388.8</ele>
        <time>2022-10-29T07:12:27Z</time>
      </trkpt>
      <trkpt lat="44.38601" lon="3.88468">
        <ele>1388.8</ele>
        <time>2022-10-29T07:12:28Z</time>
      </trkpt>
      <trkpt lat="44.38598" lon="3.88468">
        <ele>1389</ele>
        <time>2022-10-29T07:12:29Z</time>
      </trkpt>
      <trkpt lat="44.38596" lon="3.88469">
        <ele>1389.2</ele>
        <time>2022-10-29T07:12:30Z</time>
      </trkpt>
      <trkpt lat="44.38594" lon="3.88469">
        <ele>1389.4</ele>
        <time>2022-10-29T07:12:31Z</time>
      </trkpt>
      <trkpt lat="44.38592" lon="3.8847">
        <ele>1389.6</ele>
        <time>2022-10-29T07:12:32Z</time>
      </trkpt>
      <trkpt lat="44.38589" lon="3.8847">
        <ele>1389.8</ele>
        <time>2022-10-29T07:12:33Z</time>
      </trkpt>
      <trkpt lat="44.38587" lon="3.8847">
        <ele>1390</ele>
        <time>2022-10-29T07:12:34Z</time>
      </trkpt>
      <trkpt lat="44.38585" lon="3.88469">
        <ele>1390</ele>
        <time>2022-10-29T07:12:35Z</time>
      </trkpt>
      <trkpt lat="44.38583" lon="3.8847">
        <ele>1390.2</ele>
        <time>2022-10-29T07:12:36Z</time>
      </trkpt>
      <trkpt lat="44.38581" lon="3.8847">
        <ele>1390.4</ele>
        <time>2022-10-29T07:12:37Z</time>
      </trkpt>
      <trkpt lat="44.38579" lon="3.88469">
        <ele>1390.6</ele>
        <time>2022-10-29T07:12:38Z</time>
      </trkpt>
      <trkpt lat="44.38576" lon="3.88469">
        <ele>1390.8</ele>
        <time>2022-10-29T07:12:39Z</time>
      </trkpt>
      <trkpt lat="44.38574" lon="3.88468">
        <ele>1391</ele>
        <time>2022-10-29T07:12:40Z</time>
      </trkpt>
      <trkpt lat="44.38572" lon="3.88468">
        <ele>1391.2</ele>
        <time>2022-10-29T07:12:41Z</time>
      </trkpt>
      <trkpt lat="44.38571" lon="3.88468">
        <ele>1391.2</ele>
        <time>2022-10-29T07:12:42Z</time>
      </trkpt>
      <trkpt lat="44.38568" lon="3.88467">
        <ele>1391.4</ele>
        <time>2022-10-29T07:12:43Z</time>
      </trkpt>
      <trkpt lat="44.38566" lon="3.88467">
        <ele>1391.6</ele>
        <time>2022-10-29T07:12:44Z</time>
      </trkpt>
      <trkpt lat="44.38564" lon="3.88466">
        <ele>1391.8</ele>
        <time>2022-10-29T07:12:45Z</time>
      </trkpt>
      <trkpt lat="44.38562" lon="3.88466">
        <ele>1391.8</ele>
        <time>2022-10-29T07:12:46Z</time>
      </trkpt>
      <trkpt lat="44.38559" lon="3.88465">
        <ele>1392</ele>
        <time>2022-10-29T07:12:47Z</time>
      </trkpt>
      <trkpt lat="44.38557" lon="3.88465">
        <ele>1392.2</ele>
        <time>2022-10-29T07:12:48Z</time>
      </trkpt>
      <trkpt lat="44.38554" lon="3.88465">
        <ele>1392.2</ele>
        <time>2022-10-29T07:12:49Z</time>
      </trkpt>
      <trkpt lat="44.38552" lon="3.88465">
        <ele>1392.4</ele>
        <time>2022-10-29T07:12:50Z</time>
      </trkpt>
      <trkpt lat="44.3855" lon="3.88465">
        <ele>1392.6</ele>
        <time>2022-10-29T07:12:51Z</time>
      </trkpt>
      <trkpt lat="44.38547" lon="3.88465">
        <ele>1392.6</ele>
        <time>2022-10-29T07:12:52Z</time>
      </trkpt>
      <trkpt lat="44.38545" lon="3.88464">
        <ele>1392.8</ele>
        <time>2022-10-29T07:12:53Z</time>
      </trkpt>
      <trkpt lat="44.38543" lon="3.88464">
        <ele>1393</ele>
        <time>2022-10-29T07:12:54Z</time>
      </trkpt>
      <trkpt lat="44.38541" lon="3.88464">
        <ele>1393</ele>
        <time>2022-10-29T07:12:55Z</time>
      </trkpt>
      <trkpt lat="44.38539" lon="3.88463">
        <ele>1393.2</ele>
        <time>2022-10-29T07:12:56Z</time>
      </trkpt>
      <trkpt lat="44.38537" lon="3.88462">
        <ele>1393.4</ele>
        <time>2022-10-29T07:12:57Z</time>
      </trkpt>
      <trkpt lat="44.38535" lon="3.88461">
        <ele>1393.4</ele>
        <time>2022-10-29T07:12:58Z</time>
      </trkpt>
      <trkpt lat="44.38533" lon="3.88461">
        <ele>1393.6</ele>
        <time>2022-10-29T07:12:59Z</time>
      </trkpt>
      <trkpt lat="44.38531" lon="3.8846">
        <ele>1393.8</ele>
        <time>2022-10-29T07:13:00Z</time>
      </trkpt>
      <trkpt lat="44.38529" lon="3.88459">
        <ele>1394</ele>
        <time>2022-10-29T07:13:01Z</time>
      </trkpt>
      <trkpt lat="44.38527" lon="3.88458">
        <ele>1394.2</ele>
        <time>2022-10-29T07:13:02Z</time>
      </trkpt>
      <trkpt lat="44.38525" lon="3.88457">
        <ele>1394.4</ele>
        <time>2022-10-29T07:13:03Z</time>
      </trkpt>
      <trkpt lat="44.38523" lon="3.88456">
        <ele>1394.6</ele>
        <time>2022-10-29T07:13:04Z</time>
      </trkpt>
      <trkpt lat="44.38521" lon="3.88455">
        <ele>1394.6</ele>
        <time>2022-10-29T07:13:05Z</time>
      </trkpt>
      <trkpt lat="44.38519" lon="3.88455">
        <ele>1394.8</ele>
        <time>2022-10-29T07:13:06Z</time>
      </trkpt>
      <trkpt lat="44.38517" lon="3.88454">
        <ele>1395</ele>
        <time>2022-10-29T07:13:07Z</time>
      </trkpt>
      <trkpt lat="44.38515" lon="3.88453">
        <ele>1395.2</ele>
        <time>2022-10-29T07:13:08Z</time>
      </trkpt>
      <trkpt lat="44.38513" lon="3.88452">
        <ele>1395.4</ele>
        <time>2022-10-29T07:13:09Z</time>
      </trkpt>
      <trkpt lat="44.38511" lon="3.88451">
        <ele>1395.4</ele>
        <time>2022-10-29T07:13:10Z</time>
      </trkpt>
      <trkpt lat="44.38509" lon="3.8845">
        <ele>1395.6</ele>
        <time>2022-10-29T07:13:11Z</time>
      </trkpt>
      <trkpt lat="44.38507" lon="3.88449">
        <ele>1395.8</ele>
        <time>2022-10-29T07:13:12Z</time>
      </trkpt>
      <trkpt lat="44.38505" lon="3.88448">
        <ele>1396</ele>
        <time>2022-10-29T07:13:13Z</time>
      </trkpt>
      <trkpt lat="44.38503" lon="3.88448">
        <ele>1396.2</ele>
        <time>2022-10-29T07:13:14Z</time>
      </trkpt>
      <trkpt lat="44.38501" lon="3.88446">
        <ele>1396.4</ele>
        <time>2022-10-29T07:13:15Z</time>
      </trkpt>
      <trkpt lat="44.385" lon="3.88445">
        <ele>1396.6</ele>
        <time>2022-10-29T07:13:16Z</time>
      </trkpt>
      <trkpt lat="44.38498" lon="3.88443">
        <ele>1396.8</ele>
        <time>2022-10-29T07:13:17Z</time>
      </trkpt>
      <trkpt lat="44.38497" lon="3.88441">
        <ele>1397</ele>
        <time>2022-10-29T07:13:18Z</time>
      </trkpt>
      <trkpt lat="44.38496" lon="3.88438">
        <ele>1397.2</ele>
        <time>2022-10-29T07:13:19Z</time>
      </trkpt>
      <trkpt lat="44.38496" lon="3.88436">
        <ele>1397.4</ele>
        <time>2022-10-29T07:13:20Z</time>
      </trkpt>
      <trkpt lat="44.38495" lon="3.88433">
        <ele>1397.6</ele>
        <time>2022-10-29T07:13:21Z</time>
      </trkpt>
      <trkpt lat="44.38495" lon="3.88431">
        <ele>1397.8</ele>
        <time>2022-10-29T07:13:22Z</time>
      </trkpt>
      <trkpt lat="44.38496" lon="3.88428">
        <ele>1397.8</ele>
        <time>2022-10-29T07:13:23Z</time>
      </trkpt>
      <trkpt lat="44.38496" lon="3.88426">
        <ele>1398</ele>
        <time>2022-10-29T07:13:24Z</time>
      </trkpt>
      <trkpt lat="44.38497" lon="3.88424">
        <ele>1398.2</ele>
        <time>2022-10-29T07:13:25Z</time>
      </trkpt>
      <trkpt lat="44.38497" lon="3.88422">
        <ele>1398.4</ele>
        <time>2022-10-29T07:13:26Z</time>
      </trkpt>
      <trkpt lat="44.38499" lon="3.8842">
        <ele>1398.6</ele>
        <time>2022-10-29T07:13:27Z</time>
      </trkpt>
      <trkpt lat="44.38499" lon="3.88418">
        <ele>1398.8</ele>
        <time>2022-10-29T07:13:28Z</time>
      </trkpt>
      <trkpt lat="44.385" lon="3.88415">
        <ele>1399</ele>
        <time>2022-10-29T07:13:29Z</time>
      </trkpt>
      <trkpt lat="44.38501" lon="3.88413">
        <ele>1399.2</ele>
        <time>2022-10-29T07:13:30Z</time>
      </trkpt>
      <trkpt lat="44.38501" lon="3.8841">
        <ele>1399.4</ele>
        <time>2022-10-29T07:13:31Z</time>
      </trkpt>
      <trkpt lat="44.38502" lon="3.88407">
        <ele>1399.4</ele>
        <time>2022-10-29T07:13:32Z</time>
      </trkpt>
      <trkpt lat="44.38502" lon="3.88404">
        <ele>1399.6</ele>
        <time>2022-10-29T07:13:33Z</time>
      </trkpt>
      <trkpt lat="44.38502" lon="3.88401">
        <ele>1399.6</ele>
        <time>2022-10-29T07:13:34Z</time>
      </trkpt>
      <trkpt lat="44.38502" lon="3.88398">
        <ele>1399.8</ele>
        <time>2022-10-29T07:13:35Z</time>
      </trkpt>
      <trkpt lat="44.38502" lon="3.88395">
        <ele>1400</ele>
        <time>2022-10-29T07:13:36Z</time>
      </trkpt>
      <trkpt lat="44.38502" lon="3.88393">
        <ele>1400</ele>
        <time>2022-10-29T07:13:37Z</time>
      </trkpt>
      <trkpt lat="44.38503" lon="3.8839">
        <ele>1400.2</ele>
        <time>2022-10-29T07:13:38Z</time>
      </trkpt>
      <trkpt lat="44.38503" lon="3.88387">
        <ele>1400.4</ele>
        <time>2022-10-29T07:13:39Z</time>
      </trkpt>
      <trkpt lat="44.38503" lon="3.88385">
        <ele>1400.6</ele>
        <time>2022-10-29T07:13:40Z</time>
      </trkpt>
      <trkpt lat="44.38504" lon="3.88383">
        <ele>1400.6</ele>
        <time>2022-10-29T07:13:41Z</time>
      </trkpt>
      <trkpt lat="44.38504" lon="3.8838">
        <ele>1400.8</ele>
        <time>2022-10-29T07:13:42Z</time>
      </trkpt>
      <trkpt lat="44.38504" lon="3.88378">
        <ele>1401</ele>
        <time>2022-10-29T07:13:43Z</time>
      </trkpt>
      <trkpt lat="44.38505" lon="3.88375">
        <ele>1401.2</ele>
        <time>2022-10-29T07:13:44Z</time>
      </trkpt>
      <trkpt lat="44.38505" lon="3.88373">
        <ele>1401.4</ele>
        <time>2022-10-29T07:13:45Z</time>
      </trkpt>
      <trkpt lat="44.38505" lon="3.8837">
        <ele>1401.6</ele>
        <time>2022-10-29T07:13:46Z</time>
      </trkpt>
      <trkpt lat="44.38506" lon="3.88367">
        <ele>1401.6</ele>
        <time>2022-10-29T07:13:47Z</time>
      </trkpt>
      <trkpt lat="44.38506" lon="3.88365">
        <ele>1401.8</ele>
        <time>2022-10-29T07:13:48Z</time>
      </trkpt>
      <trkpt lat="44.38506" lon="3.88362">
        <ele>1402</ele>
        <time>2022-10-29T07:13:49Z</time>
      </trkpt>
      <trkpt lat="44.38506" lon="3.8836">
        <ele>1402</ele>
        <time>2022-10-29T07:13:50Z</time>
      </trkpt>
      <trkpt lat="44.38506" lon="3.88358">
        <ele>1402.2</ele>
        <time>2022-10-29T07:13:51Z</time>
      </trkpt>
      <trkpt lat="44.38506" lon="3.88355">
        <ele>1402.4</ele>
        <time>2022-10-29T07:13:52Z</time>
      </trkpt>
      <trkpt lat="44.38506" lon="3.88353">
        <ele>1402.4</ele>
        <time>2022-10-29T07:13:53Z</time>
      </trkpt>
      <trkpt lat="44.38507" lon="3.8835">
        <ele>1402.6</ele>
        <time>2022-10-29T07:13:54Z</time>
      </trkpt>
      <trkpt lat="44.38506" lon="3.88347">
        <ele>1402.8</ele>
        <time>2022-10-29T07:13:55Z</time>
      </trkpt>
      <trkpt lat="44.38506" lon="3.88343">
        <ele>1402.8</ele>
        <time>2022-10-29T07:13:56Z</time>
      </trkpt>
      <trkpt lat="44.38507" lon="3.8834">
        <ele>1403</ele>
        <time>2022-10-29T07:13:57Z</time>
      </trkpt>
      <trkpt lat="44.38506" lon="3.88337">
        <ele>1403.2</ele>
        <time>2022-10-29T07:13:58Z</time>
      </trkpt>
      <trkpt lat="44.38506" lon="3.88333">
        <ele>1403.2</ele>
        <time>2022-10-29T07:13:59Z</time>
      </trkpt>
      <trkpt lat="44.38506" lon="3.88329">
        <ele>1403.4</ele>
        <time>2022-10-29T07:14:00Z</time>
      </trkpt>
      <trkpt lat="44.38507" lon="3.88326">
        <ele>1403.6</ele>
        <time>2022-10-29T07:14:01Z</time>
      </trkpt>
      <trkpt lat="44.38506" lon="3.88322">
        <ele>1403.6</ele>
        <time>2022-10-29T07:14:02Z</time>
      </trkpt>
      <trkpt lat="44.38506" lon="3.88319">
        <ele>1403.8</ele>
        <time>2022-10-29T07:14:03Z</time>
      </trkpt>
      <trkpt lat="44.38506" lon="3.88315">
        <ele>1403.8</ele>
        <time>2022-10-29T07:14:04Z</time>
      </trkpt>
      <trkpt lat="44.38506" lon="3.88312">
        <ele>1404</ele>
        <time>2022-10-29T07:14:05Z</time>
      </trkpt>
      <trkpt lat="44.38506" lon="3.88309">
        <ele>1404</ele>
        <time>2022-10-29T07:14:06Z</time>
      </trkpt>
      <trkpt lat="44.38506" lon="3.88306">
        <ele>1404.2</ele>
        <time>2022-10-29T07:14:07Z</time>
      </trkpt>
      <trkpt lat="44.38506" lon="3.88302">
        <ele>1404.2</ele>
        <time>2022-10-29T07:14:08Z</time>
      </trkpt>
      <trkpt lat="44.38505" lon="3.88298">
        <ele>1404.2</ele>
        <time>2022-10-29T07:14:09Z</time>
      </trkpt>
      <trkpt lat="44.38504" lon="3.88295">
        <ele>1404.4</ele>
        <time>2022-10-29T07:14:10Z</time>
      </trkpt>
      <trkpt lat="44.38504" lon="3.88291">
        <ele>1404.4</ele>
        <time>2022-10-29T07:14:11Z</time>
      </trkpt>
      <trkpt lat="44.38503" lon="3.88287">
        <ele>1404.6</ele>
        <time>2022-10-29T07:14:12Z</time>
      </trkpt>
      <trkpt lat="44.38503" lon="3.88283">
        <ele>1404.6</ele>
        <time>2022-10-29T07:14:13Z</time>
      </trkpt>
      <trkpt lat="44.38502" lon="3.8828">
        <ele>1404.6</ele>
        <time>2022-10-29T07:14:14Z</time>
      </trkpt>
      <trkpt lat="44.38502" lon="3.88276">
        <ele>1404.8</ele>
        <time>2022-10-29T07:14:15Z</time>
      </trkpt>
      <trkpt lat="44.38501" lon="3.88273">
        <ele>1404.8</ele>
        <time>2022-10-29T07:14:16Z</time>
      </trkpt>
      <trkpt lat="44.38501" lon="3.88269">
        <ele>1404.8</ele>
        <time>2022-10-29T07:14:17Z</time>
      </trkpt>
      <trkpt lat="44.385" lon="3.88265">
        <ele>1404.8</ele>
        <time>2022-10-29T07:14:18Z</time>
      </trkpt>
      <trkpt lat="44.38499" lon="3.88262">
        <ele>1405</ele>
        <time>2022-10-29T07:14:19Z</time>
      </trkpt>
      <trkpt lat="44.38498" lon="3.88259">
        <ele>1405</ele>
        <time>2022-10-29T07:14:20Z</time>
      </trkpt>
      <trkpt lat="44.38497" lon="3.88256">
        <ele>1405</ele>
        <time>2022-10-29T07:14:21Z</time>
      </trkpt>
      <trkpt lat="44.38497" lon="3.88253">
        <ele>1405.2</ele>
        <time>2022-10-29T07:14:22Z</time>
      </trkpt>
      <trkpt lat="44.38496" lon="3.88249">
        <ele>1405.2</ele>
        <time>2022-10-29T07:14:23Z</time>
      </trkpt>
      <trkpt lat="44.38495" lon="3.88246">
        <ele>1405.4</ele>
        <time>2022-10-29T07:14:24Z</time>
      </trkpt>
      <trkpt lat="44.38494" lon="3.88243">
        <ele>1405.4</ele>
        <time>2022-10-29T07:14:25Z</time>
      </trkpt>
      <trkpt lat="44.38493" lon="3.8824">
        <ele>1405.6</ele>
        <time>2022-10-29T07:14:26Z</time>
      </trkpt>
      <trkpt lat="44.38492" lon="3.88237">
        <ele>1405.6</ele>
        <time>2022-10-29T07:14:27Z</time>
      </trkpt>
      <trkpt lat="44.38491" lon="3.88234">
        <ele>1405.8</ele>
        <time>2022-10-29T07:14:28Z</time>
      </trkpt>
      <trkpt lat="44.38491" lon="3.88231">
        <ele>1406</ele>
        <time>2022-10-29T07:14:29Z</time>
      </trkpt>
      <trkpt lat="44.38489" lon="3.88228">
        <ele>1406</ele>
        <time>2022-10-29T07:14:30Z</time>
      </trkpt>
      <trkpt lat="44.38489" lon="3.88225">
        <ele>1406.2</ele>
        <time>2022-10-29T07:14:31Z</time>
      </trkpt>
      <trkpt lat="44.38487" lon="3.88223">
        <ele>1406.2</ele>
        <time>2022-10-29T07:14:32Z</time>
      </trkpt>
      <trkpt lat="44.38486" lon="3.88221">
        <ele>1406.4</ele>
        <time>2022-10-29T07:14:33Z</time>
      </trkpt>
      <trkpt lat="44.38484" lon="3.88219">
        <ele>1406.4</ele>
        <time>2022-10-29T07:14:34Z</time>
      </trkpt>
      <trkpt lat="44.38482" lon="3.88217">
        <ele>1406.6</ele>
        <time>2022-10-29T07:14:35Z</time>
      </trkpt>
      <trkpt lat="44.3848" lon="3.88215">
        <ele>1406.6</ele>
        <time>2022-10-29T07:14:36Z</time>
      </trkpt>
      <trkpt lat="44.38477" lon="3.88213">
        <ele>1406.8</ele>
        <time>2022-10-29T07:14:37Z</time>
      </trkpt>
      <trkpt lat="44.38475" lon="3.88212">
        <ele>1407</ele>
        <time>2022-10-29T07:14:38Z</time>
      </trkpt>
      <trkpt lat="44.38473" lon="3.88211">
        <ele>1407</ele>
        <time>2022-10-29T07:14:39Z</time>
      </trkpt>
      <trkpt lat="44.3847" lon="3.8821">
        <ele>1407.2</ele>
        <time>2022-10-29T07:14:40Z</time>
      </trkpt>
      <trkpt lat="44.38468" lon="3.88209">
        <ele>1407.2</ele>
        <time>2022-10-29T07:14:41Z</time>
      </trkpt>
      <trkpt lat="44.38465" lon="3.88208">
        <ele>1407.4</ele>
        <time>2022-10-29T07:14:42Z</time>
      </trkpt>
      <trkpt lat="44.38463" lon="3.88207">
        <ele>1407.6</ele>
        <time>2022-10-29T07:14:43Z</time>
      </trkpt>
      <trkpt lat="44.38461" lon="3.88206">
        <ele>1407.8</ele>
        <time>2022-10-29T07:14:44Z</time>
      </trkpt>
      <trkpt lat="44.38459" lon="3.88206">
        <ele>1407.8</ele>
        <time>2022-10-29T07:14:45Z</time>
      </trkpt>
      <trkpt lat="44.38456" lon="3.88206">
        <ele>1408</ele>
        <time>2022-10-29T07:14:46Z</time>
      </trkpt>
      <trkpt lat="44.38454" lon="3.88206">
        <ele>1408.2</ele>
        <time>2022-10-29T07:14:47Z</time>
      </trkpt>
      <trkpt lat="44.38451" lon="3.88207">
        <ele>1408.4</ele>
        <time>2022-10-29T07:14:48Z</time>
      </trkpt>
      <trkpt lat="44.38449" lon="3.88208">
        <ele>1408.4</ele>
        <time>2022-10-29T07:14:49Z</time>
      </trkpt>
      <trkpt lat="44.38447" lon="3.88209">
        <ele>1408.6</ele>
        <time>2022-10-29T07:14:50Z</time>
      </trkpt>
      <trkpt lat="44.38445" lon="3.8821">
        <ele>1408.8</ele>
        <time>2022-10-29T07:14:51Z</time>
      </trkpt>
      <trkpt lat="44.38442" lon="3.8821">
        <ele>1408.8</ele>
        <time>2022-10-29T07:14:52Z</time>
      </trkpt>
      <trkpt lat="44.38439" lon="3.88211">
        <ele>1409</ele>
        <time>2022-10-29T07:14:53Z</time>
      </trkpt>
      <trkpt lat="44.38437" lon="3.88211">
        <ele>1409.2</ele>
        <time>2022-10-29T07:14:54Z</time>
      </trkpt>
      <trkpt lat="44.38435" lon="3.88212">
        <ele>1409.4</ele>
        <time>2022-10-29T07:14:55Z</time>
      </trkpt>
      <trkpt lat="44.38433" lon="3.88212">
        <ele>1409.6</ele>
        <time>2022-10-29T07:14:56Z</time>
      </trkpt>
      <trkpt lat="44.38431" lon="3.88212">
        <ele>1409.8</ele>
        <time>2022-10-29T07:14:57Z</time>
      </trkpt>
      <trkpt lat="44.38429" lon="3.88213">
        <ele>1410</ele>
        <time>2022-10-29T07:14:58Z</time>
      </trkpt>
      <trkpt lat="44.38427" lon="3.88213">
        <ele>1410.2</ele>
        <time>2022-10-29T07:14:59Z</time>
      </trkpt>
      <trkpt lat="44.38425" lon="3.88213">
        <ele>1410.4</ele>
        <time>2022-10-29T07:15:00Z</time>
      </trkpt>
      <trkpt lat="44.38423" lon="3.88213">
        <ele>1410.8</ele>
        <time>2022-10-29T07:15:01Z</time>
      </trkpt>
      <trkpt lat="44.38422" lon="3.88213">
        <ele>1411</ele>
        <time>2022-10-29T07:15:02Z</time>
      </trkpt>
      <trkpt lat="44.38419" lon="3.88212">
        <ele>1411</ele>
        <time>2022-10-29T07:15:03Z</time>
      </trkpt>
      <trkpt lat="44.38417" lon="3.88211">
        <ele>1411.4</ele>
        <time>2022-10-29T07:15:04Z</time>
      </trkpt>
      <trkpt lat="44.38415" lon="3.8821">
        <ele>1411.6</ele>
        <time>2022-10-29T07:15:05Z</time>
      </trkpt>
      <trkpt lat="44.38414" lon="3.88209">
        <ele>1411.6</ele>
        <time>2022-10-29T07:15:06Z</time>
      </trkpt>
      <trkpt lat="44.38412" lon="3.88208">
        <ele>1411.8</ele>
        <time>2022-10-29T07:15:07Z</time>
      </trkpt>
      <trkpt lat="44.38411" lon="3.88207">
        <ele>1412</ele>
        <time>2022-10-29T07:15:08Z</time>
      </trkpt>
      <trkpt lat="44.38411" lon="3.88207">
        <ele>1412</ele>
        <time>2022-10-29T07:15:09Z</time>
      </trkpt>
      <trkpt lat="44.38411" lon="3.88207">
        <ele>1412</ele>
        <time>2022-10-29T07:15:10Z</time>
      </trkpt>
      <trkpt lat="44.38411" lon="3.88207">
        <ele>1412</ele>
        <time>2022-10-29T07:15:11Z</time>
      </trkpt>
      <trkpt lat="44.38411" lon="3.88207">
        <ele>1412</ele>
        <time>2022-10-29T07:15:12Z</time>
      </trkpt>
      <trkpt lat="44.38411" lon="3.88207">
        <ele>1412.2</ele>
        <time>2022-10-29T07:15:13Z</time>
      </trkpt>
      <trkpt lat="44.38411" lon="3.88207">
        <ele>1412.2</ele>
        <time>2022-10-29T07:15:14Z</time>
      </trkpt>
      <trkpt lat="44.3841" lon="3.88204">
        <ele>1412.2</ele>
        <time>2022-10-29T07:15:56Z</time>
      </trkpt>
      <trkpt lat="44.3841" lon="3.88202">
        <ele>1412.2</ele>
        <time>2022-10-29T07:15:57Z</time>
      </trkpt>
      <trkpt lat="44.3841" lon="3.88199">
        <ele>1412.2</ele>
        <time>2022-10-29T07:15:58Z</time>
      </trkpt>
      <trkpt lat="44.3841" lon="3.88195">
        <ele>1412.4</ele>
        <time>2022-10-29T07:15:59Z</time>
      </trkpt>
      <trkpt lat="44.3841" lon="3.88192">
        <ele>1412.4</ele>
        <time>2022-10-29T07:16:00Z</time>
      </trkpt>
      <trkpt lat="44.38411" lon="3.88189">
        <ele>1412.4</ele>
        <time>2022-10-29T07:16:01Z</time>
      </trkpt>
      <trkpt lat="44.38412" lon="3.88187">
        <ele>1412.6</ele>
        <time>2022-10-29T07:16:02Z</time>
      </trkpt>
      <trkpt lat="44.38413" lon="3.88184">
        <ele>1412.6</ele>
        <time>2022-10-29T07:16:03Z</time>
      </trkpt>
      <trkpt lat="44.38414" lon="3.88183">
        <ele>1412.6</ele>
        <time>2022-10-29T07:16:04Z</time>
      </trkpt>
      <trkpt lat="44.38415" lon="3.8818">
        <ele>1412.8</ele>
        <time>2022-10-29T07:16:05Z</time>
      </trkpt>
      <trkpt lat="44.38416" lon="3.88177">
        <ele>1412.8</ele>
        <time>2022-10-29T07:16:06Z</time>
      </trkpt>
      <trkpt lat="44.38417" lon="3.88174">
        <ele>1413</ele>
        <time>2022-10-29T07:16:07Z</time>
      </trkpt>
      <trkpt lat="44.38418" lon="3.88171">
        <ele>1413</ele>
        <time>2022-10-29T07:16:08Z</time>
      </trkpt>
      <trkpt lat="44.3842" lon="3.88168">
        <ele>1413.2</ele>
        <time>2022-10-29T07:16:09Z</time>
      </trkpt>
      <trkpt lat="44.38421" lon="3.88165">
        <ele>1413.2</ele>
        <time>2022-10-29T07:16:10Z</time>
      </trkpt>
      <trkpt lat="44.38422" lon="3.88161">
        <ele>1413.2</ele>
        <time>2022-10-29T07:16:11Z</time>
      </trkpt>
      <trkpt lat="44.38424" lon="3.88158">
        <ele>1413.4</ele>
        <time>2022-10-29T07:16:12Z</time>
      </trkpt>
      <trkpt lat="44.38425" lon="3.88154">
        <ele>1413.4</ele>
        <time>2022-10-29T07:16:13Z</time>
      </trkpt>
      <trkpt lat="44.38426" lon="3.88151">
        <ele>1413.6</ele>
        <time>2022-10-29T07:16:14Z</time>
      </trkpt>
      <trkpt lat="44.38428" lon="3.88147">
        <ele>1413.6</ele>
        <time>2022-10-29T07:16:15Z</time>
      </trkpt>
      <trkpt lat="44.38429" lon="3.88144">
        <ele>1413.8</ele>
        <time>2022-10-29T07:16:16Z</time>
      </trkpt>
      <trkpt lat="44.3843" lon="3.88141">
        <ele>1414</ele>
        <time>2022-10-29T07:16:17Z</time>
      </trkpt>
      <trkpt lat="44.38431" lon="3.88138">
        <ele>1414</ele>
        <time>2022-10-29T07:16:18Z</time>
      </trkpt>
      <trkpt lat="44.38432" lon="3.88134">
        <ele>1414.2</ele>
        <time>2022-10-29T07:16:19Z</time>
      </trkpt>
      <trkpt lat="44.38433" lon="3.88131">
        <ele>1414.2</ele>
        <time>2022-10-29T07:16:20Z</time>
      </trkpt>
      <trkpt lat="44.38434" lon="3.88127">
        <ele>1414.4</ele>
        <time>2022-10-29T07:16:21Z</time>
      </trkpt>
      <trkpt lat="44.38436" lon="3.88124">
        <ele>1414.4</ele>
        <time>2022-10-29T07:16:22Z</time>
      </trkpt>
      <trkpt lat="44.38437" lon="3.8812">
        <ele>1414.4</ele>
        <time>2022-10-29T07:16:23Z</time>
      </trkpt>
      <trkpt lat="44.38437" lon="3.88116">
        <ele>1414.6</ele>
        <time>2022-10-29T07:16:24Z</time>
      </trkpt>
      <trkpt lat="44.38439" lon="3.88112">
        <ele>1414.6</ele>
        <time>2022-10-29T07:16:25Z</time>
      </trkpt>
      <trkpt lat="44.3844" lon="3.88109">
        <ele>1414.6</ele>
        <time>2022-10-29T07:16:26Z</time>
      </trkpt>
      <trkpt lat="44.38441" lon="3.88105">
        <ele>1414.6</ele>
        <time>2022-10-29T07:16:27Z</time>
      </trkpt>
      <trkpt lat="44.38442" lon="3.88101">
        <ele>1414.8</ele>
        <time>2022-10-29T07:16:28Z</time>
      </trkpt>
      <trkpt lat="44.38443" lon="3.88097">
        <ele>1414.8</ele>
        <time>2022-10-29T07:16:29Z</time>
      </trkpt>
      <trkpt lat="44.38444" lon="3.88093">
        <ele>1414.8</ele>
        <time>2022-10-29T07:16:30Z</time>
      </trkpt>
      <trkpt lat="44.38444" lon="3.88089">
        <ele>1414.8</ele>
        <time>2022-10-29T07:16:31Z</time>
      </trkpt>
      <trkpt lat="44.38445" lon="3.88085">
        <ele>1415</ele>
        <time>2022-10-29T07:16:32Z</time>
      </trkpt>
      <trkpt lat="44.38445" lon="3.88081">
        <ele>1415</ele>
        <time>2022-10-29T07:16:33Z</time>
      </trkpt>
      <trkpt lat="44.38446" lon="3.88077">
        <ele>1415</ele>
        <time>2022-10-29T07:16:34Z</time>
      </trkpt>
      <trkpt lat="44.38446" lon="3.88073">
        <ele>1415.2</ele>
        <time>2022-10-29T07:16:35Z</time>
      </trkpt>
      <trkpt lat="44.38446" lon="3.88069">
        <ele>1415.2</ele>
        <time>2022-10-29T07:16:36Z</time>
      </trkpt>
      <trkpt lat="44.38446" lon="3.88065">
        <ele>1415.4</ele>
        <time>2022-10-29T07:16:37Z</time>
      </trkpt>
      <trkpt lat="44.38446" lon="3.88062">
        <ele>1415.4</ele>
        <time>2022-10-29T07:16:38Z</time>
      </trkpt>
      <trkpt lat="44.38446" lon="3.88058">
        <ele>1415.6</ele>
        <time>2022-10-29T07:16:39Z</time>
      </trkpt>
      <trkpt lat="44.38446" lon="3.88056">
        <ele>1415.6</ele>
        <time>2022-10-29T07:16:40Z</time>
      </trkpt>
      <trkpt lat="44.38446" lon="3.88052">
        <ele>1415.8</ele>
        <time>2022-10-29T07:16:41Z</time>
      </trkpt>
      <trkpt lat="44.38446" lon="3.8805">
        <ele>1415.8</ele>
        <time>2022-10-29T07:16:42Z</time>
      </trkpt>
      <trkpt lat="44.38446" lon="3.88048">
        <ele>1415.8</ele>
        <time>2022-10-29T07:16:43Z</time>
      </trkpt>
      <trkpt lat="44.38447" lon="3.88046">
        <ele>1415.8</ele>
        <time>2022-10-29T07:16:44Z</time>
      </trkpt>
      <trkpt lat="44.38447" lon="3.88045">
        <ele>1415.8</ele>
        <time>2022-10-29T07:16:45Z</time>
      </trkpt>
      <trkpt lat="44.38447" lon="3.88047">
        <ele>1415.8</ele>
        <time>2022-10-29T07:17:42Z</time>
      </trkpt>
      <trkpt lat="44.38447" lon="3.8805">
        <ele>1415.8</ele>
        <time>2022-10-29T07:17:43Z</time>
      </trkpt>
      <trkpt lat="44.38447" lon="3.88053">
        <ele>1415.8</ele>
        <time>2022-10-29T07:17:44Z</time>
      </trkpt>
      <trkpt lat="44.38446" lon="3.88057">
        <ele>1415.8</ele>
        <time>2022-10-29T07:17:45Z</time>
      </trkpt>
      <trkpt lat="44.38445" lon="3.8806">
        <ele>1415.8</ele>
        <time>2022-10-29T07:17:46Z</time>
      </trkpt>
      <trkpt lat="44.38445" lon="3.88064">
        <ele>1415.6</ele>
        <time>2022-10-29T07:17:47Z</time>
      </trkpt>
      <trkpt lat="44.38445" lon="3.88068">
        <ele>1415.6</ele>
        <time>2022-10-29T07:17:48Z</time>
      </trkpt>
      <trkpt lat="44.38445" lon="3.88073">
        <ele>1415.4</ele>
        <time>2022-10-29T07:17:49Z</time>
      </trkpt>
      <trkpt lat="44.38445" lon="3.88076">
        <ele>1415.4</ele>
        <time>2022-10-29T07:17:50Z</time>
      </trkpt>
      <trkpt lat="44.38444" lon="3.88078">
        <ele>1415.4</ele>
        <time>2022-10-29T07:17:51Z</time>
      </trkpt>
      <trkpt lat="44.38443" lon="3.88079">
        <ele>1415.2</ele>
        <time>2022-10-29T07:17:52Z</time>
      </trkpt>
      <trkpt lat="44.38443" lon="3.88078">
        <ele>1415.2</ele>
        <time>2022-10-29T07:17:53Z</time>
      </trkpt>
      <trkpt lat="44.38443" lon="3.88077">
        <ele>1415.2</ele>
        <time>2022-10-29T07:17:54Z</time>
      </trkpt>
      <trkpt lat="44.38443" lon="3.88075">
        <ele>1415.4</ele>
        <time>2022-10-29T07:17:55Z</time>
      </trkpt>
      <trkpt lat="44.38444" lon="3.88072">
        <ele>1415.4</ele>
        <time>2022-10-29T07:17:56Z</time>
      </trkpt>
      <trkpt lat="44.38444" lon="3.88069">
        <ele>1415.6</ele>
        <time>2022-10-29T07:17:57Z</time>
      </trkpt>
      <trkpt lat="44.38445" lon="3.88065">
        <ele>1415.6</ele>
        <time>2022-10-29T07:17:58Z</time>
      </trkpt>
      <trkpt lat="44.38445" lon="3.88061">
        <ele>1415.8</ele>
        <time>2022-10-29T07:17:59Z</time>
      </trkpt>
      <trkpt lat="44.38446" lon="3.88058">
        <ele>1415.8</ele>
        <time>2022-10-29T07:18:00Z</time>
      </trkpt>
      <trkpt lat="44.38446" lon="3.88054">
        <ele>1416</ele>
        <time>2022-10-29T07:18:01Z</time>
      </trkpt>
      <trkpt lat="44.38447" lon="3.88051">
        <ele>1416</ele>
        <time>2022-10-29T07:18:02Z</time>
      </trkpt>
      <trkpt lat="44.38447" lon="3.88048">
        <ele>1416</ele>
        <time>2022-10-29T07:18:03Z</time>
      </trkpt>
      <trkpt lat="44.38448" lon="3.88045">
        <ele>1416.2</ele>
        <time>2022-10-29T07:18:04Z</time>
      </trkpt>
      <trkpt lat="44.38448" lon="3.88042">
        <ele>1416.2</ele>
        <time>2022-10-29T07:18:05Z</time>
      </trkpt>
      <trkpt lat="44.38448" lon="3.88039">
        <ele>1416.2</ele>
        <time>2022-10-29T07:18:06Z</time>
      </trkpt>
      <trkpt lat="44.38448" lon="3.88036">
        <ele>1416.2</ele>
        <time>2022-10-29T07:18:07Z</time>
      </trkpt>
      <trkpt lat="44.38448" lon="3.88033">
        <ele>1416.2</ele>
        <time>2022-10-29T07:18:08Z</time>
      </trkpt>
      <trkpt lat="44.38448" lon="3.88031">
        <ele>1416.2</ele>
        <time>2022-10-29T07:18:09Z</time>
      </trkpt>
      <trkpt lat="44.38448" lon="3.8803">
        <ele>1416</ele>
        <time>2022-10-29T07:18:10Z</time>
      </trkpt>
      <trkpt lat="44.38447" lon="3.8803">
        <ele>1415.8</ele>
        <time>2022-10-29T07:18:11Z</time>
      </trkpt>
      <trkpt lat="44.38447" lon="3.8803">
        <ele>1415.6</ele>
        <time>2022-10-29T07:18:12Z</time>
      </trkpt>
      <trkpt lat="44.38447" lon="3.8803">
        <ele>1415.6</ele>
        <time>2022-10-29T07:18:13Z</time>
      </trkpt>
      <trkpt lat="44.38447" lon="3.8803">
        <ele>1415.6</ele>
        <time>2022-10-29T07:18:14Z</time>
      </trkpt>
      <trkpt lat="44.38447" lon="3.8803">
        <ele>1415.4</ele>
        <time>2022-10-29T07:18:15Z</time>
      </trkpt>
      <trkpt lat="44.38447" lon="3.8803">
        <ele>1415.4</ele>
        <time>2022-10-29T07:18:16Z</time>
      </trkpt>
      <trkpt lat="44.38447" lon="3.88027">
        <ele>1415.4</ele>
        <time>2022-10-29T07:18:55Z</time>
      </trkpt>
      <trkpt lat="44.38447" lon="3.88025">
        <ele>1415.2</ele>
        <time>2022-10-29T07:18:56Z</time>
      </trkpt>
      <trkpt lat="44.38447" lon="3.8802">
        <ele>1415.2</ele>
        <time>2022-10-29T07:18:57Z</time>
      </trkpt>
      <trkpt lat="44.38447" lon="3.88014">
        <ele>1415.2</ele>
        <time>2022-10-29T07:18:58Z</time>
      </trkpt>
      <trkpt lat="44.38447" lon="3.88009">
        <ele>1415</ele>
        <time>2022-10-29T07:18:59Z</time>
      </trkpt>
      <trkpt lat="44.38448" lon="3.88004">
        <ele>1415</ele>
        <time>2022-10-29T07:19:00Z</time>
      </trkpt>
      <trkpt lat="44.38448" lon="3.87999">
        <ele>1415</ele>
        <time>2022-10-29T07:19:01Z</time>
      </trkpt>
      <trkpt lat="44.38449" lon="3.87995">
        <ele>1414.8</ele>
        <time>2022-10-29T07:19:02Z</time>
      </trkpt>
      <trkpt lat="44.3845" lon="3.8799">
        <ele>1414.8</ele>
        <time>2022-10-29T07:19:03Z</time>
      </trkpt>
      <trkpt lat="44.3845" lon="3.87985">
        <ele>1414.8</ele>
        <time>2022-10-29T07:19:04Z</time>
      </trkpt>
      <trkpt lat="44.3845" lon="3.8798">
        <ele>1414.8</ele>
        <time>2022-10-29T07:19:05Z</time>
      </trkpt>
      <trkpt lat="44.3845" lon="3.87975">
        <ele>1414.6</ele>
        <time>2022-10-29T07:19:06Z</time>
      </trkpt>
      <trkpt lat="44.38451" lon="3.8797">
        <ele>1414.6</ele>
        <time>2022-10-29T07:19:07Z</time>
      </trkpt>
      <trkpt lat="44.38451" lon="3.87965">
        <ele>1414.6</ele>
        <time>2022-10-29T07:19:08Z</time>
      </trkpt>
      <trkpt lat="44.38451" lon="3.8796">
        <ele>1414.6</ele>
        <time>2022-10-29T07:19:09Z</time>
      </trkpt>
      <trkpt lat="44.38451" lon="3.87954">
        <ele>1414.6</ele>
        <time>2022-10-29T07:19:10Z</time>
      </trkpt>
      <trkpt lat="44.38451" lon="3.8795">
        <ele>1414.6</ele>
        <time>2022-10-29T07:19:11Z</time>
      </trkpt>
      <trkpt lat="44.38451" lon="3.87945">
        <ele>1414.4</ele>
        <time>2022-10-29T07:19:12Z</time>
      </trkpt>
      <trkpt lat="44.38452" lon="3.8794">
        <ele>1414.4</ele>
        <time>2022-10-29T07:19:13Z</time>
      </trkpt>
      <trkpt lat="44.38453" lon="3.87935">
        <ele>1414.4</ele>
        <time>2022-10-29T07:19:14Z</time>
      </trkpt>
      <trkpt lat="44.38454" lon="3.8793">
        <ele>1414.4</ele>
        <time>2022-10-29T07:19:15Z</time>
      </trkpt>
      <trkpt lat="44.38454" lon="3.87924">
        <ele>1414.4</ele>
        <time>2022-10-29T07:19:16Z</time>
      </trkpt>
      <trkpt lat="44.38455" lon="3.87919">
        <ele>1414.2</ele>
        <time>2022-10-29T07:19:17Z</time>
      </trkpt>
      <trkpt lat="44.38455" lon="3.87914">
        <ele>1414.2</ele>
        <time>2022-10-29T07:19:18Z</time>
      </trkpt>
      <trkpt lat="44.38456" lon="3.87909">
        <ele>1414.2</ele>
        <time>2022-10-29T07:19:19Z</time>
      </trkpt>
      <trkpt lat="44.38457" lon="3.87904">
        <ele>1414.2</ele>
        <time>2022-10-29T07:19:20Z</time>
      </trkpt>
      <trkpt lat="44.38459" lon="3.87899">
        <ele>1414.2</ele>
        <time>2022-10-29T07:19:21Z</time>
      </trkpt>
      <trkpt lat="44.38461" lon="3.87894">
        <ele>1414.2</ele>
        <time>2022-10-29T07:19:22Z</time>
      </trkpt>
      <trkpt lat="44.38463" lon="3.87889">
        <ele>1414.2</ele>
        <time>2022-10-29T07:19:23Z</time>
      </trkpt>
      <trkpt lat="44.38465" lon="3.87884">
        <ele>1414.2</ele>
        <time>2022-10-29T07:19:24Z</time>
      </trkpt>
      <trkpt lat="44.38467" lon="3.87879">
        <ele>1414.2</ele>
        <time>2022-10-29T07:19:25Z</time>
      </trkpt>
      <trkpt lat="44.38469" lon="3.87875">
        <ele>1414.4</ele>
        <time>2022-10-29T07:19:26Z</time>
      </trkpt>
      <trkpt lat="44.38472" lon="3.87871">
        <ele>1414.4</ele>
        <time>2022-10-29T07:19:27Z</time>
      </trkpt>
      <trkpt lat="44.38474" lon="3.87867">
        <ele>1414.4</ele>
        <time>2022-10-29T07:19:28Z</time>
      </trkpt>
      <trkpt lat="44.38476" lon="3.87862">
        <ele>1414.4</ele>
        <time>2022-10-29T07:19:29Z</time>
      </trkpt>
      <trkpt lat="44.38478" lon="3.87858">
        <ele>1414.4</ele>
        <time>2022-10-29T07:19:30Z</time>
      </trkpt>
      <trkpt lat="44.3848" lon="3.87854">
        <ele>1414.6</ele>
        <time>2022-10-29T07:19:31Z</time>
      </trkpt>
      <trkpt lat="44.38482" lon="3.8785">
        <ele>1414.6</ele>
        <time>2022-10-29T07:19:32Z</time>
      </trkpt>
      <trkpt lat="44.38483" lon="3.87847">
        <ele>1414.6</ele>
        <time>2022-10-29T07:19:33Z</time>
      </trkpt>
      <trkpt lat="44.38486" lon="3.87844">
        <ele>1414.6</ele>
        <time>2022-10-29T07:19:34Z</time>
      </trkpt>
      <trkpt lat="44.38487" lon="3.8784">
        <ele>1414.6</ele>
        <time>2022-10-29T07:19:35Z</time>
      </trkpt>
      <trkpt lat="44.38489" lon="3.87836">
        <ele>1414.6</ele>
        <time>2022-10-29T07:19:36Z</time>
      </trkpt>
      <trkpt lat="44.38491" lon="3.87832">
        <ele>1414.6</ele>
        <time>2022-10-29T07:19:37Z</time>
      </trkpt>
      <trkpt lat="44.38493" lon="3.87828">
        <ele>1414.6</ele>
        <time>2022-10-29T07:19:38Z</time>
      </trkpt>
      <trkpt lat="44.38495" lon="3.87824">
        <ele>1414.6</ele>
        <time>2022-10-29T07:19:39Z</time>
      </trkpt>
      <trkpt lat="44.38497" lon="3.87821">
        <ele>1414.6</ele>
        <time>2022-10-29T07:19:40Z</time>
      </trkpt>
      <trkpt lat="44.38499" lon="3.87817">
        <ele>1414.6</ele>
        <time>2022-10-29T07:19:41Z</time>
      </trkpt>
      <trkpt lat="44.38501" lon="3.87813">
        <ele>1414.6</ele>
        <time>2022-10-29T07:19:42Z</time>
      </trkpt>
      <trkpt lat="44.38503" lon="3.87809">
        <ele>1414.8</ele>
        <time>2022-10-29T07:19:43Z</time>
      </trkpt>
      <trkpt lat="44.38505" lon="3.87805">
        <ele>1414.8</ele>
        <time>2022-10-29T07:19:44Z</time>
      </trkpt>
      <trkpt lat="44.38507" lon="3.87802">
        <ele>1414.8</ele>
        <time>2022-10-29T07:19:45Z</time>
      </trkpt>
      <trkpt lat="44.38509" lon="3.87798">
        <ele>1414.8</ele>
        <time>2022-10-29T07:19:46Z</time>
      </trkpt>
      <trkpt lat="44.38511" lon="3.87794">
        <ele>1415</ele>
        <time>2022-10-29T07:19:47Z</time>
      </trkpt>
      <trkpt lat="44.38512" lon="3.8779">
        <ele>1415</ele>
        <time>2022-10-29T07:19:48Z</time>
      </trkpt>
      <trkpt lat="44.38514" lon="3.87786">
        <ele>1415</ele>
        <time>2022-10-29T07:19:49Z</time>
      </trkpt>
      <trkpt lat="44.38516" lon="3.87783">
        <ele>1415.2</ele>
        <time>2022-10-29T07:19:50Z</time>
      </trkpt>
      <trkpt lat="44.38518" lon="3.87779">
        <ele>1415.2</ele>
        <time>2022-10-29T07:19:51Z</time>
      </trkpt>
      <trkpt lat="44.38519" lon="3.87775">
        <ele>1415.2</ele>
        <time>2022-10-29T07:19:52Z</time>
      </trkpt>
      <trkpt lat="44.3852" lon="3.87771">
        <ele>1415.2</ele>
        <time>2022-10-29T07:19:53Z</time>
      </trkpt>
      <trkpt lat="44.38521" lon="3.87767">
        <ele>1415.2</ele>
        <time>2022-10-29T07:19:54Z</time>
      </trkpt>
      <trkpt lat="44.38523" lon="3.87763">
        <ele>1415.4</ele>
        <time>2022-10-29T07:19:55Z</time>
      </trkpt>
      <trkpt lat="44.38525" lon="3.87759">
        <ele>1415.4</ele>
        <time>2022-10-29T07:19:56Z</time>
      </trkpt>
      <trkpt lat="44.38526" lon="3.87756">
        <ele>1415.4</ele>
        <time>2022-10-29T07:19:57Z</time>
      </trkpt>
      <trkpt lat="44.38528" lon="3.87753">
        <ele>1415.4</ele>
        <time>2022-10-29T07:19:58Z</time>
      </trkpt>
      <trkpt lat="44.3853" lon="3.8775">
        <ele>1415.6</ele>
        <time>2022-10-29T07:19:59Z</time>
      </trkpt>
      <trkpt lat="44.38532" lon="3.87746">
        <ele>1415.6</ele>
        <time>2022-10-29T07:20:00Z</time>
      </trkpt>
      <trkpt lat="44.38533" lon="3.87744">
        <ele>1415.6</ele>
        <time>2022-10-29T07:20:01Z</time>
      </trkpt>
      <trkpt lat="44.38534" lon="3.87741">
        <ele>1415.8</ele>
        <time>2022-10-29T07:20:02Z</time>
      </trkpt>
      <trkpt lat="44.38535" lon="3.87739">
        <ele>1415.8</ele>
        <time>2022-10-29T07:20:03Z</time>
      </trkpt>
      <trkpt lat="44.38536" lon="3.87736">
        <ele>1415.8</ele>
        <time>2022-10-29T07:20:04Z</time>
      </trkpt>
      <trkpt lat="44.38537" lon="3.87733">
        <ele>1416</ele>
        <time>2022-10-29T07:20:05Z</time>
      </trkpt>
      <trkpt lat="44.38539" lon="3.87729">
        <ele>1416</ele>
        <time>2022-10-29T07:20:06Z</time>
      </trkpt>
      <trkpt lat="44.3854" lon="3.87725">
        <ele>1416.2</ele>
        <time>2022-10-29T07:20:07Z</time>
      </trkpt>
      <trkpt lat="44.38541" lon="3.87721">
        <ele>1416.2</ele>
        <time>2022-10-29T07:20:08Z</time>
      </trkpt>
      <trkpt lat="44.38542" lon="3.87718">
        <ele>1416.2</ele>
        <time>2022-10-29T07:20:09Z</time>
      </trkpt>
      <trkpt lat="44.38544" lon="3.87713">
        <ele>1416.2</ele>
        <time>2022-10-29T07:20:10Z</time>
      </trkpt>
      <trkpt lat="44.38545" lon="3.87709">
        <ele>1416.4</ele>
        <time>2022-10-29T07:20:11Z</time>
      </trkpt>
      <trkpt lat="44.38546" lon="3.87705">
        <ele>1416.4</ele>
        <time>2022-10-29T07:20:12Z</time>
      </trkpt>
      <trkpt lat="44.38547" lon="3.877">
        <ele>1416.4</ele>
        <time>2022-10-29T07:20:13Z</time>
      </trkpt>
      <trkpt lat="44.38548" lon="3.87696">
        <ele>1416.6</ele>
        <time>2022-10-29T07:20:14Z</time>
      </trkpt>
      <trkpt lat="44.38549" lon="3.87692">
        <ele>1416.6</ele>
        <time>2022-10-29T07:20:15Z</time>
      </trkpt>
      <trkpt lat="44.3855" lon="3.87688">
        <ele>1416.8</ele>
        <time>2022-10-29T07:20:16Z</time>
      </trkpt>
      <trkpt lat="44.38551" lon="3.87684">
        <ele>1416.8</ele>
        <time>2022-10-29T07:20:17Z</time>
      </trkpt>
      <trkpt lat="44.38551" lon="3.8768">
        <ele>1417</ele>
        <time>2022-10-29T07:20:18Z</time>
      </trkpt>
      <trkpt lat="44.38551" lon="3.87676">
        <ele>1417</ele>
        <time>2022-10-29T07:20:19Z</time>
      </trkpt>
      <trkpt lat="44.38551" lon="3.87673">
        <ele>1417.2</ele>
        <time>2022-10-29T07:20:20Z</time>
      </trkpt>
      <trkpt lat="44.38552" lon="3.87669">
        <ele>1417.2</ele>
        <time>2022-10-29T07:20:21Z</time>
      </trkpt>
      <trkpt lat="44.38553" lon="3.87666">
        <ele>1417.4</ele>
        <time>2022-10-29T07:20:22Z</time>
      </trkpt>
      <trkpt lat="44.38553" lon="3.87663">
        <ele>1417.6</ele>
        <time>2022-10-29T07:20:23Z</time>
      </trkpt>
      <trkpt lat="44.38553" lon="3.8766">
        <ele>1417.8</ele>
        <time>2022-10-29T07:20:24Z</time>
      </trkpt>
      <trkpt lat="44.38554" lon="3.87657">
        <ele>1418</ele>
        <time>2022-10-29T07:20:25Z</time>
      </trkpt>
      <trkpt lat="44.38553" lon="3.87654">
        <ele>1418.2</ele>
        <time>2022-10-29T07:20:26Z</time>
      </trkpt>
      <trkpt lat="44.38553" lon="3.87652">
        <ele>1418.4</ele>
        <time>2022-10-29T07:20:27Z</time>
      </trkpt>
      <trkpt lat="44.38552" lon="3.87649">
        <ele>1418.6</ele>
        <time>2022-10-29T07:20:28Z</time>
      </trkpt>
      <trkpt lat="44.38551" lon="3.87647">
        <ele>1418.8</ele>
        <time>2022-10-29T07:20:29Z</time>
      </trkpt>
      <trkpt lat="44.3855" lon="3.87646">
        <ele>1418.8</ele>
        <time>2022-10-29T07:20:30Z</time>
      </trkpt>
      <trkpt lat="44.38549" lon="3.87644">
        <ele>1419</ele>
        <time>2022-10-29T07:20:31Z</time>
      </trkpt>
      <trkpt lat="44.38549" lon="3.87644">
        <ele>1419</ele>
        <time>2022-10-29T07:20:32Z</time>
      </trkpt>
      <trkpt lat="44.38549" lon="3.87643">
        <ele>1419.2</ele>
        <time>2022-10-29T07:20:33Z</time>
      </trkpt>
      <trkpt lat="44.38549" lon="3.87643">
        <ele>1419.2</ele>
        <time>2022-10-29T07:20:35Z</time>
      </trkpt>
      <trkpt lat="44.38549" lon="3.87642">
        <ele>1419.2</ele>
        <time>2022-10-29T07:20:36Z</time>
      </trkpt>
      <trkpt lat="44.38549" lon="3.87642">
        <ele>1419</ele>
        <time>2022-10-29T07:20:37Z</time>
      </trkpt>
      <trkpt lat="44.38549" lon="3.87642">
        <ele>1419</ele>
        <time>2022-10-29T07:20:38Z</time>
      </trkpt>
      <trkpt lat="44.38549" lon="3.87642">
        <ele>1418.8</ele>
        <time>2022-10-29T07:20:39Z</time>
      </trkpt>
      <trkpt lat="44.38549" lon="3.87642">
        <ele>1418.8</ele>
        <time>2022-10-29T07:20:40Z</time>
      </trkpt>
      <trkpt lat="44.38549" lon="3.87642">
        <ele>1418.8</ele>
        <time>2022-10-29T07:20:41Z</time>
      </trkpt>
      <trkpt lat="44.3855" lon="3.87643">
        <ele>1419</ele>
        <time>2022-10-29T07:22:05Z</time>
      </trkpt>
      <trkpt lat="44.38553" lon="3.87644">
        <ele>1419</ele>
        <time>2022-10-29T07:22:06Z</time>
      </trkpt>
      <trkpt lat="44.38556" lon="3.87644">
        <ele>1418.8</ele>
        <time>2022-10-29T07:22:07Z</time>
      </trkpt>
      <trkpt lat="44.38559" lon="3.87644">
        <ele>1419</ele>
        <time>2022-10-29T07:22:08Z</time>
      </trkpt>
      <trkpt lat="44.38562" lon="3.87643">
        <ele>1419</ele>
        <time>2022-10-29T07:22:09Z</time>
      </trkpt>
      <trkpt lat="44.38564" lon="3.87642">
        <ele>1419.2</ele>
        <time>2022-10-29T07:22:10Z</time>
      </trkpt>
      <trkpt lat="44.38566" lon="3.8764">
        <ele>1419.4</ele>
        <time>2022-10-29T07:22:11Z</time>
      </trkpt>
      <trkpt lat="44.38568" lon="3.87638">
        <ele>1419.6</ele>
        <time>2022-10-29T07:22:12Z</time>
      </trkpt>
      <trkpt lat="44.3857" lon="3.87635">
        <ele>1419.8</ele>
        <time>2022-10-29T07:22:13Z</time>
      </trkpt>
      <trkpt lat="44.38572" lon="3.87633">
        <ele>1420</ele>
        <time>2022-10-29T07:22:14Z</time>
      </trkpt>
      <trkpt lat="44.38574" lon="3.87631">
        <ele>1420.2</ele>
        <time>2022-10-29T07:22:15Z</time>
      </trkpt>
      <trkpt lat="44.38575" lon="3.87628">
        <ele>1420.4</ele>
        <time>2022-10-29T07:22:16Z</time>
      </trkpt>
      <trkpt lat="44.38577" lon="3.87626">
        <ele>1420.6</ele>
        <time>2022-10-29T07:22:17Z</time>
      </trkpt>
      <trkpt lat="44.38578" lon="3.87623">
        <ele>1420.8</ele>
        <time>2022-10-29T07:22:18Z</time>
      </trkpt>
      <trkpt lat="44.38579" lon="3.87621">
        <ele>1421</ele>
        <time>2022-10-29T07:22:19Z</time>
      </trkpt>
      <trkpt lat="44.38581" lon="3.87618">
        <ele>1421.4</ele>
        <time>2022-10-29T07:22:20Z</time>
      </trkpt>
      <trkpt lat="44.38582" lon="3.87616">
        <ele>1421.6</ele>
        <time>2022-10-29T07:22:21Z</time>
      </trkpt>
      <trkpt lat="44.38584" lon="3.87613">
        <ele>1421.8</ele>
        <time>2022-10-29T07:22:22Z</time>
      </trkpt>
      <trkpt lat="44.38586" lon="3.87611">
        <ele>1422</ele>
        <time>2022-10-29T07:22:23Z</time>
      </trkpt>
      <trkpt lat="44.38587" lon="3.87609">
        <ele>1422</ele>
        <time>2022-10-29T07:22:24Z</time>
      </trkpt>
      <trkpt lat="44.38588" lon="3.87606">
        <ele>1422.4</ele>
        <time>2022-10-29T07:22:25Z</time>
      </trkpt>
      <trkpt lat="44.38589" lon="3.87603">
        <ele>1422.6</ele>
        <time>2022-10-29T07:22:26Z</time>
      </trkpt>
      <trkpt lat="44.38589" lon="3.87599">
        <ele>1422.8</ele>
        <time>2022-10-29T07:22:27Z</time>
      </trkpt>
      <trkpt lat="44.38588" lon="3.87596">
        <ele>1422.8</ele>
        <time>2022-10-29T07:22:28Z</time>
      </trkpt>
      <trkpt lat="44.38588" lon="3.87592">
        <ele>1423</ele>
        <time>2022-10-29T07:22:29Z</time>
      </trkpt>
      <trkpt lat="44.38587" lon="3.87588">
        <ele>1423.2</ele>
        <time>2022-10-29T07:22:30Z</time>
      </trkpt>
      <trkpt lat="44.38586" lon="3.87585">
        <ele>1423.4</ele>
        <time>2022-10-29T07:22:31Z</time>
      </trkpt>
      <trkpt lat="44.38586" lon="3.87581">
        <ele>1423.6</ele>
        <time>2022-10-29T07:22:32Z</time>
      </trkpt>
      <trkpt lat="44.38585" lon="3.87577">
        <ele>1423.6</ele>
        <time>2022-10-29T07:22:33Z</time>
      </trkpt>
      <trkpt lat="44.38584" lon="3.87574">
        <ele>1423.8</ele>
        <time>2022-10-29T07:22:34Z</time>
      </trkpt>
      <trkpt lat="44.38583" lon="3.8757">
        <ele>1423.8</ele>
        <time>2022-10-29T07:22:35Z</time>
      </trkpt>
      <trkpt lat="44.38582" lon="3.87567">
        <ele>1424</ele>
        <time>2022-10-29T07:22:36Z</time>
      </trkpt>
      <trkpt lat="44.38581" lon="3.87563">
        <ele>1424.2</ele>
        <time>2022-10-29T07:22:37Z</time>
      </trkpt>
      <trkpt lat="44.3858" lon="3.8756">
        <ele>1424.2</ele>
        <time>2022-10-29T07:22:38Z</time>
      </trkpt>
      <trkpt lat="44.38579" lon="3.87556">
        <ele>1424.4</ele>
        <time>2022-10-29T07:22:39Z</time>
      </trkpt>
      <trkpt lat="44.38578" lon="3.87552">
        <ele>1424.4</ele>
        <time>2022-10-29T07:22:40Z</time>
      </trkpt>
      <trkpt lat="44.38577" lon="3.87549">
        <ele>1424.4</ele>
        <time>2022-10-29T07:22:41Z</time>
      </trkpt>
      <trkpt lat="44.38576" lon="3.87546">
        <ele>1424.6</ele>
        <time>2022-10-29T07:22:42Z</time>
      </trkpt>
      <trkpt lat="44.38575" lon="3.87543">
        <ele>1424.6</ele>
        <time>2022-10-29T07:22:43Z</time>
      </trkpt>
      <trkpt lat="44.38574" lon="3.87539">
        <ele>1424.6</ele>
        <time>2022-10-29T07:22:44Z</time>
      </trkpt>
      <trkpt lat="44.38573" lon="3.87536">
        <ele>1424.8</ele>
        <time>2022-10-29T07:22:45Z</time>
      </trkpt>
      <trkpt lat="44.38572" lon="3.87533">
        <ele>1424.8</ele>
        <time>2022-10-29T07:22:46Z</time>
      </trkpt>
      <trkpt lat="44.38572" lon="3.8753">
        <ele>1425</ele>
        <time>2022-10-29T07:22:47Z</time>
      </trkpt>
      <trkpt lat="44.38571" lon="3.87526">
        <ele>1425</ele>
        <time>2022-10-29T07:22:48Z</time>
      </trkpt>
      <trkpt lat="44.3857" lon="3.87523">
        <ele>1425.2</ele>
        <time>2022-10-29T07:22:49Z</time>
      </trkpt>
      <trkpt lat="44.3857" lon="3.8752">
        <ele>1425.2</ele>
        <time>2022-10-29T07:22:50Z</time>
      </trkpt>
      <trkpt lat="44.3857" lon="3.87517">
        <ele>1425.2</ele>
        <time>2022-10-29T07:22:51Z</time>
      </trkpt>
      <trkpt lat="44.3857" lon="3.87515">
        <ele>1425.4</ele>
        <time>2022-10-29T07:22:52Z</time>
      </trkpt>
      <trkpt lat="44.38571" lon="3.87512">
        <ele>1425.4</ele>
        <time>2022-10-29T07:22:53Z</time>
      </trkpt>
      <trkpt lat="44.38572" lon="3.8751">
        <ele>1425.6</ele>
        <time>2022-10-29T07:22:54Z</time>
      </trkpt>
      <trkpt lat="44.38573" lon="3.87509">
        <ele>1425.6</ele>
        <time>2022-10-29T07:22:55Z</time>
      </trkpt>
      <trkpt lat="44.38575" lon="3.87508">
        <ele>1425.8</ele>
        <time>2022-10-29T07:22:56Z</time>
      </trkpt>
      <trkpt lat="44.38577" lon="3.87507">
        <ele>1425.8</ele>
        <time>2022-10-29T07:22:57Z</time>
      </trkpt>
      <trkpt lat="44.38579" lon="3.87506">
        <ele>1426</ele>
        <time>2022-10-29T07:22:58Z</time>
      </trkpt>
      <trkpt lat="44.38582" lon="3.87506">
        <ele>1426.2</ele>
        <time>2022-10-29T07:22:59Z</time>
      </trkpt>
      <trkpt lat="44.38584" lon="3.87506">
        <ele>1426.4</ele>
        <time>2022-10-29T07:23:00Z</time>
      </trkpt>
      <trkpt lat="44.38586" lon="3.87507">
        <ele>1426.4</ele>
        <time>2022-10-29T07:23:01Z</time>
      </trkpt>
      <trkpt lat="44.38588" lon="3.87508">
        <ele>1426.6</ele>
        <time>2022-10-29T07:23:02Z</time>
      </trkpt>
      <trkpt lat="44.38591" lon="3.87509">
        <ele>1426.8</ele>
        <time>2022-10-29T07:23:03Z</time>
      </trkpt>
      <trkpt lat="44.38592" lon="3.87512">
        <ele>1426.8</ele>
        <time>2022-10-29T07:23:04Z</time>
      </trkpt>
      <trkpt lat="44.38594" lon="3.87514">
        <ele>1427</ele>
        <time>2022-10-29T07:23:05Z</time>
      </trkpt>
      <trkpt lat="44.38596" lon="3.87516">
        <ele>1427</ele>
        <time>2022-10-29T07:23:06Z</time>
      </trkpt>
      <trkpt lat="44.38598" lon="3.87518">
        <ele>1427.2</ele>
        <time>2022-10-29T07:23:07Z</time>
      </trkpt>
      <trkpt lat="44.386" lon="3.8752">
        <ele>1427.2</ele>
        <time>2022-10-29T07:23:08Z</time>
      </trkpt>
      <trkpt lat="44.38601" lon="3.87522">
        <ele>1427.2</ele>
        <time>2022-10-29T07:23:09Z</time>
      </trkpt>
      <trkpt lat="44.38601" lon="3.87523">
        <ele>1427.4</ele>
        <time>2022-10-29T07:23:10Z</time>
      </trkpt>
      <trkpt lat="44.38602" lon="3.87523">
        <ele>1427.4</ele>
        <time>2022-10-29T07:23:11Z</time>
      </trkpt>
      <trkpt lat="44.38601" lon="3.87522">
        <ele>1427.4</ele>
        <time>2022-10-29T07:24:00Z</time>
      </trkpt>
      <trkpt lat="44.38599" lon="3.8752">
        <ele>1427.4</ele>
        <time>2022-10-29T07:24:01Z</time>
      </trkpt>
      <trkpt lat="44.38597" lon="3.87518">
        <ele>1427.4</ele>
        <time>2022-10-29T07:24:02Z</time>
      </trkpt>
      <trkpt lat="44.38594" lon="3.87515">
        <ele>1427.2</ele>
        <time>2022-10-29T07:24:03Z</time>
      </trkpt>
      <trkpt lat="44.38592" lon="3.87512">
        <ele>1427.2</ele>
        <time>2022-10-29T07:24:04Z</time>
      </trkpt>
      <trkpt lat="44.3859" lon="3.8751">
        <ele>1427.2</ele>
        <time>2022-10-29T07:24:05Z</time>
      </trkpt>
      <trkpt lat="44.38588" lon="3.87509">
        <ele>1427</ele>
        <time>2022-10-29T07:24:06Z</time>
      </trkpt>
      <trkpt lat="44.38586" lon="3.87507">
        <ele>1427</ele>
        <time>2022-10-29T07:24:07Z</time>
      </trkpt>
      <trkpt lat="44.38583" lon="3.87507">
        <ele>1426.8</ele>
        <time>2022-10-29T07:24:08Z</time>
      </trkpt>
      <trkpt lat="44.3858" lon="3.87508">
        <ele>1426.6</ele>
        <time>2022-10-29T07:24:09Z</time>
      </trkpt>
      <trkpt lat="44.38577" lon="3.87509">
        <ele>1426.4</ele>
        <time>2022-10-29T07:24:10Z</time>
      </trkpt>
      <trkpt lat="44.38574" lon="3.87509">
        <ele>1426.2</ele>
        <time>2022-10-29T07:24:11Z</time>
      </trkpt>
      <trkpt lat="44.38572" lon="3.87509">
        <ele>1426</ele>
        <time>2022-10-29T07:24:12Z</time>
      </trkpt>
      <trkpt lat="44.38571" lon="3.87511">
        <ele>1426</ele>
        <time>2022-10-29T07:24:13Z</time>
      </trkpt>
      <trkpt lat="44.3857" lon="3.87513">
        <ele>1425.8</ele>
        <time>2022-10-29T07:24:14Z</time>
      </trkpt>
      <trkpt lat="44.3857" lon="3.87516">
        <ele>1425.8</ele>
        <time>2022-10-29T07:24:15Z</time>
      </trkpt>
      <trkpt lat="44.38571" lon="3.87519">
        <ele>1425.6</ele>
        <time>2022-10-29T07:24:16Z</time>
      </trkpt>
      <trkpt lat="44.38572" lon="3.87522">
        <ele>1425.4</ele>
        <time>2022-10-29T07:24:17Z</time>
      </trkpt>
      <trkpt lat="44.38572" lon="3.87525">
        <ele>1425.4</ele>
        <time>2022-10-29T07:24:18Z</time>
      </trkpt>
      <trkpt lat="44.38572" lon="3.87527">
        <ele>1425.2</ele>
        <time>2022-10-29T07:24:19Z</time>
      </trkpt>
      <trkpt lat="44.38572" lon="3.87528">
        <ele>1425.2</ele>
        <time>2022-10-29T07:24:20Z</time>
      </trkpt>
      <trkpt lat="44.38572" lon="3.87528">
        <ele>1425.2</ele>
        <time>2022-10-29T07:24:21Z</time>
      </trkpt>
      <trkpt lat="44.38573" lon="3.87528">
        <ele>1425.2</ele>
        <time>2022-10-29T07:24:22Z</time>
      </trkpt>
      <trkpt lat="44.38573" lon="3.87528">
        <ele>1425.2</ele>
        <time>2022-10-29T07:24:23Z</time>
      </trkpt>
      <trkpt lat="44.38573" lon="3.87528">
        <ele>1425.2</ele>
        <time>2022-10-29T07:24:24Z</time>
      </trkpt>
      <trkpt lat="44.38573" lon="3.87528">
        <ele>1425.2</ele>
        <time>2022-10-29T07:24:25Z</time>
      </trkpt>
      <trkpt lat="44.38572" lon="3.87526">
        <ele>1425.2</ele>
        <time>2022-10-29T07:25:15Z</time>
      </trkpt>
      <trkpt lat="44.38571" lon="3.87524">
        <ele>1425.2</ele>
        <time>2022-10-29T07:25:16Z</time>
      </trkpt>
      <trkpt lat="44.3857" lon="3.87521">
        <ele>1425.2</ele>
        <time>2022-10-29T07:25:17Z</time>
      </trkpt>
      <trkpt lat="44.38568" lon="3.87517">
        <ele>1425.2</ele>
        <time>2022-10-29T07:25:18Z</time>
      </trkpt>
      <trkpt lat="44.38567" lon="3.87514">
        <ele>1425.4</ele>
        <time>2022-10-29T07:25:19Z</time>
      </trkpt>
      <trkpt lat="44.38566" lon="3.87512">
        <ele>1425.4</ele>
        <time>2022-10-29T07:25:20Z</time>
      </trkpt>
      <trkpt lat="44.38565" lon="3.8751">
        <ele>1425.4</ele>
        <time>2022-10-29T07:25:21Z</time>
      </trkpt>
      <trkpt lat="44.38564" lon="3.87508">
        <ele>1425.4</ele>
        <time>2022-10-29T07:25:22Z</time>
      </trkpt>
      <trkpt lat="44.38562" lon="3.87507">
        <ele>1425.4</ele>
        <time>2022-10-29T07:25:23Z</time>
      </trkpt>
      <trkpt lat="44.3856" lon="3.87506">
        <ele>1425.4</ele>
        <time>2022-10-29T07:25:24Z</time>
      </trkpt>
      <trkpt lat="44.38558" lon="3.87507">
        <ele>1425.2</ele>
        <time>2022-10-29T07:25:25Z</time>
      </trkpt>
      <trkpt lat="44.38555" lon="3.87508">
        <ele>1425.2</ele>
        <time>2022-10-29T07:25:26Z</time>
      </trkpt>
      <trkpt lat="44.38553" lon="3.87511">
        <ele>1425</ele>
        <time>2022-10-29T07:25:27Z</time>
      </trkpt>
      <trkpt lat="44.38551" lon="3.87513">
        <ele>1425</ele>
        <time>2022-10-29T07:25:28Z</time>
      </trkpt>
      <trkpt lat="44.38548" lon="3.87516">
        <ele>1425</ele>
        <time>2022-10-29T07:25:29Z</time>
      </trkpt>
      <trkpt lat="44.38546" lon="3.87519">
        <ele>1424.8</ele>
        <time>2022-10-29T07:25:30Z</time>
      </trkpt>
      <trkpt lat="44.38544" lon="3.87522">
        <ele>1424.6</ele>
        <time>2022-10-29T07:25:31Z</time>
      </trkpt>
      <trkpt lat="44.38542" lon="3.87525">
        <ele>1424.4</ele>
        <time>2022-10-29T07:25:32Z</time>
      </trkpt>
      <trkpt lat="44.38539" lon="3.87528">
        <ele>1424.4</ele>
        <time>2022-10-29T07:25:33Z</time>
      </trkpt>
      <trkpt lat="44.38537" lon="3.8753">
        <ele>1424.2</ele>
        <time>2022-10-29T07:25:34Z</time>
      </trkpt>
      <trkpt lat="44.38534" lon="3.87532">
        <ele>1424</ele>
        <time>2022-10-29T07:25:35Z</time>
      </trkpt>
      <trkpt lat="44.38532" lon="3.87534">
        <ele>1424</ele>
        <time>2022-10-29T07:25:36Z</time>
      </trkpt>
      <trkpt lat="44.38529" lon="3.87534">
        <ele>1423.8</ele>
        <time>2022-10-29T07:25:37Z</time>
      </trkpt>
      <trkpt lat="44.38527" lon="3.87535">
        <ele>1423.6</ele>
        <time>2022-10-29T07:25:38Z</time>
      </trkpt>
      <trkpt lat="44.38526" lon="3.87537">
        <ele>1423.4</ele>
        <time>2022-10-29T07:25:39Z</time>
      </trkpt>
      <trkpt lat="44.38525" lon="3.87538">
        <ele>1423.2</ele>
        <time>2022-10-29T07:25:40Z</time>
      </trkpt>
      <trkpt lat="44.38524" lon="3.87539">
        <ele>1423.2</ele>
        <time>2022-10-29T07:25:41Z</time>
      </trkpt>
      <trkpt lat="44.38524" lon="3.87539">
        <ele>1423</ele>
        <time>2022-10-29T07:25:42Z</time>
      </trkpt>
      <trkpt lat="44.38524" lon="3.87539">
        <ele>1423</ele>
        <time>2022-10-29T07:25:43Z</time>
      </trkpt>
      <trkpt lat="44.38525" lon="3.87539">
        <ele>1423</ele>
        <time>2022-10-29T07:25:44Z</time>
      </trkpt>
      <trkpt lat="44.38525" lon="3.87539">
        <ele>1423</ele>
        <time>2022-10-29T07:25:45Z</time>
      </trkpt>
      <trkpt lat="44.38525" lon="3.87539">
        <ele>1423</ele>
        <time>2022-10-29T07:25:46Z</time>
      </trkpt>
      <trkpt lat="44.38525" lon="3.87539">
        <ele>1422.8</ele>
        <time>2022-10-29T07:25:47Z</time>
      </trkpt>
      <trkpt lat="44.38538" lon="3.87529">
        <ele>1422.8</ele>
        <time>2022-10-29T07:51:50Z</time>
      </trkpt>
      <trkpt lat="44.38541" lon="3.87527">
        <ele>1422.8</ele>
        <time>2022-10-29T07:51:51Z</time>
      </trkpt>
      <trkpt lat="44.38542" lon="3.87526">
        <ele>1422.8</ele>
        <time>2022-10-29T07:51:52Z</time>
      </trkpt>
      <trkpt lat="44.38544" lon="3.87524">
        <ele>1422.8</ele>
        <time>2022-10-29T07:51:53Z</time>
      </trkpt>
      <trkpt lat="44.38546" lon="3.87522">
        <ele>1423</ele>
        <time>2022-10-29T07:51:54Z</time>
      </trkpt>
      <trkpt lat="44.38548" lon="3.8752">
        <ele>1423</ele>
        <time>2022-10-29T07:51:55Z</time>
      </trkpt>
      <trkpt lat="44.38549" lon="3.87518">
        <ele>1423.2</ele>
        <time>2022-10-29T07:51:56Z</time>
      </trkpt>
      <trkpt lat="44.3855" lon="3.87516">
        <ele>1423.2</ele>
        <time>2022-10-29T07:51:57Z</time>
      </trkpt>
      <trkpt lat="44.38551" lon="3.87514">
        <ele>1423.4</ele>
        <time>2022-10-29T07:51:58Z</time>
      </trkpt>
      <trkpt lat="44.38553" lon="3.87512">
        <ele>1423.4</ele>
        <time>2022-10-29T07:51:59Z</time>
      </trkpt>
      <trkpt lat="44.38554" lon="3.8751">
        <ele>1423.6</ele>
        <time>2022-10-29T07:52:00Z</time>
      </trkpt>
      <trkpt lat="44.38556" lon="3.87508">
        <ele>1423.6</ele>
        <time>2022-10-29T07:52:01Z</time>
      </trkpt>
      <trkpt lat="44.38557" lon="3.87506">
        <ele>1423.8</ele>
        <time>2022-10-29T07:52:02Z</time>
      </trkpt>
      <trkpt lat="44.38558" lon="3.87505">
        <ele>1424</ele>
        <time>2022-10-29T07:52:03Z</time>
      </trkpt>
      <trkpt lat="44.3856" lon="3.87505">
        <ele>1424</ele>
        <time>2022-10-29T07:52:04Z</time>
      </trkpt>
      <trkpt lat="44.38561" lon="3.87504">
        <ele>1424.2</ele>
        <time>2022-10-29T07:52:05Z</time>
      </trkpt>
      <trkpt lat="44.38562" lon="3.87504">
        <ele>1424.2</ele>
        <time>2022-10-29T07:52:06Z</time>
      </trkpt>
      <trkpt lat="44.38562" lon="3.87505">
        <ele>1424.4</ele>
        <time>2022-10-29T07:52:07Z</time>
      </trkpt>
      <trkpt lat="44.38562" lon="3.87505">
        <ele>1424.4</ele>
        <time>2022-10-29T07:52:08Z</time>
      </trkpt>
      <trkpt lat="44.38562" lon="3.87505">
        <ele>1424.4</ele>
        <time>2022-10-29T07:52:09Z</time>
      </trkpt>
      <trkpt lat="44.38562" lon="3.87505">
        <ele>1424.4</ele>
        <time>2022-10-29T07:52:10Z</time>
      </trkpt>
      <trkpt lat="44.38562" lon="3.87505">
        <ele>1424.4</ele>
        <time>2022-10-29T07:52:11Z</time>
      </trkpt>
      <trkpt lat="44.38562" lon="3.87505">
        <ele>1424.4</ele>
        <time>2022-10-29T07:52:12Z</time>
      </trkpt>
      <trkpt lat="44.38565" lon="3.87506">
        <ele>1424.6</ele>
        <time>2022-10-29T07:52:50Z</time>
      </trkpt>
      <trkpt lat="44.38567" lon="3.87507">
        <ele>1424.6</ele>
        <time>2022-10-29T07:52:51Z</time>
      </trkpt>
      <trkpt lat="44.38569" lon="3.87508">
        <ele>1424.6</ele>
        <time>2022-10-29T07:52:52Z</time>
      </trkpt>
      <trkpt lat="44.38571" lon="3.87508">
        <ele>1424.8</ele>
        <time>2022-10-29T07:52:53Z</time>
      </trkpt>
      <trkpt lat="44.38573" lon="3.87507">
        <ele>1424.8</ele>
        <time>2022-10-29T07:52:54Z</time>
      </trkpt>
      <trkpt lat="44.38575" lon="3.87506">
        <ele>1425</ele>
        <time>2022-10-29T07:52:55Z</time>
      </trkpt>
      <trkpt lat="44.38578" lon="3.87505">
        <ele>1425</ele>
        <time>2022-10-29T07:52:56Z</time>
      </trkpt>
      <trkpt lat="44.3858" lon="3.87504">
        <ele>1425.2</ele>
        <time>2022-10-29T07:52:57Z</time>
      </trkpt>
      <trkpt lat="44.38582" lon="3.87503">
        <ele>1425.4</ele>
        <time>2022-10-29T07:52:58Z</time>
      </trkpt>
      <trkpt lat="44.38584" lon="3.87502">
        <ele>1425.4</ele>
        <time>2022-10-29T07:52:59Z</time>
      </trkpt>
      <trkpt lat="44.38587" lon="3.87501">
        <ele>1425.6</ele>
        <time>2022-10-29T07:53:00Z</time>
      </trkpt>
      <trkpt lat="44.38589" lon="3.875">
        <ele>1425.6</ele>
        <time>2022-10-29T07:53:01Z</time>
      </trkpt>
      <trkpt lat="44.38592" lon="3.875">
        <ele>1425.8</ele>
        <time>2022-10-29T07:53:02Z</time>
      </trkpt>
      <trkpt lat="44.38594" lon="3.87501">
        <ele>1426</ele>
        <time>2022-10-29T07:53:03Z</time>
      </trkpt>
      <trkpt lat="44.38596" lon="3.875">
        <ele>1426.2</ele>
        <time>2022-10-29T07:53:04Z</time>
      </trkpt>
      <trkpt lat="44.38597" lon="3.875">
        <ele>1426.2</ele>
        <time>2022-10-29T07:53:05Z</time>
      </trkpt>
      <trkpt lat="44.38599" lon="3.87498">
        <ele>1426.4</ele>
        <time>2022-10-29T07:53:06Z</time>
      </trkpt>
      <trkpt lat="44.38601" lon="3.87496">
        <ele>1426.4</ele>
        <time>2022-10-29T07:53:07Z</time>
      </trkpt>
      <trkpt lat="44.38602" lon="3.87495">
        <ele>1426.6</ele>
        <time>2022-10-29T07:53:08Z</time>
      </trkpt>
      <trkpt lat="44.38603" lon="3.87493">
        <ele>1426.6</ele>
        <time>2022-10-29T07:53:09Z</time>
      </trkpt>
      <trkpt lat="44.38603" lon="3.87491">
        <ele>1426.8</ele>
        <time>2022-10-29T07:53:10Z</time>
      </trkpt>
      <trkpt lat="44.38604" lon="3.87489">
        <ele>1426.8</ele>
        <time>2022-10-29T07:53:11Z</time>
      </trkpt>
      <trkpt lat="44.38605" lon="3.87487">
        <ele>1426.8</ele>
        <time>2022-10-29T07:53:12Z</time>
      </trkpt>
      <trkpt lat="44.38605" lon="3.87486">
        <ele>1427</ele>
        <time>2022-10-29T07:53:13Z</time>
      </trkpt>
      <trkpt lat="44.38606" lon="3.87485">
        <ele>1427</ele>
        <time>2022-10-29T07:53:14Z</time>
      </trkpt>
      <trkpt lat="44.38605" lon="3.87484">
        <ele>1427</ele>
        <time>2022-10-29T07:53:15Z</time>
      </trkpt>
      <trkpt lat="44.38605" lon="3.87484">
        <ele>1427</ele>
        <time>2022-10-29T07:53:16Z</time>
      </trkpt>
      <trkpt lat="44.38605" lon="3.87484">
        <ele>1427</ele>
        <time>2022-10-29T07:53:17Z</time>
      </trkpt>
      <trkpt lat="44.38605" lon="3.87484">
        <ele>1427</ele>
        <time>2022-10-29T07:53:18Z</time>
      </trkpt>
      <trkpt lat="44.38605" lon="3.87484">
        <ele>1427</ele>
        <time>2022-10-29T07:53:19Z</time>
      </trkpt>
      <trkpt lat="44.38605" lon="3.87484">
        <ele>1427</ele>
        <time>2022-10-29T07:53:20Z</time>
      </trkpt>
      <trkpt lat="44.38605" lon="3.8748">
        <ele>1427</ele>
        <time>2022-10-29T07:54:14Z</time>
      </trkpt>
      <trkpt lat="44.38605" lon="3.87477">
        <ele>1427</ele>
        <time>2022-10-29T07:54:15Z</time>
      </trkpt>
      <trkpt lat="44.38606" lon="3.87473">
        <ele>1427</ele>
        <time>2022-10-29T07:54:16Z</time>
      </trkpt>
      <trkpt lat="44.38606" lon="3.87469">
        <ele>1427</ele>
        <time>2022-10-29T07:54:17Z</time>
      </trkpt>
      <trkpt lat="44.38607" lon="3.87465">
        <ele>1427</ele>
        <time>2022-10-29T07:54:18Z</time>
      </trkpt>
      <trkpt lat="44.38608" lon="3.87462">
        <ele>1427</ele>
        <time>2022-10-29T07:54:19Z</time>
      </trkpt>
      <trkpt lat="44.3861" lon="3.87458">
        <ele>1427</ele>
        <time>2022-10-29T07:54:20Z</time>
      </trkpt>
      <trkpt lat="44.3861" lon="3.87455">
        <ele>1427</ele>
        <time>2022-10-29T07:54:21Z</time>
      </trkpt>
      <trkpt lat="44.3861" lon="3.87451">
        <ele>1427</ele>
        <time>2022-10-29T07:54:22Z</time>
      </trkpt>
      <trkpt lat="44.38611" lon="3.87448">
        <ele>1427.2</ele>
        <time>2022-10-29T07:54:23Z</time>
      </trkpt>
      <trkpt lat="44.38611" lon="3.87444">
        <ele>1427.2</ele>
        <time>2022-10-29T07:54:24Z</time>
      </trkpt>
      <trkpt lat="44.38611" lon="3.8744">
        <ele>1427.2</ele>
        <time>2022-10-29T07:54:25Z</time>
      </trkpt>
      <trkpt lat="44.38612" lon="3.87435">
        <ele>1427.2</ele>
        <time>2022-10-29T07:54:26Z</time>
      </trkpt>
      <trkpt lat="44.38612" lon="3.87431">
        <ele>1427.2</ele>
        <time>2022-10-29T07:54:27Z</time>
      </trkpt>
      <trkpt lat="44.38613" lon="3.87426">
        <ele>1427.2</ele>
        <time>2022-10-29T07:54:28Z</time>
      </trkpt>
      <trkpt lat="44.38613" lon="3.87422">
        <ele>1427.2</ele>
        <time>2022-10-29T07:54:29Z</time>
      </trkpt>
      <trkpt lat="44.38614" lon="3.87418">
        <ele>1427.2</ele>
        <time>2022-10-29T07:54:30Z</time>
      </trkpt>
      <trkpt lat="44.38615" lon="3.87414">
        <ele>1427.2</ele>
        <time>2022-10-29T07:54:31Z</time>
      </trkpt>
      <trkpt lat="44.38616" lon="3.87409">
        <ele>1427.2</ele>
        <time>2022-10-29T07:54:32Z</time>
      </trkpt>
      <trkpt lat="44.38616" lon="3.87405">
        <ele>1427.2</ele>
        <time>2022-10-29T07:54:33Z</time>
      </trkpt>
      <trkpt lat="44.38617" lon="3.87401">
        <ele>1427.2</ele>
        <time>2022-10-29T07:54:34Z</time>
      </trkpt>
      <trkpt lat="44.38618" lon="3.87396">
        <ele>1427.2</ele>
        <time>2022-10-29T07:54:35Z</time>
      </trkpt>
      <trkpt lat="44.38619" lon="3.87392">
        <ele>1427.2</ele>
        <time>2022-10-29T07:54:36Z</time>
      </trkpt>
      <trkpt lat="44.38619" lon="3.87388">
        <ele>1427.2</ele>
        <time>2022-10-29T07:54:37Z</time>
      </trkpt>
      <trkpt lat="44.38621" lon="3.87385">
        <ele>1427.2</ele>
        <time>2022-10-29T07:54:38Z</time>
      </trkpt>
      <trkpt lat="44.38622" lon="3.87381">
        <ele>1427.2</ele>
        <time>2022-10-29T07:54:39Z</time>
      </trkpt>
      <trkpt lat="44.38624" lon="3.87377">
        <ele>1427.2</ele>
        <time>2022-10-29T07:54:40Z</time>
      </trkpt>
      <trkpt lat="44.38625" lon="3.87373">
        <ele>1427.2</ele>
        <time>2022-10-29T07:54:41Z</time>
      </trkpt>
      <trkpt lat="44.38627" lon="3.8737">
        <ele>1427.2</ele>
        <time>2022-10-29T07:54:42Z</time>
      </trkpt>
      <trkpt lat="44.38628" lon="3.87366">
        <ele>1427.2</ele>
        <time>2022-10-29T07:54:43Z</time>
      </trkpt>
      <trkpt lat="44.3863" lon="3.87362">
        <ele>1427.2</ele>
        <time>2022-10-29T07:54:44Z</time>
      </trkpt>
      <trkpt lat="44.38631" lon="3.87359">
        <ele>1427.2</ele>
        <time>2022-10-29T07:54:45Z</time>
      </trkpt>
      <trkpt lat="44.38632" lon="3.87355">
        <ele>1427.2</ele>
        <time>2022-10-29T07:54:46Z</time>
      </trkpt>
      <trkpt lat="44.38634" lon="3.87351">
        <ele>1427.2</ele>
        <time>2022-10-29T07:54:47Z</time>
      </trkpt>
      <trkpt lat="44.38635" lon="3.87346">
        <ele>1427.2</ele>
        <time>2022-10-29T07:54:48Z</time>
      </trkpt>
      <trkpt lat="44.38636" lon="3.87342">
        <ele>1427.2</ele>
        <time>2022-10-29T07:54:49Z</time>
      </trkpt>
      <trkpt lat="44.38637" lon="3.87338">
        <ele>1427.2</ele>
        <time>2022-10-29T07:54:50Z</time>
      </trkpt>
      <trkpt lat="44.38638" lon="3.87333">
        <ele>1427.2</ele>
        <time>2022-10-29T07:54:51Z</time>
      </trkpt>
      <trkpt lat="44.38639" lon="3.87329">
        <ele>1427.2</ele>
        <time>2022-10-29T07:54:52Z</time>
      </trkpt>
      <trkpt lat="44.3864" lon="3.87325">
        <ele>1427.2</ele>
        <time>2022-10-29T07:54:53Z</time>
      </trkpt>
      <trkpt lat="44.3864" lon="3.8732">
        <ele>1427.2</ele>
        <time>2022-10-29T07:54:54Z</time>
      </trkpt>
      <trkpt lat="44.38642" lon="3.87316">
        <ele>1427.2</ele>
        <time>2022-10-29T07:54:55Z</time>
      </trkpt>
      <trkpt lat="44.38643" lon="3.87312">
        <ele>1427.2</ele>
        <time>2022-10-29T07:54:56Z</time>
      </trkpt>
      <trkpt lat="44.38643" lon="3.87307">
        <ele>1427.2</ele>
        <time>2022-10-29T07:54:57Z</time>
      </trkpt>
      <trkpt lat="44.38644" lon="3.87303">
        <ele>1427</ele>
        <time>2022-10-29T07:54:58Z</time>
      </trkpt>
      <trkpt lat="44.38645" lon="3.87298">
        <ele>1427</ele>
        <time>2022-10-29T07:54:59Z</time>
      </trkpt>
      <trkpt lat="44.38645" lon="3.87293">
        <ele>1427</ele>
        <time>2022-10-29T07:55:00Z</time>
      </trkpt>
      <trkpt lat="44.38645" lon="3.87288">
        <ele>1427</ele>
        <time>2022-10-29T07:55:01Z</time>
      </trkpt>
      <trkpt lat="44.38645" lon="3.87283">
        <ele>1427</ele>
        <time>2022-10-29T07:55:02Z</time>
      </trkpt>
      <trkpt lat="44.38644" lon="3.87279">
        <ele>1427</ele>
        <time>2022-10-29T07:55:03Z</time>
      </trkpt>
      <trkpt lat="44.38645" lon="3.87273">
        <ele>1426.8</ele>
        <time>2022-10-29T07:55:04Z</time>
      </trkpt>
      <trkpt lat="44.38645" lon="3.87268">
        <ele>1426.8</ele>
        <time>2022-10-29T07:55:05Z</time>
      </trkpt>
      <trkpt lat="44.38645" lon="3.87263">
        <ele>1426.8</ele>
        <time>2022-10-29T07:55:06Z</time>
      </trkpt>
      <trkpt lat="44.38646" lon="3.87257">
        <ele>1426.6</ele>
        <time>2022-10-29T07:55:07Z</time>
      </trkpt>
      <trkpt lat="44.38646" lon="3.87252">
        <ele>1426.6</ele>
        <time>2022-10-29T07:55:08Z</time>
      </trkpt>
      <trkpt lat="44.38646" lon="3.87247">
        <ele>1426.4</ele>
        <time>2022-10-29T07:55:09Z</time>
      </trkpt>
      <trkpt lat="44.38646" lon="3.87241">
        <ele>1426.4</ele>
        <time>2022-10-29T07:55:10Z</time>
      </trkpt>
      <trkpt lat="44.38646" lon="3.87236">
        <ele>1426.4</ele>
        <time>2022-10-29T07:55:11Z</time>
      </trkpt>
      <trkpt lat="44.38646" lon="3.87231">
        <ele>1426.4</ele>
        <time>2022-10-29T07:55:12Z</time>
      </trkpt>
      <trkpt lat="44.38646" lon="3.87225">
        <ele>1426.4</ele>
        <time>2022-10-29T07:55:13Z</time>
      </trkpt>
      <trkpt lat="44.38647" lon="3.8722">
        <ele>1426.2</ele>
        <time>2022-10-29T07:55:14Z</time>
      </trkpt>
      <trkpt lat="44.38647" lon="3.87215">
        <ele>1426.4</ele>
        <time>2022-10-29T07:55:15Z</time>
      </trkpt>
      <trkpt lat="44.38648" lon="3.8721">
        <ele>1426.4</ele>
        <time>2022-10-29T07:55:16Z</time>
      </trkpt>
      <trkpt lat="44.38648" lon="3.87206">
        <ele>1426.4</ele>
        <time>2022-10-29T07:55:17Z</time>
      </trkpt>
      <trkpt lat="44.38648" lon="3.87202">
        <ele>1426.6</ele>
        <time>2022-10-29T07:55:18Z</time>
      </trkpt>
      <trkpt lat="44.38648" lon="3.87198">
        <ele>1426.8</ele>
        <time>2022-10-29T07:55:19Z</time>
      </trkpt>
      <trkpt lat="44.38648" lon="3.87195">
        <ele>1426.8</ele>
        <time>2022-10-29T07:55:20Z</time>
      </trkpt>
      <trkpt lat="44.38649" lon="3.87191">
        <ele>1427</ele>
        <time>2022-10-29T07:55:21Z</time>
      </trkpt>
      <trkpt lat="44.38649" lon="3.87188">
        <ele>1427.2</ele>
        <time>2022-10-29T07:55:22Z</time>
      </trkpt>
      <trkpt lat="44.38648" lon="3.87184">
        <ele>1427.6</ele>
        <time>2022-10-29T07:55:23Z</time>
      </trkpt>
      <trkpt lat="44.38648" lon="3.8718">
        <ele>1427.8</ele>
        <time>2022-10-29T07:55:24Z</time>
      </trkpt>
      <trkpt lat="44.38647" lon="3.87177">
        <ele>1428</ele>
        <time>2022-10-29T07:55:25Z</time>
      </trkpt>
      <trkpt lat="44.38646" lon="3.87174">
        <ele>1428.2</ele>
        <time>2022-10-29T07:55:26Z</time>
      </trkpt>
      <trkpt lat="44.38644" lon="3.87171">
        <ele>1428.4</ele>
        <time>2022-10-29T07:55:27Z</time>
      </trkpt>
      <trkpt lat="44.38643" lon="3.87168">
        <ele>1428.6</ele>
        <time>2022-10-29T07:55:28Z</time>
      </trkpt>
      <trkpt lat="44.38641" lon="3.87165">
        <ele>1428.8</ele>
        <time>2022-10-29T07:55:29Z</time>
      </trkpt>
      <trkpt lat="44.38639" lon="3.87163">
        <ele>1429</ele>
        <time>2022-10-29T07:55:30Z</time>
      </trkpt>
      <trkpt lat="44.38637" lon="3.8716">
        <ele>1429</ele>
        <time>2022-10-29T07:55:31Z</time>
      </trkpt>
      <trkpt lat="44.38634" lon="3.87157">
        <ele>1429.2</ele>
        <time>2022-10-29T07:55:32Z</time>
      </trkpt>
      <trkpt lat="44.38632" lon="3.87155">
        <ele>1429.2</ele>
        <time>2022-10-29T07:55:33Z</time>
      </trkpt>
      <trkpt lat="44.38629" lon="3.87152">
        <ele>1429.4</ele>
        <time>2022-10-29T07:55:34Z</time>
      </trkpt>
      <trkpt lat="44.38626" lon="3.87151">
        <ele>1429.4</ele>
        <time>2022-10-29T07:55:35Z</time>
      </trkpt>
      <trkpt lat="44.38624" lon="3.87149">
        <ele>1429.4</ele>
        <time>2022-10-29T07:55:36Z</time>
      </trkpt>
      <trkpt lat="44.38622" lon="3.87147">
        <ele>1429.6</ele>
        <time>2022-10-29T07:55:37Z</time>
      </trkpt>
      <trkpt lat="44.38619" lon="3.87144">
        <ele>1429.6</ele>
        <time>2022-10-29T07:55:38Z</time>
      </trkpt>
      <trkpt lat="44.38617" lon="3.87142">
        <ele>1429.6</ele>
        <time>2022-10-29T07:55:39Z</time>
      </trkpt>
      <trkpt lat="44.38614" lon="3.8714">
        <ele>1429.6</ele>
        <time>2022-10-29T07:55:40Z</time>
      </trkpt>
      <trkpt lat="44.38612" lon="3.87137">
        <ele>1429.6</ele>
        <time>2022-10-29T07:55:41Z</time>
      </trkpt>
      <trkpt lat="44.3861" lon="3.87135">
        <ele>1429.4</ele>
        <time>2022-10-29T07:55:42Z</time>
      </trkpt>
      <trkpt lat="44.38607" lon="3.87133">
        <ele>1429.4</ele>
        <time>2022-10-29T07:55:43Z</time>
      </trkpt>
      <trkpt lat="44.38605" lon="3.87132">
        <ele>1429.4</ele>
        <time>2022-10-29T07:55:44Z</time>
      </trkpt>
      <trkpt lat="44.38603" lon="3.8713">
        <ele>1429.2</ele>
        <time>2022-10-29T07:55:45Z</time>
      </trkpt>
      <trkpt lat="44.38602" lon="3.87129">
        <ele>1429.2</ele>
        <time>2022-10-29T07:55:46Z</time>
      </trkpt>
      <trkpt lat="44.386" lon="3.87127">
        <ele>1429.2</ele>
        <time>2022-10-29T07:55:47Z</time>
      </trkpt>
      <trkpt lat="44.38599" lon="3.87124">
        <ele>1429.2</ele>
        <time>2022-10-29T07:55:48Z</time>
      </trkpt>
      <trkpt lat="44.38598" lon="3.87121">
        <ele>1429.2</ele>
        <time>2022-10-29T07:55:49Z</time>
      </trkpt>
      <trkpt lat="44.38597" lon="3.87118">
        <ele>1429.2</ele>
        <time>2022-10-29T07:55:50Z</time>
      </trkpt>
      <trkpt lat="44.38595" lon="3.87115">
        <ele>1429</ele>
        <time>2022-10-29T07:55:51Z</time>
      </trkpt>
      <trkpt lat="44.38594" lon="3.87112">
        <ele>1429</ele>
        <time>2022-10-29T07:55:52Z</time>
      </trkpt>
      <trkpt lat="44.38594" lon="3.87109">
        <ele>1429</ele>
        <time>2022-10-29T07:55:53Z</time>
      </trkpt>
      <trkpt lat="44.38593" lon="3.87106">
        <ele>1429</ele>
        <time>2022-10-29T07:55:54Z</time>
      </trkpt>
      <trkpt lat="44.38593" lon="3.87103">
        <ele>1429</ele>
        <time>2022-10-29T07:55:55Z</time>
      </trkpt>
      <trkpt lat="44.38593" lon="3.871">
        <ele>1429.2</ele>
        <time>2022-10-29T07:55:56Z</time>
      </trkpt>
      <trkpt lat="44.38593" lon="3.87096">
        <ele>1429.2</ele>
        <time>2022-10-29T07:55:57Z</time>
      </trkpt>
      <trkpt lat="44.38593" lon="3.87092">
        <ele>1429.2</ele>
        <time>2022-10-29T07:55:58Z</time>
      </trkpt>
      <trkpt lat="44.38594" lon="3.87089">
        <ele>1429.2</ele>
        <time>2022-10-29T07:55:59Z</time>
      </trkpt>
      <trkpt lat="44.38594" lon="3.87085">
        <ele>1429.2</ele>
        <time>2022-10-29T07:56:00Z</time>
      </trkpt>
      <trkpt lat="44.38594" lon="3.87081">
        <ele>1429.2</ele>
        <time>2022-10-29T07:56:01Z</time>
      </trkpt>
      <trkpt lat="44.38594" lon="3.87077">
        <ele>1429.2</ele>
        <time>2022-10-29T07:56:02Z</time>
      </trkpt>
      <trkpt lat="44.38593" lon="3.87073">
        <ele>1429.2</ele>
        <time>2022-10-29T07:56:03Z</time>
      </trkpt>
      <trkpt lat="44.38592" lon="3.87069">
        <ele>1429.4</ele>
        <time>2022-10-29T07:56:04Z</time>
      </trkpt>
      <trkpt lat="44.38592" lon="3.87065">
        <ele>1429.4</ele>
        <time>2022-10-29T07:56:05Z</time>
      </trkpt>
      <trkpt lat="44.38591" lon="3.8706">
        <ele>1429.4</ele>
        <time>2022-10-29T07:56:06Z</time>
      </trkpt>
      <trkpt lat="44.3859" lon="3.87056">
        <ele>1429.4</ele>
        <time>2022-10-29T07:56:07Z</time>
      </trkpt>
      <trkpt lat="44.38589" lon="3.87052">
        <ele>1429.6</ele>
        <time>2022-10-29T07:56:08Z</time>
      </trkpt>
      <trkpt lat="44.38589" lon="3.87047">
        <ele>1429.6</ele>
        <time>2022-10-29T07:56:09Z</time>
      </trkpt>
      <trkpt lat="44.38588" lon="3.87043">
        <ele>1429.6</ele>
        <time>2022-10-29T07:56:10Z</time>
      </trkpt>
      <trkpt lat="44.38588" lon="3.87038">
        <ele>1429.8</ele>
        <time>2022-10-29T07:56:11Z</time>
      </trkpt>
      <trkpt lat="44.38587" lon="3.87035">
        <ele>1430</ele>
        <time>2022-10-29T07:56:12Z</time>
      </trkpt>
      <trkpt lat="44.38586" lon="3.87031">
        <ele>1430</ele>
        <time>2022-10-29T07:56:13Z</time>
      </trkpt>
      <trkpt lat="44.38584" lon="3.87027">
        <ele>1430.2</ele>
        <time>2022-10-29T07:56:14Z</time>
      </trkpt>
      <trkpt lat="44.38584" lon="3.87023">
        <ele>1430.2</ele>
        <time>2022-10-29T07:56:15Z</time>
      </trkpt>
      <trkpt lat="44.38583" lon="3.87019">
        <ele>1430.4</ele>
        <time>2022-10-29T07:56:16Z</time>
      </trkpt>
      <trkpt lat="44.38581" lon="3.87016">
        <ele>1430.6</ele>
        <time>2022-10-29T07:56:17Z</time>
      </trkpt>
      <trkpt lat="44.38581" lon="3.87013">
        <ele>1430.8</ele>
        <time>2022-10-29T07:56:18Z</time>
      </trkpt>
      <trkpt lat="44.3858" lon="3.87009">
        <ele>1430.8</ele>
        <time>2022-10-29T07:56:19Z</time>
      </trkpt>
      <trkpt lat="44.38579" lon="3.87006">
        <ele>1431</ele>
        <time>2022-10-29T07:56:20Z</time>
      </trkpt>
      <trkpt lat="44.38579" lon="3.87002">
        <ele>1431.2</ele>
        <time>2022-10-29T07:56:21Z</time>
      </trkpt>
      <trkpt lat="44.38578" lon="3.86999">
        <ele>1431.6</ele>
        <time>2022-10-29T07:56:22Z</time>
      </trkpt>
      <trkpt lat="44.38578" lon="3.86996">
        <ele>1431.8</ele>
        <time>2022-10-29T07:56:23Z</time>
      </trkpt>
      <trkpt lat="44.38578" lon="3.86993">
        <ele>1432</ele>
        <time>2022-10-29T07:56:24Z</time>
      </trkpt>
      <trkpt lat="44.38578" lon="3.8699">
        <ele>1432.2</ele>
        <time>2022-10-29T07:56:25Z</time>
      </trkpt>
      <trkpt lat="44.38578" lon="3.86986">
        <ele>1432.4</ele>
        <time>2022-10-29T07:56:26Z</time>
      </trkpt>
      <trkpt lat="44.38577" lon="3.86983">
        <ele>1432.6</ele>
        <time>2022-10-29T07:56:27Z</time>
      </trkpt>
      <trkpt lat="44.38576" lon="3.86979">
        <ele>1432.8</ele>
        <time>2022-10-29T07:56:28Z</time>
      </trkpt>
      <trkpt lat="44.38576" lon="3.86976">
        <ele>1433.2</ele>
        <time>2022-10-29T07:56:29Z</time>
      </trkpt>
      <trkpt lat="44.38577" lon="3.86972">
        <ele>1433.4</ele>
        <time>2022-10-29T07:56:30Z</time>
      </trkpt>
      <trkpt lat="44.38577" lon="3.86969">
        <ele>1433.6</ele>
        <time>2022-10-29T07:56:31Z</time>
      </trkpt>
      <trkpt lat="44.38578" lon="3.86966">
        <ele>1434</ele>
        <time>2022-10-29T07:56:32Z</time>
      </trkpt>
      <trkpt lat="44.38578" lon="3.86963">
        <ele>1434.2</ele>
        <time>2022-10-29T07:56:33Z</time>
      </trkpt>
      <trkpt lat="44.3858" lon="3.86959">
        <ele>1434.4</ele>
        <time>2022-10-29T07:56:34Z</time>
      </trkpt>
      <trkpt lat="44.3858" lon="3.86956">
        <ele>1434.6</ele>
        <time>2022-10-29T07:56:35Z</time>
      </trkpt>
      <trkpt lat="44.3858" lon="3.86953">
        <ele>1434.8</ele>
        <time>2022-10-29T07:56:36Z</time>
      </trkpt>
      <trkpt lat="44.3858" lon="3.86949">
        <ele>1435</ele>
        <time>2022-10-29T07:56:37Z</time>
      </trkpt>
      <trkpt lat="44.3858" lon="3.86946">
        <ele>1435</ele>
        <time>2022-10-29T07:56:38Z</time>
      </trkpt>
      <trkpt lat="44.3858" lon="3.86942">
        <ele>1435</ele>
        <time>2022-10-29T07:56:39Z</time>
      </trkpt>
      <trkpt lat="44.3858" lon="3.86938">
        <ele>1435</ele>
        <time>2022-10-29T07:56:40Z</time>
      </trkpt>
      <trkpt lat="44.38579" lon="3.86934">
        <ele>1435</ele>
        <time>2022-10-29T07:56:41Z</time>
      </trkpt>
      <trkpt lat="44.38578" lon="3.86929">
        <ele>1434.8</ele>
        <time>2022-10-29T07:56:42Z</time>
      </trkpt>
      <trkpt lat="44.38578" lon="3.86923">
        <ele>1434.4</ele>
        <time>2022-10-29T07:56:43Z</time>
      </trkpt>
      <trkpt lat="44.38577" lon="3.86916">
        <ele>1434.2</ele>
        <time>2022-10-29T07:56:44Z</time>
      </trkpt>
      <trkpt lat="44.38576" lon="3.8691">
        <ele>1433.8</ele>
        <time>2022-10-29T07:56:45Z</time>
      </trkpt>
      <trkpt lat="44.38574" lon="3.86903">
        <ele>1433.4</ele>
        <time>2022-10-29T07:56:46Z</time>
      </trkpt>
      <trkpt lat="44.38573" lon="3.86896">
        <ele>1433</ele>
        <time>2022-10-29T07:56:47Z</time>
      </trkpt>
      <trkpt lat="44.38573" lon="3.86889">
        <ele>1432.8</ele>
        <time>2022-10-29T07:56:48Z</time>
      </trkpt>
      <trkpt lat="44.38574" lon="3.86881">
        <ele>1432.6</ele>
        <time>2022-10-29T07:56:49Z</time>
      </trkpt>
      <trkpt lat="44.38574" lon="3.86873">
        <ele>1432.2</ele>
        <time>2022-10-29T07:56:50Z</time>
      </trkpt>
      <trkpt lat="44.38575" lon="3.86866">
        <ele>1432</ele>
        <time>2022-10-29T07:56:51Z</time>
      </trkpt>
      <trkpt lat="44.38577" lon="3.86858">
        <ele>1431.8</ele>
        <time>2022-10-29T07:56:52Z</time>
      </trkpt>
      <trkpt lat="44.3858" lon="3.86852">
        <ele>1431.6</ele>
        <time>2022-10-29T07:56:53Z</time>
      </trkpt>
      <trkpt lat="44.38582" lon="3.86846">
        <ele>1431.6</ele>
        <time>2022-10-29T07:56:54Z</time>
      </trkpt>
      <trkpt lat="44.38584" lon="3.8684">
        <ele>1431.6</ele>
        <time>2022-10-29T07:56:55Z</time>
      </trkpt>
      <trkpt lat="44.38586" lon="3.86835">
        <ele>1431.6</ele>
        <time>2022-10-29T07:56:56Z</time>
      </trkpt>
      <trkpt lat="44.38587" lon="3.8683">
        <ele>1431.6</ele>
        <time>2022-10-29T07:56:57Z</time>
      </trkpt>
      <trkpt lat="44.38588" lon="3.86825">
        <ele>1431.6</ele>
        <time>2022-10-29T07:56:58Z</time>
      </trkpt>
      <trkpt lat="44.38588" lon="3.8682">
        <ele>1431.8</ele>
        <time>2022-10-29T07:56:59Z</time>
      </trkpt>
      <trkpt lat="44.38588" lon="3.86815">
        <ele>1431.8</ele>
        <time>2022-10-29T07:57:00Z</time>
      </trkpt>
      <trkpt lat="44.38587" lon="3.8681">
        <ele>1431.8</ele>
        <time>2022-10-29T07:57:01Z</time>
      </trkpt>
      <trkpt lat="44.38586" lon="3.86805">
        <ele>1432</ele>
        <time>2022-10-29T07:57:02Z</time>
      </trkpt>
      <trkpt lat="44.38585" lon="3.868">
        <ele>1432</ele>
        <time>2022-10-29T07:57:03Z</time>
      </trkpt>
      <trkpt lat="44.38583" lon="3.86796">
        <ele>1432</ele>
        <time>2022-10-29T07:57:04Z</time>
      </trkpt>
      <trkpt lat="44.38581" lon="3.86793">
        <ele>1432</ele>
        <time>2022-10-29T07:57:05Z</time>
      </trkpt>
      <trkpt lat="44.38578" lon="3.86789">
        <ele>1432</ele>
        <time>2022-10-29T07:57:06Z</time>
      </trkpt>
      <trkpt lat="44.38575" lon="3.86785">
        <ele>1432</ele>
        <time>2022-10-29T07:57:07Z</time>
      </trkpt>
      <trkpt lat="44.38571" lon="3.86781">
        <ele>1432</ele>
        <time>2022-10-29T07:57:08Z</time>
      </trkpt>
      <trkpt lat="44.38568" lon="3.86778">
        <ele>1432</ele>
        <time>2022-10-29T07:57:09Z</time>
      </trkpt>
      <trkpt lat="44.38565" lon="3.86774">
        <ele>1431.8</ele>
        <time>2022-10-29T07:57:10Z</time>
      </trkpt>
      <trkpt lat="44.38563" lon="3.86769">
        <ele>1431.8</ele>
        <time>2022-10-29T07:57:11Z</time>
      </trkpt>
      <trkpt lat="44.3856" lon="3.86765">
        <ele>1431.8</ele>
        <time>2022-10-29T07:57:12Z</time>
      </trkpt>
      <trkpt lat="44.38557" lon="3.86761">
        <ele>1431.8</ele>
        <time>2022-10-29T07:57:13Z</time>
      </trkpt>
      <trkpt lat="44.38554" lon="3.86757">
        <ele>1431.6</ele>
        <time>2022-10-29T07:57:14Z</time>
      </trkpt>
      <trkpt lat="44.38551" lon="3.86752">
        <ele>1431.4</ele>
        <time>2022-10-29T07:57:15Z</time>
      </trkpt>
      <trkpt lat="44.38548" lon="3.86748">
        <ele>1431.4</ele>
        <time>2022-10-29T07:57:16Z</time>
      </trkpt>
      <trkpt lat="44.38544" lon="3.86743">
        <ele>1431.2</ele>
        <time>2022-10-29T07:57:17Z</time>
      </trkpt>
      <trkpt lat="44.38541" lon="3.86738">
        <ele>1431</ele>
        <time>2022-10-29T07:57:18Z</time>
      </trkpt>
      <trkpt lat="44.38537" lon="3.86734">
        <ele>1430.8</ele>
        <time>2022-10-29T07:57:19Z</time>
      </trkpt>
      <trkpt lat="44.38533" lon="3.8673">
        <ele>1430.8</ele>
        <time>2022-10-29T07:57:20Z</time>
      </trkpt>
      <trkpt lat="44.38529" lon="3.86725">
        <ele>1430.8</ele>
        <time>2022-10-29T07:57:21Z</time>
      </trkpt>
      <trkpt lat="44.38526" lon="3.86721">
        <ele>1430.6</ele>
        <time>2022-10-29T07:57:22Z</time>
      </trkpt>
      <trkpt lat="44.38522" lon="3.86716">
        <ele>1430.4</ele>
        <time>2022-10-29T07:57:23Z</time>
      </trkpt>
      <trkpt lat="44.38518" lon="3.86712">
        <ele>1430.4</ele>
        <time>2022-10-29T07:57:24Z</time>
      </trkpt>
      <trkpt lat="44.38514" lon="3.86708">
        <ele>1430.4</ele>
        <time>2022-10-29T07:57:25Z</time>
      </trkpt>
      <trkpt lat="44.38511" lon="3.86705">
        <ele>1430.2</ele>
        <time>2022-10-29T07:57:26Z</time>
      </trkpt>
      <trkpt lat="44.38507" lon="3.86701">
        <ele>1430.2</ele>
        <time>2022-10-29T07:57:27Z</time>
      </trkpt>
      <trkpt lat="44.38504" lon="3.86697">
        <ele>1430</ele>
        <time>2022-10-29T07:57:28Z</time>
      </trkpt>
      <trkpt lat="44.38501" lon="3.86694">
        <ele>1430</ele>
        <time>2022-10-29T07:57:29Z</time>
      </trkpt>
      <trkpt lat="44.38498" lon="3.8669">
        <ele>1430</ele>
        <time>2022-10-29T07:57:30Z</time>
      </trkpt>
      <trkpt lat="44.38496" lon="3.86686">
        <ele>1429.8</ele>
        <time>2022-10-29T07:57:31Z</time>
      </trkpt>
      <trkpt lat="44.38493" lon="3.86684">
        <ele>1429.8</ele>
        <time>2022-10-29T07:57:32Z</time>
      </trkpt>
      <trkpt lat="44.3849" lon="3.86682">
        <ele>1429.8</ele>
        <time>2022-10-29T07:57:33Z</time>
      </trkpt>
      <trkpt lat="44.38488" lon="3.86679">
        <ele>1429.8</ele>
        <time>2022-10-29T07:57:34Z</time>
      </trkpt>
      <trkpt lat="44.38485" lon="3.86678">
        <ele>1429.6</ele>
        <time>2022-10-29T07:57:35Z</time>
      </trkpt>
      <trkpt lat="44.38481" lon="3.86674">
        <ele>1429.6</ele>
        <time>2022-10-29T07:57:36Z</time>
      </trkpt>
      <trkpt lat="44.38477" lon="3.86671">
        <ele>1429.6</ele>
        <time>2022-10-29T07:57:37Z</time>
      </trkpt>
      <trkpt lat="44.38473" lon="3.86668">
        <ele>1429.6</ele>
        <time>2022-10-29T07:57:38Z</time>
      </trkpt>
      <trkpt lat="44.38469" lon="3.86665">
        <ele>1429.6</ele>
        <time>2022-10-29T07:57:39Z</time>
      </trkpt>
      <trkpt lat="44.38465" lon="3.86661">
        <ele>1429.4</ele>
        <time>2022-10-29T07:57:40Z</time>
      </trkpt>
      <trkpt lat="44.3846" lon="3.86658">
        <ele>1429.4</ele>
        <time>2022-10-29T07:57:41Z</time>
      </trkpt>
      <trkpt lat="44.38456" lon="3.86654">
        <ele>1429.4</ele>
        <time>2022-10-29T07:57:42Z</time>
      </trkpt>
      <trkpt lat="44.38453" lon="3.8665">
        <ele>1429.4</ele>
        <time>2022-10-29T07:57:43Z</time>
      </trkpt>
      <trkpt lat="44.38451" lon="3.86646">
        <ele>1429.4</ele>
        <time>2022-10-29T07:57:44Z</time>
      </trkpt>
      <trkpt lat="44.38448" lon="3.86641">
        <ele>1429.4</ele>
        <time>2022-10-29T07:57:45Z</time>
      </trkpt>
      <trkpt lat="44.38445" lon="3.86636">
        <ele>1429.4</ele>
        <time>2022-10-29T07:57:46Z</time>
      </trkpt>
      <trkpt lat="44.38443" lon="3.86631">
        <ele>1429.4</ele>
        <time>2022-10-29T07:57:47Z</time>
      </trkpt>
      <trkpt lat="44.3844" lon="3.86625">
        <ele>1429.4</ele>
        <time>2022-10-29T07:57:48Z</time>
      </trkpt>
      <trkpt lat="44.38437" lon="3.86619">
        <ele>1429.4</ele>
        <time>2022-10-29T07:57:49Z</time>
      </trkpt>
      <trkpt lat="44.38434" lon="3.86614">
        <ele>1429.6</ele>
        <time>2022-10-29T07:57:50Z</time>
      </trkpt>
      <trkpt lat="44.38431" lon="3.86609">
        <ele>1429.6</ele>
        <time>2022-10-29T07:57:51Z</time>
      </trkpt>
      <trkpt lat="44.38429" lon="3.86603">
        <ele>1429.6</ele>
        <time>2022-10-29T07:57:52Z</time>
      </trkpt>
      <trkpt lat="44.38426" lon="3.86598">
        <ele>1429.8</ele>
        <time>2022-10-29T07:57:53Z</time>
      </trkpt>
      <trkpt lat="44.38423" lon="3.86593">
        <ele>1429.8</ele>
        <time>2022-10-29T07:57:54Z</time>
      </trkpt>
      <trkpt lat="44.3842" lon="3.86588">
        <ele>1429.8</ele>
        <time>2022-10-29T07:57:55Z</time>
      </trkpt>
      <trkpt lat="44.38417" lon="3.86582">
        <ele>1430</ele>
        <time>2022-10-29T07:57:56Z</time>
      </trkpt>
      <trkpt lat="44.38415" lon="3.86577">
        <ele>1430</ele>
        <time>2022-10-29T07:57:57Z</time>
      </trkpt>
      <trkpt lat="44.38413" lon="3.86572">
        <ele>1430.2</ele>
        <time>2022-10-29T07:57:58Z</time>
      </trkpt>
      <trkpt lat="44.38412" lon="3.86566">
        <ele>1430.4</ele>
        <time>2022-10-29T07:57:59Z</time>
      </trkpt>
      <trkpt lat="44.38411" lon="3.8656">
        <ele>1430.4</ele>
        <time>2022-10-29T07:58:00Z</time>
      </trkpt>
      <trkpt lat="44.38411" lon="3.86554">
        <ele>1430.6</ele>
        <time>2022-10-29T07:58:01Z</time>
      </trkpt>
      <trkpt lat="44.38412" lon="3.86548">
        <ele>1430.6</ele>
        <time>2022-10-29T07:58:02Z</time>
      </trkpt>
      <trkpt lat="44.38413" lon="3.86543">
        <ele>1430.8</ele>
        <time>2022-10-29T07:58:03Z</time>
      </trkpt>
      <trkpt lat="44.38414" lon="3.86538">
        <ele>1431</ele>
        <time>2022-10-29T07:58:04Z</time>
      </trkpt>
      <trkpt lat="44.38416" lon="3.86532">
        <ele>1431</ele>
        <time>2022-10-29T07:58:05Z</time>
      </trkpt>
      <trkpt lat="44.38418" lon="3.86528">
        <ele>1431.2</ele>
        <time>2022-10-29T07:58:06Z</time>
      </trkpt>
      <trkpt lat="44.38421" lon="3.86523">
        <ele>1431.2</ele>
        <time>2022-10-29T07:58:07Z</time>
      </trkpt>
      <trkpt lat="44.38423" lon="3.86518">
        <ele>1431.4</ele>
        <time>2022-10-29T07:58:08Z</time>
      </trkpt>
      <trkpt lat="44.38424" lon="3.86513">
        <ele>1431.4</ele>
        <time>2022-10-29T07:58:09Z</time>
      </trkpt>
      <trkpt lat="44.38425" lon="3.86508">
        <ele>1431.6</ele>
        <time>2022-10-29T07:58:10Z</time>
      </trkpt>
      <trkpt lat="44.38426" lon="3.86503">
        <ele>1431.6</ele>
        <time>2022-10-29T07:58:11Z</time>
      </trkpt>
      <trkpt lat="44.38426" lon="3.86498">
        <ele>1431.8</ele>
        <time>2022-10-29T07:58:12Z</time>
      </trkpt>
      <trkpt lat="44.38425" lon="3.86493">
        <ele>1431.8</ele>
        <time>2022-10-29T07:58:13Z</time>
      </trkpt>
      <trkpt lat="44.38425" lon="3.86487">
        <ele>1432</ele>
        <time>2022-10-29T07:58:14Z</time>
      </trkpt>
      <trkpt lat="44.38424" lon="3.86483">
        <ele>1432.2</ele>
        <time>2022-10-29T07:58:15Z</time>
      </trkpt>
      <trkpt lat="44.38424" lon="3.86478">
        <ele>1432.2</ele>
        <time>2022-10-29T07:58:16Z</time>
      </trkpt>
      <trkpt lat="44.38423" lon="3.86474">
        <ele>1432.4</ele>
        <time>2022-10-29T07:58:17Z</time>
      </trkpt>
      <trkpt lat="44.38422" lon="3.86469">
        <ele>1432.4</ele>
        <time>2022-10-29T07:58:18Z</time>
      </trkpt>
      <trkpt lat="44.38422" lon="3.86464">
        <ele>1432.4</ele>
        <time>2022-10-29T07:58:19Z</time>
      </trkpt>
      <trkpt lat="44.38421" lon="3.8646">
        <ele>1432.6</ele>
        <time>2022-10-29T07:58:20Z</time>
      </trkpt>
      <trkpt lat="44.3842" lon="3.86456">
        <ele>1432.8</ele>
        <time>2022-10-29T07:58:21Z</time>
      </trkpt>
      <trkpt lat="44.38419" lon="3.86451">
        <ele>1432.8</ele>
        <time>2022-10-29T07:58:22Z</time>
      </trkpt>
      <trkpt lat="44.38417" lon="3.86447">
        <ele>1433</ele>
        <time>2022-10-29T07:58:23Z</time>
      </trkpt>
      <trkpt lat="44.38416" lon="3.86443">
        <ele>1433</ele>
        <time>2022-10-29T07:58:24Z</time>
      </trkpt>
      <trkpt lat="44.38414" lon="3.86439">
        <ele>1433.2</ele>
        <time>2022-10-29T07:58:25Z</time>
      </trkpt>
      <trkpt lat="44.38413" lon="3.86434">
        <ele>1433.2</ele>
        <time>2022-10-29T07:58:26Z</time>
      </trkpt>
      <trkpt lat="44.38411" lon="3.8643">
        <ele>1433.4</ele>
        <time>2022-10-29T07:58:27Z</time>
      </trkpt>
      <trkpt lat="44.38409" lon="3.86427">
        <ele>1433.4</ele>
        <time>2022-10-29T07:58:28Z</time>
      </trkpt>
      <trkpt lat="44.38407" lon="3.86423">
        <ele>1433.6</ele>
        <time>2022-10-29T07:58:29Z</time>
      </trkpt>
      <trkpt lat="44.38406" lon="3.8642">
        <ele>1433.6</ele>
        <time>2022-10-29T07:58:30Z</time>
      </trkpt>
      <trkpt lat="44.38404" lon="3.86416">
        <ele>1433.8</ele>
        <time>2022-10-29T07:58:31Z</time>
      </trkpt>
      <trkpt lat="44.38401" lon="3.86412">
        <ele>1433.8</ele>
        <time>2022-10-29T07:58:32Z</time>
      </trkpt>
      <trkpt lat="44.38399" lon="3.86408">
        <ele>1434</ele>
        <time>2022-10-29T07:58:33Z</time>
      </trkpt>
      <trkpt lat="44.38398" lon="3.86404">
        <ele>1434</ele>
        <time>2022-10-29T07:58:34Z</time>
      </trkpt>
      <trkpt lat="44.38396" lon="3.864">
        <ele>1434</ele>
        <time>2022-10-29T07:58:35Z</time>
      </trkpt>
      <trkpt lat="44.38395" lon="3.86396">
        <ele>1434.2</ele>
        <time>2022-10-29T07:58:36Z</time>
      </trkpt>
      <trkpt lat="44.38393" lon="3.86392">
        <ele>1434.2</ele>
        <time>2022-10-29T07:58:37Z</time>
      </trkpt>
      <trkpt lat="44.38391" lon="3.86388">
        <ele>1434.2</ele>
        <time>2022-10-29T07:58:38Z</time>
      </trkpt>
      <trkpt lat="44.3839" lon="3.86384">
        <ele>1434.4</ele>
        <time>2022-10-29T07:58:39Z</time>
      </trkpt>
      <trkpt lat="44.38389" lon="3.8638">
        <ele>1434.4</ele>
        <time>2022-10-29T07:58:40Z</time>
      </trkpt>
      <trkpt lat="44.38388" lon="3.86376">
        <ele>1434.6</ele>
        <time>2022-10-29T07:58:41Z</time>
      </trkpt>
      <trkpt lat="44.38386" lon="3.86373">
        <ele>1434.6</ele>
        <time>2022-10-29T07:58:42Z</time>
      </trkpt>
      <trkpt lat="44.38385" lon="3.86368">
        <ele>1434.8</ele>
        <time>2022-10-29T07:58:43Z</time>
      </trkpt>
      <trkpt lat="44.38383" lon="3.86364">
        <ele>1435</ele>
        <time>2022-10-29T07:58:44Z</time>
      </trkpt>
      <trkpt lat="44.38382" lon="3.8636">
        <ele>1435.2</ele>
        <time>2022-10-29T07:58:45Z</time>
      </trkpt>
      <trkpt lat="44.38382" lon="3.86356">
        <ele>1435.2</ele>
        <time>2022-10-29T07:58:46Z</time>
      </trkpt>
      <trkpt lat="44.3838" lon="3.86352">
        <ele>1435.4</ele>
        <time>2022-10-29T07:58:47Z</time>
      </trkpt>
      <trkpt lat="44.38379" lon="3.86348">
        <ele>1435.6</ele>
        <time>2022-10-29T07:58:48Z</time>
      </trkpt>
      <trkpt lat="44.38378" lon="3.86344">
        <ele>1435.8</ele>
        <time>2022-10-29T07:58:49Z</time>
      </trkpt>
      <trkpt lat="44.38377" lon="3.86339">
        <ele>1435.8</ele>
        <time>2022-10-29T07:58:50Z</time>
      </trkpt>
      <trkpt lat="44.38375" lon="3.86336">
        <ele>1436</ele>
        <time>2022-10-29T07:58:51Z</time>
      </trkpt>
      <trkpt lat="44.38374" lon="3.86331">
        <ele>1436</ele>
        <time>2022-10-29T07:58:52Z</time>
      </trkpt>
      <trkpt lat="44.38373" lon="3.86327">
        <ele>1436.2</ele>
        <time>2022-10-29T07:58:53Z</time>
      </trkpt>
      <trkpt lat="44.38371" lon="3.86323">
        <ele>1436.4</ele>
        <time>2022-10-29T07:58:54Z</time>
      </trkpt>
      <trkpt lat="44.3837" lon="3.86319">
        <ele>1436.4</ele>
        <time>2022-10-29T07:58:55Z</time>
      </trkpt>
      <trkpt lat="44.38368" lon="3.86315">
        <ele>1436.6</ele>
        <time>2022-10-29T07:58:56Z</time>
      </trkpt>
      <trkpt lat="44.38366" lon="3.86311">
        <ele>1436.6</ele>
        <time>2022-10-29T07:58:57Z</time>
      </trkpt>
      <trkpt lat="44.38365" lon="3.86308">
        <ele>1436.8</ele>
        <time>2022-10-29T07:58:58Z</time>
      </trkpt>
      <trkpt lat="44.38363" lon="3.86304">
        <ele>1437</ele>
        <time>2022-10-29T07:58:59Z</time>
      </trkpt>
      <trkpt lat="44.38361" lon="3.86301">
        <ele>1437.2</ele>
        <time>2022-10-29T07:59:00Z</time>
      </trkpt>
      <trkpt lat="44.3836" lon="3.86298">
        <ele>1437.4</ele>
        <time>2022-10-29T07:59:01Z</time>
      </trkpt>
      <trkpt lat="44.38358" lon="3.86294">
        <ele>1437.4</ele>
        <time>2022-10-29T07:59:02Z</time>
      </trkpt>
      <trkpt lat="44.38357" lon="3.8629">
        <ele>1437.6</ele>
        <time>2022-10-29T07:59:03Z</time>
      </trkpt>
      <trkpt lat="44.38355" lon="3.86287">
        <ele>1437.6</ele>
        <time>2022-10-29T07:59:04Z</time>
      </trkpt>
      <trkpt lat="44.38353" lon="3.86282">
        <ele>1437.8</ele>
        <time>2022-10-29T07:59:05Z</time>
      </trkpt>
      <trkpt lat="44.38352" lon="3.86279">
        <ele>1438</ele>
        <time>2022-10-29T07:59:06Z</time>
      </trkpt>
      <trkpt lat="44.38351" lon="3.86276">
        <ele>1438</ele>
        <time>2022-10-29T07:59:07Z</time>
      </trkpt>
      <trkpt lat="44.38351" lon="3.86272">
        <ele>1438.2</ele>
        <time>2022-10-29T07:59:08Z</time>
      </trkpt>
      <trkpt lat="44.3835" lon="3.86268">
        <ele>1438.2</ele>
        <time>2022-10-29T07:59:09Z</time>
      </trkpt>
      <trkpt lat="44.38349" lon="3.86264">
        <ele>1438.2</ele>
        <time>2022-10-29T07:59:10Z</time>
      </trkpt>
      <trkpt lat="44.38348" lon="3.86259">
        <ele>1438.2</ele>
        <time>2022-10-29T07:59:11Z</time>
      </trkpt>
      <trkpt lat="44.38348" lon="3.86255">
        <ele>1438.2</ele>
        <time>2022-10-29T07:59:12Z</time>
      </trkpt>
      <trkpt lat="44.38347" lon="3.86249">
        <ele>1438.2</ele>
        <time>2022-10-29T07:59:13Z</time>
      </trkpt>
      <trkpt lat="44.38347" lon="3.86244">
        <ele>1438.2</ele>
        <time>2022-10-29T07:59:14Z</time>
      </trkpt>
      <trkpt lat="44.38347" lon="3.86239">
        <ele>1438.2</ele>
        <time>2022-10-29T07:59:15Z</time>
      </trkpt>
      <trkpt lat="44.38346" lon="3.86233">
        <ele>1438.2</ele>
        <time>2022-10-29T07:59:16Z</time>
      </trkpt>
      <trkpt lat="44.38346" lon="3.86228">
        <ele>1438</ele>
        <time>2022-10-29T07:59:17Z</time>
      </trkpt>
      <trkpt lat="44.38346" lon="3.86222">
        <ele>1438</ele>
        <time>2022-10-29T07:59:18Z</time>
      </trkpt>
      <trkpt lat="44.38346" lon="3.86216">
        <ele>1438</ele>
        <time>2022-10-29T07:59:19Z</time>
      </trkpt>
      <trkpt lat="44.38347" lon="3.8621">
        <ele>1438</ele>
        <time>2022-10-29T07:59:20Z</time>
      </trkpt>
      <trkpt lat="44.38347" lon="3.86204">
        <ele>1437.8</ele>
        <time>2022-10-29T07:59:21Z</time>
      </trkpt>
      <trkpt lat="44.38348" lon="3.86198">
        <ele>1437.8</ele>
        <time>2022-10-29T07:59:22Z</time>
      </trkpt>
      <trkpt lat="44.38348" lon="3.86191">
        <ele>1437.6</ele>
        <time>2022-10-29T07:59:23Z</time>
      </trkpt>
      <trkpt lat="44.38349" lon="3.86185">
        <ele>1437.4</ele>
        <time>2022-10-29T07:59:24Z</time>
      </trkpt>
      <trkpt lat="44.38349" lon="3.86178">
        <ele>1437</ele>
        <time>2022-10-29T07:59:25Z</time>
      </trkpt>
      <trkpt lat="44.38351" lon="3.86173">
        <ele>1436.8</ele>
        <time>2022-10-29T07:59:26Z</time>
      </trkpt>
      <trkpt lat="44.38352" lon="3.86166">
        <ele>1436.6</ele>
        <time>2022-10-29T07:59:27Z</time>
      </trkpt>
      <trkpt lat="44.38353" lon="3.8616">
        <ele>1436.2</ele>
        <time>2022-10-29T07:59:28Z</time>
      </trkpt>
      <trkpt lat="44.38353" lon="3.86154">
        <ele>1436</ele>
        <time>2022-10-29T07:59:29Z</time>
      </trkpt>
      <trkpt lat="44.38353" lon="3.86148">
        <ele>1435.6</ele>
        <time>2022-10-29T07:59:30Z</time>
      </trkpt>
      <trkpt lat="44.38353" lon="3.86143">
        <ele>1435.4</ele>
        <time>2022-10-29T07:59:31Z</time>
      </trkpt>
      <trkpt lat="44.38353" lon="3.86138">
        <ele>1435</ele>
        <time>2022-10-29T07:59:32Z</time>
      </trkpt>
      <trkpt lat="44.38352" lon="3.86134">
        <ele>1434.8</ele>
        <time>2022-10-29T07:59:33Z</time>
      </trkpt>
      <trkpt lat="44.38352" lon="3.86131">
        <ele>1434.4</ele>
        <time>2022-10-29T07:59:34Z</time>
      </trkpt>
      <trkpt lat="44.38352" lon="3.86129">
        <ele>1434.2</ele>
        <time>2022-10-29T07:59:35Z</time>
      </trkpt>
      <trkpt lat="44.38352" lon="3.86127">
        <ele>1434.2</ele>
        <time>2022-10-29T07:59:36Z</time>
      </trkpt>
      <trkpt lat="44.38353" lon="3.86124">
        <ele>1434</ele>
        <time>2022-10-29T07:59:37Z</time>
      </trkpt>
      <trkpt lat="44.38354" lon="3.86122">
        <ele>1433.8</ele>
        <time>2022-10-29T07:59:38Z</time>
      </trkpt>
      <trkpt lat="44.38356" lon="3.86119">
        <ele>1433.8</ele>
        <time>2022-10-29T07:59:39Z</time>
      </trkpt>
      <trkpt lat="44.38357" lon="3.86115">
        <ele>1433.6</ele>
        <time>2022-10-29T07:59:40Z</time>
      </trkpt>
      <trkpt lat="44.38359" lon="3.8611">
        <ele>1433.6</ele>
        <time>2022-10-29T07:59:41Z</time>
      </trkpt>
      <trkpt lat="44.3836" lon="3.86104">
        <ele>1433.6</ele>
        <time>2022-10-29T07:59:42Z</time>
      </trkpt>
      <trkpt lat="44.38361" lon="3.86099">
        <ele>1433.6</ele>
        <time>2022-10-29T07:59:43Z</time>
      </trkpt>
      <trkpt lat="44.38361" lon="3.86093">
        <ele>1433.4</ele>
        <time>2022-10-29T07:59:44Z</time>
      </trkpt>
      <trkpt lat="44.38362" lon="3.86087">
        <ele>1433.2</ele>
        <time>2022-10-29T07:59:45Z</time>
      </trkpt>
      <trkpt lat="44.38362" lon="3.8608">
        <ele>1433.2</ele>
        <time>2022-10-29T07:59:46Z</time>
      </trkpt>
      <trkpt lat="44.38362" lon="3.86074">
        <ele>1433</ele>
        <time>2022-10-29T07:59:47Z</time>
      </trkpt>
      <trkpt lat="44.38362" lon="3.86067">
        <ele>1433</ele>
        <time>2022-10-29T07:59:48Z</time>
      </trkpt>
      <trkpt lat="44.38362" lon="3.86061">
        <ele>1432.8</ele>
        <time>2022-10-29T07:59:49Z</time>
      </trkpt>
      <trkpt lat="44.38362" lon="3.86054">
        <ele>1432.8</ele>
        <time>2022-10-29T07:59:50Z</time>
      </trkpt>
      <trkpt lat="44.38362" lon="3.86048">
        <ele>1432.6</ele>
        <time>2022-10-29T07:59:51Z</time>
      </trkpt>
      <trkpt lat="44.38362" lon="3.86044">
        <ele>1432.4</ele>
        <time>2022-10-29T07:59:52Z</time>
      </trkpt>
      <trkpt lat="44.38363" lon="3.86041">
        <ele>1432.2</ele>
        <time>2022-10-29T07:59:53Z</time>
      </trkpt>
      <trkpt lat="44.38364" lon="3.86037">
        <ele>1432.2</ele>
        <time>2022-10-29T07:59:54Z</time>
      </trkpt>
      <trkpt lat="44.38364" lon="3.86033">
        <ele>1432</ele>
        <time>2022-10-29T07:59:55Z</time>
      </trkpt>
      <trkpt lat="44.38364" lon="3.86029">
        <ele>1431.8</ele>
        <time>2022-10-29T07:59:56Z</time>
      </trkpt>
      <trkpt lat="44.38363" lon="3.86026">
        <ele>1431.8</ele>
        <time>2022-10-29T07:59:57Z</time>
      </trkpt>
      <trkpt lat="44.38363" lon="3.86022">
        <ele>1431.8</ele>
        <time>2022-10-29T07:59:58Z</time>
      </trkpt>
      <trkpt lat="44.38363" lon="3.86018">
        <ele>1431.8</ele>
        <time>2022-10-29T07:59:59Z</time>
      </trkpt>
      <trkpt lat="44.38363" lon="3.86014">
        <ele>1431.8</ele>
        <time>2022-10-29T08:00:00Z</time>
      </trkpt>
      <trkpt lat="44.38363" lon="3.86009">
        <ele>1432</ele>
        <time>2022-10-29T08:00:01Z</time>
      </trkpt>
      <trkpt lat="44.38363" lon="3.86005">
        <ele>1432</ele>
        <time>2022-10-29T08:00:02Z</time>
      </trkpt>
      <trkpt lat="44.38364" lon="3.86">
        <ele>1432</ele>
        <time>2022-10-29T08:00:03Z</time>
      </trkpt>
      <trkpt lat="44.38364" lon="3.85994">
        <ele>1432</ele>
        <time>2022-10-29T08:00:04Z</time>
      </trkpt>
      <trkpt lat="44.38364" lon="3.85989">
        <ele>1432</ele>
        <time>2022-10-29T08:00:05Z</time>
      </trkpt>
      <trkpt lat="44.38364" lon="3.85983">
        <ele>1432.2</ele>
        <time>2022-10-29T08:00:06Z</time>
      </trkpt>
      <trkpt lat="44.38364" lon="3.85978">
        <ele>1432.2</ele>
        <time>2022-10-29T08:00:07Z</time>
      </trkpt>
      <trkpt lat="44.38364" lon="3.85973">
        <ele>1432.2</ele>
        <time>2022-10-29T08:00:08Z</time>
      </trkpt>
      <trkpt lat="44.38364" lon="3.85968">
        <ele>1432.2</ele>
        <time>2022-10-29T08:00:09Z</time>
      </trkpt>
      <trkpt lat="44.38365" lon="3.85962">
        <ele>1432.2</ele>
        <time>2022-10-29T08:00:10Z</time>
      </trkpt>
      <trkpt lat="44.38365" lon="3.85957">
        <ele>1432.2</ele>
        <time>2022-10-29T08:00:11Z</time>
      </trkpt>
      <trkpt lat="44.38365" lon="3.85952">
        <ele>1432.4</ele>
        <time>2022-10-29T08:00:12Z</time>
      </trkpt>
      <trkpt lat="44.38365" lon="3.85947">
        <ele>1432.4</ele>
        <time>2022-10-29T08:00:13Z</time>
      </trkpt>
      <trkpt lat="44.38366" lon="3.85941">
        <ele>1432.6</ele>
        <time>2022-10-29T08:00:14Z</time>
      </trkpt>
      <trkpt lat="44.38366" lon="3.85936">
        <ele>1432.6</ele>
        <time>2022-10-29T08:00:15Z</time>
      </trkpt>
      <trkpt lat="44.38366" lon="3.8593">
        <ele>1432.6</ele>
        <time>2022-10-29T08:00:16Z</time>
      </trkpt>
      <trkpt lat="44.38366" lon="3.85925">
        <ele>1432.8</ele>
        <time>2022-10-29T08:00:17Z</time>
      </trkpt>
      <trkpt lat="44.38366" lon="3.85919">
        <ele>1432.8</ele>
        <time>2022-10-29T08:00:18Z</time>
      </trkpt>
      <trkpt lat="44.38366" lon="3.85914">
        <ele>1432.8</ele>
        <time>2022-10-29T08:00:19Z</time>
      </trkpt>
      <trkpt lat="44.38366" lon="3.85908">
        <ele>1432.8</ele>
        <time>2022-10-29T08:00:20Z</time>
      </trkpt>
      <trkpt lat="44.38367" lon="3.85903">
        <ele>1432.8</ele>
        <time>2022-10-29T08:00:21Z</time>
      </trkpt>
      <trkpt lat="44.38367" lon="3.85898">
        <ele>1432.8</ele>
        <time>2022-10-29T08:00:22Z</time>
      </trkpt>
      <trkpt lat="44.38367" lon="3.85892">
        <ele>1432.8</ele>
        <time>2022-10-29T08:00:23Z</time>
      </trkpt>
      <trkpt lat="44.38366" lon="3.85887">
        <ele>1433</ele>
        <time>2022-10-29T08:00:24Z</time>
      </trkpt>
      <trkpt lat="44.38366" lon="3.85881">
        <ele>1433</ele>
        <time>2022-10-29T08:00:25Z</time>
      </trkpt>
      <trkpt lat="44.38366" lon="3.85875">
        <ele>1433.2</ele>
        <time>2022-10-29T08:00:26Z</time>
      </trkpt>
      <trkpt lat="44.38366" lon="3.8587">
        <ele>1433.2</ele>
        <time>2022-10-29T08:00:27Z</time>
      </trkpt>
      <trkpt lat="44.38367" lon="3.85864">
        <ele>1433.2</ele>
        <time>2022-10-29T08:00:28Z</time>
      </trkpt>
      <trkpt lat="44.38367" lon="3.85858">
        <ele>1433.2</ele>
        <time>2022-10-29T08:00:29Z</time>
      </trkpt>
      <trkpt lat="44.38367" lon="3.85853">
        <ele>1433.2</ele>
        <time>2022-10-29T08:00:30Z</time>
      </trkpt>
      <trkpt lat="44.38367" lon="3.85848">
        <ele>1433.2</ele>
        <time>2022-10-29T08:00:31Z</time>
      </trkpt>
      <trkpt lat="44.38368" lon="3.85843">
        <ele>1433.2</ele>
        <time>2022-10-29T08:00:32Z</time>
      </trkpt>
      <trkpt lat="44.38368" lon="3.85837">
        <ele>1433.4</ele>
        <time>2022-10-29T08:00:33Z</time>
      </trkpt>
      <trkpt lat="44.38368" lon="3.85831">
        <ele>1433.4</ele>
        <time>2022-10-29T08:00:34Z</time>
      </trkpt>
      <trkpt lat="44.38368" lon="3.85825">
        <ele>1433.4</ele>
        <time>2022-10-29T08:00:35Z</time>
      </trkpt>
      <trkpt lat="44.38368" lon="3.85819">
        <ele>1433.4</ele>
        <time>2022-10-29T08:00:36Z</time>
      </trkpt>
      <trkpt lat="44.38368" lon="3.85812">
        <ele>1433.2</ele>
        <time>2022-10-29T08:00:37Z</time>
      </trkpt>
      <trkpt lat="44.38368" lon="3.85807">
        <ele>1433.2</ele>
        <time>2022-10-29T08:00:38Z</time>
      </trkpt>
      <trkpt lat="44.38368" lon="3.85801">
        <ele>1433.2</ele>
        <time>2022-10-29T08:00:39Z</time>
      </trkpt>
      <trkpt lat="44.38368" lon="3.85795">
        <ele>1433</ele>
        <time>2022-10-29T08:00:40Z</time>
      </trkpt>
      <trkpt lat="44.38368" lon="3.85789">
        <ele>1433</ele>
        <time>2022-10-29T08:00:41Z</time>
      </trkpt>
      <trkpt lat="44.38369" lon="3.85783">
        <ele>1433</ele>
        <time>2022-10-29T08:00:42Z</time>
      </trkpt>
      <trkpt lat="44.38369" lon="3.85777">
        <ele>1432.8</ele>
        <time>2022-10-29T08:00:43Z</time>
      </trkpt>
      <trkpt lat="44.38369" lon="3.85771">
        <ele>1432.8</ele>
        <time>2022-10-29T08:00:44Z</time>
      </trkpt>
      <trkpt lat="44.38369" lon="3.85765">
        <ele>1432.8</ele>
        <time>2022-10-29T08:00:45Z</time>
      </trkpt>
      <trkpt lat="44.38369" lon="3.85759">
        <ele>1432.8</ele>
        <time>2022-10-29T08:00:46Z</time>
      </trkpt>
      <trkpt lat="44.38369" lon="3.85753">
        <ele>1432.8</ele>
        <time>2022-10-29T08:00:47Z</time>
      </trkpt>
      <trkpt lat="44.38369" lon="3.85747">
        <ele>1432.8</ele>
        <time>2022-10-29T08:00:48Z</time>
      </trkpt>
      <trkpt lat="44.38369" lon="3.85741">
        <ele>1432.8</ele>
        <time>2022-10-29T08:00:49Z</time>
      </trkpt>
      <trkpt lat="44.38369" lon="3.85736">
        <ele>1432.8</ele>
        <time>2022-10-29T08:00:50Z</time>
      </trkpt>
      <trkpt lat="44.38369" lon="3.85731">
        <ele>1432.6</ele>
        <time>2022-10-29T08:00:51Z</time>
      </trkpt>
      <trkpt lat="44.38369" lon="3.85726">
        <ele>1432.6</ele>
        <time>2022-10-29T08:00:52Z</time>
      </trkpt>
      <trkpt lat="44.38369" lon="3.85721">
        <ele>1432.8</ele>
        <time>2022-10-29T08:00:53Z</time>
      </trkpt>
      <trkpt lat="44.38369" lon="3.85717">
        <ele>1432.8</ele>
        <time>2022-10-29T08:00:54Z</time>
      </trkpt>
      <trkpt lat="44.38368" lon="3.85712">
        <ele>1432.8</ele>
        <time>2022-10-29T08:00:55Z</time>
      </trkpt>
      <trkpt lat="44.38368" lon="3.85707">
        <ele>1432.8</ele>
        <time>2022-10-29T08:00:56Z</time>
      </trkpt>
      <trkpt lat="44.38368" lon="3.85702">
        <ele>1432.6</ele>
        <time>2022-10-29T08:00:57Z</time>
      </trkpt>
      <trkpt lat="44.38367" lon="3.85698">
        <ele>1432.6</ele>
        <time>2022-10-29T08:00:58Z</time>
      </trkpt>
      <trkpt lat="44.38367" lon="3.85694">
        <ele>1432.6</ele>
        <time>2022-10-29T08:00:59Z</time>
      </trkpt>
      <trkpt lat="44.38367" lon="3.8569">
        <ele>1432.6</ele>
        <time>2022-10-29T08:01:00Z</time>
      </trkpt>
      <trkpt lat="44.38366" lon="3.85686">
        <ele>1432.6</ele>
        <time>2022-10-29T08:01:01Z</time>
      </trkpt>
      <trkpt lat="44.38365" lon="3.85682">
        <ele>1432.6</ele>
        <time>2022-10-29T08:01:02Z</time>
      </trkpt>
      <trkpt lat="44.38364" lon="3.85678">
        <ele>1432.6</ele>
        <time>2022-10-29T08:01:03Z</time>
      </trkpt>
      <trkpt lat="44.38363" lon="3.85672">
        <ele>1432.6</ele>
        <time>2022-10-29T08:01:04Z</time>
      </trkpt>
      <trkpt lat="44.38363" lon="3.85667">
        <ele>1432.6</ele>
        <time>2022-10-29T08:01:05Z</time>
      </trkpt>
      <trkpt lat="44.38363" lon="3.85662">
        <ele>1432.8</ele>
        <time>2022-10-29T08:01:06Z</time>
      </trkpt>
      <trkpt lat="44.38362" lon="3.85656">
        <ele>1432.8</ele>
        <time>2022-10-29T08:01:07Z</time>
      </trkpt>
      <trkpt lat="44.38361" lon="3.85651">
        <ele>1433</ele>
        <time>2022-10-29T08:01:08Z</time>
      </trkpt>
      <trkpt lat="44.38361" lon="3.85645">
        <ele>1433</ele>
        <time>2022-10-29T08:01:09Z</time>
      </trkpt>
      <trkpt lat="44.3836" lon="3.85639">
        <ele>1433.2</ele>
        <time>2022-10-29T08:01:10Z</time>
      </trkpt>
      <trkpt lat="44.38359" lon="3.85634">
        <ele>1433.2</ele>
        <time>2022-10-29T08:01:11Z</time>
      </trkpt>
      <trkpt lat="44.38358" lon="3.85629">
        <ele>1433.4</ele>
        <time>2022-10-29T08:01:12Z</time>
      </trkpt>
      <trkpt lat="44.38357" lon="3.85623">
        <ele>1433.4</ele>
        <time>2022-10-29T08:01:13Z</time>
      </trkpt>
      <trkpt lat="44.38355" lon="3.85618">
        <ele>1433.6</ele>
        <time>2022-10-29T08:01:14Z</time>
      </trkpt>
      <trkpt lat="44.38353" lon="3.85613">
        <ele>1433.6</ele>
        <time>2022-10-29T08:01:15Z</time>
      </trkpt>
      <trkpt lat="44.38352" lon="3.85608">
        <ele>1433.6</ele>
        <time>2022-10-29T08:01:16Z</time>
      </trkpt>
      <trkpt lat="44.38349" lon="3.85603">
        <ele>1433.6</ele>
        <time>2022-10-29T08:01:17Z</time>
      </trkpt>
      <trkpt lat="44.38347" lon="3.85598">
        <ele>1433.6</ele>
        <time>2022-10-29T08:01:18Z</time>
      </trkpt>
      <trkpt lat="44.38345" lon="3.85593">
        <ele>1433.8</ele>
        <time>2022-10-29T08:01:19Z</time>
      </trkpt>
      <trkpt lat="44.38344" lon="3.85587">
        <ele>1433.8</ele>
        <time>2022-10-29T08:01:20Z</time>
      </trkpt>
      <trkpt lat="44.38341" lon="3.85582">
        <ele>1433.8</ele>
        <time>2022-10-29T08:01:21Z</time>
      </trkpt>
      <trkpt lat="44.38339" lon="3.85578">
        <ele>1433.8</ele>
        <time>2022-10-29T08:01:22Z</time>
      </trkpt>
      <trkpt lat="44.38336" lon="3.85573">
        <ele>1434</ele>
        <time>2022-10-29T08:01:23Z</time>
      </trkpt>
      <trkpt lat="44.38334" lon="3.85568">
        <ele>1434</ele>
        <time>2022-10-29T08:01:24Z</time>
      </trkpt>
      <trkpt lat="44.38331" lon="3.85562">
        <ele>1434</ele>
        <time>2022-10-29T08:01:25Z</time>
      </trkpt>
      <trkpt lat="44.38329" lon="3.85557">
        <ele>1434.2</ele>
        <time>2022-10-29T08:01:26Z</time>
      </trkpt>
      <trkpt lat="44.38327" lon="3.85552">
        <ele>1434.4</ele>
        <time>2022-10-29T08:01:27Z</time>
      </trkpt>
      <trkpt lat="44.38326" lon="3.85547">
        <ele>1434.4</ele>
        <time>2022-10-29T08:01:28Z</time>
      </trkpt>
      <trkpt lat="44.38324" lon="3.85542">
        <ele>1434.6</ele>
        <time>2022-10-29T08:01:29Z</time>
      </trkpt>
      <trkpt lat="44.38323" lon="3.85536">
        <ele>1434.6</ele>
        <time>2022-10-29T08:01:30Z</time>
      </trkpt>
      <trkpt lat="44.38322" lon="3.85531">
        <ele>1434.6</ele>
        <time>2022-10-29T08:01:31Z</time>
      </trkpt>
      <trkpt lat="44.38321" lon="3.85525">
        <ele>1434.8</ele>
        <time>2022-10-29T08:01:32Z</time>
      </trkpt>
      <trkpt lat="44.38321" lon="3.8552">
        <ele>1435</ele>
        <time>2022-10-29T08:01:33Z</time>
      </trkpt>
      <trkpt lat="44.3832" lon="3.85515">
        <ele>1435.2</ele>
        <time>2022-10-29T08:01:34Z</time>
      </trkpt>
      <trkpt lat="44.38319" lon="3.85511">
        <ele>1435.4</ele>
        <time>2022-10-29T08:01:35Z</time>
      </trkpt>
      <trkpt lat="44.38318" lon="3.85506">
        <ele>1435.6</ele>
        <time>2022-10-29T08:01:36Z</time>
      </trkpt>
      <trkpt lat="44.38317" lon="3.85502">
        <ele>1435.8</ele>
        <time>2022-10-29T08:01:37Z</time>
      </trkpt>
      <trkpt lat="44.38316" lon="3.85498">
        <ele>1436</ele>
        <time>2022-10-29T08:01:38Z</time>
      </trkpt>
      <trkpt lat="44.38315" lon="3.85495">
        <ele>1436.2</ele>
        <time>2022-10-29T08:01:39Z</time>
      </trkpt>
      <trkpt lat="44.38314" lon="3.85491">
        <ele>1436.4</ele>
        <time>2022-10-29T08:01:40Z</time>
      </trkpt>
      <trkpt lat="44.38312" lon="3.85487">
        <ele>1436.6</ele>
        <time>2022-10-29T08:01:41Z</time>
      </trkpt>
      <trkpt lat="44.38311" lon="3.85483">
        <ele>1436.8</ele>
        <time>2022-10-29T08:01:42Z</time>
      </trkpt>
      <trkpt lat="44.38309" lon="3.85478">
        <ele>1437</ele>
        <time>2022-10-29T08:01:43Z</time>
      </trkpt>
      <trkpt lat="44.38308" lon="3.85474">
        <ele>1437.2</ele>
        <time>2022-10-29T08:01:44Z</time>
      </trkpt>
      <trkpt lat="44.38307" lon="3.8547">
        <ele>1437.4</ele>
        <time>2022-10-29T08:01:45Z</time>
      </trkpt>
      <trkpt lat="44.38306" lon="3.85466">
        <ele>1437.8</ele>
        <time>2022-10-29T08:01:46Z</time>
      </trkpt>
      <trkpt lat="44.38305" lon="3.85461">
        <ele>1438</ele>
        <time>2022-10-29T08:01:47Z</time>
      </trkpt>
      <trkpt lat="44.38304" lon="3.85457">
        <ele>1438</ele>
        <time>2022-10-29T08:01:48Z</time>
      </trkpt>
      <trkpt lat="44.38303" lon="3.85453">
        <ele>1438.2</ele>
        <time>2022-10-29T08:01:49Z</time>
      </trkpt>
      <trkpt lat="44.38302" lon="3.85449">
        <ele>1438.4</ele>
        <time>2022-10-29T08:01:50Z</time>
      </trkpt>
      <trkpt lat="44.38301" lon="3.85444">
        <ele>1438.6</ele>
        <time>2022-10-29T08:01:51Z</time>
      </trkpt>
      <trkpt lat="44.38301" lon="3.8544">
        <ele>1438.6</ele>
        <time>2022-10-29T08:01:52Z</time>
      </trkpt>
      <trkpt lat="44.383" lon="3.85436">
        <ele>1438.8</ele>
        <time>2022-10-29T08:01:53Z</time>
      </trkpt>
      <trkpt lat="44.383" lon="3.85431">
        <ele>1439</ele>
        <time>2022-10-29T08:01:54Z</time>
      </trkpt>
      <trkpt lat="44.383" lon="3.85427">
        <ele>1439.2</ele>
        <time>2022-10-29T08:01:55Z</time>
      </trkpt>
      <trkpt lat="44.383" lon="3.85424">
        <ele>1439.4</ele>
        <time>2022-10-29T08:01:56Z</time>
      </trkpt>
      <trkpt lat="44.38299" lon="3.8542">
        <ele>1439.4</ele>
        <time>2022-10-29T08:01:57Z</time>
      </trkpt>
      <trkpt lat="44.38299" lon="3.85416">
        <ele>1439.6</ele>
        <time>2022-10-29T08:01:58Z</time>
      </trkpt>
      <trkpt lat="44.38299" lon="3.85412">
        <ele>1439.8</ele>
        <time>2022-10-29T08:01:59Z</time>
      </trkpt>
      <trkpt lat="44.38298" lon="3.85409">
        <ele>1440</ele>
        <time>2022-10-29T08:02:00Z</time>
      </trkpt>
      <trkpt lat="44.38299" lon="3.85405">
        <ele>1440</ele>
        <time>2022-10-29T08:02:01Z</time>
      </trkpt>
      <trkpt lat="44.38299" lon="3.85401">
        <ele>1440.2</ele>
        <time>2022-10-29T08:02:02Z</time>
      </trkpt>
      <trkpt lat="44.38299" lon="3.85397">
        <ele>1440.2</ele>
        <time>2022-10-29T08:02:03Z</time>
      </trkpt>
      <trkpt lat="44.383" lon="3.85393">
        <ele>1440.4</ele>
        <time>2022-10-29T08:02:04Z</time>
      </trkpt>
      <trkpt lat="44.38301" lon="3.85388">
        <ele>1440.4</ele>
        <time>2022-10-29T08:02:05Z</time>
      </trkpt>
      <trkpt lat="44.38302" lon="3.85384">
        <ele>1440.6</ele>
        <time>2022-10-29T08:02:06Z</time>
      </trkpt>
      <trkpt lat="44.38304" lon="3.8538">
        <ele>1440.6</ele>
        <time>2022-10-29T08:02:07Z</time>
      </trkpt>
      <trkpt lat="44.38306" lon="3.85376">
        <ele>1440.6</ele>
        <time>2022-10-29T08:02:08Z</time>
      </trkpt>
      <trkpt lat="44.38308" lon="3.85373">
        <ele>1440.6</ele>
        <time>2022-10-29T08:02:09Z</time>
      </trkpt>
      <trkpt lat="44.3831" lon="3.85369">
        <ele>1440.6</ele>
        <time>2022-10-29T08:02:10Z</time>
      </trkpt>
      <trkpt lat="44.38313" lon="3.85365">
        <ele>1440.6</ele>
        <time>2022-10-29T08:02:11Z</time>
      </trkpt>
      <trkpt lat="44.38316" lon="3.85361">
        <ele>1440.6</ele>
        <time>2022-10-29T08:02:12Z</time>
      </trkpt>
      <trkpt lat="44.38319" lon="3.85357">
        <ele>1440.4</ele>
        <time>2022-10-29T08:02:13Z</time>
      </trkpt>
      <trkpt lat="44.38322" lon="3.85353">
        <ele>1440.4</ele>
        <time>2022-10-29T08:02:14Z</time>
      </trkpt>
      <trkpt lat="44.38326" lon="3.85349">
        <ele>1440.2</ele>
        <time>2022-10-29T08:02:15Z</time>
      </trkpt>
      <trkpt lat="44.38329" lon="3.85345">
        <ele>1440</ele>
        <time>2022-10-29T08:02:16Z</time>
      </trkpt>
      <trkpt lat="44.38333" lon="3.8534">
        <ele>1439.8</ele>
        <time>2022-10-29T08:02:17Z</time>
      </trkpt>
      <trkpt lat="44.38337" lon="3.85336">
        <ele>1439.6</ele>
        <time>2022-10-29T08:02:18Z</time>
      </trkpt>
      <trkpt lat="44.3834" lon="3.85332">
        <ele>1439.2</ele>
        <time>2022-10-29T08:02:19Z</time>
      </trkpt>
      <trkpt lat="44.38344" lon="3.85328">
        <ele>1439</ele>
        <time>2022-10-29T08:02:20Z</time>
      </trkpt>
      <trkpt lat="44.38348" lon="3.85324">
        <ele>1438.8</ele>
        <time>2022-10-29T08:02:21Z</time>
      </trkpt>
      <trkpt lat="44.38351" lon="3.8532">
        <ele>1438.6</ele>
        <time>2022-10-29T08:02:22Z</time>
      </trkpt>
      <trkpt lat="44.38356" lon="3.85317">
        <ele>1438.4</ele>
        <time>2022-10-29T08:02:23Z</time>
      </trkpt>
      <trkpt lat="44.3836" lon="3.85313">
        <ele>1438.2</ele>
        <time>2022-10-29T08:02:24Z</time>
      </trkpt>
      <trkpt lat="44.38366" lon="3.85309">
        <ele>1438</ele>
        <time>2022-10-29T08:02:25Z</time>
      </trkpt>
      <trkpt lat="44.38371" lon="3.85306">
        <ele>1437.8</ele>
        <time>2022-10-29T08:02:26Z</time>
      </trkpt>
      <trkpt lat="44.38376" lon="3.85302">
        <ele>1437.4</ele>
        <time>2022-10-29T08:02:27Z</time>
      </trkpt>
      <trkpt lat="44.38381" lon="3.85298">
        <ele>1437.2</ele>
        <time>2022-10-29T08:02:28Z</time>
      </trkpt>
      <trkpt lat="44.38385" lon="3.85294">
        <ele>1436.8</ele>
        <time>2022-10-29T08:02:29Z</time>
      </trkpt>
      <trkpt lat="44.38389" lon="3.85289">
        <ele>1436.6</ele>
        <time>2022-10-29T08:02:30Z</time>
      </trkpt>
      <trkpt lat="44.38393" lon="3.85285">
        <ele>1436.2</ele>
        <time>2022-10-29T08:02:31Z</time>
      </trkpt>
      <trkpt lat="44.38396" lon="3.8528">
        <ele>1435.8</ele>
        <time>2022-10-29T08:02:32Z</time>
      </trkpt>
      <trkpt lat="44.384" lon="3.85276">
        <ele>1435.4</ele>
        <time>2022-10-29T08:02:33Z</time>
      </trkpt>
      <trkpt lat="44.38402" lon="3.85273">
        <ele>1435.2</ele>
        <time>2022-10-29T08:02:34Z</time>
      </trkpt>
      <trkpt lat="44.38405" lon="3.8527">
        <ele>1434.8</ele>
        <time>2022-10-29T08:02:35Z</time>
      </trkpt>
      <trkpt lat="44.38408" lon="3.85268">
        <ele>1434.6</ele>
        <time>2022-10-29T08:02:36Z</time>
      </trkpt>
      <trkpt lat="44.3841" lon="3.85266">
        <ele>1434.4</ele>
        <time>2022-10-29T08:02:37Z</time>
      </trkpt>
      <trkpt lat="44.38411" lon="3.85265">
        <ele>1434.2</ele>
        <time>2022-10-29T08:02:38Z</time>
      </trkpt>
      <trkpt lat="44.38413" lon="3.85264">
        <ele>1434</ele>
        <time>2022-10-29T08:02:39Z</time>
      </trkpt>
      <trkpt lat="44.38415" lon="3.85264">
        <ele>1433.6</ele>
        <time>2022-10-29T08:03:05Z</time>
      </trkpt>
      <trkpt lat="44.38415" lon="3.85264">
        <ele>1433.6</ele>
        <time>2022-10-29T08:03:06Z</time>
      </trkpt>
      <trkpt lat="44.38418" lon="3.85263">
        <ele>1433.6</ele>
        <time>2022-10-29T08:03:07Z</time>
      </trkpt>
      <trkpt lat="44.38422" lon="3.85262">
        <ele>1433.4</ele>
        <time>2022-10-29T08:03:08Z</time>
      </trkpt>
      <trkpt lat="44.38427" lon="3.85259">
        <ele>1433.4</ele>
        <time>2022-10-29T08:03:09Z</time>
      </trkpt>
      <trkpt lat="44.38431" lon="3.85256">
        <ele>1433.4</ele>
        <time>2022-10-29T08:03:10Z</time>
      </trkpt>
      <trkpt lat="44.38436" lon="3.85253">
        <ele>1433.4</ele>
        <time>2022-10-29T08:03:11Z</time>
      </trkpt>
      <trkpt lat="44.3844" lon="3.8525">
        <ele>1433.2</ele>
        <time>2022-10-29T08:03:12Z</time>
      </trkpt>
      <trkpt lat="44.38446" lon="3.85248">
        <ele>1433.2</ele>
        <time>2022-10-29T08:03:13Z</time>
      </trkpt>
      <trkpt lat="44.38451" lon="3.85245">
        <ele>1433</ele>
        <time>2022-10-29T08:03:14Z</time>
      </trkpt>
      <trkpt lat="44.38457" lon="3.85244">
        <ele>1432.8</ele>
        <time>2022-10-29T08:03:15Z</time>
      </trkpt>
      <trkpt lat="44.38462" lon="3.85243">
        <ele>1432.8</ele>
        <time>2022-10-29T08:03:16Z</time>
      </trkpt>
      <trkpt lat="44.38467" lon="3.85241">
        <ele>1432.6</ele>
        <time>2022-10-29T08:03:17Z</time>
      </trkpt>
      <trkpt lat="44.38473" lon="3.85237">
        <ele>1432.4</ele>
        <time>2022-10-29T08:03:18Z</time>
      </trkpt>
      <trkpt lat="44.38478" lon="3.85231">
        <ele>1432.2</ele>
        <time>2022-10-29T08:03:19Z</time>
      </trkpt>
      <trkpt lat="44.38481" lon="3.85224">
        <ele>1432.2</ele>
        <time>2022-10-29T08:03:20Z</time>
      </trkpt>
      <trkpt lat="44.38484" lon="3.85216">
        <ele>1432</ele>
        <time>2022-10-29T08:03:21Z</time>
      </trkpt>
      <trkpt lat="44.38485" lon="3.85206">
        <ele>1432</ele>
        <time>2022-10-29T08:03:22Z</time>
      </trkpt>
      <trkpt lat="44.38485" lon="3.85198">
        <ele>1431.8</ele>
        <time>2022-10-29T08:03:23Z</time>
      </trkpt>
      <trkpt lat="44.38485" lon="3.85188">
        <ele>1431.8</ele>
        <time>2022-10-29T08:03:24Z</time>
      </trkpt>
      <trkpt lat="44.38485" lon="3.8518">
        <ele>1431.6</ele>
        <time>2022-10-29T08:03:25Z</time>
      </trkpt>
      <trkpt lat="44.38484" lon="3.85171">
        <ele>1431.6</ele>
        <time>2022-10-29T08:03:26Z</time>
      </trkpt>
      <trkpt lat="44.38482" lon="3.85163">
        <ele>1431.4</ele>
        <time>2022-10-29T08:03:27Z</time>
      </trkpt>
      <trkpt lat="44.38478" lon="3.85155">
        <ele>1431.2</ele>
        <time>2022-10-29T08:03:28Z</time>
      </trkpt>
      <trkpt lat="44.38474" lon="3.8515">
        <ele>1431</ele>
        <time>2022-10-29T08:03:29Z</time>
      </trkpt>
      <trkpt lat="44.38469" lon="3.85145">
        <ele>1430.8</ele>
        <time>2022-10-29T08:03:30Z</time>
      </trkpt>
      <trkpt lat="44.38463" lon="3.8514">
        <ele>1430.6</ele>
        <time>2022-10-29T08:03:31Z</time>
      </trkpt>
      <trkpt lat="44.38458" lon="3.85137">
        <ele>1430.6</ele>
        <time>2022-10-29T08:03:32Z</time>
      </trkpt>
      <trkpt lat="44.38452" lon="3.85133">
        <ele>1430.4</ele>
        <time>2022-10-29T08:03:33Z</time>
      </trkpt>
      <trkpt lat="44.38447" lon="3.8513">
        <ele>1430.2</ele>
        <time>2022-10-29T08:03:34Z</time>
      </trkpt>
      <trkpt lat="44.38441" lon="3.85127">
        <ele>1430</ele>
        <time>2022-10-29T08:03:35Z</time>
      </trkpt>
      <trkpt lat="44.38435" lon="3.85124">
        <ele>1429.8</ele>
        <time>2022-10-29T08:03:36Z</time>
      </trkpt>
      <trkpt lat="44.3843" lon="3.85121">
        <ele>1429.4</ele>
        <time>2022-10-29T08:03:37Z</time>
      </trkpt>
      <trkpt lat="44.38425" lon="3.85119">
        <ele>1429</ele>
        <time>2022-10-29T08:03:38Z</time>
      </trkpt>
      <trkpt lat="44.38421" lon="3.85117">
        <ele>1428.8</ele>
        <time>2022-10-29T08:03:39Z</time>
      </trkpt>
      <trkpt lat="44.38418" lon="3.85116">
        <ele>1428.4</ele>
        <time>2022-10-29T08:03:40Z</time>
      </trkpt>
      <trkpt lat="44.38417" lon="3.85115">
        <ele>1428</ele>
        <time>2022-10-29T08:03:41Z</time>
      </trkpt>
      <trkpt lat="44.38418" lon="3.85114">
        <ele>1427.8</ele>
        <time>2022-10-29T08:03:42Z</time>
      </trkpt>
      <trkpt lat="44.38419" lon="3.85114">
        <ele>1427.8</ele>
        <time>2022-10-29T08:03:43Z</time>
      </trkpt>
      <trkpt lat="44.3842" lon="3.85115">
        <ele>1427.6</ele>
        <time>2022-10-29T08:03:44Z</time>
      </trkpt>
      <trkpt lat="44.38422" lon="3.85116">
        <ele>1427.6</ele>
        <time>2022-10-29T08:03:45Z</time>
      </trkpt>
      <trkpt lat="44.38425" lon="3.85117">
        <ele>1427.6</ele>
        <time>2022-10-29T08:03:46Z</time>
      </trkpt>
      <trkpt lat="44.38427" lon="3.85119">
        <ele>1427.8</ele>
        <time>2022-10-29T08:03:47Z</time>
      </trkpt>
      <trkpt lat="44.38431" lon="3.85121">
        <ele>1427.8</ele>
        <time>2022-10-29T08:03:48Z</time>
      </trkpt>
      <trkpt lat="44.38434" lon="3.85123">
        <ele>1428</ele>
        <time>2022-10-29T08:03:49Z</time>
      </trkpt>
      <trkpt lat="44.38438" lon="3.85126">
        <ele>1428</ele>
        <time>2022-10-29T08:03:50Z</time>
      </trkpt>
      <trkpt lat="44.38442" lon="3.85128">
        <ele>1428.2</ele>
        <time>2022-10-29T08:03:51Z</time>
      </trkpt>
      <trkpt lat="44.38446" lon="3.8513">
        <ele>1428.4</ele>
        <time>2022-10-29T08:03:52Z</time>
      </trkpt>
      <trkpt lat="44.3845" lon="3.85133">
        <ele>1428.6</ele>
        <time>2022-10-29T08:03:53Z</time>
      </trkpt>
      <trkpt lat="44.38454" lon="3.85136">
        <ele>1428.8</ele>
        <time>2022-10-29T08:03:54Z</time>
      </trkpt>
      <trkpt lat="44.38458" lon="3.85138">
        <ele>1428.8</ele>
        <time>2022-10-29T08:03:55Z</time>
      </trkpt>
      <trkpt lat="44.38462" lon="3.85141">
        <ele>1429</ele>
        <time>2022-10-29T08:03:56Z</time>
      </trkpt>
      <trkpt lat="44.38466" lon="3.85144">
        <ele>1429.2</ele>
        <time>2022-10-29T08:03:57Z</time>
      </trkpt>
      <trkpt lat="44.38469" lon="3.85148">
        <ele>1429.2</ele>
        <time>2022-10-29T08:03:58Z</time>
      </trkpt>
      <trkpt lat="44.38472" lon="3.85152">
        <ele>1429.4</ele>
        <time>2022-10-29T08:03:59Z</time>
      </trkpt>
      <trkpt lat="44.38476" lon="3.85156">
        <ele>1429.6</ele>
        <time>2022-10-29T08:04:00Z</time>
      </trkpt>
      <trkpt lat="44.38478" lon="3.85161">
        <ele>1429.8</ele>
        <time>2022-10-29T08:04:01Z</time>
      </trkpt>
      <trkpt lat="44.3848" lon="3.85167">
        <ele>1429.8</ele>
        <time>2022-10-29T08:04:02Z</time>
      </trkpt>
      <trkpt lat="44.38482" lon="3.85172">
        <ele>1430</ele>
        <time>2022-10-29T08:04:03Z</time>
      </trkpt>
      <trkpt lat="44.38483" lon="3.85178">
        <ele>1430</ele>
        <time>2022-10-29T08:04:04Z</time>
      </trkpt>
      <trkpt lat="44.38483" lon="3.85184">
        <ele>1430.2</ele>
        <time>2022-10-29T08:04:05Z</time>
      </trkpt>
      <trkpt lat="44.38483" lon="3.8519">
        <ele>1430.4</ele>
        <time>2022-10-29T08:04:06Z</time>
      </trkpt>
      <trkpt lat="44.38483" lon="3.85196">
        <ele>1430.4</ele>
        <time>2022-10-29T08:04:07Z</time>
      </trkpt>
      <trkpt lat="44.38483" lon="3.85202">
        <ele>1430.6</ele>
        <time>2022-10-29T08:04:08Z</time>
      </trkpt>
      <trkpt lat="44.38482" lon="3.85207">
        <ele>1430.6</ele>
        <time>2022-10-29T08:04:09Z</time>
      </trkpt>
      <trkpt lat="44.38481" lon="3.85213">
        <ele>1430.8</ele>
        <time>2022-10-29T08:04:10Z</time>
      </trkpt>
      <trkpt lat="44.38481" lon="3.85219">
        <ele>1431</ele>
        <time>2022-10-29T08:04:11Z</time>
      </trkpt>
      <trkpt lat="44.3848" lon="3.85224">
        <ele>1431</ele>
        <time>2022-10-29T08:04:12Z</time>
      </trkpt>
      <trkpt lat="44.38478" lon="3.85229">
        <ele>1431.2</ele>
        <time>2022-10-29T08:04:13Z</time>
      </trkpt>
      <trkpt lat="44.38476" lon="3.85232">
        <ele>1431.4</ele>
        <time>2022-10-29T08:04:14Z</time>
      </trkpt>
      <trkpt lat="44.38473" lon="3.85236">
        <ele>1431.6</ele>
        <time>2022-10-29T08:04:15Z</time>
      </trkpt>
      <trkpt lat="44.38469" lon="3.85238">
        <ele>1431.8</ele>
        <time>2022-10-29T08:04:16Z</time>
      </trkpt>
      <trkpt lat="44.38466" lon="3.8524">
        <ele>1432</ele>
        <time>2022-10-29T08:04:17Z</time>
      </trkpt>
      <trkpt lat="44.38462" lon="3.85241">
        <ele>1432</ele>
        <time>2022-10-29T08:04:18Z</time>
      </trkpt>
      <trkpt lat="44.38458" lon="3.85242">
        <ele>1432.2</ele>
        <time>2022-10-29T08:04:19Z</time>
      </trkpt>
      <trkpt lat="44.38455" lon="3.85243">
        <ele>1432.4</ele>
        <time>2022-10-29T08:04:20Z</time>
      </trkpt>
      <trkpt lat="44.38451" lon="3.85244">
        <ele>1432.6</ele>
        <time>2022-10-29T08:04:21Z</time>
      </trkpt>
      <trkpt lat="44.38447" lon="3.85245">
        <ele>1432.6</ele>
        <time>2022-10-29T08:04:22Z</time>
      </trkpt>
      <trkpt lat="44.38443" lon="3.85247">
        <ele>1432.8</ele>
        <time>2022-10-29T08:04:23Z</time>
      </trkpt>
      <trkpt lat="44.3844" lon="3.85248">
        <ele>1433</ele>
        <time>2022-10-29T08:04:24Z</time>
      </trkpt>
      <trkpt lat="44.38436" lon="3.8525">
        <ele>1433.2</ele>
        <time>2022-10-29T08:04:25Z</time>
      </trkpt>
      <trkpt lat="44.38433" lon="3.85252">
        <ele>1433.2</ele>
        <time>2022-10-29T08:04:26Z</time>
      </trkpt>
      <trkpt lat="44.38429" lon="3.85254">
        <ele>1433.4</ele>
        <time>2022-10-29T08:04:27Z</time>
      </trkpt>
      <trkpt lat="44.38426" lon="3.85257">
        <ele>1433.6</ele>
        <time>2022-10-29T08:04:28Z</time>
      </trkpt>
      <trkpt lat="44.38423" lon="3.85259">
        <ele>1433.6</ele>
        <time>2022-10-29T08:04:29Z</time>
      </trkpt>
      <trkpt lat="44.38421" lon="3.85261">
        <ele>1433.8</ele>
        <time>2022-10-29T08:04:30Z</time>
      </trkpt>
      <trkpt lat="44.38418" lon="3.85262">
        <ele>1434</ele>
        <time>2022-10-29T08:04:31Z</time>
      </trkpt>
      <trkpt lat="44.38415" lon="3.85263">
        <ele>1434</ele>
        <time>2022-10-29T08:04:32Z</time>
      </trkpt>
      <trkpt lat="44.38413" lon="3.85264">
        <ele>1434</ele>
        <time>2022-10-29T08:04:33Z</time>
      </trkpt>
      <trkpt lat="44.38412" lon="3.85264">
        <ele>1434</ele>
        <time>2022-10-29T08:04:34Z</time>
      </trkpt>
      <trkpt lat="44.38411" lon="3.85264">
        <ele>1434</ele>
        <time>2022-10-29T08:04:35Z</time>
      </trkpt>
      <trkpt lat="44.38413" lon="3.85265">
        <ele>1434.2</ele>
        <time>2022-10-29T08:04:54Z</time>
      </trkpt>
      <trkpt lat="44.38415" lon="3.85266">
        <ele>1434.2</ele>
        <time>2022-10-29T08:04:55Z</time>
      </trkpt>
      <trkpt lat="44.38418" lon="3.85264">
        <ele>1434.2</ele>
        <time>2022-10-29T08:04:56Z</time>
      </trkpt>
      <trkpt lat="44.38422" lon="3.85262">
        <ele>1434</ele>
        <time>2022-10-29T08:04:57Z</time>
      </trkpt>
      <trkpt lat="44.38425" lon="3.85259">
        <ele>1434</ele>
        <time>2022-10-29T08:04:58Z</time>
      </trkpt>
      <trkpt lat="44.38429" lon="3.85257">
        <ele>1433.8</ele>
        <time>2022-10-29T08:04:59Z</time>
      </trkpt>
      <trkpt lat="44.38433" lon="3.85254">
        <ele>1433.8</ele>
        <time>2022-10-29T08:05:00Z</time>
      </trkpt>
      <trkpt lat="44.38437" lon="3.85252">
        <ele>1433.6</ele>
        <time>2022-10-29T08:05:01Z</time>
      </trkpt>
      <trkpt lat="44.38441" lon="3.85249">
        <ele>1433.4</ele>
        <time>2022-10-29T08:05:02Z</time>
      </trkpt>
      <trkpt lat="44.38446" lon="3.85247">
        <ele>1433.2</ele>
        <time>2022-10-29T08:05:03Z</time>
      </trkpt>
      <trkpt lat="44.38451" lon="3.85245">
        <ele>1433.2</ele>
        <time>2022-10-29T08:05:04Z</time>
      </trkpt>
      <trkpt lat="44.38456" lon="3.85244">
        <ele>1433</ele>
        <time>2022-10-29T08:05:05Z</time>
      </trkpt>
      <trkpt lat="44.38461" lon="3.85243">
        <ele>1433</ele>
        <time>2022-10-29T08:05:06Z</time>
      </trkpt>
      <trkpt lat="44.38466" lon="3.85241">
        <ele>1432.8</ele>
        <time>2022-10-29T08:05:07Z</time>
      </trkpt>
      <trkpt lat="44.38471" lon="3.85238">
        <ele>1432.6</ele>
        <time>2022-10-29T08:05:08Z</time>
      </trkpt>
      <trkpt lat="44.38475" lon="3.85234">
        <ele>1432.6</ele>
        <time>2022-10-29T08:05:09Z</time>
      </trkpt>
      <trkpt lat="44.3848" lon="3.85228">
        <ele>1432.4</ele>
        <time>2022-10-29T08:05:10Z</time>
      </trkpt>
      <trkpt lat="44.38482" lon="3.85221">
        <ele>1432.4</ele>
        <time>2022-10-29T08:05:11Z</time>
      </trkpt>
      <trkpt lat="44.38484" lon="3.85212">
        <ele>1432.2</ele>
        <time>2022-10-29T08:05:12Z</time>
      </trkpt>
      <trkpt lat="44.38485" lon="3.85203">
        <ele>1432</ele>
        <time>2022-10-29T08:05:13Z</time>
      </trkpt>
      <trkpt lat="44.38485" lon="3.85195">
        <ele>1431.8</ele>
        <time>2022-10-29T08:05:14Z</time>
      </trkpt>
      <trkpt lat="44.38485" lon="3.85186">
        <ele>1431.8</ele>
        <time>2022-10-29T08:05:15Z</time>
      </trkpt>
      <trkpt lat="44.38484" lon="3.85178">
        <ele>1431.6</ele>
        <time>2022-10-29T08:05:16Z</time>
      </trkpt>
      <trkpt lat="44.38483" lon="3.8517">
        <ele>1431.4</ele>
        <time>2022-10-29T08:05:17Z</time>
      </trkpt>
      <trkpt lat="44.38481" lon="3.85162">
        <ele>1431.2</ele>
        <time>2022-10-29T08:05:18Z</time>
      </trkpt>
      <trkpt lat="44.38478" lon="3.85155">
        <ele>1431.2</ele>
        <time>2022-10-29T08:05:19Z</time>
      </trkpt>
      <trkpt lat="44.38473" lon="3.85149">
        <ele>1431</ele>
        <time>2022-10-29T08:05:20Z</time>
      </trkpt>
      <trkpt lat="44.38469" lon="3.85145">
        <ele>1431</ele>
        <time>2022-10-29T08:05:21Z</time>
      </trkpt>
      <trkpt lat="44.38463" lon="3.8514">
        <ele>1430.8</ele>
        <time>2022-10-29T08:05:22Z</time>
      </trkpt>
      <trkpt lat="44.38458" lon="3.85137">
        <ele>1430.6</ele>
        <time>2022-10-29T08:05:23Z</time>
      </trkpt>
      <trkpt lat="44.38452" lon="3.85134">
        <ele>1430.4</ele>
        <time>2022-10-29T08:05:24Z</time>
      </trkpt>
      <trkpt lat="44.38447" lon="3.85131">
        <ele>1430.4</ele>
        <time>2022-10-29T08:05:25Z</time>
      </trkpt>
      <trkpt lat="44.38441" lon="3.85128">
        <ele>1430.2</ele>
        <time>2022-10-29T08:05:26Z</time>
      </trkpt>
      <trkpt lat="44.38436" lon="3.85125">
        <ele>1430</ele>
        <time>2022-10-29T08:05:27Z</time>
      </trkpt>
      <trkpt lat="44.38431" lon="3.85122">
        <ele>1429.8</ele>
        <time>2022-10-29T08:05:28Z</time>
      </trkpt>
      <trkpt lat="44.38425" lon="3.85119">
        <ele>1429.6</ele>
        <time>2022-10-29T08:05:29Z</time>
      </trkpt>
      <trkpt lat="44.3842" lon="3.85116">
        <ele>1429.4</ele>
        <time>2022-10-29T08:05:30Z</time>
      </trkpt>
      <trkpt lat="44.38415" lon="3.85112">
        <ele>1429.2</ele>
        <time>2022-10-29T08:05:31Z</time>
      </trkpt>
      <trkpt lat="44.38409" lon="3.85108">
        <ele>1429</ele>
        <time>2022-10-29T08:05:32Z</time>
      </trkpt>
      <trkpt lat="44.38404" lon="3.85105">
        <ele>1429</ele>
        <time>2022-10-29T08:05:33Z</time>
      </trkpt>
      <trkpt lat="44.38399" lon="3.85102">
        <ele>1428.8</ele>
        <time>2022-10-29T08:05:34Z</time>
      </trkpt>
      <trkpt lat="44.38394" lon="3.85099">
        <ele>1428.6</ele>
        <time>2022-10-29T08:05:35Z</time>
      </trkpt>
      <trkpt lat="44.38389" lon="3.85097">
        <ele>1428.4</ele>
        <time>2022-10-29T08:05:36Z</time>
      </trkpt>
      <trkpt lat="44.38383" lon="3.85093">
        <ele>1428.4</ele>
        <time>2022-10-29T08:05:37Z</time>
      </trkpt>
      <trkpt lat="44.38378" lon="3.8509">
        <ele>1428.2</ele>
        <time>2022-10-29T08:05:38Z</time>
      </trkpt>
      <trkpt lat="44.38373" lon="3.85087">
        <ele>1428</ele>
        <time>2022-10-29T08:05:39Z</time>
      </trkpt>
      <trkpt lat="44.38367" lon="3.85085">
        <ele>1428</ele>
        <time>2022-10-29T08:05:40Z</time>
      </trkpt>
      <trkpt lat="44.38362" lon="3.85083">
        <ele>1427.8</ele>
        <time>2022-10-29T08:05:41Z</time>
      </trkpt>
      <trkpt lat="44.38356" lon="3.85082">
        <ele>1427.6</ele>
        <time>2022-10-29T08:05:42Z</time>
      </trkpt>
      <trkpt lat="44.38351" lon="3.85082">
        <ele>1427.4</ele>
        <time>2022-10-29T08:05:43Z</time>
      </trkpt>
      <trkpt lat="44.38345" lon="3.85083">
        <ele>1427.2</ele>
        <time>2022-10-29T08:05:44Z</time>
      </trkpt>
      <trkpt lat="44.3834" lon="3.85083">
        <ele>1427.2</ele>
        <time>2022-10-29T08:05:45Z</time>
      </trkpt>
      <trkpt lat="44.38334" lon="3.85084">
        <ele>1427</ele>
        <time>2022-10-29T08:05:46Z</time>
      </trkpt>
      <trkpt lat="44.38329" lon="3.85084">
        <ele>1426.8</ele>
        <time>2022-10-29T08:05:47Z</time>
      </trkpt>
      <trkpt lat="44.38324" lon="3.85083">
        <ele>1426.6</ele>
        <time>2022-10-29T08:05:48Z</time>
      </trkpt>
      <trkpt lat="44.38318" lon="3.85079">
        <ele>1426.4</ele>
        <time>2022-10-29T08:05:49Z</time>
      </trkpt>
      <trkpt lat="44.38313" lon="3.85076">
        <ele>1426.2</ele>
        <time>2022-10-29T08:05:50Z</time>
      </trkpt>
      <trkpt lat="44.38307" lon="3.85074">
        <ele>1426</ele>
        <time>2022-10-29T08:05:51Z</time>
      </trkpt>
      <trkpt lat="44.38301" lon="3.85074">
        <ele>1425.8</ele>
        <time>2022-10-29T08:05:52Z</time>
      </trkpt>
      <trkpt lat="44.38295" lon="3.85075">
        <ele>1425.6</ele>
        <time>2022-10-29T08:05:53Z</time>
      </trkpt>
      <trkpt lat="44.3829" lon="3.85076">
        <ele>1425.4</ele>
        <time>2022-10-29T08:05:54Z</time>
      </trkpt>
      <trkpt lat="44.38284" lon="3.85079">
        <ele>1425.4</ele>
        <time>2022-10-29T08:05:55Z</time>
      </trkpt>
      <trkpt lat="44.38279" lon="3.85083">
        <ele>1425.2</ele>
        <time>2022-10-29T08:05:56Z</time>
      </trkpt>
      <trkpt lat="44.38273" lon="3.85085">
        <ele>1425.2</ele>
        <time>2022-10-29T08:05:57Z</time>
      </trkpt>
      <trkpt lat="44.38268" lon="3.85088">
        <ele>1425</ele>
        <time>2022-10-29T08:05:58Z</time>
      </trkpt>
      <trkpt lat="44.38263" lon="3.85089">
        <ele>1425</ele>
        <time>2022-10-29T08:05:59Z</time>
      </trkpt>
      <trkpt lat="44.38258" lon="3.85089">
        <ele>1424.8</ele>
        <time>2022-10-29T08:06:00Z</time>
      </trkpt>
      <trkpt lat="44.38252" lon="3.85089">
        <ele>1424.6</ele>
        <time>2022-10-29T08:06:01Z</time>
      </trkpt>
      <trkpt lat="44.38247" lon="3.85088">
        <ele>1424.6</ele>
        <time>2022-10-29T08:06:02Z</time>
      </trkpt>
      <trkpt lat="44.38242" lon="3.85087">
        <ele>1424.4</ele>
        <time>2022-10-29T08:06:03Z</time>
      </trkpt>
      <trkpt lat="44.38236" lon="3.85087">
        <ele>1424.2</ele>
        <time>2022-10-29T08:06:04Z</time>
      </trkpt>
      <trkpt lat="44.38231" lon="3.85087">
        <ele>1424.2</ele>
        <time>2022-10-29T08:06:05Z</time>
      </trkpt>
      <trkpt lat="44.38226" lon="3.85086">
        <ele>1424.2</ele>
        <time>2022-10-29T08:06:06Z</time>
      </trkpt>
      <trkpt lat="44.38221" lon="3.85086">
        <ele>1424</ele>
        <time>2022-10-29T08:06:07Z</time>
      </trkpt>
      <trkpt lat="44.38216" lon="3.85085">
        <ele>1423.8</ele>
        <time>2022-10-29T08:06:08Z</time>
      </trkpt>
      <trkpt lat="44.38211" lon="3.85085">
        <ele>1423.8</ele>
        <time>2022-10-29T08:06:09Z</time>
      </trkpt>
      <trkpt lat="44.38206" lon="3.85084">
        <ele>1423.6</ele>
        <time>2022-10-29T08:06:10Z</time>
      </trkpt>
      <trkpt lat="44.38201" lon="3.85084">
        <ele>1423.4</ele>
        <time>2022-10-29T08:06:11Z</time>
      </trkpt>
      <trkpt lat="44.38196" lon="3.85083">
        <ele>1423.4</ele>
        <time>2022-10-29T08:06:12Z</time>
      </trkpt>
      <trkpt lat="44.38191" lon="3.85081">
        <ele>1423.2</ele>
        <time>2022-10-29T08:06:13Z</time>
      </trkpt>
      <trkpt lat="44.38186" lon="3.85078">
        <ele>1423</ele>
        <time>2022-10-29T08:06:14Z</time>
      </trkpt>
      <trkpt lat="44.38181" lon="3.85075">
        <ele>1423</ele>
        <time>2022-10-29T08:06:15Z</time>
      </trkpt>
      <trkpt lat="44.38177" lon="3.8507">
        <ele>1423</ele>
        <time>2022-10-29T08:06:16Z</time>
      </trkpt>
      <trkpt lat="44.38173" lon="3.85063">
        <ele>1422.8</ele>
        <time>2022-10-29T08:06:17Z</time>
      </trkpt>
      <trkpt lat="44.38171" lon="3.85056">
        <ele>1422.6</ele>
        <time>2022-10-29T08:06:18Z</time>
      </trkpt>
      <trkpt lat="44.38169" lon="3.85049">
        <ele>1422.4</ele>
        <time>2022-10-29T08:06:19Z</time>
      </trkpt>
      <trkpt lat="44.38167" lon="3.85041">
        <ele>1422.2</ele>
        <time>2022-10-29T08:06:20Z</time>
      </trkpt>
      <trkpt lat="44.38164" lon="3.85034">
        <ele>1422</ele>
        <time>2022-10-29T08:06:21Z</time>
      </trkpt>
      <trkpt lat="44.38161" lon="3.85026">
        <ele>1421.8</ele>
        <time>2022-10-29T08:06:22Z</time>
      </trkpt>
      <trkpt lat="44.38159" lon="3.85019">
        <ele>1421.6</ele>
        <time>2022-10-29T08:06:23Z</time>
      </trkpt>
      <trkpt lat="44.38155" lon="3.85011">
        <ele>1421.4</ele>
        <time>2022-10-29T08:06:24Z</time>
      </trkpt>
      <trkpt lat="44.38152" lon="3.85003">
        <ele>1421.2</ele>
        <time>2022-10-29T08:06:25Z</time>
      </trkpt>
      <trkpt lat="44.38149" lon="3.84995">
        <ele>1421</ele>
        <time>2022-10-29T08:06:26Z</time>
      </trkpt>
      <trkpt lat="44.38147" lon="3.84988">
        <ele>1420.8</ele>
        <time>2022-10-29T08:06:27Z</time>
      </trkpt>
      <trkpt lat="44.38144" lon="3.8498">
        <ele>1420.6</ele>
        <time>2022-10-29T08:06:28Z</time>
      </trkpt>
      <trkpt lat="44.38141" lon="3.84972">
        <ele>1420.4</ele>
        <time>2022-10-29T08:06:29Z</time>
      </trkpt>
      <trkpt lat="44.38139" lon="3.84966">
        <ele>1420.2</ele>
        <time>2022-10-29T08:06:30Z</time>
      </trkpt>
      <trkpt lat="44.38136" lon="3.84958">
        <ele>1420</ele>
        <time>2022-10-29T08:06:31Z</time>
      </trkpt>
      <trkpt lat="44.38134" lon="3.84951">
        <ele>1419.6</ele>
        <time>2022-10-29T08:06:32Z</time>
      </trkpt>
      <trkpt lat="44.38132" lon="3.84944">
        <ele>1419.4</ele>
        <time>2022-10-29T08:06:33Z</time>
      </trkpt>
      <trkpt lat="44.3813" lon="3.84938">
        <ele>1419</ele>
        <time>2022-10-29T08:06:34Z</time>
      </trkpt>
      <trkpt lat="44.38128" lon="3.84932">
        <ele>1418.6</ele>
        <time>2022-10-29T08:06:35Z</time>
      </trkpt>
      <trkpt lat="44.38127" lon="3.84925">
        <ele>1418.2</ele>
        <time>2022-10-29T08:06:36Z</time>
      </trkpt>
      <trkpt lat="44.38126" lon="3.84919">
        <ele>1417.8</ele>
        <time>2022-10-29T08:06:37Z</time>
      </trkpt>
      <trkpt lat="44.38125" lon="3.84911">
        <ele>1417.6</ele>
        <time>2022-10-29T08:06:38Z</time>
      </trkpt>
      <trkpt lat="44.38125" lon="3.84903">
        <ele>1417.2</ele>
        <time>2022-10-29T08:06:39Z</time>
      </trkpt>
      <trkpt lat="44.38125" lon="3.84894">
        <ele>1417</ele>
        <time>2022-10-29T08:06:40Z</time>
      </trkpt>
      <trkpt lat="44.38125" lon="3.84886">
        <ele>1416.6</ele>
        <time>2022-10-29T08:06:41Z</time>
      </trkpt>
      <trkpt lat="44.38125" lon="3.84877">
        <ele>1416.4</ele>
        <time>2022-10-29T08:06:42Z</time>
      </trkpt>
      <trkpt lat="44.38126" lon="3.84869">
        <ele>1416</ele>
        <time>2022-10-29T08:06:43Z</time>
      </trkpt>
      <trkpt lat="44.38128" lon="3.8486">
        <ele>1415.6</ele>
        <time>2022-10-29T08:06:44Z</time>
      </trkpt>
      <trkpt lat="44.3813" lon="3.84851">
        <ele>1415.4</ele>
        <time>2022-10-29T08:06:45Z</time>
      </trkpt>
      <trkpt lat="44.38134" lon="3.84843">
        <ele>1415</ele>
        <time>2022-10-29T08:06:46Z</time>
      </trkpt>
      <trkpt lat="44.38138" lon="3.84835">
        <ele>1414.8</ele>
        <time>2022-10-29T08:06:47Z</time>
      </trkpt>
      <trkpt lat="44.38142" lon="3.84828">
        <ele>1414.6</ele>
        <time>2022-10-29T08:06:48Z</time>
      </trkpt>
      <trkpt lat="44.38146" lon="3.84819">
        <ele>1414.4</ele>
        <time>2022-10-29T08:06:49Z</time>
      </trkpt>
      <trkpt lat="44.38149" lon="3.8481">
        <ele>1414.4</ele>
        <time>2022-10-29T08:06:50Z</time>
      </trkpt>
      <trkpt lat="44.3815" lon="3.84801">
        <ele>1414.2</ele>
        <time>2022-10-29T08:06:51Z</time>
      </trkpt>
      <trkpt lat="44.38151" lon="3.8479">
        <ele>1414.2</ele>
        <time>2022-10-29T08:06:52Z</time>
      </trkpt>
      <trkpt lat="44.38151" lon="3.8478">
        <ele>1414</ele>
        <time>2022-10-29T08:06:53Z</time>
      </trkpt>
      <trkpt lat="44.3815" lon="3.8477">
        <ele>1413.8</ele>
        <time>2022-10-29T08:06:54Z</time>
      </trkpt>
      <trkpt lat="44.38148" lon="3.84758">
        <ele>1413.4</ele>
        <time>2022-10-29T08:06:55Z</time>
      </trkpt>
      <trkpt lat="44.38145" lon="3.84747">
        <ele>1413</ele>
        <time>2022-10-29T08:06:56Z</time>
      </trkpt>
      <trkpt lat="44.38141" lon="3.84736">
        <ele>1412.4</ele>
        <time>2022-10-29T08:06:57Z</time>
      </trkpt>
      <trkpt lat="44.38136" lon="3.84725">
        <ele>1412</ele>
        <time>2022-10-29T08:06:58Z</time>
      </trkpt>
      <trkpt lat="44.38131" lon="3.84715">
        <ele>1411.4</ele>
        <time>2022-10-29T08:06:59Z</time>
      </trkpt>
      <trkpt lat="44.38125" lon="3.84705">
        <ele>1410.8</ele>
        <time>2022-10-29T08:07:00Z</time>
      </trkpt>
      <trkpt lat="44.38118" lon="3.84694">
        <ele>1410.2</ele>
        <time>2022-10-29T08:07:01Z</time>
      </trkpt>
      <trkpt lat="44.38112" lon="3.84684">
        <ele>1409.6</ele>
        <time>2022-10-29T08:07:02Z</time>
      </trkpt>
      <trkpt lat="44.38106" lon="3.84675">
        <ele>1409.2</ele>
        <time>2022-10-29T08:07:03Z</time>
      </trkpt>
      <trkpt lat="44.381" lon="3.84665">
        <ele>1408.8</ele>
        <time>2022-10-29T08:07:04Z</time>
      </trkpt>
      <trkpt lat="44.38093" lon="3.84655">
        <ele>1408.2</ele>
        <time>2022-10-29T08:07:05Z</time>
      </trkpt>
      <trkpt lat="44.38087" lon="3.84646">
        <ele>1408</ele>
        <time>2022-10-29T08:07:06Z</time>
      </trkpt>
      <trkpt lat="44.38081" lon="3.84636">
        <ele>1407.6</ele>
        <time>2022-10-29T08:07:07Z</time>
      </trkpt>
      <trkpt lat="44.38075" lon="3.84628">
        <ele>1407.2</ele>
        <time>2022-10-29T08:07:08Z</time>
      </trkpt>
      <trkpt lat="44.3807" lon="3.8462">
        <ele>1406.6</ele>
        <time>2022-10-29T08:07:09Z</time>
      </trkpt>
      <trkpt lat="44.38065" lon="3.84614">
        <ele>1406</ele>
        <time>2022-10-29T08:07:10Z</time>
      </trkpt>
      <trkpt lat="44.3806" lon="3.84609">
        <ele>1405.6</ele>
        <time>2022-10-29T08:07:11Z</time>
      </trkpt>
      <trkpt lat="44.38055" lon="3.84603">
        <ele>1405.2</ele>
        <time>2022-10-29T08:07:12Z</time>
      </trkpt>
      <trkpt lat="44.38051" lon="3.84598">
        <ele>1404.8</ele>
        <time>2022-10-29T08:07:13Z</time>
      </trkpt>
      <trkpt lat="44.38048" lon="3.84593">
        <ele>1404.4</ele>
        <time>2022-10-29T08:07:14Z</time>
      </trkpt>
      <trkpt lat="44.38045" lon="3.8459">
        <ele>1403.8</ele>
        <time>2022-10-29T08:07:15Z</time>
      </trkpt>
      <trkpt lat="44.38044" lon="3.84586">
        <ele>1403.4</ele>
        <time>2022-10-29T08:07:16Z</time>
      </trkpt>
      <trkpt lat="44.38042" lon="3.84584">
        <ele>1402.8</ele>
        <time>2022-10-29T08:07:17Z</time>
      </trkpt>
      <trkpt lat="44.38041" lon="3.84582">
        <ele>1402.6</ele>
        <time>2022-10-29T08:07:18Z</time>
      </trkpt>
      <trkpt lat="44.38041" lon="3.84582">
        <ele>1402.2</ele>
        <time>2022-10-29T08:07:19Z</time>
      </trkpt>
      <trkpt lat="44.38041" lon="3.8458">
        <ele>1401.2</ele>
        <time>2022-10-29T08:08:23Z</time>
      </trkpt>
      <trkpt lat="44.3804" lon="3.84577">
        <ele>1401.2</ele>
        <time>2022-10-29T08:08:24Z</time>
      </trkpt>
      <trkpt lat="44.3804" lon="3.8457">
        <ele>1401.2</ele>
        <time>2022-10-29T08:08:25Z</time>
      </trkpt>
      <trkpt lat="44.38039" lon="3.84562">
        <ele>1401</ele>
        <time>2022-10-29T08:08:26Z</time>
      </trkpt>
      <trkpt lat="44.38038" lon="3.84556">
        <ele>1400.8</ele>
        <time>2022-10-29T08:08:27Z</time>
      </trkpt>
      <trkpt lat="44.38037" lon="3.8455">
        <ele>1400.6</ele>
        <time>2022-10-29T08:08:28Z</time>
      </trkpt>
      <trkpt lat="44.38036" lon="3.84544">
        <ele>1400.4</ele>
        <time>2022-10-29T08:08:29Z</time>
      </trkpt>
      <trkpt lat="44.38034" lon="3.84538">
        <ele>1400.2</ele>
        <time>2022-10-29T08:08:30Z</time>
      </trkpt>
      <trkpt lat="44.38033" lon="3.84532">
        <ele>1399.8</ele>
        <time>2022-10-29T08:08:31Z</time>
      </trkpt>
      <trkpt lat="44.38031" lon="3.84526">
        <ele>1399.6</ele>
        <time>2022-10-29T08:08:32Z</time>
      </trkpt>
      <trkpt lat="44.3803" lon="3.84521">
        <ele>1399.4</ele>
        <time>2022-10-29T08:08:33Z</time>
      </trkpt>
      <trkpt lat="44.38029" lon="3.84515">
        <ele>1399</ele>
        <time>2022-10-29T08:08:34Z</time>
      </trkpt>
      <trkpt lat="44.38028" lon="3.84509">
        <ele>1398.8</ele>
        <time>2022-10-29T08:08:35Z</time>
      </trkpt>
      <trkpt lat="44.38027" lon="3.84502">
        <ele>1398.4</ele>
        <time>2022-10-29T08:08:36Z</time>
      </trkpt>
      <trkpt lat="44.38026" lon="3.84494">
        <ele>1398.2</ele>
        <time>2022-10-29T08:08:37Z</time>
      </trkpt>
      <trkpt lat="44.38024" lon="3.84487">
        <ele>1397.8</ele>
        <time>2022-10-29T08:08:38Z</time>
      </trkpt>
      <trkpt lat="44.38023" lon="3.84479">
        <ele>1397.6</ele>
        <time>2022-10-29T08:08:39Z</time>
      </trkpt>
      <trkpt lat="44.38022" lon="3.84471">
        <ele>1397.4</ele>
        <time>2022-10-29T08:08:40Z</time>
      </trkpt>
      <trkpt lat="44.38021" lon="3.84463">
        <ele>1397</ele>
        <time>2022-10-29T08:08:41Z</time>
      </trkpt>
      <trkpt lat="44.3802" lon="3.84455">
        <ele>1396.8</ele>
        <time>2022-10-29T08:08:42Z</time>
      </trkpt>
      <trkpt lat="44.38019" lon="3.84449">
        <ele>1396.4</ele>
        <time>2022-10-29T08:08:43Z</time>
      </trkpt>
      <trkpt lat="44.38019" lon="3.84443">
        <ele>1396.2</ele>
        <time>2022-10-29T08:08:44Z</time>
      </trkpt>
      <trkpt lat="44.38018" lon="3.84438">
        <ele>1395.8</ele>
        <time>2022-10-29T08:08:45Z</time>
      </trkpt>
      <trkpt lat="44.38018" lon="3.84433">
        <ele>1395.6</ele>
        <time>2022-10-29T08:08:46Z</time>
      </trkpt>
      <trkpt lat="44.38018" lon="3.84428">
        <ele>1395.4</ele>
        <time>2022-10-29T08:08:47Z</time>
      </trkpt>
      <trkpt lat="44.38018" lon="3.84423">
        <ele>1395.2</ele>
        <time>2022-10-29T08:08:48Z</time>
      </trkpt>
      <trkpt lat="44.38018" lon="3.84418">
        <ele>1395</ele>
        <time>2022-10-29T08:08:49Z</time>
      </trkpt>
      <trkpt lat="44.38018" lon="3.84412">
        <ele>1394.8</ele>
        <time>2022-10-29T08:08:50Z</time>
      </trkpt>
      <trkpt lat="44.38018" lon="3.84406">
        <ele>1394.6</ele>
        <time>2022-10-29T08:08:51Z</time>
      </trkpt>
      <trkpt lat="44.38018" lon="3.84399">
        <ele>1394.4</ele>
        <time>2022-10-29T08:08:52Z</time>
      </trkpt>
      <trkpt lat="44.38018" lon="3.84392">
        <ele>1394</ele>
        <time>2022-10-29T08:08:53Z</time>
      </trkpt>
      <trkpt lat="44.38019" lon="3.84385">
        <ele>1393.8</ele>
        <time>2022-10-29T08:08:54Z</time>
      </trkpt>
      <trkpt lat="44.38019" lon="3.84377">
        <ele>1393.4</ele>
        <time>2022-10-29T08:08:55Z</time>
      </trkpt>
      <trkpt lat="44.3802" lon="3.8437">
        <ele>1393.2</ele>
        <time>2022-10-29T08:08:56Z</time>
      </trkpt>
      <trkpt lat="44.38021" lon="3.84362">
        <ele>1392.8</ele>
        <time>2022-10-29T08:08:57Z</time>
      </trkpt>
      <trkpt lat="44.38022" lon="3.84356">
        <ele>1392.4</ele>
        <time>2022-10-29T08:08:58Z</time>
      </trkpt>
      <trkpt lat="44.38023" lon="3.84351">
        <ele>1392</ele>
        <time>2022-10-29T08:08:59Z</time>
      </trkpt>
      <trkpt lat="44.38024" lon="3.84346">
        <ele>1391.8</ele>
        <time>2022-10-29T08:09:00Z</time>
      </trkpt>
      <trkpt lat="44.38025" lon="3.84342">
        <ele>1391.6</ele>
        <time>2022-10-29T08:09:01Z</time>
      </trkpt>
      <trkpt lat="44.38026" lon="3.8434">
        <ele>1391.4</ele>
        <time>2022-10-29T08:09:02Z</time>
      </trkpt>
      <trkpt lat="44.38026" lon="3.8434">
        <ele>1391.2</ele>
        <time>2022-10-29T08:09:03Z</time>
      </trkpt>
      <trkpt lat="44.38026" lon="3.84338">
        <ele>1391</ele>
        <time>2022-10-29T08:09:27Z</time>
      </trkpt>
      <trkpt lat="44.38027" lon="3.84336">
        <ele>1391</ele>
        <time>2022-10-29T08:09:28Z</time>
      </trkpt>
      <trkpt lat="44.38029" lon="3.84333">
        <ele>1390.8</ele>
        <time>2022-10-29T08:09:29Z</time>
      </trkpt>
      <trkpt lat="44.38032" lon="3.84328">
        <ele>1390.8</ele>
        <time>2022-10-29T08:09:30Z</time>
      </trkpt>
      <trkpt lat="44.38034" lon="3.84324">
        <ele>1390.6</ele>
        <time>2022-10-29T08:09:31Z</time>
      </trkpt>
      <trkpt lat="44.38037" lon="3.84319">
        <ele>1390.6</ele>
        <time>2022-10-29T08:09:32Z</time>
      </trkpt>
      <trkpt lat="44.3804" lon="3.84314">
        <ele>1390.4</ele>
        <time>2022-10-29T08:09:33Z</time>
      </trkpt>
      <trkpt lat="44.38042" lon="3.84309">
        <ele>1390.2</ele>
        <time>2022-10-29T08:09:34Z</time>
      </trkpt>
      <trkpt lat="44.38045" lon="3.84303">
        <ele>1390.2</ele>
        <time>2022-10-29T08:09:35Z</time>
      </trkpt>
      <trkpt lat="44.38048" lon="3.84297">
        <ele>1390</ele>
        <time>2022-10-29T08:09:36Z</time>
      </trkpt>
      <trkpt lat="44.3805" lon="3.84291">
        <ele>1389.8</ele>
        <time>2022-10-29T08:09:37Z</time>
      </trkpt>
      <trkpt lat="44.38053" lon="3.84284">
        <ele>1389.6</ele>
        <time>2022-10-29T08:09:38Z</time>
      </trkpt>
      <trkpt lat="44.38056" lon="3.84277">
        <ele>1389.2</ele>
        <time>2022-10-29T08:09:39Z</time>
      </trkpt>
      <trkpt lat="44.38058" lon="3.84269">
        <ele>1388.8</ele>
        <time>2022-10-29T08:09:40Z</time>
      </trkpt>
      <trkpt lat="44.3806" lon="3.84263">
        <ele>1388.4</ele>
        <time>2022-10-29T08:09:41Z</time>
      </trkpt>
      <trkpt lat="44.38062" lon="3.84257">
        <ele>1388.2</ele>
        <time>2022-10-29T08:09:42Z</time>
      </trkpt>
      <trkpt lat="44.38064" lon="3.84252">
        <ele>1387.8</ele>
        <time>2022-10-29T08:09:43Z</time>
      </trkpt>
      <trkpt lat="44.38066" lon="3.84248">
        <ele>1387.6</ele>
        <time>2022-10-29T08:09:44Z</time>
      </trkpt>
      <trkpt lat="44.38067" lon="3.84245">
        <ele>1387.4</ele>
        <time>2022-10-29T08:09:45Z</time>
      </trkpt>
      <trkpt lat="44.38068" lon="3.84243">
        <ele>1387.2</ele>
        <time>2022-10-29T08:09:46Z</time>
      </trkpt>
      <trkpt lat="44.38068" lon="3.84243">
        <ele>1387</ele>
        <time>2022-10-29T08:09:47Z</time>
      </trkpt>
      <trkpt lat="44.38068" lon="3.84243">
        <ele>1387</ele>
        <time>2022-10-29T08:09:48Z</time>
      </trkpt>
      <trkpt lat="44.38068" lon="3.84242">
        <ele>1386.8</ele>
        <time>2022-10-29T08:09:49Z</time>
      </trkpt>
      <trkpt lat="44.38069" lon="3.84241">
        <ele>1386.8</ele>
        <time>2022-10-29T08:09:50Z</time>
      </trkpt>
      <trkpt lat="44.3807" lon="3.8424">
        <ele>1386.6</ele>
        <time>2022-10-29T08:09:51Z</time>
      </trkpt>
      <trkpt lat="44.3807" lon="3.84239">
        <ele>1386.6</ele>
        <time>2022-10-29T08:09:52Z</time>
      </trkpt>
      <trkpt lat="44.3807" lon="3.84238">
        <ele>1386.6</ele>
        <time>2022-10-29T08:09:53Z</time>
      </trkpt>
      <trkpt lat="44.3807" lon="3.84238">
        <ele>1386.4</ele>
        <time>2022-10-29T08:09:54Z</time>
      </trkpt>
      <trkpt lat="44.3807" lon="3.84238">
        <ele>1386.4</ele>
        <time>2022-10-29T08:09:55Z</time>
      </trkpt>
      <trkpt lat="44.3807" lon="3.84238">
        <ele>1386.4</ele>
        <time>2022-10-29T08:09:56Z</time>
      </trkpt>
      <trkpt lat="44.3807" lon="3.84238">
        <ele>1386.4</ele>
        <time>2022-10-29T08:09:57Z</time>
      </trkpt>
      <trkpt lat="44.3807" lon="3.84238">
        <ele>1386.4</ele>
        <time>2022-10-29T08:09:58Z</time>
      </trkpt>
      <trkpt lat="44.38071" lon="3.8424">
        <ele>1386.4</ele>
        <time>2022-10-29T08:10:21Z</time>
      </trkpt>
      <trkpt lat="44.38071" lon="3.84241">
        <ele>1386.4</ele>
        <time>2022-10-29T08:10:22Z</time>
      </trkpt>
      <trkpt lat="44.3807" lon="3.84244">
        <ele>1386.4</ele>
        <time>2022-10-29T08:10:23Z</time>
      </trkpt>
      <trkpt lat="44.38068" lon="3.84246">
        <ele>1386.4</ele>
        <time>2022-10-29T08:10:24Z</time>
      </trkpt>
      <trkpt lat="44.38066" lon="3.84249">
        <ele>1386.6</ele>
        <time>2022-10-29T08:10:25Z</time>
      </trkpt>
      <trkpt lat="44.38065" lon="3.84252">
        <ele>1386.8</ele>
        <time>2022-10-29T08:10:26Z</time>
      </trkpt>
      <trkpt lat="44.38063" lon="3.84256">
        <ele>1387</ele>
        <time>2022-10-29T08:10:27Z</time>
      </trkpt>
      <trkpt lat="44.38062" lon="3.84261">
        <ele>1387.2</ele>
        <time>2022-10-29T08:10:28Z</time>
      </trkpt>
      <trkpt lat="44.3806" lon="3.84265">
        <ele>1387.4</ele>
        <time>2022-10-29T08:10:29Z</time>
      </trkpt>
      <trkpt lat="44.38058" lon="3.84269">
        <ele>1387.6</ele>
        <time>2022-10-29T08:10:30Z</time>
      </trkpt>
      <trkpt lat="44.38057" lon="3.84274">
        <ele>1388</ele>
        <time>2022-10-29T08:10:31Z</time>
      </trkpt>
      <trkpt lat="44.38055" lon="3.84278">
        <ele>1388.2</ele>
        <time>2022-10-29T08:10:32Z</time>
      </trkpt>
      <trkpt lat="44.38054" lon="3.84283">
        <ele>1388.4</ele>
        <time>2022-10-29T08:10:33Z</time>
      </trkpt>
      <trkpt lat="44.38052" lon="3.84287">
        <ele>1388.4</ele>
        <time>2022-10-29T08:10:34Z</time>
      </trkpt>
      <trkpt lat="44.3805" lon="3.84291">
        <ele>1388.6</ele>
        <time>2022-10-29T08:10:35Z</time>
      </trkpt>
      <trkpt lat="44.38048" lon="3.84295">
        <ele>1388.8</ele>
        <time>2022-10-29T08:10:36Z</time>
      </trkpt>
      <trkpt lat="44.38046" lon="3.84299">
        <ele>1389.2</ele>
        <time>2022-10-29T08:10:37Z</time>
      </trkpt>
      <trkpt lat="44.38044" lon="3.84303">
        <ele>1389.4</ele>
        <time>2022-10-29T08:10:38Z</time>
      </trkpt>
      <trkpt lat="44.38043" lon="3.84306">
        <ele>1389.8</ele>
        <time>2022-10-29T08:10:39Z</time>
      </trkpt>
      <trkpt lat="44.38041" lon="3.8431">
        <ele>1390</ele>
        <time>2022-10-29T08:10:40Z</time>
      </trkpt>
      <trkpt lat="44.38039" lon="3.84314">
        <ele>1390.2</ele>
        <time>2022-10-29T08:10:41Z</time>
      </trkpt>
      <trkpt lat="44.38037" lon="3.84318">
        <ele>1390.4</ele>
        <time>2022-10-29T08:10:42Z</time>
      </trkpt>
      <trkpt lat="44.38035" lon="3.84322">
        <ele>1390.6</ele>
        <time>2022-10-29T08:10:43Z</time>
      </trkpt>
      <trkpt lat="44.38033" lon="3.84326">
        <ele>1390.8</ele>
        <time>2022-10-29T08:10:44Z</time>
      </trkpt>
      <trkpt lat="44.38031" lon="3.8433">
        <ele>1391</ele>
        <time>2022-10-29T08:10:45Z</time>
      </trkpt>
      <trkpt lat="44.38029" lon="3.84334">
        <ele>1391.2</ele>
        <time>2022-10-29T08:10:46Z</time>
      </trkpt>
      <trkpt lat="44.38027" lon="3.84338">
        <ele>1391.4</ele>
        <time>2022-10-29T08:10:47Z</time>
      </trkpt>
      <trkpt lat="44.38026" lon="3.84343">
        <ele>1391.6</ele>
        <time>2022-10-29T08:10:48Z</time>
      </trkpt>
      <trkpt lat="44.38024" lon="3.84348">
        <ele>1391.8</ele>
        <time>2022-10-29T08:10:49Z</time>
      </trkpt>
      <trkpt lat="44.38023" lon="3.84352">
        <ele>1391.8</ele>
        <time>2022-10-29T08:10:50Z</time>
      </trkpt>
      <trkpt lat="44.38022" lon="3.84357">
        <ele>1392</ele>
        <time>2022-10-29T08:10:51Z</time>
      </trkpt>
      <trkpt lat="44.38021" lon="3.84362">
        <ele>1392.2</ele>
        <time>2022-10-29T08:10:52Z</time>
      </trkpt>
      <trkpt lat="44.38021" lon="3.84367">
        <ele>1392.2</ele>
        <time>2022-10-29T08:10:53Z</time>
      </trkpt>
      <trkpt lat="44.38021" lon="3.84372">
        <ele>1392.4</ele>
        <time>2022-10-29T08:10:54Z</time>
      </trkpt>
      <trkpt lat="44.3802" lon="3.84377">
        <ele>1392.4</ele>
        <time>2022-10-29T08:10:55Z</time>
      </trkpt>
      <trkpt lat="44.3802" lon="3.84382">
        <ele>1392.6</ele>
        <time>2022-10-29T08:10:56Z</time>
      </trkpt>
      <trkpt lat="44.38019" lon="3.84388">
        <ele>1392.8</ele>
        <time>2022-10-29T08:10:57Z</time>
      </trkpt>
      <trkpt lat="44.38018" lon="3.84393">
        <ele>1393</ele>
        <time>2022-10-29T08:10:58Z</time>
      </trkpt>
      <trkpt lat="44.38018" lon="3.84397">
        <ele>1393</ele>
        <time>2022-10-29T08:10:59Z</time>
      </trkpt>
      <trkpt lat="44.38018" lon="3.84402">
        <ele>1393.2</ele>
        <time>2022-10-29T08:11:00Z</time>
      </trkpt>
      <trkpt lat="44.38018" lon="3.84406">
        <ele>1393.4</ele>
        <time>2022-10-29T08:11:01Z</time>
      </trkpt>
      <trkpt lat="44.38018" lon="3.8441">
        <ele>1393.8</ele>
        <time>2022-10-29T08:11:02Z</time>
      </trkpt>
      <trkpt lat="44.38019" lon="3.84414">
        <ele>1394</ele>
        <time>2022-10-29T08:11:03Z</time>
      </trkpt>
      <trkpt lat="44.38019" lon="3.84418">
        <ele>1394.2</ele>
        <time>2022-10-29T08:11:04Z</time>
      </trkpt>
      <trkpt lat="44.38019" lon="3.84422">
        <ele>1394.4</ele>
        <time>2022-10-29T08:11:05Z</time>
      </trkpt>
      <trkpt lat="44.38019" lon="3.84427">
        <ele>1394.6</ele>
        <time>2022-10-29T08:11:06Z</time>
      </trkpt>
      <trkpt lat="44.38019" lon="3.84432">
        <ele>1394.8</ele>
        <time>2022-10-29T08:11:07Z</time>
      </trkpt>
      <trkpt lat="44.38019" lon="3.84436">
        <ele>1395</ele>
        <time>2022-10-29T08:11:08Z</time>
      </trkpt>
      <trkpt lat="44.38019" lon="3.84441">
        <ele>1395.2</ele>
        <time>2022-10-29T08:11:09Z</time>
      </trkpt>
      <trkpt lat="44.38019" lon="3.84445">
        <ele>1395.4</ele>
        <time>2022-10-29T08:11:10Z</time>
      </trkpt>
      <trkpt lat="44.3802" lon="3.8445">
        <ele>1395.6</ele>
        <time>2022-10-29T08:11:11Z</time>
      </trkpt>
      <trkpt lat="44.3802" lon="3.84455">
        <ele>1395.8</ele>
        <time>2022-10-29T08:11:12Z</time>
      </trkpt>
      <trkpt lat="44.38021" lon="3.8446">
        <ele>1396</ele>
        <time>2022-10-29T08:11:13Z</time>
      </trkpt>
      <trkpt lat="44.38022" lon="3.84465">
        <ele>1396.2</ele>
        <time>2022-10-29T08:11:14Z</time>
      </trkpt>
      <trkpt lat="44.38022" lon="3.84469">
        <ele>1396.4</ele>
        <time>2022-10-29T08:11:15Z</time>
      </trkpt>
      <trkpt lat="44.38023" lon="3.84473">
        <ele>1396.6</ele>
        <time>2022-10-29T08:11:16Z</time>
      </trkpt>
      <trkpt lat="44.38023" lon="3.84478">
        <ele>1396.8</ele>
        <time>2022-10-29T08:11:17Z</time>
      </trkpt>
      <trkpt lat="44.38024" lon="3.84482">
        <ele>1397</ele>
        <time>2022-10-29T08:11:18Z</time>
      </trkpt>
      <trkpt lat="44.38025" lon="3.84487">
        <ele>1397.2</ele>
        <time>2022-10-29T08:11:19Z</time>
      </trkpt>
      <trkpt lat="44.38025" lon="3.84491">
        <ele>1397.4</ele>
        <time>2022-10-29T08:11:20Z</time>
      </trkpt>
      <trkpt lat="44.38026" lon="3.84495">
        <ele>1397.4</ele>
        <time>2022-10-29T08:11:21Z</time>
      </trkpt>
      <trkpt lat="44.38027" lon="3.84499">
        <ele>1397.6</ele>
        <time>2022-10-29T08:11:22Z</time>
      </trkpt>
      <trkpt lat="44.38028" lon="3.84503">
        <ele>1397.8</ele>
        <time>2022-10-29T08:11:23Z</time>
      </trkpt>
      <trkpt lat="44.38029" lon="3.84507">
        <ele>1398</ele>
        <time>2022-10-29T08:11:24Z</time>
      </trkpt>
      <trkpt lat="44.3803" lon="3.84511">
        <ele>1398.2</ele>
        <time>2022-10-29T08:11:25Z</time>
      </trkpt>
      <trkpt lat="44.38031" lon="3.84515">
        <ele>1398.4</ele>
        <time>2022-10-29T08:11:26Z</time>
      </trkpt>
      <trkpt lat="44.38032" lon="3.84519">
        <ele>1398.6</ele>
        <time>2022-10-29T08:11:27Z</time>
      </trkpt>
      <trkpt lat="44.38032" lon="3.84523">
        <ele>1398.8</ele>
        <time>2022-10-29T08:11:28Z</time>
      </trkpt>
      <trkpt lat="44.38033" lon="3.84527">
        <ele>1399</ele>
        <time>2022-10-29T08:11:29Z</time>
      </trkpt>
      <trkpt lat="44.38034" lon="3.84531">
        <ele>1399.2</ele>
        <time>2022-10-29T08:11:30Z</time>
      </trkpt>
      <trkpt lat="44.38035" lon="3.84535">
        <ele>1399.4</ele>
        <time>2022-10-29T08:11:31Z</time>
      </trkpt>
      <trkpt lat="44.38035" lon="3.8454">
        <ele>1399.6</ele>
        <time>2022-10-29T08:11:32Z</time>
      </trkpt>
      <trkpt lat="44.38036" lon="3.84543">
        <ele>1399.8</ele>
        <time>2022-10-29T08:11:33Z</time>
      </trkpt>
      <trkpt lat="44.38037" lon="3.84548">
        <ele>1400</ele>
        <time>2022-10-29T08:11:34Z</time>
      </trkpt>
      <trkpt lat="44.38037" lon="3.84551">
        <ele>1400.2</ele>
        <time>2022-10-29T08:11:35Z</time>
      </trkpt>
      <trkpt lat="44.38038" lon="3.84555">
        <ele>1400.4</ele>
        <time>2022-10-29T08:11:36Z</time>
      </trkpt>
      <trkpt lat="44.38039" lon="3.84559">
        <ele>1400.6</ele>
        <time>2022-10-29T08:11:37Z</time>
      </trkpt>
      <trkpt lat="44.3804" lon="3.84563">
        <ele>1400.8</ele>
        <time>2022-10-29T08:11:38Z</time>
      </trkpt>
      <trkpt lat="44.3804" lon="3.84567">
        <ele>1401</ele>
        <time>2022-10-29T08:11:39Z</time>
      </trkpt>
      <trkpt lat="44.38041" lon="3.84571">
        <ele>1401.2</ele>
        <time>2022-10-29T08:11:40Z</time>
      </trkpt>
      <trkpt lat="44.38041" lon="3.84574">
        <ele>1401.4</ele>
        <time>2022-10-29T08:11:41Z</time>
      </trkpt>
      <trkpt lat="44.38041" lon="3.84577">
        <ele>1401.6</ele>
        <time>2022-10-29T08:11:42Z</time>
      </trkpt>
      <trkpt lat="44.3804" lon="3.8458">
        <ele>1401.6</ele>
        <time>2022-10-29T08:11:43Z</time>
      </trkpt>
      <trkpt lat="44.38039" lon="3.84581">
        <ele>1401.4</ele>
        <time>2022-10-29T08:11:44Z</time>
      </trkpt>
      <trkpt lat="44.38036" lon="3.84581">
        <ele>1401.2</ele>
        <time>2022-10-29T08:11:45Z</time>
      </trkpt>
      <trkpt lat="44.38034" lon="3.84581">
        <ele>1400.8</ele>
        <time>2022-10-29T08:11:46Z</time>
      </trkpt>
      <trkpt lat="44.38031" lon="3.84581">
        <ele>1400.6</ele>
        <time>2022-10-29T08:11:47Z</time>
      </trkpt>
      <trkpt lat="44.38029" lon="3.84581">
        <ele>1400.2</ele>
        <time>2022-10-29T08:11:48Z</time>
      </trkpt>
      <trkpt lat="44.38027" lon="3.84582">
        <ele>1399.8</ele>
        <time>2022-10-29T08:11:49Z</time>
      </trkpt>
      <trkpt lat="44.38024" lon="3.84583">
        <ele>1399.4</ele>
        <time>2022-10-29T08:11:50Z</time>
      </trkpt>
      <trkpt lat="44.38022" lon="3.84586">
        <ele>1399</ele>
        <time>2022-10-29T08:11:51Z</time>
      </trkpt>
      <trkpt lat="44.38019" lon="3.84589">
        <ele>1398.6</ele>
        <time>2022-10-29T08:11:52Z</time>
      </trkpt>
      <trkpt lat="44.38018" lon="3.84592">
        <ele>1398.2</ele>
        <time>2022-10-29T08:11:53Z</time>
      </trkpt>
      <trkpt lat="44.38016" lon="3.84595">
        <ele>1397.8</ele>
        <time>2022-10-29T08:11:54Z</time>
      </trkpt>
      <trkpt lat="44.38015" lon="3.84597">
        <ele>1397.4</ele>
        <time>2022-10-29T08:11:55Z</time>
      </trkpt>
      <trkpt lat="44.38012" lon="3.84598">
        <ele>1397</ele>
        <time>2022-10-29T08:11:56Z</time>
      </trkpt>
      <trkpt lat="44.3801" lon="3.846">
        <ele>1396.6</ele>
        <time>2022-10-29T08:11:57Z</time>
      </trkpt>
      <trkpt lat="44.38008" lon="3.84601">
        <ele>1396.2</ele>
        <time>2022-10-29T08:11:58Z</time>
      </trkpt>
      <trkpt lat="44.38006" lon="3.84601">
        <ele>1395.8</ele>
        <time>2022-10-29T08:11:59Z</time>
      </trkpt>
      <trkpt lat="44.38004" lon="3.84601">
        <ele>1395.4</ele>
        <time>2022-10-29T08:12:00Z</time>
      </trkpt>
      <trkpt lat="44.38002" lon="3.84601">
        <ele>1395</ele>
        <time>2022-10-29T08:12:01Z</time>
      </trkpt>
      <trkpt lat="44.38" lon="3.84602">
        <ele>1394.6</ele>
        <time>2022-10-29T08:12:02Z</time>
      </trkpt>
      <trkpt lat="44.37999" lon="3.84602">
        <ele>1394.2</ele>
        <time>2022-10-29T08:12:03Z</time>
      </trkpt>
      <trkpt lat="44.37997" lon="3.84602">
        <ele>1393.8</ele>
        <time>2022-10-29T08:12:04Z</time>
      </trkpt>
      <trkpt lat="44.37996" lon="3.84601">
        <ele>1393.4</ele>
        <time>2022-10-29T08:12:05Z</time>
      </trkpt>
      <trkpt lat="44.37996" lon="3.84601">
        <ele>1393.2</ele>
        <time>2022-10-29T08:12:06Z</time>
      </trkpt>
      <trkpt lat="44.37993" lon="3.84596">
        <ele>1392.4</ele>
        <time>2022-10-29T08:12:21Z</time>
      </trkpt>
      <trkpt lat="44.37991" lon="3.84597">
        <ele>1392.4</ele>
        <time>2022-10-29T08:12:22Z</time>
      </trkpt>
      <trkpt lat="44.37987" lon="3.84598">
        <ele>1392.4</ele>
        <time>2022-10-29T08:12:23Z</time>
      </trkpt>
      <trkpt lat="44.37985" lon="3.84598">
        <ele>1392.4</ele>
        <time>2022-10-29T08:12:24Z</time>
      </trkpt>
      <trkpt lat="44.37982" lon="3.84598">
        <ele>1392.4</ele>
        <time>2022-10-29T08:12:25Z</time>
      </trkpt>
      <trkpt lat="44.37979" lon="3.84597">
        <ele>1392.4</ele>
        <time>2022-10-29T08:12:26Z</time>
      </trkpt>
      <trkpt lat="44.37977" lon="3.84596">
        <ele>1392.2</ele>
        <time>2022-10-29T08:12:27Z</time>
      </trkpt>
      <trkpt lat="44.37976" lon="3.84595">
        <ele>1392.2</ele>
        <time>2022-10-29T08:12:28Z</time>
      </trkpt>
      <trkpt lat="44.37975" lon="3.84595">
        <ele>1392.2</ele>
        <time>2022-10-29T08:12:29Z</time>
      </trkpt>
      <trkpt lat="44.37975" lon="3.84594">
        <ele>1392</ele>
        <time>2022-10-29T08:12:30Z</time>
      </trkpt>
      <trkpt lat="44.37974" lon="3.84594">
        <ele>1392</ele>
        <time>2022-10-29T08:12:31Z</time>
      </trkpt>
      <trkpt lat="44.37974" lon="3.84593">
        <ele>1392</ele>
        <time>2022-10-29T08:12:32Z</time>
      </trkpt>
      <trkpt lat="44.37974" lon="3.84594">
        <ele>1392</ele>
        <time>2022-10-29T08:12:33Z</time>
      </trkpt>
      <trkpt lat="44.37975" lon="3.84595">
        <ele>1392</ele>
        <time>2022-10-29T08:12:34Z</time>
      </trkpt>
      <trkpt lat="44.37975" lon="3.84595">
        <ele>1392</ele>
        <time>2022-10-29T08:12:35Z</time>
      </trkpt>
      <trkpt lat="44.37976" lon="3.84595">
        <ele>1392</ele>
        <time>2022-10-29T08:12:36Z</time>
      </trkpt>
      <trkpt lat="44.37977" lon="3.84596">
        <ele>1392</ele>
        <time>2022-10-29T08:12:37Z</time>
      </trkpt>
      <trkpt lat="44.37977" lon="3.84597">
        <ele>1392</ele>
        <time>2022-10-29T08:12:38Z</time>
      </trkpt>
      <trkpt lat="44.37977" lon="3.84598">
        <ele>1392</ele>
        <time>2022-10-29T08:12:39Z</time>
      </trkpt>
      <trkpt lat="44.37978" lon="3.84598">
        <ele>1392</ele>
        <time>2022-10-29T08:12:40Z</time>
      </trkpt>
      <trkpt lat="44.37978" lon="3.84598">
        <ele>1392.2</ele>
        <time>2022-10-29T08:12:41Z</time>
      </trkpt>
      <trkpt lat="44.37978" lon="3.84598">
        <ele>1392.2</ele>
        <time>2022-10-29T08:12:42Z</time>
      </trkpt>
      <trkpt lat="44.37978" lon="3.84598">
        <ele>1392</ele>
        <time>2022-10-29T08:12:43Z</time>
      </trkpt>
      <trkpt lat="44.37978" lon="3.84598">
        <ele>1392</ele>
        <time>2022-10-29T08:12:44Z</time>
      </trkpt>
      <trkpt lat="44.3798" lon="3.84598">
        <ele>1392</ele>
        <time>2022-10-29T08:13:50Z</time>
      </trkpt>
      <trkpt lat="44.37982" lon="3.84599">
        <ele>1392</ele>
        <time>2022-10-29T08:13:51Z</time>
      </trkpt>
      <trkpt lat="44.37984" lon="3.84598">
        <ele>1392</ele>
        <time>2022-10-29T08:13:52Z</time>
      </trkpt>
      <trkpt lat="44.37985" lon="3.84598">
        <ele>1392</ele>
        <time>2022-10-29T08:13:53Z</time>
      </trkpt>
      <trkpt lat="44.37985" lon="3.84598">
        <ele>1392</ele>
        <time>2022-10-29T08:13:54Z</time>
      </trkpt>
      <trkpt lat="44.37986" lon="3.84598">
        <ele>1392</ele>
        <time>2022-10-29T08:13:55Z</time>
      </trkpt>
      <trkpt lat="44.37986" lon="3.84598">
        <ele>1392</ele>
        <time>2022-10-29T08:13:56Z</time>
      </trkpt>
      <trkpt lat="44.37986" lon="3.84598">
        <ele>1392</ele>
        <time>2022-10-29T08:13:57Z</time>
      </trkpt>
      <trkpt lat="44.37985" lon="3.84598">
        <ele>1392</ele>
        <time>2022-10-29T08:13:58Z</time>
      </trkpt>
      <trkpt lat="44.37983" lon="3.84599">
        <ele>1392.2</ele>
        <time>2022-10-29T08:13:59Z</time>
      </trkpt>
      <trkpt lat="44.37981" lon="3.84599">
        <ele>1392.2</ele>
        <time>2022-10-29T08:14:00Z</time>
      </trkpt>
      <trkpt lat="44.37979" lon="3.84598">
        <ele>1392.2</ele>
        <time>2022-10-29T08:14:01Z</time>
      </trkpt>
      <trkpt lat="44.37976" lon="3.84598">
        <ele>1392.2</ele>
        <time>2022-10-29T08:14:02Z</time>
      </trkpt>
      <trkpt lat="44.37973" lon="3.84597">
        <ele>1392</ele>
        <time>2022-10-29T08:14:03Z</time>
      </trkpt>
      <trkpt lat="44.37971" lon="3.84596">
        <ele>1392</ele>
        <time>2022-10-29T08:14:04Z</time>
      </trkpt>
      <trkpt lat="44.37971" lon="3.84596">
        <ele>1392</ele>
        <time>2022-10-29T08:14:05Z</time>
      </trkpt>
      <trkpt lat="44.37971" lon="3.84596">
        <ele>1391.8</ele>
        <time>2022-10-29T08:14:06Z</time>
      </trkpt>
      <trkpt lat="44.37971" lon="3.84596">
        <ele>1391.8</ele>
        <time>2022-10-29T08:14:07Z</time>
      </trkpt>
      <trkpt lat="44.37971" lon="3.84596">
        <ele>1391.8</ele>
        <time>2022-10-29T08:14:08Z</time>
      </trkpt>
      <trkpt lat="44.37971" lon="3.84596">
        <ele>1391.8</ele>
        <time>2022-10-29T08:14:09Z</time>
      </trkpt>
      <trkpt lat="44.37972" lon="3.84595">
        <ele>1391.8</ele>
        <time>2022-10-29T08:15:00Z</time>
      </trkpt>
      <trkpt lat="44.37974" lon="3.84595">
        <ele>1391.8</ele>
        <time>2022-10-29T08:15:01Z</time>
      </trkpt>
      <trkpt lat="44.37976" lon="3.84595">
        <ele>1391.8</ele>
        <time>2022-10-29T08:15:02Z</time>
      </trkpt>
      <trkpt lat="44.37979" lon="3.84596">
        <ele>1391.8</ele>
        <time>2022-10-29T08:15:03Z</time>
      </trkpt>
      <trkpt lat="44.37981" lon="3.84597">
        <ele>1391.8</ele>
        <time>2022-10-29T08:15:04Z</time>
      </trkpt>
      <trkpt lat="44.37982" lon="3.84597">
        <ele>1391.8</ele>
        <time>2022-10-29T08:15:05Z</time>
      </trkpt>
      <trkpt lat="44.37984" lon="3.84598">
        <ele>1391.8</ele>
        <time>2022-10-29T08:15:06Z</time>
      </trkpt>
      <trkpt lat="44.37985" lon="3.84598">
        <ele>1391.8</ele>
        <time>2022-10-29T08:15:07Z</time>
      </trkpt>
      <trkpt lat="44.37987" lon="3.84598">
        <ele>1391.8</ele>
        <time>2022-10-29T08:15:08Z</time>
      </trkpt>
      <trkpt lat="44.37988" lon="3.84598">
        <ele>1391.8</ele>
        <time>2022-10-29T08:15:09Z</time>
      </trkpt>
      <trkpt lat="44.37989" lon="3.84597">
        <ele>1391.8</ele>
        <time>2022-10-29T08:15:10Z</time>
      </trkpt>
      <trkpt lat="44.3799" lon="3.84597">
        <ele>1392</ele>
        <time>2022-10-29T08:15:11Z</time>
      </trkpt>
      <trkpt lat="44.3799" lon="3.84597">
        <ele>1392</ele>
        <time>2022-10-29T08:15:12Z</time>
      </trkpt>
      <trkpt lat="44.3799" lon="3.84597">
        <ele>1392</ele>
        <time>2022-10-29T08:15:13Z</time>
      </trkpt>
      <trkpt lat="44.3799" lon="3.84597">
        <ele>1392</ele>
        <time>2022-10-29T08:15:14Z</time>
      </trkpt>
      <trkpt lat="44.3799" lon="3.84597">
        <ele>1392</ele>
        <time>2022-10-29T08:15:15Z</time>
      </trkpt>
      <trkpt lat="44.3799" lon="3.84597">
        <ele>1392</ele>
        <time>2022-10-29T08:15:16Z</time>
      </trkpt>
      <trkpt lat="44.37993" lon="3.84598">
        <ele>1392</ele>
        <time>2022-10-29T08:15:33Z</time>
      </trkpt>
      <trkpt lat="44.37995" lon="3.846">
        <ele>1392</ele>
        <time>2022-10-29T08:15:34Z</time>
      </trkpt>
      <trkpt lat="44.37995" lon="3.846">
        <ele>1392</ele>
        <time>2022-10-29T08:15:35Z</time>
      </trkpt>
      <trkpt lat="44.37996" lon="3.84601">
        <ele>1392.2</ele>
        <time>2022-10-29T08:15:36Z</time>
      </trkpt>
      <trkpt lat="44.37997" lon="3.84601">
        <ele>1392.2</ele>
        <time>2022-10-29T08:15:37Z</time>
      </trkpt>
      <trkpt lat="44.37998" lon="3.84601">
        <ele>1392.2</ele>
        <time>2022-10-29T08:15:38Z</time>
      </trkpt>
      <trkpt lat="44.37998" lon="3.846">
        <ele>1392.4</ele>
        <time>2022-10-29T08:15:39Z</time>
      </trkpt>
      <trkpt lat="44.37998" lon="3.84599">
        <ele>1392.4</ele>
        <time>2022-10-29T08:15:40Z</time>
      </trkpt>
      <trkpt lat="44.37998" lon="3.84599">
        <ele>1392.4</ele>
        <time>2022-10-29T08:15:41Z</time>
      </trkpt>
      <trkpt lat="44.37998" lon="3.84599">
        <ele>1392.4</ele>
        <time>2022-10-29T08:15:42Z</time>
      </trkpt>
      <trkpt lat="44.37998" lon="3.84599">
        <ele>1392.4</ele>
        <time>2022-10-29T08:15:43Z</time>
      </trkpt>
      <trkpt lat="44.37998" lon="3.84599">
        <ele>1392.4</ele>
        <time>2022-10-29T08:15:44Z</time>
      </trkpt>
      <trkpt lat="44.37997" lon="3.846">
        <ele>1392.2</ele>
        <time>2022-10-29T08:15:53Z</time>
      </trkpt>
      <trkpt lat="44.37995" lon="3.84599">
        <ele>1392.2</ele>
        <time>2022-10-29T08:15:54Z</time>
      </trkpt>
      <trkpt lat="44.37994" lon="3.84597">
        <ele>1392.2</ele>
        <time>2022-10-29T08:15:55Z</time>
      </trkpt>
      <trkpt lat="44.37992" lon="3.84595">
        <ele>1392</ele>
        <time>2022-10-29T08:15:56Z</time>
      </trkpt>
      <trkpt lat="44.37991" lon="3.84594">
        <ele>1391.8</ele>
        <time>2022-10-29T08:15:57Z</time>
      </trkpt>
      <trkpt lat="44.37989" lon="3.84595">
        <ele>1391.6</ele>
        <time>2022-10-29T08:15:58Z</time>
      </trkpt>
      <trkpt lat="44.37987" lon="3.84596">
        <ele>1391.6</ele>
        <time>2022-10-29T08:15:59Z</time>
      </trkpt>
      <trkpt lat="44.37985" lon="3.84597">
        <ele>1391.4</ele>
        <time>2022-10-29T08:16:00Z</time>
      </trkpt>
      <trkpt lat="44.37982" lon="3.84599">
        <ele>1391.4</ele>
        <time>2022-10-29T08:16:01Z</time>
      </trkpt>
      <trkpt lat="44.37981" lon="3.846">
        <ele>1391.2</ele>
        <time>2022-10-29T08:16:02Z</time>
      </trkpt>
      <trkpt lat="44.3798" lon="3.846">
        <ele>1391.2</ele>
        <time>2022-10-29T08:16:03Z</time>
      </trkpt>
      <trkpt lat="44.3798" lon="3.846">
        <ele>1391.2</ele>
        <time>2022-10-29T08:16:04Z</time>
      </trkpt>
      <trkpt lat="44.3798" lon="3.846">
        <ele>1391.2</ele>
        <time>2022-10-29T08:16:05Z</time>
      </trkpt>
      <trkpt lat="44.3798" lon="3.846">
        <ele>1391</ele>
        <time>2022-10-29T08:16:06Z</time>
      </trkpt>
      <trkpt lat="44.3798" lon="3.846">
        <ele>1391</ele>
        <time>2022-10-29T08:16:07Z</time>
      </trkpt>
      <trkpt lat="44.3798" lon="3.846">
        <ele>1391</ele>
        <time>2022-10-29T08:16:08Z</time>
      </trkpt>
      <trkpt lat="44.3798" lon="3.846">
        <ele>1391</ele>
        <time>2022-10-29T08:16:09Z</time>
      </trkpt>
      <trkpt lat="44.37968" lon="3.84592">
        <ele>1390.8</ele>
        <time>2022-10-29T08:18:19Z</time>
      </trkpt>
      <trkpt lat="44.37965" lon="3.8459">
        <ele>1390.8</ele>
        <time>2022-10-29T08:18:20Z</time>
      </trkpt>
      <trkpt lat="44.37962" lon="3.84588">
        <ele>1391</ele>
        <time>2022-10-29T08:18:21Z</time>
      </trkpt>
      <trkpt lat="44.37959" lon="3.84586">
        <ele>1391</ele>
        <time>2022-10-29T08:18:22Z</time>
      </trkpt>
      <trkpt lat="44.37956" lon="3.84584">
        <ele>1391</ele>
        <time>2022-10-29T08:18:23Z</time>
      </trkpt>
      <trkpt lat="44.37954" lon="3.84582">
        <ele>1391</ele>
        <time>2022-10-29T08:18:24Z</time>
      </trkpt>
      <trkpt lat="44.37951" lon="3.8458">
        <ele>1391.2</ele>
        <time>2022-10-29T08:18:25Z</time>
      </trkpt>
      <trkpt lat="44.37949" lon="3.84578">
        <ele>1391.2</ele>
        <time>2022-10-29T08:18:26Z</time>
      </trkpt>
      <trkpt lat="44.37946" lon="3.84576">
        <ele>1391.2</ele>
        <time>2022-10-29T08:18:27Z</time>
      </trkpt>
      <trkpt lat="44.37944" lon="3.84573">
        <ele>1391.2</ele>
        <time>2022-10-29T08:18:28Z</time>
      </trkpt>
      <trkpt lat="44.37942" lon="3.84571">
        <ele>1391.4</ele>
        <time>2022-10-29T08:18:29Z</time>
      </trkpt>
      <trkpt lat="44.37939" lon="3.84569">
        <ele>1391.4</ele>
        <time>2022-10-29T08:18:30Z</time>
      </trkpt>
      <trkpt lat="44.37936" lon="3.84567">
        <ele>1391.6</ele>
        <time>2022-10-29T08:18:31Z</time>
      </trkpt>
      <trkpt lat="44.37933" lon="3.84565">
        <ele>1391.6</ele>
        <time>2022-10-29T08:18:32Z</time>
      </trkpt>
      <trkpt lat="44.37931" lon="3.84563">
        <ele>1391.8</ele>
        <time>2022-10-29T08:18:33Z</time>
      </trkpt>
      <trkpt lat="44.37928" lon="3.8456">
        <ele>1391.8</ele>
        <time>2022-10-29T08:18:34Z</time>
      </trkpt>
      <trkpt lat="44.37927" lon="3.84557">
        <ele>1392</ele>
        <time>2022-10-29T08:18:35Z</time>
      </trkpt>
      <trkpt lat="44.37925" lon="3.84553">
        <ele>1392.2</ele>
        <time>2022-10-29T08:18:36Z</time>
      </trkpt>
      <trkpt lat="44.37925" lon="3.8455">
        <ele>1392.6</ele>
        <time>2022-10-29T08:18:37Z</time>
      </trkpt>
      <trkpt lat="44.37924" lon="3.84548">
        <ele>1392.8</ele>
        <time>2022-10-29T08:18:38Z</time>
      </trkpt>
      <trkpt lat="44.37923" lon="3.84545">
        <ele>1393.2</ele>
        <time>2022-10-29T08:18:39Z</time>
      </trkpt>
      <trkpt lat="44.37921" lon="3.84543">
        <ele>1393.4</ele>
        <time>2022-10-29T08:18:40Z</time>
      </trkpt>
      <trkpt lat="44.3792" lon="3.84541">
        <ele>1393.6</ele>
        <time>2022-10-29T08:18:41Z</time>
      </trkpt>
      <trkpt lat="44.37919" lon="3.84538">
        <ele>1394</ele>
        <time>2022-10-29T08:18:42Z</time>
      </trkpt>
      <trkpt lat="44.37918" lon="3.84536">
        <ele>1394.2</ele>
        <time>2022-10-29T08:18:43Z</time>
      </trkpt>
      <trkpt lat="44.37918" lon="3.84533">
        <ele>1394.2</ele>
        <time>2022-10-29T08:18:44Z</time>
      </trkpt>
      <trkpt lat="44.37917" lon="3.84531">
        <ele>1394.4</ele>
        <time>2022-10-29T08:18:45Z</time>
      </trkpt>
      <trkpt lat="44.37917" lon="3.84529">
        <ele>1394.4</ele>
        <time>2022-10-29T08:18:46Z</time>
      </trkpt>
      <trkpt lat="44.37917" lon="3.84526">
        <ele>1394.4</ele>
        <time>2022-10-29T08:18:47Z</time>
      </trkpt>
      <trkpt lat="44.37916" lon="3.84524">
        <ele>1394.2</ele>
        <time>2022-10-29T08:18:48Z</time>
      </trkpt>
      <trkpt lat="44.37916" lon="3.84521">
        <ele>1394.2</ele>
        <time>2022-10-29T08:18:49Z</time>
      </trkpt>
      <trkpt lat="44.37917" lon="3.84517">
        <ele>1394.2</ele>
        <time>2022-10-29T08:18:50Z</time>
      </trkpt>
      <trkpt lat="44.37918" lon="3.84512">
        <ele>1394</ele>
        <time>2022-10-29T08:18:51Z</time>
      </trkpt>
      <trkpt lat="44.37919" lon="3.84508">
        <ele>1394</ele>
        <time>2022-10-29T08:18:52Z</time>
      </trkpt>
      <trkpt lat="44.3792" lon="3.84503">
        <ele>1393.8</ele>
        <time>2022-10-29T08:18:53Z</time>
      </trkpt>
      <trkpt lat="44.3792" lon="3.84498">
        <ele>1393.6</ele>
        <time>2022-10-29T08:18:54Z</time>
      </trkpt>
      <trkpt lat="44.37921" lon="3.84492">
        <ele>1393.6</ele>
        <time>2022-10-29T08:18:55Z</time>
      </trkpt>
      <trkpt lat="44.37922" lon="3.84486">
        <ele>1393.4</ele>
        <time>2022-10-29T08:18:56Z</time>
      </trkpt>
      <trkpt lat="44.37922" lon="3.8448">
        <ele>1393.2</ele>
        <time>2022-10-29T08:18:57Z</time>
      </trkpt>
      <trkpt lat="44.37922" lon="3.84473">
        <ele>1393</ele>
        <time>2022-10-29T08:18:58Z</time>
      </trkpt>
      <trkpt lat="44.37921" lon="3.84467">
        <ele>1392.8</ele>
        <time>2022-10-29T08:18:59Z</time>
      </trkpt>
      <trkpt lat="44.3792" lon="3.8446">
        <ele>1392.6</ele>
        <time>2022-10-29T08:19:00Z</time>
      </trkpt>
      <trkpt lat="44.37919" lon="3.84453">
        <ele>1392.4</ele>
        <time>2022-10-29T08:19:01Z</time>
      </trkpt>
      <trkpt lat="44.37918" lon="3.84447">
        <ele>1392.4</ele>
        <time>2022-10-29T08:19:02Z</time>
      </trkpt>
      <trkpt lat="44.37917" lon="3.8444">
        <ele>1392.2</ele>
        <time>2022-10-29T08:19:03Z</time>
      </trkpt>
      <trkpt lat="44.37915" lon="3.84434">
        <ele>1392</ele>
        <time>2022-10-29T08:19:04Z</time>
      </trkpt>
      <trkpt lat="44.37913" lon="3.84426">
        <ele>1392</ele>
        <time>2022-10-29T08:19:05Z</time>
      </trkpt>
      <trkpt lat="44.37911" lon="3.8442">
        <ele>1391.8</ele>
        <time>2022-10-29T08:19:06Z</time>
      </trkpt>
      <trkpt lat="44.3791" lon="3.84414">
        <ele>1391.8</ele>
        <time>2022-10-29T08:19:07Z</time>
      </trkpt>
      <trkpt lat="44.37908" lon="3.84408">
        <ele>1391.6</ele>
        <time>2022-10-29T08:19:08Z</time>
      </trkpt>
      <trkpt lat="44.37907" lon="3.84402">
        <ele>1391.4</ele>
        <time>2022-10-29T08:19:09Z</time>
      </trkpt>
      <trkpt lat="44.37905" lon="3.84395">
        <ele>1391.2</ele>
        <time>2022-10-29T08:19:10Z</time>
      </trkpt>
      <trkpt lat="44.37904" lon="3.84388">
        <ele>1391</ele>
        <time>2022-10-29T08:19:11Z</time>
      </trkpt>
      <trkpt lat="44.37903" lon="3.8438">
        <ele>1391</ele>
        <time>2022-10-29T08:19:12Z</time>
      </trkpt>
      <trkpt lat="44.37901" lon="3.84374">
        <ele>1390.8</ele>
        <time>2022-10-29T08:19:13Z</time>
      </trkpt>
      <trkpt lat="44.379" lon="3.84366">
        <ele>1390.8</ele>
        <time>2022-10-29T08:19:14Z</time>
      </trkpt>
      <trkpt lat="44.37899" lon="3.8436">
        <ele>1390.6</ele>
        <time>2022-10-29T08:19:15Z</time>
      </trkpt>
      <trkpt lat="44.37898" lon="3.84353">
        <ele>1390.4</ele>
        <time>2022-10-29T08:19:16Z</time>
      </trkpt>
      <trkpt lat="44.37897" lon="3.84345">
        <ele>1390.2</ele>
        <time>2022-10-29T08:19:17Z</time>
      </trkpt>
      <trkpt lat="44.37895" lon="3.84338">
        <ele>1389.8</ele>
        <time>2022-10-29T08:19:18Z</time>
      </trkpt>
      <trkpt lat="44.37893" lon="3.84331">
        <ele>1389.6</ele>
        <time>2022-10-29T08:19:19Z</time>
      </trkpt>
      <trkpt lat="44.3789" lon="3.84323">
        <ele>1389.4</ele>
        <time>2022-10-29T08:19:20Z</time>
      </trkpt>
      <trkpt lat="44.37887" lon="3.84316">
        <ele>1389.2</ele>
        <time>2022-10-29T08:19:21Z</time>
      </trkpt>
      <trkpt lat="44.37884" lon="3.84308">
        <ele>1389</ele>
        <time>2022-10-29T08:19:22Z</time>
      </trkpt>
      <trkpt lat="44.3788" lon="3.84302">
        <ele>1388.8</ele>
        <time>2022-10-29T08:19:23Z</time>
      </trkpt>
      <trkpt lat="44.37877" lon="3.84294">
        <ele>1388.6</ele>
        <time>2022-10-29T08:19:24Z</time>
      </trkpt>
      <trkpt lat="44.37874" lon="3.84286">
        <ele>1388.4</ele>
        <time>2022-10-29T08:19:25Z</time>
      </trkpt>
      <trkpt lat="44.3787" lon="3.84279">
        <ele>1388</ele>
        <time>2022-10-29T08:19:26Z</time>
      </trkpt>
      <trkpt lat="44.37866" lon="3.84271">
        <ele>1387.8</ele>
        <time>2022-10-29T08:19:27Z</time>
      </trkpt>
      <trkpt lat="44.37861" lon="3.84263">
        <ele>1387.6</ele>
        <time>2022-10-29T08:19:28Z</time>
      </trkpt>
      <trkpt lat="44.37857" lon="3.84256">
        <ele>1387.4</ele>
        <time>2022-10-29T08:19:29Z</time>
      </trkpt>
      <trkpt lat="44.37854" lon="3.84248">
        <ele>1387.2</ele>
        <time>2022-10-29T08:19:30Z</time>
      </trkpt>
      <trkpt lat="44.37849" lon="3.84241">
        <ele>1387</ele>
        <time>2022-10-29T08:19:31Z</time>
      </trkpt>
      <trkpt lat="44.37845" lon="3.84234">
        <ele>1386.8</ele>
        <time>2022-10-29T08:19:32Z</time>
      </trkpt>
      <trkpt lat="44.37841" lon="3.84227">
        <ele>1386.6</ele>
        <time>2022-10-29T08:19:33Z</time>
      </trkpt>
      <trkpt lat="44.37836" lon="3.8422">
        <ele>1386.4</ele>
        <time>2022-10-29T08:19:34Z</time>
      </trkpt>
      <trkpt lat="44.37833" lon="3.84214">
        <ele>1386.2</ele>
        <time>2022-10-29T08:19:35Z</time>
      </trkpt>
      <trkpt lat="44.37831" lon="3.84207">
        <ele>1386.2</ele>
        <time>2022-10-29T08:19:36Z</time>
      </trkpt>
      <trkpt lat="44.37829" lon="3.84199">
        <ele>1386.2</ele>
        <time>2022-10-29T08:19:37Z</time>
      </trkpt>
      <trkpt lat="44.37829" lon="3.84193">
        <ele>1386</ele>
        <time>2022-10-29T08:19:38Z</time>
      </trkpt>
      <trkpt lat="44.37829" lon="3.84186">
        <ele>1386</ele>
        <time>2022-10-29T08:19:39Z</time>
      </trkpt>
      <trkpt lat="44.3783" lon="3.8418">
        <ele>1386</ele>
        <time>2022-10-29T08:19:40Z</time>
      </trkpt>
      <trkpt lat="44.3783" lon="3.84173">
        <ele>1385.8</ele>
        <time>2022-10-29T08:19:41Z</time>
      </trkpt>
      <trkpt lat="44.3783" lon="3.84167">
        <ele>1385.6</ele>
        <time>2022-10-29T08:19:42Z</time>
      </trkpt>
      <trkpt lat="44.37829" lon="3.8416">
        <ele>1385.6</ele>
        <time>2022-10-29T08:19:43Z</time>
      </trkpt>
      <trkpt lat="44.37828" lon="3.84153">
        <ele>1385.4</ele>
        <time>2022-10-29T08:19:44Z</time>
      </trkpt>
      <trkpt lat="44.37828" lon="3.84147">
        <ele>1385.4</ele>
        <time>2022-10-29T08:19:45Z</time>
      </trkpt>
      <trkpt lat="44.37826" lon="3.8414">
        <ele>1385.2</ele>
        <time>2022-10-29T08:19:46Z</time>
      </trkpt>
      <trkpt lat="44.37824" lon="3.84133">
        <ele>1385</ele>
        <time>2022-10-29T08:19:47Z</time>
      </trkpt>
      <trkpt lat="44.37821" lon="3.84127">
        <ele>1385</ele>
        <time>2022-10-29T08:19:48Z</time>
      </trkpt>
      <trkpt lat="44.37816" lon="3.84122">
        <ele>1384.8</ele>
        <time>2022-10-29T08:19:49Z</time>
      </trkpt>
      <trkpt lat="44.37811" lon="3.84118">
        <ele>1384.6</ele>
        <time>2022-10-29T08:19:50Z</time>
      </trkpt>
      <trkpt lat="44.37806" lon="3.84114">
        <ele>1384.4</ele>
        <time>2022-10-29T08:19:51Z</time>
      </trkpt>
      <trkpt lat="44.37801" lon="3.84112">
        <ele>1384.4</ele>
        <time>2022-10-29T08:19:52Z</time>
      </trkpt>
      <trkpt lat="44.37796" lon="3.8411">
        <ele>1384.2</ele>
        <time>2022-10-29T08:19:53Z</time>
      </trkpt>
      <trkpt lat="44.3779" lon="3.84109">
        <ele>1384</ele>
        <time>2022-10-29T08:19:54Z</time>
      </trkpt>
      <trkpt lat="44.37785" lon="3.84109">
        <ele>1384</ele>
        <time>2022-10-29T08:19:55Z</time>
      </trkpt>
      <trkpt lat="44.37779" lon="3.84111">
        <ele>1383.8</ele>
        <time>2022-10-29T08:19:56Z</time>
      </trkpt>
      <trkpt lat="44.37774" lon="3.84111">
        <ele>1383.8</ele>
        <time>2022-10-29T08:19:57Z</time>
      </trkpt>
      <trkpt lat="44.37769" lon="3.84112">
        <ele>1383.6</ele>
        <time>2022-10-29T08:19:58Z</time>
      </trkpt>
      <trkpt lat="44.37764" lon="3.84113">
        <ele>1383.6</ele>
        <time>2022-10-29T08:19:59Z</time>
      </trkpt>
      <trkpt lat="44.37759" lon="3.84115">
        <ele>1383.4</ele>
        <time>2022-10-29T08:20:00Z</time>
      </trkpt>
      <trkpt lat="44.37753" lon="3.84116">
        <ele>1383.2</ele>
        <time>2022-10-29T08:20:01Z</time>
      </trkpt>
      <trkpt lat="44.37748" lon="3.84117">
        <ele>1383.2</ele>
        <time>2022-10-29T08:20:02Z</time>
      </trkpt>
      <trkpt lat="44.37743" lon="3.84118">
        <ele>1383</ele>
        <time>2022-10-29T08:20:03Z</time>
      </trkpt>
      <trkpt lat="44.37738" lon="3.84119">
        <ele>1383</ele>
        <time>2022-10-29T08:20:04Z</time>
      </trkpt>
      <trkpt lat="44.37733" lon="3.8412">
        <ele>1383</ele>
        <time>2022-10-29T08:20:05Z</time>
      </trkpt>
      <trkpt lat="44.37728" lon="3.84121">
        <ele>1382.8</ele>
        <time>2022-10-29T08:20:06Z</time>
      </trkpt>
      <trkpt lat="44.37724" lon="3.84122">
        <ele>1382.8</ele>
        <time>2022-10-29T08:20:07Z</time>
      </trkpt>
      <trkpt lat="44.37719" lon="3.84123">
        <ele>1382.8</ele>
        <time>2022-10-29T08:20:08Z</time>
      </trkpt>
      <trkpt lat="44.37714" lon="3.84123">
        <ele>1382.8</ele>
        <time>2022-10-29T08:20:09Z</time>
      </trkpt>
      <trkpt lat="44.37709" lon="3.84124">
        <ele>1382.6</ele>
        <time>2022-10-29T08:20:10Z</time>
      </trkpt>
      <trkpt lat="44.37705" lon="3.84125">
        <ele>1382.6</ele>
        <time>2022-10-29T08:20:11Z</time>
      </trkpt>
      <trkpt lat="44.377" lon="3.84125">
        <ele>1382.4</ele>
        <time>2022-10-29T08:20:12Z</time>
      </trkpt>
      <trkpt lat="44.37694" lon="3.84124">
        <ele>1382.4</ele>
        <time>2022-10-29T08:20:13Z</time>
      </trkpt>
      <trkpt lat="44.3769" lon="3.84123">
        <ele>1382.2</ele>
        <time>2022-10-29T08:20:14Z</time>
      </trkpt>
      <trkpt lat="44.37684" lon="3.84122">
        <ele>1382.2</ele>
        <time>2022-10-29T08:20:15Z</time>
      </trkpt>
      <trkpt lat="44.37679" lon="3.8412">
        <ele>1382</ele>
        <time>2022-10-29T08:20:16Z</time>
      </trkpt>
      <trkpt lat="44.37674" lon="3.84119">
        <ele>1381.8</ele>
        <time>2022-10-29T08:20:17Z</time>
      </trkpt>
      <trkpt lat="44.37669" lon="3.84117">
        <ele>1381.6</ele>
        <time>2022-10-29T08:20:18Z</time>
      </trkpt>
      <trkpt lat="44.37664" lon="3.84115">
        <ele>1381.6</ele>
        <time>2022-10-29T08:20:19Z</time>
      </trkpt>
      <trkpt lat="44.3766" lon="3.84112">
        <ele>1381.4</ele>
        <time>2022-10-29T08:20:20Z</time>
      </trkpt>
      <trkpt lat="44.37656" lon="3.84109">
        <ele>1381</ele>
        <time>2022-10-29T08:20:21Z</time>
      </trkpt>
      <trkpt lat="44.37652" lon="3.84105">
        <ele>1380.8</ele>
        <time>2022-10-29T08:20:22Z</time>
      </trkpt>
      <trkpt lat="44.37649" lon="3.84099">
        <ele>1380.6</ele>
        <time>2022-10-29T08:20:23Z</time>
      </trkpt>
      <trkpt lat="44.37647" lon="3.84094">
        <ele>1380.4</ele>
        <time>2022-10-29T08:20:24Z</time>
      </trkpt>
      <trkpt lat="44.37647" lon="3.84088">
        <ele>1380.2</ele>
        <time>2022-10-29T08:20:25Z</time>
      </trkpt>
      <trkpt lat="44.37647" lon="3.84083">
        <ele>1380</ele>
        <time>2022-10-29T08:20:26Z</time>
      </trkpt>
      <trkpt lat="44.37648" lon="3.84077">
        <ele>1379.8</ele>
        <time>2022-10-29T08:20:27Z</time>
      </trkpt>
      <trkpt lat="44.3765" lon="3.84072">
        <ele>1379.6</ele>
        <time>2022-10-29T08:20:28Z</time>
      </trkpt>
      <trkpt lat="44.37653" lon="3.84066">
        <ele>1379.4</ele>
        <time>2022-10-29T08:20:29Z</time>
      </trkpt>
      <trkpt lat="44.37657" lon="3.84059">
        <ele>1379.2</ele>
        <time>2022-10-29T08:20:30Z</time>
      </trkpt>
      <trkpt lat="44.37661" lon="3.84053">
        <ele>1379</ele>
        <time>2022-10-29T08:20:31Z</time>
      </trkpt>
      <trkpt lat="44.37664" lon="3.84047">
        <ele>1378.8</ele>
        <time>2022-10-29T08:20:32Z</time>
      </trkpt>
      <trkpt lat="44.37667" lon="3.84042">
        <ele>1378.8</ele>
        <time>2022-10-29T08:20:33Z</time>
      </trkpt>
      <trkpt lat="44.3767" lon="3.84036">
        <ele>1378.6</ele>
        <time>2022-10-29T08:20:34Z</time>
      </trkpt>
      <trkpt lat="44.37673" lon="3.8403">
        <ele>1378.4</ele>
        <time>2022-10-29T08:20:35Z</time>
      </trkpt>
      <trkpt lat="44.37677" lon="3.84024">
        <ele>1378.2</ele>
        <time>2022-10-29T08:20:36Z</time>
      </trkpt>
      <trkpt lat="44.3768" lon="3.84017">
        <ele>1378.2</ele>
        <time>2022-10-29T08:20:37Z</time>
      </trkpt>
      <trkpt lat="44.37683" lon="3.84011">
        <ele>1378</ele>
        <time>2022-10-29T08:20:38Z</time>
      </trkpt>
      <trkpt lat="44.37686" lon="3.84005">
        <ele>1377.8</ele>
        <time>2022-10-29T08:20:39Z</time>
      </trkpt>
      <trkpt lat="44.37689" lon="3.83998">
        <ele>1377.8</ele>
        <time>2022-10-29T08:20:40Z</time>
      </trkpt>
      <trkpt lat="44.37691" lon="3.83991">
        <ele>1377.6</ele>
        <time>2022-10-29T08:20:41Z</time>
      </trkpt>
      <trkpt lat="44.37693" lon="3.83984">
        <ele>1377.6</ele>
        <time>2022-10-29T08:20:42Z</time>
      </trkpt>
      <trkpt lat="44.37696" lon="3.83976">
        <ele>1377.4</ele>
        <time>2022-10-29T08:20:43Z</time>
      </trkpt>
      <trkpt lat="44.37698" lon="3.83969">
        <ele>1377.2</ele>
        <time>2022-10-29T08:20:44Z</time>
      </trkpt>
      <trkpt lat="44.377" lon="3.83962">
        <ele>1377</ele>
        <time>2022-10-29T08:20:45Z</time>
      </trkpt>
      <trkpt lat="44.37703" lon="3.83954">
        <ele>1377</ele>
        <time>2022-10-29T08:20:46Z</time>
      </trkpt>
      <trkpt lat="44.37705" lon="3.83946">
        <ele>1376.8</ele>
        <time>2022-10-29T08:20:47Z</time>
      </trkpt>
      <trkpt lat="44.37707" lon="3.83939">
        <ele>1376.6</ele>
        <time>2022-10-29T08:20:48Z</time>
      </trkpt>
      <trkpt lat="44.37709" lon="3.83932">
        <ele>1376.6</ele>
        <time>2022-10-29T08:20:49Z</time>
      </trkpt>
      <trkpt lat="44.37711" lon="3.83924">
        <ele>1376.4</ele>
        <time>2022-10-29T08:20:50Z</time>
      </trkpt>
      <trkpt lat="44.37712" lon="3.83916">
        <ele>1376.2</ele>
        <time>2022-10-29T08:20:51Z</time>
      </trkpt>
      <trkpt lat="44.37713" lon="3.83908">
        <ele>1376</ele>
        <time>2022-10-29T08:20:52Z</time>
      </trkpt>
      <trkpt lat="44.37714" lon="3.83901">
        <ele>1376</ele>
        <time>2022-10-29T08:20:53Z</time>
      </trkpt>
      <trkpt lat="44.37714" lon="3.83893">
        <ele>1375.8</ele>
        <time>2022-10-29T08:20:54Z</time>
      </trkpt>
      <trkpt lat="44.37714" lon="3.83885">
        <ele>1375.6</ele>
        <time>2022-10-29T08:20:55Z</time>
      </trkpt>
      <trkpt lat="44.37712" lon="3.83877">
        <ele>1375.4</ele>
        <time>2022-10-29T08:20:56Z</time>
      </trkpt>
      <trkpt lat="44.37711" lon="3.8387">
        <ele>1375.4</ele>
        <time>2022-10-29T08:20:57Z</time>
      </trkpt>
      <trkpt lat="44.37708" lon="3.83864">
        <ele>1375.2</ele>
        <time>2022-10-29T08:20:58Z</time>
      </trkpt>
      <trkpt lat="44.37705" lon="3.83857">
        <ele>1375</ele>
        <time>2022-10-29T08:20:59Z</time>
      </trkpt>
      <trkpt lat="44.37701" lon="3.83852">
        <ele>1374.8</ele>
        <time>2022-10-29T08:21:00Z</time>
      </trkpt>
      <trkpt lat="44.37696" lon="3.83846">
        <ele>1374.6</ele>
        <time>2022-10-29T08:21:01Z</time>
      </trkpt>
      <trkpt lat="44.37691" lon="3.83842">
        <ele>1374.6</ele>
        <time>2022-10-29T08:21:02Z</time>
      </trkpt>
      <trkpt lat="44.37685" lon="3.83839">
        <ele>1374.4</ele>
        <time>2022-10-29T08:21:03Z</time>
      </trkpt>
      <trkpt lat="44.3768" lon="3.83837">
        <ele>1374.2</ele>
        <time>2022-10-29T08:21:04Z</time>
      </trkpt>
      <trkpt lat="44.37675" lon="3.83835">
        <ele>1374</ele>
        <time>2022-10-29T08:21:05Z</time>
      </trkpt>
      <trkpt lat="44.3767" lon="3.83833">
        <ele>1374</ele>
        <time>2022-10-29T08:21:06Z</time>
      </trkpt>
      <trkpt lat="44.37664" lon="3.83831">
        <ele>1373.8</ele>
        <time>2022-10-29T08:21:07Z</time>
      </trkpt>
      <trkpt lat="44.37659" lon="3.83829">
        <ele>1373.6</ele>
        <time>2022-10-29T08:21:08Z</time>
      </trkpt>
      <trkpt lat="44.37654" lon="3.83826">
        <ele>1373.6</ele>
        <time>2022-10-29T08:21:09Z</time>
      </trkpt>
      <trkpt lat="44.37648" lon="3.83823">
        <ele>1373.4</ele>
        <time>2022-10-29T08:21:10Z</time>
      </trkpt>
      <trkpt lat="44.37643" lon="3.8382">
        <ele>1373.2</ele>
        <time>2022-10-29T08:21:11Z</time>
      </trkpt>
      <trkpt lat="44.37638" lon="3.83817">
        <ele>1373</ele>
        <time>2022-10-29T08:21:12Z</time>
      </trkpt>
      <trkpt lat="44.37633" lon="3.83813">
        <ele>1373</ele>
        <time>2022-10-29T08:21:13Z</time>
      </trkpt>
      <trkpt lat="44.37629" lon="3.83808">
        <ele>1372.8</ele>
        <time>2022-10-29T08:21:14Z</time>
      </trkpt>
      <trkpt lat="44.37624" lon="3.83804">
        <ele>1372.6</ele>
        <time>2022-10-29T08:21:15Z</time>
      </trkpt>
      <trkpt lat="44.37619" lon="3.83798">
        <ele>1372.4</ele>
        <time>2022-10-29T08:21:16Z</time>
      </trkpt>
      <trkpt lat="44.37615" lon="3.83793">
        <ele>1372.2</ele>
        <time>2022-10-29T08:21:17Z</time>
      </trkpt>
      <trkpt lat="44.37611" lon="3.83787">
        <ele>1372</ele>
        <time>2022-10-29T08:21:18Z</time>
      </trkpt>
      <trkpt lat="44.37607" lon="3.83781">
        <ele>1371.8</ele>
        <time>2022-10-29T08:21:19Z</time>
      </trkpt>
      <trkpt lat="44.37603" lon="3.83775">
        <ele>1371.4</ele>
        <time>2022-10-29T08:21:20Z</time>
      </trkpt>
      <trkpt lat="44.37599" lon="3.83769">
        <ele>1371.2</ele>
        <time>2022-10-29T08:21:21Z</time>
      </trkpt>
      <trkpt lat="44.37595" lon="3.83763">
        <ele>1371</ele>
        <time>2022-10-29T08:21:22Z</time>
      </trkpt>
      <trkpt lat="44.3759" lon="3.83757">
        <ele>1370.8</ele>
        <time>2022-10-29T08:21:23Z</time>
      </trkpt>
      <trkpt lat="44.37586" lon="3.83752">
        <ele>1370.6</ele>
        <time>2022-10-29T08:21:24Z</time>
      </trkpt>
      <trkpt lat="44.37581" lon="3.83746">
        <ele>1370.4</ele>
        <time>2022-10-29T08:21:25Z</time>
      </trkpt>
      <trkpt lat="44.37577" lon="3.83741">
        <ele>1370.4</ele>
        <time>2022-10-29T08:21:26Z</time>
      </trkpt>
      <trkpt lat="44.37573" lon="3.83736">
        <ele>1370.2</ele>
        <time>2022-10-29T08:21:27Z</time>
      </trkpt>
      <trkpt lat="44.37569" lon="3.83731">
        <ele>1370</ele>
        <time>2022-10-29T08:21:28Z</time>
      </trkpt>
      <trkpt lat="44.37566" lon="3.83725">
        <ele>1370</ele>
        <time>2022-10-29T08:21:29Z</time>
      </trkpt>
      <trkpt lat="44.37564" lon="3.83719">
        <ele>1369.8</ele>
        <time>2022-10-29T08:21:30Z</time>
      </trkpt>
      <trkpt lat="44.37562" lon="3.83712">
        <ele>1369.8</ele>
        <time>2022-10-29T08:21:31Z</time>
      </trkpt>
      <trkpt lat="44.37561" lon="3.83705">
        <ele>1369.8</ele>
        <time>2022-10-29T08:21:32Z</time>
      </trkpt>
      <trkpt lat="44.37561" lon="3.83699">
        <ele>1369.8</ele>
        <time>2022-10-29T08:21:33Z</time>
      </trkpt>
      <trkpt lat="44.37561" lon="3.83693">
        <ele>1369.8</ele>
        <time>2022-10-29T08:21:34Z</time>
      </trkpt>
      <trkpt lat="44.37563" lon="3.83687">
        <ele>1369.8</ele>
        <time>2022-10-29T08:21:35Z</time>
      </trkpt>
      <trkpt lat="44.37564" lon="3.83681">
        <ele>1370</ele>
        <time>2022-10-29T08:21:36Z</time>
      </trkpt>
      <trkpt lat="44.37567" lon="3.83676">
        <ele>1370</ele>
        <time>2022-10-29T08:21:37Z</time>
      </trkpt>
      <trkpt lat="44.37569" lon="3.83671">
        <ele>1370</ele>
        <time>2022-10-29T08:21:38Z</time>
      </trkpt>
      <trkpt lat="44.37571" lon="3.83666">
        <ele>1370</ele>
        <time>2022-10-29T08:21:39Z</time>
      </trkpt>
      <trkpt lat="44.37572" lon="3.83662">
        <ele>1370.2</ele>
        <time>2022-10-29T08:21:40Z</time>
      </trkpt>
      <trkpt lat="44.37573" lon="3.83658">
        <ele>1370.4</ele>
        <time>2022-10-29T08:21:41Z</time>
      </trkpt>
      <trkpt lat="44.37574" lon="3.83653">
        <ele>1370.4</ele>
        <time>2022-10-29T08:21:42Z</time>
      </trkpt>
      <trkpt lat="44.37575" lon="3.83649">
        <ele>1370.6</ele>
        <time>2022-10-29T08:21:43Z</time>
      </trkpt>
      <trkpt lat="44.37575" lon="3.83645">
        <ele>1370.6</ele>
        <time>2022-10-29T08:21:44Z</time>
      </trkpt>
      <trkpt lat="44.37575" lon="3.83639">
        <ele>1370.8</ele>
        <time>2022-10-29T08:21:45Z</time>
      </trkpt>
      <trkpt lat="44.37574" lon="3.83633">
        <ele>1370.8</ele>
        <time>2022-10-29T08:21:46Z</time>
      </trkpt>
      <trkpt lat="44.37573" lon="3.83627">
        <ele>1371</ele>
        <time>2022-10-29T08:21:47Z</time>
      </trkpt>
      <trkpt lat="44.37572" lon="3.83622">
        <ele>1371</ele>
        <time>2022-10-29T08:21:48Z</time>
      </trkpt>
      <trkpt lat="44.3757" lon="3.83617">
        <ele>1371.2</ele>
        <time>2022-10-29T08:21:49Z</time>
      </trkpt>
      <trkpt lat="44.37568" lon="3.83611">
        <ele>1371.2</ele>
        <time>2022-10-29T08:21:50Z</time>
      </trkpt>
      <trkpt lat="44.37566" lon="3.83606">
        <ele>1371.4</ele>
        <time>2022-10-29T08:21:51Z</time>
      </trkpt>
      <trkpt lat="44.37564" lon="3.83601">
        <ele>1371.4</ele>
        <time>2022-10-29T08:21:52Z</time>
      </trkpt>
      <trkpt lat="44.37562" lon="3.83596">
        <ele>1371.6</ele>
        <time>2022-10-29T08:21:53Z</time>
      </trkpt>
      <trkpt lat="44.3756" lon="3.83591">
        <ele>1371.8</ele>
        <time>2022-10-29T08:21:54Z</time>
      </trkpt>
      <trkpt lat="44.37558" lon="3.83586">
        <ele>1372</ele>
        <time>2022-10-29T08:21:55Z</time>
      </trkpt>
      <trkpt lat="44.37556" lon="3.83582">
        <ele>1372.2</ele>
        <time>2022-10-29T08:21:56Z</time>
      </trkpt>
      <trkpt lat="44.37554" lon="3.83578">
        <ele>1372.4</ele>
        <time>2022-10-29T08:21:57Z</time>
      </trkpt>
      <trkpt lat="44.37552" lon="3.83574">
        <ele>1372.6</ele>
        <time>2022-10-29T08:21:58Z</time>
      </trkpt>
      <trkpt lat="44.37551" lon="3.83569">
        <ele>1373</ele>
        <time>2022-10-29T08:21:59Z</time>
      </trkpt>
      <trkpt lat="44.3755" lon="3.83565">
        <ele>1373.2</ele>
        <time>2022-10-29T08:22:00Z</time>
      </trkpt>
      <trkpt lat="44.37548" lon="3.83561">
        <ele>1373.4</ele>
        <time>2022-10-29T08:22:01Z</time>
      </trkpt>
      <trkpt lat="44.37546" lon="3.83558">
        <ele>1373.4</ele>
        <time>2022-10-29T08:22:02Z</time>
      </trkpt>
      <trkpt lat="44.37544" lon="3.83554">
        <ele>1373.6</ele>
        <time>2022-10-29T08:22:03Z</time>
      </trkpt>
      <trkpt lat="44.37541" lon="3.8355">
        <ele>1373.6</ele>
        <time>2022-10-29T08:22:04Z</time>
      </trkpt>
      <trkpt lat="44.37538" lon="3.83546">
        <ele>1373.6</ele>
        <time>2022-10-29T08:22:05Z</time>
      </trkpt>
      <trkpt lat="44.37535" lon="3.83543">
        <ele>1373.6</ele>
        <time>2022-10-29T08:22:06Z</time>
      </trkpt>
      <trkpt lat="44.37531" lon="3.8354">
        <ele>1373.4</ele>
        <time>2022-10-29T08:22:07Z</time>
      </trkpt>
      <trkpt lat="44.37526" lon="3.83538">
        <ele>1373.4</ele>
        <time>2022-10-29T08:22:08Z</time>
      </trkpt>
      <trkpt lat="44.37522" lon="3.83535">
        <ele>1373.4</ele>
        <time>2022-10-29T08:22:09Z</time>
      </trkpt>
      <trkpt lat="44.37518" lon="3.83533">
        <ele>1373.2</ele>
        <time>2022-10-29T08:22:10Z</time>
      </trkpt>
      <trkpt lat="44.37514" lon="3.8353">
        <ele>1373.2</ele>
        <time>2022-10-29T08:22:11Z</time>
      </trkpt>
      <trkpt lat="44.37509" lon="3.83527">
        <ele>1373</ele>
        <time>2022-10-29T08:22:12Z</time>
      </trkpt>
      <trkpt lat="44.37505" lon="3.83524">
        <ele>1372.8</ele>
        <time>2022-10-29T08:22:13Z</time>
      </trkpt>
      <trkpt lat="44.37501" lon="3.83521">
        <ele>1372.8</ele>
        <time>2022-10-29T08:22:14Z</time>
      </trkpt>
      <trkpt lat="44.37497" lon="3.83519">
        <ele>1372.6</ele>
        <time>2022-10-29T08:22:15Z</time>
      </trkpt>
      <trkpt lat="44.37492" lon="3.83517">
        <ele>1372.4</ele>
        <time>2022-10-29T08:22:16Z</time>
      </trkpt>
      <trkpt lat="44.37488" lon="3.83514">
        <ele>1372.4</ele>
        <time>2022-10-29T08:22:17Z</time>
      </trkpt>
      <trkpt lat="44.37483" lon="3.83511">
        <ele>1372.2</ele>
        <time>2022-10-29T08:22:18Z</time>
      </trkpt>
      <trkpt lat="44.37479" lon="3.83508">
        <ele>1372</ele>
        <time>2022-10-29T08:22:19Z</time>
      </trkpt>
      <trkpt lat="44.37474" lon="3.83505">
        <ele>1372</ele>
        <time>2022-10-29T08:22:20Z</time>
      </trkpt>
      <trkpt lat="44.3747" lon="3.83502">
        <ele>1371.8</ele>
        <time>2022-10-29T08:22:21Z</time>
      </trkpt>
      <trkpt lat="44.37465" lon="3.83499">
        <ele>1371.6</ele>
        <time>2022-10-29T08:22:22Z</time>
      </trkpt>
      <trkpt lat="44.37461" lon="3.83495">
        <ele>1371.6</ele>
        <time>2022-10-29T08:22:23Z</time>
      </trkpt>
      <trkpt lat="44.37457" lon="3.83492">
        <ele>1371.4</ele>
        <time>2022-10-29T08:22:24Z</time>
      </trkpt>
      <trkpt lat="44.37452" lon="3.8349">
        <ele>1371</ele>
        <time>2022-10-29T08:22:25Z</time>
      </trkpt>
      <trkpt lat="44.37447" lon="3.83488">
        <ele>1370.8</ele>
        <time>2022-10-29T08:22:26Z</time>
      </trkpt>
      <trkpt lat="44.37442" lon="3.83485">
        <ele>1370.6</ele>
        <time>2022-10-29T08:22:27Z</time>
      </trkpt>
      <trkpt lat="44.37436" lon="3.83484">
        <ele>1370.4</ele>
        <time>2022-10-29T08:22:28Z</time>
      </trkpt>
      <trkpt lat="44.3743" lon="3.83483">
        <ele>1370.2</ele>
        <time>2022-10-29T08:22:29Z</time>
      </trkpt>
      <trkpt lat="44.37425" lon="3.83482">
        <ele>1370</ele>
        <time>2022-10-29T08:22:30Z</time>
      </trkpt>
      <trkpt lat="44.37419" lon="3.8348">
        <ele>1369.8</ele>
        <time>2022-10-29T08:22:31Z</time>
      </trkpt>
      <trkpt lat="44.37413" lon="3.8348">
        <ele>1369.6</ele>
        <time>2022-10-29T08:22:32Z</time>
      </trkpt>
      <trkpt lat="44.37407" lon="3.83481">
        <ele>1369.2</ele>
        <time>2022-10-29T08:22:33Z</time>
      </trkpt>
      <trkpt lat="44.374" lon="3.83481">
        <ele>1368.8</ele>
        <time>2022-10-29T08:22:34Z</time>
      </trkpt>
      <trkpt lat="44.37393" lon="3.83483">
        <ele>1368.4</ele>
        <time>2022-10-29T08:22:35Z</time>
      </trkpt>
      <trkpt lat="44.37386" lon="3.83485">
        <ele>1368</ele>
        <time>2022-10-29T08:22:36Z</time>
      </trkpt>
      <trkpt lat="44.37379" lon="3.83488">
        <ele>1367.8</ele>
        <time>2022-10-29T08:22:37Z</time>
      </trkpt>
      <trkpt lat="44.37373" lon="3.83491">
        <ele>1367.4</ele>
        <time>2022-10-29T08:22:38Z</time>
      </trkpt>
      <trkpt lat="44.37367" lon="3.83495">
        <ele>1367</ele>
        <time>2022-10-29T08:22:39Z</time>
      </trkpt>
      <trkpt lat="44.37361" lon="3.835">
        <ele>1366.6</ele>
        <time>2022-10-29T08:22:40Z</time>
      </trkpt>
      <trkpt lat="44.37356" lon="3.83504">
        <ele>1366.2</ele>
        <time>2022-10-29T08:22:41Z</time>
      </trkpt>
      <trkpt lat="44.37351" lon="3.83507">
        <ele>1365.8</ele>
        <time>2022-10-29T08:22:42Z</time>
      </trkpt>
      <trkpt lat="44.37345" lon="3.83508">
        <ele>1365.4</ele>
        <time>2022-10-29T08:22:43Z</time>
      </trkpt>
      <trkpt lat="44.3734" lon="3.83505">
        <ele>1365.2</ele>
        <time>2022-10-29T08:22:44Z</time>
      </trkpt>
      <trkpt lat="44.37335" lon="3.83501">
        <ele>1364.8</ele>
        <time>2022-10-29T08:22:45Z</time>
      </trkpt>
      <trkpt lat="44.3733" lon="3.83494">
        <ele>1364.4</ele>
        <time>2022-10-29T08:22:46Z</time>
      </trkpt>
      <trkpt lat="44.37327" lon="3.83488">
        <ele>1364.2</ele>
        <time>2022-10-29T08:22:47Z</time>
      </trkpt>
      <trkpt lat="44.37325" lon="3.83484">
        <ele>1363.8</ele>
        <time>2022-10-29T08:22:48Z</time>
      </trkpt>
      <trkpt lat="44.37324" lon="3.83481">
        <ele>1363.6</ele>
        <time>2022-10-29T08:22:49Z</time>
      </trkpt>
      <trkpt lat="44.37324" lon="3.83478">
        <ele>1363.4</ele>
        <time>2022-10-29T08:22:50Z</time>
      </trkpt>
      <trkpt lat="44.37324" lon="3.83475">
        <ele>1363.2</ele>
        <time>2022-10-29T08:22:51Z</time>
      </trkpt>
      <trkpt lat="44.37324" lon="3.83472">
        <ele>1363</ele>
        <time>2022-10-29T08:22:52Z</time>
      </trkpt>
      <trkpt lat="44.37325" lon="3.83468">
        <ele>1363</ele>
        <time>2022-10-29T08:22:53Z</time>
      </trkpt>
      <trkpt lat="44.37326" lon="3.83463">
        <ele>1362.8</ele>
        <time>2022-10-29T08:22:54Z</time>
      </trkpt>
      <trkpt lat="44.37326" lon="3.83458">
        <ele>1362.8</ele>
        <time>2022-10-29T08:22:55Z</time>
      </trkpt>
      <trkpt lat="44.37327" lon="3.83454">
        <ele>1362.6</ele>
        <time>2022-10-29T08:22:56Z</time>
      </trkpt>
      <trkpt lat="44.37329" lon="3.83449">
        <ele>1362.6</ele>
        <time>2022-10-29T08:22:57Z</time>
      </trkpt>
      <trkpt lat="44.3733" lon="3.83444">
        <ele>1362.4</ele>
        <time>2022-10-29T08:22:58Z</time>
      </trkpt>
      <trkpt lat="44.37333" lon="3.83439">
        <ele>1362.4</ele>
        <time>2022-10-29T08:22:59Z</time>
      </trkpt>
      <trkpt lat="44.37337" lon="3.83434">
        <ele>1362.2</ele>
        <time>2022-10-29T08:23:00Z</time>
      </trkpt>
      <trkpt lat="44.37341" lon="3.8343">
        <ele>1362.2</ele>
        <time>2022-10-29T08:23:01Z</time>
      </trkpt>
      <trkpt lat="44.37345" lon="3.83426">
        <ele>1362</ele>
        <time>2022-10-29T08:23:02Z</time>
      </trkpt>
      <trkpt lat="44.37348" lon="3.83421">
        <ele>1362</ele>
        <time>2022-10-29T08:23:03Z</time>
      </trkpt>
      <trkpt lat="44.37352" lon="3.83416">
        <ele>1361.8</ele>
        <time>2022-10-29T08:23:04Z</time>
      </trkpt>
      <trkpt lat="44.37355" lon="3.83411">
        <ele>1361.6</ele>
        <time>2022-10-29T08:23:05Z</time>
      </trkpt>
      <trkpt lat="44.37358" lon="3.83406">
        <ele>1361.4</ele>
        <time>2022-10-29T08:23:06Z</time>
      </trkpt>
      <trkpt lat="44.37361" lon="3.83401">
        <ele>1361.4</ele>
        <time>2022-10-29T08:23:07Z</time>
      </trkpt>
      <trkpt lat="44.37364" lon="3.83395">
        <ele>1361.2</ele>
        <time>2022-10-29T08:23:08Z</time>
      </trkpt>
      <trkpt lat="44.37367" lon="3.8339">
        <ele>1361</ele>
        <time>2022-10-29T08:23:09Z</time>
      </trkpt>
      <trkpt lat="44.3737" lon="3.83384">
        <ele>1361</ele>
        <time>2022-10-29T08:23:10Z</time>
      </trkpt>
      <trkpt lat="44.37373" lon="3.83378">
        <ele>1360.8</ele>
        <time>2022-10-29T08:23:11Z</time>
      </trkpt>
      <trkpt lat="44.37376" lon="3.83373">
        <ele>1360.8</ele>
        <time>2022-10-29T08:23:12Z</time>
      </trkpt>
      <trkpt lat="44.37379" lon="3.83368">
        <ele>1360.8</ele>
        <time>2022-10-29T08:23:13Z</time>
      </trkpt>
      <trkpt lat="44.37382" lon="3.83363">
        <ele>1360.8</ele>
        <time>2022-10-29T08:23:14Z</time>
      </trkpt>
      <trkpt lat="44.37385" lon="3.83358">
        <ele>1360.6</ele>
        <time>2022-10-29T08:23:15Z</time>
      </trkpt>
      <trkpt lat="44.37388" lon="3.83352">
        <ele>1360.6</ele>
        <time>2022-10-29T08:23:16Z</time>
      </trkpt>
      <trkpt lat="44.37391" lon="3.83347">
        <ele>1360.6</ele>
        <time>2022-10-29T08:23:17Z</time>
      </trkpt>
      <trkpt lat="44.37394" lon="3.83341">
        <ele>1360.6</ele>
        <time>2022-10-29T08:23:18Z</time>
      </trkpt>
      <trkpt lat="44.37397" lon="3.83336">
        <ele>1360.6</ele>
        <time>2022-10-29T08:23:19Z</time>
      </trkpt>
      <trkpt lat="44.374" lon="3.8333">
        <ele>1360.6</ele>
        <time>2022-10-29T08:23:20Z</time>
      </trkpt>
      <trkpt lat="44.37402" lon="3.83325">
        <ele>1360.4</ele>
        <time>2022-10-29T08:23:21Z</time>
      </trkpt>
      <trkpt lat="44.37404" lon="3.83319">
        <ele>1360.4</ele>
        <time>2022-10-29T08:23:22Z</time>
      </trkpt>
      <trkpt lat="44.37406" lon="3.83313">
        <ele>1360.4</ele>
        <time>2022-10-29T08:23:23Z</time>
      </trkpt>
      <trkpt lat="44.37408" lon="3.83307">
        <ele>1360.4</ele>
        <time>2022-10-29T08:23:24Z</time>
      </trkpt>
      <trkpt lat="44.3741" lon="3.83301">
        <ele>1360.4</ele>
        <time>2022-10-29T08:23:25Z</time>
      </trkpt>
      <trkpt lat="44.37412" lon="3.83295">
        <ele>1360.4</ele>
        <time>2022-10-29T08:23:26Z</time>
      </trkpt>
      <trkpt lat="44.37414" lon="3.83289">
        <ele>1360.4</ele>
        <time>2022-10-29T08:23:27Z</time>
      </trkpt>
      <trkpt lat="44.37417" lon="3.83283">
        <ele>1360.4</ele>
        <time>2022-10-29T08:23:28Z</time>
      </trkpt>
      <trkpt lat="44.3742" lon="3.83277">
        <ele>1360.6</ele>
        <time>2022-10-29T08:23:29Z</time>
      </trkpt>
      <trkpt lat="44.37422" lon="3.83271">
        <ele>1360.6</ele>
        <time>2022-10-29T08:23:30Z</time>
      </trkpt>
      <trkpt lat="44.37425" lon="3.83265">
        <ele>1360.6</ele>
        <time>2022-10-29T08:23:31Z</time>
      </trkpt>
      <trkpt lat="44.37428" lon="3.83259">
        <ele>1360.6</ele>
        <time>2022-10-29T08:23:32Z</time>
      </trkpt>
      <trkpt lat="44.37431" lon="3.83254">
        <ele>1360.6</ele>
        <time>2022-10-29T08:23:33Z</time>
      </trkpt>
      <trkpt lat="44.37434" lon="3.83249">
        <ele>1360.8</ele>
        <time>2022-10-29T08:23:34Z</time>
      </trkpt>
      <trkpt lat="44.37437" lon="3.83244">
        <ele>1360.8</ele>
        <time>2022-10-29T08:23:35Z</time>
      </trkpt>
      <trkpt lat="44.3744" lon="3.83238">
        <ele>1360.8</ele>
        <time>2022-10-29T08:23:36Z</time>
      </trkpt>
      <trkpt lat="44.37442" lon="3.83233">
        <ele>1360.8</ele>
        <time>2022-10-29T08:23:37Z</time>
      </trkpt>
      <trkpt lat="44.37445" lon="3.83227">
        <ele>1360.8</ele>
        <time>2022-10-29T08:23:38Z</time>
      </trkpt>
      <trkpt lat="44.37448" lon="3.83222">
        <ele>1360.8</ele>
        <time>2022-10-29T08:23:39Z</time>
      </trkpt>
      <trkpt lat="44.37449" lon="3.83216">
        <ele>1360.6</ele>
        <time>2022-10-29T08:23:40Z</time>
      </trkpt>
      <trkpt lat="44.37451" lon="3.83209">
        <ele>1360.6</ele>
        <time>2022-10-29T08:23:41Z</time>
      </trkpt>
      <trkpt lat="44.37453" lon="3.83203">
        <ele>1360.4</ele>
        <time>2022-10-29T08:23:42Z</time>
      </trkpt>
      <trkpt lat="44.37455" lon="3.83198">
        <ele>1360.4</ele>
        <time>2022-10-29T08:23:43Z</time>
      </trkpt>
      <trkpt lat="44.37456" lon="3.83192">
        <ele>1360.4</ele>
        <time>2022-10-29T08:23:44Z</time>
      </trkpt>
      <trkpt lat="44.37458" lon="3.83187">
        <ele>1360.4</ele>
        <time>2022-10-29T08:23:45Z</time>
      </trkpt>
      <trkpt lat="44.37459" lon="3.83182">
        <ele>1360.4</ele>
        <time>2022-10-29T08:23:46Z</time>
      </trkpt>
      <trkpt lat="44.3746" lon="3.83176">
        <ele>1360.4</ele>
        <time>2022-10-29T08:23:47Z</time>
      </trkpt>
      <trkpt lat="44.37461" lon="3.8317">
        <ele>1360.4</ele>
        <time>2022-10-29T08:23:48Z</time>
      </trkpt>
      <trkpt lat="44.37462" lon="3.83164">
        <ele>1360.2</ele>
        <time>2022-10-29T08:23:49Z</time>
      </trkpt>
      <trkpt lat="44.37464" lon="3.83159">
        <ele>1360.2</ele>
        <time>2022-10-29T08:23:50Z</time>
      </trkpt>
      <trkpt lat="44.37465" lon="3.83153">
        <ele>1360.2</ele>
        <time>2022-10-29T08:23:51Z</time>
      </trkpt>
      <trkpt lat="44.37466" lon="3.83147">
        <ele>1360</ele>
        <time>2022-10-29T08:23:52Z</time>
      </trkpt>
      <trkpt lat="44.37466" lon="3.8314">
        <ele>1360</ele>
        <time>2022-10-29T08:23:53Z</time>
      </trkpt>
      <trkpt lat="44.37467" lon="3.83134">
        <ele>1360</ele>
        <time>2022-10-29T08:23:54Z</time>
      </trkpt>
      <trkpt lat="44.37467" lon="3.83127">
        <ele>1359.8</ele>
        <time>2022-10-29T08:23:55Z</time>
      </trkpt>
      <trkpt lat="44.37467" lon="3.83122">
        <ele>1359.8</ele>
        <time>2022-10-29T08:23:56Z</time>
      </trkpt>
      <trkpt lat="44.37467" lon="3.83116">
        <ele>1359.6</ele>
        <time>2022-10-29T08:23:57Z</time>
      </trkpt>
      <trkpt lat="44.37466" lon="3.8311">
        <ele>1359.4</ele>
        <time>2022-10-29T08:23:58Z</time>
      </trkpt>
      <trkpt lat="44.37466" lon="3.83104">
        <ele>1359.4</ele>
        <time>2022-10-29T08:23:59Z</time>
      </trkpt>
      <trkpt lat="44.37466" lon="3.83098">
        <ele>1359.2</ele>
        <time>2022-10-29T08:24:00Z</time>
      </trkpt>
      <trkpt lat="44.37466" lon="3.83091">
        <ele>1359</ele>
        <time>2022-10-29T08:24:01Z</time>
      </trkpt>
      <trkpt lat="44.37466" lon="3.83083">
        <ele>1358.8</ele>
        <time>2022-10-29T08:24:02Z</time>
      </trkpt>
      <trkpt lat="44.37466" lon="3.83076">
        <ele>1358.6</ele>
        <time>2022-10-29T08:24:03Z</time>
      </trkpt>
      <trkpt lat="44.37465" lon="3.83069">
        <ele>1358.4</ele>
        <time>2022-10-29T08:24:04Z</time>
      </trkpt>
      <trkpt lat="44.37465" lon="3.83061">
        <ele>1358.2</ele>
        <time>2022-10-29T08:24:05Z</time>
      </trkpt>
      <trkpt lat="44.37464" lon="3.83053">
        <ele>1358</ele>
        <time>2022-10-29T08:24:06Z</time>
      </trkpt>
      <trkpt lat="44.37464" lon="3.83046">
        <ele>1357.8</ele>
        <time>2022-10-29T08:24:07Z</time>
      </trkpt>
      <trkpt lat="44.37462" lon="3.83039">
        <ele>1357.8</ele>
        <time>2022-10-29T08:24:08Z</time>
      </trkpt>
      <trkpt lat="44.37461" lon="3.83032">
        <ele>1357.6</ele>
        <time>2022-10-29T08:24:09Z</time>
      </trkpt>
      <trkpt lat="44.37459" lon="3.83026">
        <ele>1357.4</ele>
        <time>2022-10-29T08:24:10Z</time>
      </trkpt>
      <trkpt lat="44.37457" lon="3.83019">
        <ele>1357.2</ele>
        <time>2022-10-29T08:24:11Z</time>
      </trkpt>
      <trkpt lat="44.37455" lon="3.83013">
        <ele>1357.2</ele>
        <time>2022-10-29T08:24:12Z</time>
      </trkpt>
      <trkpt lat="44.37453" lon="3.83006">
        <ele>1357</ele>
        <time>2022-10-29T08:24:13Z</time>
      </trkpt>
      <trkpt lat="44.37451" lon="3.82998">
        <ele>1356.8</ele>
        <time>2022-10-29T08:24:14Z</time>
      </trkpt>
      <trkpt lat="44.37449" lon="3.82991">
        <ele>1356.6</ele>
        <time>2022-10-29T08:24:15Z</time>
      </trkpt>
      <trkpt lat="44.37447" lon="3.82983">
        <ele>1356.4</ele>
        <time>2022-10-29T08:24:16Z</time>
      </trkpt>
      <trkpt lat="44.37443" lon="3.82976">
        <ele>1356.2</ele>
        <time>2022-10-29T08:24:17Z</time>
      </trkpt>
      <trkpt lat="44.3744" lon="3.82969">
        <ele>1356</ele>
        <time>2022-10-29T08:24:18Z</time>
      </trkpt>
      <trkpt lat="44.37436" lon="3.82963">
        <ele>1355.8</ele>
        <time>2022-10-29T08:24:19Z</time>
      </trkpt>
      <trkpt lat="44.37433" lon="3.82957">
        <ele>1355.6</ele>
        <time>2022-10-29T08:24:20Z</time>
      </trkpt>
      <trkpt lat="44.37429" lon="3.8295">
        <ele>1355.4</ele>
        <time>2022-10-29T08:24:21Z</time>
      </trkpt>
      <trkpt lat="44.37425" lon="3.82943">
        <ele>1355.2</ele>
        <time>2022-10-29T08:24:22Z</time>
      </trkpt>
      <trkpt lat="44.37422" lon="3.82937">
        <ele>1355</ele>
        <time>2022-10-29T08:24:23Z</time>
      </trkpt>
      <trkpt lat="44.37418" lon="3.8293">
        <ele>1354.8</ele>
        <time>2022-10-29T08:24:24Z</time>
      </trkpt>
      <trkpt lat="44.37415" lon="3.82923">
        <ele>1354.6</ele>
        <time>2022-10-29T08:24:25Z</time>
      </trkpt>
      <trkpt lat="44.37411" lon="3.82916">
        <ele>1354.4</ele>
        <time>2022-10-29T08:24:26Z</time>
      </trkpt>
      <trkpt lat="44.37407" lon="3.82909">
        <ele>1354.2</ele>
        <time>2022-10-29T08:24:27Z</time>
      </trkpt>
      <trkpt lat="44.37404" lon="3.82903">
        <ele>1354</ele>
        <time>2022-10-29T08:24:28Z</time>
      </trkpt>
      <trkpt lat="44.374" lon="3.82897">
        <ele>1354</ele>
        <time>2022-10-29T08:24:29Z</time>
      </trkpt>
      <trkpt lat="44.37396" lon="3.8289">
        <ele>1353.8</ele>
        <time>2022-10-29T08:24:30Z</time>
      </trkpt>
      <trkpt lat="44.37392" lon="3.82884">
        <ele>1353.6</ele>
        <time>2022-10-29T08:24:31Z</time>
      </trkpt>
      <trkpt lat="44.37388" lon="3.82877">
        <ele>1353.4</ele>
        <time>2022-10-29T08:24:32Z</time>
      </trkpt>
      <trkpt lat="44.37385" lon="3.82871">
        <ele>1353.2</ele>
        <time>2022-10-29T08:24:33Z</time>
      </trkpt>
      <trkpt lat="44.37382" lon="3.82864">
        <ele>1353</ele>
        <time>2022-10-29T08:24:34Z</time>
      </trkpt>
      <trkpt lat="44.3738" lon="3.82857">
        <ele>1352.8</ele>
        <time>2022-10-29T08:24:35Z</time>
      </trkpt>
      <trkpt lat="44.37378" lon="3.82851">
        <ele>1352.6</ele>
        <time>2022-10-29T08:24:36Z</time>
      </trkpt>
      <trkpt lat="44.37378" lon="3.82845">
        <ele>1352.2</ele>
        <time>2022-10-29T08:24:37Z</time>
      </trkpt>
      <trkpt lat="44.37378" lon="3.82841">
        <ele>1351.8</ele>
        <time>2022-10-29T08:24:38Z</time>
      </trkpt>
      <trkpt lat="44.37378" lon="3.82838">
        <ele>1351.6</ele>
        <time>2022-10-29T08:24:39Z</time>
      </trkpt>
      <trkpt lat="44.37378" lon="3.82838">
        <ele>1351.4</ele>
        <time>2022-10-29T08:24:40Z</time>
      </trkpt>
      <trkpt lat="44.37378" lon="3.8284">
        <ele>1350.8</ele>
        <time>2022-10-29T08:24:45Z</time>
      </trkpt>
      <trkpt lat="44.37378" lon="3.82841">
        <ele>1350.8</ele>
        <time>2022-10-29T08:24:46Z</time>
      </trkpt>
      <trkpt lat="44.37378" lon="3.82843">
        <ele>1350.8</ele>
        <time>2022-10-29T08:24:47Z</time>
      </trkpt>
      <trkpt lat="44.37377" lon="3.82844">
        <ele>1350.8</ele>
        <time>2022-10-29T08:24:48Z</time>
      </trkpt>
      <trkpt lat="44.37377" lon="3.82845">
        <ele>1351</ele>
        <time>2022-10-29T08:24:49Z</time>
      </trkpt>
      <trkpt lat="44.37376" lon="3.82846">
        <ele>1351</ele>
        <time>2022-10-29T08:24:50Z</time>
      </trkpt>
      <trkpt lat="44.37376" lon="3.82846">
        <ele>1351</ele>
        <time>2022-10-29T08:24:51Z</time>
      </trkpt>
      <trkpt lat="44.37376" lon="3.82847">
        <ele>1350.8</ele>
        <time>2022-10-29T08:24:52Z</time>
      </trkpt>
      <trkpt lat="44.37376" lon="3.82847">
        <ele>1350.6</ele>
        <time>2022-10-29T08:24:53Z</time>
      </trkpt>
      <trkpt lat="44.37376" lon="3.82847">
        <ele>1350.6</ele>
        <time>2022-10-29T08:24:54Z</time>
      </trkpt>
      <trkpt lat="44.37376" lon="3.82847">
        <ele>1350.4</ele>
        <time>2022-10-29T08:24:55Z</time>
      </trkpt>
      <trkpt lat="44.37376" lon="3.82847">
        <ele>1350.4</ele>
        <time>2022-10-29T08:24:56Z</time>
      </trkpt>
      <trkpt lat="44.37377" lon="3.82848">
        <ele>1350.4</ele>
        <time>2022-10-29T08:25:47Z</time>
      </trkpt>
      <trkpt lat="44.37378" lon="3.82849">
        <ele>1350.4</ele>
        <time>2022-10-29T08:25:48Z</time>
      </trkpt>
      <trkpt lat="44.37378" lon="3.82851">
        <ele>1350.6</ele>
        <time>2022-10-29T08:25:49Z</time>
      </trkpt>
      <trkpt lat="44.37378" lon="3.82852">
        <ele>1350.6</ele>
        <time>2022-10-29T08:25:50Z</time>
      </trkpt>
      <trkpt lat="44.37379" lon="3.82855">
        <ele>1350.8</ele>
        <time>2022-10-29T08:25:51Z</time>
      </trkpt>
      <trkpt lat="44.3738" lon="3.82858">
        <ele>1351</ele>
        <time>2022-10-29T08:25:52Z</time>
      </trkpt>
      <trkpt lat="44.37381" lon="3.82862">
        <ele>1351</ele>
        <time>2022-10-29T08:25:53Z</time>
      </trkpt>
      <trkpt lat="44.37384" lon="3.82866">
        <ele>1351.2</ele>
        <time>2022-10-29T08:25:54Z</time>
      </trkpt>
      <trkpt lat="44.37386" lon="3.82871">
        <ele>1351.4</ele>
        <time>2022-10-29T08:25:55Z</time>
      </trkpt>
      <trkpt lat="44.37388" lon="3.82874">
        <ele>1351.4</ele>
        <time>2022-10-29T08:25:56Z</time>
      </trkpt>
      <trkpt lat="44.3739" lon="3.82878">
        <ele>1351.6</ele>
        <time>2022-10-29T08:25:57Z</time>
      </trkpt>
      <trkpt lat="44.37392" lon="3.8288">
        <ele>1351.6</ele>
        <time>2022-10-29T08:25:58Z</time>
      </trkpt>
      <trkpt lat="44.37394" lon="3.82882">
        <ele>1351.6</ele>
        <time>2022-10-29T08:25:59Z</time>
      </trkpt>
      <trkpt lat="44.37394" lon="3.82884">
        <ele>1351.6</ele>
        <time>2022-10-29T08:26:00Z</time>
      </trkpt>
      <trkpt lat="44.37393" lon="3.82884">
        <ele>1351.6</ele>
        <time>2022-10-29T08:26:01Z</time>
      </trkpt>
      <trkpt lat="44.37392" lon="3.82883">
        <ele>1351.6</ele>
        <time>2022-10-29T08:26:02Z</time>
      </trkpt>
      <trkpt lat="44.37391" lon="3.82882">
        <ele>1351.8</ele>
        <time>2022-10-29T08:26:03Z</time>
      </trkpt>
      <trkpt lat="44.3739" lon="3.82879">
        <ele>1351.8</ele>
        <time>2022-10-29T08:26:04Z</time>
      </trkpt>
      <trkpt lat="44.37388" lon="3.82876">
        <ele>1351.8</ele>
        <time>2022-10-29T08:26:05Z</time>
      </trkpt>
      <trkpt lat="44.37385" lon="3.82871">
        <ele>1351.8</ele>
        <time>2022-10-29T08:26:06Z</time>
      </trkpt>
      <trkpt lat="44.37383" lon="3.82866">
        <ele>1351.6</ele>
        <time>2022-10-29T08:26:07Z</time>
      </trkpt>
      <trkpt lat="44.37382" lon="3.82861">
        <ele>1351.6</ele>
        <time>2022-10-29T08:26:08Z</time>
      </trkpt>
      <trkpt lat="44.37381" lon="3.82855">
        <ele>1351.4</ele>
        <time>2022-10-29T08:26:09Z</time>
      </trkpt>
      <trkpt lat="44.37381" lon="3.82848">
        <ele>1351.2</ele>
        <time>2022-10-29T08:26:10Z</time>
      </trkpt>
      <trkpt lat="44.37381" lon="3.8284">
        <ele>1351</ele>
        <time>2022-10-29T08:26:11Z</time>
      </trkpt>
      <trkpt lat="44.37382" lon="3.82833">
        <ele>1350.8</ele>
        <time>2022-10-29T08:26:12Z</time>
      </trkpt>
      <trkpt lat="44.37384" lon="3.82825">
        <ele>1350.6</ele>
        <time>2022-10-29T08:26:13Z</time>
      </trkpt>
      <trkpt lat="44.37388" lon="3.82818">
        <ele>1350.2</ele>
        <time>2022-10-29T08:26:14Z</time>
      </trkpt>
      <trkpt lat="44.37392" lon="3.82812">
        <ele>1350</ele>
        <time>2022-10-29T08:26:15Z</time>
      </trkpt>
      <trkpt lat="44.37393" lon="3.82809">
        <ele>1349.6</ele>
        <time>2022-10-29T08:26:16Z</time>
      </trkpt>
      <trkpt lat="44.37394" lon="3.82809">
        <ele>1349.4</ele>
        <time>2022-10-29T08:26:17Z</time>
      </trkpt>
      <trkpt lat="44.37394" lon="3.8281">
        <ele>1349.4</ele>
        <time>2022-10-29T08:26:18Z</time>
      </trkpt>
      <trkpt lat="44.37394" lon="3.82811">
        <ele>1349.4</ele>
        <time>2022-10-29T08:26:19Z</time>
      </trkpt>
      <trkpt lat="44.37393" lon="3.82812">
        <ele>1349.2</ele>
        <time>2022-10-29T08:26:20Z</time>
      </trkpt>
      <trkpt lat="44.37392" lon="3.82814">
        <ele>1349.4</ele>
        <time>2022-10-29T08:26:21Z</time>
      </trkpt>
      <trkpt lat="44.3739" lon="3.82816">
        <ele>1349.4</ele>
        <time>2022-10-29T08:26:22Z</time>
      </trkpt>
      <trkpt lat="44.37387" lon="3.8282">
        <ele>1349.4</ele>
        <time>2022-10-29T08:26:23Z</time>
      </trkpt>
      <trkpt lat="44.37385" lon="3.82824">
        <ele>1349.6</ele>
        <time>2022-10-29T08:26:24Z</time>
      </trkpt>
      <trkpt lat="44.37383" lon="3.82828">
        <ele>1349.6</ele>
        <time>2022-10-29T08:26:25Z</time>
      </trkpt>
      <trkpt lat="44.37382" lon="3.82832">
        <ele>1349.6</ele>
        <time>2022-10-29T08:26:26Z</time>
      </trkpt>
      <trkpt lat="44.37381" lon="3.82835">
        <ele>1349.8</ele>
        <time>2022-10-29T08:26:27Z</time>
      </trkpt>
      <trkpt lat="44.37381" lon="3.82838">
        <ele>1349.8</ele>
        <time>2022-10-29T08:26:28Z</time>
      </trkpt>
      <trkpt lat="44.3738" lon="3.82838">
        <ele>1349.8</ele>
        <time>2022-10-29T08:26:29Z</time>
      </trkpt>
      <trkpt lat="44.3738" lon="3.82839">
        <ele>1349.8</ele>
        <time>2022-10-29T08:26:30Z</time>
      </trkpt>
      <trkpt lat="44.3738" lon="3.82838">
        <ele>1349.8</ele>
        <time>2022-10-29T08:26:31Z</time>
      </trkpt>
      <trkpt lat="44.37379" lon="3.82838">
        <ele>1349.8</ele>
        <time>2022-10-29T08:26:32Z</time>
      </trkpt>
      <trkpt lat="44.37379" lon="3.82837">
        <ele>1349.6</ele>
        <time>2022-10-29T08:26:33Z</time>
      </trkpt>
      <trkpt lat="44.37379" lon="3.82837">
        <ele>1349.6</ele>
        <time>2022-10-29T08:26:34Z</time>
      </trkpt>
      <trkpt lat="44.37379" lon="3.82837">
        <ele>1349.6</ele>
        <time>2022-10-29T08:26:35Z</time>
      </trkpt>
      <trkpt lat="44.37379" lon="3.82837">
        <ele>1349.4</ele>
        <time>2022-10-29T08:26:36Z</time>
      </trkpt>
      <trkpt lat="44.37379" lon="3.82837">
        <ele>1349.4</ele>
        <time>2022-10-29T08:26:37Z</time>
      </trkpt>
      <trkpt lat="44.37379" lon="3.82837">
        <ele>1349.4</ele>
        <time>2022-10-29T08:26:38Z</time>
      </trkpt>
      <trkpt lat="44.3738" lon="3.82836">
        <ele>1349.4</ele>
        <time>2022-10-29T08:26:57Z</time>
      </trkpt>
      <trkpt lat="44.37381" lon="3.82833">
        <ele>1349.4</ele>
        <time>2022-10-29T08:26:58Z</time>
      </trkpt>
      <trkpt lat="44.37383" lon="3.82829">
        <ele>1349.2</ele>
        <time>2022-10-29T08:26:59Z</time>
      </trkpt>
      <trkpt lat="44.37385" lon="3.82823">
        <ele>1349.2</ele>
        <time>2022-10-29T08:27:00Z</time>
      </trkpt>
      <trkpt lat="44.37388" lon="3.82819">
        <ele>1349.2</ele>
        <time>2022-10-29T08:27:01Z</time>
      </trkpt>
      <trkpt lat="44.3739" lon="3.82815">
        <ele>1349</ele>
        <time>2022-10-29T08:27:02Z</time>
      </trkpt>
      <trkpt lat="44.37394" lon="3.8281">
        <ele>1349</ele>
        <time>2022-10-29T08:27:03Z</time>
      </trkpt>
      <trkpt lat="44.37397" lon="3.82806">
        <ele>1349</ele>
        <time>2022-10-29T08:27:04Z</time>
      </trkpt>
      <trkpt lat="44.374" lon="3.82802">
        <ele>1348.8</ele>
        <time>2022-10-29T08:27:05Z</time>
      </trkpt>
      <trkpt lat="44.37404" lon="3.82799">
        <ele>1348.8</ele>
        <time>2022-10-29T08:27:06Z</time>
      </trkpt>
      <trkpt lat="44.37408" lon="3.82795">
        <ele>1348.6</ele>
        <time>2022-10-29T08:27:07Z</time>
      </trkpt>
      <trkpt lat="44.37412" lon="3.82793">
        <ele>1348.4</ele>
        <time>2022-10-29T08:27:08Z</time>
      </trkpt>
      <trkpt lat="44.37416" lon="3.8279">
        <ele>1348.4</ele>
        <time>2022-10-29T08:27:09Z</time>
      </trkpt>
      <trkpt lat="44.3742" lon="3.82787">
        <ele>1348.2</ele>
        <time>2022-10-29T08:27:10Z</time>
      </trkpt>
      <trkpt lat="44.37423" lon="3.82785">
        <ele>1348</ele>
        <time>2022-10-29T08:27:11Z</time>
      </trkpt>
      <trkpt lat="44.37428" lon="3.82784">
        <ele>1347.8</ele>
        <time>2022-10-29T08:27:12Z</time>
      </trkpt>
      <trkpt lat="44.37433" lon="3.82783">
        <ele>1347.6</ele>
        <time>2022-10-29T08:27:13Z</time>
      </trkpt>
      <trkpt lat="44.37438" lon="3.82781">
        <ele>1347.4</ele>
        <time>2022-10-29T08:27:14Z</time>
      </trkpt>
      <trkpt lat="44.37443" lon="3.8278">
        <ele>1347.2</ele>
        <time>2022-10-29T08:27:15Z</time>
      </trkpt>
      <trkpt lat="44.37448" lon="3.82779">
        <ele>1347.2</ele>
        <time>2022-10-29T08:27:16Z</time>
      </trkpt>
      <trkpt lat="44.37453" lon="3.82778">
        <ele>1347</ele>
        <time>2022-10-29T08:27:17Z</time>
      </trkpt>
      <trkpt lat="44.37458" lon="3.82776">
        <ele>1347</ele>
        <time>2022-10-29T08:27:18Z</time>
      </trkpt>
      <trkpt lat="44.37463" lon="3.82775">
        <ele>1346.8</ele>
        <time>2022-10-29T08:27:19Z</time>
      </trkpt>
      <trkpt lat="44.37469" lon="3.82773">
        <ele>1346.6</ele>
        <time>2022-10-29T08:27:20Z</time>
      </trkpt>
      <trkpt lat="44.37474" lon="3.82771">
        <ele>1346.4</ele>
        <time>2022-10-29T08:27:21Z</time>
      </trkpt>
      <trkpt lat="44.3748" lon="3.82769">
        <ele>1346.2</ele>
        <time>2022-10-29T08:27:22Z</time>
      </trkpt>
      <trkpt lat="44.37484" lon="3.82767">
        <ele>1345.8</ele>
        <time>2022-10-29T08:27:23Z</time>
      </trkpt>
      <trkpt lat="44.37491" lon="3.82764">
        <ele>1345.6</ele>
        <time>2022-10-29T08:27:24Z</time>
      </trkpt>
      <trkpt lat="44.37498" lon="3.82759">
        <ele>1345.2</ele>
        <time>2022-10-29T08:27:25Z</time>
      </trkpt>
      <trkpt lat="44.37504" lon="3.82755">
        <ele>1345</ele>
        <time>2022-10-29T08:27:26Z</time>
      </trkpt>
      <trkpt lat="44.3751" lon="3.8275">
        <ele>1344.6</ele>
        <time>2022-10-29T08:27:27Z</time>
      </trkpt>
      <trkpt lat="44.37516" lon="3.82745">
        <ele>1344.4</ele>
        <time>2022-10-29T08:27:28Z</time>
      </trkpt>
      <trkpt lat="44.37522" lon="3.8274">
        <ele>1344</ele>
        <time>2022-10-29T08:27:29Z</time>
      </trkpt>
      <trkpt lat="44.37527" lon="3.82734">
        <ele>1343.8</ele>
        <time>2022-10-29T08:27:30Z</time>
      </trkpt>
      <trkpt lat="44.37532" lon="3.82727">
        <ele>1343.4</ele>
        <time>2022-10-29T08:27:31Z</time>
      </trkpt>
      <trkpt lat="44.37537" lon="3.82721">
        <ele>1343.2</ele>
        <time>2022-10-29T08:27:32Z</time>
      </trkpt>
      <trkpt lat="44.37541" lon="3.82714">
        <ele>1343</ele>
        <time>2022-10-29T08:27:33Z</time>
      </trkpt>
      <trkpt lat="44.37544" lon="3.82706">
        <ele>1342.8</ele>
        <time>2022-10-29T08:27:34Z</time>
      </trkpt>
      <trkpt lat="44.37547" lon="3.82698">
        <ele>1342.4</ele>
        <time>2022-10-29T08:27:35Z</time>
      </trkpt>
      <trkpt lat="44.37549" lon="3.82691">
        <ele>1342.2</ele>
        <time>2022-10-29T08:27:36Z</time>
      </trkpt>
      <trkpt lat="44.37551" lon="3.82682">
        <ele>1342</ele>
        <time>2022-10-29T08:27:37Z</time>
      </trkpt>
      <trkpt lat="44.37553" lon="3.82674">
        <ele>1341.8</ele>
        <time>2022-10-29T08:27:38Z</time>
      </trkpt>
      <trkpt lat="44.37554" lon="3.82666">
        <ele>1341.6</ele>
        <time>2022-10-29T08:27:39Z</time>
      </trkpt>
      <trkpt lat="44.37556" lon="3.82658">
        <ele>1341.6</ele>
        <time>2022-10-29T08:27:40Z</time>
      </trkpt>
      <trkpt lat="44.37558" lon="3.8265">
        <ele>1341.4</ele>
        <time>2022-10-29T08:27:41Z</time>
      </trkpt>
      <trkpt lat="44.3756" lon="3.82643">
        <ele>1341.2</ele>
        <time>2022-10-29T08:27:42Z</time>
      </trkpt>
      <trkpt lat="44.37562" lon="3.82636">
        <ele>1341</ele>
        <time>2022-10-29T08:27:43Z</time>
      </trkpt>
      <trkpt lat="44.37564" lon="3.8263">
        <ele>1341</ele>
        <time>2022-10-29T08:27:44Z</time>
      </trkpt>
      <trkpt lat="44.37567" lon="3.82624">
        <ele>1341</ele>
        <time>2022-10-29T08:27:45Z</time>
      </trkpt>
      <trkpt lat="44.3757" lon="3.82617">
        <ele>1341</ele>
        <time>2022-10-29T08:27:46Z</time>
      </trkpt>
      <trkpt lat="44.37573" lon="3.82611">
        <ele>1341</ele>
        <time>2022-10-29T08:27:47Z</time>
      </trkpt>
      <trkpt lat="44.37576" lon="3.82605">
        <ele>1340.8</ele>
        <time>2022-10-29T08:27:48Z</time>
      </trkpt>
      <trkpt lat="44.37577" lon="3.82598">
        <ele>1340.8</ele>
        <time>2022-10-29T08:27:49Z</time>
      </trkpt>
      <trkpt lat="44.37579" lon="3.82591">
        <ele>1340.8</ele>
        <time>2022-10-29T08:27:50Z</time>
      </trkpt>
      <trkpt lat="44.3758" lon="3.82584">
        <ele>1340.6</ele>
        <time>2022-10-29T08:27:51Z</time>
      </trkpt>
      <trkpt lat="44.37581" lon="3.82577">
        <ele>1340.4</ele>
        <time>2022-10-29T08:27:52Z</time>
      </trkpt>
      <trkpt lat="44.37581" lon="3.8257">
        <ele>1340.4</ele>
        <time>2022-10-29T08:27:53Z</time>
      </trkpt>
      <trkpt lat="44.37582" lon="3.82563">
        <ele>1340.2</ele>
        <time>2022-10-29T08:27:54Z</time>
      </trkpt>
      <trkpt lat="44.37582" lon="3.82557">
        <ele>1340</ele>
        <time>2022-10-29T08:27:55Z</time>
      </trkpt>
      <trkpt lat="44.37583" lon="3.82548">
        <ele>1340</ele>
        <time>2022-10-29T08:27:56Z</time>
      </trkpt>
      <trkpt lat="44.37583" lon="3.8254">
        <ele>1339.8</ele>
        <time>2022-10-29T08:27:57Z</time>
      </trkpt>
      <trkpt lat="44.37582" lon="3.82533">
        <ele>1339.6</ele>
        <time>2022-10-29T08:27:58Z</time>
      </trkpt>
      <trkpt lat="44.37581" lon="3.82525">
        <ele>1339.4</ele>
        <time>2022-10-29T08:27:59Z</time>
      </trkpt>
      <trkpt lat="44.37579" lon="3.82518">
        <ele>1339.4</ele>
        <time>2022-10-29T08:28:00Z</time>
      </trkpt>
      <trkpt lat="44.37577" lon="3.82511">
        <ele>1339.2</ele>
        <time>2022-10-29T08:28:01Z</time>
      </trkpt>
      <trkpt lat="44.37575" lon="3.82504">
        <ele>1339.2</ele>
        <time>2022-10-29T08:28:02Z</time>
      </trkpt>
      <trkpt lat="44.37572" lon="3.82497">
        <ele>1339.2</ele>
        <time>2022-10-29T08:28:03Z</time>
      </trkpt>
      <trkpt lat="44.3757" lon="3.8249">
        <ele>1339</ele>
        <time>2022-10-29T08:28:04Z</time>
      </trkpt>
      <trkpt lat="44.37566" lon="3.82484">
        <ele>1339</ele>
        <time>2022-10-29T08:28:05Z</time>
      </trkpt>
      <trkpt lat="44.37562" lon="3.82478">
        <ele>1339</ele>
        <time>2022-10-29T08:28:06Z</time>
      </trkpt>
      <trkpt lat="44.37558" lon="3.82472">
        <ele>1338.8</ele>
        <time>2022-10-29T08:28:07Z</time>
      </trkpt>
      <trkpt lat="44.37553" lon="3.82467">
        <ele>1338.8</ele>
        <time>2022-10-29T08:28:08Z</time>
      </trkpt>
      <trkpt lat="44.37549" lon="3.82462">
        <ele>1338.8</ele>
        <time>2022-10-29T08:28:09Z</time>
      </trkpt>
      <trkpt lat="44.37544" lon="3.82457">
        <ele>1338.6</ele>
        <time>2022-10-29T08:28:10Z</time>
      </trkpt>
      <trkpt lat="44.37539" lon="3.82453">
        <ele>1338.6</ele>
        <time>2022-10-29T08:28:11Z</time>
      </trkpt>
      <trkpt lat="44.37535" lon="3.82449">
        <ele>1338.4</ele>
        <time>2022-10-29T08:28:12Z</time>
      </trkpt>
      <trkpt lat="44.37531" lon="3.82444">
        <ele>1338.4</ele>
        <time>2022-10-29T08:28:13Z</time>
      </trkpt>
      <trkpt lat="44.37527" lon="3.82439">
        <ele>1338.2</ele>
        <time>2022-10-29T08:28:14Z</time>
      </trkpt>
      <trkpt lat="44.37523" lon="3.82434">
        <ele>1338.2</ele>
        <time>2022-10-29T08:28:15Z</time>
      </trkpt>
      <trkpt lat="44.37519" lon="3.82429">
        <ele>1338.2</ele>
        <time>2022-10-29T08:28:16Z</time>
      </trkpt>
      <trkpt lat="44.37515" lon="3.82424">
        <ele>1338.2</ele>
        <time>2022-10-29T08:28:17Z</time>
      </trkpt>
      <trkpt lat="44.37511" lon="3.8242">
        <ele>1338.2</ele>
        <time>2022-10-29T08:28:18Z</time>
      </trkpt>
      <trkpt lat="44.37507" lon="3.82416">
        <ele>1338.2</ele>
        <time>2022-10-29T08:28:19Z</time>
      </trkpt>
      <trkpt lat="44.37503" lon="3.82411">
        <ele>1338</ele>
        <time>2022-10-29T08:28:20Z</time>
      </trkpt>
      <trkpt lat="44.37499" lon="3.82406">
        <ele>1338</ele>
        <time>2022-10-29T08:28:21Z</time>
      </trkpt>
      <trkpt lat="44.37495" lon="3.82402">
        <ele>1338</ele>
        <time>2022-10-29T08:28:22Z</time>
      </trkpt>
      <trkpt lat="44.37491" lon="3.82398">
        <ele>1337.8</ele>
        <time>2022-10-29T08:28:23Z</time>
      </trkpt>
      <trkpt lat="44.37486" lon="3.82393">
        <ele>1337.8</ele>
        <time>2022-10-29T08:28:24Z</time>
      </trkpt>
      <trkpt lat="44.37482" lon="3.82388">
        <ele>1337.6</ele>
        <time>2022-10-29T08:28:25Z</time>
      </trkpt>
      <trkpt lat="44.37478" lon="3.82384">
        <ele>1337.6</ele>
        <time>2022-10-29T08:28:26Z</time>
      </trkpt>
      <trkpt lat="44.37474" lon="3.82379">
        <ele>1337.4</ele>
        <time>2022-10-29T08:28:27Z</time>
      </trkpt>
      <trkpt lat="44.37469" lon="3.82374">
        <ele>1337.2</ele>
        <time>2022-10-29T08:28:28Z</time>
      </trkpt>
      <trkpt lat="44.37464" lon="3.82369">
        <ele>1337</ele>
        <time>2022-10-29T08:28:29Z</time>
      </trkpt>
      <trkpt lat="44.37459" lon="3.82365">
        <ele>1336.8</ele>
        <time>2022-10-29T08:28:30Z</time>
      </trkpt>
      <trkpt lat="44.37455" lon="3.8236">
        <ele>1336.6</ele>
        <time>2022-10-29T08:28:31Z</time>
      </trkpt>
      <trkpt lat="44.3745" lon="3.82355">
        <ele>1336.4</ele>
        <time>2022-10-29T08:28:32Z</time>
      </trkpt>
      <trkpt lat="44.37445" lon="3.8235">
        <ele>1336.2</ele>
        <time>2022-10-29T08:28:33Z</time>
      </trkpt>
      <trkpt lat="44.37441" lon="3.82345">
        <ele>1336</ele>
        <time>2022-10-29T08:28:34Z</time>
      </trkpt>
      <trkpt lat="44.37436" lon="3.8234">
        <ele>1335.8</ele>
        <time>2022-10-29T08:28:35Z</time>
      </trkpt>
      <trkpt lat="44.37431" lon="3.82336">
        <ele>1335.8</ele>
        <time>2022-10-29T08:28:36Z</time>
      </trkpt>
      <trkpt lat="44.37427" lon="3.82332">
        <ele>1335.6</ele>
        <time>2022-10-29T08:28:37Z</time>
      </trkpt>
      <trkpt lat="44.37422" lon="3.82327">
        <ele>1335.4</ele>
        <time>2022-10-29T08:28:38Z</time>
      </trkpt>
      <trkpt lat="44.37418" lon="3.82322">
        <ele>1335.2</ele>
        <time>2022-10-29T08:28:39Z</time>
      </trkpt>
      <trkpt lat="44.37413" lon="3.82318">
        <ele>1335.2</ele>
        <time>2022-10-29T08:28:40Z</time>
      </trkpt>
      <trkpt lat="44.37409" lon="3.82314">
        <ele>1335</ele>
        <time>2022-10-29T08:28:41Z</time>
      </trkpt>
      <trkpt lat="44.37405" lon="3.8231">
        <ele>1334.8</ele>
        <time>2022-10-29T08:28:42Z</time>
      </trkpt>
      <trkpt lat="44.374" lon="3.82306">
        <ele>1334.8</ele>
        <time>2022-10-29T08:28:43Z</time>
      </trkpt>
      <trkpt lat="44.37396" lon="3.82302">
        <ele>1334.6</ele>
        <time>2022-10-29T08:28:44Z</time>
      </trkpt>
      <trkpt lat="44.37392" lon="3.82297">
        <ele>1334.6</ele>
        <time>2022-10-29T08:28:45Z</time>
      </trkpt>
      <trkpt lat="44.37388" lon="3.82294">
        <ele>1334.4</ele>
        <time>2022-10-29T08:28:46Z</time>
      </trkpt>
      <trkpt lat="44.37385" lon="3.82291">
        <ele>1334.4</ele>
        <time>2022-10-29T08:28:47Z</time>
      </trkpt>
      <trkpt lat="44.37382" lon="3.82288">
        <ele>1334.2</ele>
        <time>2022-10-29T08:28:48Z</time>
      </trkpt>
      <trkpt lat="44.37379" lon="3.82286">
        <ele>1334</ele>
        <time>2022-10-29T08:28:49Z</time>
      </trkpt>
      <trkpt lat="44.37377" lon="3.82284">
        <ele>1333.8</ele>
        <time>2022-10-29T08:28:50Z</time>
      </trkpt>
      <trkpt lat="44.37375" lon="3.82283">
        <ele>1333.8</ele>
        <time>2022-10-29T08:28:51Z</time>
      </trkpt>
      <trkpt lat="44.37374" lon="3.82281">
        <ele>1333.6</ele>
        <time>2022-10-29T08:28:52Z</time>
      </trkpt>
      <trkpt lat="44.37373" lon="3.82279">
        <ele>1333.6</ele>
        <time>2022-10-29T08:28:53Z</time>
      </trkpt>
      <trkpt lat="44.37373" lon="3.82278">
        <ele>1333.6</ele>
        <time>2022-10-29T08:28:54Z</time>
      </trkpt>
      <trkpt lat="44.37371" lon="3.82274">
        <ele>1333.4</ele>
        <time>2022-10-29T08:32:15Z</time>
      </trkpt>
      <trkpt lat="44.37371" lon="3.82271">
        <ele>1333.4</ele>
        <time>2022-10-29T08:32:16Z</time>
      </trkpt>
      <trkpt lat="44.37372" lon="3.82268">
        <ele>1333.4</ele>
        <time>2022-10-29T08:32:17Z</time>
      </trkpt>
      <trkpt lat="44.37372" lon="3.82264">
        <ele>1333.6</ele>
        <time>2022-10-29T08:32:18Z</time>
      </trkpt>
      <trkpt lat="44.37372" lon="3.82261">
        <ele>1333.8</ele>
        <time>2022-10-29T08:32:19Z</time>
      </trkpt>
      <trkpt lat="44.37372" lon="3.82258">
        <ele>1334</ele>
        <time>2022-10-29T08:32:20Z</time>
      </trkpt>
      <trkpt lat="44.37372" lon="3.82256">
        <ele>1334.2</ele>
        <time>2022-10-29T08:32:21Z</time>
      </trkpt>
      <trkpt lat="44.37372" lon="3.82252">
        <ele>1334.6</ele>
        <time>2022-10-29T08:32:22Z</time>
      </trkpt>
      <trkpt lat="44.37373" lon="3.82249">
        <ele>1334.8</ele>
        <time>2022-10-29T08:32:23Z</time>
      </trkpt>
      <trkpt lat="44.37373" lon="3.82246">
        <ele>1335</ele>
        <time>2022-10-29T08:32:24Z</time>
      </trkpt>
      <trkpt lat="44.37374" lon="3.82242">
        <ele>1335</ele>
        <time>2022-10-29T08:32:25Z</time>
      </trkpt>
      <trkpt lat="44.37374" lon="3.82239">
        <ele>1335.2</ele>
        <time>2022-10-29T08:32:26Z</time>
      </trkpt>
      <trkpt lat="44.37374" lon="3.82234">
        <ele>1335.2</ele>
        <time>2022-10-29T08:32:27Z</time>
      </trkpt>
      <trkpt lat="44.37375" lon="3.8223">
        <ele>1335.4</ele>
        <time>2022-10-29T08:32:28Z</time>
      </trkpt>
      <trkpt lat="44.37375" lon="3.82226">
        <ele>1335.4</ele>
        <time>2022-10-29T08:32:29Z</time>
      </trkpt>
      <trkpt lat="44.37375" lon="3.82222">
        <ele>1335.4</ele>
        <time>2022-10-29T08:32:30Z</time>
      </trkpt>
      <trkpt lat="44.37375" lon="3.82218">
        <ele>1335.4</ele>
        <time>2022-10-29T08:32:31Z</time>
      </trkpt>
      <trkpt lat="44.37375" lon="3.82213">
        <ele>1335.2</ele>
        <time>2022-10-29T08:32:32Z</time>
      </trkpt>
      <trkpt lat="44.37375" lon="3.82207">
        <ele>1335</ele>
        <time>2022-10-29T08:32:33Z</time>
      </trkpt>
      <trkpt lat="44.37375" lon="3.82202">
        <ele>1334.8</ele>
        <time>2022-10-29T08:32:34Z</time>
      </trkpt>
      <trkpt lat="44.37374" lon="3.82197">
        <ele>1334.6</ele>
        <time>2022-10-29T08:32:35Z</time>
      </trkpt>
      <trkpt lat="44.37374" lon="3.82194">
        <ele>1334.4</ele>
        <time>2022-10-29T08:32:36Z</time>
      </trkpt>
      <trkpt lat="44.37375" lon="3.82193">
        <ele>1334.2</ele>
        <time>2022-10-29T08:32:37Z</time>
      </trkpt>
      <trkpt lat="44.37375" lon="3.82194">
        <ele>1334.2</ele>
        <time>2022-10-29T08:32:38Z</time>
      </trkpt>
      <trkpt lat="44.37375" lon="3.82195">
        <ele>1334</ele>
        <time>2022-10-29T08:32:39Z</time>
      </trkpt>
      <trkpt lat="44.37375" lon="3.82198">
        <ele>1334</ele>
        <time>2022-10-29T08:32:40Z</time>
      </trkpt>
      <trkpt lat="44.37376" lon="3.82201">
        <ele>1334</ele>
        <time>2022-10-29T08:32:41Z</time>
      </trkpt>
      <trkpt lat="44.37376" lon="3.82205">
        <ele>1334</ele>
        <time>2022-10-29T08:32:42Z</time>
      </trkpt>
      <trkpt lat="44.37375" lon="3.82209">
        <ele>1334.2</ele>
        <time>2022-10-29T08:32:43Z</time>
      </trkpt>
      <trkpt lat="44.37375" lon="3.82213">
        <ele>1334.4</ele>
        <time>2022-10-29T08:32:44Z</time>
      </trkpt>
      <trkpt lat="44.37375" lon="3.82217">
        <ele>1334.6</ele>
        <time>2022-10-29T08:32:45Z</time>
      </trkpt>
      <trkpt lat="44.37375" lon="3.82219">
        <ele>1334.8</ele>
        <time>2022-10-29T08:32:46Z</time>
      </trkpt>
      <trkpt lat="44.37375" lon="3.82222">
        <ele>1335</ele>
        <time>2022-10-29T08:32:47Z</time>
      </trkpt>
      <trkpt lat="44.37374" lon="3.82225">
        <ele>1335.2</ele>
        <time>2022-10-29T08:32:48Z</time>
      </trkpt>
      <trkpt lat="44.37374" lon="3.82228">
        <ele>1335.2</ele>
        <time>2022-10-29T08:32:49Z</time>
      </trkpt>
      <trkpt lat="44.37373" lon="3.82232">
        <ele>1335.4</ele>
        <time>2022-10-29T08:32:50Z</time>
      </trkpt>
      <trkpt lat="44.37373" lon="3.82236">
        <ele>1335.4</ele>
        <time>2022-10-29T08:32:51Z</time>
      </trkpt>
      <trkpt lat="44.37373" lon="3.8224">
        <ele>1335.4</ele>
        <time>2022-10-29T08:32:52Z</time>
      </trkpt>
      <trkpt lat="44.37373" lon="3.82244">
        <ele>1335.6</ele>
        <time>2022-10-29T08:32:53Z</time>
      </trkpt>
      <trkpt lat="44.37373" lon="3.82248">
        <ele>1335.6</ele>
        <time>2022-10-29T08:32:54Z</time>
      </trkpt>
      <trkpt lat="44.37373" lon="3.82252">
        <ele>1335.6</ele>
        <time>2022-10-29T08:32:55Z</time>
      </trkpt>
      <trkpt lat="44.37372" lon="3.82257">
        <ele>1335.4</ele>
        <time>2022-10-29T08:32:56Z</time>
      </trkpt>
      <trkpt lat="44.37372" lon="3.82261">
        <ele>1335</ele>
        <time>2022-10-29T08:32:57Z</time>
      </trkpt>
      <trkpt lat="44.37372" lon="3.82266">
        <ele>1334.6</ele>
        <time>2022-10-29T08:32:58Z</time>
      </trkpt>
      <trkpt lat="44.37372" lon="3.8227">
        <ele>1334.4</ele>
        <time>2022-10-29T08:32:59Z</time>
      </trkpt>
      <trkpt lat="44.37372" lon="3.82274">
        <ele>1334.2</ele>
        <time>2022-10-29T08:33:00Z</time>
      </trkpt>
      <trkpt lat="44.37372" lon="3.82275">
        <ele>1334</ele>
        <time>2022-10-29T08:33:01Z</time>
      </trkpt>
      <trkpt lat="44.37372" lon="3.82275">
        <ele>1333.8</ele>
        <time>2022-10-29T08:33:02Z</time>
      </trkpt>
      <trkpt lat="44.37372" lon="3.82275">
        <ele>1333.8</ele>
        <time>2022-10-29T08:33:03Z</time>
      </trkpt>
      <trkpt lat="44.37372" lon="3.82276">
        <ele>1333.6</ele>
        <time>2022-10-29T08:33:04Z</time>
      </trkpt>
      <trkpt lat="44.37372" lon="3.82276">
        <ele>1333.4</ele>
        <time>2022-10-29T08:33:05Z</time>
      </trkpt>
      <trkpt lat="44.37371" lon="3.82274">
        <ele>1333</ele>
        <time>2022-10-29T08:34:14Z</time>
      </trkpt>
      <trkpt lat="44.37371" lon="3.82273">
        <ele>1333</ele>
        <time>2022-10-29T08:34:15Z</time>
      </trkpt>
      <trkpt lat="44.37371" lon="3.82269">
        <ele>1333.2</ele>
        <time>2022-10-29T08:34:16Z</time>
      </trkpt>
      <trkpt lat="44.37371" lon="3.82265">
        <ele>1333.2</ele>
        <time>2022-10-29T08:34:17Z</time>
      </trkpt>
      <trkpt lat="44.37371" lon="3.82262">
        <ele>1333.4</ele>
        <time>2022-10-29T08:34:18Z</time>
      </trkpt>
      <trkpt lat="44.37372" lon="3.82259">
        <ele>1333.6</ele>
        <time>2022-10-29T08:34:19Z</time>
      </trkpt>
      <trkpt lat="44.37372" lon="3.82256">
        <ele>1333.8</ele>
        <time>2022-10-29T08:34:20Z</time>
      </trkpt>
      <trkpt lat="44.37372" lon="3.82253">
        <ele>1334</ele>
        <time>2022-10-29T08:34:21Z</time>
      </trkpt>
      <trkpt lat="44.37372" lon="3.82249">
        <ele>1334.2</ele>
        <time>2022-10-29T08:34:22Z</time>
      </trkpt>
      <trkpt lat="44.37373" lon="3.82245">
        <ele>1334.2</ele>
        <time>2022-10-29T08:34:23Z</time>
      </trkpt>
      <trkpt lat="44.37374" lon="3.82241">
        <ele>1334.4</ele>
        <time>2022-10-29T08:34:24Z</time>
      </trkpt>
      <trkpt lat="44.37374" lon="3.82237">
        <ele>1334.4</ele>
        <time>2022-10-29T08:34:25Z</time>
      </trkpt>
      <trkpt lat="44.37375" lon="3.82232">
        <ele>1334.6</ele>
        <time>2022-10-29T08:34:26Z</time>
      </trkpt>
      <trkpt lat="44.37375" lon="3.82228">
        <ele>1334.6</ele>
        <time>2022-10-29T08:34:27Z</time>
      </trkpt>
      <trkpt lat="44.37375" lon="3.82224">
        <ele>1334.6</ele>
        <time>2022-10-29T08:34:28Z</time>
      </trkpt>
      <trkpt lat="44.37375" lon="3.82221">
        <ele>1334.6</ele>
        <time>2022-10-29T08:34:29Z</time>
      </trkpt>
      <trkpt lat="44.37375" lon="3.82218">
        <ele>1334.6</ele>
        <time>2022-10-29T08:34:30Z</time>
      </trkpt>
      <trkpt lat="44.37375" lon="3.82216">
        <ele>1334.4</ele>
        <time>2022-10-29T08:34:31Z</time>
      </trkpt>
      <trkpt lat="44.37375" lon="3.82214">
        <ele>1334.4</ele>
        <time>2022-10-29T08:34:32Z</time>
      </trkpt>
      <trkpt lat="44.37375" lon="3.82211">
        <ele>1334</ele>
        <time>2022-10-29T08:34:33Z</time>
      </trkpt>
      <trkpt lat="44.37375" lon="3.82208">
        <ele>1333.8</ele>
        <time>2022-10-29T08:34:34Z</time>
      </trkpt>
      <trkpt lat="44.37375" lon="3.82205">
        <ele>1333.6</ele>
        <time>2022-10-29T08:34:35Z</time>
      </trkpt>
      <trkpt lat="44.37375" lon="3.82204">
        <ele>1333.4</ele>
        <time>2022-10-29T08:34:36Z</time>
      </trkpt>
      <trkpt lat="44.37376" lon="3.82205">
        <ele>1333.2</ele>
        <time>2022-10-29T08:34:37Z</time>
      </trkpt>
      <trkpt lat="44.37376" lon="3.82207">
        <ele>1333.2</ele>
        <time>2022-10-29T08:34:38Z</time>
      </trkpt>
      <trkpt lat="44.37375" lon="3.82208">
        <ele>1333.2</ele>
        <time>2022-10-29T08:34:39Z</time>
      </trkpt>
      <trkpt lat="44.37375" lon="3.8221">
        <ele>1333.4</ele>
        <time>2022-10-29T08:34:40Z</time>
      </trkpt>
      <trkpt lat="44.37374" lon="3.82213">
        <ele>1333.4</ele>
        <time>2022-10-29T08:34:41Z</time>
      </trkpt>
      <trkpt lat="44.37374" lon="3.82215">
        <ele>1333.8</ele>
        <time>2022-10-29T08:34:42Z</time>
      </trkpt>
      <trkpt lat="44.37374" lon="3.82218">
        <ele>1334</ele>
        <time>2022-10-29T08:34:43Z</time>
      </trkpt>
      <trkpt lat="44.37374" lon="3.8222">
        <ele>1334</ele>
        <time>2022-10-29T08:34:44Z</time>
      </trkpt>
      <trkpt lat="44.37374" lon="3.82223">
        <ele>1334.2</ele>
        <time>2022-10-29T08:34:45Z</time>
      </trkpt>
      <trkpt lat="44.37374" lon="3.82226">
        <ele>1334.4</ele>
        <time>2022-10-29T08:34:46Z</time>
      </trkpt>
      <trkpt lat="44.37374" lon="3.82229">
        <ele>1334.4</ele>
        <time>2022-10-29T08:34:47Z</time>
      </trkpt>
      <trkpt lat="44.37374" lon="3.82232">
        <ele>1334.6</ele>
        <time>2022-10-29T08:34:48Z</time>
      </trkpt>
      <trkpt lat="44.37373" lon="3.82236">
        <ele>1334.6</ele>
        <time>2022-10-29T08:34:49Z</time>
      </trkpt>
      <trkpt lat="44.37373" lon="3.82239">
        <ele>1334.6</ele>
        <time>2022-10-29T08:34:50Z</time>
      </trkpt>
      <trkpt lat="44.37373" lon="3.82243">
        <ele>1334.6</ele>
        <time>2022-10-29T08:34:51Z</time>
      </trkpt>
      <trkpt lat="44.37373" lon="3.82247">
        <ele>1334.6</ele>
        <time>2022-10-29T08:34:52Z</time>
      </trkpt>
      <trkpt lat="44.37373" lon="3.82251">
        <ele>1334.6</ele>
        <time>2022-10-29T08:34:53Z</time>
      </trkpt>
      <trkpt lat="44.37373" lon="3.82255">
        <ele>1334.4</ele>
        <time>2022-10-29T08:34:54Z</time>
      </trkpt>
      <trkpt lat="44.37373" lon="3.82259">
        <ele>1334.2</ele>
        <time>2022-10-29T08:34:55Z</time>
      </trkpt>
      <trkpt lat="44.37372" lon="3.82264">
        <ele>1333.8</ele>
        <time>2022-10-29T08:34:56Z</time>
      </trkpt>
      <trkpt lat="44.37372" lon="3.82268">
        <ele>1333.6</ele>
        <time>2022-10-29T08:34:57Z</time>
      </trkpt>
      <trkpt lat="44.37372" lon="3.82272">
        <ele>1333.2</ele>
        <time>2022-10-29T08:34:58Z</time>
      </trkpt>
      <trkpt lat="44.37372" lon="3.82273">
        <ele>1333</ele>
        <time>2022-10-29T08:34:59Z</time>
      </trkpt>
      <trkpt lat="44.37372" lon="3.82274">
        <ele>1333</ele>
        <time>2022-10-29T08:35:00Z</time>
      </trkpt>
      <trkpt lat="44.37372" lon="3.82274">
        <ele>1332.8</ele>
        <time>2022-10-29T08:35:01Z</time>
      </trkpt>
      <trkpt lat="44.37372" lon="3.82274">
        <ele>1332.8</ele>
        <time>2022-10-29T08:35:02Z</time>
      </trkpt>
      <trkpt lat="44.37372" lon="3.82272">
        <ele>1332.6</ele>
        <time>2022-10-29T08:35:03Z</time>
      </trkpt>
      <trkpt lat="44.37372" lon="3.82272">
        <ele>1332.6</ele>
        <time>2022-10-29T08:35:04Z</time>
      </trkpt>
      <trkpt lat="44.37373" lon="3.82271">
        <ele>1332.6</ele>
        <time>2022-10-29T08:35:05Z</time>
      </trkpt>
      <trkpt lat="44.37374" lon="3.82269">
        <ele>1332.4</ele>
        <time>2022-10-29T08:35:06Z</time>
      </trkpt>
      <trkpt lat="44.37375" lon="3.82266">
        <ele>1332.2</ele>
        <time>2022-10-29T08:35:07Z</time>
      </trkpt>
      <trkpt lat="44.37377" lon="3.82262">
        <ele>1332.2</ele>
        <time>2022-10-29T08:35:08Z</time>
      </trkpt>
      <trkpt lat="44.37378" lon="3.82258">
        <ele>1332</ele>
        <time>2022-10-29T08:35:09Z</time>
      </trkpt>
      <trkpt lat="44.3738" lon="3.82254">
        <ele>1331.8</ele>
        <time>2022-10-29T08:35:10Z</time>
      </trkpt>
      <trkpt lat="44.37382" lon="3.8225">
        <ele>1331.8</ele>
        <time>2022-10-29T08:35:11Z</time>
      </trkpt>
      <trkpt lat="44.37383" lon="3.82247">
        <ele>1331.6</ele>
        <time>2022-10-29T08:35:12Z</time>
      </trkpt>
      <trkpt lat="44.37384" lon="3.82246">
        <ele>1331.6</ele>
        <time>2022-10-29T08:35:13Z</time>
      </trkpt>
      <trkpt lat="44.37384" lon="3.82241">
        <ele>1331.4</ele>
        <time>2022-10-29T08:35:49Z</time>
      </trkpt>
      <trkpt lat="44.37384" lon="3.82239">
        <ele>1331.4</ele>
        <time>2022-10-29T08:35:50Z</time>
      </trkpt>
      <trkpt lat="44.37384" lon="3.82238">
        <ele>1331.4</ele>
        <time>2022-10-29T08:35:51Z</time>
      </trkpt>
      <trkpt lat="44.37384" lon="3.82237">
        <ele>1331.4</ele>
        <time>2022-10-29T08:35:52Z</time>
      </trkpt>
      <trkpt lat="44.37384" lon="3.82237">
        <ele>1331.4</ele>
        <time>2022-10-29T08:35:53Z</time>
      </trkpt>
      <trkpt lat="44.37384" lon="3.82237">
        <ele>1331.4</ele>
        <time>2022-10-29T08:35:54Z</time>
      </trkpt>
      <trkpt lat="44.37384" lon="3.82237">
        <ele>1331.4</ele>
        <time>2022-10-29T08:35:55Z</time>
      </trkpt>
      <trkpt lat="44.37378" lon="3.82241">
        <ele>1331.4</ele>
        <time>2022-10-29T08:39:02Z</time>
      </trkpt>
      <trkpt lat="44.37377" lon="3.8224">
        <ele>1331.4</ele>
        <time>2022-10-29T08:39:03Z</time>
      </trkpt>
      <trkpt lat="44.37375" lon="3.8224">
        <ele>1331.4</ele>
        <time>2022-10-29T08:39:04Z</time>
      </trkpt>
      <trkpt lat="44.37374" lon="3.82241">
        <ele>1331.4</ele>
        <time>2022-10-29T08:39:05Z</time>
      </trkpt>
      <trkpt lat="44.37372" lon="3.82241">
        <ele>1331.4</ele>
        <time>2022-10-29T08:39:06Z</time>
      </trkpt>
      <trkpt lat="44.3737" lon="3.82242">
        <ele>1331.4</ele>
        <time>2022-10-29T08:39:07Z</time>
      </trkpt>
      <trkpt lat="44.37368" lon="3.82243">
        <ele>1331.6</ele>
        <time>2022-10-29T08:39:08Z</time>
      </trkpt>
      <trkpt lat="44.37366" lon="3.82244">
        <ele>1331.6</ele>
        <time>2022-10-29T08:39:09Z</time>
      </trkpt>
      <trkpt lat="44.37364" lon="3.82244">
        <ele>1331.6</ele>
        <time>2022-10-29T08:39:10Z</time>
      </trkpt>
      <trkpt lat="44.37363" lon="3.82244">
        <ele>1331.8</ele>
        <time>2022-10-29T08:39:11Z</time>
      </trkpt>
      <trkpt lat="44.37362" lon="3.82244">
        <ele>1331.8</ele>
        <time>2022-10-29T08:39:12Z</time>
      </trkpt>
      <trkpt lat="44.37361" lon="3.82243">
        <ele>1331.8</ele>
        <time>2022-10-29T08:39:13Z</time>
      </trkpt>
      <trkpt lat="44.37361" lon="3.82243">
        <ele>1331.8</ele>
        <time>2022-10-29T08:39:14Z</time>
      </trkpt>
      <trkpt lat="44.37361" lon="3.82243">
        <ele>1331.8</ele>
        <time>2022-10-29T08:39:15Z</time>
      </trkpt>
      <trkpt lat="44.3736" lon="3.82243">
        <ele>1331.8</ele>
        <time>2022-10-29T08:39:16Z</time>
      </trkpt>
      <trkpt lat="44.3736" lon="3.82242">
        <ele>1331.8</ele>
        <time>2022-10-29T08:39:17Z</time>
      </trkpt>
      <trkpt lat="44.3736" lon="3.82241">
        <ele>1331.8</ele>
        <time>2022-10-29T08:39:18Z</time>
      </trkpt>
      <trkpt lat="44.3736" lon="3.82241">
        <ele>1331.8</ele>
        <time>2022-10-29T08:39:19Z</time>
      </trkpt>
      <trkpt lat="44.3736" lon="3.82241">
        <ele>1331.8</ele>
        <time>2022-10-29T08:39:20Z</time>
      </trkpt>
      <trkpt lat="44.3736" lon="3.82241">
        <ele>1331.8</ele>
        <time>2022-10-29T08:39:21Z</time>
      </trkpt>
      <trkpt lat="44.3736" lon="3.82241">
        <ele>1331.8</ele>
        <time>2022-10-29T08:39:22Z</time>
      </trkpt>
      <trkpt lat="44.37361" lon="3.82239">
        <ele>1332</ele>
        <time>2022-10-29T08:40:00Z</time>
      </trkpt>
      <trkpt lat="44.37362" lon="3.8224">
        <ele>1331.8</ele>
        <time>2022-10-29T08:40:01Z</time>
      </trkpt>
      <trkpt lat="44.37362" lon="3.82241">
        <ele>1331.8</ele>
        <time>2022-10-29T08:40:02Z</time>
      </trkpt>
      <trkpt lat="44.37362" lon="3.82241">
        <ele>1331.8</ele>
        <time>2022-10-29T08:40:03Z</time>
      </trkpt>
      <trkpt lat="44.37362" lon="3.82242">
        <ele>1331.8</ele>
        <time>2022-10-29T08:40:04Z</time>
      </trkpt>
      <trkpt lat="44.37362" lon="3.82245">
        <ele>1332</ele>
        <time>2022-10-29T08:40:05Z</time>
      </trkpt>
      <trkpt lat="44.37362" lon="3.82249">
        <ele>1332</ele>
        <time>2022-10-29T08:40:06Z</time>
      </trkpt>
      <trkpt lat="44.37362" lon="3.82254">
        <ele>1332</ele>
        <time>2022-10-29T08:40:07Z</time>
      </trkpt>
      <trkpt lat="44.37363" lon="3.82258">
        <ele>1332.2</ele>
        <time>2022-10-29T08:40:08Z</time>
      </trkpt>
      <trkpt lat="44.37364" lon="3.82262">
        <ele>1332.4</ele>
        <time>2022-10-29T08:40:09Z</time>
      </trkpt>
      <trkpt lat="44.37365" lon="3.82266">
        <ele>1332.6</ele>
        <time>2022-10-29T08:40:10Z</time>
      </trkpt>
      <trkpt lat="44.37366" lon="3.82268">
        <ele>1332.6</ele>
        <time>2022-10-29T08:40:11Z</time>
      </trkpt>
      <trkpt lat="44.37368" lon="3.8227">
        <ele>1332.8</ele>
        <time>2022-10-29T08:40:12Z</time>
      </trkpt>
      <trkpt lat="44.3737" lon="3.82269">
        <ele>1333</ele>
        <time>2022-10-29T08:40:13Z</time>
      </trkpt>
      <trkpt lat="44.37371" lon="3.82267">
        <ele>1333.2</ele>
        <time>2022-10-29T08:40:14Z</time>
      </trkpt>
      <trkpt lat="44.37371" lon="3.82265">
        <ele>1333.4</ele>
        <time>2022-10-29T08:40:15Z</time>
      </trkpt>
      <trkpt lat="44.37371" lon="3.82261">
        <ele>1333.8</ele>
        <time>2022-10-29T08:40:16Z</time>
      </trkpt>
      <trkpt lat="44.37371" lon="3.82258">
        <ele>1334</ele>
        <time>2022-10-29T08:40:17Z</time>
      </trkpt>
      <trkpt lat="44.37372" lon="3.82255">
        <ele>1334.2</ele>
        <time>2022-10-29T08:40:18Z</time>
      </trkpt>
      <trkpt lat="44.37372" lon="3.82251">
        <ele>1334.4</ele>
        <time>2022-10-29T08:40:19Z</time>
      </trkpt>
      <trkpt lat="44.37372" lon="3.82247">
        <ele>1334.8</ele>
        <time>2022-10-29T08:40:20Z</time>
      </trkpt>
      <trkpt lat="44.37373" lon="3.82244">
        <ele>1334.8</ele>
        <time>2022-10-29T08:40:21Z</time>
      </trkpt>
      <trkpt lat="44.37373" lon="3.8224">
        <ele>1335</ele>
        <time>2022-10-29T08:40:22Z</time>
      </trkpt>
      <trkpt lat="44.37373" lon="3.82236">
        <ele>1335</ele>
        <time>2022-10-29T08:40:23Z</time>
      </trkpt>
      <trkpt lat="44.37374" lon="3.82232">
        <ele>1335.2</ele>
        <time>2022-10-29T08:40:24Z</time>
      </trkpt>
      <trkpt lat="44.37374" lon="3.82229">
        <ele>1335.2</ele>
        <time>2022-10-29T08:40:25Z</time>
      </trkpt>
      <trkpt lat="44.37374" lon="3.82225">
        <ele>1335.2</ele>
        <time>2022-10-29T08:40:26Z</time>
      </trkpt>
      <trkpt lat="44.37374" lon="3.82221">
        <ele>1335.2</ele>
        <time>2022-10-29T08:40:27Z</time>
      </trkpt>
      <trkpt lat="44.37374" lon="3.82218">
        <ele>1335.2</ele>
        <time>2022-10-29T08:40:28Z</time>
      </trkpt>
      <trkpt lat="44.37374" lon="3.82215">
        <ele>1335</ele>
        <time>2022-10-29T08:40:29Z</time>
      </trkpt>
      <trkpt lat="44.37374" lon="3.82211">
        <ele>1334.8</ele>
        <time>2022-10-29T08:40:30Z</time>
      </trkpt>
      <trkpt lat="44.37374" lon="3.82206">
        <ele>1334.4</ele>
        <time>2022-10-29T08:40:31Z</time>
      </trkpt>
      <trkpt lat="44.37374" lon="3.82203">
        <ele>1334.2</ele>
        <time>2022-10-29T08:40:32Z</time>
      </trkpt>
      <trkpt lat="44.37375" lon="3.82202">
        <ele>1334</ele>
        <time>2022-10-29T08:40:33Z</time>
      </trkpt>
      <trkpt lat="44.37376" lon="3.82203">
        <ele>1334</ele>
        <time>2022-10-29T08:40:34Z</time>
      </trkpt>
      <trkpt lat="44.37376" lon="3.82205">
        <ele>1334</ele>
        <time>2022-10-29T08:40:35Z</time>
      </trkpt>
      <trkpt lat="44.37375" lon="3.82207">
        <ele>1334</ele>
        <time>2022-10-29T08:40:36Z</time>
      </trkpt>
      <trkpt lat="44.37375" lon="3.8221">
        <ele>1334.2</ele>
        <time>2022-10-29T08:40:37Z</time>
      </trkpt>
      <trkpt lat="44.37375" lon="3.82213">
        <ele>1334.4</ele>
        <time>2022-10-29T08:40:38Z</time>
      </trkpt>
      <trkpt lat="44.37375" lon="3.82216">
        <ele>1334.6</ele>
        <time>2022-10-29T08:40:39Z</time>
      </trkpt>
      <trkpt lat="44.37375" lon="3.82219">
        <ele>1334.8</ele>
        <time>2022-10-29T08:40:40Z</time>
      </trkpt>
      <trkpt lat="44.37375" lon="3.82221">
        <ele>1335</ele>
        <time>2022-10-29T08:40:41Z</time>
      </trkpt>
      <trkpt lat="44.37375" lon="3.82223">
        <ele>1335</ele>
        <time>2022-10-29T08:40:42Z</time>
      </trkpt>
      <trkpt lat="44.37375" lon="3.82225">
        <ele>1335</ele>
        <time>2022-10-29T08:40:43Z</time>
      </trkpt>
      <trkpt lat="44.37375" lon="3.82227">
        <ele>1335.2</ele>
        <time>2022-10-29T08:40:44Z</time>
      </trkpt>
      <trkpt lat="44.37375" lon="3.82227">
        <ele>1335.2</ele>
        <time>2022-10-29T08:40:45Z</time>
      </trkpt>
      <trkpt lat="44.37375" lon="3.82228">
        <ele>1335.2</ele>
        <time>2022-10-29T08:41:01Z</time>
      </trkpt>
      <trkpt lat="44.37375" lon="3.82231">
        <ele>1335.2</ele>
        <time>2022-10-29T08:41:02Z</time>
      </trkpt>
      <trkpt lat="44.37374" lon="3.82235">
        <ele>1335.2</ele>
        <time>2022-10-29T08:41:03Z</time>
      </trkpt>
      <trkpt lat="44.37374" lon="3.8224">
        <ele>1335.2</ele>
        <time>2022-10-29T08:41:04Z</time>
      </trkpt>
      <trkpt lat="44.37374" lon="3.82243">
        <ele>1335.2</ele>
        <time>2022-10-29T08:41:05Z</time>
      </trkpt>
      <trkpt lat="44.37373" lon="3.82247">
        <ele>1335.2</ele>
        <time>2022-10-29T08:41:06Z</time>
      </trkpt>
      <trkpt lat="44.37373" lon="3.82251">
        <ele>1335</ele>
        <time>2022-10-29T08:41:07Z</time>
      </trkpt>
      <trkpt lat="44.37373" lon="3.82255">
        <ele>1334.8</ele>
        <time>2022-10-29T08:41:08Z</time>
      </trkpt>
      <trkpt lat="44.37372" lon="3.82259">
        <ele>1334.6</ele>
        <time>2022-10-29T08:41:09Z</time>
      </trkpt>
      <trkpt lat="44.37372" lon="3.82262">
        <ele>1334.4</ele>
        <time>2022-10-29T08:41:10Z</time>
      </trkpt>
      <trkpt lat="44.37371" lon="3.82266">
        <ele>1334</ele>
        <time>2022-10-29T08:41:11Z</time>
      </trkpt>
      <trkpt lat="44.3737" lon="3.82268">
        <ele>1333.8</ele>
        <time>2022-10-29T08:41:12Z</time>
      </trkpt>
      <trkpt lat="44.37367" lon="3.82267">
        <ele>1333.4</ele>
        <time>2022-10-29T08:41:13Z</time>
      </trkpt>
      <trkpt lat="44.37366" lon="3.82265">
        <ele>1333.2</ele>
        <time>2022-10-29T08:41:14Z</time>
      </trkpt>
      <trkpt lat="44.37364" lon="3.82262">
        <ele>1332.8</ele>
        <time>2022-10-29T08:41:15Z</time>
      </trkpt>
      <trkpt lat="44.37363" lon="3.82259">
        <ele>1332.6</ele>
        <time>2022-10-29T08:41:16Z</time>
      </trkpt>
      <trkpt lat="44.37363" lon="3.82255">
        <ele>1332.2</ele>
        <time>2022-10-29T08:41:17Z</time>
      </trkpt>
      <trkpt lat="44.37363" lon="3.8225">
        <ele>1332</ele>
        <time>2022-10-29T08:41:18Z</time>
      </trkpt>
      <trkpt lat="44.37363" lon="3.82245">
        <ele>1332</ele>
        <time>2022-10-29T08:41:19Z</time>
      </trkpt>
      <trkpt lat="44.37362" lon="3.82241">
        <ele>1331.8</ele>
        <time>2022-10-29T08:41:20Z</time>
      </trkpt>
      <trkpt lat="44.37361" lon="3.82239">
        <ele>1331.6</ele>
        <time>2022-10-29T08:41:21Z</time>
      </trkpt>
      <trkpt lat="44.37361" lon="3.82238">
        <ele>1331.6</ele>
        <time>2022-10-29T08:41:22Z</time>
      </trkpt>
      <trkpt lat="44.37361" lon="3.82238">
        <ele>1331.4</ele>
        <time>2022-10-29T08:41:23Z</time>
      </trkpt>
      <trkpt lat="44.37361" lon="3.82238">
        <ele>1331.4</ele>
        <time>2022-10-29T08:41:24Z</time>
      </trkpt>
      <trkpt lat="44.37361" lon="3.82238">
        <ele>1331.4</ele>
        <time>2022-10-29T08:41:25Z</time>
      </trkpt>
      <trkpt lat="44.37361" lon="3.82238">
        <ele>1331.4</ele>
        <time>2022-10-29T08:41:26Z</time>
      </trkpt>
      <trkpt lat="44.37361" lon="3.82238">
        <ele>1331.4</ele>
        <time>2022-10-29T08:41:27Z</time>
      </trkpt>
      <trkpt lat="44.3736" lon="3.82239">
        <ele>1331.4</ele>
        <time>2022-10-29T08:41:31Z</time>
      </trkpt>
      <trkpt lat="44.37359" lon="3.8224">
        <ele>1331.4</ele>
        <time>2022-10-29T08:41:32Z</time>
      </trkpt>
      <trkpt lat="44.37359" lon="3.82242">
        <ele>1331.4</ele>
        <time>2022-10-29T08:41:33Z</time>
      </trkpt>
      <trkpt lat="44.3736" lon="3.82243">
        <ele>1331.4</ele>
        <time>2022-10-29T08:41:34Z</time>
      </trkpt>
      <trkpt lat="44.37361" lon="3.82245">
        <ele>1331.4</ele>
        <time>2022-10-29T08:41:35Z</time>
      </trkpt>
      <trkpt lat="44.37361" lon="3.82246">
        <ele>1331.4</ele>
        <time>2022-10-29T08:41:36Z</time>
      </trkpt>
      <trkpt lat="44.37362" lon="3.82247">
        <ele>1331.4</ele>
        <time>2022-10-29T08:41:37Z</time>
      </trkpt>
      <trkpt lat="44.37362" lon="3.82247">
        <ele>1331.4</ele>
        <time>2022-10-29T08:41:38Z</time>
      </trkpt>
      <trkpt lat="44.37362" lon="3.82247">
        <ele>1331.4</ele>
        <time>2022-10-29T08:41:39Z</time>
      </trkpt>
      <trkpt lat="44.37362" lon="3.82247">
        <ele>1331.4</ele>
        <time>2022-10-29T08:41:40Z</time>
      </trkpt>
      <trkpt lat="44.37362" lon="3.82247">
        <ele>1331.4</ele>
        <time>2022-10-29T08:41:41Z</time>
      </trkpt>
      <trkpt lat="44.37364" lon="3.82246">
        <ele>1331.4</ele>
        <time>2022-10-29T08:41:48Z</time>
      </trkpt>
      <trkpt lat="44.37366" lon="3.82246">
        <ele>1331.4</ele>
        <time>2022-10-29T08:41:49Z</time>
      </trkpt>
      <trkpt lat="44.37367" lon="3.82245">
        <ele>1331.4</ele>
        <time>2022-10-29T08:41:50Z</time>
      </trkpt>
      <trkpt lat="44.37367" lon="3.82245">
        <ele>1331.4</ele>
        <time>2022-10-29T08:41:51Z</time>
      </trkpt>
      <trkpt lat="44.37367" lon="3.82245">
        <ele>1331.4</ele>
        <time>2022-10-29T08:41:52Z</time>
      </trkpt>
      <trkpt lat="44.37367" lon="3.82245">
        <ele>1331.4</ele>
        <time>2022-10-29T08:41:53Z</time>
      </trkpt>
      <trkpt lat="44.37367" lon="3.82245">
        <ele>1331.4</ele>
        <time>2022-10-29T08:41:54Z</time>
      </trkpt>
      <trkpt lat="44.37367" lon="3.82244">
        <ele>1331.2</ele>
        <time>2022-10-29T08:41:55Z</time>
      </trkpt>
      <trkpt lat="44.37364" lon="3.82246">
        <ele>1330.8</ele>
        <time>2022-10-29T08:42:36Z</time>
      </trkpt>
      <trkpt lat="44.37363" lon="3.82247">
        <ele>1330.8</ele>
        <time>2022-10-29T08:42:37Z</time>
      </trkpt>
      <trkpt lat="44.37363" lon="3.82249">
        <ele>1330.8</ele>
        <time>2022-10-29T08:42:38Z</time>
      </trkpt>
      <trkpt lat="44.37362" lon="3.8225">
        <ele>1330.8</ele>
        <time>2022-10-29T08:42:39Z</time>
      </trkpt>
      <trkpt lat="44.37362" lon="3.82252">
        <ele>1331</ele>
        <time>2022-10-29T08:42:40Z</time>
      </trkpt>
      <trkpt lat="44.37362" lon="3.82253">
        <ele>1331</ele>
        <time>2022-10-29T08:42:41Z</time>
      </trkpt>
      <trkpt lat="44.37362" lon="3.82254">
        <ele>1331</ele>
        <time>2022-10-29T08:42:42Z</time>
      </trkpt>
      <trkpt lat="44.37362" lon="3.82256">
        <ele>1331.2</ele>
        <time>2022-10-29T08:42:43Z</time>
      </trkpt>
      <trkpt lat="44.37362" lon="3.82257">
        <ele>1331.2</ele>
        <time>2022-10-29T08:42:44Z</time>
      </trkpt>
      <trkpt lat="44.37363" lon="3.82259">
        <ele>1331.4</ele>
        <time>2022-10-29T08:42:45Z</time>
      </trkpt>
      <trkpt lat="44.37364" lon="3.8226">
        <ele>1331.4</ele>
        <time>2022-10-29T08:42:46Z</time>
      </trkpt>
      <trkpt lat="44.37364" lon="3.82262">
        <ele>1331.6</ele>
        <time>2022-10-29T08:42:47Z</time>
      </trkpt>
      <trkpt lat="44.37365" lon="3.82263">
        <ele>1331.6</ele>
        <time>2022-10-29T08:42:48Z</time>
      </trkpt>
      <trkpt lat="44.37365" lon="3.82264">
        <ele>1331.8</ele>
        <time>2022-10-29T08:42:49Z</time>
      </trkpt>
      <trkpt lat="44.37366" lon="3.82265">
        <ele>1331.8</ele>
        <time>2022-10-29T08:42:50Z</time>
      </trkpt>
      <trkpt lat="44.37366" lon="3.82267">
        <ele>1332</ele>
        <time>2022-10-29T08:42:51Z</time>
      </trkpt>
      <trkpt lat="44.37367" lon="3.82268">
        <ele>1332.2</ele>
        <time>2022-10-29T08:42:52Z</time>
      </trkpt>
      <trkpt lat="44.37368" lon="3.8227">
        <ele>1332.2</ele>
        <time>2022-10-29T08:42:53Z</time>
      </trkpt>
      <trkpt lat="44.37368" lon="3.82272">
        <ele>1332.4</ele>
        <time>2022-10-29T08:42:54Z</time>
      </trkpt>
      <trkpt lat="44.37367" lon="3.82274">
        <ele>1332.6</ele>
        <time>2022-10-29T08:42:55Z</time>
      </trkpt>
      <trkpt lat="44.37365" lon="3.82276">
        <ele>1332.8</ele>
        <time>2022-10-29T08:42:56Z</time>
      </trkpt>
      <trkpt lat="44.37364" lon="3.82276">
        <ele>1333</ele>
        <time>2022-10-29T08:42:57Z</time>
      </trkpt>
      <trkpt lat="44.37361" lon="3.82277">
        <ele>1333</ele>
        <time>2022-10-29T08:42:58Z</time>
      </trkpt>
      <trkpt lat="44.37358" lon="3.82277">
        <ele>1333</ele>
        <time>2022-10-29T08:42:59Z</time>
      </trkpt>
      <trkpt lat="44.37355" lon="3.82276">
        <ele>1333.2</ele>
        <time>2022-10-29T08:43:00Z</time>
      </trkpt>
      <trkpt lat="44.37352" lon="3.82276">
        <ele>1333.2</ele>
        <time>2022-10-29T08:43:01Z</time>
      </trkpt>
      <trkpt lat="44.37349" lon="3.82275">
        <ele>1333.2</ele>
        <time>2022-10-29T08:43:02Z</time>
      </trkpt>
      <trkpt lat="44.37346" lon="3.82275">
        <ele>1333.2</ele>
        <time>2022-10-29T08:43:03Z</time>
      </trkpt>
      <trkpt lat="44.37343" lon="3.82275">
        <ele>1333.2</ele>
        <time>2022-10-29T08:43:04Z</time>
      </trkpt>
      <trkpt lat="44.3734" lon="3.82274">
        <ele>1333</ele>
        <time>2022-10-29T08:43:05Z</time>
      </trkpt>
      <trkpt lat="44.37337" lon="3.82274">
        <ele>1333</ele>
        <time>2022-10-29T08:43:06Z</time>
      </trkpt>
      <trkpt lat="44.37334" lon="3.82274">
        <ele>1333</ele>
        <time>2022-10-29T08:43:07Z</time>
      </trkpt>
      <trkpt lat="44.37331" lon="3.82273">
        <ele>1333</ele>
        <time>2022-10-29T08:43:08Z</time>
      </trkpt>
      <trkpt lat="44.37328" lon="3.82273">
        <ele>1333</ele>
        <time>2022-10-29T08:43:09Z</time>
      </trkpt>
      <trkpt lat="44.37325" lon="3.82272">
        <ele>1333</ele>
        <time>2022-10-29T08:43:10Z</time>
      </trkpt>
      <trkpt lat="44.37321" lon="3.82272">
        <ele>1333</ele>
        <time>2022-10-29T08:43:11Z</time>
      </trkpt>
      <trkpt lat="44.37318" lon="3.82271">
        <ele>1333</ele>
        <time>2022-10-29T08:43:12Z</time>
      </trkpt>
      <trkpt lat="44.37315" lon="3.82271">
        <ele>1333.2</ele>
        <time>2022-10-29T08:43:13Z</time>
      </trkpt>
      <trkpt lat="44.37311" lon="3.8227">
        <ele>1333</ele>
        <time>2022-10-29T08:43:14Z</time>
      </trkpt>
      <trkpt lat="44.37308" lon="3.8227">
        <ele>1333</ele>
        <time>2022-10-29T08:43:15Z</time>
      </trkpt>
      <trkpt lat="44.37304" lon="3.8227">
        <ele>1333.2</ele>
        <time>2022-10-29T08:43:16Z</time>
      </trkpt>
      <trkpt lat="44.373" lon="3.8227">
        <ele>1333.2</ele>
        <time>2022-10-29T08:43:17Z</time>
      </trkpt>
      <trkpt lat="44.37296" lon="3.8227">
        <ele>1333.2</ele>
        <time>2022-10-29T08:43:18Z</time>
      </trkpt>
      <trkpt lat="44.37293" lon="3.82269">
        <ele>1333.2</ele>
        <time>2022-10-29T08:43:19Z</time>
      </trkpt>
      <trkpt lat="44.37289" lon="3.82269">
        <ele>1333.2</ele>
        <time>2022-10-29T08:43:20Z</time>
      </trkpt>
      <trkpt lat="44.37286" lon="3.82269">
        <ele>1333</ele>
        <time>2022-10-29T08:43:21Z</time>
      </trkpt>
      <trkpt lat="44.37282" lon="3.82269">
        <ele>1333</ele>
        <time>2022-10-29T08:43:22Z</time>
      </trkpt>
      <trkpt lat="44.37278" lon="3.82268">
        <ele>1333</ele>
        <time>2022-10-29T08:43:23Z</time>
      </trkpt>
      <trkpt lat="44.37274" lon="3.82268">
        <ele>1333</ele>
        <time>2022-10-29T08:43:24Z</time>
      </trkpt>
      <trkpt lat="44.3727" lon="3.82267">
        <ele>1332.8</ele>
        <time>2022-10-29T08:43:25Z</time>
      </trkpt>
      <trkpt lat="44.37266" lon="3.82266">
        <ele>1332.8</ele>
        <time>2022-10-29T08:43:26Z</time>
      </trkpt>
      <trkpt lat="44.37263" lon="3.82265">
        <ele>1332.8</ele>
        <time>2022-10-29T08:43:27Z</time>
      </trkpt>
      <trkpt lat="44.3726" lon="3.82262">
        <ele>1332.8</ele>
        <time>2022-10-29T08:43:28Z</time>
      </trkpt>
      <trkpt lat="44.37257" lon="3.82259">
        <ele>1332.6</ele>
        <time>2022-10-29T08:43:29Z</time>
      </trkpt>
      <trkpt lat="44.37254" lon="3.82256">
        <ele>1332.6</ele>
        <time>2022-10-29T08:43:30Z</time>
      </trkpt>
      <trkpt lat="44.37252" lon="3.82252">
        <ele>1332.4</ele>
        <time>2022-10-29T08:43:31Z</time>
      </trkpt>
      <trkpt lat="44.3725" lon="3.82249">
        <ele>1332.4</ele>
        <time>2022-10-29T08:43:32Z</time>
      </trkpt>
      <trkpt lat="44.37249" lon="3.82244">
        <ele>1332.2</ele>
        <time>2022-10-29T08:43:33Z</time>
      </trkpt>
      <trkpt lat="44.37247" lon="3.8224">
        <ele>1332</ele>
        <time>2022-10-29T08:43:34Z</time>
      </trkpt>
      <trkpt lat="44.37245" lon="3.82236">
        <ele>1332</ele>
        <time>2022-10-29T08:43:35Z</time>
      </trkpt>
      <trkpt lat="44.37243" lon="3.82232">
        <ele>1331.8</ele>
        <time>2022-10-29T08:43:36Z</time>
      </trkpt>
      <trkpt lat="44.37241" lon="3.82227">
        <ele>1331.6</ele>
        <time>2022-10-29T08:43:37Z</time>
      </trkpt>
      <trkpt lat="44.37238" lon="3.82224">
        <ele>1331.4</ele>
        <time>2022-10-29T08:43:38Z</time>
      </trkpt>
      <trkpt lat="44.37235" lon="3.82221">
        <ele>1331.4</ele>
        <time>2022-10-29T08:43:39Z</time>
      </trkpt>
      <trkpt lat="44.37233" lon="3.8222">
        <ele>1331.4</ele>
        <time>2022-10-29T08:43:40Z</time>
      </trkpt>
      <trkpt lat="44.37231" lon="3.8222">
        <ele>1331.2</ele>
        <time>2022-10-29T08:43:41Z</time>
      </trkpt>
      <trkpt lat="44.37231" lon="3.82221">
        <ele>1331.4</ele>
        <time>2022-10-29T08:43:42Z</time>
      </trkpt>
      <trkpt lat="44.3723" lon="3.82223">
        <ele>1331.4</ele>
        <time>2022-10-29T08:43:43Z</time>
      </trkpt>
      <trkpt lat="44.37231" lon="3.82225">
        <ele>1331.4</ele>
        <time>2022-10-29T08:43:44Z</time>
      </trkpt>
      <trkpt lat="44.37232" lon="3.82226">
        <ele>1331.4</ele>
        <time>2022-10-29T08:43:45Z</time>
      </trkpt>
      <trkpt lat="44.37232" lon="3.82226">
        <ele>1331.6</ele>
        <time>2022-10-29T08:43:46Z</time>
      </trkpt>
      <trkpt lat="44.37234" lon="3.82226">
        <ele>1331.6</ele>
        <time>2022-10-29T08:43:47Z</time>
      </trkpt>
      <trkpt lat="44.37235" lon="3.82225">
        <ele>1331.4</ele>
        <time>2022-10-29T08:43:48Z</time>
      </trkpt>
      <trkpt lat="44.37236" lon="3.82223">
        <ele>1331.4</ele>
        <time>2022-10-29T08:43:49Z</time>
      </trkpt>
      <trkpt lat="44.37236" lon="3.82221">
        <ele>1331.2</ele>
        <time>2022-10-29T08:43:50Z</time>
      </trkpt>
      <trkpt lat="44.37236" lon="3.82219">
        <ele>1331</ele>
        <time>2022-10-29T08:43:51Z</time>
      </trkpt>
      <trkpt lat="44.37237" lon="3.82218">
        <ele>1331</ele>
        <time>2022-10-29T08:43:52Z</time>
      </trkpt>
      <trkpt lat="44.37237" lon="3.82218">
        <ele>1330.8</ele>
        <time>2022-10-29T08:43:53Z</time>
      </trkpt>
      <trkpt lat="44.37237" lon="3.82216">
        <ele>1330.8</ele>
        <time>2022-10-29T08:43:54Z</time>
      </trkpt>
      <trkpt lat="44.37237" lon="3.82214">
        <ele>1330.6</ele>
        <time>2022-10-29T08:43:55Z</time>
      </trkpt>
      <trkpt lat="44.37236" lon="3.82212">
        <ele>1330.6</ele>
        <time>2022-10-29T08:43:56Z</time>
      </trkpt>
      <trkpt lat="44.37235" lon="3.82211">
        <ele>1330.6</ele>
        <time>2022-10-29T08:43:57Z</time>
      </trkpt>
      <trkpt lat="44.37233" lon="3.8221">
        <ele>1330.6</ele>
        <time>2022-10-29T08:43:58Z</time>
      </trkpt>
      <trkpt lat="44.37231" lon="3.82211">
        <ele>1330.6</ele>
        <time>2022-10-29T08:43:59Z</time>
      </trkpt>
      <trkpt lat="44.37229" lon="3.82212">
        <ele>1330.6</ele>
        <time>2022-10-29T08:44:00Z</time>
      </trkpt>
      <trkpt lat="44.37227" lon="3.82213">
        <ele>1330.6</ele>
        <time>2022-10-29T08:44:01Z</time>
      </trkpt>
      <trkpt lat="44.37226" lon="3.82215">
        <ele>1330.6</ele>
        <time>2022-10-29T08:44:02Z</time>
      </trkpt>
      <trkpt lat="44.37224" lon="3.82216">
        <ele>1330.6</ele>
        <time>2022-10-29T08:44:03Z</time>
      </trkpt>
      <trkpt lat="44.37221" lon="3.82215">
        <ele>1330.8</ele>
        <time>2022-10-29T08:44:04Z</time>
      </trkpt>
      <trkpt lat="44.37219" lon="3.82214">
        <ele>1331</ele>
        <time>2022-10-29T08:44:05Z</time>
      </trkpt>
      <trkpt lat="44.37217" lon="3.82212">
        <ele>1331</ele>
        <time>2022-10-29T08:44:06Z</time>
      </trkpt>
      <trkpt lat="44.37216" lon="3.82211">
        <ele>1331.2</ele>
        <time>2022-10-29T08:44:07Z</time>
      </trkpt>
      <trkpt lat="44.37213" lon="3.82209">
        <ele>1331.2</ele>
        <time>2022-10-29T08:44:08Z</time>
      </trkpt>
      <trkpt lat="44.37211" lon="3.82206">
        <ele>1331.2</ele>
        <time>2022-10-29T08:44:09Z</time>
      </trkpt>
      <trkpt lat="44.37208" lon="3.82204">
        <ele>1331.2</ele>
        <time>2022-10-29T08:44:10Z</time>
      </trkpt>
      <trkpt lat="44.37205" lon="3.82201">
        <ele>1331.2</ele>
        <time>2022-10-29T08:44:11Z</time>
      </trkpt>
      <trkpt lat="44.37203" lon="3.82198">
        <ele>1331.2</ele>
        <time>2022-10-29T08:44:12Z</time>
      </trkpt>
      <trkpt lat="44.37201" lon="3.82194">
        <ele>1331</ele>
        <time>2022-10-29T08:44:13Z</time>
      </trkpt>
      <trkpt lat="44.37198" lon="3.82192">
        <ele>1331</ele>
        <time>2022-10-29T08:44:14Z</time>
      </trkpt>
      <trkpt lat="44.37196" lon="3.8219">
        <ele>1331</ele>
        <time>2022-10-29T08:44:15Z</time>
      </trkpt>
      <trkpt lat="44.37194" lon="3.82188">
        <ele>1331</ele>
        <time>2022-10-29T08:44:16Z</time>
      </trkpt>
      <trkpt lat="44.37192" lon="3.82186">
        <ele>1331</ele>
        <time>2022-10-29T08:44:17Z</time>
      </trkpt>
      <trkpt lat="44.37191" lon="3.82185">
        <ele>1331</ele>
        <time>2022-10-29T08:44:18Z</time>
      </trkpt>
      <trkpt lat="44.3719" lon="3.82183">
        <ele>1331</ele>
        <time>2022-10-29T08:44:19Z</time>
      </trkpt>
      <trkpt lat="44.3719" lon="3.82181">
        <ele>1331</ele>
        <time>2022-10-29T08:44:20Z</time>
      </trkpt>
      <trkpt lat="44.37189" lon="3.82179">
        <ele>1331.2</ele>
        <time>2022-10-29T08:44:21Z</time>
      </trkpt>
      <trkpt lat="44.37189" lon="3.82177">
        <ele>1331.2</ele>
        <time>2022-10-29T08:44:22Z</time>
      </trkpt>
      <trkpt lat="44.37188" lon="3.82174">
        <ele>1331.4</ele>
        <time>2022-10-29T08:44:23Z</time>
      </trkpt>
      <trkpt lat="44.37187" lon="3.82172">
        <ele>1331.4</ele>
        <time>2022-10-29T08:44:24Z</time>
      </trkpt>
      <trkpt lat="44.37185" lon="3.82169">
        <ele>1331.6</ele>
        <time>2022-10-29T08:44:25Z</time>
      </trkpt>
      <trkpt lat="44.37184" lon="3.82167">
        <ele>1331.8</ele>
        <time>2022-10-29T08:44:26Z</time>
      </trkpt>
      <trkpt lat="44.37182" lon="3.82164">
        <ele>1331.8</ele>
        <time>2022-10-29T08:44:27Z</time>
      </trkpt>
      <trkpt lat="44.3718" lon="3.82162">
        <ele>1331.8</ele>
        <time>2022-10-29T08:44:28Z</time>
      </trkpt>
      <trkpt lat="44.37179" lon="3.8216">
        <ele>1331.8</ele>
        <time>2022-10-29T08:44:29Z</time>
      </trkpt>
      <trkpt lat="44.37177" lon="3.82157">
        <ele>1331.8</ele>
        <time>2022-10-29T08:44:30Z</time>
      </trkpt>
      <trkpt lat="44.37175" lon="3.82154">
        <ele>1332</ele>
        <time>2022-10-29T08:44:31Z</time>
      </trkpt>
      <trkpt lat="44.37173" lon="3.8215">
        <ele>1332</ele>
        <time>2022-10-29T08:44:32Z</time>
      </trkpt>
      <trkpt lat="44.37172" lon="3.82147">
        <ele>1332.2</ele>
        <time>2022-10-29T08:44:33Z</time>
      </trkpt>
      <trkpt lat="44.3717" lon="3.82143">
        <ele>1332.2</ele>
        <time>2022-10-29T08:44:34Z</time>
      </trkpt>
      <trkpt lat="44.3717" lon="3.8214">
        <ele>1332.2</ele>
        <time>2022-10-29T08:44:35Z</time>
      </trkpt>
      <trkpt lat="44.37169" lon="3.82137">
        <ele>1332.4</ele>
        <time>2022-10-29T08:44:36Z</time>
      </trkpt>
      <trkpt lat="44.37168" lon="3.82133">
        <ele>1332.4</ele>
        <time>2022-10-29T08:44:37Z</time>
      </trkpt>
      <trkpt lat="44.37167" lon="3.8213">
        <ele>1332.4</ele>
        <time>2022-10-29T08:44:38Z</time>
      </trkpt>
      <trkpt lat="44.37166" lon="3.82127">
        <ele>1332.4</ele>
        <time>2022-10-29T08:44:39Z</time>
      </trkpt>
      <trkpt lat="44.37165" lon="3.82124">
        <ele>1332.2</ele>
        <time>2022-10-29T08:44:40Z</time>
      </trkpt>
      <trkpt lat="44.37164" lon="3.82121">
        <ele>1332.2</ele>
        <time>2022-10-29T08:44:41Z</time>
      </trkpt>
      <trkpt lat="44.37163" lon="3.82118">
        <ele>1332.2</ele>
        <time>2022-10-29T08:44:42Z</time>
      </trkpt>
      <trkpt lat="44.37162" lon="3.82114">
        <ele>1332.2</ele>
        <time>2022-10-29T08:44:43Z</time>
      </trkpt>
      <trkpt lat="44.3716" lon="3.82111">
        <ele>1332.2</ele>
        <time>2022-10-29T08:44:44Z</time>
      </trkpt>
      <trkpt lat="44.37158" lon="3.82108">
        <ele>1332</ele>
        <time>2022-10-29T08:44:45Z</time>
      </trkpt>
      <trkpt lat="44.37155" lon="3.82104">
        <ele>1332.2</ele>
        <time>2022-10-29T08:44:46Z</time>
      </trkpt>
      <trkpt lat="44.37153" lon="3.821">
        <ele>1332.2</ele>
        <time>2022-10-29T08:44:47Z</time>
      </trkpt>
      <trkpt lat="44.37151" lon="3.82096">
        <ele>1332.2</ele>
        <time>2022-10-29T08:44:48Z</time>
      </trkpt>
      <trkpt lat="44.37149" lon="3.82093">
        <ele>1332.2</ele>
        <time>2022-10-29T08:44:49Z</time>
      </trkpt>
      <trkpt lat="44.37147" lon="3.82089">
        <ele>1332.2</ele>
        <time>2022-10-29T08:44:50Z</time>
      </trkpt>
      <trkpt lat="44.37146" lon="3.82086">
        <ele>1332</ele>
        <time>2022-10-29T08:44:51Z</time>
      </trkpt>
      <trkpt lat="44.37145" lon="3.82082">
        <ele>1332</ele>
        <time>2022-10-29T08:44:52Z</time>
      </trkpt>
      <trkpt lat="44.37144" lon="3.82079">
        <ele>1331.8</ele>
        <time>2022-10-29T08:44:53Z</time>
      </trkpt>
      <trkpt lat="44.37142" lon="3.82075">
        <ele>1331.8</ele>
        <time>2022-10-29T08:44:54Z</time>
      </trkpt>
      <trkpt lat="44.37141" lon="3.82071">
        <ele>1331.8</ele>
        <time>2022-10-29T08:44:55Z</time>
      </trkpt>
      <trkpt lat="44.37139" lon="3.82067">
        <ele>1331.6</ele>
        <time>2022-10-29T08:44:56Z</time>
      </trkpt>
      <trkpt lat="44.37138" lon="3.82063">
        <ele>1331.6</ele>
        <time>2022-10-29T08:44:57Z</time>
      </trkpt>
      <trkpt lat="44.37136" lon="3.82059">
        <ele>1331.4</ele>
        <time>2022-10-29T08:44:58Z</time>
      </trkpt>
      <trkpt lat="44.37135" lon="3.82056">
        <ele>1331</ele>
        <time>2022-10-29T08:44:59Z</time>
      </trkpt>
      <trkpt lat="44.37135" lon="3.82053">
        <ele>1330.8</ele>
        <time>2022-10-29T08:45:00Z</time>
      </trkpt>
      <trkpt lat="44.37135" lon="3.82052">
        <ele>1330.8</ele>
        <time>2022-10-29T08:45:01Z</time>
      </trkpt>
      <trkpt lat="44.37135" lon="3.82051">
        <ele>1330.6</ele>
        <time>2022-10-29T08:45:02Z</time>
      </trkpt>
      <trkpt lat="44.37136" lon="3.8205">
        <ele>1330.6</ele>
        <time>2022-10-29T08:45:03Z</time>
      </trkpt>
      <trkpt lat="44.37135" lon="3.8205">
        <ele>1330.2</ele>
        <time>2022-10-29T08:45:04Z</time>
      </trkpt>
      <trkpt lat="44.37134" lon="3.82049">
        <ele>1329.6</ele>
        <time>2022-10-29T08:45:38Z</time>
      </trkpt>
      <trkpt lat="44.37133" lon="3.82047">
        <ele>1329.6</ele>
        <time>2022-10-29T08:45:39Z</time>
      </trkpt>
      <trkpt lat="44.37132" lon="3.82044">
        <ele>1329.6</ele>
        <time>2022-10-29T08:45:40Z</time>
      </trkpt>
      <trkpt lat="44.37131" lon="3.82042">
        <ele>1329.6</ele>
        <time>2022-10-29T08:45:41Z</time>
      </trkpt>
      <trkpt lat="44.3713" lon="3.82039">
        <ele>1329.6</ele>
        <time>2022-10-29T08:45:42Z</time>
      </trkpt>
      <trkpt lat="44.37129" lon="3.82035">
        <ele>1329.6</ele>
        <time>2022-10-29T08:45:43Z</time>
      </trkpt>
      <trkpt lat="44.37129" lon="3.8203">
        <ele>1329.6</ele>
        <time>2022-10-29T08:45:44Z</time>
      </trkpt>
      <trkpt lat="44.37128" lon="3.82026">
        <ele>1329.8</ele>
        <time>2022-10-29T08:45:45Z</time>
      </trkpt>
      <trkpt lat="44.37128" lon="3.82021">
        <ele>1329.8</ele>
        <time>2022-10-29T08:45:46Z</time>
      </trkpt>
      <trkpt lat="44.37128" lon="3.82018">
        <ele>1329.8</ele>
        <time>2022-10-29T08:45:47Z</time>
      </trkpt>
      <trkpt lat="44.37129" lon="3.82015">
        <ele>1329.8</ele>
        <time>2022-10-29T08:45:48Z</time>
      </trkpt>
      <trkpt lat="44.37129" lon="3.82011">
        <ele>1329.8</ele>
        <time>2022-10-29T08:45:49Z</time>
      </trkpt>
      <trkpt lat="44.3713" lon="3.82008">
        <ele>1329.8</ele>
        <time>2022-10-29T08:45:50Z</time>
      </trkpt>
      <trkpt lat="44.3713" lon="3.82006">
        <ele>1329.8</ele>
        <time>2022-10-29T08:45:51Z</time>
      </trkpt>
      <trkpt lat="44.37129" lon="3.82004">
        <ele>1329.8</ele>
        <time>2022-10-29T08:45:52Z</time>
      </trkpt>
      <trkpt lat="44.37129" lon="3.82003">
        <ele>1329.8</ele>
        <time>2022-10-29T08:45:53Z</time>
      </trkpt>
      <trkpt lat="44.37129" lon="3.82003">
        <ele>1329.6</ele>
        <time>2022-10-29T08:45:54Z</time>
      </trkpt>
      <trkpt lat="44.37128" lon="3.82001">
        <ele>1329.6</ele>
        <time>2022-10-29T08:45:55Z</time>
      </trkpt>
      <trkpt lat="44.37128" lon="3.82">
        <ele>1329.6</ele>
        <time>2022-10-29T08:45:56Z</time>
      </trkpt>
      <trkpt lat="44.37128" lon="3.81999">
        <ele>1329.6</ele>
        <time>2022-10-29T08:45:57Z</time>
      </trkpt>
      <trkpt lat="44.37128" lon="3.81997">
        <ele>1329.6</ele>
        <time>2022-10-29T08:45:58Z</time>
      </trkpt>
      <trkpt lat="44.37128" lon="3.81996">
        <ele>1329.8</ele>
        <time>2022-10-29T08:45:59Z</time>
      </trkpt>
      <trkpt lat="44.37128" lon="3.81995">
        <ele>1329.8</ele>
        <time>2022-10-29T08:46:00Z</time>
      </trkpt>
      <trkpt lat="44.37128" lon="3.81994">
        <ele>1329.8</ele>
        <time>2022-10-29T08:46:01Z</time>
      </trkpt>
      <trkpt lat="44.37129" lon="3.81992">
        <ele>1329.6</ele>
        <time>2022-10-29T08:46:02Z</time>
      </trkpt>
      <trkpt lat="44.37129" lon="3.8199">
        <ele>1329.6</ele>
        <time>2022-10-29T08:46:03Z</time>
      </trkpt>
      <trkpt lat="44.3713" lon="3.81987">
        <ele>1329.6</ele>
        <time>2022-10-29T08:46:04Z</time>
      </trkpt>
      <trkpt lat="44.37131" lon="3.81984">
        <ele>1329.4</ele>
        <time>2022-10-29T08:46:05Z</time>
      </trkpt>
      <trkpt lat="44.37131" lon="3.81981">
        <ele>1329.4</ele>
        <time>2022-10-29T08:46:06Z</time>
      </trkpt>
      <trkpt lat="44.37132" lon="3.81978">
        <ele>1329.4</ele>
        <time>2022-10-29T08:46:07Z</time>
      </trkpt>
      <trkpt lat="44.37133" lon="3.81975">
        <ele>1329.4</ele>
        <time>2022-10-29T08:46:08Z</time>
      </trkpt>
      <trkpt lat="44.37134" lon="3.81973">
        <ele>1329.4</ele>
        <time>2022-10-29T08:46:09Z</time>
      </trkpt>
      <trkpt lat="44.37135" lon="3.8197">
        <ele>1329.4</ele>
        <time>2022-10-29T08:46:10Z</time>
      </trkpt>
      <trkpt lat="44.37137" lon="3.81967">
        <ele>1329.4</ele>
        <time>2022-10-29T08:46:11Z</time>
      </trkpt>
      <trkpt lat="44.37138" lon="3.81963">
        <ele>1329.4</ele>
        <time>2022-10-29T08:46:12Z</time>
      </trkpt>
      <trkpt lat="44.37139" lon="3.8196">
        <ele>1329.6</ele>
        <time>2022-10-29T08:46:13Z</time>
      </trkpt>
      <trkpt lat="44.37139" lon="3.81956">
        <ele>1329.6</ele>
        <time>2022-10-29T08:46:14Z</time>
      </trkpt>
      <trkpt lat="44.37139" lon="3.81953">
        <ele>1329.6</ele>
        <time>2022-10-29T08:46:15Z</time>
      </trkpt>
      <trkpt lat="44.3714" lon="3.81948">
        <ele>1329.6</ele>
        <time>2022-10-29T08:46:16Z</time>
      </trkpt>
      <trkpt lat="44.3714" lon="3.81944">
        <ele>1329.8</ele>
        <time>2022-10-29T08:46:17Z</time>
      </trkpt>
      <trkpt lat="44.37141" lon="3.8194">
        <ele>1329.8</ele>
        <time>2022-10-29T08:46:18Z</time>
      </trkpt>
      <trkpt lat="44.37141" lon="3.81935">
        <ele>1329.6</ele>
        <time>2022-10-29T08:46:19Z</time>
      </trkpt>
      <trkpt lat="44.37142" lon="3.81931">
        <ele>1329.6</ele>
        <time>2022-10-29T08:46:20Z</time>
      </trkpt>
      <trkpt lat="44.37143" lon="3.81927">
        <ele>1329.6</ele>
        <time>2022-10-29T08:46:21Z</time>
      </trkpt>
      <trkpt lat="44.37144" lon="3.81923">
        <ele>1329.6</ele>
        <time>2022-10-29T08:46:22Z</time>
      </trkpt>
      <trkpt lat="44.37145" lon="3.81919">
        <ele>1329.4</ele>
        <time>2022-10-29T08:46:23Z</time>
      </trkpt>
      <trkpt lat="44.37146" lon="3.81914">
        <ele>1329.4</ele>
        <time>2022-10-29T08:46:24Z</time>
      </trkpt>
      <trkpt lat="44.37147" lon="3.81909">
        <ele>1329.4</ele>
        <time>2022-10-29T08:46:25Z</time>
      </trkpt>
      <trkpt lat="44.37148" lon="3.81904">
        <ele>1329.4</ele>
        <time>2022-10-29T08:46:26Z</time>
      </trkpt>
      <trkpt lat="44.37149" lon="3.81899">
        <ele>1329.4</ele>
        <time>2022-10-29T08:46:27Z</time>
      </trkpt>
      <trkpt lat="44.3715" lon="3.81894">
        <ele>1329.4</ele>
        <time>2022-10-29T08:46:28Z</time>
      </trkpt>
      <trkpt lat="44.37152" lon="3.8189">
        <ele>1329.4</ele>
        <time>2022-10-29T08:46:29Z</time>
      </trkpt>
      <trkpt lat="44.37153" lon="3.81886">
        <ele>1329.4</ele>
        <time>2022-10-29T08:46:30Z</time>
      </trkpt>
      <trkpt lat="44.37154" lon="3.81882">
        <ele>1329.6</ele>
        <time>2022-10-29T08:46:31Z</time>
      </trkpt>
      <trkpt lat="44.37155" lon="3.81878">
        <ele>1329.8</ele>
        <time>2022-10-29T08:46:32Z</time>
      </trkpt>
      <trkpt lat="44.37157" lon="3.81874">
        <ele>1329.8</ele>
        <time>2022-10-29T08:46:33Z</time>
      </trkpt>
      <trkpt lat="44.37158" lon="3.8187">
        <ele>1329.8</ele>
        <time>2022-10-29T08:46:34Z</time>
      </trkpt>
      <trkpt lat="44.37159" lon="3.81867">
        <ele>1330</ele>
        <time>2022-10-29T08:46:35Z</time>
      </trkpt>
      <trkpt lat="44.37161" lon="3.81864">
        <ele>1330</ele>
        <time>2022-10-29T08:46:36Z</time>
      </trkpt>
      <trkpt lat="44.37162" lon="3.8186">
        <ele>1330</ele>
        <time>2022-10-29T08:46:37Z</time>
      </trkpt>
      <trkpt lat="44.37163" lon="3.81857">
        <ele>1330</ele>
        <time>2022-10-29T08:46:38Z</time>
      </trkpt>
      <trkpt lat="44.37165" lon="3.81853">
        <ele>1330.2</ele>
        <time>2022-10-29T08:46:39Z</time>
      </trkpt>
      <trkpt lat="44.37166" lon="3.81849">
        <ele>1330.2</ele>
        <time>2022-10-29T08:46:40Z</time>
      </trkpt>
      <trkpt lat="44.37166" lon="3.81845">
        <ele>1330.2</ele>
        <time>2022-10-29T08:46:41Z</time>
      </trkpt>
      <trkpt lat="44.37167" lon="3.81841">
        <ele>1330.2</ele>
        <time>2022-10-29T08:46:42Z</time>
      </trkpt>
      <trkpt lat="44.37169" lon="3.81837">
        <ele>1330.4</ele>
        <time>2022-10-29T08:46:43Z</time>
      </trkpt>
      <trkpt lat="44.37169" lon="3.81833">
        <ele>1330.4</ele>
        <time>2022-10-29T08:46:44Z</time>
      </trkpt>
      <trkpt lat="44.3717" lon="3.81829">
        <ele>1330.4</ele>
        <time>2022-10-29T08:46:45Z</time>
      </trkpt>
      <trkpt lat="44.37171" lon="3.81824">
        <ele>1330.4</ele>
        <time>2022-10-29T08:46:46Z</time>
      </trkpt>
      <trkpt lat="44.37172" lon="3.8182">
        <ele>1330.6</ele>
        <time>2022-10-29T08:46:47Z</time>
      </trkpt>
      <trkpt lat="44.37172" lon="3.81816">
        <ele>1330.6</ele>
        <time>2022-10-29T08:46:48Z</time>
      </trkpt>
      <trkpt lat="44.37173" lon="3.81811">
        <ele>1330.6</ele>
        <time>2022-10-29T08:46:49Z</time>
      </trkpt>
      <trkpt lat="44.37174" lon="3.81807">
        <ele>1330.6</ele>
        <time>2022-10-29T08:46:50Z</time>
      </trkpt>
      <trkpt lat="44.37174" lon="3.81802">
        <ele>1330.6</ele>
        <time>2022-10-29T08:46:51Z</time>
      </trkpt>
      <trkpt lat="44.37174" lon="3.81797">
        <ele>1330.6</ele>
        <time>2022-10-29T08:46:52Z</time>
      </trkpt>
      <trkpt lat="44.37173" lon="3.81792">
        <ele>1330.6</ele>
        <time>2022-10-29T08:46:53Z</time>
      </trkpt>
      <trkpt lat="44.37172" lon="3.81788">
        <ele>1330.6</ele>
        <time>2022-10-29T08:46:54Z</time>
      </trkpt>
      <trkpt lat="44.37171" lon="3.81783">
        <ele>1330.6</ele>
        <time>2022-10-29T08:46:55Z</time>
      </trkpt>
      <trkpt lat="44.3717" lon="3.81779">
        <ele>1330.6</ele>
        <time>2022-10-29T08:46:56Z</time>
      </trkpt>
      <trkpt lat="44.37169" lon="3.81774">
        <ele>1330.4</ele>
        <time>2022-10-29T08:46:57Z</time>
      </trkpt>
      <trkpt lat="44.37168" lon="3.8177">
        <ele>1330.4</ele>
        <time>2022-10-29T08:46:58Z</time>
      </trkpt>
      <trkpt lat="44.37166" lon="3.81766">
        <ele>1330.4</ele>
        <time>2022-10-29T08:46:59Z</time>
      </trkpt>
      <trkpt lat="44.37164" lon="3.81763">
        <ele>1330.4</ele>
        <time>2022-10-29T08:47:00Z</time>
      </trkpt>
      <trkpt lat="44.37161" lon="3.81759">
        <ele>1330.4</ele>
        <time>2022-10-29T08:47:01Z</time>
      </trkpt>
      <trkpt lat="44.37158" lon="3.81756">
        <ele>1330.4</ele>
        <time>2022-10-29T08:47:02Z</time>
      </trkpt>
      <trkpt lat="44.37156" lon="3.81752">
        <ele>1330.4</ele>
        <time>2022-10-29T08:47:03Z</time>
      </trkpt>
      <trkpt lat="44.37153" lon="3.81749">
        <ele>1330.4</ele>
        <time>2022-10-29T08:47:04Z</time>
      </trkpt>
      <trkpt lat="44.3715" lon="3.81744">
        <ele>1330.4</ele>
        <time>2022-10-29T08:47:05Z</time>
      </trkpt>
      <trkpt lat="44.37148" lon="3.8174">
        <ele>1330.4</ele>
        <time>2022-10-29T08:47:06Z</time>
      </trkpt>
      <trkpt lat="44.37145" lon="3.81736">
        <ele>1330.4</ele>
        <time>2022-10-29T08:47:07Z</time>
      </trkpt>
      <trkpt lat="44.37143" lon="3.81731">
        <ele>1330.4</ele>
        <time>2022-10-29T08:47:08Z</time>
      </trkpt>
      <trkpt lat="44.3714" lon="3.81728">
        <ele>1330.4</ele>
        <time>2022-10-29T08:47:09Z</time>
      </trkpt>
      <trkpt lat="44.37137" lon="3.81724">
        <ele>1330.4</ele>
        <time>2022-10-29T08:47:10Z</time>
      </trkpt>
      <trkpt lat="44.37134" lon="3.81721">
        <ele>1330.2</ele>
        <time>2022-10-29T08:47:11Z</time>
      </trkpt>
      <trkpt lat="44.37131" lon="3.81717">
        <ele>1330.2</ele>
        <time>2022-10-29T08:47:12Z</time>
      </trkpt>
      <trkpt lat="44.37128" lon="3.81713">
        <ele>1330.2</ele>
        <time>2022-10-29T08:47:13Z</time>
      </trkpt>
      <trkpt lat="44.37126" lon="3.8171">
        <ele>1330.2</ele>
        <time>2022-10-29T08:47:14Z</time>
      </trkpt>
      <trkpt lat="44.37123" lon="3.81707">
        <ele>1330.2</ele>
        <time>2022-10-29T08:47:15Z</time>
      </trkpt>
      <trkpt lat="44.37121" lon="3.81703">
        <ele>1330</ele>
        <time>2022-10-29T08:47:16Z</time>
      </trkpt>
      <trkpt lat="44.37118" lon="3.817">
        <ele>1330</ele>
        <time>2022-10-29T08:47:17Z</time>
      </trkpt>
      <trkpt lat="44.37115" lon="3.81696">
        <ele>1330</ele>
        <time>2022-10-29T08:47:18Z</time>
      </trkpt>
      <trkpt lat="44.37111" lon="3.81693">
        <ele>1329.8</ele>
        <time>2022-10-29T08:47:19Z</time>
      </trkpt>
      <trkpt lat="44.37109" lon="3.81689">
        <ele>1329.8</ele>
        <time>2022-10-29T08:47:20Z</time>
      </trkpt>
      <trkpt lat="44.37106" lon="3.81685">
        <ele>1329.6</ele>
        <time>2022-10-29T08:47:21Z</time>
      </trkpt>
      <trkpt lat="44.37103" lon="3.8168">
        <ele>1329.6</ele>
        <time>2022-10-29T08:47:22Z</time>
      </trkpt>
      <trkpt lat="44.37101" lon="3.81676">
        <ele>1329.4</ele>
        <time>2022-10-29T08:47:23Z</time>
      </trkpt>
      <trkpt lat="44.37098" lon="3.81672">
        <ele>1329.4</ele>
        <time>2022-10-29T08:47:24Z</time>
      </trkpt>
      <trkpt lat="44.37096" lon="3.81669">
        <ele>1329.2</ele>
        <time>2022-10-29T08:47:25Z</time>
      </trkpt>
      <trkpt lat="44.37093" lon="3.81666">
        <ele>1329.2</ele>
        <time>2022-10-29T08:47:26Z</time>
      </trkpt>
      <trkpt lat="44.37089" lon="3.81664">
        <ele>1329.2</ele>
        <time>2022-10-29T08:47:27Z</time>
      </trkpt>
      <trkpt lat="44.37086" lon="3.81662">
        <ele>1329.2</ele>
        <time>2022-10-29T08:47:28Z</time>
      </trkpt>
      <trkpt lat="44.37082" lon="3.8166">
        <ele>1329.2</ele>
        <time>2022-10-29T08:47:29Z</time>
      </trkpt>
      <trkpt lat="44.37079" lon="3.81658">
        <ele>1329</ele>
        <time>2022-10-29T08:47:30Z</time>
      </trkpt>
      <trkpt lat="44.37076" lon="3.81656">
        <ele>1329</ele>
        <time>2022-10-29T08:47:31Z</time>
      </trkpt>
      <trkpt lat="44.37072" lon="3.81655">
        <ele>1329</ele>
        <time>2022-10-29T08:47:32Z</time>
      </trkpt>
      <trkpt lat="44.37068" lon="3.81652">
        <ele>1328.8</ele>
        <time>2022-10-29T08:47:33Z</time>
      </trkpt>
      <trkpt lat="44.37065" lon="3.81649">
        <ele>1328.8</ele>
        <time>2022-10-29T08:47:34Z</time>
      </trkpt>
      <trkpt lat="44.37062" lon="3.81647">
        <ele>1328.8</ele>
        <time>2022-10-29T08:47:35Z</time>
      </trkpt>
      <trkpt lat="44.3706" lon="3.81645">
        <ele>1328.8</ele>
        <time>2022-10-29T08:47:36Z</time>
      </trkpt>
      <trkpt lat="44.37056" lon="3.81642">
        <ele>1328.8</ele>
        <time>2022-10-29T08:47:37Z</time>
      </trkpt>
      <trkpt lat="44.37053" lon="3.81641">
        <ele>1328.6</ele>
        <time>2022-10-29T08:47:38Z</time>
      </trkpt>
      <trkpt lat="44.3705" lon="3.81638">
        <ele>1328.6</ele>
        <time>2022-10-29T08:47:39Z</time>
      </trkpt>
      <trkpt lat="44.37048" lon="3.81636">
        <ele>1328.6</ele>
        <time>2022-10-29T08:47:40Z</time>
      </trkpt>
      <trkpt lat="44.37046" lon="3.81633">
        <ele>1328.4</ele>
        <time>2022-10-29T08:47:41Z</time>
      </trkpt>
      <trkpt lat="44.37044" lon="3.81631">
        <ele>1328.4</ele>
        <time>2022-10-29T08:47:42Z</time>
      </trkpt>
      <trkpt lat="44.37042" lon="3.81629">
        <ele>1328.4</ele>
        <time>2022-10-29T08:47:43Z</time>
      </trkpt>
      <trkpt lat="44.37039" lon="3.81627">
        <ele>1328.4</ele>
        <time>2022-10-29T08:47:44Z</time>
      </trkpt>
      <trkpt lat="44.37036" lon="3.81625">
        <ele>1328.4</ele>
        <time>2022-10-29T08:47:45Z</time>
      </trkpt>
      <trkpt lat="44.37033" lon="3.81623">
        <ele>1328.4</ele>
        <time>2022-10-29T08:47:46Z</time>
      </trkpt>
      <trkpt lat="44.3703" lon="3.81621">
        <ele>1328.4</ele>
        <time>2022-10-29T08:47:47Z</time>
      </trkpt>
      <trkpt lat="44.37028" lon="3.81619">
        <ele>1328.4</ele>
        <time>2022-10-29T08:47:48Z</time>
      </trkpt>
      <trkpt lat="44.37025" lon="3.81616">
        <ele>1328.4</ele>
        <time>2022-10-29T08:47:49Z</time>
      </trkpt>
      <trkpt lat="44.37023" lon="3.81613">
        <ele>1328.4</ele>
        <time>2022-10-29T08:47:50Z</time>
      </trkpt>
      <trkpt lat="44.37019" lon="3.8161">
        <ele>1328.6</ele>
        <time>2022-10-29T08:47:51Z</time>
      </trkpt>
      <trkpt lat="44.37016" lon="3.81607">
        <ele>1328.6</ele>
        <time>2022-10-29T08:47:52Z</time>
      </trkpt>
      <trkpt lat="44.37013" lon="3.81605">
        <ele>1328.8</ele>
        <time>2022-10-29T08:47:53Z</time>
      </trkpt>
      <trkpt lat="44.3701" lon="3.81602">
        <ele>1328.8</ele>
        <time>2022-10-29T08:47:54Z</time>
      </trkpt>
      <trkpt lat="44.37006" lon="3.816">
        <ele>1328.8</ele>
        <time>2022-10-29T08:47:55Z</time>
      </trkpt>
      <trkpt lat="44.37003" lon="3.81599">
        <ele>1328.8</ele>
        <time>2022-10-29T08:47:56Z</time>
      </trkpt>
      <trkpt lat="44.36999" lon="3.81597">
        <ele>1328.8</ele>
        <time>2022-10-29T08:47:57Z</time>
      </trkpt>
      <trkpt lat="44.36995" lon="3.81595">
        <ele>1328.8</ele>
        <time>2022-10-29T08:47:58Z</time>
      </trkpt>
      <trkpt lat="44.36992" lon="3.81592">
        <ele>1329</ele>
        <time>2022-10-29T08:47:59Z</time>
      </trkpt>
      <trkpt lat="44.36988" lon="3.8159">
        <ele>1329</ele>
        <time>2022-10-29T08:48:00Z</time>
      </trkpt>
      <trkpt lat="44.36985" lon="3.81588">
        <ele>1328.8</ele>
        <time>2022-10-29T08:48:01Z</time>
      </trkpt>
      <trkpt lat="44.36981" lon="3.81586">
        <ele>1328.8</ele>
        <time>2022-10-29T08:48:02Z</time>
      </trkpt>
      <trkpt lat="44.36978" lon="3.81584">
        <ele>1328.8</ele>
        <time>2022-10-29T08:48:03Z</time>
      </trkpt>
      <trkpt lat="44.36974" lon="3.81583">
        <ele>1328.8</ele>
        <time>2022-10-29T08:48:04Z</time>
      </trkpt>
      <trkpt lat="44.36971" lon="3.81582">
        <ele>1328.8</ele>
        <time>2022-10-29T08:48:05Z</time>
      </trkpt>
      <trkpt lat="44.36967" lon="3.8158">
        <ele>1328.8</ele>
        <time>2022-10-29T08:48:06Z</time>
      </trkpt>
      <trkpt lat="44.36963" lon="3.81578">
        <ele>1328.8</ele>
        <time>2022-10-29T08:48:07Z</time>
      </trkpt>
      <trkpt lat="44.3696" lon="3.81576">
        <ele>1328.6</ele>
        <time>2022-10-29T08:48:08Z</time>
      </trkpt>
      <trkpt lat="44.36957" lon="3.81575">
        <ele>1328.8</ele>
        <time>2022-10-29T08:48:09Z</time>
      </trkpt>
      <trkpt lat="44.36953" lon="3.81573">
        <ele>1328.8</ele>
        <time>2022-10-29T08:48:10Z</time>
      </trkpt>
      <trkpt lat="44.3695" lon="3.8157">
        <ele>1328.6</ele>
        <time>2022-10-29T08:48:11Z</time>
      </trkpt>
      <trkpt lat="44.36947" lon="3.81568">
        <ele>1328.6</ele>
        <time>2022-10-29T08:48:12Z</time>
      </trkpt>
      <trkpt lat="44.36943" lon="3.81566">
        <ele>1328.6</ele>
        <time>2022-10-29T08:48:13Z</time>
      </trkpt>
      <trkpt lat="44.3694" lon="3.81564">
        <ele>1328.6</ele>
        <time>2022-10-29T08:48:14Z</time>
      </trkpt>
      <trkpt lat="44.36937" lon="3.81562">
        <ele>1328.4</ele>
        <time>2022-10-29T08:48:15Z</time>
      </trkpt>
      <trkpt lat="44.36934" lon="3.8156">
        <ele>1328.4</ele>
        <time>2022-10-29T08:48:16Z</time>
      </trkpt>
      <trkpt lat="44.36931" lon="3.81559">
        <ele>1328.4</ele>
        <time>2022-10-29T08:48:17Z</time>
      </trkpt>
      <trkpt lat="44.36928" lon="3.81557">
        <ele>1328.2</ele>
        <time>2022-10-29T08:48:18Z</time>
      </trkpt>
      <trkpt lat="44.36925" lon="3.81556">
        <ele>1328.2</ele>
        <time>2022-10-29T08:48:19Z</time>
      </trkpt>
      <trkpt lat="44.36923" lon="3.81554">
        <ele>1328</ele>
        <time>2022-10-29T08:48:20Z</time>
      </trkpt>
      <trkpt lat="44.36919" lon="3.81553">
        <ele>1328</ele>
        <time>2022-10-29T08:48:21Z</time>
      </trkpt>
      <trkpt lat="44.36917" lon="3.81551">
        <ele>1328</ele>
        <time>2022-10-29T08:48:22Z</time>
      </trkpt>
      <trkpt lat="44.36914" lon="3.8155">
        <ele>1328</ele>
        <time>2022-10-29T08:48:23Z</time>
      </trkpt>
      <trkpt lat="44.36911" lon="3.81549">
        <ele>1328</ele>
        <time>2022-10-29T08:48:24Z</time>
      </trkpt>
      <trkpt lat="44.36908" lon="3.81547">
        <ele>1328</ele>
        <time>2022-10-29T08:48:25Z</time>
      </trkpt>
      <trkpt lat="44.36905" lon="3.81545">
        <ele>1328</ele>
        <time>2022-10-29T08:48:26Z</time>
      </trkpt>
      <trkpt lat="44.36902" lon="3.81543">
        <ele>1328.2</ele>
        <time>2022-10-29T08:48:27Z</time>
      </trkpt>
      <trkpt lat="44.36899" lon="3.81541">
        <ele>1328.2</ele>
        <time>2022-10-29T08:48:28Z</time>
      </trkpt>
      <trkpt lat="44.36897" lon="3.8154">
        <ele>1328.2</ele>
        <time>2022-10-29T08:48:29Z</time>
      </trkpt>
      <trkpt lat="44.36894" lon="3.81538">
        <ele>1328.2</ele>
        <time>2022-10-29T08:48:30Z</time>
      </trkpt>
      <trkpt lat="44.36891" lon="3.81537">
        <ele>1328.2</ele>
        <time>2022-10-29T08:48:31Z</time>
      </trkpt>
      <trkpt lat="44.36888" lon="3.81537">
        <ele>1328</ele>
        <time>2022-10-29T08:48:32Z</time>
      </trkpt>
      <trkpt lat="44.36885" lon="3.81536">
        <ele>1328</ele>
        <time>2022-10-29T08:48:33Z</time>
      </trkpt>
      <trkpt lat="44.36882" lon="3.81533">
        <ele>1328</ele>
        <time>2022-10-29T08:48:34Z</time>
      </trkpt>
      <trkpt lat="44.3688" lon="3.8153">
        <ele>1328</ele>
        <time>2022-10-29T08:48:35Z</time>
      </trkpt>
      <trkpt lat="44.36879" lon="3.81528">
        <ele>1328</ele>
        <time>2022-10-29T08:48:36Z</time>
      </trkpt>
      <trkpt lat="44.36877" lon="3.81526">
        <ele>1328</ele>
        <time>2022-10-29T08:48:37Z</time>
      </trkpt>
      <trkpt lat="44.36876" lon="3.81524">
        <ele>1328</ele>
        <time>2022-10-29T08:48:38Z</time>
      </trkpt>
      <trkpt lat="44.36875" lon="3.81522">
        <ele>1328</ele>
        <time>2022-10-29T08:48:39Z</time>
      </trkpt>
      <trkpt lat="44.36874" lon="3.81521">
        <ele>1328</ele>
        <time>2022-10-29T08:48:40Z</time>
      </trkpt>
      <trkpt lat="44.36874" lon="3.8152">
        <ele>1327.8</ele>
        <time>2022-10-29T08:48:41Z</time>
      </trkpt>
      <trkpt lat="44.36872" lon="3.81519">
        <ele>1327.8</ele>
        <time>2022-10-29T08:48:46Z</time>
      </trkpt>
      <trkpt lat="44.36872" lon="3.81519">
        <ele>1327.8</ele>
        <time>2022-10-29T08:48:47Z</time>
      </trkpt>
      <trkpt lat="44.36871" lon="3.81519">
        <ele>1327.8</ele>
        <time>2022-10-29T08:48:48Z</time>
      </trkpt>
      <trkpt lat="44.36871" lon="3.81519">
        <ele>1327.8</ele>
        <time>2022-10-29T08:48:49Z</time>
      </trkpt>
      <trkpt lat="44.36871" lon="3.81519">
        <ele>1327.8</ele>
        <time>2022-10-29T08:48:50Z</time>
      </trkpt>
      <trkpt lat="44.36871" lon="3.81519">
        <ele>1327.8</ele>
        <time>2022-10-29T08:48:51Z</time>
      </trkpt>
      <trkpt lat="44.36871" lon="3.81517">
        <ele>1327.8</ele>
        <time>2022-10-29T08:49:25Z</time>
      </trkpt>
      <trkpt lat="44.36869" lon="3.81516">
        <ele>1327.8</ele>
        <time>2022-10-29T08:49:26Z</time>
      </trkpt>
      <trkpt lat="44.36866" lon="3.81514">
        <ele>1327.8</ele>
        <time>2022-10-29T08:49:27Z</time>
      </trkpt>
      <trkpt lat="44.36864" lon="3.81511">
        <ele>1327.8</ele>
        <time>2022-10-29T08:49:28Z</time>
      </trkpt>
      <trkpt lat="44.36862" lon="3.81509">
        <ele>1327.8</ele>
        <time>2022-10-29T08:49:29Z</time>
      </trkpt>
      <trkpt lat="44.36861" lon="3.81507">
        <ele>1327.8</ele>
        <time>2022-10-29T08:49:30Z</time>
      </trkpt>
      <trkpt lat="44.36859" lon="3.81505">
        <ele>1328</ele>
        <time>2022-10-29T08:49:31Z</time>
      </trkpt>
      <trkpt lat="44.36858" lon="3.81502">
        <ele>1328</ele>
        <time>2022-10-29T08:49:32Z</time>
      </trkpt>
      <trkpt lat="44.36857" lon="3.815">
        <ele>1328.2</ele>
        <time>2022-10-29T08:49:33Z</time>
      </trkpt>
      <trkpt lat="44.36856" lon="3.81497">
        <ele>1328.2</ele>
        <time>2022-10-29T08:49:34Z</time>
      </trkpt>
      <trkpt lat="44.36854" lon="3.81495">
        <ele>1328.4</ele>
        <time>2022-10-29T08:49:35Z</time>
      </trkpt>
      <trkpt lat="44.36852" lon="3.81493">
        <ele>1328.4</ele>
        <time>2022-10-29T08:49:36Z</time>
      </trkpt>
      <trkpt lat="44.36851" lon="3.81493">
        <ele>1328.6</ele>
        <time>2022-10-29T08:49:37Z</time>
      </trkpt>
      <trkpt lat="44.36851" lon="3.81492">
        <ele>1328.6</ele>
        <time>2022-10-29T08:49:38Z</time>
      </trkpt>
      <trkpt lat="44.3685" lon="3.81491">
        <ele>1328.8</ele>
        <time>2022-10-29T08:49:39Z</time>
      </trkpt>
      <trkpt lat="44.36849" lon="3.8149">
        <ele>1328.8</ele>
        <time>2022-10-29T08:49:40Z</time>
      </trkpt>
      <trkpt lat="44.36847" lon="3.81488">
        <ele>1328.8</ele>
        <time>2022-10-29T08:49:41Z</time>
      </trkpt>
      <trkpt lat="44.36845" lon="3.81486">
        <ele>1329</ele>
        <time>2022-10-29T08:49:42Z</time>
      </trkpt>
      <trkpt lat="44.36843" lon="3.81484">
        <ele>1329</ele>
        <time>2022-10-29T08:49:43Z</time>
      </trkpt>
      <trkpt lat="44.36841" lon="3.81481">
        <ele>1329.2</ele>
        <time>2022-10-29T08:49:44Z</time>
      </trkpt>
      <trkpt lat="44.36839" lon="3.81479">
        <ele>1329.4</ele>
        <time>2022-10-29T08:49:45Z</time>
      </trkpt>
      <trkpt lat="44.36838" lon="3.81478">
        <ele>1329.6</ele>
        <time>2022-10-29T08:49:46Z</time>
      </trkpt>
      <trkpt lat="44.36836" lon="3.81477">
        <ele>1329.6</ele>
        <time>2022-10-29T08:49:47Z</time>
      </trkpt>
      <trkpt lat="44.36834" lon="3.81475">
        <ele>1329.8</ele>
        <time>2022-10-29T08:49:48Z</time>
      </trkpt>
      <trkpt lat="44.36832" lon="3.81473">
        <ele>1329.8</ele>
        <time>2022-10-29T08:49:49Z</time>
      </trkpt>
      <trkpt lat="44.36832" lon="3.81471">
        <ele>1330</ele>
        <time>2022-10-29T08:49:50Z</time>
      </trkpt>
      <trkpt lat="44.36831" lon="3.81468">
        <ele>1330.2</ele>
        <time>2022-10-29T08:49:51Z</time>
      </trkpt>
      <trkpt lat="44.36831" lon="3.81466">
        <ele>1330.2</ele>
        <time>2022-10-29T08:49:52Z</time>
      </trkpt>
      <trkpt lat="44.36832" lon="3.81464">
        <ele>1330.4</ele>
        <time>2022-10-29T08:49:53Z</time>
      </trkpt>
      <trkpt lat="44.36833" lon="3.81462">
        <ele>1330.4</ele>
        <time>2022-10-29T08:49:54Z</time>
      </trkpt>
      <trkpt lat="44.36834" lon="3.8146">
        <ele>1330.6</ele>
        <time>2022-10-29T08:49:55Z</time>
      </trkpt>
      <trkpt lat="44.36834" lon="3.81457">
        <ele>1330.6</ele>
        <time>2022-10-29T08:49:56Z</time>
      </trkpt>
      <trkpt lat="44.36834" lon="3.81455">
        <ele>1330.8</ele>
        <time>2022-10-29T08:49:57Z</time>
      </trkpt>
      <trkpt lat="44.36835" lon="3.81453">
        <ele>1330.8</ele>
        <time>2022-10-29T08:49:58Z</time>
      </trkpt>
      <trkpt lat="44.36835" lon="3.8145">
        <ele>1331</ele>
        <time>2022-10-29T08:49:59Z</time>
      </trkpt>
      <trkpt lat="44.36835" lon="3.81448">
        <ele>1331</ele>
        <time>2022-10-29T08:50:00Z</time>
      </trkpt>
      <trkpt lat="44.36834" lon="3.81445">
        <ele>1331.2</ele>
        <time>2022-10-29T08:50:01Z</time>
      </trkpt>
      <trkpt lat="44.36834" lon="3.81442">
        <ele>1331.2</ele>
        <time>2022-10-29T08:50:02Z</time>
      </trkpt>
      <trkpt lat="44.36833" lon="3.8144">
        <ele>1331.4</ele>
        <time>2022-10-29T08:50:03Z</time>
      </trkpt>
      <trkpt lat="44.36832" lon="3.81437">
        <ele>1331.4</ele>
        <time>2022-10-29T08:50:04Z</time>
      </trkpt>
      <trkpt lat="44.36832" lon="3.81432">
        <ele>1331.6</ele>
        <time>2022-10-29T08:50:05Z</time>
      </trkpt>
      <trkpt lat="44.36832" lon="3.81429">
        <ele>1331.6</ele>
        <time>2022-10-29T08:50:24Z</time>
      </trkpt>
      <trkpt lat="44.36832" lon="3.81426">
        <ele>1331.6</ele>
        <time>2022-10-29T08:50:25Z</time>
      </trkpt>
      <trkpt lat="44.36832" lon="3.81424">
        <ele>1331.4</ele>
        <time>2022-10-29T08:50:26Z</time>
      </trkpt>
      <trkpt lat="44.36832" lon="3.81417">
        <ele>1331.4</ele>
        <time>2022-10-29T08:50:27Z</time>
      </trkpt>
      <trkpt lat="44.36832" lon="3.81413">
        <ele>1331.4</ele>
        <time>2022-10-29T08:50:28Z</time>
      </trkpt>
      <trkpt lat="44.36832" lon="3.8141">
        <ele>1331.2</ele>
        <time>2022-10-29T08:50:29Z</time>
      </trkpt>
      <trkpt lat="44.36832" lon="3.81407">
        <ele>1331.2</ele>
        <time>2022-10-29T08:50:30Z</time>
      </trkpt>
      <trkpt lat="44.36832" lon="3.81404">
        <ele>1331.2</ele>
        <time>2022-10-29T08:50:31Z</time>
      </trkpt>
      <trkpt lat="44.36831" lon="3.81401">
        <ele>1331.2</ele>
        <time>2022-10-29T08:50:32Z</time>
      </trkpt>
      <trkpt lat="44.3683" lon="3.81397">
        <ele>1331.2</ele>
        <time>2022-10-29T08:50:33Z</time>
      </trkpt>
      <trkpt lat="44.36831" lon="3.81393">
        <ele>1331.2</ele>
        <time>2022-10-29T08:50:34Z</time>
      </trkpt>
      <trkpt lat="44.36831" lon="3.8139">
        <ele>1331.2</ele>
        <time>2022-10-29T08:50:35Z</time>
      </trkpt>
      <trkpt lat="44.36833" lon="3.81386">
        <ele>1331</ele>
        <time>2022-10-29T08:50:36Z</time>
      </trkpt>
      <trkpt lat="44.36834" lon="3.81383">
        <ele>1331</ele>
        <time>2022-10-29T08:50:37Z</time>
      </trkpt>
      <trkpt lat="44.36835" lon="3.81379">
        <ele>1331</ele>
        <time>2022-10-29T08:50:38Z</time>
      </trkpt>
      <trkpt lat="44.36836" lon="3.81376">
        <ele>1331</ele>
        <time>2022-10-29T08:50:39Z</time>
      </trkpt>
      <trkpt lat="44.36836" lon="3.81373">
        <ele>1330.8</ele>
        <time>2022-10-29T08:50:40Z</time>
      </trkpt>
      <trkpt lat="44.36836" lon="3.8137">
        <ele>1330.6</ele>
        <time>2022-10-29T08:50:41Z</time>
      </trkpt>
      <trkpt lat="44.36837" lon="3.81367">
        <ele>1330.4</ele>
        <time>2022-10-29T08:50:42Z</time>
      </trkpt>
      <trkpt lat="44.36838" lon="3.81364">
        <ele>1330</ele>
        <time>2022-10-29T08:50:43Z</time>
      </trkpt>
      <trkpt lat="44.3684" lon="3.81361">
        <ele>1329.8</ele>
        <time>2022-10-29T08:50:44Z</time>
      </trkpt>
      <trkpt lat="44.36843" lon="3.81359">
        <ele>1329.6</ele>
        <time>2022-10-29T08:50:45Z</time>
      </trkpt>
      <trkpt lat="44.36845" lon="3.81355">
        <ele>1329.4</ele>
        <time>2022-10-29T08:50:46Z</time>
      </trkpt>
      <trkpt lat="44.36847" lon="3.81351">
        <ele>1329.2</ele>
        <time>2022-10-29T08:50:47Z</time>
      </trkpt>
      <trkpt lat="44.3685" lon="3.81348">
        <ele>1329.2</ele>
        <time>2022-10-29T08:50:48Z</time>
      </trkpt>
      <trkpt lat="44.36852" lon="3.81345">
        <ele>1329</ele>
        <time>2022-10-29T08:50:49Z</time>
      </trkpt>
      <trkpt lat="44.36853" lon="3.81342">
        <ele>1329</ele>
        <time>2022-10-29T08:50:50Z</time>
      </trkpt>
      <trkpt lat="44.36854" lon="3.8134">
        <ele>1329</ele>
        <time>2022-10-29T08:50:51Z</time>
      </trkpt>
      <trkpt lat="44.36856" lon="3.81339">
        <ele>1329</ele>
        <time>2022-10-29T08:50:52Z</time>
      </trkpt>
      <trkpt lat="44.36858" lon="3.81339">
        <ele>1328.8</ele>
        <time>2022-10-29T08:50:53Z</time>
      </trkpt>
      <trkpt lat="44.3686" lon="3.81338">
        <ele>1328.8</ele>
        <time>2022-10-29T08:50:54Z</time>
      </trkpt>
      <trkpt lat="44.36862" lon="3.81337">
        <ele>1328.6</ele>
        <time>2022-10-29T08:50:55Z</time>
      </trkpt>
      <trkpt lat="44.36863" lon="3.81334">
        <ele>1328.6</ele>
        <time>2022-10-29T08:50:56Z</time>
      </trkpt>
      <trkpt lat="44.36864" lon="3.81331">
        <ele>1328.6</ele>
        <time>2022-10-29T08:50:57Z</time>
      </trkpt>
      <trkpt lat="44.36866" lon="3.81328">
        <ele>1328.4</ele>
        <time>2022-10-29T08:50:58Z</time>
      </trkpt>
      <trkpt lat="44.36868" lon="3.81324">
        <ele>1328.4</ele>
        <time>2022-10-29T08:50:59Z</time>
      </trkpt>
      <trkpt lat="44.3687" lon="3.8132">
        <ele>1328.2</ele>
        <time>2022-10-29T08:51:00Z</time>
      </trkpt>
      <trkpt lat="44.36872" lon="3.81315">
        <ele>1328.2</ele>
        <time>2022-10-29T08:51:01Z</time>
      </trkpt>
      <trkpt lat="44.36873" lon="3.81311">
        <ele>1328.2</ele>
        <time>2022-10-29T08:51:02Z</time>
      </trkpt>
      <trkpt lat="44.36875" lon="3.81307">
        <ele>1328.2</ele>
        <time>2022-10-29T08:51:03Z</time>
      </trkpt>
      <trkpt lat="44.36876" lon="3.81304">
        <ele>1328.2</ele>
        <time>2022-10-29T08:51:04Z</time>
      </trkpt>
      <trkpt lat="44.36878" lon="3.81301">
        <ele>1328.2</ele>
        <time>2022-10-29T08:51:05Z</time>
      </trkpt>
      <trkpt lat="44.36879" lon="3.81298">
        <ele>1328.4</ele>
        <time>2022-10-29T08:51:06Z</time>
      </trkpt>
      <trkpt lat="44.36881" lon="3.81295">
        <ele>1328.4</ele>
        <time>2022-10-29T08:51:07Z</time>
      </trkpt>
      <trkpt lat="44.36884" lon="3.81293">
        <ele>1328.4</ele>
        <time>2022-10-29T08:51:08Z</time>
      </trkpt>
      <trkpt lat="44.36886" lon="3.8129">
        <ele>1328.4</ele>
        <time>2022-10-29T08:51:09Z</time>
      </trkpt>
      <trkpt lat="44.3689" lon="3.81289">
        <ele>1328.4</ele>
        <time>2022-10-29T08:51:10Z</time>
      </trkpt>
      <trkpt lat="44.36893" lon="3.81288">
        <ele>1328.4</ele>
        <time>2022-10-29T08:51:11Z</time>
      </trkpt>
      <trkpt lat="44.36896" lon="3.81288">
        <ele>1328.4</ele>
        <time>2022-10-29T08:51:12Z</time>
      </trkpt>
      <trkpt lat="44.36899" lon="3.81286">
        <ele>1328.4</ele>
        <time>2022-10-29T08:51:13Z</time>
      </trkpt>
      <trkpt lat="44.36901" lon="3.81286">
        <ele>1328.4</ele>
        <time>2022-10-29T08:51:14Z</time>
      </trkpt>
      <trkpt lat="44.36901" lon="3.81286">
        <ele>1328.4</ele>
        <time>2022-10-29T08:51:15Z</time>
      </trkpt>
      <trkpt lat="44.36901" lon="3.81286">
        <ele>1328.4</ele>
        <time>2022-10-29T08:51:16Z</time>
      </trkpt>
      <trkpt lat="44.36901" lon="3.81286">
        <ele>1328.4</ele>
        <time>2022-10-29T08:51:17Z</time>
      </trkpt>
      <trkpt lat="44.36901" lon="3.81285">
        <ele>1328.4</ele>
        <time>2022-10-29T08:51:18Z</time>
      </trkpt>
      <trkpt lat="44.36902" lon="3.81284">
        <ele>1328.4</ele>
        <time>2022-10-29T08:51:19Z</time>
      </trkpt>
      <trkpt lat="44.36903" lon="3.81283">
        <ele>1328.4</ele>
        <time>2022-10-29T08:51:20Z</time>
      </trkpt>
      <trkpt lat="44.36904" lon="3.81281">
        <ele>1328.6</ele>
        <time>2022-10-29T08:51:21Z</time>
      </trkpt>
      <trkpt lat="44.36906" lon="3.81279">
        <ele>1328.6</ele>
        <time>2022-10-29T08:51:22Z</time>
      </trkpt>
      <trkpt lat="44.36907" lon="3.81277">
        <ele>1328.8</ele>
        <time>2022-10-29T08:51:23Z</time>
      </trkpt>
      <trkpt lat="44.3691" lon="3.81274">
        <ele>1329</ele>
        <time>2022-10-29T08:51:24Z</time>
      </trkpt>
      <trkpt lat="44.36912" lon="3.81271">
        <ele>1329</ele>
        <time>2022-10-29T08:51:25Z</time>
      </trkpt>
      <trkpt lat="44.36915" lon="3.81268">
        <ele>1328.8</ele>
        <time>2022-10-29T08:51:26Z</time>
      </trkpt>
      <trkpt lat="44.36918" lon="3.81265">
        <ele>1328.8</ele>
        <time>2022-10-29T08:51:27Z</time>
      </trkpt>
      <trkpt lat="44.36923" lon="3.81262">
        <ele>1328.6</ele>
        <time>2022-10-29T08:51:28Z</time>
      </trkpt>
      <trkpt lat="44.36927" lon="3.8126">
        <ele>1328.4</ele>
        <time>2022-10-29T08:51:29Z</time>
      </trkpt>
      <trkpt lat="44.36931" lon="3.81257">
        <ele>1328.2</ele>
        <time>2022-10-29T08:51:30Z</time>
      </trkpt>
      <trkpt lat="44.36935" lon="3.81254">
        <ele>1328</ele>
        <time>2022-10-29T08:51:31Z</time>
      </trkpt>
      <trkpt lat="44.3694" lon="3.81251">
        <ele>1327.8</ele>
        <time>2022-10-29T08:51:32Z</time>
      </trkpt>
      <trkpt lat="44.36944" lon="3.81248">
        <ele>1327.6</ele>
        <time>2022-10-29T08:51:33Z</time>
      </trkpt>
      <trkpt lat="44.36948" lon="3.81244">
        <ele>1327.4</ele>
        <time>2022-10-29T08:51:34Z</time>
      </trkpt>
      <trkpt lat="44.36951" lon="3.8124">
        <ele>1327.4</ele>
        <time>2022-10-29T08:51:35Z</time>
      </trkpt>
      <trkpt lat="44.36954" lon="3.81235">
        <ele>1327.2</ele>
        <time>2022-10-29T08:51:36Z</time>
      </trkpt>
      <trkpt lat="44.36958" lon="3.81232">
        <ele>1327.2</ele>
        <time>2022-10-29T08:51:37Z</time>
      </trkpt>
      <trkpt lat="44.36961" lon="3.8123">
        <ele>1327</ele>
        <time>2022-10-29T08:51:38Z</time>
      </trkpt>
      <trkpt lat="44.36965" lon="3.81228">
        <ele>1327</ele>
        <time>2022-10-29T08:51:39Z</time>
      </trkpt>
      <trkpt lat="44.36968" lon="3.81226">
        <ele>1327</ele>
        <time>2022-10-29T08:51:40Z</time>
      </trkpt>
      <trkpt lat="44.36971" lon="3.81226">
        <ele>1327</ele>
        <time>2022-10-29T08:51:41Z</time>
      </trkpt>
      <trkpt lat="44.36974" lon="3.81225">
        <ele>1327</ele>
        <time>2022-10-29T08:51:42Z</time>
      </trkpt>
      <trkpt lat="44.36977" lon="3.81224">
        <ele>1327.2</ele>
        <time>2022-10-29T08:51:43Z</time>
      </trkpt>
      <trkpt lat="44.3698" lon="3.81223">
        <ele>1327.2</ele>
        <time>2022-10-29T08:51:44Z</time>
      </trkpt>
      <trkpt lat="44.36983" lon="3.81222">
        <ele>1327.2</ele>
        <time>2022-10-29T08:51:45Z</time>
      </trkpt>
      <trkpt lat="44.36985" lon="3.81221">
        <ele>1327.2</ele>
        <time>2022-10-29T08:51:46Z</time>
      </trkpt>
      <trkpt lat="44.36988" lon="3.8122">
        <ele>1327.2</ele>
        <time>2022-10-29T08:51:47Z</time>
      </trkpt>
      <trkpt lat="44.3699" lon="3.81218">
        <ele>1327.4</ele>
        <time>2022-10-29T08:51:48Z</time>
      </trkpt>
      <trkpt lat="44.36992" lon="3.81216">
        <ele>1327.4</ele>
        <time>2022-10-29T08:51:49Z</time>
      </trkpt>
      <trkpt lat="44.36993" lon="3.81214">
        <ele>1327.4</ele>
        <time>2022-10-29T08:51:50Z</time>
      </trkpt>
      <trkpt lat="44.36995" lon="3.81212">
        <ele>1327.6</ele>
        <time>2022-10-29T08:51:51Z</time>
      </trkpt>
      <trkpt lat="44.36996" lon="3.81209">
        <ele>1327.6</ele>
        <time>2022-10-29T08:51:52Z</time>
      </trkpt>
      <trkpt lat="44.36997" lon="3.81207">
        <ele>1327.6</ele>
        <time>2022-10-29T08:51:53Z</time>
      </trkpt>
      <trkpt lat="44.36997" lon="3.81204">
        <ele>1327.8</ele>
        <time>2022-10-29T08:51:54Z</time>
      </trkpt>
      <trkpt lat="44.36997" lon="3.81201">
        <ele>1327.8</ele>
        <time>2022-10-29T08:51:55Z</time>
      </trkpt>
      <trkpt lat="44.36997" lon="3.81197">
        <ele>1327.8</ele>
        <time>2022-10-29T08:51:56Z</time>
      </trkpt>
      <trkpt lat="44.36997" lon="3.81193">
        <ele>1327.8</ele>
        <time>2022-10-29T08:51:57Z</time>
      </trkpt>
      <trkpt lat="44.36999" lon="3.8119">
        <ele>1327.8</ele>
        <time>2022-10-29T08:51:58Z</time>
      </trkpt>
      <trkpt lat="44.37" lon="3.81187">
        <ele>1327.8</ele>
        <time>2022-10-29T08:51:59Z</time>
      </trkpt>
      <trkpt lat="44.37" lon="3.81184">
        <ele>1328</ele>
        <time>2022-10-29T08:52:00Z</time>
      </trkpt>
      <trkpt lat="44.37001" lon="3.81181">
        <ele>1328</ele>
        <time>2022-10-29T08:52:01Z</time>
      </trkpt>
      <trkpt lat="44.37001" lon="3.81177">
        <ele>1328</ele>
        <time>2022-10-29T08:52:02Z</time>
      </trkpt>
      <trkpt lat="44.37002" lon="3.81174">
        <ele>1328</ele>
        <time>2022-10-29T08:52:03Z</time>
      </trkpt>
      <trkpt lat="44.37002" lon="3.8117">
        <ele>1328</ele>
        <time>2022-10-29T08:52:04Z</time>
      </trkpt>
      <trkpt lat="44.37002" lon="3.81167">
        <ele>1327.8</ele>
        <time>2022-10-29T08:52:05Z</time>
      </trkpt>
      <trkpt lat="44.37003" lon="3.81164">
        <ele>1327.8</ele>
        <time>2022-10-29T08:52:06Z</time>
      </trkpt>
      <trkpt lat="44.37003" lon="3.81163">
        <ele>1327.8</ele>
        <time>2022-10-29T08:52:07Z</time>
      </trkpt>
      <trkpt lat="44.37004" lon="3.8116">
        <ele>1327.6</ele>
        <time>2022-10-29T08:52:31Z</time>
      </trkpt>
      <trkpt lat="44.37005" lon="3.81157">
        <ele>1327.6</ele>
        <time>2022-10-29T08:52:32Z</time>
      </trkpt>
      <trkpt lat="44.37006" lon="3.81153">
        <ele>1327.4</ele>
        <time>2022-10-29T08:52:33Z</time>
      </trkpt>
      <trkpt lat="44.37008" lon="3.81146">
        <ele>1327.4</ele>
        <time>2022-10-29T08:52:34Z</time>
      </trkpt>
      <trkpt lat="44.37008" lon="3.81142">
        <ele>1327.4</ele>
        <time>2022-10-29T08:52:35Z</time>
      </trkpt>
      <trkpt lat="44.37009" lon="3.81137">
        <ele>1327.2</ele>
        <time>2022-10-29T08:52:36Z</time>
      </trkpt>
      <trkpt lat="44.3701" lon="3.81132">
        <ele>1327.2</ele>
        <time>2022-10-29T08:52:37Z</time>
      </trkpt>
      <trkpt lat="44.3701" lon="3.81128">
        <ele>1327.2</ele>
        <time>2022-10-29T08:52:38Z</time>
      </trkpt>
      <trkpt lat="44.37011" lon="3.81123">
        <ele>1327.2</ele>
        <time>2022-10-29T08:52:39Z</time>
      </trkpt>
      <trkpt lat="44.37011" lon="3.81119">
        <ele>1327.2</ele>
        <time>2022-10-29T08:52:40Z</time>
      </trkpt>
      <trkpt lat="44.3701" lon="3.81114">
        <ele>1327</ele>
        <time>2022-10-29T08:52:41Z</time>
      </trkpt>
      <trkpt lat="44.37009" lon="3.8111">
        <ele>1327</ele>
        <time>2022-10-29T08:52:42Z</time>
      </trkpt>
      <trkpt lat="44.3701" lon="3.81106">
        <ele>1327</ele>
        <time>2022-10-29T08:52:43Z</time>
      </trkpt>
      <trkpt lat="44.3701" lon="3.81101">
        <ele>1327</ele>
        <time>2022-10-29T08:52:44Z</time>
      </trkpt>
      <trkpt lat="44.3701" lon="3.81097">
        <ele>1327</ele>
        <time>2022-10-29T08:52:45Z</time>
      </trkpt>
      <trkpt lat="44.3701" lon="3.81092">
        <ele>1327</ele>
        <time>2022-10-29T08:52:46Z</time>
      </trkpt>
      <trkpt lat="44.37009" lon="3.81087">
        <ele>1327</ele>
        <time>2022-10-29T08:52:47Z</time>
      </trkpt>
      <trkpt lat="44.37009" lon="3.81082">
        <ele>1327</ele>
        <time>2022-10-29T08:52:48Z</time>
      </trkpt>
      <trkpt lat="44.37007" lon="3.81077">
        <ele>1327</ele>
        <time>2022-10-29T08:52:49Z</time>
      </trkpt>
      <trkpt lat="44.37006" lon="3.81073">
        <ele>1327</ele>
        <time>2022-10-29T08:52:50Z</time>
      </trkpt>
      <trkpt lat="44.37006" lon="3.81068">
        <ele>1327</ele>
        <time>2022-10-29T08:52:51Z</time>
      </trkpt>
      <trkpt lat="44.37005" lon="3.81063">
        <ele>1327</ele>
        <time>2022-10-29T08:52:52Z</time>
      </trkpt>
      <trkpt lat="44.37005" lon="3.81058">
        <ele>1327</ele>
        <time>2022-10-29T08:52:53Z</time>
      </trkpt>
      <trkpt lat="44.37006" lon="3.81053">
        <ele>1327</ele>
        <time>2022-10-29T08:52:54Z</time>
      </trkpt>
      <trkpt lat="44.37006" lon="3.81048">
        <ele>1327</ele>
        <time>2022-10-29T08:52:55Z</time>
      </trkpt>
      <trkpt lat="44.37006" lon="3.81043">
        <ele>1327</ele>
        <time>2022-10-29T08:52:56Z</time>
      </trkpt>
      <trkpt lat="44.37007" lon="3.81038">
        <ele>1327</ele>
        <time>2022-10-29T08:52:57Z</time>
      </trkpt>
      <trkpt lat="44.37007" lon="3.81034">
        <ele>1326.8</ele>
        <time>2022-10-29T08:52:58Z</time>
      </trkpt>
      <trkpt lat="44.37008" lon="3.81029">
        <ele>1326.8</ele>
        <time>2022-10-29T08:52:59Z</time>
      </trkpt>
      <trkpt lat="44.37009" lon="3.81025">
        <ele>1326.8</ele>
        <time>2022-10-29T08:53:00Z</time>
      </trkpt>
      <trkpt lat="44.3701" lon="3.81021">
        <ele>1326.8</ele>
        <time>2022-10-29T08:53:01Z</time>
      </trkpt>
      <trkpt lat="44.3701" lon="3.81017">
        <ele>1326.8</ele>
        <time>2022-10-29T08:53:02Z</time>
      </trkpt>
      <trkpt lat="44.37011" lon="3.81013">
        <ele>1326.8</ele>
        <time>2022-10-29T08:53:03Z</time>
      </trkpt>
      <trkpt lat="44.37012" lon="3.81008">
        <ele>1326.6</ele>
        <time>2022-10-29T08:53:04Z</time>
      </trkpt>
      <trkpt lat="44.37013" lon="3.81005">
        <ele>1326.6</ele>
        <time>2022-10-29T08:53:05Z</time>
      </trkpt>
      <trkpt lat="44.37013" lon="3.81001">
        <ele>1326.6</ele>
        <time>2022-10-29T08:53:06Z</time>
      </trkpt>
      <trkpt lat="44.37013" lon="3.80998">
        <ele>1326.6</ele>
        <time>2022-10-29T08:53:07Z</time>
      </trkpt>
      <trkpt lat="44.37013" lon="3.80995">
        <ele>1326.4</ele>
        <time>2022-10-29T08:53:08Z</time>
      </trkpt>
      <trkpt lat="44.37013" lon="3.80994">
        <ele>1326.4</ele>
        <time>2022-10-29T08:53:09Z</time>
      </trkpt>
      <trkpt lat="44.37013" lon="3.80992">
        <ele>1326.2</ele>
        <time>2022-10-29T08:53:53Z</time>
      </trkpt>
      <trkpt lat="44.37013" lon="3.8099">
        <ele>1326.2</ele>
        <time>2022-10-29T08:53:54Z</time>
      </trkpt>
      <trkpt lat="44.37013" lon="3.80985">
        <ele>1326.2</ele>
        <time>2022-10-29T08:53:55Z</time>
      </trkpt>
      <trkpt lat="44.37013" lon="3.8098">
        <ele>1326</ele>
        <time>2022-10-29T08:53:56Z</time>
      </trkpt>
      <trkpt lat="44.37013" lon="3.80976">
        <ele>1326</ele>
        <time>2022-10-29T08:53:57Z</time>
      </trkpt>
      <trkpt lat="44.37013" lon="3.80972">
        <ele>1326</ele>
        <time>2022-10-29T08:53:58Z</time>
      </trkpt>
      <trkpt lat="44.37013" lon="3.80969">
        <ele>1325.8</ele>
        <time>2022-10-29T08:53:59Z</time>
      </trkpt>
      <trkpt lat="44.37013" lon="3.80967">
        <ele>1325.8</ele>
        <time>2022-10-29T08:54:00Z</time>
      </trkpt>
      <trkpt lat="44.37014" lon="3.80964">
        <ele>1325.8</ele>
        <time>2022-10-29T08:54:01Z</time>
      </trkpt>
      <trkpt lat="44.37014" lon="3.80961">
        <ele>1325.8</ele>
        <time>2022-10-29T08:54:02Z</time>
      </trkpt>
      <trkpt lat="44.37015" lon="3.80958">
        <ele>1325.6</ele>
        <time>2022-10-29T08:54:03Z</time>
      </trkpt>
      <trkpt lat="44.37016" lon="3.80955">
        <ele>1325.6</ele>
        <time>2022-10-29T08:54:04Z</time>
      </trkpt>
      <trkpt lat="44.37017" lon="3.80952">
        <ele>1325.6</ele>
        <time>2022-10-29T08:54:05Z</time>
      </trkpt>
      <trkpt lat="44.37018" lon="3.80949">
        <ele>1325.6</ele>
        <time>2022-10-29T08:54:06Z</time>
      </trkpt>
      <trkpt lat="44.37018" lon="3.80946">
        <ele>1325.6</ele>
        <time>2022-10-29T08:54:07Z</time>
      </trkpt>
      <trkpt lat="44.37018" lon="3.80943">
        <ele>1325.8</ele>
        <time>2022-10-29T08:54:08Z</time>
      </trkpt>
      <trkpt lat="44.37017" lon="3.80941">
        <ele>1325.8</ele>
        <time>2022-10-29T08:54:09Z</time>
      </trkpt>
      <trkpt lat="44.37017" lon="3.80938">
        <ele>1325.8</ele>
        <time>2022-10-29T08:54:10Z</time>
      </trkpt>
      <trkpt lat="44.37017" lon="3.80934">
        <ele>1325.8</ele>
        <time>2022-10-29T08:54:11Z</time>
      </trkpt>
      <trkpt lat="44.37018" lon="3.80932">
        <ele>1325.6</ele>
        <time>2022-10-29T08:54:12Z</time>
      </trkpt>
      <trkpt lat="44.37018" lon="3.80929">
        <ele>1325.6</ele>
        <time>2022-10-29T08:54:13Z</time>
      </trkpt>
      <trkpt lat="44.37018" lon="3.80927">
        <ele>1325.6</ele>
        <time>2022-10-29T08:54:14Z</time>
      </trkpt>
      <trkpt lat="44.37019" lon="3.80924">
        <ele>1325.6</ele>
        <time>2022-10-29T08:54:15Z</time>
      </trkpt>
      <trkpt lat="44.3702" lon="3.80921">
        <ele>1325.6</ele>
        <time>2022-10-29T08:54:16Z</time>
      </trkpt>
      <trkpt lat="44.37022" lon="3.80919">
        <ele>1325.6</ele>
        <time>2022-10-29T08:54:17Z</time>
      </trkpt>
      <trkpt lat="44.37023" lon="3.80918">
        <ele>1325.8</ele>
        <time>2022-10-29T08:54:18Z</time>
      </trkpt>
      <trkpt lat="44.37024" lon="3.80917">
        <ele>1325.8</ele>
        <time>2022-10-29T08:54:19Z</time>
      </trkpt>
      <trkpt lat="44.37025" lon="3.80916">
        <ele>1325.8</ele>
        <time>2022-10-29T08:54:20Z</time>
      </trkpt>
      <trkpt lat="44.37026" lon="3.80915">
        <ele>1325.8</ele>
        <time>2022-10-29T08:54:21Z</time>
      </trkpt>
      <trkpt lat="44.37027" lon="3.80914">
        <ele>1325.8</ele>
        <time>2022-10-29T08:54:22Z</time>
      </trkpt>
      <trkpt lat="44.37027" lon="3.80914">
        <ele>1325.8</ele>
        <time>2022-10-29T08:54:23Z</time>
      </trkpt>
      <trkpt lat="44.37027" lon="3.80914">
        <ele>1325.6</ele>
        <time>2022-10-29T08:54:24Z</time>
      </trkpt>
      <trkpt lat="44.37028" lon="3.80914">
        <ele>1325.6</ele>
        <time>2022-10-29T08:54:25Z</time>
      </trkpt>
      <trkpt lat="44.37028" lon="3.80913">
        <ele>1325.6</ele>
        <time>2022-10-29T08:54:26Z</time>
      </trkpt>
      <trkpt lat="44.37029" lon="3.80913">
        <ele>1325.6</ele>
        <time>2022-10-29T08:54:27Z</time>
      </trkpt>
      <trkpt lat="44.3703" lon="3.80912">
        <ele>1325.4</ele>
        <time>2022-10-29T08:54:28Z</time>
      </trkpt>
      <trkpt lat="44.37031" lon="3.80912">
        <ele>1325.4</ele>
        <time>2022-10-29T08:54:29Z</time>
      </trkpt>
      <trkpt lat="44.37031" lon="3.80911">
        <ele>1325.4</ele>
        <time>2022-10-29T08:54:30Z</time>
      </trkpt>
      <trkpt lat="44.37031" lon="3.8091">
        <ele>1325.4</ele>
        <time>2022-10-29T08:54:31Z</time>
      </trkpt>
      <trkpt lat="44.37032" lon="3.80909">
        <ele>1325.6</ele>
        <time>2022-10-29T08:54:32Z</time>
      </trkpt>
      <trkpt lat="44.37032" lon="3.80908">
        <ele>1325.6</ele>
        <time>2022-10-29T08:54:33Z</time>
      </trkpt>
      <trkpt lat="44.37036" lon="3.80908">
        <ele>1325.8</ele>
        <time>2022-10-29T08:54:41Z</time>
      </trkpt>
      <trkpt lat="44.37037" lon="3.80907">
        <ele>1325.8</ele>
        <time>2022-10-29T08:54:42Z</time>
      </trkpt>
      <trkpt lat="44.37037" lon="3.80907">
        <ele>1325.8</ele>
        <time>2022-10-29T08:54:43Z</time>
      </trkpt>
      <trkpt lat="44.37038" lon="3.80908">
        <ele>1325.6</ele>
        <time>2022-10-29T08:54:44Z</time>
      </trkpt>
      <trkpt lat="44.37039" lon="3.80907">
        <ele>1325.6</ele>
        <time>2022-10-29T08:54:45Z</time>
      </trkpt>
      <trkpt lat="44.37041" lon="3.80905">
        <ele>1325.6</ele>
        <time>2022-10-29T08:54:46Z</time>
      </trkpt>
      <trkpt lat="44.37043" lon="3.80904">
        <ele>1325.6</ele>
        <time>2022-10-29T08:54:47Z</time>
      </trkpt>
      <trkpt lat="44.37046" lon="3.80902">
        <ele>1325.6</ele>
        <time>2022-10-29T08:54:48Z</time>
      </trkpt>
      <trkpt lat="44.37047" lon="3.809">
        <ele>1325.6</ele>
        <time>2022-10-29T08:54:49Z</time>
      </trkpt>
      <trkpt lat="44.37049" lon="3.80898">
        <ele>1325.8</ele>
        <time>2022-10-29T08:54:50Z</time>
      </trkpt>
      <trkpt lat="44.3705" lon="3.80896">
        <ele>1325.8</ele>
        <time>2022-10-29T08:54:51Z</time>
      </trkpt>
      <trkpt lat="44.37051" lon="3.80894">
        <ele>1325.8</ele>
        <time>2022-10-29T08:54:52Z</time>
      </trkpt>
      <trkpt lat="44.37053" lon="3.80892">
        <ele>1325.8</ele>
        <time>2022-10-29T08:54:53Z</time>
      </trkpt>
      <trkpt lat="44.37055" lon="3.80891">
        <ele>1325.8</ele>
        <time>2022-10-29T08:54:54Z</time>
      </trkpt>
      <trkpt lat="44.37055" lon="3.80891">
        <ele>1325.8</ele>
        <time>2022-10-29T08:54:55Z</time>
      </trkpt>
      <trkpt lat="44.37055" lon="3.80891">
        <ele>1325.8</ele>
        <time>2022-10-29T08:54:56Z</time>
      </trkpt>
      <trkpt lat="44.37055" lon="3.80891">
        <ele>1325.8</ele>
        <time>2022-10-29T08:54:57Z</time>
      </trkpt>
      <trkpt lat="44.37055" lon="3.80891">
        <ele>1325.8</ele>
        <time>2022-10-29T08:54:58Z</time>
      </trkpt>
      <trkpt lat="44.37055" lon="3.80891">
        <ele>1325.8</ele>
        <time>2022-10-29T08:54:59Z</time>
      </trkpt>
      <trkpt lat="44.37056" lon="3.80891">
        <ele>1325.8</ele>
        <time>2022-10-29T08:55:23Z</time>
      </trkpt>
      <trkpt lat="44.37057" lon="3.8089">
        <ele>1325.8</ele>
        <time>2022-10-29T08:55:24Z</time>
      </trkpt>
      <trkpt lat="44.37059" lon="3.80889">
        <ele>1325.8</ele>
        <time>2022-10-29T08:55:25Z</time>
      </trkpt>
      <trkpt lat="44.37061" lon="3.80887">
        <ele>1325.8</ele>
        <time>2022-10-29T08:55:26Z</time>
      </trkpt>
      <trkpt lat="44.37063" lon="3.80885">
        <ele>1325.8</ele>
        <time>2022-10-29T08:55:27Z</time>
      </trkpt>
      <trkpt lat="44.37064" lon="3.80884">
        <ele>1325.8</ele>
        <time>2022-10-29T08:55:28Z</time>
      </trkpt>
      <trkpt lat="44.37066" lon="3.80883">
        <ele>1325.8</ele>
        <time>2022-10-29T08:55:29Z</time>
      </trkpt>
      <trkpt lat="44.37068" lon="3.80881">
        <ele>1325.8</ele>
        <time>2022-10-29T08:55:30Z</time>
      </trkpt>
      <trkpt lat="44.3707" lon="3.80879">
        <ele>1326</ele>
        <time>2022-10-29T08:55:31Z</time>
      </trkpt>
      <trkpt lat="44.37071" lon="3.80876">
        <ele>1326</ele>
        <time>2022-10-29T08:55:32Z</time>
      </trkpt>
      <trkpt lat="44.37072" lon="3.80874">
        <ele>1326</ele>
        <time>2022-10-29T08:55:33Z</time>
      </trkpt>
      <trkpt lat="44.37074" lon="3.80872">
        <ele>1326</ele>
        <time>2022-10-29T08:55:34Z</time>
      </trkpt>
      <trkpt lat="44.37075" lon="3.8087">
        <ele>1326</ele>
        <time>2022-10-29T08:55:35Z</time>
      </trkpt>
      <trkpt lat="44.37077" lon="3.80868">
        <ele>1326</ele>
        <time>2022-10-29T08:55:36Z</time>
      </trkpt>
      <trkpt lat="44.3708" lon="3.80866">
        <ele>1326</ele>
        <time>2022-10-29T08:55:37Z</time>
      </trkpt>
      <trkpt lat="44.37081" lon="3.80865">
        <ele>1326</ele>
        <time>2022-10-29T08:55:38Z</time>
      </trkpt>
      <trkpt lat="44.37084" lon="3.80864">
        <ele>1326</ele>
        <time>2022-10-29T08:55:39Z</time>
      </trkpt>
      <trkpt lat="44.37086" lon="3.80861">
        <ele>1326.2</ele>
        <time>2022-10-29T08:55:40Z</time>
      </trkpt>
      <trkpt lat="44.37087" lon="3.80859">
        <ele>1326.2</ele>
        <time>2022-10-29T08:55:41Z</time>
      </trkpt>
      <trkpt lat="44.37088" lon="3.80856">
        <ele>1326.2</ele>
        <time>2022-10-29T08:55:42Z</time>
      </trkpt>
      <trkpt lat="44.37089" lon="3.80852">
        <ele>1326.2</ele>
        <time>2022-10-29T08:55:43Z</time>
      </trkpt>
      <trkpt lat="44.3709" lon="3.8085">
        <ele>1326.4</ele>
        <time>2022-10-29T08:55:44Z</time>
      </trkpt>
      <trkpt lat="44.37091" lon="3.80849">
        <ele>1326.4</ele>
        <time>2022-10-29T08:55:45Z</time>
      </trkpt>
      <trkpt lat="44.37092" lon="3.80847">
        <ele>1326.6</ele>
        <time>2022-10-29T08:55:46Z</time>
      </trkpt>
      <trkpt lat="44.37092" lon="3.80845">
        <ele>1326.8</ele>
        <time>2022-10-29T08:55:47Z</time>
      </trkpt>
      <trkpt lat="44.37093" lon="3.80843">
        <ele>1326.8</ele>
        <time>2022-10-29T08:55:48Z</time>
      </trkpt>
      <trkpt lat="44.37094" lon="3.80841">
        <ele>1327</ele>
        <time>2022-10-29T08:55:49Z</time>
      </trkpt>
      <trkpt lat="44.37095" lon="3.80839">
        <ele>1327</ele>
        <time>2022-10-29T08:55:50Z</time>
      </trkpt>
      <trkpt lat="44.37096" lon="3.80836">
        <ele>1327.2</ele>
        <time>2022-10-29T08:55:51Z</time>
      </trkpt>
      <trkpt lat="44.37098" lon="3.80834">
        <ele>1327.2</ele>
        <time>2022-10-29T08:55:52Z</time>
      </trkpt>
      <trkpt lat="44.37099" lon="3.80831">
        <ele>1327.2</ele>
        <time>2022-10-29T08:55:53Z</time>
      </trkpt>
      <trkpt lat="44.371" lon="3.80829">
        <ele>1327.2</ele>
        <time>2022-10-29T08:55:54Z</time>
      </trkpt>
      <trkpt lat="44.371" lon="3.80826">
        <ele>1327.2</ele>
        <time>2022-10-29T08:55:55Z</time>
      </trkpt>
      <trkpt lat="44.371" lon="3.80823">
        <ele>1327.4</ele>
        <time>2022-10-29T08:55:56Z</time>
      </trkpt>
      <trkpt lat="44.37101" lon="3.8082">
        <ele>1327.4</ele>
        <time>2022-10-29T08:55:57Z</time>
      </trkpt>
      <trkpt lat="44.37102" lon="3.80818">
        <ele>1327.4</ele>
        <time>2022-10-29T08:55:58Z</time>
      </trkpt>
      <trkpt lat="44.37104" lon="3.80815">
        <ele>1327.4</ele>
        <time>2022-10-29T08:55:59Z</time>
      </trkpt>
      <trkpt lat="44.37106" lon="3.80814">
        <ele>1327.4</ele>
        <time>2022-10-29T08:56:00Z</time>
      </trkpt>
      <trkpt lat="44.37109" lon="3.80811">
        <ele>1327.4</ele>
        <time>2022-10-29T08:56:01Z</time>
      </trkpt>
      <trkpt lat="44.37111" lon="3.80808">
        <ele>1327.2</ele>
        <time>2022-10-29T08:56:02Z</time>
      </trkpt>
      <trkpt lat="44.37113" lon="3.80806">
        <ele>1327.2</ele>
        <time>2022-10-29T08:56:03Z</time>
      </trkpt>
      <trkpt lat="44.37115" lon="3.80804">
        <ele>1327.2</ele>
        <time>2022-10-29T08:56:04Z</time>
      </trkpt>
      <trkpt lat="44.37117" lon="3.80801">
        <ele>1327</ele>
        <time>2022-10-29T08:56:05Z</time>
      </trkpt>
      <trkpt lat="44.37118" lon="3.80798">
        <ele>1327</ele>
        <time>2022-10-29T08:56:06Z</time>
      </trkpt>
      <trkpt lat="44.3712" lon="3.80795">
        <ele>1327</ele>
        <time>2022-10-29T08:56:07Z</time>
      </trkpt>
      <trkpt lat="44.37121" lon="3.80791">
        <ele>1327</ele>
        <time>2022-10-29T08:56:08Z</time>
      </trkpt>
      <trkpt lat="44.37121" lon="3.80788">
        <ele>1326.8</ele>
        <time>2022-10-29T08:56:09Z</time>
      </trkpt>
      <trkpt lat="44.37122" lon="3.80784">
        <ele>1326.8</ele>
        <time>2022-10-29T08:56:10Z</time>
      </trkpt>
      <trkpt lat="44.37122" lon="3.80781">
        <ele>1326.8</ele>
        <time>2022-10-29T08:56:11Z</time>
      </trkpt>
      <trkpt lat="44.37122" lon="3.80778">
        <ele>1326.8</ele>
        <time>2022-10-29T08:56:12Z</time>
      </trkpt>
      <trkpt lat="44.37122" lon="3.80775">
        <ele>1326.8</ele>
        <time>2022-10-29T08:56:13Z</time>
      </trkpt>
      <trkpt lat="44.37122" lon="3.80771">
        <ele>1326.6</ele>
        <time>2022-10-29T08:56:14Z</time>
      </trkpt>
      <trkpt lat="44.37122" lon="3.80768">
        <ele>1326.4</ele>
        <time>2022-10-29T08:56:15Z</time>
      </trkpt>
      <trkpt lat="44.37123" lon="3.80765">
        <ele>1326.4</ele>
        <time>2022-10-29T08:56:16Z</time>
      </trkpt>
      <trkpt lat="44.37125" lon="3.80762">
        <ele>1326.2</ele>
        <time>2022-10-29T08:56:17Z</time>
      </trkpt>
      <trkpt lat="44.37126" lon="3.80759">
        <ele>1326</ele>
        <time>2022-10-29T08:56:18Z</time>
      </trkpt>
      <trkpt lat="44.37128" lon="3.80756">
        <ele>1326</ele>
        <time>2022-10-29T08:56:19Z</time>
      </trkpt>
      <trkpt lat="44.37129" lon="3.80753">
        <ele>1325.8</ele>
        <time>2022-10-29T08:56:20Z</time>
      </trkpt>
      <trkpt lat="44.3713" lon="3.80753">
        <ele>1325.8</ele>
        <time>2022-10-29T08:56:21Z</time>
      </trkpt>
      <trkpt lat="44.3713" lon="3.80751">
        <ele>1325.6</ele>
        <time>2022-10-29T08:56:53Z</time>
      </trkpt>
      <trkpt lat="44.37131" lon="3.80749">
        <ele>1325.6</ele>
        <time>2022-10-29T08:56:54Z</time>
      </trkpt>
      <trkpt lat="44.37133" lon="3.80745">
        <ele>1325.6</ele>
        <time>2022-10-29T08:56:55Z</time>
      </trkpt>
      <trkpt lat="44.37135" lon="3.8074">
        <ele>1325.6</ele>
        <time>2022-10-29T08:56:56Z</time>
      </trkpt>
      <trkpt lat="44.37136" lon="3.80736">
        <ele>1325.6</ele>
        <time>2022-10-29T08:56:57Z</time>
      </trkpt>
      <trkpt lat="44.37137" lon="3.80733">
        <ele>1325.8</ele>
        <time>2022-10-29T08:56:58Z</time>
      </trkpt>
      <trkpt lat="44.37139" lon="3.8073">
        <ele>1326</ele>
        <time>2022-10-29T08:56:59Z</time>
      </trkpt>
      <trkpt lat="44.3714" lon="3.80727">
        <ele>1326</ele>
        <time>2022-10-29T08:57:00Z</time>
      </trkpt>
      <trkpt lat="44.37142" lon="3.80724">
        <ele>1326.2</ele>
        <time>2022-10-29T08:57:01Z</time>
      </trkpt>
      <trkpt lat="44.37144" lon="3.80722">
        <ele>1326.4</ele>
        <time>2022-10-29T08:57:02Z</time>
      </trkpt>
      <trkpt lat="44.37145" lon="3.80719">
        <ele>1326.4</ele>
        <time>2022-10-29T08:57:03Z</time>
      </trkpt>
      <trkpt lat="44.37146" lon="3.80717">
        <ele>1326.6</ele>
        <time>2022-10-29T08:57:04Z</time>
      </trkpt>
      <trkpt lat="44.37149" lon="3.80715">
        <ele>1326.8</ele>
        <time>2022-10-29T08:57:05Z</time>
      </trkpt>
      <trkpt lat="44.37151" lon="3.80713">
        <ele>1326.8</ele>
        <time>2022-10-29T08:57:06Z</time>
      </trkpt>
      <trkpt lat="44.37153" lon="3.80711">
        <ele>1327</ele>
        <time>2022-10-29T08:57:07Z</time>
      </trkpt>
      <trkpt lat="44.37155" lon="3.80709">
        <ele>1327</ele>
        <time>2022-10-29T08:57:08Z</time>
      </trkpt>
      <trkpt lat="44.37158" lon="3.80707">
        <ele>1327</ele>
        <time>2022-10-29T08:57:09Z</time>
      </trkpt>
      <trkpt lat="44.3716" lon="3.80705">
        <ele>1327</ele>
        <time>2022-10-29T08:57:10Z</time>
      </trkpt>
      <trkpt lat="44.37163" lon="3.80703">
        <ele>1327</ele>
        <time>2022-10-29T08:57:11Z</time>
      </trkpt>
      <trkpt lat="44.37165" lon="3.80701">
        <ele>1327</ele>
        <time>2022-10-29T08:57:12Z</time>
      </trkpt>
      <trkpt lat="44.37167" lon="3.80698">
        <ele>1327</ele>
        <time>2022-10-29T08:57:13Z</time>
      </trkpt>
      <trkpt lat="44.3717" lon="3.80695">
        <ele>1327</ele>
        <time>2022-10-29T08:57:14Z</time>
      </trkpt>
      <trkpt lat="44.37172" lon="3.80692">
        <ele>1327</ele>
        <time>2022-10-29T08:57:15Z</time>
      </trkpt>
      <trkpt lat="44.37174" lon="3.80689">
        <ele>1327</ele>
        <time>2022-10-29T08:57:16Z</time>
      </trkpt>
      <trkpt lat="44.37176" lon="3.80686">
        <ele>1327</ele>
        <time>2022-10-29T08:57:17Z</time>
      </trkpt>
      <trkpt lat="44.37177" lon="3.80683">
        <ele>1327</ele>
        <time>2022-10-29T08:57:18Z</time>
      </trkpt>
      <trkpt lat="44.37179" lon="3.80681">
        <ele>1327</ele>
        <time>2022-10-29T08:57:19Z</time>
      </trkpt>
      <trkpt lat="44.37181" lon="3.80678">
        <ele>1327</ele>
        <time>2022-10-29T08:57:20Z</time>
      </trkpt>
      <trkpt lat="44.37182" lon="3.80675">
        <ele>1327</ele>
        <time>2022-10-29T08:57:21Z</time>
      </trkpt>
      <trkpt lat="44.37184" lon="3.80673">
        <ele>1327.2</ele>
        <time>2022-10-29T08:57:22Z</time>
      </trkpt>
      <trkpt lat="44.37185" lon="3.8067">
        <ele>1327.2</ele>
        <time>2022-10-29T08:57:23Z</time>
      </trkpt>
      <trkpt lat="44.37186" lon="3.80667">
        <ele>1327.2</ele>
        <time>2022-10-29T08:57:24Z</time>
      </trkpt>
      <trkpt lat="44.37187" lon="3.80664">
        <ele>1327.2</ele>
        <time>2022-10-29T08:57:25Z</time>
      </trkpt>
      <trkpt lat="44.37188" lon="3.80661">
        <ele>1327.2</ele>
        <time>2022-10-29T08:57:26Z</time>
      </trkpt>
      <trkpt lat="44.37189" lon="3.80658">
        <ele>1327.2</ele>
        <time>2022-10-29T08:57:27Z</time>
      </trkpt>
      <trkpt lat="44.3719" lon="3.80656">
        <ele>1327.2</ele>
        <time>2022-10-29T08:57:28Z</time>
      </trkpt>
      <trkpt lat="44.37191" lon="3.80654">
        <ele>1327.2</ele>
        <time>2022-10-29T08:57:29Z</time>
      </trkpt>
      <trkpt lat="44.37191" lon="3.80652">
        <ele>1327.2</ele>
        <time>2022-10-29T08:57:30Z</time>
      </trkpt>
      <trkpt lat="44.37192" lon="3.80649">
        <ele>1327.2</ele>
        <time>2022-10-29T08:57:31Z</time>
      </trkpt>
      <trkpt lat="44.37192" lon="3.80646">
        <ele>1327.2</ele>
        <time>2022-10-29T08:57:32Z</time>
      </trkpt>
      <trkpt lat="44.37192" lon="3.80643">
        <ele>1327.2</ele>
        <time>2022-10-29T08:57:33Z</time>
      </trkpt>
      <trkpt lat="44.37193" lon="3.8064">
        <ele>1327.2</ele>
        <time>2022-10-29T08:57:34Z</time>
      </trkpt>
      <trkpt lat="44.37193" lon="3.80638">
        <ele>1327.2</ele>
        <time>2022-10-29T08:57:35Z</time>
      </trkpt>
      <trkpt lat="44.37194" lon="3.80636">
        <ele>1327.2</ele>
        <time>2022-10-29T08:57:36Z</time>
      </trkpt>
      <trkpt lat="44.37194" lon="3.80634">
        <ele>1327.4</ele>
        <time>2022-10-29T08:57:37Z</time>
      </trkpt>
      <trkpt lat="44.37195" lon="3.80632">
        <ele>1327.4</ele>
        <time>2022-10-29T08:57:38Z</time>
      </trkpt>
      <trkpt lat="44.37195" lon="3.80631">
        <ele>1327.4</ele>
        <time>2022-10-29T08:57:39Z</time>
      </trkpt>
      <trkpt lat="44.37196" lon="3.8063">
        <ele>1327.4</ele>
        <time>2022-10-29T08:57:40Z</time>
      </trkpt>
      <trkpt lat="44.37197" lon="3.80629">
        <ele>1327.4</ele>
        <time>2022-10-29T08:57:41Z</time>
      </trkpt>
      <trkpt lat="44.37199" lon="3.80627">
        <ele>1327.4</ele>
        <time>2022-10-29T08:57:42Z</time>
      </trkpt>
      <trkpt lat="44.372" lon="3.80625">
        <ele>1327.2</ele>
        <time>2022-10-29T08:57:43Z</time>
      </trkpt>
      <trkpt lat="44.37202" lon="3.80623">
        <ele>1327.2</ele>
        <time>2022-10-29T08:57:44Z</time>
      </trkpt>
      <trkpt lat="44.37204" lon="3.80621">
        <ele>1327</ele>
        <time>2022-10-29T08:57:45Z</time>
      </trkpt>
      <trkpt lat="44.37206" lon="3.8062">
        <ele>1327</ele>
        <time>2022-10-29T08:57:46Z</time>
      </trkpt>
      <trkpt lat="44.37208" lon="3.80619">
        <ele>1327</ele>
        <time>2022-10-29T08:57:47Z</time>
      </trkpt>
      <trkpt lat="44.37209" lon="3.80619">
        <ele>1326.8</ele>
        <time>2022-10-29T08:57:48Z</time>
      </trkpt>
      <trkpt lat="44.37209" lon="3.80619">
        <ele>1326.8</ele>
        <time>2022-10-29T08:57:49Z</time>
      </trkpt>
      <trkpt lat="44.37207" lon="3.8062">
        <ele>1326.6</ele>
        <time>2022-10-29T08:57:57Z</time>
      </trkpt>
      <trkpt lat="44.37206" lon="3.8062">
        <ele>1326.6</ele>
        <time>2022-10-29T08:57:58Z</time>
      </trkpt>
      <trkpt lat="44.37205" lon="3.8062">
        <ele>1326.6</ele>
        <time>2022-10-29T08:57:59Z</time>
      </trkpt>
      <trkpt lat="44.37203" lon="3.80621">
        <ele>1326.6</ele>
        <time>2022-10-29T08:58:00Z</time>
      </trkpt>
      <trkpt lat="44.37203" lon="3.80623">
        <ele>1326.8</ele>
        <time>2022-10-29T08:58:01Z</time>
      </trkpt>
      <trkpt lat="44.37202" lon="3.80624">
        <ele>1326.8</ele>
        <time>2022-10-29T08:58:02Z</time>
      </trkpt>
      <trkpt lat="44.372" lon="3.80625">
        <ele>1327</ele>
        <time>2022-10-29T08:58:03Z</time>
      </trkpt>
      <trkpt lat="44.37199" lon="3.80626">
        <ele>1327.2</ele>
        <time>2022-10-29T08:58:04Z</time>
      </trkpt>
      <trkpt lat="44.37197" lon="3.80626">
        <ele>1327.2</ele>
        <time>2022-10-29T08:58:05Z</time>
      </trkpt>
      <trkpt lat="44.37196" lon="3.80625">
        <ele>1327.4</ele>
        <time>2022-10-29T08:58:06Z</time>
      </trkpt>
      <trkpt lat="44.37196" lon="3.80623">
        <ele>1327.4</ele>
        <time>2022-10-29T08:58:07Z</time>
      </trkpt>
      <trkpt lat="44.37196" lon="3.80621">
        <ele>1327.6</ele>
        <time>2022-10-29T08:58:08Z</time>
      </trkpt>
      <trkpt lat="44.37196" lon="3.8062">
        <ele>1327.6</ele>
        <time>2022-10-29T08:58:09Z</time>
      </trkpt>
      <trkpt lat="44.37197" lon="3.80617">
        <ele>1327.6</ele>
        <time>2022-10-29T08:58:10Z</time>
      </trkpt>
      <trkpt lat="44.37197" lon="3.80614">
        <ele>1327.6</ele>
        <time>2022-10-29T08:58:11Z</time>
      </trkpt>
      <trkpt lat="44.37198" lon="3.80612">
        <ele>1327.6</ele>
        <time>2022-10-29T08:58:12Z</time>
      </trkpt>
      <trkpt lat="44.37198" lon="3.80609">
        <ele>1327.6</ele>
        <time>2022-10-29T08:58:13Z</time>
      </trkpt>
      <trkpt lat="44.37199" lon="3.80607">
        <ele>1327.6</ele>
        <time>2022-10-29T08:58:14Z</time>
      </trkpt>
      <trkpt lat="44.372" lon="3.80604">
        <ele>1327.4</ele>
        <time>2022-10-29T08:58:15Z</time>
      </trkpt>
      <trkpt lat="44.37201" lon="3.80602">
        <ele>1327.4</ele>
        <time>2022-10-29T08:58:16Z</time>
      </trkpt>
      <trkpt lat="44.37202" lon="3.80601">
        <ele>1327.2</ele>
        <time>2022-10-29T08:58:17Z</time>
      </trkpt>
      <trkpt lat="44.37203" lon="3.80599">
        <ele>1327</ele>
        <time>2022-10-29T08:58:18Z</time>
      </trkpt>
      <trkpt lat="44.37204" lon="3.80598">
        <ele>1326.8</ele>
        <time>2022-10-29T08:58:19Z</time>
      </trkpt>
      <trkpt lat="44.37205" lon="3.80596">
        <ele>1326.6</ele>
        <time>2022-10-29T08:58:20Z</time>
      </trkpt>
      <trkpt lat="44.37206" lon="3.80595">
        <ele>1326.2</ele>
        <time>2022-10-29T08:58:21Z</time>
      </trkpt>
      <trkpt lat="44.37208" lon="3.80593">
        <ele>1326</ele>
        <time>2022-10-29T08:58:22Z</time>
      </trkpt>
      <trkpt lat="44.3721" lon="3.80591">
        <ele>1325.6</ele>
        <time>2022-10-29T08:58:23Z</time>
      </trkpt>
      <trkpt lat="44.37211" lon="3.80589">
        <ele>1325.2</ele>
        <time>2022-10-29T08:58:24Z</time>
      </trkpt>
      <trkpt lat="44.37212" lon="3.80584">
        <ele>1325</ele>
        <time>2022-10-29T08:58:25Z</time>
      </trkpt>
      <trkpt lat="44.37212" lon="3.8058">
        <ele>1324.6</ele>
        <time>2022-10-29T08:58:26Z</time>
      </trkpt>
      <trkpt lat="44.37212" lon="3.80576">
        <ele>1324.4</ele>
        <time>2022-10-29T08:58:27Z</time>
      </trkpt>
      <trkpt lat="44.37211" lon="3.80571">
        <ele>1324.4</ele>
        <time>2022-10-29T08:58:28Z</time>
      </trkpt>
      <trkpt lat="44.3721" lon="3.80567">
        <ele>1324.2</ele>
        <time>2022-10-29T08:58:29Z</time>
      </trkpt>
      <trkpt lat="44.3721" lon="3.80563">
        <ele>1324</ele>
        <time>2022-10-29T08:58:30Z</time>
      </trkpt>
      <trkpt lat="44.37209" lon="3.80558">
        <ele>1324</ele>
        <time>2022-10-29T08:58:31Z</time>
      </trkpt>
      <trkpt lat="44.37208" lon="3.80554">
        <ele>1323.8</ele>
        <time>2022-10-29T08:58:32Z</time>
      </trkpt>
      <trkpt lat="44.37208" lon="3.80551">
        <ele>1323.8</ele>
        <time>2022-10-29T08:58:33Z</time>
      </trkpt>
      <trkpt lat="44.37207" lon="3.80547">
        <ele>1323.8</ele>
        <time>2022-10-29T08:58:34Z</time>
      </trkpt>
      <trkpt lat="44.37206" lon="3.80544">
        <ele>1323.8</ele>
        <time>2022-10-29T08:58:35Z</time>
      </trkpt>
      <trkpt lat="44.37205" lon="3.80541">
        <ele>1323.8</ele>
        <time>2022-10-29T08:58:36Z</time>
      </trkpt>
      <trkpt lat="44.37205" lon="3.80538">
        <ele>1323.6</ele>
        <time>2022-10-29T08:58:37Z</time>
      </trkpt>
      <trkpt lat="44.37205" lon="3.80534">
        <ele>1323.6</ele>
        <time>2022-10-29T08:58:38Z</time>
      </trkpt>
      <trkpt lat="44.37204" lon="3.80531">
        <ele>1323.6</ele>
        <time>2022-10-29T08:58:39Z</time>
      </trkpt>
      <trkpt lat="44.37203" lon="3.80527">
        <ele>1323.6</ele>
        <time>2022-10-29T08:58:40Z</time>
      </trkpt>
      <trkpt lat="44.37202" lon="3.80523">
        <ele>1323.6</ele>
        <time>2022-10-29T08:58:41Z</time>
      </trkpt>
      <trkpt lat="44.37201" lon="3.80519">
        <ele>1323.4</ele>
        <time>2022-10-29T08:58:42Z</time>
      </trkpt>
      <trkpt lat="44.372" lon="3.80515">
        <ele>1323.4</ele>
        <time>2022-10-29T08:58:43Z</time>
      </trkpt>
      <trkpt lat="44.37199" lon="3.80511">
        <ele>1323.4</ele>
        <time>2022-10-29T08:58:44Z</time>
      </trkpt>
      <trkpt lat="44.37199" lon="3.80507">
        <ele>1323.4</ele>
        <time>2022-10-29T08:58:45Z</time>
      </trkpt>
      <trkpt lat="44.37198" lon="3.80503">
        <ele>1323.4</ele>
        <time>2022-10-29T08:58:46Z</time>
      </trkpt>
      <trkpt lat="44.37198" lon="3.80499">
        <ele>1323.4</ele>
        <time>2022-10-29T08:58:47Z</time>
      </trkpt>
      <trkpt lat="44.37197" lon="3.80495">
        <ele>1323.2</ele>
        <time>2022-10-29T08:58:48Z</time>
      </trkpt>
      <trkpt lat="44.37197" lon="3.80491">
        <ele>1323.2</ele>
        <time>2022-10-29T08:58:49Z</time>
      </trkpt>
      <trkpt lat="44.37196" lon="3.80486">
        <ele>1323.2</ele>
        <time>2022-10-29T08:58:50Z</time>
      </trkpt>
      <trkpt lat="44.37195" lon="3.80482">
        <ele>1323</ele>
        <time>2022-10-29T08:58:51Z</time>
      </trkpt>
      <trkpt lat="44.37194" lon="3.80478">
        <ele>1323</ele>
        <time>2022-10-29T08:58:52Z</time>
      </trkpt>
      <trkpt lat="44.37192" lon="3.80474">
        <ele>1322.8</ele>
        <time>2022-10-29T08:58:53Z</time>
      </trkpt>
      <trkpt lat="44.37192" lon="3.8047">
        <ele>1322.8</ele>
        <time>2022-10-29T08:58:54Z</time>
      </trkpt>
      <trkpt lat="44.37191" lon="3.80466">
        <ele>1322.6</ele>
        <time>2022-10-29T08:58:55Z</time>
      </trkpt>
      <trkpt lat="44.37191" lon="3.80462">
        <ele>1322.4</ele>
        <time>2022-10-29T08:58:56Z</time>
      </trkpt>
      <trkpt lat="44.37191" lon="3.80458">
        <ele>1322.4</ele>
        <time>2022-10-29T08:58:57Z</time>
      </trkpt>
      <trkpt lat="44.37192" lon="3.80454">
        <ele>1322.2</ele>
        <time>2022-10-29T08:58:58Z</time>
      </trkpt>
      <trkpt lat="44.37192" lon="3.80451">
        <ele>1322</ele>
        <time>2022-10-29T08:58:59Z</time>
      </trkpt>
      <trkpt lat="44.37191" lon="3.80448">
        <ele>1322</ele>
        <time>2022-10-29T08:59:00Z</time>
      </trkpt>
      <trkpt lat="44.37191" lon="3.80445">
        <ele>1321.8</ele>
        <time>2022-10-29T08:59:01Z</time>
      </trkpt>
      <trkpt lat="44.37191" lon="3.80442">
        <ele>1321.6</ele>
        <time>2022-10-29T08:59:02Z</time>
      </trkpt>
      <trkpt lat="44.3719" lon="3.80439">
        <ele>1321.6</ele>
        <time>2022-10-29T08:59:03Z</time>
      </trkpt>
      <trkpt lat="44.37189" lon="3.80435">
        <ele>1321.4</ele>
        <time>2022-10-29T08:59:04Z</time>
      </trkpt>
      <trkpt lat="44.37188" lon="3.80431">
        <ele>1321.4</ele>
        <time>2022-10-29T08:59:05Z</time>
      </trkpt>
      <trkpt lat="44.37187" lon="3.80426">
        <ele>1321.2</ele>
        <time>2022-10-29T08:59:06Z</time>
      </trkpt>
      <trkpt lat="44.37185" lon="3.80422">
        <ele>1321.2</ele>
        <time>2022-10-29T08:59:07Z</time>
      </trkpt>
      <trkpt lat="44.37184" lon="3.80418">
        <ele>1321</ele>
        <time>2022-10-29T08:59:08Z</time>
      </trkpt>
      <trkpt lat="44.37182" lon="3.80414">
        <ele>1321</ele>
        <time>2022-10-29T08:59:09Z</time>
      </trkpt>
      <trkpt lat="44.37181" lon="3.8041">
        <ele>1320.8</ele>
        <time>2022-10-29T08:59:10Z</time>
      </trkpt>
      <trkpt lat="44.37181" lon="3.80405">
        <ele>1320.8</ele>
        <time>2022-10-29T08:59:11Z</time>
      </trkpt>
      <trkpt lat="44.37179" lon="3.80402">
        <ele>1320.6</ele>
        <time>2022-10-29T08:59:12Z</time>
      </trkpt>
      <trkpt lat="44.37177" lon="3.80398">
        <ele>1320.6</ele>
        <time>2022-10-29T08:59:13Z</time>
      </trkpt>
      <trkpt lat="44.37176" lon="3.80394">
        <ele>1320.4</ele>
        <time>2022-10-29T08:59:14Z</time>
      </trkpt>
      <trkpt lat="44.37174" lon="3.80391">
        <ele>1320.4</ele>
        <time>2022-10-29T08:59:15Z</time>
      </trkpt>
      <trkpt lat="44.37173" lon="3.80388">
        <ele>1320.4</ele>
        <time>2022-10-29T08:59:16Z</time>
      </trkpt>
      <trkpt lat="44.37172" lon="3.80386">
        <ele>1320.4</ele>
        <time>2022-10-29T08:59:17Z</time>
      </trkpt>
      <trkpt lat="44.37171" lon="3.80384">
        <ele>1320.2</ele>
        <time>2022-10-29T08:59:18Z</time>
      </trkpt>
      <trkpt lat="44.3717" lon="3.80383">
        <ele>1320.2</ele>
        <time>2022-10-29T08:59:19Z</time>
      </trkpt>
      <trkpt lat="44.37169" lon="3.80381">
        <ele>1320.2</ele>
        <time>2022-10-29T08:59:20Z</time>
      </trkpt>
      <trkpt lat="44.37168" lon="3.8038">
        <ele>1320.2</ele>
        <time>2022-10-29T08:59:21Z</time>
      </trkpt>
      <trkpt lat="44.37167" lon="3.80379">
        <ele>1320.2</ele>
        <time>2022-10-29T08:59:22Z</time>
      </trkpt>
      <trkpt lat="44.37167" lon="3.80379">
        <ele>1320</ele>
        <time>2022-10-29T08:59:23Z</time>
      </trkpt>
      <trkpt lat="44.37167" lon="3.80378">
        <ele>1320.2</ele>
        <time>2022-10-29T08:59:46Z</time>
      </trkpt>
      <trkpt lat="44.37166" lon="3.80376">
        <ele>1320</ele>
        <time>2022-10-29T08:59:47Z</time>
      </trkpt>
      <trkpt lat="44.37165" lon="3.80375">
        <ele>1320</ele>
        <time>2022-10-29T08:59:48Z</time>
      </trkpt>
      <trkpt lat="44.37163" lon="3.80374">
        <ele>1320</ele>
        <time>2022-10-29T08:59:49Z</time>
      </trkpt>
      <trkpt lat="44.37163" lon="3.80375">
        <ele>1320</ele>
        <time>2022-10-29T08:59:50Z</time>
      </trkpt>
      <trkpt lat="44.37163" lon="3.80375">
        <ele>1320</ele>
        <time>2022-10-29T08:59:51Z</time>
      </trkpt>
      <trkpt lat="44.37163" lon="3.80375">
        <ele>1320</ele>
        <time>2022-10-29T08:59:52Z</time>
      </trkpt>
      <trkpt lat="44.37163" lon="3.80375">
        <ele>1320</ele>
        <time>2022-10-29T08:59:53Z</time>
      </trkpt>
      <trkpt lat="44.37163" lon="3.80375">
        <ele>1320</ele>
        <time>2022-10-29T08:59:54Z</time>
      </trkpt>
      <trkpt lat="44.37162" lon="3.80372">
        <ele>1320</ele>
        <time>2022-10-29T09:00:17Z</time>
      </trkpt>
      <trkpt lat="44.37161" lon="3.80369">
        <ele>1320</ele>
        <time>2022-10-29T09:00:18Z</time>
      </trkpt>
      <trkpt lat="44.3716" lon="3.80365">
        <ele>1320.2</ele>
        <time>2022-10-29T09:00:19Z</time>
      </trkpt>
      <trkpt lat="44.37158" lon="3.80361">
        <ele>1320.2</ele>
        <time>2022-10-29T09:00:20Z</time>
      </trkpt>
      <trkpt lat="44.37156" lon="3.80357">
        <ele>1320.2</ele>
        <time>2022-10-29T09:00:21Z</time>
      </trkpt>
      <trkpt lat="44.37154" lon="3.80354">
        <ele>1320.2</ele>
        <time>2022-10-29T09:00:22Z</time>
      </trkpt>
      <trkpt lat="44.37153" lon="3.8035">
        <ele>1320.2</ele>
        <time>2022-10-29T09:00:23Z</time>
      </trkpt>
      <trkpt lat="44.37151" lon="3.80346">
        <ele>1320.2</ele>
        <time>2022-10-29T09:00:24Z</time>
      </trkpt>
      <trkpt lat="44.3715" lon="3.80343">
        <ele>1320.2</ele>
        <time>2022-10-29T09:00:25Z</time>
      </trkpt>
      <trkpt lat="44.37149" lon="3.80339">
        <ele>1320.2</ele>
        <time>2022-10-29T09:00:26Z</time>
      </trkpt>
      <trkpt lat="44.37148" lon="3.80335">
        <ele>1320.2</ele>
        <time>2022-10-29T09:00:27Z</time>
      </trkpt>
      <trkpt lat="44.37147" lon="3.8033">
        <ele>1320.2</ele>
        <time>2022-10-29T09:00:28Z</time>
      </trkpt>
      <trkpt lat="44.37146" lon="3.80326">
        <ele>1320.2</ele>
        <time>2022-10-29T09:00:29Z</time>
      </trkpt>
      <trkpt lat="44.37146" lon="3.80322">
        <ele>1320.2</ele>
        <time>2022-10-29T09:00:30Z</time>
      </trkpt>
      <trkpt lat="44.37145" lon="3.80317">
        <ele>1320.2</ele>
        <time>2022-10-29T09:00:31Z</time>
      </trkpt>
      <trkpt lat="44.37143" lon="3.80313">
        <ele>1320.2</ele>
        <time>2022-10-29T09:00:32Z</time>
      </trkpt>
      <trkpt lat="44.37142" lon="3.80308">
        <ele>1320</ele>
        <time>2022-10-29T09:00:33Z</time>
      </trkpt>
      <trkpt lat="44.3714" lon="3.80303">
        <ele>1320</ele>
        <time>2022-10-29T09:00:34Z</time>
      </trkpt>
      <trkpt lat="44.37139" lon="3.80297">
        <ele>1319.8</ele>
        <time>2022-10-29T09:00:35Z</time>
      </trkpt>
      <trkpt lat="44.37137" lon="3.80292">
        <ele>1319.8</ele>
        <time>2022-10-29T09:00:36Z</time>
      </trkpt>
      <trkpt lat="44.37135" lon="3.80286">
        <ele>1319.6</ele>
        <time>2022-10-29T09:00:37Z</time>
      </trkpt>
      <trkpt lat="44.37132" lon="3.8028">
        <ele>1319.4</ele>
        <time>2022-10-29T09:00:38Z</time>
      </trkpt>
      <trkpt lat="44.3713" lon="3.80274">
        <ele>1319.2</ele>
        <time>2022-10-29T09:00:39Z</time>
      </trkpt>
      <trkpt lat="44.37127" lon="3.80267">
        <ele>1319</ele>
        <time>2022-10-29T09:00:40Z</time>
      </trkpt>
      <trkpt lat="44.37125" lon="3.80261">
        <ele>1318.8</ele>
        <time>2022-10-29T09:00:41Z</time>
      </trkpt>
      <trkpt lat="44.37122" lon="3.80255">
        <ele>1318.6</ele>
        <time>2022-10-29T09:00:42Z</time>
      </trkpt>
      <trkpt lat="44.37119" lon="3.80249">
        <ele>1318.4</ele>
        <time>2022-10-29T09:00:43Z</time>
      </trkpt>
      <trkpt lat="44.37116" lon="3.80243">
        <ele>1318.2</ele>
        <time>2022-10-29T09:00:44Z</time>
      </trkpt>
      <trkpt lat="44.37113" lon="3.80239">
        <ele>1318</ele>
        <time>2022-10-29T09:00:45Z</time>
      </trkpt>
      <trkpt lat="44.3711" lon="3.80234">
        <ele>1317.8</ele>
        <time>2022-10-29T09:00:46Z</time>
      </trkpt>
      <trkpt lat="44.37108" lon="3.80229">
        <ele>1317.6</ele>
        <time>2022-10-29T09:00:47Z</time>
      </trkpt>
      <trkpt lat="44.37104" lon="3.80224">
        <ele>1317.6</ele>
        <time>2022-10-29T09:00:48Z</time>
      </trkpt>
      <trkpt lat="44.37101" lon="3.80219">
        <ele>1317.4</ele>
        <time>2022-10-29T09:00:49Z</time>
      </trkpt>
      <trkpt lat="44.37098" lon="3.80214">
        <ele>1317.2</ele>
        <time>2022-10-29T09:00:50Z</time>
      </trkpt>
      <trkpt lat="44.37094" lon="3.80211">
        <ele>1317</ele>
        <time>2022-10-29T09:00:51Z</time>
      </trkpt>
      <trkpt lat="44.37091" lon="3.80207">
        <ele>1317</ele>
        <time>2022-10-29T09:00:52Z</time>
      </trkpt>
      <trkpt lat="44.37087" lon="3.80203">
        <ele>1316.8</ele>
        <time>2022-10-29T09:00:53Z</time>
      </trkpt>
      <trkpt lat="44.37083" lon="3.80198">
        <ele>1316.8</ele>
        <time>2022-10-29T09:00:54Z</time>
      </trkpt>
      <trkpt lat="44.37081" lon="3.80193">
        <ele>1316.6</ele>
        <time>2022-10-29T09:00:55Z</time>
      </trkpt>
      <trkpt lat="44.37078" lon="3.80188">
        <ele>1316.6</ele>
        <time>2022-10-29T09:00:56Z</time>
      </trkpt>
      <trkpt lat="44.37074" lon="3.80184">
        <ele>1316.6</ele>
        <time>2022-10-29T09:00:57Z</time>
      </trkpt>
      <trkpt lat="44.37071" lon="3.8018">
        <ele>1316.4</ele>
        <time>2022-10-29T09:00:58Z</time>
      </trkpt>
      <trkpt lat="44.37068" lon="3.80176">
        <ele>1316.4</ele>
        <time>2022-10-29T09:00:59Z</time>
      </trkpt>
      <trkpt lat="44.37065" lon="3.80172">
        <ele>1316.4</ele>
        <time>2022-10-29T09:01:00Z</time>
      </trkpt>
      <trkpt lat="44.37063" lon="3.80169">
        <ele>1316.4</ele>
        <time>2022-10-29T09:01:01Z</time>
      </trkpt>
      <trkpt lat="44.3706" lon="3.80166">
        <ele>1316.4</ele>
        <time>2022-10-29T09:01:02Z</time>
      </trkpt>
      <trkpt lat="44.37058" lon="3.80163">
        <ele>1316.4</ele>
        <time>2022-10-29T09:01:03Z</time>
      </trkpt>
      <trkpt lat="44.37055" lon="3.80159">
        <ele>1316.4</ele>
        <time>2022-10-29T09:01:04Z</time>
      </trkpt>
      <trkpt lat="44.37052" lon="3.80156">
        <ele>1316.2</ele>
        <time>2022-10-29T09:01:05Z</time>
      </trkpt>
      <trkpt lat="44.37049" lon="3.80153">
        <ele>1316.2</ele>
        <time>2022-10-29T09:01:06Z</time>
      </trkpt>
      <trkpt lat="44.37046" lon="3.8015">
        <ele>1316.2</ele>
        <time>2022-10-29T09:01:07Z</time>
      </trkpt>
      <trkpt lat="44.37043" lon="3.80146">
        <ele>1316</ele>
        <time>2022-10-29T09:01:08Z</time>
      </trkpt>
      <trkpt lat="44.3704" lon="3.80143">
        <ele>1316</ele>
        <time>2022-10-29T09:01:09Z</time>
      </trkpt>
      <trkpt lat="44.37037" lon="3.8014">
        <ele>1315.8</ele>
        <time>2022-10-29T09:01:10Z</time>
      </trkpt>
      <trkpt lat="44.37035" lon="3.80136">
        <ele>1315.8</ele>
        <time>2022-10-29T09:01:11Z</time>
      </trkpt>
      <trkpt lat="44.37031" lon="3.80133">
        <ele>1315.8</ele>
        <time>2022-10-29T09:01:12Z</time>
      </trkpt>
      <trkpt lat="44.37029" lon="3.80128">
        <ele>1315.6</ele>
        <time>2022-10-29T09:01:13Z</time>
      </trkpt>
      <trkpt lat="44.37027" lon="3.80124">
        <ele>1315.6</ele>
        <time>2022-10-29T09:01:14Z</time>
      </trkpt>
      <trkpt lat="44.37025" lon="3.80119">
        <ele>1315.4</ele>
        <time>2022-10-29T09:01:15Z</time>
      </trkpt>
      <trkpt lat="44.37022" lon="3.80114">
        <ele>1315.4</ele>
        <time>2022-10-29T09:01:16Z</time>
      </trkpt>
      <trkpt lat="44.37019" lon="3.80109">
        <ele>1315.2</ele>
        <time>2022-10-29T09:01:17Z</time>
      </trkpt>
      <trkpt lat="44.37016" lon="3.80104">
        <ele>1315</ele>
        <time>2022-10-29T09:01:18Z</time>
      </trkpt>
      <trkpt lat="44.37014" lon="3.80099">
        <ele>1314.8</ele>
        <time>2022-10-29T09:01:19Z</time>
      </trkpt>
      <trkpt lat="44.37012" lon="3.80094">
        <ele>1314.8</ele>
        <time>2022-10-29T09:01:20Z</time>
      </trkpt>
      <trkpt lat="44.3701" lon="3.80088">
        <ele>1314.6</ele>
        <time>2022-10-29T09:01:21Z</time>
      </trkpt>
      <trkpt lat="44.37008" lon="3.80084">
        <ele>1314.4</ele>
        <time>2022-10-29T09:01:22Z</time>
      </trkpt>
      <trkpt lat="44.37007" lon="3.80079">
        <ele>1314.4</ele>
        <time>2022-10-29T09:01:23Z</time>
      </trkpt>
      <trkpt lat="44.37005" lon="3.80074">
        <ele>1314.4</ele>
        <time>2022-10-29T09:01:24Z</time>
      </trkpt>
      <trkpt lat="44.37003" lon="3.80069">
        <ele>1314.4</ele>
        <time>2022-10-29T09:01:25Z</time>
      </trkpt>
      <trkpt lat="44.37001" lon="3.80064">
        <ele>1314.4</ele>
        <time>2022-10-29T09:01:26Z</time>
      </trkpt>
      <trkpt lat="44.36998" lon="3.80059">
        <ele>1314.2</ele>
        <time>2022-10-29T09:01:27Z</time>
      </trkpt>
      <trkpt lat="44.36996" lon="3.80054">
        <ele>1314.2</ele>
        <time>2022-10-29T09:01:28Z</time>
      </trkpt>
      <trkpt lat="44.36994" lon="3.80048">
        <ele>1314</ele>
        <time>2022-10-29T09:01:29Z</time>
      </trkpt>
      <trkpt lat="44.36992" lon="3.80043">
        <ele>1314</ele>
        <time>2022-10-29T09:01:30Z</time>
      </trkpt>
      <trkpt lat="44.3699" lon="3.80038">
        <ele>1313.8</ele>
        <time>2022-10-29T09:01:31Z</time>
      </trkpt>
      <trkpt lat="44.36988" lon="3.80033">
        <ele>1313.8</ele>
        <time>2022-10-29T09:01:32Z</time>
      </trkpt>
      <trkpt lat="44.36986" lon="3.80028">
        <ele>1313.8</ele>
        <time>2022-10-29T09:01:33Z</time>
      </trkpt>
      <trkpt lat="44.36985" lon="3.80023">
        <ele>1313.8</ele>
        <time>2022-10-29T09:01:34Z</time>
      </trkpt>
      <trkpt lat="44.36983" lon="3.80019">
        <ele>1313.8</ele>
        <time>2022-10-29T09:01:35Z</time>
      </trkpt>
      <trkpt lat="44.36982" lon="3.80015">
        <ele>1313.8</ele>
        <time>2022-10-29T09:01:36Z</time>
      </trkpt>
      <trkpt lat="44.36981" lon="3.8001">
        <ele>1313.8</ele>
        <time>2022-10-29T09:01:37Z</time>
      </trkpt>
      <trkpt lat="44.3698" lon="3.80006">
        <ele>1313.8</ele>
        <time>2022-10-29T09:01:38Z</time>
      </trkpt>
      <trkpt lat="44.36979" lon="3.80002">
        <ele>1313.8</ele>
        <time>2022-10-29T09:01:39Z</time>
      </trkpt>
      <trkpt lat="44.36978" lon="3.79997">
        <ele>1313.8</ele>
        <time>2022-10-29T09:01:40Z</time>
      </trkpt>
      <trkpt lat="44.36977" lon="3.79995">
        <ele>1313.6</ele>
        <time>2022-10-29T09:01:41Z</time>
      </trkpt>
      <trkpt lat="44.36977" lon="3.79993">
        <ele>1313.6</ele>
        <time>2022-10-29T09:01:42Z</time>
      </trkpt>
      <trkpt lat="44.36976" lon="3.79991">
        <ele>1313.2</ele>
        <time>2022-10-29T09:02:18Z</time>
      </trkpt>
      <trkpt lat="44.36975" lon="3.79989">
        <ele>1313</ele>
        <time>2022-10-29T09:02:19Z</time>
      </trkpt>
      <trkpt lat="44.36974" lon="3.79985">
        <ele>1313</ele>
        <time>2022-10-29T09:02:20Z</time>
      </trkpt>
      <trkpt lat="44.36972" lon="3.7998">
        <ele>1313</ele>
        <time>2022-10-29T09:02:21Z</time>
      </trkpt>
      <trkpt lat="44.36971" lon="3.79976">
        <ele>1312.8</ele>
        <time>2022-10-29T09:02:22Z</time>
      </trkpt>
      <trkpt lat="44.3697" lon="3.79972">
        <ele>1312.8</ele>
        <time>2022-10-29T09:02:23Z</time>
      </trkpt>
      <trkpt lat="44.36969" lon="3.79968">
        <ele>1312.6</ele>
        <time>2022-10-29T09:02:24Z</time>
      </trkpt>
      <trkpt lat="44.36967" lon="3.79963">
        <ele>1312.6</ele>
        <time>2022-10-29T09:02:25Z</time>
      </trkpt>
      <trkpt lat="44.36967" lon="3.79959">
        <ele>1312.6</ele>
        <time>2022-10-29T09:02:26Z</time>
      </trkpt>
      <trkpt lat="44.36966" lon="3.79955">
        <ele>1312.6</ele>
        <time>2022-10-29T09:02:27Z</time>
      </trkpt>
      <trkpt lat="44.36965" lon="3.7995">
        <ele>1312.4</ele>
        <time>2022-10-29T09:02:28Z</time>
      </trkpt>
      <trkpt lat="44.36964" lon="3.79945">
        <ele>1312.4</ele>
        <time>2022-10-29T09:02:29Z</time>
      </trkpt>
      <trkpt lat="44.36963" lon="3.7994">
        <ele>1312.4</ele>
        <time>2022-10-29T09:02:30Z</time>
      </trkpt>
      <trkpt lat="44.36962" lon="3.79935">
        <ele>1312.4</ele>
        <time>2022-10-29T09:02:31Z</time>
      </trkpt>
      <trkpt lat="44.36962" lon="3.7993">
        <ele>1312.4</ele>
        <time>2022-10-29T09:02:32Z</time>
      </trkpt>
      <trkpt lat="44.36961" lon="3.79924">
        <ele>1312.4</ele>
        <time>2022-10-29T09:02:33Z</time>
      </trkpt>
      <trkpt lat="44.3696" lon="3.79919">
        <ele>1312.4</ele>
        <time>2022-10-29T09:02:34Z</time>
      </trkpt>
      <trkpt lat="44.3696" lon="3.79913">
        <ele>1312.4</ele>
        <time>2022-10-29T09:02:35Z</time>
      </trkpt>
      <trkpt lat="44.36959" lon="3.79908">
        <ele>1312.4</ele>
        <time>2022-10-29T09:02:36Z</time>
      </trkpt>
      <trkpt lat="44.36958" lon="3.79901">
        <ele>1312.2</ele>
        <time>2022-10-29T09:02:37Z</time>
      </trkpt>
      <trkpt lat="44.36956" lon="3.79896">
        <ele>1312.2</ele>
        <time>2022-10-29T09:02:38Z</time>
      </trkpt>
      <trkpt lat="44.36954" lon="3.7989">
        <ele>1312.2</ele>
        <time>2022-10-29T09:02:39Z</time>
      </trkpt>
      <trkpt lat="44.36953" lon="3.79884">
        <ele>1312.2</ele>
        <time>2022-10-29T09:02:40Z</time>
      </trkpt>
      <trkpt lat="44.36951" lon="3.79878">
        <ele>1312.2</ele>
        <time>2022-10-29T09:02:41Z</time>
      </trkpt>
      <trkpt lat="44.3695" lon="3.79873">
        <ele>1312</ele>
        <time>2022-10-29T09:02:42Z</time>
      </trkpt>
      <trkpt lat="44.36949" lon="3.79867">
        <ele>1312</ele>
        <time>2022-10-29T09:02:43Z</time>
      </trkpt>
      <trkpt lat="44.36948" lon="3.79862">
        <ele>1312</ele>
        <time>2022-10-29T09:02:44Z</time>
      </trkpt>
      <trkpt lat="44.36948" lon="3.79856">
        <ele>1311.8</ele>
        <time>2022-10-29T09:02:45Z</time>
      </trkpt>
      <trkpt lat="44.36946" lon="3.7985">
        <ele>1311.8</ele>
        <time>2022-10-29T09:02:46Z</time>
      </trkpt>
      <trkpt lat="44.36945" lon="3.79845">
        <ele>1311.8</ele>
        <time>2022-10-29T09:02:47Z</time>
      </trkpt>
      <trkpt lat="44.36944" lon="3.79839">
        <ele>1311.6</ele>
        <time>2022-10-29T09:02:48Z</time>
      </trkpt>
      <trkpt lat="44.36943" lon="3.79832">
        <ele>1311.6</ele>
        <time>2022-10-29T09:02:49Z</time>
      </trkpt>
      <trkpt lat="44.36943" lon="3.79826">
        <ele>1311.6</ele>
        <time>2022-10-29T09:02:50Z</time>
      </trkpt>
      <trkpt lat="44.36944" lon="3.7982">
        <ele>1311.6</ele>
        <time>2022-10-29T09:02:51Z</time>
      </trkpt>
      <trkpt lat="44.36944" lon="3.79814">
        <ele>1311.4</ele>
        <time>2022-10-29T09:02:52Z</time>
      </trkpt>
      <trkpt lat="44.36944" lon="3.79807">
        <ele>1311.4</ele>
        <time>2022-10-29T09:02:53Z</time>
      </trkpt>
      <trkpt lat="44.36943" lon="3.79801">
        <ele>1311.4</ele>
        <time>2022-10-29T09:02:54Z</time>
      </trkpt>
      <trkpt lat="44.36943" lon="3.79795">
        <ele>1311.2</ele>
        <time>2022-10-29T09:02:55Z</time>
      </trkpt>
      <trkpt lat="44.36943" lon="3.79789">
        <ele>1311.2</ele>
        <time>2022-10-29T09:02:56Z</time>
      </trkpt>
      <trkpt lat="44.36943" lon="3.79784">
        <ele>1311</ele>
        <time>2022-10-29T09:02:57Z</time>
      </trkpt>
      <trkpt lat="44.36943" lon="3.79778">
        <ele>1311</ele>
        <time>2022-10-29T09:02:58Z</time>
      </trkpt>
      <trkpt lat="44.36943" lon="3.79771">
        <ele>1310.8</ele>
        <time>2022-10-29T09:02:59Z</time>
      </trkpt>
      <trkpt lat="44.36943" lon="3.79765">
        <ele>1310.6</ele>
        <time>2022-10-29T09:03:00Z</time>
      </trkpt>
      <trkpt lat="44.36943" lon="3.7976">
        <ele>1310.4</ele>
        <time>2022-10-29T09:03:01Z</time>
      </trkpt>
      <trkpt lat="44.36942" lon="3.79754">
        <ele>1310.2</ele>
        <time>2022-10-29T09:03:02Z</time>
      </trkpt>
      <trkpt lat="44.36941" lon="3.79748">
        <ele>1310</ele>
        <time>2022-10-29T09:03:03Z</time>
      </trkpt>
      <trkpt lat="44.36941" lon="3.79742">
        <ele>1309.8</ele>
        <time>2022-10-29T09:03:04Z</time>
      </trkpt>
      <trkpt lat="44.3694" lon="3.79736">
        <ele>1309.6</ele>
        <time>2022-10-29T09:03:05Z</time>
      </trkpt>
      <trkpt lat="44.3694" lon="3.79729">
        <ele>1309.4</ele>
        <time>2022-10-29T09:03:06Z</time>
      </trkpt>
      <trkpt lat="44.3694" lon="3.79722">
        <ele>1309.2</ele>
        <time>2022-10-29T09:03:07Z</time>
      </trkpt>
      <trkpt lat="44.36939" lon="3.79715">
        <ele>1309</ele>
        <time>2022-10-29T09:03:08Z</time>
      </trkpt>
      <trkpt lat="44.36938" lon="3.79709">
        <ele>1309</ele>
        <time>2022-10-29T09:03:09Z</time>
      </trkpt>
      <trkpt lat="44.36937" lon="3.79702">
        <ele>1308.8</ele>
        <time>2022-10-29T09:03:10Z</time>
      </trkpt>
      <trkpt lat="44.36937" lon="3.79696">
        <ele>1308.6</ele>
        <time>2022-10-29T09:03:11Z</time>
      </trkpt>
      <trkpt lat="44.36936" lon="3.7969">
        <ele>1308.6</ele>
        <time>2022-10-29T09:03:12Z</time>
      </trkpt>
      <trkpt lat="44.36935" lon="3.79684">
        <ele>1308.6</ele>
        <time>2022-10-29T09:03:13Z</time>
      </trkpt>
      <trkpt lat="44.36933" lon="3.79679">
        <ele>1308.4</ele>
        <time>2022-10-29T09:03:14Z</time>
      </trkpt>
      <trkpt lat="44.36932" lon="3.79673">
        <ele>1308.4</ele>
        <time>2022-10-29T09:03:15Z</time>
      </trkpt>
      <trkpt lat="44.36931" lon="3.79668">
        <ele>1308.4</ele>
        <time>2022-10-29T09:03:16Z</time>
      </trkpt>
      <trkpt lat="44.3693" lon="3.79662">
        <ele>1308.4</ele>
        <time>2022-10-29T09:03:17Z</time>
      </trkpt>
      <trkpt lat="44.36929" lon="3.79657">
        <ele>1308.4</ele>
        <time>2022-10-29T09:03:18Z</time>
      </trkpt>
      <trkpt lat="44.36928" lon="3.79652">
        <ele>1308.2</ele>
        <time>2022-10-29T09:03:19Z</time>
      </trkpt>
      <trkpt lat="44.36928" lon="3.79646">
        <ele>1308.2</ele>
        <time>2022-10-29T09:03:20Z</time>
      </trkpt>
      <trkpt lat="44.36927" lon="3.79641">
        <ele>1308</ele>
        <time>2022-10-29T09:03:21Z</time>
      </trkpt>
      <trkpt lat="44.36926" lon="3.79635">
        <ele>1308</ele>
        <time>2022-10-29T09:03:22Z</time>
      </trkpt>
      <trkpt lat="44.36925" lon="3.79629">
        <ele>1307.8</ele>
        <time>2022-10-29T09:03:23Z</time>
      </trkpt>
      <trkpt lat="44.36924" lon="3.79623">
        <ele>1307.8</ele>
        <time>2022-10-29T09:03:24Z</time>
      </trkpt>
      <trkpt lat="44.36923" lon="3.79616">
        <ele>1307.6</ele>
        <time>2022-10-29T09:03:25Z</time>
      </trkpt>
      <trkpt lat="44.36922" lon="3.79608">
        <ele>1307.4</ele>
        <time>2022-10-29T09:03:26Z</time>
      </trkpt>
      <trkpt lat="44.36921" lon="3.796">
        <ele>1307.2</ele>
        <time>2022-10-29T09:03:27Z</time>
      </trkpt>
      <trkpt lat="44.3692" lon="3.79592">
        <ele>1307</ele>
        <time>2022-10-29T09:03:28Z</time>
      </trkpt>
      <trkpt lat="44.36919" lon="3.79585">
        <ele>1306.8</ele>
        <time>2022-10-29T09:03:29Z</time>
      </trkpt>
      <trkpt lat="44.36918" lon="3.79579">
        <ele>1306.6</ele>
        <time>2022-10-29T09:03:30Z</time>
      </trkpt>
      <trkpt lat="44.36918" lon="3.79572">
        <ele>1306.6</ele>
        <time>2022-10-29T09:03:31Z</time>
      </trkpt>
      <trkpt lat="44.36917" lon="3.79567">
        <ele>1306.4</ele>
        <time>2022-10-29T09:03:32Z</time>
      </trkpt>
      <trkpt lat="44.36917" lon="3.79561">
        <ele>1306.2</ele>
        <time>2022-10-29T09:03:33Z</time>
      </trkpt>
      <trkpt lat="44.36917" lon="3.79556">
        <ele>1306</ele>
        <time>2022-10-29T09:03:34Z</time>
      </trkpt>
      <trkpt lat="44.36916" lon="3.79551">
        <ele>1305.8</ele>
        <time>2022-10-29T09:03:35Z</time>
      </trkpt>
      <trkpt lat="44.36914" lon="3.79547">
        <ele>1305.6</ele>
        <time>2022-10-29T09:03:36Z</time>
      </trkpt>
      <trkpt lat="44.36914" lon="3.79544">
        <ele>1305.4</ele>
        <time>2022-10-29T09:03:37Z</time>
      </trkpt>
      <trkpt lat="44.36913" lon="3.79542">
        <ele>1305.4</ele>
        <time>2022-10-29T09:03:38Z</time>
      </trkpt>
      <trkpt lat="44.36913" lon="3.79541">
        <ele>1305.2</ele>
        <time>2022-10-29T09:03:39Z</time>
      </trkpt>
      <trkpt lat="44.36912" lon="3.7954">
        <ele>1305.2</ele>
        <time>2022-10-29T09:03:40Z</time>
      </trkpt>
      <trkpt lat="44.36912" lon="3.79539">
        <ele>1305</ele>
        <time>2022-10-29T09:03:41Z</time>
      </trkpt>
      <trkpt lat="44.36911" lon="3.79538">
        <ele>1305</ele>
        <time>2022-10-29T09:03:42Z</time>
      </trkpt>
      <trkpt lat="44.3691" lon="3.79537">
        <ele>1304.8</ele>
        <time>2022-10-29T09:03:43Z</time>
      </trkpt>
      <trkpt lat="44.36911" lon="3.79536">
        <ele>1304.8</ele>
        <time>2022-10-29T09:03:44Z</time>
      </trkpt>
      <trkpt lat="44.36911" lon="3.79536">
        <ele>1304.6</ele>
        <time>2022-10-29T09:03:45Z</time>
      </trkpt>
      <trkpt lat="44.36912" lon="3.79539">
        <ele>1304.6</ele>
        <time>2022-10-29T09:04:15Z</time>
      </trkpt>
      <trkpt lat="44.3691" lon="3.79538">
        <ele>1304.6</ele>
        <time>2022-10-29T09:04:16Z</time>
      </trkpt>
      <trkpt lat="44.36908" lon="3.79535">
        <ele>1304.6</ele>
        <time>2022-10-29T09:04:17Z</time>
      </trkpt>
      <trkpt lat="44.36906" lon="3.79534">
        <ele>1304.4</ele>
        <time>2022-10-29T09:04:18Z</time>
      </trkpt>
      <trkpt lat="44.36904" lon="3.79532">
        <ele>1304.4</ele>
        <time>2022-10-29T09:04:19Z</time>
      </trkpt>
      <trkpt lat="44.36902" lon="3.79531">
        <ele>1304.6</ele>
        <time>2022-10-29T09:04:20Z</time>
      </trkpt>
      <trkpt lat="44.36899" lon="3.7953">
        <ele>1304.6</ele>
        <time>2022-10-29T09:04:21Z</time>
      </trkpt>
      <trkpt lat="44.36897" lon="3.79529">
        <ele>1304.4</ele>
        <time>2022-10-29T09:04:22Z</time>
      </trkpt>
      <trkpt lat="44.36895" lon="3.79528">
        <ele>1304.4</ele>
        <time>2022-10-29T09:04:23Z</time>
      </trkpt>
      <trkpt lat="44.36894" lon="3.79528">
        <ele>1304.4</ele>
        <time>2022-10-29T09:04:24Z</time>
      </trkpt>
      <trkpt lat="44.36893" lon="3.79526">
        <ele>1304.4</ele>
        <time>2022-10-29T09:04:25Z</time>
      </trkpt>
      <trkpt lat="44.36893" lon="3.79526">
        <ele>1304.4</ele>
        <time>2022-10-29T09:04:26Z</time>
      </trkpt>
      <trkpt lat="44.36893" lon="3.79526">
        <ele>1304.4</ele>
        <time>2022-10-29T09:04:27Z</time>
      </trkpt>
      <trkpt lat="44.36893" lon="3.79526">
        <ele>1304.4</ele>
        <time>2022-10-29T09:04:28Z</time>
      </trkpt>
      <trkpt lat="44.36893" lon="3.79526">
        <ele>1304.4</ele>
        <time>2022-10-29T09:04:29Z</time>
      </trkpt>
      <trkpt lat="44.36893" lon="3.79526">
        <ele>1304.2</ele>
        <time>2022-10-29T09:04:30Z</time>
      </trkpt>
      <trkpt lat="44.36893" lon="3.79526">
        <ele>1304.2</ele>
        <time>2022-10-29T09:04:31Z</time>
      </trkpt>
      <trkpt lat="44.36891" lon="3.79526">
        <ele>1304.2</ele>
        <time>2022-10-29T09:05:48Z</time>
      </trkpt>
      <trkpt lat="44.3689" lon="3.79527">
        <ele>1304.2</ele>
        <time>2022-10-29T09:05:49Z</time>
      </trkpt>
      <trkpt lat="44.36888" lon="3.79527">
        <ele>1304.2</ele>
        <time>2022-10-29T09:05:50Z</time>
      </trkpt>
      <trkpt lat="44.36885" lon="3.79527">
        <ele>1304.2</ele>
        <time>2022-10-29T09:05:51Z</time>
      </trkpt>
      <trkpt lat="44.36881" lon="3.79527">
        <ele>1304.4</ele>
        <time>2022-10-29T09:05:52Z</time>
      </trkpt>
      <trkpt lat="44.36879" lon="3.79527">
        <ele>1304.4</ele>
        <time>2022-10-29T09:05:53Z</time>
      </trkpt>
      <trkpt lat="44.36876" lon="3.79527">
        <ele>1304.4</ele>
        <time>2022-10-29T09:05:54Z</time>
      </trkpt>
      <trkpt lat="44.36874" lon="3.79527">
        <ele>1304.6</ele>
        <time>2022-10-29T09:05:55Z</time>
      </trkpt>
      <trkpt lat="44.36872" lon="3.79527">
        <ele>1304.6</ele>
        <time>2022-10-29T09:05:56Z</time>
      </trkpt>
      <trkpt lat="44.36869" lon="3.79527">
        <ele>1304.8</ele>
        <time>2022-10-29T09:05:57Z</time>
      </trkpt>
      <trkpt lat="44.36866" lon="3.79528">
        <ele>1304.8</ele>
        <time>2022-10-29T09:05:58Z</time>
      </trkpt>
      <trkpt lat="44.36863" lon="3.79528">
        <ele>1304.8</ele>
        <time>2022-10-29T09:05:59Z</time>
      </trkpt>
      <trkpt lat="44.3686" lon="3.79528">
        <ele>1304.8</ele>
        <time>2022-10-29T09:06:00Z</time>
      </trkpt>
      <trkpt lat="44.36857" lon="3.79529">
        <ele>1304.8</ele>
        <time>2022-10-29T09:06:01Z</time>
      </trkpt>
      <trkpt lat="44.36854" lon="3.79529">
        <ele>1304.8</ele>
        <time>2022-10-29T09:06:02Z</time>
      </trkpt>
      <trkpt lat="44.36851" lon="3.7953">
        <ele>1304.8</ele>
        <time>2022-10-29T09:06:03Z</time>
      </trkpt>
      <trkpt lat="44.36848" lon="3.79531">
        <ele>1304.8</ele>
        <time>2022-10-29T09:06:04Z</time>
      </trkpt>
      <trkpt lat="44.36846" lon="3.79531">
        <ele>1304.8</ele>
        <time>2022-10-29T09:06:05Z</time>
      </trkpt>
      <trkpt lat="44.36843" lon="3.79531">
        <ele>1304.8</ele>
        <time>2022-10-29T09:06:06Z</time>
      </trkpt>
      <trkpt lat="44.36841" lon="3.79532">
        <ele>1304.8</ele>
        <time>2022-10-29T09:06:07Z</time>
      </trkpt>
      <trkpt lat="44.36838" lon="3.79532">
        <ele>1304.8</ele>
        <time>2022-10-29T09:06:08Z</time>
      </trkpt>
      <trkpt lat="44.36835" lon="3.79533">
        <ele>1304.8</ele>
        <time>2022-10-29T09:06:09Z</time>
      </trkpt>
      <trkpt lat="44.36832" lon="3.79534">
        <ele>1304.8</ele>
        <time>2022-10-29T09:06:10Z</time>
      </trkpt>
      <trkpt lat="44.36829" lon="3.79535">
        <ele>1305</ele>
        <time>2022-10-29T09:06:11Z</time>
      </trkpt>
      <trkpt lat="44.36826" lon="3.79536">
        <ele>1305</ele>
        <time>2022-10-29T09:06:12Z</time>
      </trkpt>
      <trkpt lat="44.36822" lon="3.79536">
        <ele>1305.2</ele>
        <time>2022-10-29T09:06:13Z</time>
      </trkpt>
      <trkpt lat="44.36819" lon="3.79537">
        <ele>1305.4</ele>
        <time>2022-10-29T09:06:14Z</time>
      </trkpt>
      <trkpt lat="44.36816" lon="3.79537">
        <ele>1305.6</ele>
        <time>2022-10-29T09:06:15Z</time>
      </trkpt>
      <trkpt lat="44.36813" lon="3.79537">
        <ele>1305.6</ele>
        <time>2022-10-29T09:06:16Z</time>
      </trkpt>
      <trkpt lat="44.36809" lon="3.79536">
        <ele>1305.8</ele>
        <time>2022-10-29T09:06:17Z</time>
      </trkpt>
      <trkpt lat="44.36806" lon="3.79536">
        <ele>1306</ele>
        <time>2022-10-29T09:06:18Z</time>
      </trkpt>
      <trkpt lat="44.36803" lon="3.79536">
        <ele>1306.2</ele>
        <time>2022-10-29T09:06:19Z</time>
      </trkpt>
      <trkpt lat="44.368" lon="3.79536">
        <ele>1306.4</ele>
        <time>2022-10-29T09:06:20Z</time>
      </trkpt>
      <trkpt lat="44.36797" lon="3.79536">
        <ele>1306.4</ele>
        <time>2022-10-29T09:06:21Z</time>
      </trkpt>
      <trkpt lat="44.36793" lon="3.79537">
        <ele>1306.6</ele>
        <time>2022-10-29T09:06:22Z</time>
      </trkpt>
      <trkpt lat="44.3679" lon="3.79537">
        <ele>1306.8</ele>
        <time>2022-10-29T09:06:23Z</time>
      </trkpt>
      <trkpt lat="44.36787" lon="3.79537">
        <ele>1307</ele>
        <time>2022-10-29T09:06:24Z</time>
      </trkpt>
      <trkpt lat="44.36784" lon="3.79537">
        <ele>1307.2</ele>
        <time>2022-10-29T09:06:25Z</time>
      </trkpt>
      <trkpt lat="44.3678" lon="3.79537">
        <ele>1307.4</ele>
        <time>2022-10-29T09:06:26Z</time>
      </trkpt>
      <trkpt lat="44.36777" lon="3.79536">
        <ele>1307.6</ele>
        <time>2022-10-29T09:06:27Z</time>
      </trkpt>
      <trkpt lat="44.36774" lon="3.79535">
        <ele>1307.8</ele>
        <time>2022-10-29T09:06:28Z</time>
      </trkpt>
      <trkpt lat="44.36771" lon="3.79535">
        <ele>1307.8</ele>
        <time>2022-10-29T09:06:29Z</time>
      </trkpt>
      <trkpt lat="44.36767" lon="3.79534">
        <ele>1308</ele>
        <time>2022-10-29T09:06:30Z</time>
      </trkpt>
      <trkpt lat="44.36763" lon="3.79534">
        <ele>1308</ele>
        <time>2022-10-29T09:06:31Z</time>
      </trkpt>
      <trkpt lat="44.3676" lon="3.79533">
        <ele>1308.2</ele>
        <time>2022-10-29T09:06:32Z</time>
      </trkpt>
      <trkpt lat="44.36756" lon="3.79533">
        <ele>1308.2</ele>
        <time>2022-10-29T09:06:33Z</time>
      </trkpt>
      <trkpt lat="44.36753" lon="3.79533">
        <ele>1308.4</ele>
        <time>2022-10-29T09:06:34Z</time>
      </trkpt>
      <trkpt lat="44.36749" lon="3.79532">
        <ele>1308.4</ele>
        <time>2022-10-29T09:06:35Z</time>
      </trkpt>
      <trkpt lat="44.36746" lon="3.79531">
        <ele>1308.6</ele>
        <time>2022-10-29T09:06:36Z</time>
      </trkpt>
      <trkpt lat="44.36742" lon="3.79531">
        <ele>1308.6</ele>
        <time>2022-10-29T09:06:37Z</time>
      </trkpt>
      <trkpt lat="44.36738" lon="3.7953">
        <ele>1308.6</ele>
        <time>2022-10-29T09:06:38Z</time>
      </trkpt>
      <trkpt lat="44.36734" lon="3.79529">
        <ele>1308.8</ele>
        <time>2022-10-29T09:06:39Z</time>
      </trkpt>
      <trkpt lat="44.36731" lon="3.79529">
        <ele>1308.8</ele>
        <time>2022-10-29T09:06:40Z</time>
      </trkpt>
      <trkpt lat="44.36727" lon="3.79528">
        <ele>1309</ele>
        <time>2022-10-29T09:06:41Z</time>
      </trkpt>
      <trkpt lat="44.36723" lon="3.79528">
        <ele>1309.2</ele>
        <time>2022-10-29T09:06:42Z</time>
      </trkpt>
      <trkpt lat="44.3672" lon="3.79528">
        <ele>1309.2</ele>
        <time>2022-10-29T09:06:43Z</time>
      </trkpt>
      <trkpt lat="44.36716" lon="3.79528">
        <ele>1309.4</ele>
        <time>2022-10-29T09:06:44Z</time>
      </trkpt>
      <trkpt lat="44.36712" lon="3.79528">
        <ele>1309.4</ele>
        <time>2022-10-29T09:06:45Z</time>
      </trkpt>
      <trkpt lat="44.36709" lon="3.79527">
        <ele>1309.6</ele>
        <time>2022-10-29T09:06:46Z</time>
      </trkpt>
      <trkpt lat="44.36706" lon="3.79527">
        <ele>1309.6</ele>
        <time>2022-10-29T09:06:47Z</time>
      </trkpt>
      <trkpt lat="44.36702" lon="3.79527">
        <ele>1309.8</ele>
        <time>2022-10-29T09:06:48Z</time>
      </trkpt>
      <trkpt lat="44.36699" lon="3.79526">
        <ele>1309.8</ele>
        <time>2022-10-29T09:06:49Z</time>
      </trkpt>
      <trkpt lat="44.36695" lon="3.79526">
        <ele>1310</ele>
        <time>2022-10-29T09:06:50Z</time>
      </trkpt>
      <trkpt lat="44.36691" lon="3.79525">
        <ele>1310</ele>
        <time>2022-10-29T09:06:51Z</time>
      </trkpt>
      <trkpt lat="44.36688" lon="3.79525">
        <ele>1310.2</ele>
        <time>2022-10-29T09:06:52Z</time>
      </trkpt>
      <trkpt lat="44.36684" lon="3.79524">
        <ele>1310.4</ele>
        <time>2022-10-29T09:06:53Z</time>
      </trkpt>
      <trkpt lat="44.36681" lon="3.79524">
        <ele>1310.4</ele>
        <time>2022-10-29T09:06:54Z</time>
      </trkpt>
      <trkpt lat="44.36677" lon="3.79523">
        <ele>1310.6</ele>
        <time>2022-10-29T09:06:55Z</time>
      </trkpt>
      <trkpt lat="44.36673" lon="3.79522">
        <ele>1310.6</ele>
        <time>2022-10-29T09:06:56Z</time>
      </trkpt>
      <trkpt lat="44.36669" lon="3.79522">
        <ele>1310.8</ele>
        <time>2022-10-29T09:06:57Z</time>
      </trkpt>
      <trkpt lat="44.36666" lon="3.79521">
        <ele>1310.8</ele>
        <time>2022-10-29T09:06:58Z</time>
      </trkpt>
      <trkpt lat="44.36662" lon="3.79521">
        <ele>1310.8</ele>
        <time>2022-10-29T09:06:59Z</time>
      </trkpt>
      <trkpt lat="44.36659" lon="3.7952">
        <ele>1311</ele>
        <time>2022-10-29T09:07:00Z</time>
      </trkpt>
      <trkpt lat="44.36655" lon="3.79519">
        <ele>1311.2</ele>
        <time>2022-10-29T09:07:01Z</time>
      </trkpt>
      <trkpt lat="44.36652" lon="3.79518">
        <ele>1311.2</ele>
        <time>2022-10-29T09:07:02Z</time>
      </trkpt>
      <trkpt lat="44.36648" lon="3.79518">
        <ele>1311.4</ele>
        <time>2022-10-29T09:07:03Z</time>
      </trkpt>
      <trkpt lat="44.36644" lon="3.79518">
        <ele>1311.4</ele>
        <time>2022-10-29T09:07:04Z</time>
      </trkpt>
      <trkpt lat="44.36641" lon="3.79519">
        <ele>1311.6</ele>
        <time>2022-10-29T09:07:05Z</time>
      </trkpt>
      <trkpt lat="44.36637" lon="3.79519">
        <ele>1311.6</ele>
        <time>2022-10-29T09:07:06Z</time>
      </trkpt>
      <trkpt lat="44.36633" lon="3.79519">
        <ele>1311.6</ele>
        <time>2022-10-29T09:07:07Z</time>
      </trkpt>
      <trkpt lat="44.36629" lon="3.79518">
        <ele>1311.6</ele>
        <time>2022-10-29T09:07:08Z</time>
      </trkpt>
      <trkpt lat="44.36626" lon="3.79517">
        <ele>1311.6</ele>
        <time>2022-10-29T09:07:09Z</time>
      </trkpt>
      <trkpt lat="44.36622" lon="3.79516">
        <ele>1311.6</ele>
        <time>2022-10-29T09:07:10Z</time>
      </trkpt>
      <trkpt lat="44.36618" lon="3.79515">
        <ele>1311.6</ele>
        <time>2022-10-29T09:07:11Z</time>
      </trkpt>
      <trkpt lat="44.36614" lon="3.79513">
        <ele>1311.6</ele>
        <time>2022-10-29T09:07:12Z</time>
      </trkpt>
      <trkpt lat="44.3661" lon="3.79512">
        <ele>1311.6</ele>
        <time>2022-10-29T09:07:13Z</time>
      </trkpt>
      <trkpt lat="44.36606" lon="3.79512">
        <ele>1311.6</ele>
        <time>2022-10-29T09:07:14Z</time>
      </trkpt>
      <trkpt lat="44.36602" lon="3.79511">
        <ele>1311.6</ele>
        <time>2022-10-29T09:07:15Z</time>
      </trkpt>
      <trkpt lat="44.36598" lon="3.79511">
        <ele>1311.6</ele>
        <time>2022-10-29T09:07:16Z</time>
      </trkpt>
      <trkpt lat="44.36594" lon="3.7951">
        <ele>1311.4</ele>
        <time>2022-10-29T09:07:17Z</time>
      </trkpt>
      <trkpt lat="44.3659" lon="3.79509">
        <ele>1311.4</ele>
        <time>2022-10-29T09:07:18Z</time>
      </trkpt>
      <trkpt lat="44.36586" lon="3.79509">
        <ele>1311.2</ele>
        <time>2022-10-29T09:07:19Z</time>
      </trkpt>
      <trkpt lat="44.36581" lon="3.79508">
        <ele>1311.2</ele>
        <time>2022-10-29T09:07:20Z</time>
      </trkpt>
      <trkpt lat="44.36577" lon="3.79507">
        <ele>1311</ele>
        <time>2022-10-29T09:07:21Z</time>
      </trkpt>
      <trkpt lat="44.36572" lon="3.79506">
        <ele>1311</ele>
        <time>2022-10-29T09:07:22Z</time>
      </trkpt>
      <trkpt lat="44.36568" lon="3.79505">
        <ele>1310.8</ele>
        <time>2022-10-29T09:07:23Z</time>
      </trkpt>
      <trkpt lat="44.36564" lon="3.79504">
        <ele>1310.6</ele>
        <time>2022-10-29T09:07:24Z</time>
      </trkpt>
      <trkpt lat="44.36559" lon="3.79503">
        <ele>1310.6</ele>
        <time>2022-10-29T09:07:25Z</time>
      </trkpt>
      <trkpt lat="44.36554" lon="3.79502">
        <ele>1310.4</ele>
        <time>2022-10-29T09:07:26Z</time>
      </trkpt>
      <trkpt lat="44.36549" lon="3.79502">
        <ele>1310.2</ele>
        <time>2022-10-29T09:07:27Z</time>
      </trkpt>
      <trkpt lat="44.36545" lon="3.79502">
        <ele>1310</ele>
        <time>2022-10-29T09:07:28Z</time>
      </trkpt>
      <trkpt lat="44.3654" lon="3.79501">
        <ele>1309.8</ele>
        <time>2022-10-29T09:07:29Z</time>
      </trkpt>
      <trkpt lat="44.36534" lon="3.79501">
        <ele>1309.6</ele>
        <time>2022-10-29T09:07:30Z</time>
      </trkpt>
      <trkpt lat="44.36529" lon="3.79501">
        <ele>1309.2</ele>
        <time>2022-10-29T09:07:31Z</time>
      </trkpt>
      <trkpt lat="44.36524" lon="3.79501">
        <ele>1309</ele>
        <time>2022-10-29T09:07:32Z</time>
      </trkpt>
      <trkpt lat="44.36518" lon="3.79501">
        <ele>1308.8</ele>
        <time>2022-10-29T09:07:33Z</time>
      </trkpt>
      <trkpt lat="44.36513" lon="3.795">
        <ele>1308.4</ele>
        <time>2022-10-29T09:07:34Z</time>
      </trkpt>
      <trkpt lat="44.36506" lon="3.795">
        <ele>1308</ele>
        <time>2022-10-29T09:07:35Z</time>
      </trkpt>
      <trkpt lat="44.36498" lon="3.795">
        <ele>1307.6</ele>
        <time>2022-10-29T09:07:36Z</time>
      </trkpt>
      <trkpt lat="44.36492" lon="3.79501">
        <ele>1307.2</ele>
        <time>2022-10-29T09:07:37Z</time>
      </trkpt>
      <trkpt lat="44.36484" lon="3.795">
        <ele>1306.8</ele>
        <time>2022-10-29T09:07:38Z</time>
      </trkpt>
      <trkpt lat="44.36477" lon="3.79499">
        <ele>1306.2</ele>
        <time>2022-10-29T09:07:39Z</time>
      </trkpt>
      <trkpt lat="44.36471" lon="3.79498">
        <ele>1305.8</ele>
        <time>2022-10-29T09:07:40Z</time>
      </trkpt>
      <trkpt lat="44.36465" lon="3.79497">
        <ele>1305.4</ele>
        <time>2022-10-29T09:07:41Z</time>
      </trkpt>
      <trkpt lat="44.36459" lon="3.79496">
        <ele>1305</ele>
        <time>2022-10-29T09:07:42Z</time>
      </trkpt>
      <trkpt lat="44.36454" lon="3.79495">
        <ele>1304.6</ele>
        <time>2022-10-29T09:07:43Z</time>
      </trkpt>
      <trkpt lat="44.36448" lon="3.79493">
        <ele>1304.4</ele>
        <time>2022-10-29T09:07:44Z</time>
      </trkpt>
      <trkpt lat="44.36442" lon="3.79492">
        <ele>1304.2</ele>
        <time>2022-10-29T09:07:45Z</time>
      </trkpt>
      <trkpt lat="44.36437" lon="3.79491">
        <ele>1303.8</ele>
        <time>2022-10-29T09:07:46Z</time>
      </trkpt>
      <trkpt lat="44.36431" lon="3.7949">
        <ele>1303.6</ele>
        <time>2022-10-29T09:07:47Z</time>
      </trkpt>
      <trkpt lat="44.36426" lon="3.79489">
        <ele>1303.4</ele>
        <time>2022-10-29T09:07:48Z</time>
      </trkpt>
      <trkpt lat="44.3642" lon="3.79488">
        <ele>1303</ele>
        <time>2022-10-29T09:07:49Z</time>
      </trkpt>
      <trkpt lat="44.36415" lon="3.79487">
        <ele>1302.8</ele>
        <time>2022-10-29T09:07:50Z</time>
      </trkpt>
      <trkpt lat="44.3641" lon="3.79486">
        <ele>1302.6</ele>
        <time>2022-10-29T09:07:51Z</time>
      </trkpt>
      <trkpt lat="44.36405" lon="3.79485">
        <ele>1302.4</ele>
        <time>2022-10-29T09:07:52Z</time>
      </trkpt>
      <trkpt lat="44.364" lon="3.79483">
        <ele>1302.2</ele>
        <time>2022-10-29T09:07:53Z</time>
      </trkpt>
      <trkpt lat="44.36394" lon="3.79482">
        <ele>1301.8</ele>
        <time>2022-10-29T09:07:54Z</time>
      </trkpt>
      <trkpt lat="44.36389" lon="3.7948">
        <ele>1301.6</ele>
        <time>2022-10-29T09:07:55Z</time>
      </trkpt>
      <trkpt lat="44.36383" lon="3.79478">
        <ele>1301.4</ele>
        <time>2022-10-29T09:07:56Z</time>
      </trkpt>
      <trkpt lat="44.36378" lon="3.79477">
        <ele>1301</ele>
        <time>2022-10-29T09:07:57Z</time>
      </trkpt>
      <trkpt lat="44.36373" lon="3.79476">
        <ele>1300.6</ele>
        <time>2022-10-29T09:07:58Z</time>
      </trkpt>
      <trkpt lat="44.36368" lon="3.79475">
        <ele>1300.2</ele>
        <time>2022-10-29T09:07:59Z</time>
      </trkpt>
      <trkpt lat="44.36363" lon="3.79474">
        <ele>1299.8</ele>
        <time>2022-10-29T09:08:00Z</time>
      </trkpt>
      <trkpt lat="44.36357" lon="3.79472">
        <ele>1299.4</ele>
        <time>2022-10-29T09:08:01Z</time>
      </trkpt>
      <trkpt lat="44.36353" lon="3.79469">
        <ele>1299</ele>
        <time>2022-10-29T09:08:02Z</time>
      </trkpt>
      <trkpt lat="44.36348" lon="3.79467">
        <ele>1298.8</ele>
        <time>2022-10-29T09:08:03Z</time>
      </trkpt>
      <trkpt lat="44.36343" lon="3.79464">
        <ele>1298.4</ele>
        <time>2022-10-29T09:08:04Z</time>
      </trkpt>
      <trkpt lat="44.3634" lon="3.79462">
        <ele>1298.2</ele>
        <time>2022-10-29T09:08:05Z</time>
      </trkpt>
      <trkpt lat="44.36337" lon="3.7946">
        <ele>1298</ele>
        <time>2022-10-29T09:08:06Z</time>
      </trkpt>
      <trkpt lat="44.36334" lon="3.79457">
        <ele>1297.8</ele>
        <time>2022-10-29T09:08:07Z</time>
      </trkpt>
      <trkpt lat="44.36331" lon="3.79455">
        <ele>1297.6</ele>
        <time>2022-10-29T09:08:08Z</time>
      </trkpt>
      <trkpt lat="44.36327" lon="3.79453">
        <ele>1297.4</ele>
        <time>2022-10-29T09:08:09Z</time>
      </trkpt>
      <trkpt lat="44.36324" lon="3.7945">
        <ele>1297.2</ele>
        <time>2022-10-29T09:08:10Z</time>
      </trkpt>
      <trkpt lat="44.36322" lon="3.79448">
        <ele>1297</ele>
        <time>2022-10-29T09:08:11Z</time>
      </trkpt>
      <trkpt lat="44.36319" lon="3.79446">
        <ele>1296.8</ele>
        <time>2022-10-29T09:08:12Z</time>
      </trkpt>
      <trkpt lat="44.36317" lon="3.79444">
        <ele>1296.6</ele>
        <time>2022-10-29T09:08:13Z</time>
      </trkpt>
      <trkpt lat="44.36316" lon="3.79442">
        <ele>1296.2</ele>
        <time>2022-10-29T09:08:14Z</time>
      </trkpt>
      <trkpt lat="44.36315" lon="3.79441">
        <ele>1296</ele>
        <time>2022-10-29T09:08:15Z</time>
      </trkpt>
      <trkpt lat="44.36315" lon="3.79441">
        <ele>1296</ele>
        <time>2022-10-29T09:08:16Z</time>
      </trkpt>
      <trkpt lat="44.36316" lon="3.79439">
        <ele>1295.4</ele>
        <time>2022-10-29T09:08:22Z</time>
      </trkpt>
      <trkpt lat="44.36316" lon="3.79439">
        <ele>1295.4</ele>
        <time>2022-10-29T09:08:23Z</time>
      </trkpt>
      <trkpt lat="44.36318" lon="3.7944">
        <ele>1295.4</ele>
        <time>2022-10-29T09:08:24Z</time>
      </trkpt>
      <trkpt lat="44.36318" lon="3.79441">
        <ele>1295.6</ele>
        <time>2022-10-29T09:08:25Z</time>
      </trkpt>
      <trkpt lat="44.3632" lon="3.79442">
        <ele>1295.6</ele>
        <time>2022-10-29T09:08:26Z</time>
      </trkpt>
      <trkpt lat="44.36321" lon="3.79444">
        <ele>1295.8</ele>
        <time>2022-10-29T09:08:27Z</time>
      </trkpt>
      <trkpt lat="44.36322" lon="3.79445">
        <ele>1296</ele>
        <time>2022-10-29T09:08:28Z</time>
      </trkpt>
      <trkpt lat="44.36324" lon="3.79447">
        <ele>1296</ele>
        <time>2022-10-29T09:08:29Z</time>
      </trkpt>
      <trkpt lat="44.36326" lon="3.79449">
        <ele>1296.2</ele>
        <time>2022-10-29T09:08:30Z</time>
      </trkpt>
      <trkpt lat="44.36329" lon="3.79451">
        <ele>1296.2</ele>
        <time>2022-10-29T09:08:31Z</time>
      </trkpt>
      <trkpt lat="44.36332" lon="3.79454">
        <ele>1296.4</ele>
        <time>2022-10-29T09:08:32Z</time>
      </trkpt>
      <trkpt lat="44.36334" lon="3.79455">
        <ele>1296.6</ele>
        <time>2022-10-29T09:08:33Z</time>
      </trkpt>
      <trkpt lat="44.36337" lon="3.79457">
        <ele>1296.6</ele>
        <time>2022-10-29T09:08:34Z</time>
      </trkpt>
      <trkpt lat="44.3634" lon="3.79459">
        <ele>1296.8</ele>
        <time>2022-10-29T09:08:35Z</time>
      </trkpt>
      <trkpt lat="44.36343" lon="3.79461">
        <ele>1297</ele>
        <time>2022-10-29T09:08:36Z</time>
      </trkpt>
      <trkpt lat="44.36346" lon="3.79462">
        <ele>1297</ele>
        <time>2022-10-29T09:08:37Z</time>
      </trkpt>
      <trkpt lat="44.36349" lon="3.79465">
        <ele>1297</ele>
        <time>2022-10-29T09:08:38Z</time>
      </trkpt>
      <trkpt lat="44.36353" lon="3.79466">
        <ele>1297.2</ele>
        <time>2022-10-29T09:08:39Z</time>
      </trkpt>
      <trkpt lat="44.36356" lon="3.79468">
        <ele>1297.4</ele>
        <time>2022-10-29T09:08:40Z</time>
      </trkpt>
      <trkpt lat="44.36359" lon="3.79469">
        <ele>1297.6</ele>
        <time>2022-10-29T09:08:41Z</time>
      </trkpt>
      <trkpt lat="44.36362" lon="3.79471">
        <ele>1297.6</ele>
        <time>2022-10-29T09:08:42Z</time>
      </trkpt>
      <trkpt lat="44.36365" lon="3.79472">
        <ele>1298</ele>
        <time>2022-10-29T09:08:43Z</time>
      </trkpt>
      <trkpt lat="44.36369" lon="3.79472">
        <ele>1298.2</ele>
        <time>2022-10-29T09:08:44Z</time>
      </trkpt>
      <trkpt lat="44.36371" lon="3.79473">
        <ele>1298.4</ele>
        <time>2022-10-29T09:08:45Z</time>
      </trkpt>
      <trkpt lat="44.36374" lon="3.79473">
        <ele>1298.6</ele>
        <time>2022-10-29T09:08:46Z</time>
      </trkpt>
      <trkpt lat="44.36377" lon="3.79474">
        <ele>1298.8</ele>
        <time>2022-10-29T09:08:47Z</time>
      </trkpt>
      <trkpt lat="44.36379" lon="3.79475">
        <ele>1299</ele>
        <time>2022-10-29T09:08:48Z</time>
      </trkpt>
      <trkpt lat="44.36382" lon="3.79476">
        <ele>1299.2</ele>
        <time>2022-10-29T09:08:49Z</time>
      </trkpt>
      <trkpt lat="44.36384" lon="3.79477">
        <ele>1299.6</ele>
        <time>2022-10-29T09:08:50Z</time>
      </trkpt>
      <trkpt lat="44.36387" lon="3.79477">
        <ele>1299.8</ele>
        <time>2022-10-29T09:08:51Z</time>
      </trkpt>
      <trkpt lat="44.3639" lon="3.79478">
        <ele>1300</ele>
        <time>2022-10-29T09:08:52Z</time>
      </trkpt>
      <trkpt lat="44.36394" lon="3.79478">
        <ele>1300</ele>
        <time>2022-10-29T09:08:53Z</time>
      </trkpt>
      <trkpt lat="44.36397" lon="3.7948">
        <ele>1300.2</ele>
        <time>2022-10-29T09:08:54Z</time>
      </trkpt>
      <trkpt lat="44.36401" lon="3.79481">
        <ele>1300.4</ele>
        <time>2022-10-29T09:08:55Z</time>
      </trkpt>
      <trkpt lat="44.36404" lon="3.79482">
        <ele>1300.6</ele>
        <time>2022-10-29T09:08:56Z</time>
      </trkpt>
      <trkpt lat="44.36408" lon="3.79483">
        <ele>1300.8</ele>
        <time>2022-10-29T09:08:57Z</time>
      </trkpt>
      <trkpt lat="44.36411" lon="3.79483">
        <ele>1301</ele>
        <time>2022-10-29T09:08:58Z</time>
      </trkpt>
      <trkpt lat="44.36414" lon="3.79484">
        <ele>1301</ele>
        <time>2022-10-29T09:08:59Z</time>
      </trkpt>
      <trkpt lat="44.36417" lon="3.79485">
        <ele>1301.2</ele>
        <time>2022-10-29T09:09:00Z</time>
      </trkpt>
      <trkpt lat="44.36419" lon="3.79486">
        <ele>1301.4</ele>
        <time>2022-10-29T09:09:01Z</time>
      </trkpt>
      <trkpt lat="44.36422" lon="3.79486">
        <ele>1301.6</ele>
        <time>2022-10-29T09:09:02Z</time>
      </trkpt>
      <trkpt lat="44.36425" lon="3.79487">
        <ele>1301.6</ele>
        <time>2022-10-29T09:09:03Z</time>
      </trkpt>
      <trkpt lat="44.36429" lon="3.79487">
        <ele>1301.8</ele>
        <time>2022-10-29T09:09:04Z</time>
      </trkpt>
      <trkpt lat="44.36432" lon="3.79488">
        <ele>1301.8</ele>
        <time>2022-10-29T09:09:05Z</time>
      </trkpt>
      <trkpt lat="44.36436" lon="3.79489">
        <ele>1302</ele>
        <time>2022-10-29T09:09:06Z</time>
      </trkpt>
      <trkpt lat="44.36439" lon="3.79489">
        <ele>1302.2</ele>
        <time>2022-10-29T09:09:07Z</time>
      </trkpt>
      <trkpt lat="44.36442" lon="3.79489">
        <ele>1302.4</ele>
        <time>2022-10-29T09:09:08Z</time>
      </trkpt>
      <trkpt lat="44.36445" lon="3.7949">
        <ele>1302.4</ele>
        <time>2022-10-29T09:09:09Z</time>
      </trkpt>
      <trkpt lat="44.36449" lon="3.79491">
        <ele>1302.6</ele>
        <time>2022-10-29T09:09:10Z</time>
      </trkpt>
      <trkpt lat="44.36452" lon="3.79492">
        <ele>1302.8</ele>
        <time>2022-10-29T09:09:11Z</time>
      </trkpt>
      <trkpt lat="44.36456" lon="3.79493">
        <ele>1302.8</ele>
        <time>2022-10-29T09:09:12Z</time>
      </trkpt>
      <trkpt lat="44.36459" lon="3.79494">
        <ele>1303</ele>
        <time>2022-10-29T09:09:13Z</time>
      </trkpt>
      <trkpt lat="44.36462" lon="3.79495">
        <ele>1303.2</ele>
        <time>2022-10-29T09:09:14Z</time>
      </trkpt>
      <trkpt lat="44.36465" lon="3.79495">
        <ele>1303.4</ele>
        <time>2022-10-29T09:09:15Z</time>
      </trkpt>
      <trkpt lat="44.36469" lon="3.79496">
        <ele>1303.6</ele>
        <time>2022-10-29T09:09:16Z</time>
      </trkpt>
      <trkpt lat="44.36472" lon="3.79497">
        <ele>1303.6</ele>
        <time>2022-10-29T09:09:17Z</time>
      </trkpt>
      <trkpt lat="44.36474" lon="3.79498">
        <ele>1303.8</ele>
        <time>2022-10-29T09:09:18Z</time>
      </trkpt>
      <trkpt lat="44.36477" lon="3.79498">
        <ele>1304</ele>
        <time>2022-10-29T09:09:19Z</time>
      </trkpt>
      <trkpt lat="44.36479" lon="3.79499">
        <ele>1304.2</ele>
        <time>2022-10-29T09:09:20Z</time>
      </trkpt>
      <trkpt lat="44.36482" lon="3.79499">
        <ele>1304.4</ele>
        <time>2022-10-29T09:09:21Z</time>
      </trkpt>
      <trkpt lat="44.36485" lon="3.795">
        <ele>1304.6</ele>
        <time>2022-10-29T09:09:22Z</time>
      </trkpt>
      <trkpt lat="44.36487" lon="3.795">
        <ele>1304.6</ele>
        <time>2022-10-29T09:09:23Z</time>
      </trkpt>
      <trkpt lat="44.3649" lon="3.795">
        <ele>1304.8</ele>
        <time>2022-10-29T09:09:24Z</time>
      </trkpt>
      <trkpt lat="44.36493" lon="3.795">
        <ele>1305</ele>
        <time>2022-10-29T09:09:25Z</time>
      </trkpt>
      <trkpt lat="44.36496" lon="3.795">
        <ele>1305.2</ele>
        <time>2022-10-29T09:09:26Z</time>
      </trkpt>
      <trkpt lat="44.36499" lon="3.795">
        <ele>1305.4</ele>
        <time>2022-10-29T09:09:27Z</time>
      </trkpt>
      <trkpt lat="44.36502" lon="3.79499">
        <ele>1305.6</ele>
        <time>2022-10-29T09:09:28Z</time>
      </trkpt>
      <trkpt lat="44.36506" lon="3.795">
        <ele>1305.8</ele>
        <time>2022-10-29T09:09:29Z</time>
      </trkpt>
      <trkpt lat="44.36508" lon="3.795">
        <ele>1306</ele>
        <time>2022-10-29T09:09:30Z</time>
      </trkpt>
      <trkpt lat="44.36511" lon="3.795">
        <ele>1306.4</ele>
        <time>2022-10-29T09:09:31Z</time>
      </trkpt>
      <trkpt lat="44.36514" lon="3.795">
        <ele>1306.6</ele>
        <time>2022-10-29T09:09:32Z</time>
      </trkpt>
      <trkpt lat="44.36517" lon="3.795">
        <ele>1306.8</ele>
        <time>2022-10-29T09:09:33Z</time>
      </trkpt>
      <trkpt lat="44.3652" lon="3.795">
        <ele>1307</ele>
        <time>2022-10-29T09:09:34Z</time>
      </trkpt>
      <trkpt lat="44.36523" lon="3.79501">
        <ele>1307.4</ele>
        <time>2022-10-29T09:09:35Z</time>
      </trkpt>
      <trkpt lat="44.36526" lon="3.79501">
        <ele>1307.6</ele>
        <time>2022-10-29T09:09:36Z</time>
      </trkpt>
      <trkpt lat="44.36529" lon="3.79501">
        <ele>1307.8</ele>
        <time>2022-10-29T09:09:37Z</time>
      </trkpt>
      <trkpt lat="44.36532" lon="3.79501">
        <ele>1308.2</ele>
        <time>2022-10-29T09:09:38Z</time>
      </trkpt>
      <trkpt lat="44.36536" lon="3.79501">
        <ele>1308.4</ele>
        <time>2022-10-29T09:09:39Z</time>
      </trkpt>
      <trkpt lat="44.36539" lon="3.79501">
        <ele>1308.6</ele>
        <time>2022-10-29T09:09:40Z</time>
      </trkpt>
      <trkpt lat="44.36542" lon="3.79502">
        <ele>1308.8</ele>
        <time>2022-10-29T09:09:41Z</time>
      </trkpt>
      <trkpt lat="44.36545" lon="3.79502">
        <ele>1309</ele>
        <time>2022-10-29T09:09:42Z</time>
      </trkpt>
      <trkpt lat="44.36548" lon="3.79503">
        <ele>1309.2</ele>
        <time>2022-10-29T09:09:43Z</time>
      </trkpt>
      <trkpt lat="44.36551" lon="3.79503">
        <ele>1309.4</ele>
        <time>2022-10-29T09:09:44Z</time>
      </trkpt>
      <trkpt lat="44.36554" lon="3.79503">
        <ele>1309.6</ele>
        <time>2022-10-29T09:09:45Z</time>
      </trkpt>
      <trkpt lat="44.36557" lon="3.79504">
        <ele>1309.8</ele>
        <time>2022-10-29T09:09:46Z</time>
      </trkpt>
      <trkpt lat="44.36561" lon="3.79504">
        <ele>1310</ele>
        <time>2022-10-29T09:09:47Z</time>
      </trkpt>
      <trkpt lat="44.36564" lon="3.79505">
        <ele>1310.2</ele>
        <time>2022-10-29T09:09:48Z</time>
      </trkpt>
      <trkpt lat="44.36567" lon="3.79506">
        <ele>1310.2</ele>
        <time>2022-10-29T09:09:49Z</time>
      </trkpt>
      <trkpt lat="44.3657" lon="3.79506">
        <ele>1310.4</ele>
        <time>2022-10-29T09:09:50Z</time>
      </trkpt>
      <trkpt lat="44.36573" lon="3.79507">
        <ele>1310.4</ele>
        <time>2022-10-29T09:09:51Z</time>
      </trkpt>
      <trkpt lat="44.36577" lon="3.79508">
        <ele>1310.6</ele>
        <time>2022-10-29T09:09:52Z</time>
      </trkpt>
      <trkpt lat="44.3658" lon="3.79508">
        <ele>1310.8</ele>
        <time>2022-10-29T09:09:53Z</time>
      </trkpt>
      <trkpt lat="44.36583" lon="3.79508">
        <ele>1310.8</ele>
        <time>2022-10-29T09:09:54Z</time>
      </trkpt>
      <trkpt lat="44.36587" lon="3.79508">
        <ele>1311</ele>
        <time>2022-10-29T09:09:55Z</time>
      </trkpt>
      <trkpt lat="44.3659" lon="3.79509">
        <ele>1311</ele>
        <time>2022-10-29T09:09:56Z</time>
      </trkpt>
      <trkpt lat="44.36593" lon="3.79509">
        <ele>1311.2</ele>
        <time>2022-10-29T09:09:57Z</time>
      </trkpt>
      <trkpt lat="44.36596" lon="3.7951">
        <ele>1311.2</ele>
        <time>2022-10-29T09:09:58Z</time>
      </trkpt>
      <trkpt lat="44.366" lon="3.79511">
        <ele>1311.4</ele>
        <time>2022-10-29T09:09:59Z</time>
      </trkpt>
      <trkpt lat="44.36603" lon="3.79511">
        <ele>1311.4</ele>
        <time>2022-10-29T09:10:00Z</time>
      </trkpt>
      <trkpt lat="44.36606" lon="3.79512">
        <ele>1311.6</ele>
        <time>2022-10-29T09:10:01Z</time>
      </trkpt>
      <trkpt lat="44.36609" lon="3.79513">
        <ele>1311.6</ele>
        <time>2022-10-29T09:10:02Z</time>
      </trkpt>
      <trkpt lat="44.36613" lon="3.79513">
        <ele>1311.6</ele>
        <time>2022-10-29T09:10:03Z</time>
      </trkpt>
      <trkpt lat="44.36616" lon="3.79514">
        <ele>1311.8</ele>
        <time>2022-10-29T09:10:04Z</time>
      </trkpt>
      <trkpt lat="44.3662" lon="3.79516">
        <ele>1311.8</ele>
        <time>2022-10-29T09:10:05Z</time>
      </trkpt>
      <trkpt lat="44.36623" lon="3.79517">
        <ele>1311.8</ele>
        <time>2022-10-29T09:10:06Z</time>
      </trkpt>
      <trkpt lat="44.36627" lon="3.79517">
        <ele>1312</ele>
        <time>2022-10-29T09:10:07Z</time>
      </trkpt>
      <trkpt lat="44.36631" lon="3.79518">
        <ele>1312</ele>
        <time>2022-10-29T09:10:08Z</time>
      </trkpt>
      <trkpt lat="44.36635" lon="3.79518">
        <ele>1312</ele>
        <time>2022-10-29T09:10:09Z</time>
      </trkpt>
      <trkpt lat="44.36639" lon="3.79518">
        <ele>1312</ele>
        <time>2022-10-29T09:10:10Z</time>
      </trkpt>
      <trkpt lat="44.36643" lon="3.79517">
        <ele>1312</ele>
        <time>2022-10-29T09:10:11Z</time>
      </trkpt>
      <trkpt lat="44.36647" lon="3.79517">
        <ele>1312</ele>
        <time>2022-10-29T09:10:12Z</time>
      </trkpt>
      <trkpt lat="44.36651" lon="3.79517">
        <ele>1312</ele>
        <time>2022-10-29T09:10:13Z</time>
      </trkpt>
      <trkpt lat="44.36656" lon="3.79517">
        <ele>1311.8</ele>
        <time>2022-10-29T09:10:14Z</time>
      </trkpt>
      <trkpt lat="44.3666" lon="3.79518">
        <ele>1311.8</ele>
        <time>2022-10-29T09:10:15Z</time>
      </trkpt>
      <trkpt lat="44.36664" lon="3.79519">
        <ele>1311.8</ele>
        <time>2022-10-29T09:10:16Z</time>
      </trkpt>
      <trkpt lat="44.36669" lon="3.7952">
        <ele>1311.8</ele>
        <time>2022-10-29T09:10:17Z</time>
      </trkpt>
      <trkpt lat="44.36672" lon="3.79521">
        <ele>1311.8</ele>
        <time>2022-10-29T09:10:18Z</time>
      </trkpt>
      <trkpt lat="44.36677" lon="3.79521">
        <ele>1311.8</ele>
        <time>2022-10-29T09:10:19Z</time>
      </trkpt>
      <trkpt lat="44.36681" lon="3.79522">
        <ele>1311.6</ele>
        <time>2022-10-29T09:10:20Z</time>
      </trkpt>
      <trkpt lat="44.36685" lon="3.79522">
        <ele>1311.4</ele>
        <time>2022-10-29T09:10:21Z</time>
      </trkpt>
      <trkpt lat="44.36689" lon="3.79522">
        <ele>1311.4</ele>
        <time>2022-10-29T09:10:22Z</time>
      </trkpt>
      <trkpt lat="44.36694" lon="3.79523">
        <ele>1311.2</ele>
        <time>2022-10-29T09:10:23Z</time>
      </trkpt>
      <trkpt lat="44.36697" lon="3.79523">
        <ele>1311.2</ele>
        <time>2022-10-29T09:10:24Z</time>
      </trkpt>
      <trkpt lat="44.36702" lon="3.79523">
        <ele>1311</ele>
        <time>2022-10-29T09:10:25Z</time>
      </trkpt>
      <trkpt lat="44.36706" lon="3.79524">
        <ele>1311</ele>
        <time>2022-10-29T09:10:26Z</time>
      </trkpt>
      <trkpt lat="44.3671" lon="3.79524">
        <ele>1310.8</ele>
        <time>2022-10-29T09:10:27Z</time>
      </trkpt>
      <trkpt lat="44.36714" lon="3.79525">
        <ele>1310.8</ele>
        <time>2022-10-29T09:10:28Z</time>
      </trkpt>
      <trkpt lat="44.36719" lon="3.79525">
        <ele>1310.8</ele>
        <time>2022-10-29T09:10:29Z</time>
      </trkpt>
      <trkpt lat="44.36723" lon="3.79525">
        <ele>1310.6</ele>
        <time>2022-10-29T09:10:30Z</time>
      </trkpt>
      <trkpt lat="44.36728" lon="3.79525">
        <ele>1310.4</ele>
        <time>2022-10-29T09:10:31Z</time>
      </trkpt>
      <trkpt lat="44.36733" lon="3.79526">
        <ele>1310.4</ele>
        <time>2022-10-29T09:10:32Z</time>
      </trkpt>
      <trkpt lat="44.36738" lon="3.79527">
        <ele>1310.2</ele>
        <time>2022-10-29T09:10:33Z</time>
      </trkpt>
      <trkpt lat="44.36742" lon="3.79529">
        <ele>1310</ele>
        <time>2022-10-29T09:10:34Z</time>
      </trkpt>
      <trkpt lat="44.36747" lon="3.7953">
        <ele>1310</ele>
        <time>2022-10-29T09:10:35Z</time>
      </trkpt>
      <trkpt lat="44.36752" lon="3.79531">
        <ele>1309.8</ele>
        <time>2022-10-29T09:10:36Z</time>
      </trkpt>
      <trkpt lat="44.36756" lon="3.79531">
        <ele>1309.8</ele>
        <time>2022-10-29T09:10:37Z</time>
      </trkpt>
      <trkpt lat="44.36761" lon="3.79532">
        <ele>1309.6</ele>
        <time>2022-10-29T09:10:38Z</time>
      </trkpt>
      <trkpt lat="44.36765" lon="3.79533">
        <ele>1309.6</ele>
        <time>2022-10-29T09:10:39Z</time>
      </trkpt>
      <trkpt lat="44.36769" lon="3.79533">
        <ele>1309.4</ele>
        <time>2022-10-29T09:10:40Z</time>
      </trkpt>
      <trkpt lat="44.36774" lon="3.79534">
        <ele>1309.4</ele>
        <time>2022-10-29T09:10:41Z</time>
      </trkpt>
      <trkpt lat="44.36778" lon="3.79535">
        <ele>1309.2</ele>
        <time>2022-10-29T09:10:42Z</time>
      </trkpt>
      <trkpt lat="44.36783" lon="3.79535">
        <ele>1309</ele>
        <time>2022-10-29T09:10:43Z</time>
      </trkpt>
      <trkpt lat="44.36788" lon="3.79535">
        <ele>1308.8</ele>
        <time>2022-10-29T09:10:44Z</time>
      </trkpt>
      <trkpt lat="44.36793" lon="3.79534">
        <ele>1308.6</ele>
        <time>2022-10-29T09:10:45Z</time>
      </trkpt>
      <trkpt lat="44.36798" lon="3.79534">
        <ele>1308.4</ele>
        <time>2022-10-29T09:10:46Z</time>
      </trkpt>
      <trkpt lat="44.36804" lon="3.79534">
        <ele>1308.2</ele>
        <time>2022-10-29T09:10:47Z</time>
      </trkpt>
      <trkpt lat="44.3681" lon="3.79534">
        <ele>1308</ele>
        <time>2022-10-29T09:10:48Z</time>
      </trkpt>
      <trkpt lat="44.36814" lon="3.79535">
        <ele>1307.8</ele>
        <time>2022-10-29T09:10:49Z</time>
      </trkpt>
      <trkpt lat="44.3682" lon="3.79535">
        <ele>1307.4</ele>
        <time>2022-10-29T09:10:50Z</time>
      </trkpt>
      <trkpt lat="44.36825" lon="3.79534">
        <ele>1307.2</ele>
        <time>2022-10-29T09:10:51Z</time>
      </trkpt>
      <trkpt lat="44.3683" lon="3.79533">
        <ele>1307</ele>
        <time>2022-10-29T09:10:52Z</time>
      </trkpt>
      <trkpt lat="44.36835" lon="3.79533">
        <ele>1306.8</ele>
        <time>2022-10-29T09:10:53Z</time>
      </trkpt>
      <trkpt lat="44.36839" lon="3.79532">
        <ele>1306.6</ele>
        <time>2022-10-29T09:10:54Z</time>
      </trkpt>
      <trkpt lat="44.36844" lon="3.79531">
        <ele>1306.6</ele>
        <time>2022-10-29T09:10:55Z</time>
      </trkpt>
      <trkpt lat="44.36848" lon="3.7953">
        <ele>1306.4</ele>
        <time>2022-10-29T09:10:56Z</time>
      </trkpt>
      <trkpt lat="44.36852" lon="3.79529">
        <ele>1306.4</ele>
        <time>2022-10-29T09:10:57Z</time>
      </trkpt>
      <trkpt lat="44.36857" lon="3.79528">
        <ele>1306.2</ele>
        <time>2022-10-29T09:10:58Z</time>
      </trkpt>
      <trkpt lat="44.3686" lon="3.79527">
        <ele>1306.2</ele>
        <time>2022-10-29T09:10:59Z</time>
      </trkpt>
      <trkpt lat="44.36864" lon="3.79526">
        <ele>1306.2</ele>
        <time>2022-10-29T09:11:00Z</time>
      </trkpt>
      <trkpt lat="44.36867" lon="3.79526">
        <ele>1306.2</ele>
        <time>2022-10-29T09:11:01Z</time>
      </trkpt>
      <trkpt lat="44.3687" lon="3.79526">
        <ele>1306.2</ele>
        <time>2022-10-29T09:11:02Z</time>
      </trkpt>
      <trkpt lat="44.36873" lon="3.79526">
        <ele>1306</ele>
        <time>2022-10-29T09:11:03Z</time>
      </trkpt>
      <trkpt lat="44.36877" lon="3.79526">
        <ele>1306</ele>
        <time>2022-10-29T09:11:04Z</time>
      </trkpt>
      <trkpt lat="44.3688" lon="3.79525">
        <ele>1306</ele>
        <time>2022-10-29T09:11:05Z</time>
      </trkpt>
      <trkpt lat="44.36883" lon="3.79526">
        <ele>1305.8</ele>
        <time>2022-10-29T09:11:06Z</time>
      </trkpt>
      <trkpt lat="44.36886" lon="3.79526">
        <ele>1305.8</ele>
        <time>2022-10-29T09:11:07Z</time>
      </trkpt>
      <trkpt lat="44.36889" lon="3.79526">
        <ele>1305.6</ele>
        <time>2022-10-29T09:11:08Z</time>
      </trkpt>
      <trkpt lat="44.3689" lon="3.79525">
        <ele>1305.4</ele>
        <time>2022-10-29T09:11:09Z</time>
      </trkpt>
      <trkpt lat="44.36891" lon="3.79523">
        <ele>1305.4</ele>
        <time>2022-10-29T09:11:10Z</time>
      </trkpt>
      <trkpt lat="44.36891" lon="3.79521">
        <ele>1305.2</ele>
        <time>2022-10-29T09:11:11Z</time>
      </trkpt>
      <trkpt lat="44.3689" lon="3.79519">
        <ele>1305</ele>
        <time>2022-10-29T09:11:12Z</time>
      </trkpt>
      <trkpt lat="44.36888" lon="3.79517">
        <ele>1305</ele>
        <time>2022-10-29T09:11:13Z</time>
      </trkpt>
      <trkpt lat="44.36886" lon="3.79516">
        <ele>1304.8</ele>
        <time>2022-10-29T09:11:14Z</time>
      </trkpt>
      <trkpt lat="44.36885" lon="3.79516">
        <ele>1304.8</ele>
        <time>2022-10-29T09:11:15Z</time>
      </trkpt>
      <trkpt lat="44.36883" lon="3.79515">
        <ele>1304.8</ele>
        <time>2022-10-29T09:11:16Z</time>
      </trkpt>
      <trkpt lat="44.3688" lon="3.79516">
        <ele>1304.8</ele>
        <time>2022-10-29T09:11:17Z</time>
      </trkpt>
      <trkpt lat="44.36878" lon="3.79516">
        <ele>1304.8</ele>
        <time>2022-10-29T09:11:18Z</time>
      </trkpt>
      <trkpt lat="44.36876" lon="3.79515">
        <ele>1304.8</ele>
        <time>2022-10-29T09:11:19Z</time>
      </trkpt>
      <trkpt lat="44.36874" lon="3.79515">
        <ele>1304.8</ele>
        <time>2022-10-29T09:11:20Z</time>
      </trkpt>
      <trkpt lat="44.36871" lon="3.79515">
        <ele>1304.8</ele>
        <time>2022-10-29T09:11:21Z</time>
      </trkpt>
      <trkpt lat="44.36869" lon="3.79515">
        <ele>1304.8</ele>
        <time>2022-10-29T09:11:22Z</time>
      </trkpt>
      <trkpt lat="44.36867" lon="3.79515">
        <ele>1304.8</ele>
        <time>2022-10-29T09:11:23Z</time>
      </trkpt>
      <trkpt lat="44.36864" lon="3.79514">
        <ele>1304.8</ele>
        <time>2022-10-29T09:11:24Z</time>
      </trkpt>
      <trkpt lat="44.36862" lon="3.79514">
        <ele>1304.8</ele>
        <time>2022-10-29T09:11:25Z</time>
      </trkpt>
      <trkpt lat="44.3686" lon="3.79514">
        <ele>1304.8</ele>
        <time>2022-10-29T09:11:26Z</time>
      </trkpt>
      <trkpt lat="44.36857" lon="3.79513">
        <ele>1304.8</ele>
        <time>2022-10-29T09:11:27Z</time>
      </trkpt>
      <trkpt lat="44.36855" lon="3.79512">
        <ele>1304.8</ele>
        <time>2022-10-29T09:11:28Z</time>
      </trkpt>
      <trkpt lat="44.36853" lon="3.7951">
        <ele>1304.6</ele>
        <time>2022-10-29T09:11:29Z</time>
      </trkpt>
      <trkpt lat="44.36851" lon="3.79509">
        <ele>1304.6</ele>
        <time>2022-10-29T09:11:30Z</time>
      </trkpt>
      <trkpt lat="44.3685" lon="3.79507">
        <ele>1304.4</ele>
        <time>2022-10-29T09:11:31Z</time>
      </trkpt>
      <trkpt lat="44.36848" lon="3.79505">
        <ele>1304.4</ele>
        <time>2022-10-29T09:11:32Z</time>
      </trkpt>
      <trkpt lat="44.36847" lon="3.79503">
        <ele>1304.2</ele>
        <time>2022-10-29T09:11:33Z</time>
      </trkpt>
      <trkpt lat="44.36846" lon="3.79501">
        <ele>1304.2</ele>
        <time>2022-10-29T09:11:34Z</time>
      </trkpt>
      <trkpt lat="44.36844" lon="3.79501">
        <ele>1304</ele>
        <time>2022-10-29T09:11:35Z</time>
      </trkpt>
      <trkpt lat="44.36842" lon="3.795">
        <ele>1304</ele>
        <time>2022-10-29T09:11:36Z</time>
      </trkpt>
      <trkpt lat="44.36841" lon="3.79498">
        <ele>1303.8</ele>
        <time>2022-10-29T09:11:37Z</time>
      </trkpt>
      <trkpt lat="44.36838" lon="3.79497">
        <ele>1303.8</ele>
        <time>2022-10-29T09:11:38Z</time>
      </trkpt>
      <trkpt lat="44.36837" lon="3.79495">
        <ele>1303.6</ele>
        <time>2022-10-29T09:11:39Z</time>
      </trkpt>
      <trkpt lat="44.36835" lon="3.79494">
        <ele>1303.6</ele>
        <time>2022-10-29T09:11:40Z</time>
      </trkpt>
      <trkpt lat="44.36833" lon="3.79492">
        <ele>1303.6</ele>
        <time>2022-10-29T09:11:41Z</time>
      </trkpt>
      <trkpt lat="44.36831" lon="3.7949">
        <ele>1303.4</ele>
        <time>2022-10-29T09:11:42Z</time>
      </trkpt>
      <trkpt lat="44.36829" lon="3.79487">
        <ele>1303.4</ele>
        <time>2022-10-29T09:11:43Z</time>
      </trkpt>
      <trkpt lat="44.36827" lon="3.79485">
        <ele>1303.2</ele>
        <time>2022-10-29T09:11:44Z</time>
      </trkpt>
      <trkpt lat="44.36826" lon="3.79483">
        <ele>1303.2</ele>
        <time>2022-10-29T09:11:45Z</time>
      </trkpt>
      <trkpt lat="44.36826" lon="3.79481">
        <ele>1303</ele>
        <time>2022-10-29T09:11:46Z</time>
      </trkpt>
      <trkpt lat="44.36825" lon="3.79478">
        <ele>1303</ele>
        <time>2022-10-29T09:11:47Z</time>
      </trkpt>
      <trkpt lat="44.36824" lon="3.79476">
        <ele>1302.8</ele>
        <time>2022-10-29T09:11:48Z</time>
      </trkpt>
      <trkpt lat="44.36822" lon="3.79474">
        <ele>1302.6</ele>
        <time>2022-10-29T09:11:49Z</time>
      </trkpt>
      <trkpt lat="44.36821" lon="3.79471">
        <ele>1302.6</ele>
        <time>2022-10-29T09:11:50Z</time>
      </trkpt>
      <trkpt lat="44.36819" lon="3.79468">
        <ele>1302.4</ele>
        <time>2022-10-29T09:11:51Z</time>
      </trkpt>
      <trkpt lat="44.36817" lon="3.79465">
        <ele>1302.4</ele>
        <time>2022-10-29T09:11:52Z</time>
      </trkpt>
      <trkpt lat="44.36815" lon="3.79461">
        <ele>1302.4</ele>
        <time>2022-10-29T09:11:53Z</time>
      </trkpt>
      <trkpt lat="44.36813" lon="3.79457">
        <ele>1302.2</ele>
        <time>2022-10-29T09:11:54Z</time>
      </trkpt>
      <trkpt lat="44.3681" lon="3.79453">
        <ele>1302.2</ele>
        <time>2022-10-29T09:11:55Z</time>
      </trkpt>
      <trkpt lat="44.36808" lon="3.79449">
        <ele>1302.2</ele>
        <time>2022-10-29T09:11:56Z</time>
      </trkpt>
      <trkpt lat="44.36807" lon="3.79444">
        <ele>1302.2</ele>
        <time>2022-10-29T09:11:57Z</time>
      </trkpt>
      <trkpt lat="44.36806" lon="3.7944">
        <ele>1302.2</ele>
        <time>2022-10-29T09:11:58Z</time>
      </trkpt>
      <trkpt lat="44.36804" lon="3.79436">
        <ele>1302.2</ele>
        <time>2022-10-29T09:11:59Z</time>
      </trkpt>
      <trkpt lat="44.36802" lon="3.79432">
        <ele>1302.2</ele>
        <time>2022-10-29T09:12:00Z</time>
      </trkpt>
      <trkpt lat="44.368" lon="3.79429">
        <ele>1302</ele>
        <time>2022-10-29T09:12:01Z</time>
      </trkpt>
      <trkpt lat="44.36797" lon="3.79425">
        <ele>1302</ele>
        <time>2022-10-29T09:12:02Z</time>
      </trkpt>
      <trkpt lat="44.36794" lon="3.79423">
        <ele>1302</ele>
        <time>2022-10-29T09:12:03Z</time>
      </trkpt>
      <trkpt lat="44.36791" lon="3.79421">
        <ele>1302</ele>
        <time>2022-10-29T09:12:04Z</time>
      </trkpt>
      <trkpt lat="44.36789" lon="3.79419">
        <ele>1302.2</ele>
        <time>2022-10-29T09:12:05Z</time>
      </trkpt>
      <trkpt lat="44.36787" lon="3.79417">
        <ele>1302.2</ele>
        <time>2022-10-29T09:12:06Z</time>
      </trkpt>
      <trkpt lat="44.36785" lon="3.79415">
        <ele>1302.4</ele>
        <time>2022-10-29T09:12:07Z</time>
      </trkpt>
      <trkpt lat="44.36783" lon="3.79413">
        <ele>1302.4</ele>
        <time>2022-10-29T09:12:08Z</time>
      </trkpt>
      <trkpt lat="44.3678" lon="3.79411">
        <ele>1302.6</ele>
        <time>2022-10-29T09:12:09Z</time>
      </trkpt>
      <trkpt lat="44.36778" lon="3.7941">
        <ele>1302.8</ele>
        <time>2022-10-29T09:12:10Z</time>
      </trkpt>
      <trkpt lat="44.36776" lon="3.7941">
        <ele>1303</ele>
        <time>2022-10-29T09:12:11Z</time>
      </trkpt>
      <trkpt lat="44.36774" lon="3.7941">
        <ele>1303.2</ele>
        <time>2022-10-29T09:12:12Z</time>
      </trkpt>
      <trkpt lat="44.36772" lon="3.7941">
        <ele>1303.2</ele>
        <time>2022-10-29T09:12:13Z</time>
      </trkpt>
      <trkpt lat="44.36769" lon="3.7941">
        <ele>1303.4</ele>
        <time>2022-10-29T09:12:14Z</time>
      </trkpt>
      <trkpt lat="44.36767" lon="3.79411">
        <ele>1303.6</ele>
        <time>2022-10-29T09:12:15Z</time>
      </trkpt>
      <trkpt lat="44.36765" lon="3.7941">
        <ele>1303.8</ele>
        <time>2022-10-29T09:12:16Z</time>
      </trkpt>
      <trkpt lat="44.36764" lon="3.7941">
        <ele>1304</ele>
        <time>2022-10-29T09:12:17Z</time>
      </trkpt>
      <trkpt lat="44.36762" lon="3.79408">
        <ele>1304.2</ele>
        <time>2022-10-29T09:12:18Z</time>
      </trkpt>
      <trkpt lat="44.3676" lon="3.79406">
        <ele>1304.4</ele>
        <time>2022-10-29T09:12:19Z</time>
      </trkpt>
      <trkpt lat="44.36759" lon="3.79403">
        <ele>1304.4</ele>
        <time>2022-10-29T09:12:20Z</time>
      </trkpt>
      <trkpt lat="44.36758" lon="3.79401">
        <ele>1304.6</ele>
        <time>2022-10-29T09:12:21Z</time>
      </trkpt>
      <trkpt lat="44.36756" lon="3.79399">
        <ele>1304.6</ele>
        <time>2022-10-29T09:12:22Z</time>
      </trkpt>
      <trkpt lat="44.36755" lon="3.79396">
        <ele>1304.8</ele>
        <time>2022-10-29T09:12:23Z</time>
      </trkpt>
      <trkpt lat="44.36754" lon="3.79394">
        <ele>1305</ele>
        <time>2022-10-29T09:12:24Z</time>
      </trkpt>
      <trkpt lat="44.36752" lon="3.79391">
        <ele>1305.2</ele>
        <time>2022-10-29T09:12:25Z</time>
      </trkpt>
      <trkpt lat="44.36751" lon="3.79388">
        <ele>1305.2</ele>
        <time>2022-10-29T09:12:26Z</time>
      </trkpt>
      <trkpt lat="44.3675" lon="3.79385">
        <ele>1305.4</ele>
        <time>2022-10-29T09:12:27Z</time>
      </trkpt>
      <trkpt lat="44.3675" lon="3.79381">
        <ele>1305.6</ele>
        <time>2022-10-29T09:12:28Z</time>
      </trkpt>
      <trkpt lat="44.36749" lon="3.79378">
        <ele>1305.6</ele>
        <time>2022-10-29T09:12:29Z</time>
      </trkpt>
      <trkpt lat="44.36748" lon="3.79375">
        <ele>1305.6</ele>
        <time>2022-10-29T09:12:30Z</time>
      </trkpt>
      <trkpt lat="44.36748" lon="3.79372">
        <ele>1305.8</ele>
        <time>2022-10-29T09:12:31Z</time>
      </trkpt>
      <trkpt lat="44.36749" lon="3.79369">
        <ele>1305.8</ele>
        <time>2022-10-29T09:12:32Z</time>
      </trkpt>
      <trkpt lat="44.3675" lon="3.79366">
        <ele>1305.8</ele>
        <time>2022-10-29T09:12:33Z</time>
      </trkpt>
      <trkpt lat="44.36752" lon="3.79363">
        <ele>1305.8</ele>
        <time>2022-10-29T09:12:34Z</time>
      </trkpt>
      <trkpt lat="44.36754" lon="3.79359">
        <ele>1305.6</ele>
        <time>2022-10-29T09:12:35Z</time>
      </trkpt>
      <trkpt lat="44.36755" lon="3.79356">
        <ele>1305.6</ele>
        <time>2022-10-29T09:12:36Z</time>
      </trkpt>
      <trkpt lat="44.36757" lon="3.79352">
        <ele>1305.4</ele>
        <time>2022-10-29T09:12:37Z</time>
      </trkpt>
      <trkpt lat="44.36759" lon="3.79348">
        <ele>1305</ele>
        <time>2022-10-29T09:12:38Z</time>
      </trkpt>
      <trkpt lat="44.3676" lon="3.79345">
        <ele>1305</ele>
        <time>2022-10-29T09:12:39Z</time>
      </trkpt>
      <trkpt lat="44.36762" lon="3.79342">
        <ele>1304.8</ele>
        <time>2022-10-29T09:12:40Z</time>
      </trkpt>
      <trkpt lat="44.36764" lon="3.79337">
        <ele>1304.6</ele>
        <time>2022-10-29T09:12:41Z</time>
      </trkpt>
      <trkpt lat="44.36765" lon="3.79333">
        <ele>1304.4</ele>
        <time>2022-10-29T09:12:42Z</time>
      </trkpt>
      <trkpt lat="44.36765" lon="3.79329">
        <ele>1304.2</ele>
        <time>2022-10-29T09:12:43Z</time>
      </trkpt>
      <trkpt lat="44.36766" lon="3.79326">
        <ele>1304</ele>
        <time>2022-10-29T09:12:44Z</time>
      </trkpt>
      <trkpt lat="44.36766" lon="3.79322">
        <ele>1303.8</ele>
        <time>2022-10-29T09:12:45Z</time>
      </trkpt>
      <trkpt lat="44.36767" lon="3.79318">
        <ele>1303.6</ele>
        <time>2022-10-29T09:12:46Z</time>
      </trkpt>
      <trkpt lat="44.36767" lon="3.79315">
        <ele>1303.4</ele>
        <time>2022-10-29T09:12:47Z</time>
      </trkpt>
      <trkpt lat="44.36768" lon="3.79312">
        <ele>1303.2</ele>
        <time>2022-10-29T09:12:48Z</time>
      </trkpt>
      <trkpt lat="44.36768" lon="3.79309">
        <ele>1303.2</ele>
        <time>2022-10-29T09:12:49Z</time>
      </trkpt>
      <trkpt lat="44.36768" lon="3.79306">
        <ele>1303</ele>
        <time>2022-10-29T09:12:50Z</time>
      </trkpt>
      <trkpt lat="44.36768" lon="3.79303">
        <ele>1303</ele>
        <time>2022-10-29T09:12:51Z</time>
      </trkpt>
      <trkpt lat="44.36767" lon="3.79301">
        <ele>1302.8</ele>
        <time>2022-10-29T09:12:52Z</time>
      </trkpt>
      <trkpt lat="44.36766" lon="3.79298">
        <ele>1302.8</ele>
        <time>2022-10-29T09:12:53Z</time>
      </trkpt>
      <trkpt lat="44.36765" lon="3.79297">
        <ele>1302.8</ele>
        <time>2022-10-29T09:12:54Z</time>
      </trkpt>
      <trkpt lat="44.36764" lon="3.79293">
        <ele>1303</ele>
        <time>2022-10-29T09:12:59Z</time>
      </trkpt>
      <trkpt lat="44.36764" lon="3.79292">
        <ele>1303</ele>
        <time>2022-10-29T09:13:00Z</time>
      </trkpt>
      <trkpt lat="44.36764" lon="3.79291">
        <ele>1303</ele>
        <time>2022-10-29T09:13:01Z</time>
      </trkpt>
      <trkpt lat="44.36765" lon="3.79291">
        <ele>1303.2</ele>
        <time>2022-10-29T09:13:02Z</time>
      </trkpt>
      <trkpt lat="44.36764" lon="3.7929">
        <ele>1303.2</ele>
        <time>2022-10-29T09:13:03Z</time>
      </trkpt>
      <trkpt lat="44.36764" lon="3.79289">
        <ele>1303.4</ele>
        <time>2022-10-29T09:13:04Z</time>
      </trkpt>
      <trkpt lat="44.36764" lon="3.79288">
        <ele>1303.6</ele>
        <time>2022-10-29T09:13:05Z</time>
      </trkpt>
      <trkpt lat="44.36765" lon="3.79287">
        <ele>1303.6</ele>
        <time>2022-10-29T09:13:06Z</time>
      </trkpt>
      <trkpt lat="44.36764" lon="3.79286">
        <ele>1303.8</ele>
        <time>2022-10-29T09:13:07Z</time>
      </trkpt>
      <trkpt lat="44.36764" lon="3.79285">
        <ele>1303.8</ele>
        <time>2022-10-29T09:13:08Z</time>
      </trkpt>
      <trkpt lat="44.36764" lon="3.79283">
        <ele>1304</ele>
        <time>2022-10-29T09:13:09Z</time>
      </trkpt>
      <trkpt lat="44.36764" lon="3.79282">
        <ele>1304</ele>
        <time>2022-10-29T09:13:10Z</time>
      </trkpt>
      <trkpt lat="44.36763" lon="3.7928">
        <ele>1304</ele>
        <time>2022-10-29T09:13:11Z</time>
      </trkpt>
      <trkpt lat="44.36763" lon="3.79279">
        <ele>1304.2</ele>
        <time>2022-10-29T09:13:12Z</time>
      </trkpt>
      <trkpt lat="44.36763" lon="3.79278">
        <ele>1304.2</ele>
        <time>2022-10-29T09:13:13Z</time>
      </trkpt>
      <trkpt lat="44.36763" lon="3.79276">
        <ele>1304.4</ele>
        <time>2022-10-29T09:13:14Z</time>
      </trkpt>
      <trkpt lat="44.36763" lon="3.79275">
        <ele>1304.4</ele>
        <time>2022-10-29T09:13:15Z</time>
      </trkpt>
      <trkpt lat="44.36762" lon="3.79274">
        <ele>1304.6</ele>
        <time>2022-10-29T09:13:16Z</time>
      </trkpt>
      <trkpt lat="44.36762" lon="3.79273">
        <ele>1304.6</ele>
        <time>2022-10-29T09:13:17Z</time>
      </trkpt>
      <trkpt lat="44.36761" lon="3.79273">
        <ele>1304.8</ele>
        <time>2022-10-29T09:13:18Z</time>
      </trkpt>
      <trkpt lat="44.36761" lon="3.79272">
        <ele>1304.8</ele>
        <time>2022-10-29T09:13:19Z</time>
      </trkpt>
      <trkpt lat="44.3676" lon="3.79271">
        <ele>1305</ele>
        <time>2022-10-29T09:13:20Z</time>
      </trkpt>
      <trkpt lat="44.3676" lon="3.7927">
        <ele>1305</ele>
        <time>2022-10-29T09:13:21Z</time>
      </trkpt>
      <trkpt lat="44.36759" lon="3.79268">
        <ele>1305.2</ele>
        <time>2022-10-29T09:13:22Z</time>
      </trkpt>
      <trkpt lat="44.36759" lon="3.79267">
        <ele>1305.2</ele>
        <time>2022-10-29T09:13:23Z</time>
      </trkpt>
      <trkpt lat="44.36759" lon="3.79265">
        <ele>1305.4</ele>
        <time>2022-10-29T09:13:24Z</time>
      </trkpt>
      <trkpt lat="44.36758" lon="3.79264">
        <ele>1305.4</ele>
        <time>2022-10-29T09:13:25Z</time>
      </trkpt>
      <trkpt lat="44.36758" lon="3.79262">
        <ele>1305.6</ele>
        <time>2022-10-29T09:13:26Z</time>
      </trkpt>
      <trkpt lat="44.36758" lon="3.79261">
        <ele>1305.6</ele>
        <time>2022-10-29T09:13:27Z</time>
      </trkpt>
      <trkpt lat="44.36758" lon="3.79259">
        <ele>1305.6</ele>
        <time>2022-10-29T09:13:28Z</time>
      </trkpt>
      <trkpt lat="44.36758" lon="3.79258">
        <ele>1305.8</ele>
        <time>2022-10-29T09:13:29Z</time>
      </trkpt>
      <trkpt lat="44.36757" lon="3.79256">
        <ele>1305.8</ele>
        <time>2022-10-29T09:13:30Z</time>
      </trkpt>
      <trkpt lat="44.36757" lon="3.79255">
        <ele>1306</ele>
        <time>2022-10-29T09:13:31Z</time>
      </trkpt>
      <trkpt lat="44.36756" lon="3.79254">
        <ele>1306</ele>
        <time>2022-10-29T09:13:32Z</time>
      </trkpt>
      <trkpt lat="44.36755" lon="3.79253">
        <ele>1306</ele>
        <time>2022-10-29T09:13:33Z</time>
      </trkpt>
      <trkpt lat="44.36754" lon="3.79252">
        <ele>1306.2</ele>
        <time>2022-10-29T09:13:34Z</time>
      </trkpt>
      <trkpt lat="44.36754" lon="3.79251">
        <ele>1306.2</ele>
        <time>2022-10-29T09:13:35Z</time>
      </trkpt>
      <trkpt lat="44.36753" lon="3.79249">
        <ele>1306.2</ele>
        <time>2022-10-29T09:13:36Z</time>
      </trkpt>
      <trkpt lat="44.36752" lon="3.79248">
        <ele>1306.4</ele>
        <time>2022-10-29T09:13:37Z</time>
      </trkpt>
      <trkpt lat="44.36752" lon="3.79246">
        <ele>1306.4</ele>
        <time>2022-10-29T09:13:38Z</time>
      </trkpt>
      <trkpt lat="44.36752" lon="3.79245">
        <ele>1306.6</ele>
        <time>2022-10-29T09:13:39Z</time>
      </trkpt>
      <trkpt lat="44.36752" lon="3.79243">
        <ele>1306.6</ele>
        <time>2022-10-29T09:13:40Z</time>
      </trkpt>
      <trkpt lat="44.36752" lon="3.79242">
        <ele>1306.8</ele>
        <time>2022-10-29T09:13:41Z</time>
      </trkpt>
      <trkpt lat="44.36752" lon="3.7924">
        <ele>1306.8</ele>
        <time>2022-10-29T09:13:42Z</time>
      </trkpt>
      <trkpt lat="44.36752" lon="3.79239">
        <ele>1307</ele>
        <time>2022-10-29T09:13:43Z</time>
      </trkpt>
      <trkpt lat="44.36752" lon="3.79237">
        <ele>1307</ele>
        <time>2022-10-29T09:13:44Z</time>
      </trkpt>
      <trkpt lat="44.36752" lon="3.79236">
        <ele>1307.2</ele>
        <time>2022-10-29T09:13:45Z</time>
      </trkpt>
      <trkpt lat="44.36752" lon="3.79234">
        <ele>1307.2</ele>
        <time>2022-10-29T09:13:46Z</time>
      </trkpt>
      <trkpt lat="44.36752" lon="3.79233">
        <ele>1307.2</ele>
        <time>2022-10-29T09:13:47Z</time>
      </trkpt>
      <trkpt lat="44.36751" lon="3.79232">
        <ele>1307.4</ele>
        <time>2022-10-29T09:13:48Z</time>
      </trkpt>
      <trkpt lat="44.36751" lon="3.79232">
        <ele>1307.4</ele>
        <time>2022-10-29T09:13:49Z</time>
      </trkpt>
      <trkpt lat="44.36751" lon="3.79232">
        <ele>1307.4</ele>
        <time>2022-10-29T09:13:50Z</time>
      </trkpt>
      <trkpt lat="44.36751" lon="3.79232">
        <ele>1307.4</ele>
        <time>2022-10-29T09:13:51Z</time>
      </trkpt>
      <trkpt lat="44.3675" lon="3.79231">
        <ele>1307.6</ele>
        <time>2022-10-29T09:14:04Z</time>
      </trkpt>
      <trkpt lat="44.36749" lon="3.79229">
        <ele>1307.6</ele>
        <time>2022-10-29T09:14:05Z</time>
      </trkpt>
      <trkpt lat="44.36748" lon="3.79226">
        <ele>1307.6</ele>
        <time>2022-10-29T09:14:06Z</time>
      </trkpt>
      <trkpt lat="44.36746" lon="3.79223">
        <ele>1307.6</ele>
        <time>2022-10-29T09:14:07Z</time>
      </trkpt>
      <trkpt lat="44.36745" lon="3.79219">
        <ele>1307.6</ele>
        <time>2022-10-29T09:14:08Z</time>
      </trkpt>
      <trkpt lat="44.36743" lon="3.79216">
        <ele>1307.8</ele>
        <time>2022-10-29T09:14:09Z</time>
      </trkpt>
      <trkpt lat="44.36742" lon="3.79214">
        <ele>1308</ele>
        <time>2022-10-29T09:14:10Z</time>
      </trkpt>
      <trkpt lat="44.3674" lon="3.79211">
        <ele>1308.2</ele>
        <time>2022-10-29T09:14:11Z</time>
      </trkpt>
      <trkpt lat="44.3674" lon="3.79209">
        <ele>1308.4</ele>
        <time>2022-10-29T09:14:12Z</time>
      </trkpt>
      <trkpt lat="44.36739" lon="3.79206">
        <ele>1308.4</ele>
        <time>2022-10-29T09:14:13Z</time>
      </trkpt>
      <trkpt lat="44.36739" lon="3.79203">
        <ele>1308.6</ele>
        <time>2022-10-29T09:14:14Z</time>
      </trkpt>
      <trkpt lat="44.36739" lon="3.792">
        <ele>1308.8</ele>
        <time>2022-10-29T09:14:15Z</time>
      </trkpt>
      <trkpt lat="44.36738" lon="3.79197">
        <ele>1308.8</ele>
        <time>2022-10-29T09:14:16Z</time>
      </trkpt>
      <trkpt lat="44.36737" lon="3.79194">
        <ele>1309</ele>
        <time>2022-10-29T09:14:17Z</time>
      </trkpt>
      <trkpt lat="44.36736" lon="3.79191">
        <ele>1309</ele>
        <time>2022-10-29T09:14:18Z</time>
      </trkpt>
      <trkpt lat="44.36735" lon="3.79189">
        <ele>1309.2</ele>
        <time>2022-10-29T09:14:19Z</time>
      </trkpt>
      <trkpt lat="44.36734" lon="3.79186">
        <ele>1309.4</ele>
        <time>2022-10-29T09:14:20Z</time>
      </trkpt>
      <trkpt lat="44.36732" lon="3.79184">
        <ele>1309.4</ele>
        <time>2022-10-29T09:14:21Z</time>
      </trkpt>
      <trkpt lat="44.36732" lon="3.79181">
        <ele>1309.6</ele>
        <time>2022-10-29T09:14:22Z</time>
      </trkpt>
      <trkpt lat="44.36731" lon="3.79178">
        <ele>1309.6</ele>
        <time>2022-10-29T09:14:23Z</time>
      </trkpt>
      <trkpt lat="44.3673" lon="3.79176">
        <ele>1309.8</ele>
        <time>2022-10-29T09:14:24Z</time>
      </trkpt>
      <trkpt lat="44.36729" lon="3.79174">
        <ele>1309.8</ele>
        <time>2022-10-29T09:14:25Z</time>
      </trkpt>
      <trkpt lat="44.36727" lon="3.79172">
        <ele>1309.8</ele>
        <time>2022-10-29T09:14:26Z</time>
      </trkpt>
      <trkpt lat="44.36727" lon="3.79171">
        <ele>1310</ele>
        <time>2022-10-29T09:14:27Z</time>
      </trkpt>
      <trkpt lat="44.36726" lon="3.79169">
        <ele>1310</ele>
        <time>2022-10-29T09:14:28Z</time>
      </trkpt>
      <trkpt lat="44.36725" lon="3.79167">
        <ele>1310</ele>
        <time>2022-10-29T09:14:29Z</time>
      </trkpt>
      <trkpt lat="44.36723" lon="3.79164">
        <ele>1310.2</ele>
        <time>2022-10-29T09:14:30Z</time>
      </trkpt>
      <trkpt lat="44.36722" lon="3.79162">
        <ele>1310.2</ele>
        <time>2022-10-29T09:14:31Z</time>
      </trkpt>
      <trkpt lat="44.36721" lon="3.79159">
        <ele>1310.4</ele>
        <time>2022-10-29T09:14:32Z</time>
      </trkpt>
      <trkpt lat="44.3672" lon="3.79156">
        <ele>1310.6</ele>
        <time>2022-10-29T09:14:33Z</time>
      </trkpt>
      <trkpt lat="44.36719" lon="3.79153">
        <ele>1310.6</ele>
        <time>2022-10-29T09:14:34Z</time>
      </trkpt>
      <trkpt lat="44.36718" lon="3.7915">
        <ele>1310.6</ele>
        <time>2022-10-29T09:14:35Z</time>
      </trkpt>
      <trkpt lat="44.36717" lon="3.79147">
        <ele>1310.8</ele>
        <time>2022-10-29T09:14:36Z</time>
      </trkpt>
      <trkpt lat="44.36716" lon="3.79144">
        <ele>1310.8</ele>
        <time>2022-10-29T09:14:37Z</time>
      </trkpt>
      <trkpt lat="44.36714" lon="3.79141">
        <ele>1310.8</ele>
        <time>2022-10-29T09:14:38Z</time>
      </trkpt>
      <trkpt lat="44.36713" lon="3.79138">
        <ele>1310.8</ele>
        <time>2022-10-29T09:14:39Z</time>
      </trkpt>
      <trkpt lat="44.36711" lon="3.79134">
        <ele>1310.8</ele>
        <time>2022-10-29T09:14:40Z</time>
      </trkpt>
      <trkpt lat="44.36709" lon="3.79132">
        <ele>1311</ele>
        <time>2022-10-29T09:14:41Z</time>
      </trkpt>
      <trkpt lat="44.36708" lon="3.79129">
        <ele>1311</ele>
        <time>2022-10-29T09:14:42Z</time>
      </trkpt>
      <trkpt lat="44.36706" lon="3.79127">
        <ele>1311</ele>
        <time>2022-10-29T09:14:43Z</time>
      </trkpt>
      <trkpt lat="44.36705" lon="3.79124">
        <ele>1311</ele>
        <time>2022-10-29T09:14:44Z</time>
      </trkpt>
      <trkpt lat="44.36703" lon="3.79121">
        <ele>1311</ele>
        <time>2022-10-29T09:14:45Z</time>
      </trkpt>
      <trkpt lat="44.36701" lon="3.79118">
        <ele>1311</ele>
        <time>2022-10-29T09:14:46Z</time>
      </trkpt>
      <trkpt lat="44.367" lon="3.79114">
        <ele>1311</ele>
        <time>2022-10-29T09:14:47Z</time>
      </trkpt>
      <trkpt lat="44.36698" lon="3.79111">
        <ele>1311</ele>
        <time>2022-10-29T09:14:48Z</time>
      </trkpt>
      <trkpt lat="44.36697" lon="3.79109">
        <ele>1311</ele>
        <time>2022-10-29T09:14:49Z</time>
      </trkpt>
      <trkpt lat="44.36697" lon="3.79108">
        <ele>1310.8</ele>
        <time>2022-10-29T09:14:50Z</time>
      </trkpt>
      <trkpt lat="44.36695" lon="3.79106">
        <ele>1310.8</ele>
        <time>2022-10-29T09:15:43Z</time>
      </trkpt>
      <trkpt lat="44.36694" lon="3.79104">
        <ele>1310.8</ele>
        <time>2022-10-29T09:15:44Z</time>
      </trkpt>
      <trkpt lat="44.36692" lon="3.79102">
        <ele>1310.6</ele>
        <time>2022-10-29T09:15:45Z</time>
      </trkpt>
      <trkpt lat="44.3669" lon="3.791">
        <ele>1310.6</ele>
        <time>2022-10-29T09:15:46Z</time>
      </trkpt>
      <trkpt lat="44.36689" lon="3.79099">
        <ele>1310.6</ele>
        <time>2022-10-29T09:15:47Z</time>
      </trkpt>
      <trkpt lat="44.36689" lon="3.79097">
        <ele>1310.6</ele>
        <time>2022-10-29T09:15:48Z</time>
      </trkpt>
      <trkpt lat="44.36687" lon="3.79096">
        <ele>1310.6</ele>
        <time>2022-10-29T09:15:49Z</time>
      </trkpt>
      <trkpt lat="44.36685" lon="3.79094">
        <ele>1310.6</ele>
        <time>2022-10-29T09:15:50Z</time>
      </trkpt>
      <trkpt lat="44.36684" lon="3.79092">
        <ele>1310.8</ele>
        <time>2022-10-29T09:15:51Z</time>
      </trkpt>
      <trkpt lat="44.36682" lon="3.79091">
        <ele>1310.8</ele>
        <time>2022-10-29T09:15:52Z</time>
      </trkpt>
      <trkpt lat="44.3668" lon="3.79089">
        <ele>1311</ele>
        <time>2022-10-29T09:15:53Z</time>
      </trkpt>
      <trkpt lat="44.36678" lon="3.79088">
        <ele>1311.2</ele>
        <time>2022-10-29T09:15:54Z</time>
      </trkpt>
      <trkpt lat="44.36677" lon="3.79086">
        <ele>1311.2</ele>
        <time>2022-10-29T09:15:55Z</time>
      </trkpt>
      <trkpt lat="44.36676" lon="3.79084">
        <ele>1311.4</ele>
        <time>2022-10-29T09:15:56Z</time>
      </trkpt>
      <trkpt lat="44.36675" lon="3.79082">
        <ele>1311.4</ele>
        <time>2022-10-29T09:15:57Z</time>
      </trkpt>
      <trkpt lat="44.36673" lon="3.7908">
        <ele>1311.6</ele>
        <time>2022-10-29T09:15:58Z</time>
      </trkpt>
      <trkpt lat="44.36671" lon="3.79079">
        <ele>1311.6</ele>
        <time>2022-10-29T09:15:59Z</time>
      </trkpt>
      <trkpt lat="44.36669" lon="3.79077">
        <ele>1311.6</ele>
        <time>2022-10-29T09:16:00Z</time>
      </trkpt>
      <trkpt lat="44.36667" lon="3.79075">
        <ele>1311.6</ele>
        <time>2022-10-29T09:16:01Z</time>
      </trkpt>
      <trkpt lat="44.36666" lon="3.79073">
        <ele>1311.6</ele>
        <time>2022-10-29T09:16:02Z</time>
      </trkpt>
      <trkpt lat="44.36664" lon="3.79071">
        <ele>1311.8</ele>
        <time>2022-10-29T09:16:03Z</time>
      </trkpt>
      <trkpt lat="44.36663" lon="3.79068">
        <ele>1312</ele>
        <time>2022-10-29T09:16:04Z</time>
      </trkpt>
      <trkpt lat="44.36661" lon="3.79065">
        <ele>1312.2</ele>
        <time>2022-10-29T09:16:05Z</time>
      </trkpt>
      <trkpt lat="44.36661" lon="3.79062">
        <ele>1312.2</ele>
        <time>2022-10-29T09:16:06Z</time>
      </trkpt>
      <trkpt lat="44.3666" lon="3.79061">
        <ele>1312.4</ele>
        <time>2022-10-29T09:16:07Z</time>
      </trkpt>
      <trkpt lat="44.3666" lon="3.79061">
        <ele>1312.4</ele>
        <time>2022-10-29T09:16:08Z</time>
      </trkpt>
      <trkpt lat="44.3666" lon="3.79061">
        <ele>1312.4</ele>
        <time>2022-10-29T09:16:09Z</time>
      </trkpt>
      <trkpt lat="44.3666" lon="3.79061">
        <ele>1312.4</ele>
        <time>2022-10-29T09:16:10Z</time>
      </trkpt>
      <trkpt lat="44.3666" lon="3.79061">
        <ele>1312.6</ele>
        <time>2022-10-29T09:16:11Z</time>
      </trkpt>
      <trkpt lat="44.3666" lon="3.79061">
        <ele>1312.6</ele>
        <time>2022-10-29T09:16:12Z</time>
      </trkpt>
      <trkpt lat="44.3666" lon="3.79059">
        <ele>1312.6</ele>
        <time>2022-10-29T09:16:36Z</time>
      </trkpt>
      <trkpt lat="44.3666" lon="3.79057">
        <ele>1312.6</ele>
        <time>2022-10-29T09:16:37Z</time>
      </trkpt>
      <trkpt lat="44.36659" lon="3.79054">
        <ele>1312.4</ele>
        <time>2022-10-29T09:16:38Z</time>
      </trkpt>
      <trkpt lat="44.36658" lon="3.79051">
        <ele>1312.4</ele>
        <time>2022-10-29T09:16:39Z</time>
      </trkpt>
      <trkpt lat="44.36657" lon="3.79049">
        <ele>1312.4</ele>
        <time>2022-10-29T09:16:40Z</time>
      </trkpt>
      <trkpt lat="44.36657" lon="3.79047">
        <ele>1312.4</ele>
        <time>2022-10-29T09:16:41Z</time>
      </trkpt>
      <trkpt lat="44.36656" lon="3.79045">
        <ele>1312.4</ele>
        <time>2022-10-29T09:16:42Z</time>
      </trkpt>
      <trkpt lat="44.36654" lon="3.79041">
        <ele>1312.2</ele>
        <time>2022-10-29T09:16:43Z</time>
      </trkpt>
      <trkpt lat="44.36653" lon="3.79038">
        <ele>1312</ele>
        <time>2022-10-29T09:16:44Z</time>
      </trkpt>
      <trkpt lat="44.36652" lon="3.79034">
        <ele>1312</ele>
        <time>2022-10-29T09:16:45Z</time>
      </trkpt>
      <trkpt lat="44.36651" lon="3.7903">
        <ele>1312</ele>
        <time>2022-10-29T09:16:46Z</time>
      </trkpt>
      <trkpt lat="44.36649" lon="3.79026">
        <ele>1312</ele>
        <time>2022-10-29T09:16:47Z</time>
      </trkpt>
      <trkpt lat="44.36647" lon="3.79023">
        <ele>1312</ele>
        <time>2022-10-29T09:16:48Z</time>
      </trkpt>
      <trkpt lat="44.36645" lon="3.7902">
        <ele>1312</ele>
        <time>2022-10-29T09:16:49Z</time>
      </trkpt>
      <trkpt lat="44.36643" lon="3.79017">
        <ele>1312</ele>
        <time>2022-10-29T09:16:50Z</time>
      </trkpt>
      <trkpt lat="44.36641" lon="3.79015">
        <ele>1312</ele>
        <time>2022-10-29T09:16:51Z</time>
      </trkpt>
      <trkpt lat="44.36639" lon="3.79012">
        <ele>1312.2</ele>
        <time>2022-10-29T09:16:52Z</time>
      </trkpt>
      <trkpt lat="44.36637" lon="3.79009">
        <ele>1312.2</ele>
        <time>2022-10-29T09:16:53Z</time>
      </trkpt>
      <trkpt lat="44.36636" lon="3.79006">
        <ele>1312.2</ele>
        <time>2022-10-29T09:16:54Z</time>
      </trkpt>
      <trkpt lat="44.36635" lon="3.79004">
        <ele>1312.2</ele>
        <time>2022-10-29T09:16:55Z</time>
      </trkpt>
      <trkpt lat="44.36634" lon="3.79002">
        <ele>1312.4</ele>
        <time>2022-10-29T09:16:56Z</time>
      </trkpt>
      <trkpt lat="44.36632" lon="3.79">
        <ele>1312.6</ele>
        <time>2022-10-29T09:16:57Z</time>
      </trkpt>
      <trkpt lat="44.36631" lon="3.78999">
        <ele>1312.6</ele>
        <time>2022-10-29T09:16:58Z</time>
      </trkpt>
      <trkpt lat="44.3663" lon="3.78998">
        <ele>1312.6</ele>
        <time>2022-10-29T09:16:59Z</time>
      </trkpt>
      <trkpt lat="44.36629" lon="3.78996">
        <ele>1312.6</ele>
        <time>2022-10-29T09:17:00Z</time>
      </trkpt>
      <trkpt lat="44.36628" lon="3.78993">
        <ele>1312.6</ele>
        <time>2022-10-29T09:17:01Z</time>
      </trkpt>
      <trkpt lat="44.36627" lon="3.78989">
        <ele>1312.6</ele>
        <time>2022-10-29T09:17:02Z</time>
      </trkpt>
      <trkpt lat="44.36626" lon="3.78986">
        <ele>1312.6</ele>
        <time>2022-10-29T09:17:03Z</time>
      </trkpt>
      <trkpt lat="44.36624" lon="3.78982">
        <ele>1312.6</ele>
        <time>2022-10-29T09:17:04Z</time>
      </trkpt>
      <trkpt lat="44.36623" lon="3.78979">
        <ele>1312.6</ele>
        <time>2022-10-29T09:17:05Z</time>
      </trkpt>
      <trkpt lat="44.36622" lon="3.78977">
        <ele>1312.6</ele>
        <time>2022-10-29T09:17:06Z</time>
      </trkpt>
      <trkpt lat="44.36621" lon="3.78974">
        <ele>1312.6</ele>
        <time>2022-10-29T09:17:07Z</time>
      </trkpt>
      <trkpt lat="44.36619" lon="3.78972">
        <ele>1312.6</ele>
        <time>2022-10-29T09:17:08Z</time>
      </trkpt>
      <trkpt lat="44.36618" lon="3.78969">
        <ele>1312.8</ele>
        <time>2022-10-29T09:17:09Z</time>
      </trkpt>
      <trkpt lat="44.36616" lon="3.78966">
        <ele>1312.8</ele>
        <time>2022-10-29T09:17:10Z</time>
      </trkpt>
      <trkpt lat="44.36615" lon="3.78964">
        <ele>1312.8</ele>
        <time>2022-10-29T09:17:11Z</time>
      </trkpt>
      <trkpt lat="44.36613" lon="3.78962">
        <ele>1312.8</ele>
        <time>2022-10-29T09:17:12Z</time>
      </trkpt>
      <trkpt lat="44.36611" lon="3.7896">
        <ele>1313</ele>
        <time>2022-10-29T09:17:13Z</time>
      </trkpt>
      <trkpt lat="44.36609" lon="3.78958">
        <ele>1313</ele>
        <time>2022-10-29T09:17:14Z</time>
      </trkpt>
      <trkpt lat="44.36608" lon="3.78957">
        <ele>1313</ele>
        <time>2022-10-29T09:17:15Z</time>
      </trkpt>
      <trkpt lat="44.36606" lon="3.78955">
        <ele>1313.2</ele>
        <time>2022-10-29T09:17:16Z</time>
      </trkpt>
      <trkpt lat="44.36604" lon="3.78953">
        <ele>1313.2</ele>
        <time>2022-10-29T09:17:17Z</time>
      </trkpt>
      <trkpt lat="44.36602" lon="3.78951">
        <ele>1313.2</ele>
        <time>2022-10-29T09:17:18Z</time>
      </trkpt>
      <trkpt lat="44.366" lon="3.78949">
        <ele>1313.2</ele>
        <time>2022-10-29T09:17:19Z</time>
      </trkpt>
      <trkpt lat="44.36598" lon="3.78947">
        <ele>1313.4</ele>
        <time>2022-10-29T09:17:20Z</time>
      </trkpt>
      <trkpt lat="44.36596" lon="3.78945">
        <ele>1313.4</ele>
        <time>2022-10-29T09:17:21Z</time>
      </trkpt>
      <trkpt lat="44.36594" lon="3.78942">
        <ele>1313.6</ele>
        <time>2022-10-29T09:17:22Z</time>
      </trkpt>
      <trkpt lat="44.36593" lon="3.7894">
        <ele>1313.6</ele>
        <time>2022-10-29T09:17:23Z</time>
      </trkpt>
      <trkpt lat="44.36591" lon="3.78937">
        <ele>1313.8</ele>
        <time>2022-10-29T09:17:24Z</time>
      </trkpt>
      <trkpt lat="44.36588" lon="3.78935">
        <ele>1313.8</ele>
        <time>2022-10-29T09:17:25Z</time>
      </trkpt>
      <trkpt lat="44.36587" lon="3.78932">
        <ele>1314</ele>
        <time>2022-10-29T09:17:26Z</time>
      </trkpt>
      <trkpt lat="44.36585" lon="3.7893">
        <ele>1314</ele>
        <time>2022-10-29T09:17:27Z</time>
      </trkpt>
      <trkpt lat="44.36584" lon="3.78928">
        <ele>1314</ele>
        <time>2022-10-29T09:17:28Z</time>
      </trkpt>
      <trkpt lat="44.36582" lon="3.78926">
        <ele>1314.2</ele>
        <time>2022-10-29T09:17:29Z</time>
      </trkpt>
      <trkpt lat="44.36582" lon="3.78923">
        <ele>1314.2</ele>
        <time>2022-10-29T09:17:30Z</time>
      </trkpt>
      <trkpt lat="44.3658" lon="3.78921">
        <ele>1314.2</ele>
        <time>2022-10-29T09:17:31Z</time>
      </trkpt>
      <trkpt lat="44.36579" lon="3.78919">
        <ele>1314.2</ele>
        <time>2022-10-29T09:17:32Z</time>
      </trkpt>
      <trkpt lat="44.36577" lon="3.78917">
        <ele>1314.2</ele>
        <time>2022-10-29T09:17:33Z</time>
      </trkpt>
      <trkpt lat="44.36575" lon="3.78915">
        <ele>1314.2</ele>
        <time>2022-10-29T09:17:34Z</time>
      </trkpt>
      <trkpt lat="44.36574" lon="3.78913">
        <ele>1314</ele>
        <time>2022-10-29T09:17:35Z</time>
      </trkpt>
      <trkpt lat="44.36572" lon="3.78912">
        <ele>1314</ele>
        <time>2022-10-29T09:17:36Z</time>
      </trkpt>
      <trkpt lat="44.3657" lon="3.7891">
        <ele>1314</ele>
        <time>2022-10-29T09:17:37Z</time>
      </trkpt>
      <trkpt lat="44.36568" lon="3.78909">
        <ele>1313.8</ele>
        <time>2022-10-29T09:17:38Z</time>
      </trkpt>
      <trkpt lat="44.36566" lon="3.78908">
        <ele>1313.8</ele>
        <time>2022-10-29T09:17:39Z</time>
      </trkpt>
      <trkpt lat="44.36565" lon="3.78907">
        <ele>1313.6</ele>
        <time>2022-10-29T09:17:40Z</time>
      </trkpt>
      <trkpt lat="44.36563" lon="3.78905">
        <ele>1313.6</ele>
        <time>2022-10-29T09:17:41Z</time>
      </trkpt>
      <trkpt lat="44.36562" lon="3.78904">
        <ele>1313.6</ele>
        <time>2022-10-29T09:17:42Z</time>
      </trkpt>
      <trkpt lat="44.36561" lon="3.78903">
        <ele>1313.4</ele>
        <time>2022-10-29T09:17:43Z</time>
      </trkpt>
      <trkpt lat="44.3656" lon="3.78902">
        <ele>1313.4</ele>
        <time>2022-10-29T09:17:44Z</time>
      </trkpt>
      <trkpt lat="44.36558" lon="3.78901">
        <ele>1313.2</ele>
        <time>2022-10-29T09:17:45Z</time>
      </trkpt>
      <trkpt lat="44.36557" lon="3.789">
        <ele>1313.2</ele>
        <time>2022-10-29T09:17:46Z</time>
      </trkpt>
      <trkpt lat="44.36555" lon="3.78898">
        <ele>1313.2</ele>
        <time>2022-10-29T09:17:47Z</time>
      </trkpt>
      <trkpt lat="44.36553" lon="3.78896">
        <ele>1313</ele>
        <time>2022-10-29T09:17:48Z</time>
      </trkpt>
      <trkpt lat="44.36551" lon="3.78895">
        <ele>1313</ele>
        <time>2022-10-29T09:17:49Z</time>
      </trkpt>
      <trkpt lat="44.36549" lon="3.78893">
        <ele>1313</ele>
        <time>2022-10-29T09:17:50Z</time>
      </trkpt>
      <trkpt lat="44.36548" lon="3.78891">
        <ele>1312.8</ele>
        <time>2022-10-29T09:17:51Z</time>
      </trkpt>
      <trkpt lat="44.36546" lon="3.7889">
        <ele>1312.8</ele>
        <time>2022-10-29T09:17:52Z</time>
      </trkpt>
      <trkpt lat="44.36544" lon="3.78888">
        <ele>1312.8</ele>
        <time>2022-10-29T09:17:53Z</time>
      </trkpt>
      <trkpt lat="44.36543" lon="3.78887">
        <ele>1312.6</ele>
        <time>2022-10-29T09:17:54Z</time>
      </trkpt>
      <trkpt lat="44.36542" lon="3.78885">
        <ele>1312.4</ele>
        <time>2022-10-29T09:17:55Z</time>
      </trkpt>
      <trkpt lat="44.36541" lon="3.78883">
        <ele>1312.4</ele>
        <time>2022-10-29T09:17:56Z</time>
      </trkpt>
      <trkpt lat="44.3654" lon="3.78882">
        <ele>1312.2</ele>
        <time>2022-10-29T09:17:57Z</time>
      </trkpt>
      <trkpt lat="44.36539" lon="3.7888">
        <ele>1312</ele>
        <time>2022-10-29T09:17:58Z</time>
      </trkpt>
      <trkpt lat="44.36538" lon="3.78878">
        <ele>1311.8</ele>
        <time>2022-10-29T09:17:59Z</time>
      </trkpt>
      <trkpt lat="44.36537" lon="3.78876">
        <ele>1311.6</ele>
        <time>2022-10-29T09:18:00Z</time>
      </trkpt>
      <trkpt lat="44.36537" lon="3.78874">
        <ele>1311.4</ele>
        <time>2022-10-29T09:18:01Z</time>
      </trkpt>
      <trkpt lat="44.36537" lon="3.78874">
        <ele>1311.2</ele>
        <time>2022-10-29T09:18:02Z</time>
      </trkpt>
      <trkpt lat="44.36535" lon="3.78873">
        <ele>1310.8</ele>
        <time>2022-10-29T09:18:25Z</time>
      </trkpt>
      <trkpt lat="44.36533" lon="3.78871">
        <ele>1310.8</ele>
        <time>2022-10-29T09:18:26Z</time>
      </trkpt>
      <trkpt lat="44.36531" lon="3.78869">
        <ele>1310.6</ele>
        <time>2022-10-29T09:18:27Z</time>
      </trkpt>
      <trkpt lat="44.36527" lon="3.78866">
        <ele>1310.6</ele>
        <time>2022-10-29T09:18:28Z</time>
      </trkpt>
      <trkpt lat="44.36525" lon="3.78864">
        <ele>1310.4</ele>
        <time>2022-10-29T09:18:29Z</time>
      </trkpt>
      <trkpt lat="44.36522" lon="3.78863">
        <ele>1310.4</ele>
        <time>2022-10-29T09:18:30Z</time>
      </trkpt>
      <trkpt lat="44.3652" lon="3.78862">
        <ele>1310.4</ele>
        <time>2022-10-29T09:18:31Z</time>
      </trkpt>
      <trkpt lat="44.36517" lon="3.78861">
        <ele>1310.2</ele>
        <time>2022-10-29T09:18:32Z</time>
      </trkpt>
      <trkpt lat="44.36515" lon="3.78859">
        <ele>1310.2</ele>
        <time>2022-10-29T09:18:33Z</time>
      </trkpt>
      <trkpt lat="44.36513" lon="3.78858">
        <ele>1310</ele>
        <time>2022-10-29T09:18:34Z</time>
      </trkpt>
      <trkpt lat="44.36511" lon="3.78857">
        <ele>1309.8</ele>
        <time>2022-10-29T09:18:35Z</time>
      </trkpt>
      <trkpt lat="44.3651" lon="3.78855">
        <ele>1309.6</ele>
        <time>2022-10-29T09:18:36Z</time>
      </trkpt>
      <trkpt lat="44.36508" lon="3.78852">
        <ele>1309.4</ele>
        <time>2022-10-29T09:18:37Z</time>
      </trkpt>
      <trkpt lat="44.36506" lon="3.7885">
        <ele>1309.2</ele>
        <time>2022-10-29T09:18:38Z</time>
      </trkpt>
      <trkpt lat="44.36504" lon="3.78849">
        <ele>1309</ele>
        <time>2022-10-29T09:18:39Z</time>
      </trkpt>
      <trkpt lat="44.36502" lon="3.78848">
        <ele>1308.8</ele>
        <time>2022-10-29T09:18:40Z</time>
      </trkpt>
      <trkpt lat="44.36501" lon="3.78846">
        <ele>1308.6</ele>
        <time>2022-10-29T09:18:41Z</time>
      </trkpt>
      <trkpt lat="44.365" lon="3.78844">
        <ele>1308.6</ele>
        <time>2022-10-29T09:18:42Z</time>
      </trkpt>
      <trkpt lat="44.36498" lon="3.78841">
        <ele>1308.4</ele>
        <time>2022-10-29T09:18:43Z</time>
      </trkpt>
      <trkpt lat="44.36496" lon="3.78838">
        <ele>1308.2</ele>
        <time>2022-10-29T09:18:44Z</time>
      </trkpt>
      <trkpt lat="44.36494" lon="3.78836">
        <ele>1308</ele>
        <time>2022-10-29T09:18:45Z</time>
      </trkpt>
      <trkpt lat="44.36491" lon="3.78834">
        <ele>1307.8</ele>
        <time>2022-10-29T09:18:46Z</time>
      </trkpt>
      <trkpt lat="44.36489" lon="3.78832">
        <ele>1307.4</ele>
        <time>2022-10-29T09:18:47Z</time>
      </trkpt>
      <trkpt lat="44.36486" lon="3.7883">
        <ele>1307.2</ele>
        <time>2022-10-29T09:18:48Z</time>
      </trkpt>
      <trkpt lat="44.36484" lon="3.78828">
        <ele>1307</ele>
        <time>2022-10-29T09:18:49Z</time>
      </trkpt>
      <trkpt lat="44.36481" lon="3.78825">
        <ele>1306.8</ele>
        <time>2022-10-29T09:18:50Z</time>
      </trkpt>
      <trkpt lat="44.36478" lon="3.78823">
        <ele>1306.6</ele>
        <time>2022-10-29T09:18:51Z</time>
      </trkpt>
      <trkpt lat="44.36475" lon="3.78822">
        <ele>1306.2</ele>
        <time>2022-10-29T09:18:52Z</time>
      </trkpt>
      <trkpt lat="44.36474" lon="3.7882">
        <ele>1306</ele>
        <time>2022-10-29T09:18:53Z</time>
      </trkpt>
      <trkpt lat="44.36474" lon="3.7882">
        <ele>1305.8</ele>
        <time>2022-10-29T09:18:54Z</time>
      </trkpt>
      <trkpt lat="44.36474" lon="3.7882">
        <ele>1305.6</ele>
        <time>2022-10-29T09:18:55Z</time>
      </trkpt>
      <trkpt lat="44.36474" lon="3.7882">
        <ele>1305.6</ele>
        <time>2022-10-29T09:18:56Z</time>
      </trkpt>
      <trkpt lat="44.36474" lon="3.7882">
        <ele>1305.4</ele>
        <time>2022-10-29T09:18:57Z</time>
      </trkpt>
      <trkpt lat="44.36474" lon="3.7882">
        <ele>1305.4</ele>
        <time>2022-10-29T09:18:58Z</time>
      </trkpt>
      <trkpt lat="44.36474" lon="3.7882">
        <ele>1305.4</ele>
        <time>2022-10-29T09:18:59Z</time>
      </trkpt>
      <trkpt lat="44.36471" lon="3.78817">
        <ele>1305.4</ele>
        <time>2022-10-29T09:19:23Z</time>
      </trkpt>
      <trkpt lat="44.3647" lon="3.78815">
        <ele>1305.4</ele>
        <time>2022-10-29T09:19:24Z</time>
      </trkpt>
      <trkpt lat="44.36467" lon="3.78812">
        <ele>1305.2</ele>
        <time>2022-10-29T09:19:25Z</time>
      </trkpt>
      <trkpt lat="44.36465" lon="3.78808">
        <ele>1305</ele>
        <time>2022-10-29T09:19:26Z</time>
      </trkpt>
      <trkpt lat="44.36464" lon="3.78805">
        <ele>1304.8</ele>
        <time>2022-10-29T09:19:27Z</time>
      </trkpt>
      <trkpt lat="44.36463" lon="3.78803">
        <ele>1304.6</ele>
        <time>2022-10-29T09:19:28Z</time>
      </trkpt>
      <trkpt lat="44.36462" lon="3.78801">
        <ele>1304.4</ele>
        <time>2022-10-29T09:19:29Z</time>
      </trkpt>
      <trkpt lat="44.36461" lon="3.78799">
        <ele>1304.2</ele>
        <time>2022-10-29T09:19:30Z</time>
      </trkpt>
      <trkpt lat="44.3646" lon="3.78796">
        <ele>1304.2</ele>
        <time>2022-10-29T09:19:31Z</time>
      </trkpt>
      <trkpt lat="44.36459" lon="3.78793">
        <ele>1304.2</ele>
        <time>2022-10-29T09:19:32Z</time>
      </trkpt>
      <trkpt lat="44.36458" lon="3.7879">
        <ele>1304</ele>
        <time>2022-10-29T09:19:33Z</time>
      </trkpt>
      <trkpt lat="44.36457" lon="3.78786">
        <ele>1304</ele>
        <time>2022-10-29T09:19:34Z</time>
      </trkpt>
      <trkpt lat="44.36455" lon="3.78783">
        <ele>1303.8</ele>
        <time>2022-10-29T09:19:35Z</time>
      </trkpt>
      <trkpt lat="44.36453" lon="3.7878">
        <ele>1303.8</ele>
        <time>2022-10-29T09:19:36Z</time>
      </trkpt>
      <trkpt lat="44.3645" lon="3.78778">
        <ele>1303.6</ele>
        <time>2022-10-29T09:19:37Z</time>
      </trkpt>
      <trkpt lat="44.36448" lon="3.78775">
        <ele>1303.4</ele>
        <time>2022-10-29T09:19:38Z</time>
      </trkpt>
      <trkpt lat="44.36446" lon="3.78772">
        <ele>1303</ele>
        <time>2022-10-29T09:19:39Z</time>
      </trkpt>
      <trkpt lat="44.36445" lon="3.78768">
        <ele>1302.8</ele>
        <time>2022-10-29T09:19:40Z</time>
      </trkpt>
      <trkpt lat="44.36443" lon="3.78766">
        <ele>1302.4</ele>
        <time>2022-10-29T09:19:41Z</time>
      </trkpt>
      <trkpt lat="44.36441" lon="3.78763">
        <ele>1302.4</ele>
        <time>2022-10-29T09:19:42Z</time>
      </trkpt>
      <trkpt lat="44.36438" lon="3.78761">
        <ele>1302.2</ele>
        <time>2022-10-29T09:19:43Z</time>
      </trkpt>
      <trkpt lat="44.36436" lon="3.78758">
        <ele>1302</ele>
        <time>2022-10-29T09:19:44Z</time>
      </trkpt>
      <trkpt lat="44.36434" lon="3.78756">
        <ele>1301.8</ele>
        <time>2022-10-29T09:19:45Z</time>
      </trkpt>
      <trkpt lat="44.36431" lon="3.78755">
        <ele>1301.6</ele>
        <time>2022-10-29T09:19:46Z</time>
      </trkpt>
      <trkpt lat="44.36429" lon="3.78753">
        <ele>1301.4</ele>
        <time>2022-10-29T09:19:47Z</time>
      </trkpt>
      <trkpt lat="44.36428" lon="3.78751">
        <ele>1301.2</ele>
        <time>2022-10-29T09:19:48Z</time>
      </trkpt>
      <trkpt lat="44.36426" lon="3.78748">
        <ele>1301</ele>
        <time>2022-10-29T09:19:49Z</time>
      </trkpt>
      <trkpt lat="44.36425" lon="3.78746">
        <ele>1300.8</ele>
        <time>2022-10-29T09:19:50Z</time>
      </trkpt>
      <trkpt lat="44.36424" lon="3.78744">
        <ele>1300.4</ele>
        <time>2022-10-29T09:19:51Z</time>
      </trkpt>
      <trkpt lat="44.36423" lon="3.78742">
        <ele>1300.2</ele>
        <time>2022-10-29T09:19:52Z</time>
      </trkpt>
      <trkpt lat="44.36422" lon="3.78741">
        <ele>1300</ele>
        <time>2022-10-29T09:19:53Z</time>
      </trkpt>
      <trkpt lat="44.36421" lon="3.78739">
        <ele>1299.8</ele>
        <time>2022-10-29T09:19:54Z</time>
      </trkpt>
      <trkpt lat="44.3642" lon="3.78737">
        <ele>1299.6</ele>
        <time>2022-10-29T09:19:55Z</time>
      </trkpt>
      <trkpt lat="44.3642" lon="3.78735">
        <ele>1299.4</ele>
        <time>2022-10-29T09:19:56Z</time>
      </trkpt>
      <trkpt lat="44.36419" lon="3.78732">
        <ele>1299.2</ele>
        <time>2022-10-29T09:19:57Z</time>
      </trkpt>
      <trkpt lat="44.3642" lon="3.7873">
        <ele>1298.8</ele>
        <time>2022-10-29T09:19:58Z</time>
      </trkpt>
      <trkpt lat="44.3642" lon="3.78728">
        <ele>1298.6</ele>
        <time>2022-10-29T09:19:59Z</time>
      </trkpt>
      <trkpt lat="44.36419" lon="3.78726">
        <ele>1298.4</ele>
        <time>2022-10-29T09:20:00Z</time>
      </trkpt>
      <trkpt lat="44.36418" lon="3.78724">
        <ele>1298.2</ele>
        <time>2022-10-29T09:20:01Z</time>
      </trkpt>
      <trkpt lat="44.36417" lon="3.78722">
        <ele>1297.8</ele>
        <time>2022-10-29T09:20:02Z</time>
      </trkpt>
      <trkpt lat="44.36417" lon="3.78719">
        <ele>1297.6</ele>
        <time>2022-10-29T09:20:03Z</time>
      </trkpt>
      <trkpt lat="44.36415" lon="3.78717">
        <ele>1297.4</ele>
        <time>2022-10-29T09:20:04Z</time>
      </trkpt>
      <trkpt lat="44.36414" lon="3.78714">
        <ele>1297.2</ele>
        <time>2022-10-29T09:20:05Z</time>
      </trkpt>
      <trkpt lat="44.36413" lon="3.7871">
        <ele>1297</ele>
        <time>2022-10-29T09:20:06Z</time>
      </trkpt>
      <trkpt lat="44.36411" lon="3.78707">
        <ele>1296.8</ele>
        <time>2022-10-29T09:20:07Z</time>
      </trkpt>
      <trkpt lat="44.36409" lon="3.78703">
        <ele>1296.6</ele>
        <time>2022-10-29T09:20:08Z</time>
      </trkpt>
      <trkpt lat="44.36407" lon="3.787">
        <ele>1296.4</ele>
        <time>2022-10-29T09:20:09Z</time>
      </trkpt>
      <trkpt lat="44.36405" lon="3.78697">
        <ele>1296.2</ele>
        <time>2022-10-29T09:20:10Z</time>
      </trkpt>
      <trkpt lat="44.36402" lon="3.78694">
        <ele>1295.8</ele>
        <time>2022-10-29T09:20:11Z</time>
      </trkpt>
      <trkpt lat="44.36399" lon="3.78691">
        <ele>1295.6</ele>
        <time>2022-10-29T09:20:12Z</time>
      </trkpt>
      <trkpt lat="44.36397" lon="3.78689">
        <ele>1295.2</ele>
        <time>2022-10-29T09:20:13Z</time>
      </trkpt>
      <trkpt lat="44.36396" lon="3.78687">
        <ele>1295</ele>
        <time>2022-10-29T09:20:14Z</time>
      </trkpt>
      <trkpt lat="44.36394" lon="3.78686">
        <ele>1294.6</ele>
        <time>2022-10-29T09:20:15Z</time>
      </trkpt>
      <trkpt lat="44.36393" lon="3.78684">
        <ele>1294.4</ele>
        <time>2022-10-29T09:20:16Z</time>
      </trkpt>
      <trkpt lat="44.36391" lon="3.78681">
        <ele>1294</ele>
        <time>2022-10-29T09:20:17Z</time>
      </trkpt>
      <trkpt lat="44.3639" lon="3.78679">
        <ele>1293.8</ele>
        <time>2022-10-29T09:20:18Z</time>
      </trkpt>
      <trkpt lat="44.36389" lon="3.78676">
        <ele>1293.4</ele>
        <time>2022-10-29T09:20:19Z</time>
      </trkpt>
      <trkpt lat="44.36388" lon="3.78674">
        <ele>1293.2</ele>
        <time>2022-10-29T09:20:20Z</time>
      </trkpt>
      <trkpt lat="44.36386" lon="3.78672">
        <ele>1293</ele>
        <time>2022-10-29T09:20:21Z</time>
      </trkpt>
      <trkpt lat="44.36385" lon="3.78671">
        <ele>1292.8</ele>
        <time>2022-10-29T09:20:22Z</time>
      </trkpt>
      <trkpt lat="44.36385" lon="3.7867">
        <ele>1292.8</ele>
        <time>2022-10-29T09:20:23Z</time>
      </trkpt>
      <trkpt lat="44.36384" lon="3.7867">
        <ele>1292.6</ele>
        <time>2022-10-29T09:20:24Z</time>
      </trkpt>
      <trkpt lat="44.36384" lon="3.7867">
        <ele>1292.6</ele>
        <time>2022-10-29T09:20:25Z</time>
      </trkpt>
      <trkpt lat="44.36384" lon="3.7867">
        <ele>1292.6</ele>
        <time>2022-10-29T09:20:26Z</time>
      </trkpt>
      <trkpt lat="44.36384" lon="3.7867">
        <ele>1292.6</ele>
        <time>2022-10-29T09:20:27Z</time>
      </trkpt>
      <trkpt lat="44.36383" lon="3.78656">
        <ele>1292.4</ele>
        <time>2022-10-29T09:21:57Z</time>
      </trkpt>
      <trkpt lat="44.36382" lon="3.78655">
        <ele>1292.4</ele>
        <time>2022-10-29T09:21:58Z</time>
      </trkpt>
      <trkpt lat="44.36381" lon="3.78653">
        <ele>1292.2</ele>
        <time>2022-10-29T09:21:59Z</time>
      </trkpt>
      <trkpt lat="44.3638" lon="3.78651">
        <ele>1292.2</ele>
        <time>2022-10-29T09:22:00Z</time>
      </trkpt>
      <trkpt lat="44.3638" lon="3.78651">
        <ele>1292.2</ele>
        <time>2022-10-29T09:22:01Z</time>
      </trkpt>
      <trkpt lat="44.3638" lon="3.78651">
        <ele>1292</ele>
        <time>2022-10-29T09:22:02Z</time>
      </trkpt>
      <trkpt lat="44.36379" lon="3.78649">
        <ele>1292</ele>
        <time>2022-10-29T09:22:03Z</time>
      </trkpt>
      <trkpt lat="44.36378" lon="3.78647">
        <ele>1291.8</ele>
        <time>2022-10-29T09:22:04Z</time>
      </trkpt>
      <trkpt lat="44.36378" lon="3.78646">
        <ele>1291.8</ele>
        <time>2022-10-29T09:22:05Z</time>
      </trkpt>
      <trkpt lat="44.36377" lon="3.78645">
        <ele>1291.6</ele>
        <time>2022-10-29T09:22:06Z</time>
      </trkpt>
      <trkpt lat="44.36377" lon="3.78643">
        <ele>1291.6</ele>
        <time>2022-10-29T09:22:07Z</time>
      </trkpt>
      <trkpt lat="44.36377" lon="3.78642">
        <ele>1291.4</ele>
        <time>2022-10-29T09:22:08Z</time>
      </trkpt>
      <trkpt lat="44.36377" lon="3.78642">
        <ele>1291.4</ele>
        <time>2022-10-29T09:22:09Z</time>
      </trkpt>
      <trkpt lat="44.36377" lon="3.78642">
        <ele>1291.2</ele>
        <time>2022-10-29T09:22:10Z</time>
      </trkpt>
      <trkpt lat="44.36377" lon="3.78641">
        <ele>1291.2</ele>
        <time>2022-10-29T09:22:11Z</time>
      </trkpt>
      <trkpt lat="44.36376" lon="3.78639">
        <ele>1291</ele>
        <time>2022-10-29T09:22:12Z</time>
      </trkpt>
      <trkpt lat="44.36375" lon="3.78636">
        <ele>1290.8</ele>
        <time>2022-10-29T09:22:13Z</time>
      </trkpt>
      <trkpt lat="44.36374" lon="3.78634">
        <ele>1290.6</ele>
        <time>2022-10-29T09:22:14Z</time>
      </trkpt>
      <trkpt lat="44.36373" lon="3.78632">
        <ele>1290.4</ele>
        <time>2022-10-29T09:22:15Z</time>
      </trkpt>
      <trkpt lat="44.36372" lon="3.78631">
        <ele>1290.2</ele>
        <time>2022-10-29T09:22:16Z</time>
      </trkpt>
      <trkpt lat="44.36372" lon="3.78631">
        <ele>1290</ele>
        <time>2022-10-29T09:22:17Z</time>
      </trkpt>
      <trkpt lat="44.36372" lon="3.78631">
        <ele>1289.8</ele>
        <time>2022-10-29T09:22:18Z</time>
      </trkpt>
      <trkpt lat="44.36372" lon="3.7863">
        <ele>1289.6</ele>
        <time>2022-10-29T09:22:19Z</time>
      </trkpt>
      <trkpt lat="44.36371" lon="3.78629">
        <ele>1289.6</ele>
        <time>2022-10-29T09:22:20Z</time>
      </trkpt>
      <trkpt lat="44.3637" lon="3.78628">
        <ele>1289.4</ele>
        <time>2022-10-29T09:22:21Z</time>
      </trkpt>
      <trkpt lat="44.36369" lon="3.78628">
        <ele>1289.2</ele>
        <time>2022-10-29T09:22:22Z</time>
      </trkpt>
      <trkpt lat="44.36368" lon="3.78628">
        <ele>1289.2</ele>
        <time>2022-10-29T09:22:23Z</time>
      </trkpt>
      <trkpt lat="44.36368" lon="3.78628">
        <ele>1289.2</ele>
        <time>2022-10-29T09:22:24Z</time>
      </trkpt>
      <trkpt lat="44.36368" lon="3.78628">
        <ele>1289</ele>
        <time>2022-10-29T09:22:25Z</time>
      </trkpt>
      <trkpt lat="44.36368" lon="3.78628">
        <ele>1289</ele>
        <time>2022-10-29T09:22:26Z</time>
      </trkpt>
      <trkpt lat="44.36368" lon="3.78628">
        <ele>1289</ele>
        <time>2022-10-29T09:22:27Z</time>
      </trkpt>
      <trkpt lat="44.36368" lon="3.78627">
        <ele>1289</ele>
        <time>2022-10-29T09:22:28Z</time>
      </trkpt>
      <trkpt lat="44.36368" lon="3.78627">
        <ele>1288.8</ele>
        <time>2022-10-29T09:22:29Z</time>
      </trkpt>
      <trkpt lat="44.36366" lon="3.78625">
        <ele>1288.6</ele>
        <time>2022-10-29T09:22:32Z</time>
      </trkpt>
      <trkpt lat="44.36366" lon="3.78624">
        <ele>1288.6</ele>
        <time>2022-10-29T09:22:33Z</time>
      </trkpt>
      <trkpt lat="44.36365" lon="3.78623">
        <ele>1288.6</ele>
        <time>2022-10-29T09:22:34Z</time>
      </trkpt>
      <trkpt lat="44.36365" lon="3.78622">
        <ele>1288.4</ele>
        <time>2022-10-29T09:22:35Z</time>
      </trkpt>
      <trkpt lat="44.36365" lon="3.78621">
        <ele>1288.2</ele>
        <time>2022-10-29T09:22:36Z</time>
      </trkpt>
      <trkpt lat="44.36365" lon="3.78619">
        <ele>1288</ele>
        <time>2022-10-29T09:22:37Z</time>
      </trkpt>
      <trkpt lat="44.36365" lon="3.78618">
        <ele>1288</ele>
        <time>2022-10-29T09:22:38Z</time>
      </trkpt>
      <trkpt lat="44.36364" lon="3.78617">
        <ele>1287.8</ele>
        <time>2022-10-29T09:22:39Z</time>
      </trkpt>
      <trkpt lat="44.36364" lon="3.78616">
        <ele>1287.6</ele>
        <time>2022-10-29T09:22:40Z</time>
      </trkpt>
      <trkpt lat="44.36364" lon="3.78615">
        <ele>1287.6</ele>
        <time>2022-10-29T09:22:41Z</time>
      </trkpt>
      <trkpt lat="44.36364" lon="3.78614">
        <ele>1287.4</ele>
        <time>2022-10-29T09:22:42Z</time>
      </trkpt>
      <trkpt lat="44.36364" lon="3.78612">
        <ele>1287.2</ele>
        <time>2022-10-29T09:22:43Z</time>
      </trkpt>
      <trkpt lat="44.36364" lon="3.78611">
        <ele>1287</ele>
        <time>2022-10-29T09:22:44Z</time>
      </trkpt>
      <trkpt lat="44.36364" lon="3.7861">
        <ele>1287</ele>
        <time>2022-10-29T09:22:45Z</time>
      </trkpt>
      <trkpt lat="44.36364" lon="3.78609">
        <ele>1286.8</ele>
        <time>2022-10-29T09:22:46Z</time>
      </trkpt>
      <trkpt lat="44.36364" lon="3.78608">
        <ele>1286.6</ele>
        <time>2022-10-29T09:22:47Z</time>
      </trkpt>
      <trkpt lat="44.36364" lon="3.78607">
        <ele>1286.4</ele>
        <time>2022-10-29T09:22:48Z</time>
      </trkpt>
      <trkpt lat="44.36364" lon="3.78606">
        <ele>1286.2</ele>
        <time>2022-10-29T09:22:49Z</time>
      </trkpt>
      <trkpt lat="44.36365" lon="3.78605">
        <ele>1286</ele>
        <time>2022-10-29T09:22:50Z</time>
      </trkpt>
      <trkpt lat="44.36365" lon="3.78604">
        <ele>1285.8</ele>
        <time>2022-10-29T09:22:51Z</time>
      </trkpt>
      <trkpt lat="44.36365" lon="3.78602">
        <ele>1285.6</ele>
        <time>2022-10-29T09:22:52Z</time>
      </trkpt>
      <trkpt lat="44.36366" lon="3.78601">
        <ele>1285.4</ele>
        <time>2022-10-29T09:22:53Z</time>
      </trkpt>
      <trkpt lat="44.36366" lon="3.78601">
        <ele>1285.4</ele>
        <time>2022-10-29T09:22:54Z</time>
      </trkpt>
      <trkpt lat="44.36366" lon="3.786">
        <ele>1285.2</ele>
        <time>2022-10-29T09:22:55Z</time>
      </trkpt>
      <trkpt lat="44.36366" lon="3.78599">
        <ele>1285</ele>
        <time>2022-10-29T09:22:56Z</time>
      </trkpt>
      <trkpt lat="44.36367" lon="3.78599">
        <ele>1284.8</ele>
        <time>2022-10-29T09:22:57Z</time>
      </trkpt>
      <trkpt lat="44.36367" lon="3.78598">
        <ele>1284.8</ele>
        <time>2022-10-29T09:22:58Z</time>
      </trkpt>
      <trkpt lat="44.36368" lon="3.78598">
        <ele>1284.6</ele>
        <time>2022-10-29T09:22:59Z</time>
      </trkpt>
      <trkpt lat="44.36368" lon="3.78597">
        <ele>1284.4</ele>
        <time>2022-10-29T09:23:00Z</time>
      </trkpt>
      <trkpt lat="44.36369" lon="3.78596">
        <ele>1284.2</ele>
        <time>2022-10-29T09:23:01Z</time>
      </trkpt>
      <trkpt lat="44.3637" lon="3.78596">
        <ele>1284.2</ele>
        <time>2022-10-29T09:23:02Z</time>
      </trkpt>
      <trkpt lat="44.3637" lon="3.78595">
        <ele>1284</ele>
        <time>2022-10-29T09:23:03Z</time>
      </trkpt>
      <trkpt lat="44.3637" lon="3.78595">
        <ele>1283.8</ele>
        <time>2022-10-29T09:23:04Z</time>
      </trkpt>
      <trkpt lat="44.3637" lon="3.78595">
        <ele>1283.8</ele>
        <time>2022-10-29T09:23:05Z</time>
      </trkpt>
      <trkpt lat="44.3637" lon="3.78595">
        <ele>1283.8</ele>
        <time>2022-10-29T09:23:06Z</time>
      </trkpt>
      <trkpt lat="44.3637" lon="3.78595">
        <ele>1283.6</ele>
        <time>2022-10-29T09:23:07Z</time>
      </trkpt>
      <trkpt lat="44.3637" lon="3.78595">
        <ele>1283.6</ele>
        <time>2022-10-29T09:23:08Z</time>
      </trkpt>
      <trkpt lat="44.3637" lon="3.78592">
        <ele>1283.2</ele>
        <time>2022-10-29T09:23:11Z</time>
      </trkpt>
      <trkpt lat="44.3637" lon="3.78591">
        <ele>1283.2</ele>
        <time>2022-10-29T09:23:12Z</time>
      </trkpt>
      <trkpt lat="44.3637" lon="3.7859">
        <ele>1283</ele>
        <time>2022-10-29T09:23:13Z</time>
      </trkpt>
      <trkpt lat="44.3637" lon="3.7859">
        <ele>1283</ele>
        <time>2022-10-29T09:23:14Z</time>
      </trkpt>
      <trkpt lat="44.36371" lon="3.7859">
        <ele>1282.8</ele>
        <time>2022-10-29T09:23:15Z</time>
      </trkpt>
      <trkpt lat="44.36371" lon="3.7859">
        <ele>1282.8</ele>
        <time>2022-10-29T09:23:16Z</time>
      </trkpt>
      <trkpt lat="44.36371" lon="3.78589">
        <ele>1282.6</ele>
        <time>2022-10-29T09:23:17Z</time>
      </trkpt>
      <trkpt lat="44.36371" lon="3.78587">
        <ele>1282.6</ele>
        <time>2022-10-29T09:23:18Z</time>
      </trkpt>
      <trkpt lat="44.36372" lon="3.78585">
        <ele>1282.4</ele>
        <time>2022-10-29T09:23:19Z</time>
      </trkpt>
      <trkpt lat="44.36372" lon="3.78582">
        <ele>1282.2</ele>
        <time>2022-10-29T09:23:20Z</time>
      </trkpt>
      <trkpt lat="44.36372" lon="3.7858">
        <ele>1281.8</ele>
        <time>2022-10-29T09:23:21Z</time>
      </trkpt>
      <trkpt lat="44.36373" lon="3.78576">
        <ele>1281.6</ele>
        <time>2022-10-29T09:23:22Z</time>
      </trkpt>
      <trkpt lat="44.36374" lon="3.78573">
        <ele>1281.4</ele>
        <time>2022-10-29T09:23:23Z</time>
      </trkpt>
      <trkpt lat="44.36375" lon="3.78569">
        <ele>1281</ele>
        <time>2022-10-29T09:23:24Z</time>
      </trkpt>
      <trkpt lat="44.36376" lon="3.78566">
        <ele>1280.6</ele>
        <time>2022-10-29T09:23:25Z</time>
      </trkpt>
      <trkpt lat="44.36377" lon="3.78563">
        <ele>1280.2</ele>
        <time>2022-10-29T09:23:26Z</time>
      </trkpt>
      <trkpt lat="44.36378" lon="3.78561">
        <ele>1279.8</ele>
        <time>2022-10-29T09:23:27Z</time>
      </trkpt>
      <trkpt lat="44.36379" lon="3.78558">
        <ele>1279.4</ele>
        <time>2022-10-29T09:23:28Z</time>
      </trkpt>
      <trkpt lat="44.3638" lon="3.78556">
        <ele>1278.8</ele>
        <time>2022-10-29T09:23:29Z</time>
      </trkpt>
      <trkpt lat="44.3638" lon="3.78553">
        <ele>1278.4</ele>
        <time>2022-10-29T09:23:30Z</time>
      </trkpt>
      <trkpt lat="44.3638" lon="3.78552">
        <ele>1278</ele>
        <time>2022-10-29T09:23:31Z</time>
      </trkpt>
      <trkpt lat="44.36381" lon="3.7855">
        <ele>1277.6</ele>
        <time>2022-10-29T09:23:32Z</time>
      </trkpt>
      <trkpt lat="44.36381" lon="3.78549">
        <ele>1277.4</ele>
        <time>2022-10-29T09:23:33Z</time>
      </trkpt>
      <trkpt lat="44.3638" lon="3.78547">
        <ele>1277.2</ele>
        <time>2022-10-29T09:23:34Z</time>
      </trkpt>
      <trkpt lat="44.36379" lon="3.78545">
        <ele>1277</ele>
        <time>2022-10-29T09:23:35Z</time>
      </trkpt>
      <trkpt lat="44.36379" lon="3.78542">
        <ele>1276.8</ele>
        <time>2022-10-29T09:23:36Z</time>
      </trkpt>
      <trkpt lat="44.36377" lon="3.78539">
        <ele>1276.6</ele>
        <time>2022-10-29T09:23:37Z</time>
      </trkpt>
      <trkpt lat="44.36377" lon="3.78535">
        <ele>1276.4</ele>
        <time>2022-10-29T09:23:38Z</time>
      </trkpt>
      <trkpt lat="44.36377" lon="3.78532">
        <ele>1276.2</ele>
        <time>2022-10-29T09:23:39Z</time>
      </trkpt>
      <trkpt lat="44.36377" lon="3.78528">
        <ele>1276</ele>
        <time>2022-10-29T09:23:40Z</time>
      </trkpt>
      <trkpt lat="44.36376" lon="3.78524">
        <ele>1275.8</ele>
        <time>2022-10-29T09:23:41Z</time>
      </trkpt>
      <trkpt lat="44.36376" lon="3.78521">
        <ele>1275.8</ele>
        <time>2022-10-29T09:23:42Z</time>
      </trkpt>
      <trkpt lat="44.36375" lon="3.78518">
        <ele>1275.6</ele>
        <time>2022-10-29T09:23:43Z</time>
      </trkpt>
      <trkpt lat="44.36375" lon="3.78515">
        <ele>1275.4</ele>
        <time>2022-10-29T09:23:44Z</time>
      </trkpt>
      <trkpt lat="44.36375" lon="3.78513">
        <ele>1275.2</ele>
        <time>2022-10-29T09:23:45Z</time>
      </trkpt>
      <trkpt lat="44.36374" lon="3.78511">
        <ele>1275</ele>
        <time>2022-10-29T09:23:46Z</time>
      </trkpt>
      <trkpt lat="44.36373" lon="3.78507">
        <ele>1274.6</ele>
        <time>2022-10-29T09:23:47Z</time>
      </trkpt>
      <trkpt lat="44.36372" lon="3.78504">
        <ele>1274.4</ele>
        <time>2022-10-29T09:23:48Z</time>
      </trkpt>
      <trkpt lat="44.36371" lon="3.78501">
        <ele>1274.2</ele>
        <time>2022-10-29T09:23:49Z</time>
      </trkpt>
      <trkpt lat="44.3637" lon="3.78498">
        <ele>1274</ele>
        <time>2022-10-29T09:23:50Z</time>
      </trkpt>
      <trkpt lat="44.36369" lon="3.78496">
        <ele>1273.8</ele>
        <time>2022-10-29T09:23:51Z</time>
      </trkpt>
      <trkpt lat="44.36369" lon="3.78494">
        <ele>1273.4</ele>
        <time>2022-10-29T09:23:52Z</time>
      </trkpt>
      <trkpt lat="44.36368" lon="3.78493">
        <ele>1273.2</ele>
        <time>2022-10-29T09:23:53Z</time>
      </trkpt>
      <trkpt lat="44.36368" lon="3.78492">
        <ele>1273</ele>
        <time>2022-10-29T09:23:54Z</time>
      </trkpt>
      <trkpt lat="44.36367" lon="3.7849">
        <ele>1272.8</ele>
        <time>2022-10-29T09:23:55Z</time>
      </trkpt>
      <trkpt lat="44.36367" lon="3.78488">
        <ele>1272.4</ele>
        <time>2022-10-29T09:23:56Z</time>
      </trkpt>
      <trkpt lat="44.36367" lon="3.78487">
        <ele>1272.2</ele>
        <time>2022-10-29T09:23:57Z</time>
      </trkpt>
      <trkpt lat="44.36367" lon="3.78487">
        <ele>1272</ele>
        <time>2022-10-29T09:23:58Z</time>
      </trkpt>
      <trkpt lat="44.36368" lon="3.78481">
        <ele>1271.6</ele>
        <time>2022-10-29T09:24:05Z</time>
      </trkpt>
      <trkpt lat="44.36369" lon="3.78479">
        <ele>1271.6</ele>
        <time>2022-10-29T09:24:06Z</time>
      </trkpt>
      <trkpt lat="44.36369" lon="3.78478">
        <ele>1271.6</ele>
        <time>2022-10-29T09:24:07Z</time>
      </trkpt>
      <trkpt lat="44.3637" lon="3.78477">
        <ele>1271.6</ele>
        <time>2022-10-29T09:24:08Z</time>
      </trkpt>
      <trkpt lat="44.3637" lon="3.78476">
        <ele>1271.4</ele>
        <time>2022-10-29T09:24:09Z</time>
      </trkpt>
      <trkpt lat="44.36371" lon="3.78475">
        <ele>1271.4</ele>
        <time>2022-10-29T09:24:10Z</time>
      </trkpt>
      <trkpt lat="44.36371" lon="3.78474">
        <ele>1271.2</ele>
        <time>2022-10-29T09:24:11Z</time>
      </trkpt>
      <trkpt lat="44.36371" lon="3.78474">
        <ele>1271.2</ele>
        <time>2022-10-29T09:24:12Z</time>
      </trkpt>
      <trkpt lat="44.36372" lon="3.78472">
        <ele>1270.8</ele>
        <time>2022-10-29T09:24:13Z</time>
      </trkpt>
      <trkpt lat="44.36372" lon="3.78471">
        <ele>1270.6</ele>
        <time>2022-10-29T09:24:14Z</time>
      </trkpt>
      <trkpt lat="44.36371" lon="3.7847">
        <ele>1270.4</ele>
        <time>2022-10-29T09:24:15Z</time>
      </trkpt>
      <trkpt lat="44.36371" lon="3.78469">
        <ele>1270.4</ele>
        <time>2022-10-29T09:24:16Z</time>
      </trkpt>
      <trkpt lat="44.36371" lon="3.78468">
        <ele>1270.2</ele>
        <time>2022-10-29T09:24:17Z</time>
      </trkpt>
      <trkpt lat="44.36371" lon="3.78467">
        <ele>1270</ele>
        <time>2022-10-29T09:24:18Z</time>
      </trkpt>
      <trkpt lat="44.36371" lon="3.78467">
        <ele>1270</ele>
        <time>2022-10-29T09:24:19Z</time>
      </trkpt>
      <trkpt lat="44.36371" lon="3.78467">
        <ele>1269.8</ele>
        <time>2022-10-29T09:24:20Z</time>
      </trkpt>
      <trkpt lat="44.36371" lon="3.78466">
        <ele>1269.8</ele>
        <time>2022-10-29T09:24:21Z</time>
      </trkpt>
      <trkpt lat="44.36372" lon="3.78466">
        <ele>1269.6</ele>
        <time>2022-10-29T09:24:22Z</time>
      </trkpt>
      <trkpt lat="44.36372" lon="3.78465">
        <ele>1269.6</ele>
        <time>2022-10-29T09:24:23Z</time>
      </trkpt>
      <trkpt lat="44.36372" lon="3.78464">
        <ele>1269.4</ele>
        <time>2022-10-29T09:24:24Z</time>
      </trkpt>
      <trkpt lat="44.36373" lon="3.78463">
        <ele>1269.2</ele>
        <time>2022-10-29T09:24:25Z</time>
      </trkpt>
      <trkpt lat="44.36373" lon="3.78462">
        <ele>1269.2</ele>
        <time>2022-10-29T09:24:26Z</time>
      </trkpt>
      <trkpt lat="44.36373" lon="3.78462">
        <ele>1269</ele>
        <time>2022-10-29T09:24:27Z</time>
      </trkpt>
      <trkpt lat="44.36373" lon="3.78461">
        <ele>1268.8</ele>
        <time>2022-10-29T09:24:28Z</time>
      </trkpt>
      <trkpt lat="44.36373" lon="3.7846">
        <ele>1268.6</ele>
        <time>2022-10-29T09:24:29Z</time>
      </trkpt>
      <trkpt lat="44.36377" lon="3.78452">
        <ele>1267.6</ele>
        <time>2022-10-29T09:24:40Z</time>
      </trkpt>
      <trkpt lat="44.36377" lon="3.78452">
        <ele>1267.6</ele>
        <time>2022-10-29T09:24:41Z</time>
      </trkpt>
      <trkpt lat="44.36378" lon="3.78451">
        <ele>1267.6</ele>
        <time>2022-10-29T09:24:42Z</time>
      </trkpt>
      <trkpt lat="44.36379" lon="3.78451">
        <ele>1267.4</ele>
        <time>2022-10-29T09:24:43Z</time>
      </trkpt>
      <trkpt lat="44.36379" lon="3.78451">
        <ele>1267.2</ele>
        <time>2022-10-29T09:24:44Z</time>
      </trkpt>
      <trkpt lat="44.36379" lon="3.7845">
        <ele>1267</ele>
        <time>2022-10-29T09:24:45Z</time>
      </trkpt>
      <trkpt lat="44.3638" lon="3.7845">
        <ele>1266.8</ele>
        <time>2022-10-29T09:24:46Z</time>
      </trkpt>
      <trkpt lat="44.3638" lon="3.78449">
        <ele>1266.6</ele>
        <time>2022-10-29T09:24:47Z</time>
      </trkpt>
      <trkpt lat="44.3638" lon="3.78448">
        <ele>1266.6</ele>
        <time>2022-10-29T09:24:48Z</time>
      </trkpt>
      <trkpt lat="44.36379" lon="3.78447">
        <ele>1266.4</ele>
        <time>2022-10-29T09:24:49Z</time>
      </trkpt>
      <trkpt lat="44.36379" lon="3.78447">
        <ele>1266.2</ele>
        <time>2022-10-29T09:24:50Z</time>
      </trkpt>
      <trkpt lat="44.36379" lon="3.78447">
        <ele>1266.2</ele>
        <time>2022-10-29T09:24:51Z</time>
      </trkpt>
      <trkpt lat="44.36378" lon="3.78446">
        <ele>1266</ele>
        <time>2022-10-29T09:24:52Z</time>
      </trkpt>
      <trkpt lat="44.36378" lon="3.78444">
        <ele>1265.8</ele>
        <time>2022-10-29T09:24:53Z</time>
      </trkpt>
      <trkpt lat="44.36377" lon="3.78444">
        <ele>1265.8</ele>
        <time>2022-10-29T09:24:54Z</time>
      </trkpt>
      <trkpt lat="44.36377" lon="3.78442">
        <ele>1265.6</ele>
        <time>2022-10-29T09:24:55Z</time>
      </trkpt>
      <trkpt lat="44.36377" lon="3.78441">
        <ele>1265.4</ele>
        <time>2022-10-29T09:24:56Z</time>
      </trkpt>
      <trkpt lat="44.36377" lon="3.78441">
        <ele>1265.4</ele>
        <time>2022-10-29T09:24:57Z</time>
      </trkpt>
      <trkpt lat="44.36377" lon="3.7844">
        <ele>1265.4</ele>
        <time>2022-10-29T09:24:58Z</time>
      </trkpt>
      <trkpt lat="44.36377" lon="3.78439">
        <ele>1265.2</ele>
        <time>2022-10-29T09:24:59Z</time>
      </trkpt>
      <trkpt lat="44.36376" lon="3.78438">
        <ele>1265.2</ele>
        <time>2022-10-29T09:25:00Z</time>
      </trkpt>
      <trkpt lat="44.36376" lon="3.78438">
        <ele>1265.2</ele>
        <time>2022-10-29T09:25:01Z</time>
      </trkpt>
      <trkpt lat="44.36376" lon="3.78438">
        <ele>1265</ele>
        <time>2022-10-29T09:25:02Z</time>
      </trkpt>
      <trkpt lat="44.36376" lon="3.78438">
        <ele>1265</ele>
        <time>2022-10-29T09:25:03Z</time>
      </trkpt>
      <trkpt lat="44.36376" lon="3.78438">
        <ele>1265</ele>
        <time>2022-10-29T09:25:04Z</time>
      </trkpt>
      <trkpt lat="44.36376" lon="3.78438">
        <ele>1265</ele>
        <time>2022-10-29T09:25:05Z</time>
      </trkpt>
      <trkpt lat="44.36375" lon="3.78435">
        <ele>1264.6</ele>
        <time>2022-10-29T09:25:50Z</time>
      </trkpt>
      <trkpt lat="44.36375" lon="3.78434">
        <ele>1264.6</ele>
        <time>2022-10-29T09:25:51Z</time>
      </trkpt>
      <trkpt lat="44.36375" lon="3.78432">
        <ele>1264.4</ele>
        <time>2022-10-29T09:25:52Z</time>
      </trkpt>
      <trkpt lat="44.36375" lon="3.78431">
        <ele>1264.4</ele>
        <time>2022-10-29T09:25:53Z</time>
      </trkpt>
      <trkpt lat="44.36375" lon="3.7843">
        <ele>1264.4</ele>
        <time>2022-10-29T09:25:54Z</time>
      </trkpt>
      <trkpt lat="44.36375" lon="3.7843">
        <ele>1264.2</ele>
        <time>2022-10-29T09:25:55Z</time>
      </trkpt>
      <trkpt lat="44.36375" lon="3.78429">
        <ele>1264.2</ele>
        <time>2022-10-29T09:25:56Z</time>
      </trkpt>
      <trkpt lat="44.36375" lon="3.78428">
        <ele>1264</ele>
        <time>2022-10-29T09:25:57Z</time>
      </trkpt>
      <trkpt lat="44.36375" lon="3.78426">
        <ele>1263.8</ele>
        <time>2022-10-29T09:25:58Z</time>
      </trkpt>
      <trkpt lat="44.36375" lon="3.78425">
        <ele>1263.8</ele>
        <time>2022-10-29T09:25:59Z</time>
      </trkpt>
      <trkpt lat="44.36375" lon="3.78424">
        <ele>1263.6</ele>
        <time>2022-10-29T09:26:00Z</time>
      </trkpt>
      <trkpt lat="44.36374" lon="3.78423">
        <ele>1263.4</ele>
        <time>2022-10-29T09:26:01Z</time>
      </trkpt>
      <trkpt lat="44.36374" lon="3.78423">
        <ele>1263.2</ele>
        <time>2022-10-29T09:26:02Z</time>
      </trkpt>
      <trkpt lat="44.36374" lon="3.78422">
        <ele>1263</ele>
        <time>2022-10-29T09:26:03Z</time>
      </trkpt>
      <trkpt lat="44.36373" lon="3.78421">
        <ele>1263</ele>
        <time>2022-10-29T09:26:04Z</time>
      </trkpt>
      <trkpt lat="44.36372" lon="3.7842">
        <ele>1262.8</ele>
        <time>2022-10-29T09:26:05Z</time>
      </trkpt>
      <trkpt lat="44.36372" lon="3.7842">
        <ele>1262.6</ele>
        <time>2022-10-29T09:26:06Z</time>
      </trkpt>
      <trkpt lat="44.36372" lon="3.78418">
        <ele>1262.4</ele>
        <time>2022-10-29T09:26:07Z</time>
      </trkpt>
      <trkpt lat="44.36372" lon="3.78417">
        <ele>1262.2</ele>
        <time>2022-10-29T09:26:08Z</time>
      </trkpt>
      <trkpt lat="44.36372" lon="3.78415">
        <ele>1262</ele>
        <time>2022-10-29T09:26:09Z</time>
      </trkpt>
      <trkpt lat="44.36372" lon="3.78414">
        <ele>1261.8</ele>
        <time>2022-10-29T09:26:10Z</time>
      </trkpt>
      <trkpt lat="44.36372" lon="3.78413">
        <ele>1261.8</ele>
        <time>2022-10-29T09:26:11Z</time>
      </trkpt>
      <trkpt lat="44.36372" lon="3.78412">
        <ele>1261.6</ele>
        <time>2022-10-29T09:26:12Z</time>
      </trkpt>
      <trkpt lat="44.36373" lon="3.78412">
        <ele>1261.4</ele>
        <time>2022-10-29T09:26:13Z</time>
      </trkpt>
      <trkpt lat="44.36373" lon="3.78411">
        <ele>1261.2</ele>
        <time>2022-10-29T09:26:14Z</time>
      </trkpt>
      <trkpt lat="44.36374" lon="3.78411">
        <ele>1260.8</ele>
        <time>2022-10-29T09:26:15Z</time>
      </trkpt>
      <trkpt lat="44.36374" lon="3.78409">
        <ele>1260.6</ele>
        <time>2022-10-29T09:26:16Z</time>
      </trkpt>
      <trkpt lat="44.36374" lon="3.78408">
        <ele>1260.4</ele>
        <time>2022-10-29T09:26:17Z</time>
      </trkpt>
      <trkpt lat="44.36374" lon="3.78408">
        <ele>1260.2</ele>
        <time>2022-10-29T09:26:18Z</time>
      </trkpt>
      <trkpt lat="44.36374" lon="3.78407">
        <ele>1260</ele>
        <time>2022-10-29T09:26:19Z</time>
      </trkpt>
      <trkpt lat="44.36374" lon="3.78406">
        <ele>1259.8</ele>
        <time>2022-10-29T09:26:20Z</time>
      </trkpt>
      <trkpt lat="44.36374" lon="3.78405">
        <ele>1259.6</ele>
        <time>2022-10-29T09:26:21Z</time>
      </trkpt>
      <trkpt lat="44.36374" lon="3.78404">
        <ele>1259.4</ele>
        <time>2022-10-29T09:26:22Z</time>
      </trkpt>
      <trkpt lat="44.36374" lon="3.78403">
        <ele>1259.2</ele>
        <time>2022-10-29T09:26:23Z</time>
      </trkpt>
      <trkpt lat="44.36374" lon="3.78401">
        <ele>1259</ele>
        <time>2022-10-29T09:26:24Z</time>
      </trkpt>
      <trkpt lat="44.36374" lon="3.78399">
        <ele>1258.8</ele>
        <time>2022-10-29T09:26:25Z</time>
      </trkpt>
      <trkpt lat="44.36374" lon="3.78398">
        <ele>1258.6</ele>
        <time>2022-10-29T09:26:26Z</time>
      </trkpt>
      <trkpt lat="44.36374" lon="3.78396">
        <ele>1258.6</ele>
        <time>2022-10-29T09:26:27Z</time>
      </trkpt>
      <trkpt lat="44.36374" lon="3.78395">
        <ele>1258.4</ele>
        <time>2022-10-29T09:26:28Z</time>
      </trkpt>
      <trkpt lat="44.36374" lon="3.78394">
        <ele>1258.4</ele>
        <time>2022-10-29T09:26:29Z</time>
      </trkpt>
      <trkpt lat="44.36374" lon="3.78393">
        <ele>1258.4</ele>
        <time>2022-10-29T09:26:30Z</time>
      </trkpt>
      <trkpt lat="44.36374" lon="3.78393">
        <ele>1258.2</ele>
        <time>2022-10-29T09:26:31Z</time>
      </trkpt>
      <trkpt lat="44.36374" lon="3.78393">
        <ele>1258.2</ele>
        <time>2022-10-29T09:26:32Z</time>
      </trkpt>
      <trkpt lat="44.36375" lon="3.78392">
        <ele>1258.2</ele>
        <time>2022-10-29T09:26:33Z</time>
      </trkpt>
      <trkpt lat="44.36375" lon="3.78391">
        <ele>1258</ele>
        <time>2022-10-29T09:26:34Z</time>
      </trkpt>
      <trkpt lat="44.36375" lon="3.78391">
        <ele>1258</ele>
        <time>2022-10-29T09:26:35Z</time>
      </trkpt>
      <trkpt lat="44.36375" lon="3.78391">
        <ele>1258</ele>
        <time>2022-10-29T09:26:36Z</time>
      </trkpt>
      <trkpt lat="44.36375" lon="3.78391">
        <ele>1258</ele>
        <time>2022-10-29T09:26:37Z</time>
      </trkpt>
      <trkpt lat="44.36375" lon="3.78391">
        <ele>1258</ele>
        <time>2022-10-29T09:26:38Z</time>
      </trkpt>
      <trkpt lat="44.36375" lon="3.7839">
        <ele>1258</ele>
        <time>2022-10-29T09:26:39Z</time>
      </trkpt>
      <trkpt lat="44.36375" lon="3.78389">
        <ele>1258</ele>
        <time>2022-10-29T09:26:40Z</time>
      </trkpt>
      <trkpt lat="44.36375" lon="3.78387">
        <ele>1258</ele>
        <time>2022-10-29T09:26:41Z</time>
      </trkpt>
      <trkpt lat="44.36373" lon="3.78387">
        <ele>1258</ele>
        <time>2022-10-29T09:26:42Z</time>
      </trkpt>
      <trkpt lat="44.36372" lon="3.78386">
        <ele>1258</ele>
        <time>2022-10-29T09:26:43Z</time>
      </trkpt>
      <trkpt lat="44.36372" lon="3.78386">
        <ele>1258</ele>
        <time>2022-10-29T09:26:44Z</time>
      </trkpt>
      <trkpt lat="44.36371" lon="3.78385">
        <ele>1257.8</ele>
        <time>2022-10-29T09:26:45Z</time>
      </trkpt>
      <trkpt lat="44.36371" lon="3.78385">
        <ele>1257.8</ele>
        <time>2022-10-29T09:26:46Z</time>
      </trkpt>
      <trkpt lat="44.36371" lon="3.78385">
        <ele>1257.8</ele>
        <time>2022-10-29T09:26:47Z</time>
      </trkpt>
      <trkpt lat="44.36371" lon="3.78385">
        <ele>1257.8</ele>
        <time>2022-10-29T09:26:48Z</time>
      </trkpt>
      <trkpt lat="44.36371" lon="3.78385">
        <ele>1257.8</ele>
        <time>2022-10-29T09:26:49Z</time>
      </trkpt>
      <trkpt lat="44.36371" lon="3.78385">
        <ele>1257.8</ele>
        <time>2022-10-29T09:26:50Z</time>
      </trkpt>
      <trkpt lat="44.36365" lon="3.78367">
        <ele>1257.6</ele>
        <time>2022-10-29T09:32:32Z</time>
      </trkpt>
      <trkpt lat="44.36364" lon="3.78363">
        <ele>1257.6</ele>
        <time>2022-10-29T09:32:33Z</time>
      </trkpt>
      <trkpt lat="44.36364" lon="3.78362">
        <ele>1257.6</ele>
        <time>2022-10-29T09:32:34Z</time>
      </trkpt>
      <trkpt lat="44.36364" lon="3.78362">
        <ele>1257.4</ele>
        <time>2022-10-29T09:32:35Z</time>
      </trkpt>
      <trkpt lat="44.36364" lon="3.78362">
        <ele>1257.4</ele>
        <time>2022-10-29T09:32:36Z</time>
      </trkpt>
      <trkpt lat="44.36364" lon="3.78362">
        <ele>1257.4</ele>
        <time>2022-10-29T09:32:37Z</time>
      </trkpt>
      <trkpt lat="44.36364" lon="3.78361">
        <ele>1257.4</ele>
        <time>2022-10-29T09:32:38Z</time>
      </trkpt>
      <trkpt lat="44.36363" lon="3.78361">
        <ele>1257.4</ele>
        <time>2022-10-29T09:32:39Z</time>
      </trkpt>
      <trkpt lat="44.36363" lon="3.7836">
        <ele>1257.4</ele>
        <time>2022-10-29T09:32:40Z</time>
      </trkpt>
      <trkpt lat="44.36363" lon="3.7836">
        <ele>1257.2</ele>
        <time>2022-10-29T09:32:41Z</time>
      </trkpt>
      <trkpt lat="44.36363" lon="3.7836">
        <ele>1257.2</ele>
        <time>2022-10-29T09:32:42Z</time>
      </trkpt>
      <trkpt lat="44.36363" lon="3.7836">
        <ele>1257.2</ele>
        <time>2022-10-29T09:32:43Z</time>
      </trkpt>
      <trkpt lat="44.36364" lon="3.78371">
        <ele>1257.2</ele>
        <time>2022-10-29T09:33:02Z</time>
      </trkpt>
      <trkpt lat="44.36365" lon="3.78373">
        <ele>1257.2</ele>
        <time>2022-10-29T09:33:03Z</time>
      </trkpt>
      <trkpt lat="44.36365" lon="3.78375">
        <ele>1257.2</ele>
        <time>2022-10-29T09:33:04Z</time>
      </trkpt>
      <trkpt lat="44.36365" lon="3.78378">
        <ele>1257.2</ele>
        <time>2022-10-29T09:33:05Z</time>
      </trkpt>
      <trkpt lat="44.36365" lon="3.78379">
        <ele>1257.2</ele>
        <time>2022-10-29T09:33:06Z</time>
      </trkpt>
      <trkpt lat="44.36363" lon="3.7838">
        <ele>1257.4</ele>
        <time>2022-10-29T09:33:07Z</time>
      </trkpt>
      <trkpt lat="44.36361" lon="3.7838">
        <ele>1257.4</ele>
        <time>2022-10-29T09:33:08Z</time>
      </trkpt>
      <trkpt lat="44.36359" lon="3.7838">
        <ele>1257.4</ele>
        <time>2022-10-29T09:33:09Z</time>
      </trkpt>
      <trkpt lat="44.36357" lon="3.78381">
        <ele>1257.4</ele>
        <time>2022-10-29T09:33:10Z</time>
      </trkpt>
      <trkpt lat="44.36356" lon="3.78382">
        <ele>1257.4</ele>
        <time>2022-10-29T09:33:11Z</time>
      </trkpt>
      <trkpt lat="44.36354" lon="3.78383">
        <ele>1257.2</ele>
        <time>2022-10-29T09:33:12Z</time>
      </trkpt>
      <trkpt lat="44.36352" lon="3.78383">
        <ele>1257.2</ele>
        <time>2022-10-29T09:33:13Z</time>
      </trkpt>
      <trkpt lat="44.36351" lon="3.78384">
        <ele>1257.2</ele>
        <time>2022-10-29T09:33:14Z</time>
      </trkpt>
      <trkpt lat="44.36349" lon="3.78384">
        <ele>1257.2</ele>
        <time>2022-10-29T09:33:15Z</time>
      </trkpt>
      <trkpt lat="44.36348" lon="3.78385">
        <ele>1257</ele>
        <time>2022-10-29T09:33:16Z</time>
      </trkpt>
      <trkpt lat="44.36346" lon="3.78386">
        <ele>1257</ele>
        <time>2022-10-29T09:33:17Z</time>
      </trkpt>
      <trkpt lat="44.36346" lon="3.78387">
        <ele>1257</ele>
        <time>2022-10-29T09:33:18Z</time>
      </trkpt>
      <trkpt lat="44.36346" lon="3.78387">
        <ele>1257</ele>
        <time>2022-10-29T09:33:19Z</time>
      </trkpt>
      <trkpt lat="44.36346" lon="3.78387">
        <ele>1256.8</ele>
        <time>2022-10-29T09:33:20Z</time>
      </trkpt>
      <trkpt lat="44.36346" lon="3.78387">
        <ele>1256.8</ele>
        <time>2022-10-29T09:33:21Z</time>
      </trkpt>
      <trkpt lat="44.36346" lon="3.78386">
        <ele>1256.8</ele>
        <time>2022-10-29T09:33:22Z</time>
      </trkpt>
      <trkpt lat="44.36345" lon="3.78387">
        <ele>1256.8</ele>
        <time>2022-10-29T09:33:23Z</time>
      </trkpt>
      <trkpt lat="44.36339" lon="3.78391">
        <ele>1257</ele>
        <time>2022-10-29T09:33:32Z</time>
      </trkpt>
      <trkpt lat="44.36338" lon="3.78391">
        <ele>1257</ele>
        <time>2022-10-29T09:33:33Z</time>
      </trkpt>
      <trkpt lat="44.36337" lon="3.78392">
        <ele>1257</ele>
        <time>2022-10-29T09:33:34Z</time>
      </trkpt>
      <trkpt lat="44.36336" lon="3.78392">
        <ele>1257</ele>
        <time>2022-10-29T09:33:35Z</time>
      </trkpt>
      <trkpt lat="44.36335" lon="3.78393">
        <ele>1257</ele>
        <time>2022-10-29T09:33:36Z</time>
      </trkpt>
      <trkpt lat="44.36334" lon="3.78393">
        <ele>1257</ele>
        <time>2022-10-29T09:33:37Z</time>
      </trkpt>
      <trkpt lat="44.36333" lon="3.78394">
        <ele>1256.8</ele>
        <time>2022-10-29T09:33:38Z</time>
      </trkpt>
      <trkpt lat="44.36332" lon="3.78394">
        <ele>1256.8</ele>
        <time>2022-10-29T09:33:39Z</time>
      </trkpt>
      <trkpt lat="44.36331" lon="3.78395">
        <ele>1256.8</ele>
        <time>2022-10-29T09:33:40Z</time>
      </trkpt>
      <trkpt lat="44.3633" lon="3.78396">
        <ele>1256.8</ele>
        <time>2022-10-29T09:33:41Z</time>
      </trkpt>
      <trkpt lat="44.3633" lon="3.78397">
        <ele>1256.8</ele>
        <time>2022-10-29T09:33:42Z</time>
      </trkpt>
      <trkpt lat="44.36329" lon="3.78398">
        <ele>1256.8</ele>
        <time>2022-10-29T09:33:43Z</time>
      </trkpt>
      <trkpt lat="44.36328" lon="3.78399">
        <ele>1256.8</ele>
        <time>2022-10-29T09:33:44Z</time>
      </trkpt>
      <trkpt lat="44.36327" lon="3.784">
        <ele>1256.6</ele>
        <time>2022-10-29T09:33:45Z</time>
      </trkpt>
      <trkpt lat="44.36326" lon="3.784">
        <ele>1256.6</ele>
        <time>2022-10-29T09:33:46Z</time>
      </trkpt>
      <trkpt lat="44.36326" lon="3.78401">
        <ele>1256.6</ele>
        <time>2022-10-29T09:33:47Z</time>
      </trkpt>
      <trkpt lat="44.36324" lon="3.78402">
        <ele>1256.6</ele>
        <time>2022-10-29T09:33:48Z</time>
      </trkpt>
      <trkpt lat="44.36323" lon="3.78403">
        <ele>1256.6</ele>
        <time>2022-10-29T09:33:49Z</time>
      </trkpt>
      <trkpt lat="44.36322" lon="3.78403">
        <ele>1256.6</ele>
        <time>2022-10-29T09:33:50Z</time>
      </trkpt>
      <trkpt lat="44.36321" lon="3.78404">
        <ele>1256.6</ele>
        <time>2022-10-29T09:33:51Z</time>
      </trkpt>
      <trkpt lat="44.3632" lon="3.78404">
        <ele>1256.6</ele>
        <time>2022-10-29T09:33:52Z</time>
      </trkpt>
      <trkpt lat="44.36319" lon="3.78404">
        <ele>1256.6</ele>
        <time>2022-10-29T09:33:53Z</time>
      </trkpt>
      <trkpt lat="44.36319" lon="3.78405">
        <ele>1256.6</ele>
        <time>2022-10-29T09:33:54Z</time>
      </trkpt>
      <trkpt lat="44.36318" lon="3.78405">
        <ele>1256.6</ele>
        <time>2022-10-29T09:33:55Z</time>
      </trkpt>
      <trkpt lat="44.36317" lon="3.78406">
        <ele>1256.6</ele>
        <time>2022-10-29T09:33:56Z</time>
      </trkpt>
      <trkpt lat="44.36316" lon="3.78406">
        <ele>1256.6</ele>
        <time>2022-10-29T09:33:57Z</time>
      </trkpt>
      <trkpt lat="44.36315" lon="3.78407">
        <ele>1256.6</ele>
        <time>2022-10-29T09:33:58Z</time>
      </trkpt>
      <trkpt lat="44.36314" lon="3.78408">
        <ele>1256.6</ele>
        <time>2022-10-29T09:33:59Z</time>
      </trkpt>
      <trkpt lat="44.36313" lon="3.78409">
        <ele>1256.6</ele>
        <time>2022-10-29T09:34:00Z</time>
      </trkpt>
      <trkpt lat="44.36313" lon="3.78409">
        <ele>1256.6</ele>
        <time>2022-10-29T09:34:01Z</time>
      </trkpt>
      <trkpt lat="44.36313" lon="3.78409">
        <ele>1256.6</ele>
        <time>2022-10-29T09:34:02Z</time>
      </trkpt>
      <trkpt lat="44.36313" lon="3.78409">
        <ele>1256.6</ele>
        <time>2022-10-29T09:34:03Z</time>
      </trkpt>
      <trkpt lat="44.36313" lon="3.78409">
        <ele>1256.6</ele>
        <time>2022-10-29T09:34:04Z</time>
      </trkpt>
      <trkpt lat="44.36313" lon="3.78409">
        <ele>1256.4</ele>
        <time>2022-10-29T09:34:05Z</time>
      </trkpt>
      <trkpt lat="44.36313" lon="3.78409">
        <ele>1256.4</ele>
        <time>2022-10-29T09:34:06Z</time>
      </trkpt>
      <trkpt lat="44.36303" lon="3.78416">
        <ele>1256.4</ele>
        <time>2022-10-29T09:34:51Z</time>
      </trkpt>
      <trkpt lat="44.36303" lon="3.78417">
        <ele>1256.4</ele>
        <time>2022-10-29T09:34:52Z</time>
      </trkpt>
      <trkpt lat="44.36302" lon="3.78417">
        <ele>1256.4</ele>
        <time>2022-10-29T09:34:53Z</time>
      </trkpt>
      <trkpt lat="44.36301" lon="3.78418">
        <ele>1256.4</ele>
        <time>2022-10-29T09:34:54Z</time>
      </trkpt>
      <trkpt lat="44.363" lon="3.78418">
        <ele>1256.4</ele>
        <time>2022-10-29T09:34:55Z</time>
      </trkpt>
      <trkpt lat="44.36299" lon="3.78419">
        <ele>1256.4</ele>
        <time>2022-10-29T09:34:56Z</time>
      </trkpt>
      <trkpt lat="44.36298" lon="3.78419">
        <ele>1256.2</ele>
        <time>2022-10-29T09:34:57Z</time>
      </trkpt>
      <trkpt lat="44.36297" lon="3.7842">
        <ele>1256.2</ele>
        <time>2022-10-29T09:34:58Z</time>
      </trkpt>
      <trkpt lat="44.36296" lon="3.78421">
        <ele>1256.2</ele>
        <time>2022-10-29T09:34:59Z</time>
      </trkpt>
      <trkpt lat="44.36296" lon="3.78421">
        <ele>1256.2</ele>
        <time>2022-10-29T09:35:00Z</time>
      </trkpt>
      <trkpt lat="44.36295" lon="3.78422">
        <ele>1256.2</ele>
        <time>2022-10-29T09:35:01Z</time>
      </trkpt>
      <trkpt lat="44.36294" lon="3.78423">
        <ele>1256.2</ele>
        <time>2022-10-29T09:35:02Z</time>
      </trkpt>
      <trkpt lat="44.36293" lon="3.78423">
        <ele>1256.2</ele>
        <time>2022-10-29T09:35:03Z</time>
      </trkpt>
      <trkpt lat="44.36292" lon="3.78424">
        <ele>1256</ele>
        <time>2022-10-29T09:35:04Z</time>
      </trkpt>
      <trkpt lat="44.36292" lon="3.78424">
        <ele>1256</ele>
        <time>2022-10-29T09:35:05Z</time>
      </trkpt>
      <trkpt lat="44.36291" lon="3.78425">
        <ele>1256</ele>
        <time>2022-10-29T09:35:06Z</time>
      </trkpt>
      <trkpt lat="44.36291" lon="3.78425">
        <ele>1256</ele>
        <time>2022-10-29T09:35:07Z</time>
      </trkpt>
      <trkpt lat="44.36291" lon="3.78425">
        <ele>1255.8</ele>
        <time>2022-10-29T09:35:08Z</time>
      </trkpt>
      <trkpt lat="44.36291" lon="3.78425">
        <ele>1255.8</ele>
        <time>2022-10-29T09:35:09Z</time>
      </trkpt>
      <trkpt lat="44.36291" lon="3.78425">
        <ele>1255.8</ele>
        <time>2022-10-29T09:35:10Z</time>
      </trkpt>
      <trkpt lat="44.36277" lon="3.78436">
        <ele>1255.4</ele>
        <time>2022-10-29T09:35:37Z</time>
      </trkpt>
      <trkpt lat="44.36275" lon="3.78437">
        <ele>1255.4</ele>
        <time>2022-10-29T09:35:38Z</time>
      </trkpt>
      <trkpt lat="44.36275" lon="3.78437">
        <ele>1255.4</ele>
        <time>2022-10-29T09:35:39Z</time>
      </trkpt>
      <trkpt lat="44.36274" lon="3.78437">
        <ele>1255.4</ele>
        <time>2022-10-29T09:35:40Z</time>
      </trkpt>
      <trkpt lat="44.36273" lon="3.78438">
        <ele>1255.4</ele>
        <time>2022-10-29T09:35:41Z</time>
      </trkpt>
      <trkpt lat="44.36272" lon="3.78439">
        <ele>1255.4</ele>
        <time>2022-10-29T09:35:42Z</time>
      </trkpt>
      <trkpt lat="44.36271" lon="3.7844">
        <ele>1255.6</ele>
        <time>2022-10-29T09:35:43Z</time>
      </trkpt>
      <trkpt lat="44.36271" lon="3.7844">
        <ele>1255.6</ele>
        <time>2022-10-29T09:35:44Z</time>
      </trkpt>
      <trkpt lat="44.3627" lon="3.78441">
        <ele>1255.8</ele>
        <time>2022-10-29T09:35:45Z</time>
      </trkpt>
      <trkpt lat="44.36269" lon="3.78442">
        <ele>1255.8</ele>
        <time>2022-10-29T09:35:46Z</time>
      </trkpt>
      <trkpt lat="44.36269" lon="3.78442">
        <ele>1255.8</ele>
        <time>2022-10-29T09:35:47Z</time>
      </trkpt>
      <trkpt lat="44.36268" lon="3.78442">
        <ele>1256</ele>
        <time>2022-10-29T09:35:48Z</time>
      </trkpt>
      <trkpt lat="44.36267" lon="3.78443">
        <ele>1255.8</ele>
        <time>2022-10-29T09:35:49Z</time>
      </trkpt>
      <trkpt lat="44.36265" lon="3.78443">
        <ele>1255.8</ele>
        <time>2022-10-29T09:35:50Z</time>
      </trkpt>
      <trkpt lat="44.36264" lon="3.78443">
        <ele>1255.8</ele>
        <time>2022-10-29T09:35:51Z</time>
      </trkpt>
      <trkpt lat="44.36263" lon="3.78443">
        <ele>1255.8</ele>
        <time>2022-10-29T09:35:52Z</time>
      </trkpt>
      <trkpt lat="44.36262" lon="3.78443">
        <ele>1255.8</ele>
        <time>2022-10-29T09:35:53Z</time>
      </trkpt>
      <trkpt lat="44.36261" lon="3.78443">
        <ele>1255.8</ele>
        <time>2022-10-29T09:35:54Z</time>
      </trkpt>
      <trkpt lat="44.3626" lon="3.78444">
        <ele>1255.8</ele>
        <time>2022-10-29T09:35:55Z</time>
      </trkpt>
      <trkpt lat="44.36259" lon="3.78444">
        <ele>1255.8</ele>
        <time>2022-10-29T09:35:56Z</time>
      </trkpt>
      <trkpt lat="44.36257" lon="3.78444">
        <ele>1255.6</ele>
        <time>2022-10-29T09:35:57Z</time>
      </trkpt>
      <trkpt lat="44.36256" lon="3.78445">
        <ele>1255.6</ele>
        <time>2022-10-29T09:35:58Z</time>
      </trkpt>
      <trkpt lat="44.36255" lon="3.78445">
        <ele>1255.6</ele>
        <time>2022-10-29T09:35:59Z</time>
      </trkpt>
      <trkpt lat="44.36255" lon="3.78445">
        <ele>1255.6</ele>
        <time>2022-10-29T09:36:00Z</time>
      </trkpt>
      <trkpt lat="44.36254" lon="3.78446">
        <ele>1255.6</ele>
        <time>2022-10-29T09:36:01Z</time>
      </trkpt>
      <trkpt lat="44.36253" lon="3.78446">
        <ele>1255.6</ele>
        <time>2022-10-29T09:36:02Z</time>
      </trkpt>
      <trkpt lat="44.36252" lon="3.78446">
        <ele>1255.4</ele>
        <time>2022-10-29T09:36:03Z</time>
      </trkpt>
      <trkpt lat="44.36251" lon="3.78447">
        <ele>1255.4</ele>
        <time>2022-10-29T09:36:04Z</time>
      </trkpt>
      <trkpt lat="44.3625" lon="3.78447">
        <ele>1255.4</ele>
        <time>2022-10-29T09:36:05Z</time>
      </trkpt>
      <trkpt lat="44.36249" lon="3.78448">
        <ele>1255.4</ele>
        <time>2022-10-29T09:36:06Z</time>
      </trkpt>
      <trkpt lat="44.36249" lon="3.78448">
        <ele>1255.4</ele>
        <time>2022-10-29T09:36:07Z</time>
      </trkpt>
      <trkpt lat="44.36248" lon="3.78448">
        <ele>1255.4</ele>
        <time>2022-10-29T09:36:08Z</time>
      </trkpt>
      <trkpt lat="44.36247" lon="3.78448">
        <ele>1255.2</ele>
        <time>2022-10-29T09:36:09Z</time>
      </trkpt>
      <trkpt lat="44.36246" lon="3.78448">
        <ele>1255.2</ele>
        <time>2022-10-29T09:36:10Z</time>
      </trkpt>
      <trkpt lat="44.36245" lon="3.78447">
        <ele>1255.2</ele>
        <time>2022-10-29T09:36:11Z</time>
      </trkpt>
      <trkpt lat="44.36245" lon="3.78447">
        <ele>1255</ele>
        <time>2022-10-29T09:36:12Z</time>
      </trkpt>
      <trkpt lat="44.36245" lon="3.78448">
        <ele>1255</ele>
        <time>2022-10-29T09:36:13Z</time>
      </trkpt>
      <trkpt lat="44.36245" lon="3.78448">
        <ele>1255</ele>
        <time>2022-10-29T09:36:14Z</time>
      </trkpt>
      <trkpt lat="44.36245" lon="3.78448">
        <ele>1255</ele>
        <time>2022-10-29T09:36:15Z</time>
      </trkpt>
      <trkpt lat="44.36245" lon="3.78448">
        <ele>1255</ele>
        <time>2022-10-29T09:36:16Z</time>
      </trkpt>
      <trkpt lat="44.36243" lon="3.78448">
        <ele>1254.8</ele>
        <time>2022-10-29T09:36:18Z</time>
      </trkpt>
      <trkpt lat="44.36242" lon="3.78448">
        <ele>1254.8</ele>
        <time>2022-10-29T09:36:19Z</time>
      </trkpt>
      <trkpt lat="44.3624" lon="3.78448">
        <ele>1254.8</ele>
        <time>2022-10-29T09:36:20Z</time>
      </trkpt>
      <trkpt lat="44.36238" lon="3.78449">
        <ele>1254.8</ele>
        <time>2022-10-29T09:36:21Z</time>
      </trkpt>
      <trkpt lat="44.36237" lon="3.78449">
        <ele>1254.8</ele>
        <time>2022-10-29T09:36:22Z</time>
      </trkpt>
      <trkpt lat="44.36235" lon="3.7845">
        <ele>1254.8</ele>
        <time>2022-10-29T09:36:23Z</time>
      </trkpt>
      <trkpt lat="44.36233" lon="3.7845">
        <ele>1254.8</ele>
        <time>2022-10-29T09:36:24Z</time>
      </trkpt>
      <trkpt lat="44.3623" lon="3.7845">
        <ele>1254.6</ele>
        <time>2022-10-29T09:36:25Z</time>
      </trkpt>
      <trkpt lat="44.36227" lon="3.78451">
        <ele>1254.6</ele>
        <time>2022-10-29T09:36:26Z</time>
      </trkpt>
      <trkpt lat="44.36225" lon="3.78452">
        <ele>1254.4</ele>
        <time>2022-10-29T09:36:27Z</time>
      </trkpt>
      <trkpt lat="44.36223" lon="3.78452">
        <ele>1254.4</ele>
        <time>2022-10-29T09:36:28Z</time>
      </trkpt>
      <trkpt lat="44.36221" lon="3.78453">
        <ele>1254.4</ele>
        <time>2022-10-29T09:36:29Z</time>
      </trkpt>
      <trkpt lat="44.36219" lon="3.78452">
        <ele>1254.4</ele>
        <time>2022-10-29T09:36:30Z</time>
      </trkpt>
      <trkpt lat="44.36217" lon="3.78452">
        <ele>1254.2</ele>
        <time>2022-10-29T09:36:31Z</time>
      </trkpt>
      <trkpt lat="44.36215" lon="3.78452">
        <ele>1254</ele>
        <time>2022-10-29T09:36:32Z</time>
      </trkpt>
      <trkpt lat="44.36212" lon="3.78453">
        <ele>1254</ele>
        <time>2022-10-29T09:36:33Z</time>
      </trkpt>
      <trkpt lat="44.3621" lon="3.78454">
        <ele>1254</ele>
        <time>2022-10-29T09:36:34Z</time>
      </trkpt>
      <trkpt lat="44.36208" lon="3.78454">
        <ele>1254</ele>
        <time>2022-10-29T09:36:35Z</time>
      </trkpt>
      <trkpt lat="44.36207" lon="3.78454">
        <ele>1254</ele>
        <time>2022-10-29T09:36:36Z</time>
      </trkpt>
      <trkpt lat="44.36205" lon="3.78454">
        <ele>1253.8</ele>
        <time>2022-10-29T09:36:37Z</time>
      </trkpt>
      <trkpt lat="44.36204" lon="3.78453">
        <ele>1253.6</ele>
        <time>2022-10-29T09:36:38Z</time>
      </trkpt>
      <trkpt lat="44.36204" lon="3.78453">
        <ele>1253.6</ele>
        <time>2022-10-29T09:36:39Z</time>
      </trkpt>
      <trkpt lat="44.36203" lon="3.78454">
        <ele>1253.4</ele>
        <time>2022-10-29T09:36:40Z</time>
      </trkpt>
      <trkpt lat="44.36203" lon="3.78454">
        <ele>1253.4</ele>
        <time>2022-10-29T09:36:41Z</time>
      </trkpt>
      <trkpt lat="44.36203" lon="3.78454">
        <ele>1253.4</ele>
        <time>2022-10-29T09:36:42Z</time>
      </trkpt>
      <trkpt lat="44.36203" lon="3.78454">
        <ele>1253.4</ele>
        <time>2022-10-29T09:36:43Z</time>
      </trkpt>
      <trkpt lat="44.362" lon="3.78454">
        <ele>1253.2</ele>
        <time>2022-10-29T09:36:47Z</time>
      </trkpt>
      <trkpt lat="44.36199" lon="3.78454">
        <ele>1253.2</ele>
        <time>2022-10-29T09:36:48Z</time>
      </trkpt>
      <trkpt lat="44.36198" lon="3.78455">
        <ele>1253.2</ele>
        <time>2022-10-29T09:36:49Z</time>
      </trkpt>
      <trkpt lat="44.36197" lon="3.78455">
        <ele>1253.2</ele>
        <time>2022-10-29T09:36:50Z</time>
      </trkpt>
      <trkpt lat="44.36196" lon="3.78455">
        <ele>1253.2</ele>
        <time>2022-10-29T09:36:51Z</time>
      </trkpt>
      <trkpt lat="44.36195" lon="3.78456">
        <ele>1253.2</ele>
        <time>2022-10-29T09:36:52Z</time>
      </trkpt>
      <trkpt lat="44.36194" lon="3.78456">
        <ele>1253.2</ele>
        <time>2022-10-29T09:36:53Z</time>
      </trkpt>
      <trkpt lat="44.36193" lon="3.78456">
        <ele>1253.2</ele>
        <time>2022-10-29T09:36:54Z</time>
      </trkpt>
      <trkpt lat="44.36191" lon="3.78456">
        <ele>1253.2</ele>
        <time>2022-10-29T09:36:55Z</time>
      </trkpt>
      <trkpt lat="44.3619" lon="3.78457">
        <ele>1253.2</ele>
        <time>2022-10-29T09:36:56Z</time>
      </trkpt>
      <trkpt lat="44.36189" lon="3.78457">
        <ele>1253.2</ele>
        <time>2022-10-29T09:36:57Z</time>
      </trkpt>
      <trkpt lat="44.36188" lon="3.78457">
        <ele>1253.2</ele>
        <time>2022-10-29T09:36:58Z</time>
      </trkpt>
      <trkpt lat="44.36187" lon="3.78458">
        <ele>1253.2</ele>
        <time>2022-10-29T09:36:59Z</time>
      </trkpt>
      <trkpt lat="44.36185" lon="3.78459">
        <ele>1253.2</ele>
        <time>2022-10-29T09:37:00Z</time>
      </trkpt>
      <trkpt lat="44.36184" lon="3.78459">
        <ele>1253.2</ele>
        <time>2022-10-29T09:37:01Z</time>
      </trkpt>
      <trkpt lat="44.36184" lon="3.7846">
        <ele>1253.2</ele>
        <time>2022-10-29T09:37:02Z</time>
      </trkpt>
      <trkpt lat="44.36183" lon="3.7846">
        <ele>1253.2</ele>
        <time>2022-10-29T09:37:03Z</time>
      </trkpt>
      <trkpt lat="44.36182" lon="3.7846">
        <ele>1253.2</ele>
        <time>2022-10-29T09:37:04Z</time>
      </trkpt>
      <trkpt lat="44.36182" lon="3.78461">
        <ele>1253.2</ele>
        <time>2022-10-29T09:37:05Z</time>
      </trkpt>
      <trkpt lat="44.36181" lon="3.7846">
        <ele>1253</ele>
        <time>2022-10-29T09:37:06Z</time>
      </trkpt>
      <trkpt lat="44.3618" lon="3.7846">
        <ele>1253</ele>
        <time>2022-10-29T09:37:07Z</time>
      </trkpt>
      <trkpt lat="44.36179" lon="3.7846">
        <ele>1252.8</ele>
        <time>2022-10-29T09:37:08Z</time>
      </trkpt>
      <trkpt lat="44.36179" lon="3.7846">
        <ele>1252.6</ele>
        <time>2022-10-29T09:37:09Z</time>
      </trkpt>
      <trkpt lat="44.36178" lon="3.78459">
        <ele>1252.4</ele>
        <time>2022-10-29T09:37:10Z</time>
      </trkpt>
      <trkpt lat="44.36177" lon="3.7846">
        <ele>1252.4</ele>
        <time>2022-10-29T09:37:11Z</time>
      </trkpt>
      <trkpt lat="44.36177" lon="3.7846">
        <ele>1252.2</ele>
        <time>2022-10-29T09:37:12Z</time>
      </trkpt>
      <trkpt lat="44.36176" lon="3.7846">
        <ele>1252.2</ele>
        <time>2022-10-29T09:37:13Z</time>
      </trkpt>
      <trkpt lat="44.36175" lon="3.7846">
        <ele>1252.2</ele>
        <time>2022-10-29T09:37:14Z</time>
      </trkpt>
      <trkpt lat="44.36174" lon="3.7846">
        <ele>1252</ele>
        <time>2022-10-29T09:37:15Z</time>
      </trkpt>
      <trkpt lat="44.36174" lon="3.7846">
        <ele>1251.8</ele>
        <time>2022-10-29T09:37:16Z</time>
      </trkpt>
      <trkpt lat="44.36174" lon="3.7846">
        <ele>1251.6</ele>
        <time>2022-10-29T09:37:17Z</time>
      </trkpt>
      <trkpt lat="44.36172" lon="3.7846">
        <ele>1251.4</ele>
        <time>2022-10-29T09:37:18Z</time>
      </trkpt>
      <trkpt lat="44.36172" lon="3.7846">
        <ele>1251.4</ele>
        <time>2022-10-29T09:37:19Z</time>
      </trkpt>
      <trkpt lat="44.36171" lon="3.7846">
        <ele>1251.2</ele>
        <time>2022-10-29T09:37:20Z</time>
      </trkpt>
      <trkpt lat="44.3617" lon="3.78461">
        <ele>1251.2</ele>
        <time>2022-10-29T09:37:21Z</time>
      </trkpt>
      <trkpt lat="44.36169" lon="3.78461">
        <ele>1251.2</ele>
        <time>2022-10-29T09:37:22Z</time>
      </trkpt>
      <trkpt lat="44.36169" lon="3.78462">
        <ele>1251.2</ele>
        <time>2022-10-29T09:37:23Z</time>
      </trkpt>
      <trkpt lat="44.36168" lon="3.78462">
        <ele>1251</ele>
        <time>2022-10-29T09:37:24Z</time>
      </trkpt>
      <trkpt lat="44.36167" lon="3.78462">
        <ele>1251</ele>
        <time>2022-10-29T09:37:25Z</time>
      </trkpt>
      <trkpt lat="44.36166" lon="3.78463">
        <ele>1251</ele>
        <time>2022-10-29T09:37:26Z</time>
      </trkpt>
      <trkpt lat="44.36165" lon="3.78463">
        <ele>1251</ele>
        <time>2022-10-29T09:37:27Z</time>
      </trkpt>
      <trkpt lat="44.36164" lon="3.78464">
        <ele>1251</ele>
        <time>2022-10-29T09:37:28Z</time>
      </trkpt>
      <trkpt lat="44.36163" lon="3.78465">
        <ele>1251</ele>
        <time>2022-10-29T09:37:29Z</time>
      </trkpt>
      <trkpt lat="44.36163" lon="3.78465">
        <ele>1251</ele>
        <time>2022-10-29T09:37:30Z</time>
      </trkpt>
      <trkpt lat="44.36161" lon="3.78465">
        <ele>1251</ele>
        <time>2022-10-29T09:37:31Z</time>
      </trkpt>
      <trkpt lat="44.36161" lon="3.78466">
        <ele>1251</ele>
        <time>2022-10-29T09:37:32Z</time>
      </trkpt>
      <trkpt lat="44.36159" lon="3.78467">
        <ele>1251</ele>
        <time>2022-10-29T09:37:33Z</time>
      </trkpt>
      <trkpt lat="44.36158" lon="3.78468">
        <ele>1250.8</ele>
        <time>2022-10-29T09:37:34Z</time>
      </trkpt>
      <trkpt lat="44.36157" lon="3.78468">
        <ele>1250.8</ele>
        <time>2022-10-29T09:37:35Z</time>
      </trkpt>
      <trkpt lat="44.36156" lon="3.78469">
        <ele>1250.8</ele>
        <time>2022-10-29T09:37:36Z</time>
      </trkpt>
      <trkpt lat="44.36155" lon="3.7847">
        <ele>1250.6</ele>
        <time>2022-10-29T09:37:37Z</time>
      </trkpt>
      <trkpt lat="44.36154" lon="3.7847">
        <ele>1250.6</ele>
        <time>2022-10-29T09:37:38Z</time>
      </trkpt>
      <trkpt lat="44.36153" lon="3.78471">
        <ele>1250.6</ele>
        <time>2022-10-29T09:37:39Z</time>
      </trkpt>
      <trkpt lat="44.36152" lon="3.78472">
        <ele>1250.6</ele>
        <time>2022-10-29T09:37:40Z</time>
      </trkpt>
      <trkpt lat="44.36152" lon="3.78472">
        <ele>1250.6</ele>
        <time>2022-10-29T09:37:44Z</time>
      </trkpt>
      <trkpt lat="44.36151" lon="3.78473">
        <ele>1250.4</ele>
        <time>2022-10-29T09:37:45Z</time>
      </trkpt>
      <trkpt lat="44.36149" lon="3.78474">
        <ele>1250.6</ele>
        <time>2022-10-29T09:37:46Z</time>
      </trkpt>
      <trkpt lat="44.36148" lon="3.78476">
        <ele>1250.6</ele>
        <time>2022-10-29T09:37:47Z</time>
      </trkpt>
      <trkpt lat="44.36146" lon="3.78477">
        <ele>1250.6</ele>
        <time>2022-10-29T09:37:48Z</time>
      </trkpt>
      <trkpt lat="44.36144" lon="3.78479">
        <ele>1250.6</ele>
        <time>2022-10-29T09:37:49Z</time>
      </trkpt>
      <trkpt lat="44.36141" lon="3.78481">
        <ele>1250.6</ele>
        <time>2022-10-29T09:37:50Z</time>
      </trkpt>
      <trkpt lat="44.3614" lon="3.78482">
        <ele>1250.6</ele>
        <time>2022-10-29T09:37:51Z</time>
      </trkpt>
      <trkpt lat="44.36137" lon="3.78485">
        <ele>1250.4</ele>
        <time>2022-10-29T09:37:52Z</time>
      </trkpt>
      <trkpt lat="44.36135" lon="3.78487">
        <ele>1250.4</ele>
        <time>2022-10-29T09:37:53Z</time>
      </trkpt>
      <trkpt lat="44.36133" lon="3.78489">
        <ele>1250.2</ele>
        <time>2022-10-29T09:37:54Z</time>
      </trkpt>
      <trkpt lat="44.36131" lon="3.78491">
        <ele>1250.2</ele>
        <time>2022-10-29T09:37:55Z</time>
      </trkpt>
      <trkpt lat="44.36129" lon="3.78493">
        <ele>1250.2</ele>
        <time>2022-10-29T09:37:56Z</time>
      </trkpt>
      <trkpt lat="44.36128" lon="3.78494">
        <ele>1250</ele>
        <time>2022-10-29T09:37:57Z</time>
      </trkpt>
      <trkpt lat="44.36126" lon="3.78496">
        <ele>1249.8</ele>
        <time>2022-10-29T09:37:58Z</time>
      </trkpt>
      <trkpt lat="44.36126" lon="3.78496">
        <ele>1249.8</ele>
        <time>2022-10-29T09:37:59Z</time>
      </trkpt>
      <trkpt lat="44.36126" lon="3.78496">
        <ele>1249.6</ele>
        <time>2022-10-29T09:38:00Z</time>
      </trkpt>
      <trkpt lat="44.36126" lon="3.78496">
        <ele>1249.6</ele>
        <time>2022-10-29T09:38:01Z</time>
      </trkpt>
      <trkpt lat="44.36125" lon="3.78497">
        <ele>1249.6</ele>
        <time>2022-10-29T09:38:02Z</time>
      </trkpt>
      <trkpt lat="44.36125" lon="3.78498">
        <ele>1249.6</ele>
        <time>2022-10-29T09:38:03Z</time>
      </trkpt>
      <trkpt lat="44.36124" lon="3.78499">
        <ele>1249.6</ele>
        <time>2022-10-29T09:38:04Z</time>
      </trkpt>
      <trkpt lat="44.36124" lon="3.785">
        <ele>1249.6</ele>
        <time>2022-10-29T09:38:05Z</time>
      </trkpt>
      <trkpt lat="44.36123" lon="3.785">
        <ele>1249.6</ele>
        <time>2022-10-29T09:38:06Z</time>
      </trkpt>
      <trkpt lat="44.36123" lon="3.785">
        <ele>1249.6</ele>
        <time>2022-10-29T09:38:07Z</time>
      </trkpt>
      <trkpt lat="44.36122" lon="3.785">
        <ele>1249.6</ele>
        <time>2022-10-29T09:38:08Z</time>
      </trkpt>
      <trkpt lat="44.36122" lon="3.78501">
        <ele>1249.6</ele>
        <time>2022-10-29T09:38:09Z</time>
      </trkpt>
      <trkpt lat="44.36121" lon="3.78502">
        <ele>1249.4</ele>
        <time>2022-10-29T09:38:10Z</time>
      </trkpt>
      <trkpt lat="44.3612" lon="3.78502">
        <ele>1249.2</ele>
        <time>2022-10-29T09:38:11Z</time>
      </trkpt>
      <trkpt lat="44.36119" lon="3.78503">
        <ele>1249.2</ele>
        <time>2022-10-29T09:38:12Z</time>
      </trkpt>
      <trkpt lat="44.36118" lon="3.78504">
        <ele>1249</ele>
        <time>2022-10-29T09:38:13Z</time>
      </trkpt>
      <trkpt lat="44.36117" lon="3.78504">
        <ele>1248.8</ele>
        <time>2022-10-29T09:38:14Z</time>
      </trkpt>
      <trkpt lat="44.36117" lon="3.78504">
        <ele>1248.6</ele>
        <time>2022-10-29T09:38:15Z</time>
      </trkpt>
      <trkpt lat="44.36116" lon="3.78505">
        <ele>1248.6</ele>
        <time>2022-10-29T09:38:16Z</time>
      </trkpt>
      <trkpt lat="44.36116" lon="3.78505">
        <ele>1248.4</ele>
        <time>2022-10-29T09:38:17Z</time>
      </trkpt>
      <trkpt lat="44.36116" lon="3.78506">
        <ele>1248.4</ele>
        <time>2022-10-29T09:38:18Z</time>
      </trkpt>
      <trkpt lat="44.36115" lon="3.78508">
        <ele>1248.4</ele>
        <time>2022-10-29T09:38:19Z</time>
      </trkpt>
      <trkpt lat="44.36114" lon="3.78509">
        <ele>1248.4</ele>
        <time>2022-10-29T09:38:20Z</time>
      </trkpt>
      <trkpt lat="44.36113" lon="3.7851">
        <ele>1248.4</ele>
        <time>2022-10-29T09:38:21Z</time>
      </trkpt>
      <trkpt lat="44.36113" lon="3.78511">
        <ele>1248.6</ele>
        <time>2022-10-29T09:38:22Z</time>
      </trkpt>
      <trkpt lat="44.36112" lon="3.78511">
        <ele>1248.6</ele>
        <time>2022-10-29T09:38:23Z</time>
      </trkpt>
      <trkpt lat="44.36111" lon="3.78512">
        <ele>1248.6</ele>
        <time>2022-10-29T09:38:24Z</time>
      </trkpt>
      <trkpt lat="44.3611" lon="3.78513">
        <ele>1248.6</ele>
        <time>2022-10-29T09:38:25Z</time>
      </trkpt>
      <trkpt lat="44.36109" lon="3.78514">
        <ele>1248.4</ele>
        <time>2022-10-29T09:38:26Z</time>
      </trkpt>
      <trkpt lat="44.36108" lon="3.78514">
        <ele>1248.4</ele>
        <time>2022-10-29T09:38:27Z</time>
      </trkpt>
      <trkpt lat="44.36107" lon="3.78515">
        <ele>1248.2</ele>
        <time>2022-10-29T09:38:28Z</time>
      </trkpt>
      <trkpt lat="44.36106" lon="3.78516">
        <ele>1248.2</ele>
        <time>2022-10-29T09:38:29Z</time>
      </trkpt>
      <trkpt lat="44.36105" lon="3.78517">
        <ele>1248.2</ele>
        <time>2022-10-29T09:38:30Z</time>
      </trkpt>
      <trkpt lat="44.36104" lon="3.78517">
        <ele>1248</ele>
        <time>2022-10-29T09:38:31Z</time>
      </trkpt>
      <trkpt lat="44.36102" lon="3.78518">
        <ele>1248</ele>
        <time>2022-10-29T09:38:32Z</time>
      </trkpt>
      <trkpt lat="44.36101" lon="3.78518">
        <ele>1247.8</ele>
        <time>2022-10-29T09:38:33Z</time>
      </trkpt>
      <trkpt lat="44.361" lon="3.78519">
        <ele>1247.8</ele>
        <time>2022-10-29T09:38:34Z</time>
      </trkpt>
      <trkpt lat="44.36099" lon="3.7852">
        <ele>1247.8</ele>
        <time>2022-10-29T09:38:35Z</time>
      </trkpt>
      <trkpt lat="44.36098" lon="3.78521">
        <ele>1247.6</ele>
        <time>2022-10-29T09:38:36Z</time>
      </trkpt>
      <trkpt lat="44.36098" lon="3.78522">
        <ele>1247.6</ele>
        <time>2022-10-29T09:38:37Z</time>
      </trkpt>
      <trkpt lat="44.36097" lon="3.78523">
        <ele>1247.6</ele>
        <time>2022-10-29T09:38:38Z</time>
      </trkpt>
      <trkpt lat="44.36097" lon="3.78524">
        <ele>1247.6</ele>
        <time>2022-10-29T09:38:39Z</time>
      </trkpt>
      <trkpt lat="44.36095" lon="3.78525">
        <ele>1247.4</ele>
        <time>2022-10-29T09:38:40Z</time>
      </trkpt>
      <trkpt lat="44.36094" lon="3.78525">
        <ele>1247.4</ele>
        <time>2022-10-29T09:38:41Z</time>
      </trkpt>
      <trkpt lat="44.36093" lon="3.78527">
        <ele>1247.4</ele>
        <time>2022-10-29T09:38:42Z</time>
      </trkpt>
      <trkpt lat="44.36092" lon="3.78528">
        <ele>1247.4</ele>
        <time>2022-10-29T09:38:43Z</time>
      </trkpt>
      <trkpt lat="44.36092" lon="3.78529">
        <ele>1247.4</ele>
        <time>2022-10-29T09:38:44Z</time>
      </trkpt>
      <trkpt lat="44.3609" lon="3.78529">
        <ele>1247.2</ele>
        <time>2022-10-29T09:38:45Z</time>
      </trkpt>
      <trkpt lat="44.36089" lon="3.7853">
        <ele>1247.2</ele>
        <time>2022-10-29T09:38:46Z</time>
      </trkpt>
      <trkpt lat="44.36088" lon="3.78531">
        <ele>1247</ele>
        <time>2022-10-29T09:38:47Z</time>
      </trkpt>
      <trkpt lat="44.36087" lon="3.78532">
        <ele>1247</ele>
        <time>2022-10-29T09:38:48Z</time>
      </trkpt>
      <trkpt lat="44.36086" lon="3.78532">
        <ele>1247</ele>
        <time>2022-10-29T09:38:49Z</time>
      </trkpt>
      <trkpt lat="44.36085" lon="3.78533">
        <ele>1247</ele>
        <time>2022-10-29T09:38:50Z</time>
      </trkpt>
      <trkpt lat="44.36085" lon="3.78534">
        <ele>1247</ele>
        <time>2022-10-29T09:38:51Z</time>
      </trkpt>
      <trkpt lat="44.36084" lon="3.78535">
        <ele>1246.8</ele>
        <time>2022-10-29T09:38:52Z</time>
      </trkpt>
      <trkpt lat="44.36084" lon="3.78536">
        <ele>1246.8</ele>
        <time>2022-10-29T09:38:53Z</time>
      </trkpt>
      <trkpt lat="44.36083" lon="3.78536">
        <ele>1246.8</ele>
        <time>2022-10-29T09:38:54Z</time>
      </trkpt>
      <trkpt lat="44.36082" lon="3.78537">
        <ele>1246.8</ele>
        <time>2022-10-29T09:38:55Z</time>
      </trkpt>
      <trkpt lat="44.36081" lon="3.78538">
        <ele>1246.8</ele>
        <time>2022-10-29T09:38:56Z</time>
      </trkpt>
      <trkpt lat="44.3608" lon="3.78538">
        <ele>1246.8</ele>
        <time>2022-10-29T09:38:57Z</time>
      </trkpt>
      <trkpt lat="44.36079" lon="3.78539">
        <ele>1246.8</ele>
        <time>2022-10-29T09:38:58Z</time>
      </trkpt>
      <trkpt lat="44.36078" lon="3.7854">
        <ele>1246.8</ele>
        <time>2022-10-29T09:38:59Z</time>
      </trkpt>
      <trkpt lat="44.36077" lon="3.7854">
        <ele>1246.8</ele>
        <time>2022-10-29T09:39:00Z</time>
      </trkpt>
      <trkpt lat="44.36076" lon="3.78541">
        <ele>1246.8</ele>
        <time>2022-10-29T09:39:01Z</time>
      </trkpt>
      <trkpt lat="44.36076" lon="3.78542">
        <ele>1246.8</ele>
        <time>2022-10-29T09:39:02Z</time>
      </trkpt>
      <trkpt lat="44.36075" lon="3.78543">
        <ele>1246.6</ele>
        <time>2022-10-29T09:39:03Z</time>
      </trkpt>
      <trkpt lat="44.36074" lon="3.78545">
        <ele>1246.6</ele>
        <time>2022-10-29T09:39:04Z</time>
      </trkpt>
      <trkpt lat="44.36074" lon="3.78546">
        <ele>1246.6</ele>
        <time>2022-10-29T09:39:05Z</time>
      </trkpt>
      <trkpt lat="44.36073" lon="3.78547">
        <ele>1246.6</ele>
        <time>2022-10-29T09:39:06Z</time>
      </trkpt>
      <trkpt lat="44.36073" lon="3.78548">
        <ele>1246.6</ele>
        <time>2022-10-29T09:39:07Z</time>
      </trkpt>
      <trkpt lat="44.36072" lon="3.7855">
        <ele>1246.6</ele>
        <time>2022-10-29T09:39:08Z</time>
      </trkpt>
      <trkpt lat="44.36071" lon="3.78551">
        <ele>1246.6</ele>
        <time>2022-10-29T09:39:09Z</time>
      </trkpt>
      <trkpt lat="44.36071" lon="3.78552">
        <ele>1246.6</ele>
        <time>2022-10-29T09:39:10Z</time>
      </trkpt>
      <trkpt lat="44.36069" lon="3.78553">
        <ele>1246.4</ele>
        <time>2022-10-29T09:39:11Z</time>
      </trkpt>
      <trkpt lat="44.36068" lon="3.78554">
        <ele>1246.4</ele>
        <time>2022-10-29T09:39:12Z</time>
      </trkpt>
      <trkpt lat="44.36067" lon="3.78555">
        <ele>1246.4</ele>
        <time>2022-10-29T09:39:13Z</time>
      </trkpt>
      <trkpt lat="44.36066" lon="3.78556">
        <ele>1246.4</ele>
        <time>2022-10-29T09:39:14Z</time>
      </trkpt>
      <trkpt lat="44.36066" lon="3.78557">
        <ele>1246.2</ele>
        <time>2022-10-29T09:39:15Z</time>
      </trkpt>
      <trkpt lat="44.36065" lon="3.78558">
        <ele>1246.2</ele>
        <time>2022-10-29T09:39:16Z</time>
      </trkpt>
      <trkpt lat="44.36065" lon="3.7856">
        <ele>1246.2</ele>
        <time>2022-10-29T09:39:17Z</time>
      </trkpt>
      <trkpt lat="44.36065" lon="3.78561">
        <ele>1246.2</ele>
        <time>2022-10-29T09:39:18Z</time>
      </trkpt>
      <trkpt lat="44.36065" lon="3.78562">
        <ele>1246.2</ele>
        <time>2022-10-29T09:39:19Z</time>
      </trkpt>
      <trkpt lat="44.36065" lon="3.78563">
        <ele>1246.2</ele>
        <time>2022-10-29T09:39:20Z</time>
      </trkpt>
      <trkpt lat="44.36064" lon="3.78565">
        <ele>1246</ele>
        <time>2022-10-29T09:39:21Z</time>
      </trkpt>
      <trkpt lat="44.36064" lon="3.78566">
        <ele>1246</ele>
        <time>2022-10-29T09:39:22Z</time>
      </trkpt>
      <trkpt lat="44.36063" lon="3.78567">
        <ele>1246</ele>
        <time>2022-10-29T09:39:23Z</time>
      </trkpt>
      <trkpt lat="44.36062" lon="3.78568">
        <ele>1246</ele>
        <time>2022-10-29T09:39:24Z</time>
      </trkpt>
      <trkpt lat="44.36061" lon="3.78569">
        <ele>1246</ele>
        <time>2022-10-29T09:39:25Z</time>
      </trkpt>
      <trkpt lat="44.36061" lon="3.7857">
        <ele>1245.8</ele>
        <time>2022-10-29T09:39:26Z</time>
      </trkpt>
      <trkpt lat="44.3606" lon="3.7857">
        <ele>1245.8</ele>
        <time>2022-10-29T09:39:27Z</time>
      </trkpt>
      <trkpt lat="44.36058" lon="3.78571">
        <ele>1245.4</ele>
        <time>2022-10-29T09:39:32Z</time>
      </trkpt>
      <trkpt lat="44.36058" lon="3.78571">
        <ele>1245.4</ele>
        <time>2022-10-29T09:39:33Z</time>
      </trkpt>
      <trkpt lat="44.36058" lon="3.78571">
        <ele>1245.4</ele>
        <time>2022-10-29T09:39:34Z</time>
      </trkpt>
      <trkpt lat="44.36058" lon="3.78571">
        <ele>1245.4</ele>
        <time>2022-10-29T09:39:35Z</time>
      </trkpt>
      <trkpt lat="44.36058" lon="3.78571">
        <ele>1245.4</ele>
        <time>2022-10-29T09:39:36Z</time>
      </trkpt>
      <trkpt lat="44.36058" lon="3.78571">
        <ele>1245.4</ele>
        <time>2022-10-29T09:39:37Z</time>
      </trkpt>
      <trkpt lat="44.36058" lon="3.78572">
        <ele>1245.4</ele>
        <time>2022-10-29T09:39:58Z</time>
      </trkpt>
      <trkpt lat="44.36057" lon="3.78573">
        <ele>1245.2</ele>
        <time>2022-10-29T09:39:59Z</time>
      </trkpt>
      <trkpt lat="44.36056" lon="3.78574">
        <ele>1245.2</ele>
        <time>2022-10-29T09:40:00Z</time>
      </trkpt>
      <trkpt lat="44.36054" lon="3.78576">
        <ele>1245.2</ele>
        <time>2022-10-29T09:40:01Z</time>
      </trkpt>
      <trkpt lat="44.36054" lon="3.78577">
        <ele>1245.2</ele>
        <time>2022-10-29T09:40:02Z</time>
      </trkpt>
      <trkpt lat="44.36054" lon="3.78577">
        <ele>1245.2</ele>
        <time>2022-10-29T09:40:03Z</time>
      </trkpt>
      <trkpt lat="44.36054" lon="3.78578">
        <ele>1245.2</ele>
        <time>2022-10-29T09:40:04Z</time>
      </trkpt>
      <trkpt lat="44.36054" lon="3.78578">
        <ele>1245</ele>
        <time>2022-10-29T09:40:05Z</time>
      </trkpt>
      <trkpt lat="44.36053" lon="3.78578">
        <ele>1244.8</ele>
        <time>2022-10-29T09:40:06Z</time>
      </trkpt>
      <trkpt lat="44.36053" lon="3.78579">
        <ele>1244.6</ele>
        <time>2022-10-29T09:40:07Z</time>
      </trkpt>
      <trkpt lat="44.36052" lon="3.7858">
        <ele>1244.4</ele>
        <time>2022-10-29T09:40:08Z</time>
      </trkpt>
      <trkpt lat="44.36052" lon="3.78581">
        <ele>1244.4</ele>
        <time>2022-10-29T09:40:09Z</time>
      </trkpt>
      <trkpt lat="44.36052" lon="3.78581">
        <ele>1244.2</ele>
        <time>2022-10-29T09:40:10Z</time>
      </trkpt>
      <trkpt lat="44.36052" lon="3.78581">
        <ele>1244.2</ele>
        <time>2022-10-29T09:40:11Z</time>
      </trkpt>
      <trkpt lat="44.36052" lon="3.78581">
        <ele>1244.2</ele>
        <time>2022-10-29T09:40:12Z</time>
      </trkpt>
      <trkpt lat="44.36052" lon="3.78582">
        <ele>1244.4</ele>
        <time>2022-10-29T09:40:13Z</time>
      </trkpt>
      <trkpt lat="44.36052" lon="3.78583">
        <ele>1244.4</ele>
        <time>2022-10-29T09:40:14Z</time>
      </trkpt>
      <trkpt lat="44.36052" lon="3.78584">
        <ele>1244.6</ele>
        <time>2022-10-29T09:40:15Z</time>
      </trkpt>
      <trkpt lat="44.36052" lon="3.78585">
        <ele>1244.6</ele>
        <time>2022-10-29T09:40:16Z</time>
      </trkpt>
      <trkpt lat="44.36052" lon="3.78586">
        <ele>1244.8</ele>
        <time>2022-10-29T09:40:17Z</time>
      </trkpt>
      <trkpt lat="44.36052" lon="3.78587">
        <ele>1244.8</ele>
        <time>2022-10-29T09:40:18Z</time>
      </trkpt>
      <trkpt lat="44.36052" lon="3.78589">
        <ele>1244.8</ele>
        <time>2022-10-29T09:40:19Z</time>
      </trkpt>
      <trkpt lat="44.36052" lon="3.7859">
        <ele>1244.8</ele>
        <time>2022-10-29T09:40:20Z</time>
      </trkpt>
      <trkpt lat="44.36052" lon="3.78591">
        <ele>1244.8</ele>
        <time>2022-10-29T09:40:21Z</time>
      </trkpt>
      <trkpt lat="44.36052" lon="3.78591">
        <ele>1244.6</ele>
        <time>2022-10-29T09:40:22Z</time>
      </trkpt>
      <trkpt lat="44.36052" lon="3.78592">
        <ele>1244.6</ele>
        <time>2022-10-29T09:40:23Z</time>
      </trkpt>
      <trkpt lat="44.36052" lon="3.78592">
        <ele>1244.6</ele>
        <time>2022-10-29T09:40:24Z</time>
      </trkpt>
      <trkpt lat="44.36052" lon="3.78594">
        <ele>1244.6</ele>
        <time>2022-10-29T09:40:25Z</time>
      </trkpt>
      <trkpt lat="44.36052" lon="3.78595">
        <ele>1244.6</ele>
        <time>2022-10-29T09:40:26Z</time>
      </trkpt>
      <trkpt lat="44.36052" lon="3.78596">
        <ele>1244.6</ele>
        <time>2022-10-29T09:40:27Z</time>
      </trkpt>
      <trkpt lat="44.36052" lon="3.78597">
        <ele>1244.4</ele>
        <time>2022-10-29T09:40:28Z</time>
      </trkpt>
      <trkpt lat="44.36052" lon="3.78598">
        <ele>1244.4</ele>
        <time>2022-10-29T09:40:29Z</time>
      </trkpt>
      <trkpt lat="44.36052" lon="3.78599">
        <ele>1244.4</ele>
        <time>2022-10-29T09:40:30Z</time>
      </trkpt>
      <trkpt lat="44.36052" lon="3.78601">
        <ele>1244.2</ele>
        <time>2022-10-29T09:40:31Z</time>
      </trkpt>
      <trkpt lat="44.36052" lon="3.78602">
        <ele>1244.2</ele>
        <time>2022-10-29T09:40:32Z</time>
      </trkpt>
      <trkpt lat="44.36052" lon="3.78603">
        <ele>1244.2</ele>
        <time>2022-10-29T09:40:33Z</time>
      </trkpt>
      <trkpt lat="44.36053" lon="3.78604">
        <ele>1244.2</ele>
        <time>2022-10-29T09:40:34Z</time>
      </trkpt>
      <trkpt lat="44.36053" lon="3.78604">
        <ele>1244.2</ele>
        <time>2022-10-29T09:40:35Z</time>
      </trkpt>
      <trkpt lat="44.36053" lon="3.78604">
        <ele>1244.2</ele>
        <time>2022-10-29T09:40:36Z</time>
      </trkpt>
      <trkpt lat="44.36053" lon="3.78604">
        <ele>1244</ele>
        <time>2022-10-29T09:40:37Z</time>
      </trkpt>
      <trkpt lat="44.36053" lon="3.78604">
        <ele>1244</ele>
        <time>2022-10-29T09:40:38Z</time>
      </trkpt>
      <trkpt lat="44.36053" lon="3.78605">
        <ele>1244</ele>
        <time>2022-10-29T09:40:39Z</time>
      </trkpt>
      <trkpt lat="44.36052" lon="3.78607">
        <ele>1244</ele>
        <time>2022-10-29T09:40:40Z</time>
      </trkpt>
      <trkpt lat="44.36052" lon="3.78608">
        <ele>1243.8</ele>
        <time>2022-10-29T09:40:41Z</time>
      </trkpt>
      <trkpt lat="44.36052" lon="3.78608">
        <ele>1243.6</ele>
        <time>2022-10-29T09:40:42Z</time>
      </trkpt>
      <trkpt lat="44.36051" lon="3.78609">
        <ele>1243.6</ele>
        <time>2022-10-29T09:40:43Z</time>
      </trkpt>
      <trkpt lat="44.36051" lon="3.7861">
        <ele>1243.6</ele>
        <time>2022-10-29T09:40:44Z</time>
      </trkpt>
      <trkpt lat="44.36051" lon="3.78611">
        <ele>1243.4</ele>
        <time>2022-10-29T09:40:45Z</time>
      </trkpt>
      <trkpt lat="44.36051" lon="3.78611">
        <ele>1243.6</ele>
        <time>2022-10-29T09:40:46Z</time>
      </trkpt>
      <trkpt lat="44.36051" lon="3.78612">
        <ele>1243.8</ele>
        <time>2022-10-29T09:40:47Z</time>
      </trkpt>
      <trkpt lat="44.3605" lon="3.78613">
        <ele>1243.8</ele>
        <time>2022-10-29T09:40:48Z</time>
      </trkpt>
      <trkpt lat="44.3605" lon="3.78616">
        <ele>1244</ele>
        <time>2022-10-29T09:40:51Z</time>
      </trkpt>
      <trkpt lat="44.3605" lon="3.78617">
        <ele>1244</ele>
        <time>2022-10-29T09:40:52Z</time>
      </trkpt>
      <trkpt lat="44.3605" lon="3.78618">
        <ele>1244</ele>
        <time>2022-10-29T09:40:53Z</time>
      </trkpt>
      <trkpt lat="44.3605" lon="3.78618">
        <ele>1243.8</ele>
        <time>2022-10-29T09:40:54Z</time>
      </trkpt>
      <trkpt lat="44.3605" lon="3.78619">
        <ele>1243.8</ele>
        <time>2022-10-29T09:40:55Z</time>
      </trkpt>
      <trkpt lat="44.3605" lon="3.7862">
        <ele>1243.6</ele>
        <time>2022-10-29T09:40:56Z</time>
      </trkpt>
      <trkpt lat="44.3605" lon="3.78621">
        <ele>1243.6</ele>
        <time>2022-10-29T09:40:57Z</time>
      </trkpt>
      <trkpt lat="44.3605" lon="3.78623">
        <ele>1243.4</ele>
        <time>2022-10-29T09:40:58Z</time>
      </trkpt>
      <trkpt lat="44.3605" lon="3.78624">
        <ele>1243.4</ele>
        <time>2022-10-29T09:40:59Z</time>
      </trkpt>
      <trkpt lat="44.3605" lon="3.78625">
        <ele>1243.4</ele>
        <time>2022-10-29T09:41:00Z</time>
      </trkpt>
      <trkpt lat="44.36049" lon="3.78627">
        <ele>1243.4</ele>
        <time>2022-10-29T09:41:01Z</time>
      </trkpt>
      <trkpt lat="44.36049" lon="3.78629">
        <ele>1243.4</ele>
        <time>2022-10-29T09:41:02Z</time>
      </trkpt>
      <trkpt lat="44.36049" lon="3.7863">
        <ele>1243.2</ele>
        <time>2022-10-29T09:41:03Z</time>
      </trkpt>
      <trkpt lat="44.36049" lon="3.78632">
        <ele>1243.2</ele>
        <time>2022-10-29T09:41:04Z</time>
      </trkpt>
      <trkpt lat="44.36049" lon="3.78633">
        <ele>1243.2</ele>
        <time>2022-10-29T09:41:05Z</time>
      </trkpt>
      <trkpt lat="44.36049" lon="3.78634">
        <ele>1243</ele>
        <time>2022-10-29T09:41:06Z</time>
      </trkpt>
      <trkpt lat="44.36049" lon="3.78635">
        <ele>1243</ele>
        <time>2022-10-29T09:41:07Z</time>
      </trkpt>
      <trkpt lat="44.36049" lon="3.78635">
        <ele>1242.8</ele>
        <time>2022-10-29T09:41:08Z</time>
      </trkpt>
      <trkpt lat="44.36049" lon="3.78635">
        <ele>1242.8</ele>
        <time>2022-10-29T09:41:09Z</time>
      </trkpt>
      <trkpt lat="44.36049" lon="3.78636">
        <ele>1242.8</ele>
        <time>2022-10-29T09:41:10Z</time>
      </trkpt>
      <trkpt lat="44.36049" lon="3.78637">
        <ele>1242.6</ele>
        <time>2022-10-29T09:41:11Z</time>
      </trkpt>
      <trkpt lat="44.36049" lon="3.78637">
        <ele>1242.6</ele>
        <time>2022-10-29T09:41:12Z</time>
      </trkpt>
      <trkpt lat="44.36049" lon="3.78638">
        <ele>1242.6</ele>
        <time>2022-10-29T09:41:13Z</time>
      </trkpt>
      <trkpt lat="44.36049" lon="3.78639">
        <ele>1242.6</ele>
        <time>2022-10-29T09:41:14Z</time>
      </trkpt>
      <trkpt lat="44.36049" lon="3.7864">
        <ele>1242.4</ele>
        <time>2022-10-29T09:41:15Z</time>
      </trkpt>
      <trkpt lat="44.36049" lon="3.78641">
        <ele>1242.4</ele>
        <time>2022-10-29T09:41:16Z</time>
      </trkpt>
      <trkpt lat="44.36049" lon="3.78642">
        <ele>1242.2</ele>
        <time>2022-10-29T09:41:17Z</time>
      </trkpt>
      <trkpt lat="44.36048" lon="3.78643">
        <ele>1242.2</ele>
        <time>2022-10-29T09:41:18Z</time>
      </trkpt>
      <trkpt lat="44.36048" lon="3.78644">
        <ele>1242.2</ele>
        <time>2022-10-29T09:41:19Z</time>
      </trkpt>
      <trkpt lat="44.36048" lon="3.78645">
        <ele>1242</ele>
        <time>2022-10-29T09:41:20Z</time>
      </trkpt>
      <trkpt lat="44.36048" lon="3.78646">
        <ele>1242</ele>
        <time>2022-10-29T09:41:21Z</time>
      </trkpt>
      <trkpt lat="44.36048" lon="3.78647">
        <ele>1241.8</ele>
        <time>2022-10-29T09:41:22Z</time>
      </trkpt>
      <trkpt lat="44.36048" lon="3.78647">
        <ele>1241.8</ele>
        <time>2022-10-29T09:41:23Z</time>
      </trkpt>
      <trkpt lat="44.36048" lon="3.78647">
        <ele>1241.8</ele>
        <time>2022-10-29T09:41:24Z</time>
      </trkpt>
      <trkpt lat="44.36047" lon="3.78647">
        <ele>1241.6</ele>
        <time>2022-10-29T09:41:25Z</time>
      </trkpt>
      <trkpt lat="44.36046" lon="3.7865">
        <ele>1241.2</ele>
        <time>2022-10-29T09:41:31Z</time>
      </trkpt>
      <trkpt lat="44.36046" lon="3.78651">
        <ele>1241</ele>
        <time>2022-10-29T09:41:32Z</time>
      </trkpt>
      <trkpt lat="44.36046" lon="3.78653">
        <ele>1241</ele>
        <time>2022-10-29T09:41:33Z</time>
      </trkpt>
      <trkpt lat="44.36046" lon="3.78654">
        <ele>1240.8</ele>
        <time>2022-10-29T09:41:34Z</time>
      </trkpt>
      <trkpt lat="44.36046" lon="3.78655">
        <ele>1240.8</ele>
        <time>2022-10-29T09:41:35Z</time>
      </trkpt>
      <trkpt lat="44.36046" lon="3.78656">
        <ele>1240.8</ele>
        <time>2022-10-29T09:41:36Z</time>
      </trkpt>
      <trkpt lat="44.36046" lon="3.78657">
        <ele>1240.6</ele>
        <time>2022-10-29T09:41:37Z</time>
      </trkpt>
      <trkpt lat="44.36046" lon="3.78658">
        <ele>1240.6</ele>
        <time>2022-10-29T09:41:38Z</time>
      </trkpt>
      <trkpt lat="44.36046" lon="3.78659">
        <ele>1240.6</ele>
        <time>2022-10-29T09:41:39Z</time>
      </trkpt>
      <trkpt lat="44.36046" lon="3.7866">
        <ele>1240.4</ele>
        <time>2022-10-29T09:41:40Z</time>
      </trkpt>
      <trkpt lat="44.36046" lon="3.78661">
        <ele>1240.4</ele>
        <time>2022-10-29T09:41:41Z</time>
      </trkpt>
      <trkpt lat="44.36046" lon="3.78661">
        <ele>1240.2</ele>
        <time>2022-10-29T09:41:42Z</time>
      </trkpt>
      <trkpt lat="44.36046" lon="3.78661">
        <ele>1240.2</ele>
        <time>2022-10-29T09:41:43Z</time>
      </trkpt>
      <trkpt lat="44.36046" lon="3.78661">
        <ele>1240.2</ele>
        <time>2022-10-29T09:41:44Z</time>
      </trkpt>
      <trkpt lat="44.36046" lon="3.78662">
        <ele>1240.2</ele>
        <time>2022-10-29T09:41:45Z</time>
      </trkpt>
      <trkpt lat="44.36047" lon="3.78662">
        <ele>1240</ele>
        <time>2022-10-29T09:41:46Z</time>
      </trkpt>
      <trkpt lat="44.36047" lon="3.78662">
        <ele>1240</ele>
        <time>2022-10-29T09:41:47Z</time>
      </trkpt>
      <trkpt lat="44.36049" lon="3.78668">
        <ele>1240</ele>
        <time>2022-10-29T09:41:57Z</time>
      </trkpt>
      <trkpt lat="44.3605" lon="3.7867">
        <ele>1239.8</ele>
        <time>2022-10-29T09:41:58Z</time>
      </trkpt>
      <trkpt lat="44.3605" lon="3.78671">
        <ele>1239.8</ele>
        <time>2022-10-29T09:41:59Z</time>
      </trkpt>
      <trkpt lat="44.36051" lon="3.78672">
        <ele>1239.8</ele>
        <time>2022-10-29T09:42:00Z</time>
      </trkpt>
      <trkpt lat="44.36051" lon="3.78673">
        <ele>1239.8</ele>
        <time>2022-10-29T09:42:01Z</time>
      </trkpt>
      <trkpt lat="44.36051" lon="3.78674">
        <ele>1239.8</ele>
        <time>2022-10-29T09:42:02Z</time>
      </trkpt>
      <trkpt lat="44.36051" lon="3.78675">
        <ele>1239.8</ele>
        <time>2022-10-29T09:42:03Z</time>
      </trkpt>
      <trkpt lat="44.36052" lon="3.78676">
        <ele>1239.6</ele>
        <time>2022-10-29T09:42:04Z</time>
      </trkpt>
      <trkpt lat="44.36052" lon="3.78677">
        <ele>1239.6</ele>
        <time>2022-10-29T09:42:05Z</time>
      </trkpt>
      <trkpt lat="44.36052" lon="3.78678">
        <ele>1239.6</ele>
        <time>2022-10-29T09:42:06Z</time>
      </trkpt>
      <trkpt lat="44.36052" lon="3.7868">
        <ele>1239.6</ele>
        <time>2022-10-29T09:42:07Z</time>
      </trkpt>
      <trkpt lat="44.36052" lon="3.78683">
        <ele>1239.6</ele>
        <time>2022-10-29T09:42:08Z</time>
      </trkpt>
      <trkpt lat="44.3605" lon="3.78691">
        <ele>1239.6</ele>
        <time>2022-10-29T09:42:09Z</time>
      </trkpt>
      <trkpt lat="44.36051" lon="3.78694">
        <ele>1239.6</ele>
        <time>2022-10-29T09:42:10Z</time>
      </trkpt>
      <trkpt lat="44.36051" lon="3.78697">
        <ele>1239.6</ele>
        <time>2022-10-29T09:42:11Z</time>
      </trkpt>
      <trkpt lat="44.36051" lon="3.787">
        <ele>1239.6</ele>
        <time>2022-10-29T09:42:12Z</time>
      </trkpt>
      <trkpt lat="44.36052" lon="3.78703">
        <ele>1239.6</ele>
        <time>2022-10-29T09:42:13Z</time>
      </trkpt>
      <trkpt lat="44.36052" lon="3.78706">
        <ele>1239.6</ele>
        <time>2022-10-29T09:42:14Z</time>
      </trkpt>
      <trkpt lat="44.36052" lon="3.78709">
        <ele>1239.6</ele>
        <time>2022-10-29T09:42:15Z</time>
      </trkpt>
      <trkpt lat="44.36054" lon="3.78713">
        <ele>1239.6</ele>
        <time>2022-10-29T09:42:16Z</time>
      </trkpt>
      <trkpt lat="44.36054" lon="3.78716">
        <ele>1239.6</ele>
        <time>2022-10-29T09:42:17Z</time>
      </trkpt>
      <trkpt lat="44.36055" lon="3.78718">
        <ele>1239.6</ele>
        <time>2022-10-29T09:42:18Z</time>
      </trkpt>
      <trkpt lat="44.36055" lon="3.78721">
        <ele>1239.6</ele>
        <time>2022-10-29T09:42:19Z</time>
      </trkpt>
      <trkpt lat="44.36055" lon="3.78724">
        <ele>1239.6</ele>
        <time>2022-10-29T09:42:20Z</time>
      </trkpt>
      <trkpt lat="44.36055" lon="3.78727">
        <ele>1239.4</ele>
        <time>2022-10-29T09:42:21Z</time>
      </trkpt>
      <trkpt lat="44.36056" lon="3.78731">
        <ele>1239.4</ele>
        <time>2022-10-29T09:42:22Z</time>
      </trkpt>
      <trkpt lat="44.36057" lon="3.78734">
        <ele>1239.2</ele>
        <time>2022-10-29T09:42:23Z</time>
      </trkpt>
      <trkpt lat="44.36057" lon="3.78739">
        <ele>1239.2</ele>
        <time>2022-10-29T09:42:24Z</time>
      </trkpt>
      <trkpt lat="44.36057" lon="3.78742">
        <ele>1239</ele>
        <time>2022-10-29T09:42:25Z</time>
      </trkpt>
      <trkpt lat="44.36058" lon="3.78746">
        <ele>1239</ele>
        <time>2022-10-29T09:42:26Z</time>
      </trkpt>
      <trkpt lat="44.36059" lon="3.78749">
        <ele>1239</ele>
        <time>2022-10-29T09:42:27Z</time>
      </trkpt>
      <trkpt lat="44.36059" lon="3.78753">
        <ele>1239</ele>
        <time>2022-10-29T09:42:28Z</time>
      </trkpt>
      <trkpt lat="44.3606" lon="3.78756">
        <ele>1239</ele>
        <time>2022-10-29T09:42:29Z</time>
      </trkpt>
      <trkpt lat="44.3606" lon="3.78759">
        <ele>1238.8</ele>
        <time>2022-10-29T09:42:30Z</time>
      </trkpt>
      <trkpt lat="44.3606" lon="3.78763">
        <ele>1238.8</ele>
        <time>2022-10-29T09:42:31Z</time>
      </trkpt>
      <trkpt lat="44.3606" lon="3.78766">
        <ele>1238.8</ele>
        <time>2022-10-29T09:42:32Z</time>
      </trkpt>
      <trkpt lat="44.36059" lon="3.7877">
        <ele>1238.6</ele>
        <time>2022-10-29T09:42:33Z</time>
      </trkpt>
      <trkpt lat="44.36059" lon="3.78773">
        <ele>1238.6</ele>
        <time>2022-10-29T09:42:34Z</time>
      </trkpt>
      <trkpt lat="44.36059" lon="3.78777">
        <ele>1238.4</ele>
        <time>2022-10-29T09:42:35Z</time>
      </trkpt>
      <trkpt lat="44.36059" lon="3.7878">
        <ele>1238.4</ele>
        <time>2022-10-29T09:42:36Z</time>
      </trkpt>
      <trkpt lat="44.36059" lon="3.78784">
        <ele>1238.2</ele>
        <time>2022-10-29T09:42:37Z</time>
      </trkpt>
      <trkpt lat="44.36059" lon="3.78788">
        <ele>1238</ele>
        <time>2022-10-29T09:42:38Z</time>
      </trkpt>
      <trkpt lat="44.36059" lon="3.78792">
        <ele>1237.8</ele>
        <time>2022-10-29T09:42:39Z</time>
      </trkpt>
      <trkpt lat="44.3606" lon="3.78796">
        <ele>1237.8</ele>
        <time>2022-10-29T09:42:40Z</time>
      </trkpt>
      <trkpt lat="44.3606" lon="3.788">
        <ele>1237.8</ele>
        <time>2022-10-29T09:42:41Z</time>
      </trkpt>
      <trkpt lat="44.3606" lon="3.78803">
        <ele>1237.6</ele>
        <time>2022-10-29T09:42:42Z</time>
      </trkpt>
      <trkpt lat="44.3606" lon="3.78806">
        <ele>1237.6</ele>
        <time>2022-10-29T09:42:43Z</time>
      </trkpt>
      <trkpt lat="44.3606" lon="3.78808">
        <ele>1237.4</ele>
        <time>2022-10-29T09:42:44Z</time>
      </trkpt>
      <trkpt lat="44.3606" lon="3.78811">
        <ele>1237.4</ele>
        <time>2022-10-29T09:42:45Z</time>
      </trkpt>
      <trkpt lat="44.3606" lon="3.78813">
        <ele>1237.2</ele>
        <time>2022-10-29T09:42:46Z</time>
      </trkpt>
      <trkpt lat="44.36062" lon="3.78815">
        <ele>1237.2</ele>
        <time>2022-10-29T09:42:47Z</time>
      </trkpt>
      <trkpt lat="44.36062" lon="3.78817">
        <ele>1237.2</ele>
        <time>2022-10-29T09:42:48Z</time>
      </trkpt>
      <trkpt lat="44.36062" lon="3.7882">
        <ele>1237.2</ele>
        <time>2022-10-29T09:42:49Z</time>
      </trkpt>
      <trkpt lat="44.36062" lon="3.78822">
        <ele>1237</ele>
        <time>2022-10-29T09:42:50Z</time>
      </trkpt>
      <trkpt lat="44.36063" lon="3.78826">
        <ele>1236.8</ele>
        <time>2022-10-29T09:42:51Z</time>
      </trkpt>
      <trkpt lat="44.36063" lon="3.78829">
        <ele>1236.6</ele>
        <time>2022-10-29T09:42:52Z</time>
      </trkpt>
      <trkpt lat="44.36062" lon="3.78832">
        <ele>1236.4</ele>
        <time>2022-10-29T09:42:53Z</time>
      </trkpt>
      <trkpt lat="44.36061" lon="3.78834">
        <ele>1236.4</ele>
        <time>2022-10-29T09:42:54Z</time>
      </trkpt>
      <trkpt lat="44.3606" lon="3.78834">
        <ele>1236.2</ele>
        <time>2022-10-29T09:42:55Z</time>
      </trkpt>
      <trkpt lat="44.36059" lon="3.78833">
        <ele>1236.2</ele>
        <time>2022-10-29T09:42:56Z</time>
      </trkpt>
      <trkpt lat="44.36058" lon="3.78831">
        <ele>1236</ele>
        <time>2022-10-29T09:42:57Z</time>
      </trkpt>
      <trkpt lat="44.36056" lon="3.78827">
        <ele>1236</ele>
        <time>2022-10-29T09:42:58Z</time>
      </trkpt>
      <trkpt lat="44.36055" lon="3.78823">
        <ele>1235.6</ele>
        <time>2022-10-29T09:42:59Z</time>
      </trkpt>
      <trkpt lat="44.36054" lon="3.78818">
        <ele>1235.4</ele>
        <time>2022-10-29T09:43:00Z</time>
      </trkpt>
      <trkpt lat="44.36052" lon="3.78811">
        <ele>1235</ele>
        <time>2022-10-29T09:43:01Z</time>
      </trkpt>
      <trkpt lat="44.3605" lon="3.78805">
        <ele>1234.8</ele>
        <time>2022-10-29T09:43:02Z</time>
      </trkpt>
      <trkpt lat="44.36047" lon="3.78799">
        <ele>1234.4</ele>
        <time>2022-10-29T09:43:03Z</time>
      </trkpt>
      <trkpt lat="44.36044" lon="3.78792">
        <ele>1233.8</ele>
        <time>2022-10-29T09:43:04Z</time>
      </trkpt>
      <trkpt lat="44.36041" lon="3.78786">
        <ele>1233.4</ele>
        <time>2022-10-29T09:43:05Z</time>
      </trkpt>
      <trkpt lat="44.36037" lon="3.7878">
        <ele>1232.8</ele>
        <time>2022-10-29T09:43:06Z</time>
      </trkpt>
      <trkpt lat="44.36034" lon="3.78773">
        <ele>1232.2</ele>
        <time>2022-10-29T09:43:07Z</time>
      </trkpt>
      <trkpt lat="44.3603" lon="3.78767">
        <ele>1231.4</ele>
        <time>2022-10-29T09:43:08Z</time>
      </trkpt>
      <trkpt lat="44.36027" lon="3.7876">
        <ele>1230.8</ele>
        <time>2022-10-29T09:43:09Z</time>
      </trkpt>
      <trkpt lat="44.36024" lon="3.78753">
        <ele>1230.2</ele>
        <time>2022-10-29T09:43:10Z</time>
      </trkpt>
      <trkpt lat="44.36021" lon="3.78747">
        <ele>1229.6</ele>
        <time>2022-10-29T09:43:11Z</time>
      </trkpt>
      <trkpt lat="44.36018" lon="3.78741">
        <ele>1228.8</ele>
        <time>2022-10-29T09:43:12Z</time>
      </trkpt>
      <trkpt lat="44.36015" lon="3.78736">
        <ele>1228</ele>
        <time>2022-10-29T09:43:13Z</time>
      </trkpt>
      <trkpt lat="44.36013" lon="3.78732">
        <ele>1227.2</ele>
        <time>2022-10-29T09:43:14Z</time>
      </trkpt>
      <trkpt lat="44.3601" lon="3.78726">
        <ele>1226.6</ele>
        <time>2022-10-29T09:43:15Z</time>
      </trkpt>
      <trkpt lat="44.36007" lon="3.7872">
        <ele>1226.2</ele>
        <time>2022-10-29T09:43:16Z</time>
      </trkpt>
      <trkpt lat="44.36006" lon="3.78714">
        <ele>1225.6</ele>
        <time>2022-10-29T09:43:17Z</time>
      </trkpt>
      <trkpt lat="44.36004" lon="3.78708">
        <ele>1225</ele>
        <time>2022-10-29T09:43:18Z</time>
      </trkpt>
      <trkpt lat="44.36002" lon="3.78701">
        <ele>1224.6</ele>
        <time>2022-10-29T09:43:19Z</time>
      </trkpt>
      <trkpt lat="44.35998" lon="3.78695">
        <ele>1224</ele>
        <time>2022-10-29T09:43:20Z</time>
      </trkpt>
      <trkpt lat="44.35995" lon="3.78691">
        <ele>1223.2</ele>
        <time>2022-10-29T09:43:21Z</time>
      </trkpt>
      <trkpt lat="44.35991" lon="3.78686">
        <ele>1222.6</ele>
        <time>2022-10-29T09:43:22Z</time>
      </trkpt>
      <trkpt lat="44.35988" lon="3.78683">
        <ele>1222</ele>
        <time>2022-10-29T09:43:23Z</time>
      </trkpt>
      <trkpt lat="44.35986" lon="3.78681">
        <ele>1221.8</ele>
        <time>2022-10-29T09:43:24Z</time>
      </trkpt>
      <trkpt lat="44.35982" lon="3.7868">
        <ele>1221.2</ele>
        <time>2022-10-29T09:43:25Z</time>
      </trkpt>
      <trkpt lat="44.35979" lon="3.7868">
        <ele>1220.8</ele>
        <time>2022-10-29T09:43:26Z</time>
      </trkpt>
      <trkpt lat="44.35975" lon="3.78679">
        <ele>1220.4</ele>
        <time>2022-10-29T09:43:27Z</time>
      </trkpt>
      <trkpt lat="44.3597" lon="3.78681">
        <ele>1220</ele>
        <time>2022-10-29T09:43:28Z</time>
      </trkpt>
      <trkpt lat="44.35965" lon="3.78683">
        <ele>1219.8</ele>
        <time>2022-10-29T09:43:29Z</time>
      </trkpt>
      <trkpt lat="44.35961" lon="3.78687">
        <ele>1219.4</ele>
        <time>2022-10-29T09:43:30Z</time>
      </trkpt>
      <trkpt lat="44.35956" lon="3.78691">
        <ele>1218.8</ele>
        <time>2022-10-29T09:43:31Z</time>
      </trkpt>
      <trkpt lat="44.35953" lon="3.78693">
        <ele>1218</ele>
        <time>2022-10-29T09:43:32Z</time>
      </trkpt>
      <trkpt lat="44.35951" lon="3.78694">
        <ele>1217.4</ele>
        <time>2022-10-29T09:43:33Z</time>
      </trkpt>
      <trkpt lat="44.35949" lon="3.78696">
        <ele>1216.8</ele>
        <time>2022-10-29T09:43:34Z</time>
      </trkpt>
      <trkpt lat="44.35949" lon="3.78696">
        <ele>1216.4</ele>
        <time>2022-10-29T09:43:35Z</time>
      </trkpt>
      <trkpt lat="44.35948" lon="3.78697">
        <ele>1216.2</ele>
        <time>2022-10-29T09:43:36Z</time>
      </trkpt>
      <trkpt lat="44.35948" lon="3.78698">
        <ele>1216</ele>
        <time>2022-10-29T09:43:37Z</time>
      </trkpt>
      <trkpt lat="44.35948" lon="3.787">
        <ele>1215.6</ele>
        <time>2022-10-29T09:43:38Z</time>
      </trkpt>
      <trkpt lat="44.35948" lon="3.78703">
        <ele>1215.6</ele>
        <time>2022-10-29T09:43:39Z</time>
      </trkpt>
      <trkpt lat="44.35948" lon="3.78707">
        <ele>1215.2</ele>
        <time>2022-10-29T09:43:40Z</time>
      </trkpt>
      <trkpt lat="44.35948" lon="3.78713">
        <ele>1215.2</ele>
        <time>2022-10-29T09:43:41Z</time>
      </trkpt>
      <trkpt lat="44.35948" lon="3.78719">
        <ele>1215</ele>
        <time>2022-10-29T09:43:42Z</time>
      </trkpt>
      <trkpt lat="44.35948" lon="3.78726">
        <ele>1214.8</ele>
        <time>2022-10-29T09:43:43Z</time>
      </trkpt>
      <trkpt lat="44.35949" lon="3.78732">
        <ele>1214.6</ele>
        <time>2022-10-29T09:43:44Z</time>
      </trkpt>
      <trkpt lat="44.35948" lon="3.78738">
        <ele>1214.2</ele>
        <time>2022-10-29T09:43:45Z</time>
      </trkpt>
      <trkpt lat="44.35948" lon="3.78744">
        <ele>1214</ele>
        <time>2022-10-29T09:43:46Z</time>
      </trkpt>
      <trkpt lat="44.35947" lon="3.78749">
        <ele>1213.8</ele>
        <time>2022-10-29T09:43:47Z</time>
      </trkpt>
      <trkpt lat="44.35947" lon="3.78755">
        <ele>1213.6</ele>
        <time>2022-10-29T09:43:48Z</time>
      </trkpt>
      <trkpt lat="44.35946" lon="3.7876">
        <ele>1213.4</ele>
        <time>2022-10-29T09:43:49Z</time>
      </trkpt>
      <trkpt lat="44.35945" lon="3.78766">
        <ele>1213.4</ele>
        <time>2022-10-29T09:43:50Z</time>
      </trkpt>
      <trkpt lat="44.35943" lon="3.78772">
        <ele>1213.2</ele>
        <time>2022-10-29T09:43:51Z</time>
      </trkpt>
      <trkpt lat="44.35942" lon="3.78777">
        <ele>1213.2</ele>
        <time>2022-10-29T09:43:52Z</time>
      </trkpt>
      <trkpt lat="44.3594" lon="3.78782">
        <ele>1212.8</ele>
        <time>2022-10-29T09:43:53Z</time>
      </trkpt>
      <trkpt lat="44.35938" lon="3.78786">
        <ele>1212.6</ele>
        <time>2022-10-29T09:43:54Z</time>
      </trkpt>
      <trkpt lat="44.35936" lon="3.7879">
        <ele>1212.6</ele>
        <time>2022-10-29T09:43:55Z</time>
      </trkpt>
      <trkpt lat="44.35934" lon="3.78795">
        <ele>1212.6</ele>
        <time>2022-10-29T09:43:56Z</time>
      </trkpt>
      <trkpt lat="44.35933" lon="3.78799">
        <ele>1212.4</ele>
        <time>2022-10-29T09:43:57Z</time>
      </trkpt>
      <trkpt lat="44.35933" lon="3.78804">
        <ele>1212.2</ele>
        <time>2022-10-29T09:43:58Z</time>
      </trkpt>
      <trkpt lat="44.35933" lon="3.78809">
        <ele>1212</ele>
        <time>2022-10-29T09:43:59Z</time>
      </trkpt>
      <trkpt lat="44.35934" lon="3.78812">
        <ele>1211.8</ele>
        <time>2022-10-29T09:44:00Z</time>
      </trkpt>
      <trkpt lat="44.35935" lon="3.78815">
        <ele>1211.4</ele>
        <time>2022-10-29T09:44:01Z</time>
      </trkpt>
      <trkpt lat="44.35935" lon="3.78818">
        <ele>1211</ele>
        <time>2022-10-29T09:44:02Z</time>
      </trkpt>
      <trkpt lat="44.35936" lon="3.7882">
        <ele>1210.8</ele>
        <time>2022-10-29T09:44:03Z</time>
      </trkpt>
      <trkpt lat="44.35937" lon="3.78822">
        <ele>1210.4</ele>
        <time>2022-10-29T09:44:04Z</time>
      </trkpt>
      <trkpt lat="44.35938" lon="3.78824">
        <ele>1210.2</ele>
        <time>2022-10-29T09:44:05Z</time>
      </trkpt>
      <trkpt lat="44.35939" lon="3.78826">
        <ele>1210</ele>
        <time>2022-10-29T09:44:06Z</time>
      </trkpt>
      <trkpt lat="44.35939" lon="3.78829">
        <ele>1209.8</ele>
        <time>2022-10-29T09:44:07Z</time>
      </trkpt>
      <trkpt lat="44.3594" lon="3.78832">
        <ele>1209.4</ele>
        <time>2022-10-29T09:44:08Z</time>
      </trkpt>
      <trkpt lat="44.35941" lon="3.78834">
        <ele>1209.2</ele>
        <time>2022-10-29T09:44:09Z</time>
      </trkpt>
      <trkpt lat="44.35943" lon="3.78836">
        <ele>1208.8</ele>
        <time>2022-10-29T09:44:10Z</time>
      </trkpt>
      <trkpt lat="44.35944" lon="3.78838">
        <ele>1208.6</ele>
        <time>2022-10-29T09:44:11Z</time>
      </trkpt>
      <trkpt lat="44.35946" lon="3.78841">
        <ele>1208.2</ele>
        <time>2022-10-29T09:44:12Z</time>
      </trkpt>
      <trkpt lat="44.35947" lon="3.78843">
        <ele>1208</ele>
        <time>2022-10-29T09:44:13Z</time>
      </trkpt>
      <trkpt lat="44.35949" lon="3.78844">
        <ele>1207.8</ele>
        <time>2022-10-29T09:44:14Z</time>
      </trkpt>
      <trkpt lat="44.35949" lon="3.78844">
        <ele>1207.6</ele>
        <time>2022-10-29T09:44:15Z</time>
      </trkpt>
      <trkpt lat="44.35951" lon="3.78845">
        <ele>1207.2</ele>
        <time>2022-10-29T09:44:18Z</time>
      </trkpt>
      <trkpt lat="44.35952" lon="3.78846">
        <ele>1207.2</ele>
        <time>2022-10-29T09:44:19Z</time>
      </trkpt>
      <trkpt lat="44.35953" lon="3.78847">
        <ele>1207.2</ele>
        <time>2022-10-29T09:44:20Z</time>
      </trkpt>
      <trkpt lat="44.35954" lon="3.78848">
        <ele>1207</ele>
        <time>2022-10-29T09:44:21Z</time>
      </trkpt>
      <trkpt lat="44.35956" lon="3.7885">
        <ele>1207</ele>
        <time>2022-10-29T09:44:22Z</time>
      </trkpt>
      <trkpt lat="44.35958" lon="3.78851">
        <ele>1207</ele>
        <time>2022-10-29T09:44:23Z</time>
      </trkpt>
      <trkpt lat="44.3596" lon="3.78853">
        <ele>1207</ele>
        <time>2022-10-29T09:44:24Z</time>
      </trkpt>
      <trkpt lat="44.35961" lon="3.78855">
        <ele>1206.8</ele>
        <time>2022-10-29T09:44:25Z</time>
      </trkpt>
      <trkpt lat="44.35963" lon="3.78857">
        <ele>1206.8</ele>
        <time>2022-10-29T09:44:26Z</time>
      </trkpt>
      <trkpt lat="44.35964" lon="3.78859">
        <ele>1206.8</ele>
        <time>2022-10-29T09:44:27Z</time>
      </trkpt>
      <trkpt lat="44.35966" lon="3.7886">
        <ele>1206.8</ele>
        <time>2022-10-29T09:44:28Z</time>
      </trkpt>
      <trkpt lat="44.35966" lon="3.78861">
        <ele>1206.6</ele>
        <time>2022-10-29T09:44:29Z</time>
      </trkpt>
      <trkpt lat="44.35967" lon="3.78861">
        <ele>1206.6</ele>
        <time>2022-10-29T09:44:30Z</time>
      </trkpt>
      <trkpt lat="44.35967" lon="3.78861">
        <ele>1206.6</ele>
        <time>2022-10-29T09:44:31Z</time>
      </trkpt>
      <trkpt lat="44.35967" lon="3.78861">
        <ele>1206.6</ele>
        <time>2022-10-29T09:44:32Z</time>
      </trkpt>
      <trkpt lat="44.35967" lon="3.78861">
        <ele>1206.6</ele>
        <time>2022-10-29T09:44:33Z</time>
      </trkpt>
      <trkpt lat="44.35968" lon="3.78862">
        <ele>1206.6</ele>
        <time>2022-10-29T09:44:34Z</time>
      </trkpt>
      <trkpt lat="44.35968" lon="3.78862">
        <ele>1206.6</ele>
        <time>2022-10-29T09:44:35Z</time>
      </trkpt>
      <trkpt lat="44.35969" lon="3.78863">
        <ele>1206.6</ele>
        <time>2022-10-29T09:44:36Z</time>
      </trkpt>
      <trkpt lat="44.35969" lon="3.78864">
        <ele>1206.6</ele>
        <time>2022-10-29T09:44:37Z</time>
      </trkpt>
      <trkpt lat="44.35969" lon="3.78864">
        <ele>1206.6</ele>
        <time>2022-10-29T09:44:38Z</time>
      </trkpt>
      <trkpt lat="44.35969" lon="3.78864">
        <ele>1206.6</ele>
        <time>2022-10-29T09:44:39Z</time>
      </trkpt>
      <trkpt lat="44.35969" lon="3.78863">
        <ele>1206.6</ele>
        <time>2022-10-29T09:44:40Z</time>
      </trkpt>
      <trkpt lat="44.35969" lon="3.78863">
        <ele>1206.6</ele>
        <time>2022-10-29T09:44:41Z</time>
      </trkpt>
      <trkpt lat="44.35969" lon="3.78863">
        <ele>1206.6</ele>
        <time>2022-10-29T09:44:42Z</time>
      </trkpt>
      <trkpt lat="44.3597" lon="3.78865">
        <ele>1206.6</ele>
        <time>2022-10-29T09:44:47Z</time>
      </trkpt>
      <trkpt lat="44.35971" lon="3.78866">
        <ele>1206.6</ele>
        <time>2022-10-29T09:44:48Z</time>
      </trkpt>
      <trkpt lat="44.35972" lon="3.78868">
        <ele>1206.6</ele>
        <time>2022-10-29T09:44:49Z</time>
      </trkpt>
      <trkpt lat="44.35973" lon="3.7887">
        <ele>1206.8</ele>
        <time>2022-10-29T09:44:50Z</time>
      </trkpt>
      <trkpt lat="44.35975" lon="3.78872">
        <ele>1206.8</ele>
        <time>2022-10-29T09:44:51Z</time>
      </trkpt>
      <trkpt lat="44.35976" lon="3.78874">
        <ele>1206.6</ele>
        <time>2022-10-29T09:44:52Z</time>
      </trkpt>
      <trkpt lat="44.35978" lon="3.78875">
        <ele>1206.6</ele>
        <time>2022-10-29T09:44:53Z</time>
      </trkpt>
      <trkpt lat="44.35979" lon="3.78876">
        <ele>1206.6</ele>
        <time>2022-10-29T09:44:54Z</time>
      </trkpt>
      <trkpt lat="44.3598" lon="3.78878">
        <ele>1206.6</ele>
        <time>2022-10-29T09:44:55Z</time>
      </trkpt>
      <trkpt lat="44.35982" lon="3.7888">
        <ele>1206.6</ele>
        <time>2022-10-29T09:44:56Z</time>
      </trkpt>
      <trkpt lat="44.35983" lon="3.78883">
        <ele>1206.6</ele>
        <time>2022-10-29T09:44:57Z</time>
      </trkpt>
      <trkpt lat="44.35985" lon="3.78884">
        <ele>1206.6</ele>
        <time>2022-10-29T09:44:58Z</time>
      </trkpt>
      <trkpt lat="44.35985" lon="3.78885">
        <ele>1206.4</ele>
        <time>2022-10-29T09:44:59Z</time>
      </trkpt>
      <trkpt lat="44.35986" lon="3.78886">
        <ele>1206.4</ele>
        <time>2022-10-29T09:45:00Z</time>
      </trkpt>
      <trkpt lat="44.35987" lon="3.78888">
        <ele>1206.4</ele>
        <time>2022-10-29T09:45:01Z</time>
      </trkpt>
      <trkpt lat="44.35988" lon="3.7889">
        <ele>1206.2</ele>
        <time>2022-10-29T09:45:02Z</time>
      </trkpt>
      <trkpt lat="44.35989" lon="3.78893">
        <ele>1206.2</ele>
        <time>2022-10-29T09:45:03Z</time>
      </trkpt>
      <trkpt lat="44.3599" lon="3.78896">
        <ele>1206</ele>
        <time>2022-10-29T09:45:04Z</time>
      </trkpt>
      <trkpt lat="44.35991" lon="3.78899">
        <ele>1206</ele>
        <time>2022-10-29T09:45:05Z</time>
      </trkpt>
      <trkpt lat="44.35991" lon="3.78901">
        <ele>1205.8</ele>
        <time>2022-10-29T09:45:06Z</time>
      </trkpt>
      <trkpt lat="44.35991" lon="3.78903">
        <ele>1205.8</ele>
        <time>2022-10-29T09:45:07Z</time>
      </trkpt>
      <trkpt lat="44.35991" lon="3.78903">
        <ele>1205.6</ele>
        <time>2022-10-29T09:45:08Z</time>
      </trkpt>
      <trkpt lat="44.35991" lon="3.78903">
        <ele>1205.6</ele>
        <time>2022-10-29T09:45:09Z</time>
      </trkpt>
      <trkpt lat="44.35991" lon="3.78904">
        <ele>1205.6</ele>
        <time>2022-10-29T09:45:10Z</time>
      </trkpt>
      <trkpt lat="44.35991" lon="3.78905">
        <ele>1205.6</ele>
        <time>2022-10-29T09:45:11Z</time>
      </trkpt>
      <trkpt lat="44.35991" lon="3.78907">
        <ele>1205.6</ele>
        <time>2022-10-29T09:45:12Z</time>
      </trkpt>
      <trkpt lat="44.35991" lon="3.78909">
        <ele>1205.6</ele>
        <time>2022-10-29T09:45:13Z</time>
      </trkpt>
      <trkpt lat="44.35991" lon="3.78911">
        <ele>1205.6</ele>
        <time>2022-10-29T09:45:14Z</time>
      </trkpt>
      <trkpt lat="44.35991" lon="3.78913">
        <ele>1205.6</ele>
        <time>2022-10-29T09:45:15Z</time>
      </trkpt>
      <trkpt lat="44.3599" lon="3.78916">
        <ele>1205.6</ele>
        <time>2022-10-29T09:45:16Z</time>
      </trkpt>
      <trkpt lat="44.3599" lon="3.78919">
        <ele>1205.4</ele>
        <time>2022-10-29T09:45:17Z</time>
      </trkpt>
      <trkpt lat="44.35991" lon="3.78922">
        <ele>1205.4</ele>
        <time>2022-10-29T09:45:18Z</time>
      </trkpt>
      <trkpt lat="44.35991" lon="3.78925">
        <ele>1205.4</ele>
        <time>2022-10-29T09:45:19Z</time>
      </trkpt>
      <trkpt lat="44.35992" lon="3.78928">
        <ele>1205.2</ele>
        <time>2022-10-29T09:45:20Z</time>
      </trkpt>
      <trkpt lat="44.35993" lon="3.78931">
        <ele>1205</ele>
        <time>2022-10-29T09:45:21Z</time>
      </trkpt>
      <trkpt lat="44.35993" lon="3.78933">
        <ele>1205</ele>
        <time>2022-10-29T09:45:22Z</time>
      </trkpt>
      <trkpt lat="44.35993" lon="3.78936">
        <ele>1204.8</ele>
        <time>2022-10-29T09:45:23Z</time>
      </trkpt>
      <trkpt lat="44.35993" lon="3.78938">
        <ele>1204.6</ele>
        <time>2022-10-29T09:45:24Z</time>
      </trkpt>
      <trkpt lat="44.35992" lon="3.7894">
        <ele>1204.6</ele>
        <time>2022-10-29T09:45:25Z</time>
      </trkpt>
      <trkpt lat="44.35992" lon="3.78942">
        <ele>1204.6</ele>
        <time>2022-10-29T09:45:26Z</time>
      </trkpt>
      <trkpt lat="44.35991" lon="3.78945">
        <ele>1204.4</ele>
        <time>2022-10-29T09:45:27Z</time>
      </trkpt>
      <trkpt lat="44.3599" lon="3.78948">
        <ele>1204.4</ele>
        <time>2022-10-29T09:45:28Z</time>
      </trkpt>
      <trkpt lat="44.35989" lon="3.78951">
        <ele>1204.2</ele>
        <time>2022-10-29T09:45:29Z</time>
      </trkpt>
      <trkpt lat="44.35988" lon="3.78954">
        <ele>1204</ele>
        <time>2022-10-29T09:45:30Z</time>
      </trkpt>
      <trkpt lat="44.35986" lon="3.78957">
        <ele>1203.8</ele>
        <time>2022-10-29T09:45:31Z</time>
      </trkpt>
      <trkpt lat="44.35985" lon="3.7896">
        <ele>1203.6</ele>
        <time>2022-10-29T09:45:32Z</time>
      </trkpt>
      <trkpt lat="44.35984" lon="3.78963">
        <ele>1203.4</ele>
        <time>2022-10-29T09:45:33Z</time>
      </trkpt>
      <trkpt lat="44.35983" lon="3.78966">
        <ele>1203.2</ele>
        <time>2022-10-29T09:45:34Z</time>
      </trkpt>
      <trkpt lat="44.35983" lon="3.78968">
        <ele>1203</ele>
        <time>2022-10-29T09:45:35Z</time>
      </trkpt>
      <trkpt lat="44.35983" lon="3.78971">
        <ele>1202.8</ele>
        <time>2022-10-29T09:45:36Z</time>
      </trkpt>
      <trkpt lat="44.35983" lon="3.78974">
        <ele>1202.6</ele>
        <time>2022-10-29T09:45:37Z</time>
      </trkpt>
      <trkpt lat="44.35983" lon="3.78977">
        <ele>1202.2</ele>
        <time>2022-10-29T09:45:38Z</time>
      </trkpt>
      <trkpt lat="44.35983" lon="3.78981">
        <ele>1202</ele>
        <time>2022-10-29T09:45:39Z</time>
      </trkpt>
      <trkpt lat="44.35983" lon="3.78984">
        <ele>1201.6</ele>
        <time>2022-10-29T09:45:40Z</time>
      </trkpt>
      <trkpt lat="44.35984" lon="3.78988">
        <ele>1201.4</ele>
        <time>2022-10-29T09:45:41Z</time>
      </trkpt>
      <trkpt lat="44.35984" lon="3.78991">
        <ele>1201.2</ele>
        <time>2022-10-29T09:45:42Z</time>
      </trkpt>
      <trkpt lat="44.35984" lon="3.78994">
        <ele>1200.8</ele>
        <time>2022-10-29T09:45:43Z</time>
      </trkpt>
      <trkpt lat="44.35984" lon="3.78997">
        <ele>1200.6</ele>
        <time>2022-10-29T09:45:44Z</time>
      </trkpt>
      <trkpt lat="44.35984" lon="3.78999">
        <ele>1200.4</ele>
        <time>2022-10-29T09:45:45Z</time>
      </trkpt>
      <trkpt lat="44.35983" lon="3.79002">
        <ele>1200.2</ele>
        <time>2022-10-29T09:45:46Z</time>
      </trkpt>
      <trkpt lat="44.35983" lon="3.79005">
        <ele>1200</ele>
        <time>2022-10-29T09:45:47Z</time>
      </trkpt>
      <trkpt lat="44.35983" lon="3.79006">
        <ele>1199.8</ele>
        <time>2022-10-29T09:45:48Z</time>
      </trkpt>
      <trkpt lat="44.35982" lon="3.79007">
        <ele>1199.8</ele>
        <time>2022-10-29T09:45:49Z</time>
      </trkpt>
      <trkpt lat="44.35981" lon="3.79008">
        <ele>1199.6</ele>
        <time>2022-10-29T09:45:50Z</time>
      </trkpt>
      <trkpt lat="44.3598" lon="3.79009">
        <ele>1199.6</ele>
        <time>2022-10-29T09:45:51Z</time>
      </trkpt>
      <trkpt lat="44.35978" lon="3.7901">
        <ele>1199.4</ele>
        <time>2022-10-29T09:45:52Z</time>
      </trkpt>
      <trkpt lat="44.35975" lon="3.79011">
        <ele>1199</ele>
        <time>2022-10-29T09:45:53Z</time>
      </trkpt>
      <trkpt lat="44.35972" lon="3.79012">
        <ele>1198.6</ele>
        <time>2022-10-29T09:45:54Z</time>
      </trkpt>
      <trkpt lat="44.3597" lon="3.79013">
        <ele>1198.4</ele>
        <time>2022-10-29T09:45:55Z</time>
      </trkpt>
      <trkpt lat="44.35969" lon="3.79013">
        <ele>1198.2</ele>
        <time>2022-10-29T09:45:56Z</time>
      </trkpt>
      <trkpt lat="44.35968" lon="3.79012">
        <ele>1198</ele>
        <time>2022-10-29T09:45:57Z</time>
      </trkpt>
      <trkpt lat="44.35966" lon="3.7901">
        <ele>1197.8</ele>
        <time>2022-10-29T09:45:58Z</time>
      </trkpt>
      <trkpt lat="44.35965" lon="3.79008">
        <ele>1197.6</ele>
        <time>2022-10-29T09:45:59Z</time>
      </trkpt>
      <trkpt lat="44.35963" lon="3.79006">
        <ele>1197.6</ele>
        <time>2022-10-29T09:46:00Z</time>
      </trkpt>
      <trkpt lat="44.35961" lon="3.79004">
        <ele>1197.6</ele>
        <time>2022-10-29T09:46:01Z</time>
      </trkpt>
      <trkpt lat="44.35959" lon="3.79001">
        <ele>1197.4</ele>
        <time>2022-10-29T09:46:02Z</time>
      </trkpt>
      <trkpt lat="44.35957" lon="3.78999">
        <ele>1197.2</ele>
        <time>2022-10-29T09:46:03Z</time>
      </trkpt>
      <trkpt lat="44.35955" lon="3.78997">
        <ele>1197.2</ele>
        <time>2022-10-29T09:46:04Z</time>
      </trkpt>
      <trkpt lat="44.35953" lon="3.78994">
        <ele>1197</ele>
        <time>2022-10-29T09:46:05Z</time>
      </trkpt>
      <trkpt lat="44.35951" lon="3.78991">
        <ele>1196.8</ele>
        <time>2022-10-29T09:46:06Z</time>
      </trkpt>
      <trkpt lat="44.35949" lon="3.78988">
        <ele>1196.8</ele>
        <time>2022-10-29T09:46:07Z</time>
      </trkpt>
      <trkpt lat="44.35947" lon="3.78987">
        <ele>1196.6</ele>
        <time>2022-10-29T09:46:08Z</time>
      </trkpt>
      <trkpt lat="44.35945" lon="3.78987">
        <ele>1196.4</ele>
        <time>2022-10-29T09:46:09Z</time>
      </trkpt>
      <trkpt lat="44.35942" lon="3.78989">
        <ele>1196.2</ele>
        <time>2022-10-29T09:46:10Z</time>
      </trkpt>
      <trkpt lat="44.3594" lon="3.7899">
        <ele>1195.8</ele>
        <time>2022-10-29T09:46:11Z</time>
      </trkpt>
      <trkpt lat="44.35938" lon="3.78992">
        <ele>1195.4</ele>
        <time>2022-10-29T09:46:12Z</time>
      </trkpt>
      <trkpt lat="44.35936" lon="3.78993">
        <ele>1195.2</ele>
        <time>2022-10-29T09:46:13Z</time>
      </trkpt>
      <trkpt lat="44.35934" lon="3.78994">
        <ele>1195</ele>
        <time>2022-10-29T09:46:14Z</time>
      </trkpt>
      <trkpt lat="44.35934" lon="3.78995">
        <ele>1194.8</ele>
        <time>2022-10-29T09:46:15Z</time>
      </trkpt>
      <trkpt lat="44.35934" lon="3.78995">
        <ele>1194.6</ele>
        <time>2022-10-29T09:46:16Z</time>
      </trkpt>
      <trkpt lat="44.35933" lon="3.78995">
        <ele>1194.4</ele>
        <time>2022-10-29T09:46:17Z</time>
      </trkpt>
      <trkpt lat="44.35932" lon="3.78995">
        <ele>1194.2</ele>
        <time>2022-10-29T09:46:18Z</time>
      </trkpt>
      <trkpt lat="44.35931" lon="3.78995">
        <ele>1194.2</ele>
        <time>2022-10-29T09:46:19Z</time>
      </trkpt>
      <trkpt lat="44.3593" lon="3.78995">
        <ele>1194</ele>
        <time>2022-10-29T09:46:20Z</time>
      </trkpt>
      <trkpt lat="44.3593" lon="3.78995">
        <ele>1193.8</ele>
        <time>2022-10-29T09:46:21Z</time>
      </trkpt>
      <trkpt lat="44.35929" lon="3.78995">
        <ele>1193.8</ele>
        <time>2022-10-29T09:46:22Z</time>
      </trkpt>
      <trkpt lat="44.35928" lon="3.78995">
        <ele>1193.6</ele>
        <time>2022-10-29T09:46:23Z</time>
      </trkpt>
      <trkpt lat="44.35928" lon="3.78995">
        <ele>1193.6</ele>
        <time>2022-10-29T09:46:24Z</time>
      </trkpt>
      <trkpt lat="44.35928" lon="3.78995">
        <ele>1193.4</ele>
        <time>2022-10-29T09:46:25Z</time>
      </trkpt>
      <trkpt lat="44.35928" lon="3.78995">
        <ele>1193.4</ele>
        <time>2022-10-29T09:46:26Z</time>
      </trkpt>
      <trkpt lat="44.35928" lon="3.78995">
        <ele>1193.2</ele>
        <time>2022-10-29T09:46:27Z</time>
      </trkpt>
      <trkpt lat="44.35928" lon="3.78995">
        <ele>1193.2</ele>
        <time>2022-10-29T09:46:28Z</time>
      </trkpt>
      <trkpt lat="44.35925" lon="3.78995">
        <ele>1193</ele>
        <time>2022-10-29T09:46:42Z</time>
      </trkpt>
      <trkpt lat="44.35922" lon="3.78995">
        <ele>1192.8</ele>
        <time>2022-10-29T09:46:43Z</time>
      </trkpt>
      <trkpt lat="44.35917" lon="3.78995">
        <ele>1192.6</ele>
        <time>2022-10-29T09:46:44Z</time>
      </trkpt>
      <trkpt lat="44.35915" lon="3.78994">
        <ele>1192.6</ele>
        <time>2022-10-29T09:46:45Z</time>
      </trkpt>
      <trkpt lat="44.35912" lon="3.78993">
        <ele>1192.2</ele>
        <time>2022-10-29T09:46:46Z</time>
      </trkpt>
      <trkpt lat="44.35909" lon="3.78992">
        <ele>1192</ele>
        <time>2022-10-29T09:46:47Z</time>
      </trkpt>
      <trkpt lat="44.35906" lon="3.78991">
        <ele>1192</ele>
        <time>2022-10-29T09:46:48Z</time>
      </trkpt>
      <trkpt lat="44.35902" lon="3.78989">
        <ele>1191.8</ele>
        <time>2022-10-29T09:46:49Z</time>
      </trkpt>
      <trkpt lat="44.35899" lon="3.78986">
        <ele>1191.6</ele>
        <time>2022-10-29T09:46:50Z</time>
      </trkpt>
      <trkpt lat="44.35895" lon="3.78984">
        <ele>1191.4</ele>
        <time>2022-10-29T09:46:51Z</time>
      </trkpt>
      <trkpt lat="44.35891" lon="3.78982">
        <ele>1191.2</ele>
        <time>2022-10-29T09:46:52Z</time>
      </trkpt>
      <trkpt lat="44.35887" lon="3.78981">
        <ele>1191</ele>
        <time>2022-10-29T09:46:53Z</time>
      </trkpt>
      <trkpt lat="44.35885" lon="3.78978">
        <ele>1190.8</ele>
        <time>2022-10-29T09:46:54Z</time>
      </trkpt>
      <trkpt lat="44.35882" lon="3.78975">
        <ele>1190.6</ele>
        <time>2022-10-29T09:46:55Z</time>
      </trkpt>
      <trkpt lat="44.3588" lon="3.78971">
        <ele>1190.6</ele>
        <time>2022-10-29T09:46:56Z</time>
      </trkpt>
      <trkpt lat="44.35878" lon="3.78967">
        <ele>1190.6</ele>
        <time>2022-10-29T09:46:57Z</time>
      </trkpt>
      <trkpt lat="44.35877" lon="3.78963">
        <ele>1190.4</ele>
        <time>2022-10-29T09:46:58Z</time>
      </trkpt>
      <trkpt lat="44.35876" lon="3.7896">
        <ele>1190.4</ele>
        <time>2022-10-29T09:46:59Z</time>
      </trkpt>
      <trkpt lat="44.35874" lon="3.78956">
        <ele>1190.2</ele>
        <time>2022-10-29T09:47:00Z</time>
      </trkpt>
      <trkpt lat="44.35872" lon="3.78952">
        <ele>1190.2</ele>
        <time>2022-10-29T09:47:01Z</time>
      </trkpt>
      <trkpt lat="44.3587" lon="3.78948">
        <ele>1190.2</ele>
        <time>2022-10-29T09:47:02Z</time>
      </trkpt>
      <trkpt lat="44.35869" lon="3.78944">
        <ele>1190.2</ele>
        <time>2022-10-29T09:47:03Z</time>
      </trkpt>
      <trkpt lat="44.35867" lon="3.7894">
        <ele>1190</ele>
        <time>2022-10-29T09:47:04Z</time>
      </trkpt>
      <trkpt lat="44.35866" lon="3.78937">
        <ele>1190</ele>
        <time>2022-10-29T09:47:05Z</time>
      </trkpt>
      <trkpt lat="44.35864" lon="3.78933">
        <ele>1190</ele>
        <time>2022-10-29T09:47:06Z</time>
      </trkpt>
      <trkpt lat="44.35863" lon="3.78928">
        <ele>1190</ele>
        <time>2022-10-29T09:47:07Z</time>
      </trkpt>
      <trkpt lat="44.35861" lon="3.78925">
        <ele>1190</ele>
        <time>2022-10-29T09:47:08Z</time>
      </trkpt>
      <trkpt lat="44.35859" lon="3.78922">
        <ele>1189.8</ele>
        <time>2022-10-29T09:47:09Z</time>
      </trkpt>
      <trkpt lat="44.35857" lon="3.78919">
        <ele>1189.8</ele>
        <time>2022-10-29T09:47:10Z</time>
      </trkpt>
      <trkpt lat="44.35856" lon="3.78917">
        <ele>1189.6</ele>
        <time>2022-10-29T09:47:11Z</time>
      </trkpt>
      <trkpt lat="44.35855" lon="3.78916">
        <ele>1189.6</ele>
        <time>2022-10-29T09:47:12Z</time>
      </trkpt>
      <trkpt lat="44.35853" lon="3.78916">
        <ele>1189.6</ele>
        <time>2022-10-29T09:47:13Z</time>
      </trkpt>
      <trkpt lat="44.35851" lon="3.78915">
        <ele>1189.8</ele>
        <time>2022-10-29T09:47:14Z</time>
      </trkpt>
      <trkpt lat="44.35849" lon="3.78915">
        <ele>1189.8</ele>
        <time>2022-10-29T09:47:15Z</time>
      </trkpt>
      <trkpt lat="44.35847" lon="3.78914">
        <ele>1189.6</ele>
        <time>2022-10-29T09:47:16Z</time>
      </trkpt>
      <trkpt lat="44.35845" lon="3.78913">
        <ele>1189.6</ele>
        <time>2022-10-29T09:47:17Z</time>
      </trkpt>
      <trkpt lat="44.35842" lon="3.78912">
        <ele>1189.6</ele>
        <time>2022-10-29T09:47:18Z</time>
      </trkpt>
      <trkpt lat="44.3584" lon="3.7891">
        <ele>1189.8</ele>
        <time>2022-10-29T09:47:19Z</time>
      </trkpt>
      <trkpt lat="44.35837" lon="3.78908">
        <ele>1189.8</ele>
        <time>2022-10-29T09:47:20Z</time>
      </trkpt>
      <trkpt lat="44.35834" lon="3.78907">
        <ele>1189.6</ele>
        <time>2022-10-29T09:47:21Z</time>
      </trkpt>
      <trkpt lat="44.35831" lon="3.78904">
        <ele>1189.6</ele>
        <time>2022-10-29T09:47:22Z</time>
      </trkpt>
      <trkpt lat="44.35827" lon="3.78903">
        <ele>1189.6</ele>
        <time>2022-10-29T09:47:23Z</time>
      </trkpt>
      <trkpt lat="44.35823" lon="3.78901">
        <ele>1189.4</ele>
        <time>2022-10-29T09:47:24Z</time>
      </trkpt>
      <trkpt lat="44.35819" lon="3.78899">
        <ele>1189.2</ele>
        <time>2022-10-29T09:47:25Z</time>
      </trkpt>
      <trkpt lat="44.35813" lon="3.78897">
        <ele>1189</ele>
        <time>2022-10-29T09:47:26Z</time>
      </trkpt>
      <trkpt lat="44.35808" lon="3.78895">
        <ele>1188.8</ele>
        <time>2022-10-29T09:47:27Z</time>
      </trkpt>
      <trkpt lat="44.35802" lon="3.78894">
        <ele>1188.4</ele>
        <time>2022-10-29T09:47:28Z</time>
      </trkpt>
      <trkpt lat="44.35796" lon="3.78892">
        <ele>1188</ele>
        <time>2022-10-29T09:47:29Z</time>
      </trkpt>
      <trkpt lat="44.35791" lon="3.78889">
        <ele>1187.4</ele>
        <time>2022-10-29T09:47:30Z</time>
      </trkpt>
      <trkpt lat="44.35786" lon="3.78885">
        <ele>1187</ele>
        <time>2022-10-29T09:47:31Z</time>
      </trkpt>
      <trkpt lat="44.35782" lon="3.78879">
        <ele>1186.4</ele>
        <time>2022-10-29T09:47:32Z</time>
      </trkpt>
      <trkpt lat="44.35779" lon="3.78872">
        <ele>1186</ele>
        <time>2022-10-29T09:47:33Z</time>
      </trkpt>
      <trkpt lat="44.35778" lon="3.78864">
        <ele>1185.6</ele>
        <time>2022-10-29T09:47:34Z</time>
      </trkpt>
      <trkpt lat="44.35778" lon="3.78855">
        <ele>1185.2</ele>
        <time>2022-10-29T09:47:35Z</time>
      </trkpt>
      <trkpt lat="44.3578" lon="3.78845">
        <ele>1184.8</ele>
        <time>2022-10-29T09:47:36Z</time>
      </trkpt>
      <trkpt lat="44.35782" lon="3.78835">
        <ele>1184.4</ele>
        <time>2022-10-29T09:47:37Z</time>
      </trkpt>
      <trkpt lat="44.35785" lon="3.78824">
        <ele>1184.2</ele>
        <time>2022-10-29T09:47:38Z</time>
      </trkpt>
      <trkpt lat="44.35789" lon="3.78815">
        <ele>1184</ele>
        <time>2022-10-29T09:47:39Z</time>
      </trkpt>
      <trkpt lat="44.35791" lon="3.78805">
        <ele>1183.8</ele>
        <time>2022-10-29T09:47:40Z</time>
      </trkpt>
      <trkpt lat="44.35794" lon="3.78794">
        <ele>1183.6</ele>
        <time>2022-10-29T09:47:41Z</time>
      </trkpt>
      <trkpt lat="44.35795" lon="3.78783">
        <ele>1183.4</ele>
        <time>2022-10-29T09:47:42Z</time>
      </trkpt>
      <trkpt lat="44.35796" lon="3.78771">
        <ele>1183</ele>
        <time>2022-10-29T09:47:43Z</time>
      </trkpt>
      <trkpt lat="44.35796" lon="3.78761">
        <ele>1182.8</ele>
        <time>2022-10-29T09:47:44Z</time>
      </trkpt>
      <trkpt lat="44.35796" lon="3.78751">
        <ele>1182.2</ele>
        <time>2022-10-29T09:47:45Z</time>
      </trkpt>
      <trkpt lat="44.35795" lon="3.78741">
        <ele>1181.4</ele>
        <time>2022-10-29T09:47:46Z</time>
      </trkpt>
      <trkpt lat="44.35794" lon="3.78733">
        <ele>1180.6</ele>
        <time>2022-10-29T09:47:47Z</time>
      </trkpt>
      <trkpt lat="44.35794" lon="3.78728">
        <ele>1180</ele>
        <time>2022-10-29T09:47:48Z</time>
      </trkpt>
      <trkpt lat="44.35794" lon="3.78724">
        <ele>1179.6</ele>
        <time>2022-10-29T09:47:49Z</time>
      </trkpt>
      <trkpt lat="44.35794" lon="3.78723">
        <ele>1179.2</ele>
        <time>2022-10-29T09:47:50Z</time>
      </trkpt>
      <trkpt lat="44.35795" lon="3.78721">
        <ele>1178</ele>
        <time>2022-10-29T09:48:43Z</time>
      </trkpt>
      <trkpt lat="44.35795" lon="3.78718">
        <ele>1178</ele>
        <time>2022-10-29T09:48:44Z</time>
      </trkpt>
      <trkpt lat="44.35796" lon="3.78714">
        <ele>1178.2</ele>
        <time>2022-10-29T09:48:45Z</time>
      </trkpt>
      <trkpt lat="44.35797" lon="3.78708">
        <ele>1178.2</ele>
        <time>2022-10-29T09:48:46Z</time>
      </trkpt>
      <trkpt lat="44.35798" lon="3.78705">
        <ele>1178.4</ele>
        <time>2022-10-29T09:48:47Z</time>
      </trkpt>
      <trkpt lat="44.35798" lon="3.78701">
        <ele>1178.4</ele>
        <time>2022-10-29T09:48:48Z</time>
      </trkpt>
      <trkpt lat="44.35799" lon="3.78698">
        <ele>1178.6</ele>
        <time>2022-10-29T09:48:49Z</time>
      </trkpt>
      <trkpt lat="44.358" lon="3.78694">
        <ele>1178.8</ele>
        <time>2022-10-29T09:48:50Z</time>
      </trkpt>
      <trkpt lat="44.358" lon="3.7869">
        <ele>1178.8</ele>
        <time>2022-10-29T09:48:51Z</time>
      </trkpt>
      <trkpt lat="44.35801" lon="3.78687">
        <ele>1178.8</ele>
        <time>2022-10-29T09:48:52Z</time>
      </trkpt>
      <trkpt lat="44.35802" lon="3.78683">
        <ele>1179</ele>
        <time>2022-10-29T09:48:53Z</time>
      </trkpt>
      <trkpt lat="44.35803" lon="3.7868">
        <ele>1179</ele>
        <time>2022-10-29T09:48:54Z</time>
      </trkpt>
      <trkpt lat="44.35804" lon="3.78676">
        <ele>1179</ele>
        <time>2022-10-29T09:48:55Z</time>
      </trkpt>
      <trkpt lat="44.35805" lon="3.78673">
        <ele>1179.2</ele>
        <time>2022-10-29T09:48:56Z</time>
      </trkpt>
      <trkpt lat="44.35804" lon="3.78669">
        <ele>1179.2</ele>
        <time>2022-10-29T09:48:57Z</time>
      </trkpt>
      <trkpt lat="44.35803" lon="3.78665">
        <ele>1179.4</ele>
        <time>2022-10-29T09:48:58Z</time>
      </trkpt>
      <trkpt lat="44.35801" lon="3.78662">
        <ele>1179.4</ele>
        <time>2022-10-29T09:48:59Z</time>
      </trkpt>
      <trkpt lat="44.35799" lon="3.78659">
        <ele>1179.4</ele>
        <time>2022-10-29T09:49:00Z</time>
      </trkpt>
      <trkpt lat="44.35797" lon="3.78656">
        <ele>1179.6</ele>
        <time>2022-10-29T09:49:01Z</time>
      </trkpt>
      <trkpt lat="44.35794" lon="3.78654">
        <ele>1179.6</ele>
        <time>2022-10-29T09:49:02Z</time>
      </trkpt>
      <trkpt lat="44.3579" lon="3.78653">
        <ele>1179.6</ele>
        <time>2022-10-29T09:49:03Z</time>
      </trkpt>
      <trkpt lat="44.35787" lon="3.78653">
        <ele>1179.6</ele>
        <time>2022-10-29T09:49:04Z</time>
      </trkpt>
      <trkpt lat="44.35784" lon="3.78654">
        <ele>1179.8</ele>
        <time>2022-10-29T09:49:05Z</time>
      </trkpt>
      <trkpt lat="44.3578" lon="3.78654">
        <ele>1179.8</ele>
        <time>2022-10-29T09:49:06Z</time>
      </trkpt>
      <trkpt lat="44.35777" lon="3.78655">
        <ele>1179.8</ele>
        <time>2022-10-29T09:49:07Z</time>
      </trkpt>
      <trkpt lat="44.35773" lon="3.78656">
        <ele>1180</ele>
        <time>2022-10-29T09:49:08Z</time>
      </trkpt>
      <trkpt lat="44.35769" lon="3.78657">
        <ele>1180</ele>
        <time>2022-10-29T09:49:09Z</time>
      </trkpt>
      <trkpt lat="44.35765" lon="3.78657">
        <ele>1180</ele>
        <time>2022-10-29T09:49:10Z</time>
      </trkpt>
      <trkpt lat="44.35761" lon="3.78657">
        <ele>1180</ele>
        <time>2022-10-29T09:49:11Z</time>
      </trkpt>
      <trkpt lat="44.35758" lon="3.78656">
        <ele>1180</ele>
        <time>2022-10-29T09:49:12Z</time>
      </trkpt>
      <trkpt lat="44.35755" lon="3.78655">
        <ele>1180.2</ele>
        <time>2022-10-29T09:49:13Z</time>
      </trkpt>
      <trkpt lat="44.35751" lon="3.78653">
        <ele>1180.2</ele>
        <time>2022-10-29T09:49:14Z</time>
      </trkpt>
      <trkpt lat="44.35749" lon="3.78651">
        <ele>1180.2</ele>
        <time>2022-10-29T09:49:15Z</time>
      </trkpt>
      <trkpt lat="44.35746" lon="3.78649">
        <ele>1180.2</ele>
        <time>2022-10-29T09:49:16Z</time>
      </trkpt>
      <trkpt lat="44.35744" lon="3.78646">
        <ele>1180.2</ele>
        <time>2022-10-29T09:49:17Z</time>
      </trkpt>
      <trkpt lat="44.35742" lon="3.78643">
        <ele>1180.4</ele>
        <time>2022-10-29T09:49:18Z</time>
      </trkpt>
      <trkpt lat="44.35741" lon="3.78641">
        <ele>1180.6</ele>
        <time>2022-10-29T09:49:19Z</time>
      </trkpt>
      <trkpt lat="44.3574" lon="3.78638">
        <ele>1180.8</ele>
        <time>2022-10-29T09:49:20Z</time>
      </trkpt>
      <trkpt lat="44.35739" lon="3.78634">
        <ele>1180.8</ele>
        <time>2022-10-29T09:49:21Z</time>
      </trkpt>
      <trkpt lat="44.35738" lon="3.78631">
        <ele>1181</ele>
        <time>2022-10-29T09:49:22Z</time>
      </trkpt>
      <trkpt lat="44.35738" lon="3.78628">
        <ele>1181.2</ele>
        <time>2022-10-29T09:49:23Z</time>
      </trkpt>
      <trkpt lat="44.35738" lon="3.78624">
        <ele>1181.4</ele>
        <time>2022-10-29T09:49:24Z</time>
      </trkpt>
      <trkpt lat="44.35738" lon="3.78621">
        <ele>1181.4</ele>
        <time>2022-10-29T09:49:25Z</time>
      </trkpt>
      <trkpt lat="44.35737" lon="3.78617">
        <ele>1181.6</ele>
        <time>2022-10-29T09:49:26Z</time>
      </trkpt>
      <trkpt lat="44.35736" lon="3.78614">
        <ele>1181.6</ele>
        <time>2022-10-29T09:49:27Z</time>
      </trkpt>
      <trkpt lat="44.35736" lon="3.7861">
        <ele>1181.6</ele>
        <time>2022-10-29T09:49:28Z</time>
      </trkpt>
      <trkpt lat="44.35736" lon="3.78606">
        <ele>1181.6</ele>
        <time>2022-10-29T09:49:29Z</time>
      </trkpt>
      <trkpt lat="44.35735" lon="3.78602">
        <ele>1181.6</ele>
        <time>2022-10-29T09:49:30Z</time>
      </trkpt>
      <trkpt lat="44.35735" lon="3.78598">
        <ele>1181.6</ele>
        <time>2022-10-29T09:49:31Z</time>
      </trkpt>
      <trkpt lat="44.35735" lon="3.78594">
        <ele>1181.6</ele>
        <time>2022-10-29T09:49:32Z</time>
      </trkpt>
      <trkpt lat="44.35735" lon="3.7859">
        <ele>1181.6</ele>
        <time>2022-10-29T09:49:33Z</time>
      </trkpt>
      <trkpt lat="44.35735" lon="3.78586">
        <ele>1181.4</ele>
        <time>2022-10-29T09:49:34Z</time>
      </trkpt>
      <trkpt lat="44.35734" lon="3.78581">
        <ele>1181.4</ele>
        <time>2022-10-29T09:49:35Z</time>
      </trkpt>
      <trkpt lat="44.35733" lon="3.78577">
        <ele>1181.4</ele>
        <time>2022-10-29T09:49:36Z</time>
      </trkpt>
      <trkpt lat="44.35733" lon="3.78572">
        <ele>1181.2</ele>
        <time>2022-10-29T09:49:37Z</time>
      </trkpt>
      <trkpt lat="44.35733" lon="3.78566">
        <ele>1181</ele>
        <time>2022-10-29T09:49:38Z</time>
      </trkpt>
      <trkpt lat="44.35733" lon="3.78561">
        <ele>1181</ele>
        <time>2022-10-29T09:49:39Z</time>
      </trkpt>
      <trkpt lat="44.35733" lon="3.78556">
        <ele>1180.8</ele>
        <time>2022-10-29T09:49:40Z</time>
      </trkpt>
      <trkpt lat="44.35733" lon="3.78551">
        <ele>1180.6</ele>
        <time>2022-10-29T09:49:41Z</time>
      </trkpt>
      <trkpt lat="44.35733" lon="3.78546">
        <ele>1180.4</ele>
        <time>2022-10-29T09:49:42Z</time>
      </trkpt>
      <trkpt lat="44.35733" lon="3.78541">
        <ele>1180.2</ele>
        <time>2022-10-29T09:49:43Z</time>
      </trkpt>
      <trkpt lat="44.35733" lon="3.78535">
        <ele>1180</ele>
        <time>2022-10-29T09:49:44Z</time>
      </trkpt>
      <trkpt lat="44.35732" lon="3.7853">
        <ele>1179.8</ele>
        <time>2022-10-29T09:49:45Z</time>
      </trkpt>
      <trkpt lat="44.35732" lon="3.78525">
        <ele>1179.8</ele>
        <time>2022-10-29T09:49:46Z</time>
      </trkpt>
      <trkpt lat="44.35732" lon="3.7852">
        <ele>1179.6</ele>
        <time>2022-10-29T09:49:47Z</time>
      </trkpt>
      <trkpt lat="44.35732" lon="3.78516">
        <ele>1179.6</ele>
        <time>2022-10-29T09:49:48Z</time>
      </trkpt>
      <trkpt lat="44.35732" lon="3.78511">
        <ele>1179.4</ele>
        <time>2022-10-29T09:49:49Z</time>
      </trkpt>
      <trkpt lat="44.35732" lon="3.78506">
        <ele>1179.2</ele>
        <time>2022-10-29T09:49:50Z</time>
      </trkpt>
      <trkpt lat="44.35733" lon="3.78501">
        <ele>1179.2</ele>
        <time>2022-10-29T09:49:51Z</time>
      </trkpt>
      <trkpt lat="44.35733" lon="3.78497">
        <ele>1179</ele>
        <time>2022-10-29T09:49:52Z</time>
      </trkpt>
      <trkpt lat="44.35733" lon="3.78494">
        <ele>1179</ele>
        <time>2022-10-29T09:49:53Z</time>
      </trkpt>
      <trkpt lat="44.35733" lon="3.78493">
        <ele>1178.8</ele>
        <time>2022-10-29T09:49:54Z</time>
      </trkpt>
      <trkpt lat="44.35734" lon="3.78492">
        <ele>1178.6</ele>
        <time>2022-10-29T09:51:15Z</time>
      </trkpt>
      <trkpt lat="44.35734" lon="3.7849">
        <ele>1178.6</ele>
        <time>2022-10-29T09:51:16Z</time>
      </trkpt>
      <trkpt lat="44.35735" lon="3.78486">
        <ele>1178.6</ele>
        <time>2022-10-29T09:51:17Z</time>
      </trkpt>
      <trkpt lat="44.35737" lon="3.7848">
        <ele>1178.6</ele>
        <time>2022-10-29T09:51:18Z</time>
      </trkpt>
      <trkpt lat="44.35738" lon="3.78476">
        <ele>1178.6</ele>
        <time>2022-10-29T09:51:19Z</time>
      </trkpt>
      <trkpt lat="44.35739" lon="3.78472">
        <ele>1178.6</ele>
        <time>2022-10-29T09:51:20Z</time>
      </trkpt>
      <trkpt lat="44.3574" lon="3.78468">
        <ele>1178.6</ele>
        <time>2022-10-29T09:51:21Z</time>
      </trkpt>
      <trkpt lat="44.35741" lon="3.78465">
        <ele>1178.6</ele>
        <time>2022-10-29T09:51:22Z</time>
      </trkpt>
      <trkpt lat="44.35742" lon="3.78462">
        <ele>1178.6</ele>
        <time>2022-10-29T09:51:23Z</time>
      </trkpt>
      <trkpt lat="44.35743" lon="3.78462">
        <ele>1178.6</ele>
        <time>2022-10-29T09:51:24Z</time>
      </trkpt>
      <trkpt lat="44.35743" lon="3.78462">
        <ele>1178.6</ele>
        <time>2022-10-29T09:51:25Z</time>
      </trkpt>
      <trkpt lat="44.35743" lon="3.78462">
        <ele>1178.4</ele>
        <time>2022-10-29T09:51:26Z</time>
      </trkpt>
      <trkpt lat="44.35743" lon="3.78462">
        <ele>1178.4</ele>
        <time>2022-10-29T09:51:27Z</time>
      </trkpt>
      <trkpt lat="44.35743" lon="3.78462">
        <ele>1178.4</ele>
        <time>2022-10-29T09:51:28Z</time>
      </trkpt>
      <trkpt lat="44.35743" lon="3.78462">
        <ele>1178.4</ele>
        <time>2022-10-29T09:51:29Z</time>
      </trkpt>
      <trkpt lat="44.35743" lon="3.7846">
        <ele>1178.2</ele>
        <time>2022-10-29T09:52:15Z</time>
      </trkpt>
      <trkpt lat="44.35743" lon="3.78457">
        <ele>1178.2</ele>
        <time>2022-10-29T09:52:16Z</time>
      </trkpt>
      <trkpt lat="44.35744" lon="3.78454">
        <ele>1178.2</ele>
        <time>2022-10-29T09:52:17Z</time>
      </trkpt>
      <trkpt lat="44.35745" lon="3.78449">
        <ele>1178.2</ele>
        <time>2022-10-29T09:52:18Z</time>
      </trkpt>
      <trkpt lat="44.35746" lon="3.78446">
        <ele>1178.2</ele>
        <time>2022-10-29T09:52:19Z</time>
      </trkpt>
      <trkpt lat="44.35748" lon="3.78443">
        <ele>1178.2</ele>
        <time>2022-10-29T09:52:20Z</time>
      </trkpt>
      <trkpt lat="44.35749" lon="3.78439">
        <ele>1178</ele>
        <time>2022-10-29T09:52:21Z</time>
      </trkpt>
      <trkpt lat="44.3575" lon="3.78436">
        <ele>1178</ele>
        <time>2022-10-29T09:52:22Z</time>
      </trkpt>
      <trkpt lat="44.35751" lon="3.78432">
        <ele>1178</ele>
        <time>2022-10-29T09:52:23Z</time>
      </trkpt>
      <trkpt lat="44.35752" lon="3.78429">
        <ele>1178</ele>
        <time>2022-10-29T09:52:24Z</time>
      </trkpt>
      <trkpt lat="44.35753" lon="3.78426">
        <ele>1178</ele>
        <time>2022-10-29T09:52:25Z</time>
      </trkpt>
      <trkpt lat="44.35755" lon="3.78423">
        <ele>1178</ele>
        <time>2022-10-29T09:52:26Z</time>
      </trkpt>
      <trkpt lat="44.35756" lon="3.78419">
        <ele>1177.8</ele>
        <time>2022-10-29T09:52:27Z</time>
      </trkpt>
      <trkpt lat="44.35757" lon="3.78416">
        <ele>1177.8</ele>
        <time>2022-10-29T09:52:28Z</time>
      </trkpt>
      <trkpt lat="44.35758" lon="3.78412">
        <ele>1177.8</ele>
        <time>2022-10-29T09:52:29Z</time>
      </trkpt>
      <trkpt lat="44.35759" lon="3.78408">
        <ele>1177.8</ele>
        <time>2022-10-29T09:52:30Z</time>
      </trkpt>
      <trkpt lat="44.3576" lon="3.78404">
        <ele>1177.8</ele>
        <time>2022-10-29T09:52:31Z</time>
      </trkpt>
      <trkpt lat="44.3576" lon="3.78403">
        <ele>1177.6</ele>
        <time>2022-10-29T09:52:32Z</time>
      </trkpt>
      <trkpt lat="44.3576" lon="3.78403">
        <ele>1177.6</ele>
        <time>2022-10-29T09:52:33Z</time>
      </trkpt>
      <trkpt lat="44.35761" lon="3.78402">
        <ele>1177.6</ele>
        <time>2022-10-29T09:52:34Z</time>
      </trkpt>
      <trkpt lat="44.35761" lon="3.78402">
        <ele>1177.6</ele>
        <time>2022-10-29T09:52:35Z</time>
      </trkpt>
      <trkpt lat="44.35761" lon="3.78402">
        <ele>1177.6</ele>
        <time>2022-10-29T09:52:36Z</time>
      </trkpt>
      <trkpt lat="44.35761" lon="3.78402">
        <ele>1177.6</ele>
        <time>2022-10-29T09:52:37Z</time>
      </trkpt>
      <trkpt lat="44.35761" lon="3.78402">
        <ele>1177.6</ele>
        <time>2022-10-29T09:52:39Z</time>
      </trkpt>
      <trkpt lat="44.35761" lon="3.78401">
        <ele>1177.6</ele>
        <time>2022-10-29T09:52:40Z</time>
      </trkpt>
      <trkpt lat="44.35761" lon="3.78399">
        <ele>1177.6</ele>
        <time>2022-10-29T09:52:41Z</time>
      </trkpt>
      <trkpt lat="44.35761" lon="3.78397">
        <ele>1177.6</ele>
        <time>2022-10-29T09:52:42Z</time>
      </trkpt>
      <trkpt lat="44.35762" lon="3.78395">
        <ele>1177.6</ele>
        <time>2022-10-29T09:52:43Z</time>
      </trkpt>
      <trkpt lat="44.35762" lon="3.78393">
        <ele>1177.6</ele>
        <time>2022-10-29T09:52:44Z</time>
      </trkpt>
      <trkpt lat="44.35762" lon="3.7839">
        <ele>1177.4</ele>
        <time>2022-10-29T09:52:45Z</time>
      </trkpt>
      <trkpt lat="44.35763" lon="3.78387">
        <ele>1177.4</ele>
        <time>2022-10-29T09:52:46Z</time>
      </trkpt>
      <trkpt lat="44.35763" lon="3.78384">
        <ele>1177.4</ele>
        <time>2022-10-29T09:52:47Z</time>
      </trkpt>
      <trkpt lat="44.35764" lon="3.78381">
        <ele>1177.2</ele>
        <time>2022-10-29T09:52:48Z</time>
      </trkpt>
      <trkpt lat="44.35765" lon="3.78377">
        <ele>1177</ele>
        <time>2022-10-29T09:52:49Z</time>
      </trkpt>
      <trkpt lat="44.35766" lon="3.78373">
        <ele>1177</ele>
        <time>2022-10-29T09:52:50Z</time>
      </trkpt>
      <trkpt lat="44.35766" lon="3.78369">
        <ele>1177</ele>
        <time>2022-10-29T09:52:51Z</time>
      </trkpt>
      <trkpt lat="44.35766" lon="3.78366">
        <ele>1176.8</ele>
        <time>2022-10-29T09:52:52Z</time>
      </trkpt>
      <trkpt lat="44.35767" lon="3.78363">
        <ele>1176.8</ele>
        <time>2022-10-29T09:52:53Z</time>
      </trkpt>
      <trkpt lat="44.35767" lon="3.78359">
        <ele>1176.6</ele>
        <time>2022-10-29T09:52:54Z</time>
      </trkpt>
      <trkpt lat="44.35767" lon="3.78355">
        <ele>1176.6</ele>
        <time>2022-10-29T09:52:55Z</time>
      </trkpt>
      <trkpt lat="44.35767" lon="3.78351">
        <ele>1176.6</ele>
        <time>2022-10-29T09:52:56Z</time>
      </trkpt>
      <trkpt lat="44.35767" lon="3.78347">
        <ele>1176.4</ele>
        <time>2022-10-29T09:52:57Z</time>
      </trkpt>
      <trkpt lat="44.35767" lon="3.78344">
        <ele>1176.4</ele>
        <time>2022-10-29T09:52:58Z</time>
      </trkpt>
      <trkpt lat="44.35767" lon="3.7834">
        <ele>1176.2</ele>
        <time>2022-10-29T09:52:59Z</time>
      </trkpt>
      <trkpt lat="44.35768" lon="3.78336">
        <ele>1176.2</ele>
        <time>2022-10-29T09:53:00Z</time>
      </trkpt>
      <trkpt lat="44.35768" lon="3.78332">
        <ele>1176</ele>
        <time>2022-10-29T09:53:01Z</time>
      </trkpt>
      <trkpt lat="44.35768" lon="3.78328">
        <ele>1176</ele>
        <time>2022-10-29T09:53:02Z</time>
      </trkpt>
      <trkpt lat="44.35769" lon="3.78324">
        <ele>1175.8</ele>
        <time>2022-10-29T09:53:03Z</time>
      </trkpt>
      <trkpt lat="44.35769" lon="3.78321">
        <ele>1175.8</ele>
        <time>2022-10-29T09:53:04Z</time>
      </trkpt>
      <trkpt lat="44.35769" lon="3.78317">
        <ele>1175.8</ele>
        <time>2022-10-29T09:53:05Z</time>
      </trkpt>
      <trkpt lat="44.3577" lon="3.78314">
        <ele>1175.6</ele>
        <time>2022-10-29T09:53:06Z</time>
      </trkpt>
      <trkpt lat="44.3577" lon="3.78309">
        <ele>1175.4</ele>
        <time>2022-10-29T09:53:07Z</time>
      </trkpt>
      <trkpt lat="44.3577" lon="3.78306">
        <ele>1175.4</ele>
        <time>2022-10-29T09:53:08Z</time>
      </trkpt>
      <trkpt lat="44.35771" lon="3.78302">
        <ele>1175.2</ele>
        <time>2022-10-29T09:53:09Z</time>
      </trkpt>
      <trkpt lat="44.35772" lon="3.78298">
        <ele>1175.2</ele>
        <time>2022-10-29T09:53:10Z</time>
      </trkpt>
      <trkpt lat="44.35772" lon="3.78294">
        <ele>1175.2</ele>
        <time>2022-10-29T09:53:11Z</time>
      </trkpt>
      <trkpt lat="44.35773" lon="3.7829">
        <ele>1175</ele>
        <time>2022-10-29T09:53:12Z</time>
      </trkpt>
      <trkpt lat="44.35773" lon="3.78286">
        <ele>1175</ele>
        <time>2022-10-29T09:53:13Z</time>
      </trkpt>
      <trkpt lat="44.35773" lon="3.78282">
        <ele>1174.8</ele>
        <time>2022-10-29T09:53:14Z</time>
      </trkpt>
      <trkpt lat="44.35772" lon="3.78279">
        <ele>1174.8</ele>
        <time>2022-10-29T09:53:15Z</time>
      </trkpt>
      <trkpt lat="44.35771" lon="3.78275">
        <ele>1174.6</ele>
        <time>2022-10-29T09:53:16Z</time>
      </trkpt>
      <trkpt lat="44.3577" lon="3.78272">
        <ele>1174.2</ele>
        <time>2022-10-29T09:53:17Z</time>
      </trkpt>
      <trkpt lat="44.3577" lon="3.78269">
        <ele>1174</ele>
        <time>2022-10-29T09:53:18Z</time>
      </trkpt>
      <trkpt lat="44.3577" lon="3.78266">
        <ele>1173.8</ele>
        <time>2022-10-29T09:53:19Z</time>
      </trkpt>
      <trkpt lat="44.3577" lon="3.78262">
        <ele>1173.6</ele>
        <time>2022-10-29T09:53:20Z</time>
      </trkpt>
      <trkpt lat="44.35771" lon="3.78259">
        <ele>1173.4</ele>
        <time>2022-10-29T09:53:21Z</time>
      </trkpt>
      <trkpt lat="44.35771" lon="3.78255">
        <ele>1173.2</ele>
        <time>2022-10-29T09:53:22Z</time>
      </trkpt>
      <trkpt lat="44.35772" lon="3.78253">
        <ele>1173</ele>
        <time>2022-10-29T09:53:23Z</time>
      </trkpt>
      <trkpt lat="44.35772" lon="3.78251">
        <ele>1172.8</ele>
        <time>2022-10-29T09:53:24Z</time>
      </trkpt>
      <trkpt lat="44.35772" lon="3.7825">
        <ele>1172.6</ele>
        <time>2022-10-29T09:53:25Z</time>
      </trkpt>
      <trkpt lat="44.35772" lon="3.78249">
        <ele>1172.4</ele>
        <time>2022-10-29T09:53:26Z</time>
      </trkpt>
      <trkpt lat="44.35772" lon="3.7825">
        <ele>1171.8</ele>
        <time>2022-10-29T09:54:01Z</time>
      </trkpt>
      <trkpt lat="44.35773" lon="3.78245">
        <ele>1171.8</ele>
        <time>2022-10-29T09:54:02Z</time>
      </trkpt>
      <trkpt lat="44.35774" lon="3.78239">
        <ele>1171.4</ele>
        <time>2022-10-29T09:54:03Z</time>
      </trkpt>
      <trkpt lat="44.35775" lon="3.78232">
        <ele>1171.2</ele>
        <time>2022-10-29T09:54:04Z</time>
      </trkpt>
      <trkpt lat="44.35777" lon="3.78227">
        <ele>1170.8</ele>
        <time>2022-10-29T09:54:05Z</time>
      </trkpt>
      <trkpt lat="44.35779" lon="3.78224">
        <ele>1170.6</ele>
        <time>2022-10-29T09:54:06Z</time>
      </trkpt>
      <trkpt lat="44.3578" lon="3.78222">
        <ele>1170.2</ele>
        <time>2022-10-29T09:54:07Z</time>
      </trkpt>
      <trkpt lat="44.35781" lon="3.78221">
        <ele>1170</ele>
        <time>2022-10-29T09:54:08Z</time>
      </trkpt>
      <trkpt lat="44.35781" lon="3.78221">
        <ele>1169.8</ele>
        <time>2022-10-29T09:54:09Z</time>
      </trkpt>
      <trkpt lat="44.35781" lon="3.78221">
        <ele>1169.8</ele>
        <time>2022-10-29T09:54:10Z</time>
      </trkpt>
      <trkpt lat="44.35781" lon="3.7822">
        <ele>1169.6</ele>
        <time>2022-10-29T09:54:11Z</time>
      </trkpt>
      <trkpt lat="44.35781" lon="3.7822">
        <ele>1169.6</ele>
        <time>2022-10-29T09:54:12Z</time>
      </trkpt>
      <trkpt lat="44.35781" lon="3.7822">
        <ele>1169.4</ele>
        <time>2022-10-29T09:54:13Z</time>
      </trkpt>
      <trkpt lat="44.35782" lon="3.78219">
        <ele>1169.2</ele>
        <time>2022-10-29T09:54:50Z</time>
      </trkpt>
      <trkpt lat="44.35783" lon="3.78217">
        <ele>1169</ele>
        <time>2022-10-29T09:54:51Z</time>
      </trkpt>
      <trkpt lat="44.35784" lon="3.78213">
        <ele>1168.8</ele>
        <time>2022-10-29T09:54:52Z</time>
      </trkpt>
      <trkpt lat="44.35785" lon="3.78208">
        <ele>1168.4</ele>
        <time>2022-10-29T09:54:53Z</time>
      </trkpt>
      <trkpt lat="44.35785" lon="3.78204">
        <ele>1168.2</ele>
        <time>2022-10-29T09:54:54Z</time>
      </trkpt>
      <trkpt lat="44.35786" lon="3.782">
        <ele>1168</ele>
        <time>2022-10-29T09:54:55Z</time>
      </trkpt>
      <trkpt lat="44.35786" lon="3.78196">
        <ele>1167.6</ele>
        <time>2022-10-29T09:54:56Z</time>
      </trkpt>
      <trkpt lat="44.35786" lon="3.78193">
        <ele>1167.4</ele>
        <time>2022-10-29T09:54:57Z</time>
      </trkpt>
      <trkpt lat="44.35787" lon="3.78189">
        <ele>1167.2</ele>
        <time>2022-10-29T09:54:58Z</time>
      </trkpt>
      <trkpt lat="44.35788" lon="3.78185">
        <ele>1167</ele>
        <time>2022-10-29T09:54:59Z</time>
      </trkpt>
      <trkpt lat="44.3579" lon="3.78181">
        <ele>1166.8</ele>
        <time>2022-10-29T09:55:00Z</time>
      </trkpt>
      <trkpt lat="44.35791" lon="3.78177">
        <ele>1166.6</ele>
        <time>2022-10-29T09:55:01Z</time>
      </trkpt>
      <trkpt lat="44.35792" lon="3.78174">
        <ele>1166.4</ele>
        <time>2022-10-29T09:55:02Z</time>
      </trkpt>
      <trkpt lat="44.35795" lon="3.78172">
        <ele>1166.2</ele>
        <time>2022-10-29T09:55:03Z</time>
      </trkpt>
      <trkpt lat="44.35797" lon="3.78169">
        <ele>1165.8</ele>
        <time>2022-10-29T09:55:04Z</time>
      </trkpt>
      <trkpt lat="44.35799" lon="3.78167">
        <ele>1165.4</ele>
        <time>2022-10-29T09:55:05Z</time>
      </trkpt>
      <trkpt lat="44.35801" lon="3.78165">
        <ele>1165</ele>
        <time>2022-10-29T09:55:06Z</time>
      </trkpt>
      <trkpt lat="44.35803" lon="3.78162">
        <ele>1164.6</ele>
        <time>2022-10-29T09:55:07Z</time>
      </trkpt>
      <trkpt lat="44.35805" lon="3.7816">
        <ele>1164.2</ele>
        <time>2022-10-29T09:55:08Z</time>
      </trkpt>
      <trkpt lat="44.35807" lon="3.78157">
        <ele>1163.8</ele>
        <time>2022-10-29T09:55:09Z</time>
      </trkpt>
      <trkpt lat="44.35808" lon="3.78155">
        <ele>1163.4</ele>
        <time>2022-10-29T09:55:10Z</time>
      </trkpt>
      <trkpt lat="44.35809" lon="3.78152">
        <ele>1163</ele>
        <time>2022-10-29T09:55:11Z</time>
      </trkpt>
      <trkpt lat="44.35811" lon="3.7815">
        <ele>1162.6</ele>
        <time>2022-10-29T09:55:12Z</time>
      </trkpt>
      <trkpt lat="44.35811" lon="3.78148">
        <ele>1162.2</ele>
        <time>2022-10-29T09:55:13Z</time>
      </trkpt>
      <trkpt lat="44.35812" lon="3.78145">
        <ele>1161.8</ele>
        <time>2022-10-29T09:55:14Z</time>
      </trkpt>
      <trkpt lat="44.35813" lon="3.78142">
        <ele>1161.4</ele>
        <time>2022-10-29T09:55:15Z</time>
      </trkpt>
      <trkpt lat="44.35814" lon="3.78138">
        <ele>1161.2</ele>
        <time>2022-10-29T09:55:16Z</time>
      </trkpt>
      <trkpt lat="44.35815" lon="3.78136">
        <ele>1160.8</ele>
        <time>2022-10-29T09:55:17Z</time>
      </trkpt>
      <trkpt lat="44.35815" lon="3.78133">
        <ele>1160.4</ele>
        <time>2022-10-29T09:55:18Z</time>
      </trkpt>
      <trkpt lat="44.35816" lon="3.78131">
        <ele>1160</ele>
        <time>2022-10-29T09:55:19Z</time>
      </trkpt>
      <trkpt lat="44.35816" lon="3.78127">
        <ele>1159.8</ele>
        <time>2022-10-29T09:55:20Z</time>
      </trkpt>
      <trkpt lat="44.35816" lon="3.78124">
        <ele>1159.4</ele>
        <time>2022-10-29T09:55:21Z</time>
      </trkpt>
      <trkpt lat="44.35816" lon="3.78121">
        <ele>1159.2</ele>
        <time>2022-10-29T09:55:22Z</time>
      </trkpt>
      <trkpt lat="44.35817" lon="3.78117">
        <ele>1158.8</ele>
        <time>2022-10-29T09:55:23Z</time>
      </trkpt>
      <trkpt lat="44.35819" lon="3.78113">
        <ele>1158.6</ele>
        <time>2022-10-29T09:55:24Z</time>
      </trkpt>
      <trkpt lat="44.35821" lon="3.7811">
        <ele>1158.2</ele>
        <time>2022-10-29T09:55:25Z</time>
      </trkpt>
      <trkpt lat="44.35823" lon="3.78107">
        <ele>1158</ele>
        <time>2022-10-29T09:55:26Z</time>
      </trkpt>
      <trkpt lat="44.35824" lon="3.78105">
        <ele>1157.8</ele>
        <time>2022-10-29T09:55:27Z</time>
      </trkpt>
      <trkpt lat="44.35825" lon="3.78102">
        <ele>1157.6</ele>
        <time>2022-10-29T09:55:28Z</time>
      </trkpt>
      <trkpt lat="44.35826" lon="3.78099">
        <ele>1157.4</ele>
        <time>2022-10-29T09:55:29Z</time>
      </trkpt>
      <trkpt lat="44.35827" lon="3.78096">
        <ele>1157</ele>
        <time>2022-10-29T09:55:30Z</time>
      </trkpt>
      <trkpt lat="44.35828" lon="3.78092">
        <ele>1156.6</ele>
        <time>2022-10-29T09:55:31Z</time>
      </trkpt>
      <trkpt lat="44.35829" lon="3.78089">
        <ele>1156.4</ele>
        <time>2022-10-29T09:55:32Z</time>
      </trkpt>
      <trkpt lat="44.35829" lon="3.78086">
        <ele>1156</ele>
        <time>2022-10-29T09:55:33Z</time>
      </trkpt>
      <trkpt lat="44.3583" lon="3.78082">
        <ele>1155.6</ele>
        <time>2022-10-29T09:55:34Z</time>
      </trkpt>
      <trkpt lat="44.35832" lon="3.78078">
        <ele>1155.2</ele>
        <time>2022-10-29T09:55:35Z</time>
      </trkpt>
      <trkpt lat="44.35833" lon="3.78074">
        <ele>1154.6</ele>
        <time>2022-10-29T09:55:36Z</time>
      </trkpt>
      <trkpt lat="44.35835" lon="3.7807">
        <ele>1154.2</ele>
        <time>2022-10-29T09:55:37Z</time>
      </trkpt>
      <trkpt lat="44.35837" lon="3.78066">
        <ele>1153.8</ele>
        <time>2022-10-29T09:55:38Z</time>
      </trkpt>
      <trkpt lat="44.3584" lon="3.78063">
        <ele>1153.4</ele>
        <time>2022-10-29T09:55:39Z</time>
      </trkpt>
      <trkpt lat="44.35843" lon="3.7806">
        <ele>1153.2</ele>
        <time>2022-10-29T09:55:40Z</time>
      </trkpt>
      <trkpt lat="44.35847" lon="3.78058">
        <ele>1153</ele>
        <time>2022-10-29T09:55:41Z</time>
      </trkpt>
      <trkpt lat="44.3585" lon="3.78055">
        <ele>1152.6</ele>
        <time>2022-10-29T09:55:42Z</time>
      </trkpt>
      <trkpt lat="44.35854" lon="3.78054">
        <ele>1152.4</ele>
        <time>2022-10-29T09:55:43Z</time>
      </trkpt>
      <trkpt lat="44.35857" lon="3.78052">
        <ele>1152.2</ele>
        <time>2022-10-29T09:55:44Z</time>
      </trkpt>
      <trkpt lat="44.35861" lon="3.78051">
        <ele>1151.8</ele>
        <time>2022-10-29T09:55:45Z</time>
      </trkpt>
      <trkpt lat="44.35864" lon="3.78049">
        <ele>1151.6</ele>
        <time>2022-10-29T09:55:46Z</time>
      </trkpt>
      <trkpt lat="44.35868" lon="3.78047">
        <ele>1151.4</ele>
        <time>2022-10-29T09:55:47Z</time>
      </trkpt>
      <trkpt lat="44.35872" lon="3.78046">
        <ele>1151.2</ele>
        <time>2022-10-29T09:55:48Z</time>
      </trkpt>
      <trkpt lat="44.35875" lon="3.78046">
        <ele>1151</ele>
        <time>2022-10-29T09:55:49Z</time>
      </trkpt>
      <trkpt lat="44.35878" lon="3.78045">
        <ele>1150.8</ele>
        <time>2022-10-29T09:55:50Z</time>
      </trkpt>
      <trkpt lat="44.35881" lon="3.78045">
        <ele>1150.6</ele>
        <time>2022-10-29T09:55:51Z</time>
      </trkpt>
      <trkpt lat="44.35884" lon="3.78044">
        <ele>1150.4</ele>
        <time>2022-10-29T09:55:52Z</time>
      </trkpt>
      <trkpt lat="44.35887" lon="3.78043">
        <ele>1150.2</ele>
        <time>2022-10-29T09:55:53Z</time>
      </trkpt>
      <trkpt lat="44.35891" lon="3.78041">
        <ele>1150</ele>
        <time>2022-10-29T09:55:54Z</time>
      </trkpt>
      <trkpt lat="44.35894" lon="3.7804">
        <ele>1149.6</ele>
        <time>2022-10-29T09:55:55Z</time>
      </trkpt>
      <trkpt lat="44.35897" lon="3.78039">
        <ele>1149.4</ele>
        <time>2022-10-29T09:55:56Z</time>
      </trkpt>
      <trkpt lat="44.35901" lon="3.78038">
        <ele>1149</ele>
        <time>2022-10-29T09:55:57Z</time>
      </trkpt>
      <trkpt lat="44.35904" lon="3.78038">
        <ele>1148.8</ele>
        <time>2022-10-29T09:55:58Z</time>
      </trkpt>
      <trkpt lat="44.35908" lon="3.78038">
        <ele>1148.6</ele>
        <time>2022-10-29T09:55:59Z</time>
      </trkpt>
      <trkpt lat="44.35911" lon="3.78037">
        <ele>1148.4</ele>
        <time>2022-10-29T09:56:00Z</time>
      </trkpt>
      <trkpt lat="44.35914" lon="3.78037">
        <ele>1148.2</ele>
        <time>2022-10-29T09:56:01Z</time>
      </trkpt>
      <trkpt lat="44.35917" lon="3.78036">
        <ele>1148</ele>
        <time>2022-10-29T09:56:02Z</time>
      </trkpt>
      <trkpt lat="44.35919" lon="3.78036">
        <ele>1147.8</ele>
        <time>2022-10-29T09:56:03Z</time>
      </trkpt>
      <trkpt lat="44.35921" lon="3.78036">
        <ele>1147.6</ele>
        <time>2022-10-29T09:56:04Z</time>
      </trkpt>
      <trkpt lat="44.35922" lon="3.78035">
        <ele>1147.6</ele>
        <time>2022-10-29T09:56:05Z</time>
      </trkpt>
      <trkpt lat="44.35924" lon="3.78035">
        <ele>1147.6</ele>
        <time>2022-10-29T09:56:06Z</time>
      </trkpt>
      <trkpt lat="44.35926" lon="3.78034">
        <ele>1147.4</ele>
        <time>2022-10-29T09:56:07Z</time>
      </trkpt>
      <trkpt lat="44.35927" lon="3.78034">
        <ele>1147.4</ele>
        <time>2022-10-29T09:56:08Z</time>
      </trkpt>
      <trkpt lat="44.35929" lon="3.78033">
        <ele>1147.4</ele>
        <time>2022-10-29T09:56:09Z</time>
      </trkpt>
      <trkpt lat="44.3593" lon="3.78033">
        <ele>1147.4</ele>
        <time>2022-10-29T09:56:10Z</time>
      </trkpt>
      <trkpt lat="44.35932" lon="3.78033">
        <ele>1147.2</ele>
        <time>2022-10-29T09:56:11Z</time>
      </trkpt>
      <trkpt lat="44.35934" lon="3.78032">
        <ele>1147.2</ele>
        <time>2022-10-29T09:56:12Z</time>
      </trkpt>
      <trkpt lat="44.35935" lon="3.78032">
        <ele>1147</ele>
        <time>2022-10-29T09:56:13Z</time>
      </trkpt>
      <trkpt lat="44.35937" lon="3.78032">
        <ele>1146.8</ele>
        <time>2022-10-29T09:56:14Z</time>
      </trkpt>
      <trkpt lat="44.35939" lon="3.78032">
        <ele>1146.6</ele>
        <time>2022-10-29T09:56:15Z</time>
      </trkpt>
      <trkpt lat="44.35941" lon="3.78032">
        <ele>1146.4</ele>
        <time>2022-10-29T09:56:16Z</time>
      </trkpt>
      <trkpt lat="44.35942" lon="3.78031">
        <ele>1146.2</ele>
        <time>2022-10-29T09:56:17Z</time>
      </trkpt>
      <trkpt lat="44.35944" lon="3.78031">
        <ele>1146</ele>
        <time>2022-10-29T09:56:18Z</time>
      </trkpt>
      <trkpt lat="44.35946" lon="3.78029">
        <ele>1145.8</ele>
        <time>2022-10-29T09:56:19Z</time>
      </trkpt>
      <trkpt lat="44.35948" lon="3.78027">
        <ele>1145.6</ele>
        <time>2022-10-29T09:56:20Z</time>
      </trkpt>
      <trkpt lat="44.35949" lon="3.78024">
        <ele>1145.4</ele>
        <time>2022-10-29T09:56:21Z</time>
      </trkpt>
      <trkpt lat="44.35951" lon="3.78021">
        <ele>1145.2</ele>
        <time>2022-10-29T09:56:22Z</time>
      </trkpt>
      <trkpt lat="44.35952" lon="3.78019">
        <ele>1145</ele>
        <time>2022-10-29T09:56:23Z</time>
      </trkpt>
      <trkpt lat="44.35954" lon="3.78017">
        <ele>1144.6</ele>
        <time>2022-10-29T09:56:24Z</time>
      </trkpt>
      <trkpt lat="44.35955" lon="3.78013">
        <ele>1144.4</ele>
        <time>2022-10-29T09:56:25Z</time>
      </trkpt>
      <trkpt lat="44.35956" lon="3.7801">
        <ele>1144</ele>
        <time>2022-10-29T09:56:26Z</time>
      </trkpt>
      <trkpt lat="44.35957" lon="3.78007">
        <ele>1143.8</ele>
        <time>2022-10-29T09:56:27Z</time>
      </trkpt>
      <trkpt lat="44.35958" lon="3.78004">
        <ele>1143.4</ele>
        <time>2022-10-29T09:56:28Z</time>
      </trkpt>
      <trkpt lat="44.35959" lon="3.78001">
        <ele>1143.2</ele>
        <time>2022-10-29T09:56:29Z</time>
      </trkpt>
      <trkpt lat="44.3596" lon="3.77997">
        <ele>1143</ele>
        <time>2022-10-29T09:56:30Z</time>
      </trkpt>
      <trkpt lat="44.35962" lon="3.77994">
        <ele>1142.8</ele>
        <time>2022-10-29T09:56:31Z</time>
      </trkpt>
      <trkpt lat="44.35964" lon="3.7799">
        <ele>1142.6</ele>
        <time>2022-10-29T09:56:32Z</time>
      </trkpt>
      <trkpt lat="44.35965" lon="3.77987">
        <ele>1142.4</ele>
        <time>2022-10-29T09:56:33Z</time>
      </trkpt>
      <trkpt lat="44.35966" lon="3.77984">
        <ele>1142.4</ele>
        <time>2022-10-29T09:56:34Z</time>
      </trkpt>
      <trkpt lat="44.35967" lon="3.77982">
        <ele>1142.2</ele>
        <time>2022-10-29T09:56:35Z</time>
      </trkpt>
      <trkpt lat="44.35968" lon="3.7798">
        <ele>1142.2</ele>
        <time>2022-10-29T09:56:36Z</time>
      </trkpt>
      <trkpt lat="44.3597" lon="3.77977">
        <ele>1142</ele>
        <time>2022-10-29T09:56:37Z</time>
      </trkpt>
      <trkpt lat="44.35971" lon="3.77975">
        <ele>1142</ele>
        <time>2022-10-29T09:56:38Z</time>
      </trkpt>
      <trkpt lat="44.35972" lon="3.77973">
        <ele>1141.8</ele>
        <time>2022-10-29T09:56:39Z</time>
      </trkpt>
      <trkpt lat="44.35972" lon="3.7797">
        <ele>1141.6</ele>
        <time>2022-10-29T09:56:40Z</time>
      </trkpt>
      <trkpt lat="44.35973" lon="3.77967">
        <ele>1141.4</ele>
        <time>2022-10-29T09:56:41Z</time>
      </trkpt>
      <trkpt lat="44.35973" lon="3.77966">
        <ele>1141.4</ele>
        <time>2022-10-29T09:56:42Z</time>
      </trkpt>
      <trkpt lat="44.35974" lon="3.77964">
        <ele>1141.2</ele>
        <time>2022-10-29T09:56:43Z</time>
      </trkpt>
      <trkpt lat="44.35974" lon="3.77962">
        <ele>1141.2</ele>
        <time>2022-10-29T09:56:44Z</time>
      </trkpt>
      <trkpt lat="44.35975" lon="3.7796">
        <ele>1141.2</ele>
        <time>2022-10-29T09:56:45Z</time>
      </trkpt>
      <trkpt lat="44.35976" lon="3.77957">
        <ele>1141</ele>
        <time>2022-10-29T09:56:46Z</time>
      </trkpt>
      <trkpt lat="44.35976" lon="3.77955">
        <ele>1141</ele>
        <time>2022-10-29T09:56:47Z</time>
      </trkpt>
      <trkpt lat="44.35977" lon="3.77952">
        <ele>1141</ele>
        <time>2022-10-29T09:56:48Z</time>
      </trkpt>
      <trkpt lat="44.35978" lon="3.77949">
        <ele>1141</ele>
        <time>2022-10-29T09:56:49Z</time>
      </trkpt>
      <trkpt lat="44.3598" lon="3.77946">
        <ele>1140.8</ele>
        <time>2022-10-29T09:56:50Z</time>
      </trkpt>
      <trkpt lat="44.3598" lon="3.77943">
        <ele>1140.8</ele>
        <time>2022-10-29T09:56:51Z</time>
      </trkpt>
      <trkpt lat="44.35982" lon="3.7794">
        <ele>1140.8</ele>
        <time>2022-10-29T09:56:52Z</time>
      </trkpt>
      <trkpt lat="44.35982" lon="3.77936">
        <ele>1140.8</ele>
        <time>2022-10-29T09:56:53Z</time>
      </trkpt>
      <trkpt lat="44.35983" lon="3.77933">
        <ele>1140.8</ele>
        <time>2022-10-29T09:56:54Z</time>
      </trkpt>
      <trkpt lat="44.35985" lon="3.77929">
        <ele>1140.8</ele>
        <time>2022-10-29T09:56:55Z</time>
      </trkpt>
      <trkpt lat="44.35986" lon="3.77926">
        <ele>1140.8</ele>
        <time>2022-10-29T09:56:56Z</time>
      </trkpt>
      <trkpt lat="44.35987" lon="3.77924">
        <ele>1140.6</ele>
        <time>2022-10-29T09:56:57Z</time>
      </trkpt>
      <trkpt lat="44.35989" lon="3.77921">
        <ele>1140.4</ele>
        <time>2022-10-29T09:56:58Z</time>
      </trkpt>
      <trkpt lat="44.3599" lon="3.77917">
        <ele>1140.2</ele>
        <time>2022-10-29T09:56:59Z</time>
      </trkpt>
      <trkpt lat="44.35991" lon="3.77913">
        <ele>1140</ele>
        <time>2022-10-29T09:57:00Z</time>
      </trkpt>
      <trkpt lat="44.35993" lon="3.77909">
        <ele>1140</ele>
        <time>2022-10-29T09:57:01Z</time>
      </trkpt>
      <trkpt lat="44.35994" lon="3.77905">
        <ele>1139.8</ele>
        <time>2022-10-29T09:57:02Z</time>
      </trkpt>
      <trkpt lat="44.35994" lon="3.77902">
        <ele>1139.6</ele>
        <time>2022-10-29T09:57:03Z</time>
      </trkpt>
      <trkpt lat="44.35996" lon="3.77898">
        <ele>1139.6</ele>
        <time>2022-10-29T09:57:04Z</time>
      </trkpt>
      <trkpt lat="44.35997" lon="3.77894">
        <ele>1139.4</ele>
        <time>2022-10-29T09:57:05Z</time>
      </trkpt>
      <trkpt lat="44.35998" lon="3.7789">
        <ele>1139.2</ele>
        <time>2022-10-29T09:57:06Z</time>
      </trkpt>
      <trkpt lat="44.35999" lon="3.77887">
        <ele>1139</ele>
        <time>2022-10-29T09:57:07Z</time>
      </trkpt>
      <trkpt lat="44.36" lon="3.77883">
        <ele>1138.8</ele>
        <time>2022-10-29T09:57:08Z</time>
      </trkpt>
      <trkpt lat="44.36001" lon="3.7788">
        <ele>1138.6</ele>
        <time>2022-10-29T09:57:09Z</time>
      </trkpt>
      <trkpt lat="44.36001" lon="3.77878">
        <ele>1138.2</ele>
        <time>2022-10-29T09:57:10Z</time>
      </trkpt>
      <trkpt lat="44.36002" lon="3.77875">
        <ele>1138</ele>
        <time>2022-10-29T09:57:11Z</time>
      </trkpt>
      <trkpt lat="44.36003" lon="3.77872">
        <ele>1137.6</ele>
        <time>2022-10-29T09:57:12Z</time>
      </trkpt>
      <trkpt lat="44.36004" lon="3.77869">
        <ele>1137.4</ele>
        <time>2022-10-29T09:57:13Z</time>
      </trkpt>
      <trkpt lat="44.36005" lon="3.77865">
        <ele>1137.2</ele>
        <time>2022-10-29T09:57:14Z</time>
      </trkpt>
      <trkpt lat="44.36006" lon="3.77861">
        <ele>1136.8</ele>
        <time>2022-10-29T09:57:15Z</time>
      </trkpt>
      <trkpt lat="44.36007" lon="3.77857">
        <ele>1136.6</ele>
        <time>2022-10-29T09:57:16Z</time>
      </trkpt>
      <trkpt lat="44.36007" lon="3.77853">
        <ele>1136.6</ele>
        <time>2022-10-29T09:57:17Z</time>
      </trkpt>
      <trkpt lat="44.36008" lon="3.77849">
        <ele>1136.4</ele>
        <time>2022-10-29T09:57:18Z</time>
      </trkpt>
      <trkpt lat="44.36008" lon="3.77845">
        <ele>1136.2</ele>
        <time>2022-10-29T09:57:19Z</time>
      </trkpt>
      <trkpt lat="44.36009" lon="3.77842">
        <ele>1136</ele>
        <time>2022-10-29T09:57:20Z</time>
      </trkpt>
      <trkpt lat="44.36009" lon="3.77839">
        <ele>1136</ele>
        <time>2022-10-29T09:57:21Z</time>
      </trkpt>
      <trkpt lat="44.3601" lon="3.77836">
        <ele>1135.8</ele>
        <time>2022-10-29T09:57:22Z</time>
      </trkpt>
      <trkpt lat="44.3601" lon="3.77833">
        <ele>1135.4</ele>
        <time>2022-10-29T09:57:23Z</time>
      </trkpt>
      <trkpt lat="44.36012" lon="3.7783">
        <ele>1135.2</ele>
        <time>2022-10-29T09:57:24Z</time>
      </trkpt>
      <trkpt lat="44.36013" lon="3.77828">
        <ele>1135</ele>
        <time>2022-10-29T09:57:25Z</time>
      </trkpt>
      <trkpt lat="44.36014" lon="3.77827">
        <ele>1134.8</ele>
        <time>2022-10-29T09:57:26Z</time>
      </trkpt>
      <trkpt lat="44.36014" lon="3.77825">
        <ele>1134.8</ele>
        <time>2022-10-29T09:57:27Z</time>
      </trkpt>
      <trkpt lat="44.36015" lon="3.77823">
        <ele>1134.6</ele>
        <time>2022-10-29T09:57:28Z</time>
      </trkpt>
      <trkpt lat="44.36016" lon="3.77821">
        <ele>1134.4</ele>
        <time>2022-10-29T09:57:29Z</time>
      </trkpt>
      <trkpt lat="44.36017" lon="3.77818">
        <ele>1134.2</ele>
        <time>2022-10-29T09:57:30Z</time>
      </trkpt>
      <trkpt lat="44.36018" lon="3.77816">
        <ele>1134.2</ele>
        <time>2022-10-29T09:57:31Z</time>
      </trkpt>
      <trkpt lat="44.36019" lon="3.77815">
        <ele>1134</ele>
        <time>2022-10-29T09:57:32Z</time>
      </trkpt>
      <trkpt lat="44.3602" lon="3.77813">
        <ele>1134</ele>
        <time>2022-10-29T09:57:33Z</time>
      </trkpt>
      <trkpt lat="44.3602" lon="3.77811">
        <ele>1133.8</ele>
        <time>2022-10-29T09:57:34Z</time>
      </trkpt>
      <trkpt lat="44.36021" lon="3.77808">
        <ele>1133.8</ele>
        <time>2022-10-29T09:57:35Z</time>
      </trkpt>
      <trkpt lat="44.36022" lon="3.77805">
        <ele>1133.6</ele>
        <time>2022-10-29T09:57:36Z</time>
      </trkpt>
      <trkpt lat="44.36024" lon="3.77802">
        <ele>1133.4</ele>
        <time>2022-10-29T09:57:37Z</time>
      </trkpt>
      <trkpt lat="44.36025" lon="3.77799">
        <ele>1133.2</ele>
        <time>2022-10-29T09:57:38Z</time>
      </trkpt>
      <trkpt lat="44.36025" lon="3.77797">
        <ele>1133</ele>
        <time>2022-10-29T09:57:39Z</time>
      </trkpt>
      <trkpt lat="44.36026" lon="3.77796">
        <ele>1132.8</ele>
        <time>2022-10-29T09:57:40Z</time>
      </trkpt>
      <trkpt lat="44.36026" lon="3.77795">
        <ele>1132.8</ele>
        <time>2022-10-29T09:57:41Z</time>
      </trkpt>
      <trkpt lat="44.36026" lon="3.77795">
        <ele>1132.6</ele>
        <time>2022-10-29T09:57:42Z</time>
      </trkpt>
      <trkpt lat="44.36026" lon="3.77795">
        <ele>1132.6</ele>
        <time>2022-10-29T09:57:43Z</time>
      </trkpt>
      <trkpt lat="44.36027" lon="3.77795">
        <ele>1132.4</ele>
        <time>2022-10-29T09:57:44Z</time>
      </trkpt>
      <trkpt lat="44.36027" lon="3.77794">
        <ele>1132.4</ele>
        <time>2022-10-29T09:57:45Z</time>
      </trkpt>
      <trkpt lat="44.36028" lon="3.77788">
        <ele>1132</ele>
        <time>2022-10-29T09:57:58Z</time>
      </trkpt>
      <trkpt lat="44.36028" lon="3.77786">
        <ele>1132</ele>
        <time>2022-10-29T09:57:59Z</time>
      </trkpt>
      <trkpt lat="44.36028" lon="3.77785">
        <ele>1132</ele>
        <time>2022-10-29T09:58:00Z</time>
      </trkpt>
      <trkpt lat="44.36029" lon="3.77784">
        <ele>1132</ele>
        <time>2022-10-29T09:58:01Z</time>
      </trkpt>
      <trkpt lat="44.36029" lon="3.77783">
        <ele>1132</ele>
        <time>2022-10-29T09:58:02Z</time>
      </trkpt>
      <trkpt lat="44.36029" lon="3.77781">
        <ele>1132</ele>
        <time>2022-10-29T09:58:03Z</time>
      </trkpt>
      <trkpt lat="44.3603" lon="3.77778">
        <ele>1132</ele>
        <time>2022-10-29T09:58:04Z</time>
      </trkpt>
      <trkpt lat="44.36032" lon="3.77774">
        <ele>1131.8</ele>
        <time>2022-10-29T09:58:05Z</time>
      </trkpt>
      <trkpt lat="44.36034" lon="3.7777">
        <ele>1131.8</ele>
        <time>2022-10-29T09:58:06Z</time>
      </trkpt>
      <trkpt lat="44.36036" lon="3.77766">
        <ele>1131.8</ele>
        <time>2022-10-29T09:58:07Z</time>
      </trkpt>
      <trkpt lat="44.36038" lon="3.7776">
        <ele>1131.6</ele>
        <time>2022-10-29T09:58:08Z</time>
      </trkpt>
      <trkpt lat="44.36039" lon="3.77755">
        <ele>1131.6</ele>
        <time>2022-10-29T09:58:09Z</time>
      </trkpt>
      <trkpt lat="44.36041" lon="3.77749">
        <ele>1131.6</ele>
        <time>2022-10-29T09:58:10Z</time>
      </trkpt>
      <trkpt lat="44.36043" lon="3.77743">
        <ele>1131.4</ele>
        <time>2022-10-29T09:58:11Z</time>
      </trkpt>
      <trkpt lat="44.36044" lon="3.77739">
        <ele>1131.2</ele>
        <time>2022-10-29T09:58:12Z</time>
      </trkpt>
      <trkpt lat="44.36045" lon="3.77737">
        <ele>1131</ele>
        <time>2022-10-29T09:58:13Z</time>
      </trkpt>
      <trkpt lat="44.36045" lon="3.77734">
        <ele>1130.8</ele>
        <time>2022-10-29T09:58:14Z</time>
      </trkpt>
      <trkpt lat="44.36045" lon="3.77733">
        <ele>1130.6</ele>
        <time>2022-10-29T09:58:15Z</time>
      </trkpt>
      <trkpt lat="44.36045" lon="3.77733">
        <ele>1130.4</ele>
        <time>2022-10-29T09:58:16Z</time>
      </trkpt>
      <trkpt lat="44.36045" lon="3.77733">
        <ele>1130.4</ele>
        <time>2022-10-29T09:58:17Z</time>
      </trkpt>
      <trkpt lat="44.36045" lon="3.77733">
        <ele>1130.4</ele>
        <time>2022-10-29T09:58:18Z</time>
      </trkpt>
      <trkpt lat="44.36045" lon="3.77733">
        <ele>1130.4</ele>
        <time>2022-10-29T09:58:19Z</time>
      </trkpt>
      <trkpt lat="44.36045" lon="3.77733">
        <ele>1130.4</ele>
        <time>2022-10-29T09:58:20Z</time>
      </trkpt>
      <trkpt lat="44.36045" lon="3.77731">
        <ele>1130.2</ele>
        <time>2022-10-29T09:59:07Z</time>
      </trkpt>
      <trkpt lat="44.36045" lon="3.77727">
        <ele>1130</ele>
        <time>2022-10-29T09:59:08Z</time>
      </trkpt>
      <trkpt lat="44.36045" lon="3.77723">
        <ele>1129.8</ele>
        <time>2022-10-29T09:59:09Z</time>
      </trkpt>
      <trkpt lat="44.36046" lon="3.77718">
        <ele>1129.6</ele>
        <time>2022-10-29T09:59:10Z</time>
      </trkpt>
      <trkpt lat="44.36046" lon="3.77713">
        <ele>1129.4</ele>
        <time>2022-10-29T09:59:11Z</time>
      </trkpt>
      <trkpt lat="44.36047" lon="3.77709">
        <ele>1129.2</ele>
        <time>2022-10-29T09:59:12Z</time>
      </trkpt>
      <trkpt lat="44.36048" lon="3.77705">
        <ele>1128.8</ele>
        <time>2022-10-29T09:59:13Z</time>
      </trkpt>
      <trkpt lat="44.36049" lon="3.777">
        <ele>1128.6</ele>
        <time>2022-10-29T09:59:14Z</time>
      </trkpt>
      <trkpt lat="44.3605" lon="3.77695">
        <ele>1128.2</ele>
        <time>2022-10-29T09:59:15Z</time>
      </trkpt>
      <trkpt lat="44.36051" lon="3.7769">
        <ele>1127.8</ele>
        <time>2022-10-29T09:59:16Z</time>
      </trkpt>
      <trkpt lat="44.36051" lon="3.77687">
        <ele>1127.4</ele>
        <time>2022-10-29T09:59:17Z</time>
      </trkpt>
      <trkpt lat="44.36051" lon="3.77683">
        <ele>1126.8</ele>
        <time>2022-10-29T09:59:18Z</time>
      </trkpt>
      <trkpt lat="44.36051" lon="3.77679">
        <ele>1126.4</ele>
        <time>2022-10-29T09:59:19Z</time>
      </trkpt>
      <trkpt lat="44.36052" lon="3.77676">
        <ele>1126</ele>
        <time>2022-10-29T09:59:20Z</time>
      </trkpt>
      <trkpt lat="44.36052" lon="3.77672">
        <ele>1125.4</ele>
        <time>2022-10-29T09:59:21Z</time>
      </trkpt>
      <trkpt lat="44.36052" lon="3.77668">
        <ele>1125</ele>
        <time>2022-10-29T09:59:22Z</time>
      </trkpt>
      <trkpt lat="44.36052" lon="3.77666">
        <ele>1124.6</ele>
        <time>2022-10-29T09:59:23Z</time>
      </trkpt>
      <trkpt lat="44.36053" lon="3.77662">
        <ele>1124.2</ele>
        <time>2022-10-29T09:59:24Z</time>
      </trkpt>
      <trkpt lat="44.36054" lon="3.77659">
        <ele>1123.8</ele>
        <time>2022-10-29T09:59:25Z</time>
      </trkpt>
      <trkpt lat="44.36055" lon="3.77655">
        <ele>1123.6</ele>
        <time>2022-10-29T09:59:26Z</time>
      </trkpt>
      <trkpt lat="44.36055" lon="3.77651">
        <ele>1123.2</ele>
        <time>2022-10-29T09:59:27Z</time>
      </trkpt>
      <trkpt lat="44.36056" lon="3.77646">
        <ele>1122.8</ele>
        <time>2022-10-29T09:59:28Z</time>
      </trkpt>
      <trkpt lat="44.36057" lon="3.77642">
        <ele>1122.6</ele>
        <time>2022-10-29T09:59:29Z</time>
      </trkpt>
      <trkpt lat="44.36059" lon="3.77638">
        <ele>1122.4</ele>
        <time>2022-10-29T09:59:30Z</time>
      </trkpt>
      <trkpt lat="44.36062" lon="3.77635">
        <ele>1122.2</ele>
        <time>2022-10-29T09:59:31Z</time>
      </trkpt>
      <trkpt lat="44.36064" lon="3.77632">
        <ele>1122</ele>
        <time>2022-10-29T09:59:32Z</time>
      </trkpt>
      <trkpt lat="44.36066" lon="3.77628">
        <ele>1121.8</ele>
        <time>2022-10-29T09:59:33Z</time>
      </trkpt>
      <trkpt lat="44.36068" lon="3.77624">
        <ele>1121.8</ele>
        <time>2022-10-29T09:59:34Z</time>
      </trkpt>
      <trkpt lat="44.3607" lon="3.77621">
        <ele>1121.8</ele>
        <time>2022-10-29T09:59:35Z</time>
      </trkpt>
      <trkpt lat="44.36072" lon="3.77617">
        <ele>1121.8</ele>
        <time>2022-10-29T09:59:36Z</time>
      </trkpt>
      <trkpt lat="44.36074" lon="3.77613">
        <ele>1121.8</ele>
        <time>2022-10-29T09:59:37Z</time>
      </trkpt>
      <trkpt lat="44.36075" lon="3.7761">
        <ele>1122</ele>
        <time>2022-10-29T09:59:38Z</time>
      </trkpt>
      <trkpt lat="44.36077" lon="3.77606">
        <ele>1122</ele>
        <time>2022-10-29T09:59:39Z</time>
      </trkpt>
      <trkpt lat="44.36078" lon="3.77603">
        <ele>1122</ele>
        <time>2022-10-29T09:59:40Z</time>
      </trkpt>
      <trkpt lat="44.3608" lon="3.77599">
        <ele>1122.2</ele>
        <time>2022-10-29T09:59:41Z</time>
      </trkpt>
      <trkpt lat="44.36082" lon="3.77596">
        <ele>1122.2</ele>
        <time>2022-10-29T09:59:42Z</time>
      </trkpt>
      <trkpt lat="44.36083" lon="3.77593">
        <ele>1122.4</ele>
        <time>2022-10-29T09:59:43Z</time>
      </trkpt>
      <trkpt lat="44.36085" lon="3.7759">
        <ele>1122.4</ele>
        <time>2022-10-29T09:59:44Z</time>
      </trkpt>
      <trkpt lat="44.36087" lon="3.77587">
        <ele>1122.6</ele>
        <time>2022-10-29T09:59:45Z</time>
      </trkpt>
      <trkpt lat="44.36089" lon="3.77585">
        <ele>1122.6</ele>
        <time>2022-10-29T09:59:46Z</time>
      </trkpt>
      <trkpt lat="44.36091" lon="3.77582">
        <ele>1122.6</ele>
        <time>2022-10-29T09:59:47Z</time>
      </trkpt>
      <trkpt lat="44.36092" lon="3.77579">
        <ele>1122.8</ele>
        <time>2022-10-29T09:59:48Z</time>
      </trkpt>
      <trkpt lat="44.36095" lon="3.77576">
        <ele>1122.8</ele>
        <time>2022-10-29T09:59:49Z</time>
      </trkpt>
      <trkpt lat="44.36096" lon="3.77573">
        <ele>1122.8</ele>
        <time>2022-10-29T09:59:50Z</time>
      </trkpt>
      <trkpt lat="44.36098" lon="3.7757">
        <ele>1122.8</ele>
        <time>2022-10-29T09:59:51Z</time>
      </trkpt>
      <trkpt lat="44.36099" lon="3.77566">
        <ele>1122.8</ele>
        <time>2022-10-29T09:59:52Z</time>
      </trkpt>
      <trkpt lat="44.361" lon="3.77563">
        <ele>1122.8</ele>
        <time>2022-10-29T09:59:53Z</time>
      </trkpt>
      <trkpt lat="44.361" lon="3.7756">
        <ele>1122.8</ele>
        <time>2022-10-29T09:59:54Z</time>
      </trkpt>
      <trkpt lat="44.36101" lon="3.77556">
        <ele>1122.6</ele>
        <time>2022-10-29T09:59:55Z</time>
      </trkpt>
      <trkpt lat="44.36102" lon="3.77552">
        <ele>1122.4</ele>
        <time>2022-10-29T09:59:56Z</time>
      </trkpt>
      <trkpt lat="44.36102" lon="3.77548">
        <ele>1122.4</ele>
        <time>2022-10-29T09:59:57Z</time>
      </trkpt>
      <trkpt lat="44.36103" lon="3.77544">
        <ele>1122.2</ele>
        <time>2022-10-29T09:59:58Z</time>
      </trkpt>
      <trkpt lat="44.36104" lon="3.77541">
        <ele>1121.8</ele>
        <time>2022-10-29T09:59:59Z</time>
      </trkpt>
      <trkpt lat="44.36104" lon="3.77537">
        <ele>1121.6</ele>
        <time>2022-10-29T10:00:00Z</time>
      </trkpt>
      <trkpt lat="44.36104" lon="3.77533">
        <ele>1121.2</ele>
        <time>2022-10-29T10:00:01Z</time>
      </trkpt>
      <trkpt lat="44.36104" lon="3.77529">
        <ele>1120.8</ele>
        <time>2022-10-29T10:00:02Z</time>
      </trkpt>
      <trkpt lat="44.36104" lon="3.77526">
        <ele>1120.4</ele>
        <time>2022-10-29T10:00:03Z</time>
      </trkpt>
      <trkpt lat="44.36104" lon="3.77522">
        <ele>1120</ele>
        <time>2022-10-29T10:00:04Z</time>
      </trkpt>
      <trkpt lat="44.36104" lon="3.77518">
        <ele>1119.4</ele>
        <time>2022-10-29T10:00:05Z</time>
      </trkpt>
      <trkpt lat="44.36104" lon="3.77515">
        <ele>1119</ele>
        <time>2022-10-29T10:00:06Z</time>
      </trkpt>
      <trkpt lat="44.36104" lon="3.77511">
        <ele>1118.6</ele>
        <time>2022-10-29T10:00:07Z</time>
      </trkpt>
      <trkpt lat="44.36103" lon="3.77507">
        <ele>1118.2</ele>
        <time>2022-10-29T10:00:08Z</time>
      </trkpt>
      <trkpt lat="44.36103" lon="3.77502">
        <ele>1117.8</ele>
        <time>2022-10-29T10:00:09Z</time>
      </trkpt>
      <trkpt lat="44.36103" lon="3.77496">
        <ele>1117.4</ele>
        <time>2022-10-29T10:00:10Z</time>
      </trkpt>
      <trkpt lat="44.36103" lon="3.77489">
        <ele>1117.2</ele>
        <time>2022-10-29T10:00:11Z</time>
      </trkpt>
      <trkpt lat="44.36104" lon="3.77483">
        <ele>1117</ele>
        <time>2022-10-29T10:00:12Z</time>
      </trkpt>
      <trkpt lat="44.36104" lon="3.77477">
        <ele>1116.8</ele>
        <time>2022-10-29T10:00:13Z</time>
      </trkpt>
      <trkpt lat="44.36105" lon="3.77472">
        <ele>1116.6</ele>
        <time>2022-10-29T10:00:14Z</time>
      </trkpt>
      <trkpt lat="44.36106" lon="3.77467">
        <ele>1116.6</ele>
        <time>2022-10-29T10:00:15Z</time>
      </trkpt>
      <trkpt lat="44.36107" lon="3.77463">
        <ele>1116.6</ele>
        <time>2022-10-29T10:00:16Z</time>
      </trkpt>
      <trkpt lat="44.36108" lon="3.77459">
        <ele>1116.6</ele>
        <time>2022-10-29T10:00:17Z</time>
      </trkpt>
      <trkpt lat="44.36108" lon="3.77454">
        <ele>1116.6</ele>
        <time>2022-10-29T10:00:18Z</time>
      </trkpt>
      <trkpt lat="44.36108" lon="3.7745">
        <ele>1116.6</ele>
        <time>2022-10-29T10:00:19Z</time>
      </trkpt>
      <trkpt lat="44.36108" lon="3.77446">
        <ele>1116.6</ele>
        <time>2022-10-29T10:00:20Z</time>
      </trkpt>
      <trkpt lat="44.36108" lon="3.77441">
        <ele>1116.8</ele>
        <time>2022-10-29T10:00:21Z</time>
      </trkpt>
      <trkpt lat="44.36108" lon="3.77437">
        <ele>1116.8</ele>
        <time>2022-10-29T10:00:22Z</time>
      </trkpt>
      <trkpt lat="44.36108" lon="3.77433">
        <ele>1117</ele>
        <time>2022-10-29T10:00:23Z</time>
      </trkpt>
      <trkpt lat="44.36108" lon="3.7743">
        <ele>1117</ele>
        <time>2022-10-29T10:00:24Z</time>
      </trkpt>
      <trkpt lat="44.36107" lon="3.77426">
        <ele>1117</ele>
        <time>2022-10-29T10:00:25Z</time>
      </trkpt>
      <trkpt lat="44.36106" lon="3.77422">
        <ele>1117.2</ele>
        <time>2022-10-29T10:00:26Z</time>
      </trkpt>
      <trkpt lat="44.36106" lon="3.77419">
        <ele>1117.2</ele>
        <time>2022-10-29T10:00:27Z</time>
      </trkpt>
      <trkpt lat="44.36106" lon="3.77415">
        <ele>1117.2</ele>
        <time>2022-10-29T10:00:28Z</time>
      </trkpt>
      <trkpt lat="44.36105" lon="3.77413">
        <ele>1117.2</ele>
        <time>2022-10-29T10:00:29Z</time>
      </trkpt>
      <trkpt lat="44.36104" lon="3.77412">
        <ele>1117.2</ele>
        <time>2022-10-29T10:00:30Z</time>
      </trkpt>
      <trkpt lat="44.36104" lon="3.77416">
        <ele>1117</ele>
        <time>2022-10-29T10:01:11Z</time>
      </trkpt>
      <trkpt lat="44.36103" lon="3.77416">
        <ele>1117</ele>
        <time>2022-10-29T10:01:12Z</time>
      </trkpt>
      <trkpt lat="44.36101" lon="3.77415">
        <ele>1117</ele>
        <time>2022-10-29T10:01:13Z</time>
      </trkpt>
      <trkpt lat="44.361" lon="3.77415">
        <ele>1116.8</ele>
        <time>2022-10-29T10:01:14Z</time>
      </trkpt>
      <trkpt lat="44.36099" lon="3.77414">
        <ele>1116.6</ele>
        <time>2022-10-29T10:01:15Z</time>
      </trkpt>
      <trkpt lat="44.36098" lon="3.77414">
        <ele>1116.4</ele>
        <time>2022-10-29T10:01:16Z</time>
      </trkpt>
      <trkpt lat="44.36098" lon="3.77413">
        <ele>1116.2</ele>
        <time>2022-10-29T10:01:17Z</time>
      </trkpt>
      <trkpt lat="44.36098" lon="3.77412">
        <ele>1116.2</ele>
        <time>2022-10-29T10:01:18Z</time>
      </trkpt>
      <trkpt lat="44.36098" lon="3.77412">
        <ele>1116.2</ele>
        <time>2022-10-29T10:01:19Z</time>
      </trkpt>
      <trkpt lat="44.36098" lon="3.77412">
        <ele>1116</ele>
        <time>2022-10-29T10:01:20Z</time>
      </trkpt>
      <trkpt lat="44.36098" lon="3.77412">
        <ele>1116</ele>
        <time>2022-10-29T10:01:21Z</time>
      </trkpt>
      <trkpt lat="44.36098" lon="3.77412">
        <ele>1116</ele>
        <time>2022-10-29T10:01:22Z</time>
      </trkpt>
      <trkpt lat="44.36097" lon="3.77412">
        <ele>1115.6</ele>
        <time>2022-10-29T10:01:55Z</time>
      </trkpt>
      <trkpt lat="44.36096" lon="3.77411">
        <ele>1115.4</ele>
        <time>2022-10-29T10:01:56Z</time>
      </trkpt>
      <trkpt lat="44.36093" lon="3.77409">
        <ele>1115.2</ele>
        <time>2022-10-29T10:01:57Z</time>
      </trkpt>
      <trkpt lat="44.36089" lon="3.77408">
        <ele>1115</ele>
        <time>2022-10-29T10:01:58Z</time>
      </trkpt>
      <trkpt lat="44.36086" lon="3.77407">
        <ele>1114.6</ele>
        <time>2022-10-29T10:01:59Z</time>
      </trkpt>
      <trkpt lat="44.36084" lon="3.77406">
        <ele>1114.4</ele>
        <time>2022-10-29T10:02:00Z</time>
      </trkpt>
      <trkpt lat="44.36081" lon="3.77405">
        <ele>1114</ele>
        <time>2022-10-29T10:02:01Z</time>
      </trkpt>
      <trkpt lat="44.36078" lon="3.77404">
        <ele>1113.6</ele>
        <time>2022-10-29T10:02:02Z</time>
      </trkpt>
      <trkpt lat="44.36076" lon="3.77403">
        <ele>1113.2</ele>
        <time>2022-10-29T10:02:03Z</time>
      </trkpt>
      <trkpt lat="44.36073" lon="3.77402">
        <ele>1112.8</ele>
        <time>2022-10-29T10:02:04Z</time>
      </trkpt>
      <trkpt lat="44.36071" lon="3.77401">
        <ele>1112.4</ele>
        <time>2022-10-29T10:02:05Z</time>
      </trkpt>
      <trkpt lat="44.36068" lon="3.774">
        <ele>1112</ele>
        <time>2022-10-29T10:02:06Z</time>
      </trkpt>
      <trkpt lat="44.36065" lon="3.77399">
        <ele>1111.6</ele>
        <time>2022-10-29T10:02:07Z</time>
      </trkpt>
      <trkpt lat="44.36062" lon="3.77397">
        <ele>1111.2</ele>
        <time>2022-10-29T10:02:08Z</time>
      </trkpt>
      <trkpt lat="44.36059" lon="3.77396">
        <ele>1110.8</ele>
        <time>2022-10-29T10:02:09Z</time>
      </trkpt>
      <trkpt lat="44.36057" lon="3.77395">
        <ele>1110.4</ele>
        <time>2022-10-29T10:02:10Z</time>
      </trkpt>
      <trkpt lat="44.36054" lon="3.77394">
        <ele>1110</ele>
        <time>2022-10-29T10:02:11Z</time>
      </trkpt>
      <trkpt lat="44.36052" lon="3.77393">
        <ele>1109.8</ele>
        <time>2022-10-29T10:02:12Z</time>
      </trkpt>
      <trkpt lat="44.3605" lon="3.77391">
        <ele>1109.4</ele>
        <time>2022-10-29T10:02:13Z</time>
      </trkpt>
      <trkpt lat="44.36048" lon="3.77389">
        <ele>1109.2</ele>
        <time>2022-10-29T10:02:14Z</time>
      </trkpt>
      <trkpt lat="44.36047" lon="3.77386">
        <ele>1108.8</ele>
        <time>2022-10-29T10:02:15Z</time>
      </trkpt>
      <trkpt lat="44.36046" lon="3.77383">
        <ele>1108.6</ele>
        <time>2022-10-29T10:02:16Z</time>
      </trkpt>
      <trkpt lat="44.36045" lon="3.77381">
        <ele>1108.2</ele>
        <time>2022-10-29T10:02:17Z</time>
      </trkpt>
      <trkpt lat="44.36044" lon="3.77378">
        <ele>1107.8</ele>
        <time>2022-10-29T10:02:18Z</time>
      </trkpt>
      <trkpt lat="44.36043" lon="3.77376">
        <ele>1107.4</ele>
        <time>2022-10-29T10:02:19Z</time>
      </trkpt>
      <trkpt lat="44.36042" lon="3.77375">
        <ele>1107</ele>
        <time>2022-10-29T10:02:20Z</time>
      </trkpt>
      <trkpt lat="44.36041" lon="3.77374">
        <ele>1106.8</ele>
        <time>2022-10-29T10:02:21Z</time>
      </trkpt>
      <trkpt lat="44.36041" lon="3.77374">
        <ele>1106.6</ele>
        <time>2022-10-29T10:02:22Z</time>
      </trkpt>
      <trkpt lat="44.36041" lon="3.77374">
        <ele>1106.4</ele>
        <time>2022-10-29T10:02:23Z</time>
      </trkpt>
      <trkpt lat="44.36041" lon="3.77374">
        <ele>1106.4</ele>
        <time>2022-10-29T10:02:24Z</time>
      </trkpt>
      <trkpt lat="44.36041" lon="3.77374">
        <ele>1106.4</ele>
        <time>2022-10-29T10:02:25Z</time>
      </trkpt>
      <trkpt lat="44.36041" lon="3.77374">
        <ele>1106.2</ele>
        <time>2022-10-29T10:02:26Z</time>
      </trkpt>
      <trkpt lat="44.36041" lon="3.77374">
        <ele>1106.2</ele>
        <time>2022-10-29T10:02:27Z</time>
      </trkpt>
      <trkpt lat="44.36039" lon="3.77367">
        <ele>1106</ele>
        <time>2022-10-29T10:03:03Z</time>
      </trkpt>
      <trkpt lat="44.36038" lon="3.77365">
        <ele>1106</ele>
        <time>2022-10-29T10:03:04Z</time>
      </trkpt>
      <trkpt lat="44.36036" lon="3.77361">
        <ele>1105.8</ele>
        <time>2022-10-29T10:03:05Z</time>
      </trkpt>
      <trkpt lat="44.36034" lon="3.77356">
        <ele>1105.6</ele>
        <time>2022-10-29T10:03:06Z</time>
      </trkpt>
      <trkpt lat="44.36033" lon="3.77352">
        <ele>1105.4</ele>
        <time>2022-10-29T10:03:07Z</time>
      </trkpt>
      <trkpt lat="44.36033" lon="3.77349">
        <ele>1105</ele>
        <time>2022-10-29T10:03:08Z</time>
      </trkpt>
      <trkpt lat="44.36032" lon="3.77346">
        <ele>1104.8</ele>
        <time>2022-10-29T10:03:09Z</time>
      </trkpt>
      <trkpt lat="44.36032" lon="3.77345">
        <ele>1104.6</ele>
        <time>2022-10-29T10:03:10Z</time>
      </trkpt>
      <trkpt lat="44.36031" lon="3.77344">
        <ele>1104.4</ele>
        <time>2022-10-29T10:03:11Z</time>
      </trkpt>
      <trkpt lat="44.36031" lon="3.77344">
        <ele>1104.4</ele>
        <time>2022-10-29T10:03:12Z</time>
      </trkpt>
      <trkpt lat="44.36031" lon="3.77344">
        <ele>1104.2</ele>
        <time>2022-10-29T10:03:13Z</time>
      </trkpt>
      <trkpt lat="44.36032" lon="3.77345">
        <ele>1104.2</ele>
        <time>2022-10-29T10:03:14Z</time>
      </trkpt>
      <trkpt lat="44.36032" lon="3.77345">
        <ele>1104</ele>
        <time>2022-10-29T10:03:15Z</time>
      </trkpt>
      <trkpt lat="44.36031" lon="3.77348">
        <ele>1103.6</ele>
        <time>2022-10-29T10:03:18Z</time>
      </trkpt>
      <trkpt lat="44.3603" lon="3.7735">
        <ele>1103.6</ele>
        <time>2022-10-29T10:03:19Z</time>
      </trkpt>
      <trkpt lat="44.3603" lon="3.7735">
        <ele>1103.6</ele>
        <time>2022-10-29T10:03:20Z</time>
      </trkpt>
      <trkpt lat="44.3603" lon="3.77351">
        <ele>1103.4</ele>
        <time>2022-10-29T10:03:21Z</time>
      </trkpt>
      <trkpt lat="44.3603" lon="3.77351">
        <ele>1103.4</ele>
        <time>2022-10-29T10:03:22Z</time>
      </trkpt>
      <trkpt lat="44.3603" lon="3.77353">
        <ele>1103.2</ele>
        <time>2022-10-29T10:03:23Z</time>
      </trkpt>
      <trkpt lat="44.36029" lon="3.77355">
        <ele>1103</ele>
        <time>2022-10-29T10:03:24Z</time>
      </trkpt>
      <trkpt lat="44.36029" lon="3.77357">
        <ele>1102.8</ele>
        <time>2022-10-29T10:03:25Z</time>
      </trkpt>
      <trkpt lat="44.36028" lon="3.77357">
        <ele>1102.4</ele>
        <time>2022-10-29T10:03:26Z</time>
      </trkpt>
      <trkpt lat="44.36027" lon="3.77358">
        <ele>1102.2</ele>
        <time>2022-10-29T10:03:27Z</time>
      </trkpt>
      <trkpt lat="44.36027" lon="3.77357">
        <ele>1101.8</ele>
        <time>2022-10-29T10:03:28Z</time>
      </trkpt>
      <trkpt lat="44.36027" lon="3.77355">
        <ele>1101.6</ele>
        <time>2022-10-29T10:03:29Z</time>
      </trkpt>
      <trkpt lat="44.36027" lon="3.77354">
        <ele>1101.4</ele>
        <time>2022-10-29T10:03:30Z</time>
      </trkpt>
      <trkpt lat="44.36028" lon="3.77353">
        <ele>1101.2</ele>
        <time>2022-10-29T10:03:31Z</time>
      </trkpt>
      <trkpt lat="44.36028" lon="3.7735">
        <ele>1100.8</ele>
        <time>2022-10-29T10:03:32Z</time>
      </trkpt>
      <trkpt lat="44.36028" lon="3.77348">
        <ele>1100.4</ele>
        <time>2022-10-29T10:03:33Z</time>
      </trkpt>
      <trkpt lat="44.36028" lon="3.77344">
        <ele>1100.2</ele>
        <time>2022-10-29T10:03:34Z</time>
      </trkpt>
      <trkpt lat="44.36029" lon="3.77342">
        <ele>1099.8</ele>
        <time>2022-10-29T10:03:35Z</time>
      </trkpt>
      <trkpt lat="44.36029" lon="3.77339">
        <ele>1099.4</ele>
        <time>2022-10-29T10:03:36Z</time>
      </trkpt>
      <trkpt lat="44.36028" lon="3.77337">
        <ele>1099.2</ele>
        <time>2022-10-29T10:03:37Z</time>
      </trkpt>
      <trkpt lat="44.36027" lon="3.77336">
        <ele>1099</ele>
        <time>2022-10-29T10:03:38Z</time>
      </trkpt>
      <trkpt lat="44.36025" lon="3.77336">
        <ele>1098.6</ele>
        <time>2022-10-29T10:03:39Z</time>
      </trkpt>
      <trkpt lat="44.36024" lon="3.77337">
        <ele>1098.2</ele>
        <time>2022-10-29T10:03:40Z</time>
      </trkpt>
      <trkpt lat="44.36023" lon="3.77339">
        <ele>1098</ele>
        <time>2022-10-29T10:03:41Z</time>
      </trkpt>
      <trkpt lat="44.36023" lon="3.77342">
        <ele>1097.6</ele>
        <time>2022-10-29T10:03:42Z</time>
      </trkpt>
      <trkpt lat="44.36022" lon="3.77344">
        <ele>1097.2</ele>
        <time>2022-10-29T10:03:43Z</time>
      </trkpt>
      <trkpt lat="44.36021" lon="3.77344">
        <ele>1096.8</ele>
        <time>2022-10-29T10:03:44Z</time>
      </trkpt>
      <trkpt lat="44.3602" lon="3.77344">
        <ele>1096.6</ele>
        <time>2022-10-29T10:03:45Z</time>
      </trkpt>
      <trkpt lat="44.3602" lon="3.77342">
        <ele>1096.2</ele>
        <time>2022-10-29T10:03:46Z</time>
      </trkpt>
      <trkpt lat="44.3602" lon="3.7734">
        <ele>1095.8</ele>
        <time>2022-10-29T10:03:47Z</time>
      </trkpt>
      <trkpt lat="44.3602" lon="3.77338">
        <ele>1095.6</ele>
        <time>2022-10-29T10:03:48Z</time>
      </trkpt>
      <trkpt lat="44.3602" lon="3.77334">
        <ele>1095.4</ele>
        <time>2022-10-29T10:03:49Z</time>
      </trkpt>
      <trkpt lat="44.36021" lon="3.77331">
        <ele>1095</ele>
        <time>2022-10-29T10:03:50Z</time>
      </trkpt>
      <trkpt lat="44.36022" lon="3.77329">
        <ele>1094.6</ele>
        <time>2022-10-29T10:03:51Z</time>
      </trkpt>
      <trkpt lat="44.36022" lon="3.77327">
        <ele>1094.4</ele>
        <time>2022-10-29T10:03:52Z</time>
      </trkpt>
      <trkpt lat="44.36022" lon="3.77324">
        <ele>1094.2</ele>
        <time>2022-10-29T10:03:53Z</time>
      </trkpt>
      <trkpt lat="44.36023" lon="3.77321">
        <ele>1093.8</ele>
        <time>2022-10-29T10:03:54Z</time>
      </trkpt>
      <trkpt lat="44.36023" lon="3.77318">
        <ele>1093.4</ele>
        <time>2022-10-29T10:03:55Z</time>
      </trkpt>
      <trkpt lat="44.36023" lon="3.77315">
        <ele>1093</ele>
        <time>2022-10-29T10:03:56Z</time>
      </trkpt>
      <trkpt lat="44.36023" lon="3.77312">
        <ele>1092.6</ele>
        <time>2022-10-29T10:03:57Z</time>
      </trkpt>
      <trkpt lat="44.36024" lon="3.77309">
        <ele>1092.2</ele>
        <time>2022-10-29T10:03:58Z</time>
      </trkpt>
      <trkpt lat="44.36024" lon="3.77305">
        <ele>1091.8</ele>
        <time>2022-10-29T10:03:59Z</time>
      </trkpt>
      <trkpt lat="44.36025" lon="3.77302">
        <ele>1091.4</ele>
        <time>2022-10-29T10:04:00Z</time>
      </trkpt>
      <trkpt lat="44.36025" lon="3.77298">
        <ele>1090.8</ele>
        <time>2022-10-29T10:04:01Z</time>
      </trkpt>
      <trkpt lat="44.36025" lon="3.77295">
        <ele>1090.4</ele>
        <time>2022-10-29T10:04:02Z</time>
      </trkpt>
      <trkpt lat="44.36026" lon="3.77292">
        <ele>1090</ele>
        <time>2022-10-29T10:04:03Z</time>
      </trkpt>
      <trkpt lat="44.36026" lon="3.77289">
        <ele>1089.4</ele>
        <time>2022-10-29T10:04:04Z</time>
      </trkpt>
      <trkpt lat="44.36025" lon="3.77286">
        <ele>1089</ele>
        <time>2022-10-29T10:04:05Z</time>
      </trkpt>
      <trkpt lat="44.36026" lon="3.77284">
        <ele>1088.6</ele>
        <time>2022-10-29T10:04:06Z</time>
      </trkpt>
      <trkpt lat="44.36026" lon="3.77281">
        <ele>1088.2</ele>
        <time>2022-10-29T10:04:07Z</time>
      </trkpt>
      <trkpt lat="44.36025" lon="3.77278">
        <ele>1087.8</ele>
        <time>2022-10-29T10:04:08Z</time>
      </trkpt>
      <trkpt lat="44.36025" lon="3.77275">
        <ele>1087.4</ele>
        <time>2022-10-29T10:04:09Z</time>
      </trkpt>
      <trkpt lat="44.36025" lon="3.77273">
        <ele>1087</ele>
        <time>2022-10-29T10:04:10Z</time>
      </trkpt>
      <trkpt lat="44.36025" lon="3.7727">
        <ele>1086.6</ele>
        <time>2022-10-29T10:04:11Z</time>
      </trkpt>
      <trkpt lat="44.36026" lon="3.77267">
        <ele>1086.4</ele>
        <time>2022-10-29T10:04:12Z</time>
      </trkpt>
      <trkpt lat="44.36026" lon="3.77264">
        <ele>1086</ele>
        <time>2022-10-29T10:04:13Z</time>
      </trkpt>
      <trkpt lat="44.36027" lon="3.77261">
        <ele>1085.6</ele>
        <time>2022-10-29T10:04:14Z</time>
      </trkpt>
      <trkpt lat="44.36027" lon="3.77258">
        <ele>1085.2</ele>
        <time>2022-10-29T10:04:15Z</time>
      </trkpt>
      <trkpt lat="44.36028" lon="3.77255">
        <ele>1085</ele>
        <time>2022-10-29T10:04:16Z</time>
      </trkpt>
      <trkpt lat="44.36028" lon="3.77251">
        <ele>1084.6</ele>
        <time>2022-10-29T10:04:17Z</time>
      </trkpt>
      <trkpt lat="44.36029" lon="3.77248">
        <ele>1084.2</ele>
        <time>2022-10-29T10:04:18Z</time>
      </trkpt>
      <trkpt lat="44.36029" lon="3.77244">
        <ele>1084</ele>
        <time>2022-10-29T10:04:19Z</time>
      </trkpt>
      <trkpt lat="44.3603" lon="3.77241">
        <ele>1083.8</ele>
        <time>2022-10-29T10:04:20Z</time>
      </trkpt>
      <trkpt lat="44.3603" lon="3.77238">
        <ele>1083.4</ele>
        <time>2022-10-29T10:04:21Z</time>
      </trkpt>
      <trkpt lat="44.36031" lon="3.77234">
        <ele>1083.2</ele>
        <time>2022-10-29T10:04:22Z</time>
      </trkpt>
      <trkpt lat="44.36031" lon="3.77232">
        <ele>1083</ele>
        <time>2022-10-29T10:04:23Z</time>
      </trkpt>
      <trkpt lat="44.36031" lon="3.77229">
        <ele>1082.6</ele>
        <time>2022-10-29T10:04:24Z</time>
      </trkpt>
      <trkpt lat="44.36031" lon="3.77227">
        <ele>1082.4</ele>
        <time>2022-10-29T10:04:25Z</time>
      </trkpt>
      <trkpt lat="44.36032" lon="3.77226">
        <ele>1082.4</ele>
        <time>2022-10-29T10:04:26Z</time>
      </trkpt>
      <trkpt lat="44.36032" lon="3.77222">
        <ele>1081.8</ele>
        <time>2022-10-29T10:04:31Z</time>
      </trkpt>
      <trkpt lat="44.36031" lon="3.77219">
        <ele>1081.6</ele>
        <time>2022-10-29T10:04:32Z</time>
      </trkpt>
      <trkpt lat="44.36031" lon="3.77216">
        <ele>1081.6</ele>
        <time>2022-10-29T10:04:33Z</time>
      </trkpt>
      <trkpt lat="44.36032" lon="3.77212">
        <ele>1081.4</ele>
        <time>2022-10-29T10:04:34Z</time>
      </trkpt>
      <trkpt lat="44.36032" lon="3.77208">
        <ele>1081.2</ele>
        <time>2022-10-29T10:04:35Z</time>
      </trkpt>
      <trkpt lat="44.36031" lon="3.77204">
        <ele>1080.8</ele>
        <time>2022-10-29T10:04:36Z</time>
      </trkpt>
      <trkpt lat="44.36031" lon="3.77201">
        <ele>1080.4</ele>
        <time>2022-10-29T10:04:37Z</time>
      </trkpt>
      <trkpt lat="44.36032" lon="3.77198">
        <ele>1080</ele>
        <time>2022-10-29T10:04:38Z</time>
      </trkpt>
      <trkpt lat="44.36032" lon="3.77195">
        <ele>1079.8</ele>
        <time>2022-10-29T10:04:39Z</time>
      </trkpt>
      <trkpt lat="44.36034" lon="3.77192">
        <ele>1079.4</ele>
        <time>2022-10-29T10:04:40Z</time>
      </trkpt>
      <trkpt lat="44.36035" lon="3.7719">
        <ele>1078.8</ele>
        <time>2022-10-29T10:04:41Z</time>
      </trkpt>
      <trkpt lat="44.36036" lon="3.77186">
        <ele>1078.4</ele>
        <time>2022-10-29T10:04:42Z</time>
      </trkpt>
      <trkpt lat="44.36037" lon="3.77183">
        <ele>1078</ele>
        <time>2022-10-29T10:04:43Z</time>
      </trkpt>
      <trkpt lat="44.36038" lon="3.7718">
        <ele>1077.4</ele>
        <time>2022-10-29T10:04:44Z</time>
      </trkpt>
      <trkpt lat="44.3604" lon="3.77177">
        <ele>1077</ele>
        <time>2022-10-29T10:04:45Z</time>
      </trkpt>
      <trkpt lat="44.36041" lon="3.77174">
        <ele>1076.6</ele>
        <time>2022-10-29T10:04:46Z</time>
      </trkpt>
      <trkpt lat="44.36042" lon="3.77171">
        <ele>1076.2</ele>
        <time>2022-10-29T10:04:47Z</time>
      </trkpt>
      <trkpt lat="44.36043" lon="3.77169">
        <ele>1075.8</ele>
        <time>2022-10-29T10:04:48Z</time>
      </trkpt>
      <trkpt lat="44.36043" lon="3.77166">
        <ele>1075.2</ele>
        <time>2022-10-29T10:04:49Z</time>
      </trkpt>
      <trkpt lat="44.36044" lon="3.77163">
        <ele>1074.8</ele>
        <time>2022-10-29T10:04:50Z</time>
      </trkpt>
      <trkpt lat="44.36044" lon="3.7716">
        <ele>1074.4</ele>
        <time>2022-10-29T10:04:51Z</time>
      </trkpt>
      <trkpt lat="44.36044" lon="3.77158">
        <ele>1074</ele>
        <time>2022-10-29T10:04:52Z</time>
      </trkpt>
      <trkpt lat="44.36044" lon="3.77156">
        <ele>1073.6</ele>
        <time>2022-10-29T10:04:53Z</time>
      </trkpt>
      <trkpt lat="44.36044" lon="3.77156">
        <ele>1073.4</ele>
        <time>2022-10-29T10:04:54Z</time>
      </trkpt>
      <trkpt lat="44.36044" lon="3.77156">
        <ele>1073.2</ele>
        <time>2022-10-29T10:04:55Z</time>
      </trkpt>
      <trkpt lat="44.36044" lon="3.77156">
        <ele>1073</ele>
        <time>2022-10-29T10:04:56Z</time>
      </trkpt>
      <trkpt lat="44.36044" lon="3.77156">
        <ele>1073</ele>
        <time>2022-10-29T10:04:57Z</time>
      </trkpt>
      <trkpt lat="44.36044" lon="3.77156">
        <ele>1073</ele>
        <time>2022-10-29T10:04:58Z</time>
      </trkpt>
      <trkpt lat="44.36044" lon="3.77156">
        <ele>1072.8</ele>
        <time>2022-10-29T10:04:59Z</time>
      </trkpt>
      <trkpt lat="44.36044" lon="3.77154">
        <ele>1072.6</ele>
        <time>2022-10-29T10:05:03Z</time>
      </trkpt>
      <trkpt lat="44.36045" lon="3.77151">
        <ele>1072.6</ele>
        <time>2022-10-29T10:05:04Z</time>
      </trkpt>
      <trkpt lat="44.36046" lon="3.77149">
        <ele>1072.4</ele>
        <time>2022-10-29T10:05:05Z</time>
      </trkpt>
      <trkpt lat="44.36046" lon="3.77146">
        <ele>1072.2</ele>
        <time>2022-10-29T10:05:06Z</time>
      </trkpt>
      <trkpt lat="44.36046" lon="3.77143">
        <ele>1071.8</ele>
        <time>2022-10-29T10:05:07Z</time>
      </trkpt>
      <trkpt lat="44.36047" lon="3.77141">
        <ele>1071.6</ele>
        <time>2022-10-29T10:05:08Z</time>
      </trkpt>
      <trkpt lat="44.36049" lon="3.77138">
        <ele>1071.4</ele>
        <time>2022-10-29T10:05:09Z</time>
      </trkpt>
      <trkpt lat="44.3605" lon="3.77135">
        <ele>1071</ele>
        <time>2022-10-29T10:05:10Z</time>
      </trkpt>
      <trkpt lat="44.36051" lon="3.77133">
        <ele>1070.6</ele>
        <time>2022-10-29T10:05:11Z</time>
      </trkpt>
      <trkpt lat="44.36052" lon="3.77131">
        <ele>1070.4</ele>
        <time>2022-10-29T10:05:12Z</time>
      </trkpt>
      <trkpt lat="44.36053" lon="3.77129">
        <ele>1070</ele>
        <time>2022-10-29T10:05:13Z</time>
      </trkpt>
      <trkpt lat="44.36055" lon="3.77127">
        <ele>1069.6</ele>
        <time>2022-10-29T10:05:14Z</time>
      </trkpt>
      <trkpt lat="44.36055" lon="3.77125">
        <ele>1069.4</ele>
        <time>2022-10-29T10:05:15Z</time>
      </trkpt>
      <trkpt lat="44.36055" lon="3.77123">
        <ele>1069</ele>
        <time>2022-10-29T10:05:16Z</time>
      </trkpt>
      <trkpt lat="44.36054" lon="3.77122">
        <ele>1068.6</ele>
        <time>2022-10-29T10:05:17Z</time>
      </trkpt>
      <trkpt lat="44.36054" lon="3.77121">
        <ele>1068.4</ele>
        <time>2022-10-29T10:05:18Z</time>
      </trkpt>
      <trkpt lat="44.36054" lon="3.77121">
        <ele>1068</ele>
        <time>2022-10-29T10:05:19Z</time>
      </trkpt>
      <trkpt lat="44.36053" lon="3.77121">
        <ele>1067.8</ele>
        <time>2022-10-29T10:05:20Z</time>
      </trkpt>
      <trkpt lat="44.36053" lon="3.77122">
        <ele>1067.6</ele>
        <time>2022-10-29T10:05:21Z</time>
      </trkpt>
      <trkpt lat="44.36052" lon="3.77122">
        <ele>1067.4</ele>
        <time>2022-10-29T10:05:22Z</time>
      </trkpt>
      <trkpt lat="44.3605" lon="3.77122">
        <ele>1067</ele>
        <time>2022-10-29T10:05:23Z</time>
      </trkpt>
      <trkpt lat="44.36049" lon="3.77123">
        <ele>1066.8</ele>
        <time>2022-10-29T10:05:24Z</time>
      </trkpt>
      <trkpt lat="44.36047" lon="3.77124">
        <ele>1066.6</ele>
        <time>2022-10-29T10:05:25Z</time>
      </trkpt>
      <trkpt lat="44.36046" lon="3.77125">
        <ele>1066.4</ele>
        <time>2022-10-29T10:05:26Z</time>
      </trkpt>
      <trkpt lat="44.36044" lon="3.77126">
        <ele>1066</ele>
        <time>2022-10-29T10:05:27Z</time>
      </trkpt>
      <trkpt lat="44.36042" lon="3.77126">
        <ele>1065.6</ele>
        <time>2022-10-29T10:05:28Z</time>
      </trkpt>
      <trkpt lat="44.36041" lon="3.77125">
        <ele>1065.4</ele>
        <time>2022-10-29T10:05:29Z</time>
      </trkpt>
      <trkpt lat="44.3604" lon="3.77124">
        <ele>1065.2</ele>
        <time>2022-10-29T10:05:30Z</time>
      </trkpt>
      <trkpt lat="44.36041" lon="3.77124">
        <ele>1065</ele>
        <time>2022-10-29T10:05:31Z</time>
      </trkpt>
      <trkpt lat="44.36041" lon="3.77123">
        <ele>1064.8</ele>
        <time>2022-10-29T10:05:32Z</time>
      </trkpt>
      <trkpt lat="44.36041" lon="3.77122">
        <ele>1064.6</ele>
        <time>2022-10-29T10:05:33Z</time>
      </trkpt>
      <trkpt lat="44.36042" lon="3.77121">
        <ele>1064.4</ele>
        <time>2022-10-29T10:05:34Z</time>
      </trkpt>
      <trkpt lat="44.36042" lon="3.7712">
        <ele>1064.2</ele>
        <time>2022-10-29T10:05:35Z</time>
      </trkpt>
      <trkpt lat="44.36042" lon="3.77119">
        <ele>1064</ele>
        <time>2022-10-29T10:05:36Z</time>
      </trkpt>
      <trkpt lat="44.36043" lon="3.77118">
        <ele>1063.8</ele>
        <time>2022-10-29T10:05:37Z</time>
      </trkpt>
      <trkpt lat="44.36045" lon="3.77116">
        <ele>1063.6</ele>
        <time>2022-10-29T10:05:38Z</time>
      </trkpt>
      <trkpt lat="44.36046" lon="3.77114">
        <ele>1063.2</ele>
        <time>2022-10-29T10:05:39Z</time>
      </trkpt>
      <trkpt lat="44.36047" lon="3.77112">
        <ele>1063</ele>
        <time>2022-10-29T10:05:40Z</time>
      </trkpt>
      <trkpt lat="44.36048" lon="3.7711">
        <ele>1062.6</ele>
        <time>2022-10-29T10:05:41Z</time>
      </trkpt>
      <trkpt lat="44.36049" lon="3.77108">
        <ele>1062.4</ele>
        <time>2022-10-29T10:05:42Z</time>
      </trkpt>
      <trkpt lat="44.3605" lon="3.77105">
        <ele>1062</ele>
        <time>2022-10-29T10:05:43Z</time>
      </trkpt>
      <trkpt lat="44.36051" lon="3.77103">
        <ele>1061.8</ele>
        <time>2022-10-29T10:05:44Z</time>
      </trkpt>
      <trkpt lat="44.36053" lon="3.771">
        <ele>1061.4</ele>
        <time>2022-10-29T10:05:45Z</time>
      </trkpt>
      <trkpt lat="44.36054" lon="3.77097">
        <ele>1061</ele>
        <time>2022-10-29T10:05:46Z</time>
      </trkpt>
      <trkpt lat="44.36055" lon="3.77092">
        <ele>1060.4</ele>
        <time>2022-10-29T10:05:47Z</time>
      </trkpt>
      <trkpt lat="44.36057" lon="3.77089">
        <ele>1060</ele>
        <time>2022-10-29T10:05:48Z</time>
      </trkpt>
      <trkpt lat="44.36058" lon="3.77086">
        <ele>1059.4</ele>
        <time>2022-10-29T10:05:49Z</time>
      </trkpt>
      <trkpt lat="44.36058" lon="3.77083">
        <ele>1059</ele>
        <time>2022-10-29T10:05:50Z</time>
      </trkpt>
      <trkpt lat="44.36059" lon="3.77081">
        <ele>1058.6</ele>
        <time>2022-10-29T10:05:51Z</time>
      </trkpt>
      <trkpt lat="44.36059" lon="3.7708">
        <ele>1058.4</ele>
        <time>2022-10-29T10:05:52Z</time>
      </trkpt>
      <trkpt lat="44.36059" lon="3.77078">
        <ele>1058</ele>
        <time>2022-10-29T10:05:53Z</time>
      </trkpt>
      <trkpt lat="44.36059" lon="3.77075">
        <ele>1057.8</ele>
        <time>2022-10-29T10:05:54Z</time>
      </trkpt>
      <trkpt lat="44.36059" lon="3.77072">
        <ele>1057.6</ele>
        <time>2022-10-29T10:05:55Z</time>
      </trkpt>
      <trkpt lat="44.36059" lon="3.7707">
        <ele>1057.2</ele>
        <time>2022-10-29T10:05:56Z</time>
      </trkpt>
      <trkpt lat="44.3606" lon="3.7707">
        <ele>1057</ele>
        <time>2022-10-29T10:05:57Z</time>
      </trkpt>
      <trkpt lat="44.3606" lon="3.7707">
        <ele>1057</ele>
        <time>2022-10-29T10:05:58Z</time>
      </trkpt>
      <trkpt lat="44.36059" lon="3.77069">
        <ele>1056.8</ele>
        <time>2022-10-29T10:05:59Z</time>
      </trkpt>
      <trkpt lat="44.36059" lon="3.77069">
        <ele>1056.6</ele>
        <time>2022-10-29T10:06:00Z</time>
      </trkpt>
      <trkpt lat="44.36059" lon="3.77069">
        <ele>1056.6</ele>
        <time>2022-10-29T10:06:01Z</time>
      </trkpt>
      <trkpt lat="44.36059" lon="3.77069">
        <ele>1056.4</ele>
        <time>2022-10-29T10:06:02Z</time>
      </trkpt>
      <trkpt lat="44.36059" lon="3.77068">
        <ele>1056.4</ele>
        <time>2022-10-29T10:06:03Z</time>
      </trkpt>
      <trkpt lat="44.36059" lon="3.77068">
        <ele>1056.2</ele>
        <time>2022-10-29T10:06:04Z</time>
      </trkpt>
      <trkpt lat="44.36059" lon="3.77067">
        <ele>1056.2</ele>
        <time>2022-10-29T10:06:05Z</time>
      </trkpt>
      <trkpt lat="44.36059" lon="3.77066">
        <ele>1056.2</ele>
        <time>2022-10-29T10:06:06Z</time>
      </trkpt>
      <trkpt lat="44.36059" lon="3.77065">
        <ele>1056</ele>
        <time>2022-10-29T10:06:07Z</time>
      </trkpt>
      <trkpt lat="44.36062" lon="3.77062">
        <ele>1055.4</ele>
        <time>2022-10-29T10:06:15Z</time>
      </trkpt>
      <trkpt lat="44.36064" lon="3.77058">
        <ele>1055.4</ele>
        <time>2022-10-29T10:06:16Z</time>
      </trkpt>
      <trkpt lat="44.36066" lon="3.77054">
        <ele>1055.4</ele>
        <time>2022-10-29T10:06:17Z</time>
      </trkpt>
      <trkpt lat="44.36068" lon="3.77052">
        <ele>1055.2</ele>
        <time>2022-10-29T10:06:18Z</time>
      </trkpt>
      <trkpt lat="44.36069" lon="3.7705">
        <ele>1055</ele>
        <time>2022-10-29T10:06:19Z</time>
      </trkpt>
      <trkpt lat="44.3607" lon="3.77047">
        <ele>1054.8</ele>
        <time>2022-10-29T10:06:20Z</time>
      </trkpt>
      <trkpt lat="44.36071" lon="3.77045">
        <ele>1054.6</ele>
        <time>2022-10-29T10:06:21Z</time>
      </trkpt>
      <trkpt lat="44.36072" lon="3.77043">
        <ele>1054.2</ele>
        <time>2022-10-29T10:06:22Z</time>
      </trkpt>
      <trkpt lat="44.36072" lon="3.77041">
        <ele>1054</ele>
        <time>2022-10-29T10:06:23Z</time>
      </trkpt>
      <trkpt lat="44.36073" lon="3.77039">
        <ele>1053.6</ele>
        <time>2022-10-29T10:06:24Z</time>
      </trkpt>
      <trkpt lat="44.36073" lon="3.77036">
        <ele>1053.2</ele>
        <time>2022-10-29T10:06:25Z</time>
      </trkpt>
      <trkpt lat="44.36072" lon="3.77034">
        <ele>1052.8</ele>
        <time>2022-10-29T10:06:26Z</time>
      </trkpt>
      <trkpt lat="44.36071" lon="3.77032">
        <ele>1052.4</ele>
        <time>2022-10-29T10:06:27Z</time>
      </trkpt>
      <trkpt lat="44.3607" lon="3.77031">
        <ele>1052</ele>
        <time>2022-10-29T10:06:28Z</time>
      </trkpt>
      <trkpt lat="44.36069" lon="3.7703">
        <ele>1051.6</ele>
        <time>2022-10-29T10:06:29Z</time>
      </trkpt>
      <trkpt lat="44.36068" lon="3.7703">
        <ele>1051.2</ele>
        <time>2022-10-29T10:06:30Z</time>
      </trkpt>
      <trkpt lat="44.36066" lon="3.7703">
        <ele>1050.8</ele>
        <time>2022-10-29T10:06:31Z</time>
      </trkpt>
      <trkpt lat="44.36064" lon="3.77029">
        <ele>1050.4</ele>
        <time>2022-10-29T10:06:32Z</time>
      </trkpt>
      <trkpt lat="44.36063" lon="3.77029">
        <ele>1050</ele>
        <time>2022-10-29T10:06:33Z</time>
      </trkpt>
      <trkpt lat="44.36061" lon="3.77028">
        <ele>1049.6</ele>
        <time>2022-10-29T10:06:34Z</time>
      </trkpt>
      <trkpt lat="44.3606" lon="3.77027">
        <ele>1049.2</ele>
        <time>2022-10-29T10:06:35Z</time>
      </trkpt>
      <trkpt lat="44.36058" lon="3.77026">
        <ele>1049</ele>
        <time>2022-10-29T10:06:36Z</time>
      </trkpt>
      <trkpt lat="44.36056" lon="3.77026">
        <ele>1048.6</ele>
        <time>2022-10-29T10:06:37Z</time>
      </trkpt>
      <trkpt lat="44.36054" lon="3.77026">
        <ele>1048.2</ele>
        <time>2022-10-29T10:06:38Z</time>
      </trkpt>
      <trkpt lat="44.36052" lon="3.77026">
        <ele>1047.8</ele>
        <time>2022-10-29T10:06:39Z</time>
      </trkpt>
      <trkpt lat="44.3605" lon="3.77026">
        <ele>1047.6</ele>
        <time>2022-10-29T10:06:40Z</time>
      </trkpt>
      <trkpt lat="44.36048" lon="3.77027">
        <ele>1047.2</ele>
        <time>2022-10-29T10:06:41Z</time>
      </trkpt>
      <trkpt lat="44.36045" lon="3.77027">
        <ele>1047</ele>
        <time>2022-10-29T10:06:42Z</time>
      </trkpt>
      <trkpt lat="44.36043" lon="3.77029">
        <ele>1046.6</ele>
        <time>2022-10-29T10:06:43Z</time>
      </trkpt>
      <trkpt lat="44.36041" lon="3.7703">
        <ele>1046.2</ele>
        <time>2022-10-29T10:06:44Z</time>
      </trkpt>
      <trkpt lat="44.36039" lon="3.7703">
        <ele>1045.8</ele>
        <time>2022-10-29T10:06:45Z</time>
      </trkpt>
      <trkpt lat="44.36038" lon="3.7703">
        <ele>1045.6</ele>
        <time>2022-10-29T10:06:46Z</time>
      </trkpt>
      <trkpt lat="44.36037" lon="3.77031">
        <ele>1045.2</ele>
        <time>2022-10-29T10:06:47Z</time>
      </trkpt>
      <trkpt lat="44.36036" lon="3.77032">
        <ele>1045</ele>
        <time>2022-10-29T10:06:48Z</time>
      </trkpt>
      <trkpt lat="44.36034" lon="3.77033">
        <ele>1044.8</ele>
        <time>2022-10-29T10:06:49Z</time>
      </trkpt>
      <trkpt lat="44.36032" lon="3.77035">
        <ele>1044.6</ele>
        <time>2022-10-29T10:06:50Z</time>
      </trkpt>
      <trkpt lat="44.3603" lon="3.77036">
        <ele>1044.2</ele>
        <time>2022-10-29T10:06:51Z</time>
      </trkpt>
      <trkpt lat="44.36027" lon="3.77037">
        <ele>1043.8</ele>
        <time>2022-10-29T10:06:52Z</time>
      </trkpt>
      <trkpt lat="44.36024" lon="3.77038">
        <ele>1043.4</ele>
        <time>2022-10-29T10:06:53Z</time>
      </trkpt>
      <trkpt lat="44.36021" lon="3.77039">
        <ele>1042.8</ele>
        <time>2022-10-29T10:06:54Z</time>
      </trkpt>
      <trkpt lat="44.36018" lon="3.7704">
        <ele>1042.2</ele>
        <time>2022-10-29T10:06:55Z</time>
      </trkpt>
      <trkpt lat="44.36014" lon="3.77041">
        <ele>1041.6</ele>
        <time>2022-10-29T10:06:56Z</time>
      </trkpt>
      <trkpt lat="44.36011" lon="3.77043">
        <ele>1040.8</ele>
        <time>2022-10-29T10:06:57Z</time>
      </trkpt>
      <trkpt lat="44.36008" lon="3.77044">
        <ele>1040.2</ele>
        <time>2022-10-29T10:06:58Z</time>
      </trkpt>
      <trkpt lat="44.36005" lon="3.77045">
        <ele>1039.4</ele>
        <time>2022-10-29T10:06:59Z</time>
      </trkpt>
      <trkpt lat="44.36003" lon="3.77044">
        <ele>1039</ele>
        <time>2022-10-29T10:07:00Z</time>
      </trkpt>
      <trkpt lat="44.36001" lon="3.77043">
        <ele>1038.4</ele>
        <time>2022-10-29T10:07:01Z</time>
      </trkpt>
      <trkpt lat="44.36" lon="3.7704">
        <ele>1038</ele>
        <time>2022-10-29T10:07:02Z</time>
      </trkpt>
      <trkpt lat="44.35998" lon="3.77037">
        <ele>1037.4</ele>
        <time>2022-10-29T10:07:03Z</time>
      </trkpt>
      <trkpt lat="44.35997" lon="3.77033">
        <ele>1036.8</ele>
        <time>2022-10-29T10:07:04Z</time>
      </trkpt>
      <trkpt lat="44.35995" lon="3.77028">
        <ele>1036.2</ele>
        <time>2022-10-29T10:07:05Z</time>
      </trkpt>
      <trkpt lat="44.35993" lon="3.77023">
        <ele>1035.6</ele>
        <time>2022-10-29T10:07:06Z</time>
      </trkpt>
      <trkpt lat="44.35992" lon="3.77018">
        <ele>1035</ele>
        <time>2022-10-29T10:07:07Z</time>
      </trkpt>
      <trkpt lat="44.35993" lon="3.77012">
        <ele>1034.6</ele>
        <time>2022-10-29T10:07:08Z</time>
      </trkpt>
      <trkpt lat="44.35994" lon="3.77007">
        <ele>1034</ele>
        <time>2022-10-29T10:07:09Z</time>
      </trkpt>
      <trkpt lat="44.35995" lon="3.77001">
        <ele>1033.4</ele>
        <time>2022-10-29T10:07:10Z</time>
      </trkpt>
      <trkpt lat="44.35996" lon="3.76996">
        <ele>1032.8</ele>
        <time>2022-10-29T10:07:11Z</time>
      </trkpt>
      <trkpt lat="44.35995" lon="3.76992">
        <ele>1032.2</ele>
        <time>2022-10-29T10:07:12Z</time>
      </trkpt>
      <trkpt lat="44.35995" lon="3.76989">
        <ele>1031.8</ele>
        <time>2022-10-29T10:07:13Z</time>
      </trkpt>
      <trkpt lat="44.35993" lon="3.76987">
        <ele>1031.4</ele>
        <time>2022-10-29T10:07:14Z</time>
      </trkpt>
      <trkpt lat="44.35992" lon="3.76988">
        <ele>1031</ele>
        <time>2022-10-29T10:07:15Z</time>
      </trkpt>
      <trkpt lat="44.3599" lon="3.76988">
        <ele>1030.8</ele>
        <time>2022-10-29T10:07:16Z</time>
      </trkpt>
      <trkpt lat="44.35989" lon="3.76988">
        <ele>1030.6</ele>
        <time>2022-10-29T10:07:17Z</time>
      </trkpt>
      <trkpt lat="44.35987" lon="3.76988">
        <ele>1030.2</ele>
        <time>2022-10-29T10:07:18Z</time>
      </trkpt>
      <trkpt lat="44.35986" lon="3.76988">
        <ele>1030</ele>
        <time>2022-10-29T10:07:19Z</time>
      </trkpt>
      <trkpt lat="44.35984" lon="3.76988">
        <ele>1030</ele>
        <time>2022-10-29T10:07:20Z</time>
      </trkpt>
      <trkpt lat="44.35983" lon="3.76988">
        <ele>1029.4</ele>
        <time>2022-10-29T10:08:20Z</time>
      </trkpt>
      <trkpt lat="44.35981" lon="3.76988">
        <ele>1029.2</ele>
        <time>2022-10-29T10:08:21Z</time>
      </trkpt>
      <trkpt lat="44.3598" lon="3.76989">
        <ele>1029.2</ele>
        <time>2022-10-29T10:08:22Z</time>
      </trkpt>
      <trkpt lat="44.35975" lon="3.76988">
        <ele>1029</ele>
        <time>2022-10-29T10:08:23Z</time>
      </trkpt>
      <trkpt lat="44.35972" lon="3.76985">
        <ele>1028.8</ele>
        <time>2022-10-29T10:08:24Z</time>
      </trkpt>
      <trkpt lat="44.3597" lon="3.7698">
        <ele>1028.6</ele>
        <time>2022-10-29T10:08:25Z</time>
      </trkpt>
      <trkpt lat="44.35969" lon="3.76975">
        <ele>1028.6</ele>
        <time>2022-10-29T10:08:26Z</time>
      </trkpt>
      <trkpt lat="44.35968" lon="3.7697">
        <ele>1028.4</ele>
        <time>2022-10-29T10:08:27Z</time>
      </trkpt>
      <trkpt lat="44.35968" lon="3.76964">
        <ele>1028.4</ele>
        <time>2022-10-29T10:08:28Z</time>
      </trkpt>
      <trkpt lat="44.35966" lon="3.7696">
        <ele>1028.4</ele>
        <time>2022-10-29T10:08:29Z</time>
      </trkpt>
      <trkpt lat="44.35965" lon="3.76955">
        <ele>1028.2</ele>
        <time>2022-10-29T10:08:30Z</time>
      </trkpt>
      <trkpt lat="44.35963" lon="3.76951">
        <ele>1028.2</ele>
        <time>2022-10-29T10:08:31Z</time>
      </trkpt>
      <trkpt lat="44.35961" lon="3.76947">
        <ele>1028.2</ele>
        <time>2022-10-29T10:08:32Z</time>
      </trkpt>
      <trkpt lat="44.35958" lon="3.76944">
        <ele>1028.2</ele>
        <time>2022-10-29T10:08:33Z</time>
      </trkpt>
      <trkpt lat="44.35956" lon="3.76941">
        <ele>1028.2</ele>
        <time>2022-10-29T10:08:34Z</time>
      </trkpt>
      <trkpt lat="44.35953" lon="3.7694">
        <ele>1028.2</ele>
        <time>2022-10-29T10:08:35Z</time>
      </trkpt>
      <trkpt lat="44.3595" lon="3.76939">
        <ele>1028</ele>
        <time>2022-10-29T10:08:36Z</time>
      </trkpt>
      <trkpt lat="44.35948" lon="3.76938">
        <ele>1028</ele>
        <time>2022-10-29T10:08:37Z</time>
      </trkpt>
      <trkpt lat="44.35947" lon="3.76938">
        <ele>1027.8</ele>
        <time>2022-10-29T10:08:38Z</time>
      </trkpt>
      <trkpt lat="44.35947" lon="3.76938">
        <ele>1027.8</ele>
        <time>2022-10-29T10:08:39Z</time>
      </trkpt>
      <trkpt lat="44.35947" lon="3.76938">
        <ele>1027.8</ele>
        <time>2022-10-29T10:08:40Z</time>
      </trkpt>
      <trkpt lat="44.35947" lon="3.76938">
        <ele>1027.6</ele>
        <time>2022-10-29T10:08:41Z</time>
      </trkpt>
      <trkpt lat="44.35947" lon="3.76938">
        <ele>1027.6</ele>
        <time>2022-10-29T10:08:42Z</time>
      </trkpt>
      <trkpt lat="44.35947" lon="3.76938">
        <ele>1027.6</ele>
        <time>2022-10-29T10:08:43Z</time>
      </trkpt>
      <trkpt lat="44.35944" lon="3.76937">
        <ele>1027.2</ele>
        <time>2022-10-29T10:08:54Z</time>
      </trkpt>
      <trkpt lat="44.35943" lon="3.76936">
        <ele>1027.2</ele>
        <time>2022-10-29T10:08:55Z</time>
      </trkpt>
      <trkpt lat="44.35942" lon="3.76935">
        <ele>1027</ele>
        <time>2022-10-29T10:08:56Z</time>
      </trkpt>
      <trkpt lat="44.35941" lon="3.76934">
        <ele>1026.8</ele>
        <time>2022-10-29T10:08:57Z</time>
      </trkpt>
      <trkpt lat="44.35942" lon="3.76933">
        <ele>1026.8</ele>
        <time>2022-10-29T10:08:58Z</time>
      </trkpt>
      <trkpt lat="44.35942" lon="3.76932">
        <ele>1026.4</ele>
        <time>2022-10-29T10:08:59Z</time>
      </trkpt>
      <trkpt lat="44.35942" lon="3.76931">
        <ele>1026.2</ele>
        <time>2022-10-29T10:09:00Z</time>
      </trkpt>
      <trkpt lat="44.35941" lon="3.76929">
        <ele>1026</ele>
        <time>2022-10-29T10:09:01Z</time>
      </trkpt>
      <trkpt lat="44.35941" lon="3.76928">
        <ele>1025.8</ele>
        <time>2022-10-29T10:09:02Z</time>
      </trkpt>
      <trkpt lat="44.3594" lon="3.76927">
        <ele>1025.4</ele>
        <time>2022-10-29T10:09:03Z</time>
      </trkpt>
      <trkpt lat="44.35939" lon="3.76927">
        <ele>1025.2</ele>
        <time>2022-10-29T10:09:04Z</time>
      </trkpt>
      <trkpt lat="44.35938" lon="3.76926">
        <ele>1024.8</ele>
        <time>2022-10-29T10:09:05Z</time>
      </trkpt>
      <trkpt lat="44.35937" lon="3.76926">
        <ele>1024.6</ele>
        <time>2022-10-29T10:09:06Z</time>
      </trkpt>
      <trkpt lat="44.35936" lon="3.76925">
        <ele>1024.2</ele>
        <time>2022-10-29T10:09:07Z</time>
      </trkpt>
      <trkpt lat="44.35935" lon="3.76925">
        <ele>1024</ele>
        <time>2022-10-29T10:09:08Z</time>
      </trkpt>
      <trkpt lat="44.35934" lon="3.76925">
        <ele>1023.8</ele>
        <time>2022-10-29T10:09:09Z</time>
      </trkpt>
      <trkpt lat="44.35932" lon="3.76924">
        <ele>1023.4</ele>
        <time>2022-10-29T10:09:10Z</time>
      </trkpt>
      <trkpt lat="44.35931" lon="3.76923">
        <ele>1023</ele>
        <time>2022-10-29T10:09:11Z</time>
      </trkpt>
      <trkpt lat="44.3593" lon="3.76923">
        <ele>1022.6</ele>
        <time>2022-10-29T10:09:12Z</time>
      </trkpt>
      <trkpt lat="44.35929" lon="3.76922">
        <ele>1022.2</ele>
        <time>2022-10-29T10:09:13Z</time>
      </trkpt>
      <trkpt lat="44.35928" lon="3.76922">
        <ele>1022</ele>
        <time>2022-10-29T10:09:14Z</time>
      </trkpt>
      <trkpt lat="44.35927" lon="3.76921">
        <ele>1021.6</ele>
        <time>2022-10-29T10:09:15Z</time>
      </trkpt>
      <trkpt lat="44.35926" lon="3.7692">
        <ele>1021.2</ele>
        <time>2022-10-29T10:09:16Z</time>
      </trkpt>
      <trkpt lat="44.35926" lon="3.7692">
        <ele>1021</ele>
        <time>2022-10-29T10:09:17Z</time>
      </trkpt>
      <trkpt lat="44.35926" lon="3.7692">
        <ele>1020.6</ele>
        <time>2022-10-29T10:09:18Z</time>
      </trkpt>
      <trkpt lat="44.35925" lon="3.76919">
        <ele>1020.4</ele>
        <time>2022-10-29T10:09:19Z</time>
      </trkpt>
      <trkpt lat="44.35923" lon="3.76919">
        <ele>1020.2</ele>
        <time>2022-10-29T10:09:20Z</time>
      </trkpt>
      <trkpt lat="44.35921" lon="3.76918">
        <ele>1020</ele>
        <time>2022-10-29T10:09:21Z</time>
      </trkpt>
      <trkpt lat="44.3592" lon="3.76917">
        <ele>1019.8</ele>
        <time>2022-10-29T10:09:22Z</time>
      </trkpt>
      <trkpt lat="44.35919" lon="3.76916">
        <ele>1019.4</ele>
        <time>2022-10-29T10:09:23Z</time>
      </trkpt>
      <trkpt lat="44.35919" lon="3.76914">
        <ele>1019.2</ele>
        <time>2022-10-29T10:09:24Z</time>
      </trkpt>
      <trkpt lat="44.35918" lon="3.76914">
        <ele>1018.8</ele>
        <time>2022-10-29T10:09:25Z</time>
      </trkpt>
      <trkpt lat="44.35918" lon="3.76912">
        <ele>1018.6</ele>
        <time>2022-10-29T10:09:26Z</time>
      </trkpt>
      <trkpt lat="44.35917" lon="3.76911">
        <ele>1018.2</ele>
        <time>2022-10-29T10:09:27Z</time>
      </trkpt>
      <trkpt lat="44.35916" lon="3.7691">
        <ele>1017.8</ele>
        <time>2022-10-29T10:09:28Z</time>
      </trkpt>
      <trkpt lat="44.35915" lon="3.76908">
        <ele>1017.4</ele>
        <time>2022-10-29T10:09:29Z</time>
      </trkpt>
      <trkpt lat="44.35914" lon="3.76908">
        <ele>1017.2</ele>
        <time>2022-10-29T10:09:30Z</time>
      </trkpt>
      <trkpt lat="44.35914" lon="3.76908">
        <ele>1017</ele>
        <time>2022-10-29T10:09:31Z</time>
      </trkpt>
      <trkpt lat="44.35914" lon="3.76907">
        <ele>1016.8</ele>
        <time>2022-10-29T10:09:32Z</time>
      </trkpt>
      <trkpt lat="44.35914" lon="3.76906">
        <ele>1016.4</ele>
        <time>2022-10-29T10:09:33Z</time>
      </trkpt>
      <trkpt lat="44.35914" lon="3.76905">
        <ele>1016.2</ele>
        <time>2022-10-29T10:09:34Z</time>
      </trkpt>
      <trkpt lat="44.35914" lon="3.76904">
        <ele>1015.8</ele>
        <time>2022-10-29T10:09:35Z</time>
      </trkpt>
      <trkpt lat="44.35915" lon="3.76903">
        <ele>1015.6</ele>
        <time>2022-10-29T10:09:36Z</time>
      </trkpt>
      <trkpt lat="44.35915" lon="3.76902">
        <ele>1015.2</ele>
        <time>2022-10-29T10:09:37Z</time>
      </trkpt>
      <trkpt lat="44.35917" lon="3.76901">
        <ele>1014.8</ele>
        <time>2022-10-29T10:09:38Z</time>
      </trkpt>
      <trkpt lat="44.35918" lon="3.76901">
        <ele>1014.6</ele>
        <time>2022-10-29T10:09:39Z</time>
      </trkpt>
      <trkpt lat="44.35919" lon="3.76901">
        <ele>1014.4</ele>
        <time>2022-10-29T10:09:40Z</time>
      </trkpt>
      <trkpt lat="44.35919" lon="3.76901">
        <ele>1014</ele>
        <time>2022-10-29T10:09:41Z</time>
      </trkpt>
      <trkpt lat="44.35919" lon="3.769">
        <ele>1014</ele>
        <time>2022-10-29T10:09:42Z</time>
      </trkpt>
      <trkpt lat="44.3592" lon="3.769">
        <ele>1013.8</ele>
        <time>2022-10-29T10:09:43Z</time>
      </trkpt>
      <trkpt lat="44.35921" lon="3.769">
        <ele>1013.6</ele>
        <time>2022-10-29T10:09:44Z</time>
      </trkpt>
      <trkpt lat="44.35922" lon="3.76899">
        <ele>1013.4</ele>
        <time>2022-10-29T10:09:45Z</time>
      </trkpt>
      <trkpt lat="44.35924" lon="3.76897">
        <ele>1013.2</ele>
        <time>2022-10-29T10:09:46Z</time>
      </trkpt>
      <trkpt lat="44.35926" lon="3.76896">
        <ele>1013</ele>
        <time>2022-10-29T10:09:47Z</time>
      </trkpt>
      <trkpt lat="44.35927" lon="3.76894">
        <ele>1012.8</ele>
        <time>2022-10-29T10:09:48Z</time>
      </trkpt>
      <trkpt lat="44.35929" lon="3.76893">
        <ele>1012.6</ele>
        <time>2022-10-29T10:09:49Z</time>
      </trkpt>
      <trkpt lat="44.35931" lon="3.76891">
        <ele>1012.2</ele>
        <time>2022-10-29T10:09:50Z</time>
      </trkpt>
      <trkpt lat="44.35933" lon="3.76889">
        <ele>1012</ele>
        <time>2022-10-29T10:09:51Z</time>
      </trkpt>
      <trkpt lat="44.35935" lon="3.76887">
        <ele>1011.6</ele>
        <time>2022-10-29T10:09:52Z</time>
      </trkpt>
      <trkpt lat="44.35937" lon="3.76884">
        <ele>1011.4</ele>
        <time>2022-10-29T10:09:53Z</time>
      </trkpt>
      <trkpt lat="44.35939" lon="3.76882">
        <ele>1011</ele>
        <time>2022-10-29T10:09:54Z</time>
      </trkpt>
      <trkpt lat="44.35941" lon="3.7688">
        <ele>1010.8</ele>
        <time>2022-10-29T10:09:55Z</time>
      </trkpt>
      <trkpt lat="44.35944" lon="3.76877">
        <ele>1010.4</ele>
        <time>2022-10-29T10:09:56Z</time>
      </trkpt>
      <trkpt lat="44.35946" lon="3.76875">
        <ele>1010.2</ele>
        <time>2022-10-29T10:09:57Z</time>
      </trkpt>
      <trkpt lat="44.35948" lon="3.76872">
        <ele>1009.8</ele>
        <time>2022-10-29T10:09:58Z</time>
      </trkpt>
      <trkpt lat="44.35949" lon="3.7687">
        <ele>1009.6</ele>
        <time>2022-10-29T10:09:59Z</time>
      </trkpt>
      <trkpt lat="44.35951" lon="3.76869">
        <ele>1009.2</ele>
        <time>2022-10-29T10:10:00Z</time>
      </trkpt>
      <trkpt lat="44.35952" lon="3.76867">
        <ele>1008.8</ele>
        <time>2022-10-29T10:10:01Z</time>
      </trkpt>
      <trkpt lat="44.35954" lon="3.76865">
        <ele>1008.4</ele>
        <time>2022-10-29T10:10:02Z</time>
      </trkpt>
      <trkpt lat="44.35955" lon="3.76864">
        <ele>1008</ele>
        <time>2022-10-29T10:10:03Z</time>
      </trkpt>
      <trkpt lat="44.35957" lon="3.76862">
        <ele>1007.8</ele>
        <time>2022-10-29T10:10:04Z</time>
      </trkpt>
      <trkpt lat="44.3596" lon="3.7686">
        <ele>1007.4</ele>
        <time>2022-10-29T10:10:05Z</time>
      </trkpt>
      <trkpt lat="44.35962" lon="3.76858">
        <ele>1007</ele>
        <time>2022-10-29T10:10:06Z</time>
      </trkpt>
      <trkpt lat="44.35964" lon="3.76856">
        <ele>1006.6</ele>
        <time>2022-10-29T10:10:07Z</time>
      </trkpt>
      <trkpt lat="44.35967" lon="3.76853">
        <ele>1006.2</ele>
        <time>2022-10-29T10:10:08Z</time>
      </trkpt>
      <trkpt lat="44.35968" lon="3.76851">
        <ele>1005.6</ele>
        <time>2022-10-29T10:10:09Z</time>
      </trkpt>
      <trkpt lat="44.3597" lon="3.76849">
        <ele>1005.2</ele>
        <time>2022-10-29T10:10:10Z</time>
      </trkpt>
      <trkpt lat="44.35972" lon="3.76848">
        <ele>1004.8</ele>
        <time>2022-10-29T10:10:11Z</time>
      </trkpt>
      <trkpt lat="44.35973" lon="3.76846">
        <ele>1004.4</ele>
        <time>2022-10-29T10:10:12Z</time>
      </trkpt>
      <trkpt lat="44.35975" lon="3.76845">
        <ele>1004</ele>
        <time>2022-10-29T10:10:13Z</time>
      </trkpt>
      <trkpt lat="44.35978" lon="3.76843">
        <ele>1003.6</ele>
        <time>2022-10-29T10:10:14Z</time>
      </trkpt>
      <trkpt lat="44.3598" lon="3.76841">
        <ele>1003.2</ele>
        <time>2022-10-29T10:10:15Z</time>
      </trkpt>
      <trkpt lat="44.35982" lon="3.76839">
        <ele>1003</ele>
        <time>2022-10-29T10:10:16Z</time>
      </trkpt>
      <trkpt lat="44.35983" lon="3.76837">
        <ele>1002.8</ele>
        <time>2022-10-29T10:10:17Z</time>
      </trkpt>
      <trkpt lat="44.35984" lon="3.76836">
        <ele>1002.6</ele>
        <time>2022-10-29T10:10:18Z</time>
      </trkpt>
      <trkpt lat="44.35984" lon="3.76835">
        <ele>1002.6</ele>
        <time>2022-10-29T10:10:19Z</time>
      </trkpt>
      <trkpt lat="44.35984" lon="3.76835">
        <ele>1002.4</ele>
        <time>2022-10-29T10:10:20Z</time>
      </trkpt>
      <trkpt lat="44.35984" lon="3.76832">
        <ele>1001.6</ele>
        <time>2022-10-29T10:10:24Z</time>
      </trkpt>
      <trkpt lat="44.35983" lon="3.76831">
        <ele>1001.4</ele>
        <time>2022-10-29T10:10:25Z</time>
      </trkpt>
      <trkpt lat="44.35983" lon="3.7683">
        <ele>1001.4</ele>
        <time>2022-10-29T10:10:26Z</time>
      </trkpt>
      <trkpt lat="44.35983" lon="3.76829">
        <ele>1001.2</ele>
        <time>2022-10-29T10:10:27Z</time>
      </trkpt>
      <trkpt lat="44.35983" lon="3.76829">
        <ele>1001.2</ele>
        <time>2022-10-29T10:10:28Z</time>
      </trkpt>
      <trkpt lat="44.35983" lon="3.76828">
        <ele>1001</ele>
        <time>2022-10-29T10:10:29Z</time>
      </trkpt>
      <trkpt lat="44.35982" lon="3.76827">
        <ele>1000.8</ele>
        <time>2022-10-29T10:10:30Z</time>
      </trkpt>
      <trkpt lat="44.35981" lon="3.76824">
        <ele>1000.4</ele>
        <time>2022-10-29T10:10:31Z</time>
      </trkpt>
      <trkpt lat="44.35981" lon="3.76821">
        <ele>1000.2</ele>
        <time>2022-10-29T10:10:32Z</time>
      </trkpt>
      <trkpt lat="44.3598" lon="3.76819">
        <ele>1000</ele>
        <time>2022-10-29T10:10:33Z</time>
      </trkpt>
      <trkpt lat="44.35981" lon="3.76814">
        <ele>999.8</ele>
        <time>2022-10-29T10:10:34Z</time>
      </trkpt>
      <trkpt lat="44.35981" lon="3.7681">
        <ele>999.4</ele>
        <time>2022-10-29T10:10:35Z</time>
      </trkpt>
      <trkpt lat="44.35981" lon="3.76807">
        <ele>999.2</ele>
        <time>2022-10-29T10:10:36Z</time>
      </trkpt>
      <trkpt lat="44.35982" lon="3.76804">
        <ele>998.8</ele>
        <time>2022-10-29T10:10:37Z</time>
      </trkpt>
      <trkpt lat="44.35983" lon="3.76801">
        <ele>998.6</ele>
        <time>2022-10-29T10:10:38Z</time>
      </trkpt>
      <trkpt lat="44.35983" lon="3.76799">
        <ele>998.2</ele>
        <time>2022-10-29T10:10:39Z</time>
      </trkpt>
      <trkpt lat="44.35983" lon="3.76797">
        <ele>998</ele>
        <time>2022-10-29T10:10:40Z</time>
      </trkpt>
      <trkpt lat="44.35984" lon="3.76796">
        <ele>997.8</ele>
        <time>2022-10-29T10:10:41Z</time>
      </trkpt>
      <trkpt lat="44.35985" lon="3.76795">
        <ele>997.4</ele>
        <time>2022-10-29T10:10:42Z</time>
      </trkpt>
      <trkpt lat="44.35985" lon="3.76793">
        <ele>997.2</ele>
        <time>2022-10-29T10:10:43Z</time>
      </trkpt>
      <trkpt lat="44.35985" lon="3.76791">
        <ele>997</ele>
        <time>2022-10-29T10:10:44Z</time>
      </trkpt>
      <trkpt lat="44.35985" lon="3.76789">
        <ele>996.6</ele>
        <time>2022-10-29T10:10:45Z</time>
      </trkpt>
      <trkpt lat="44.35986" lon="3.76785">
        <ele>996.4</ele>
        <time>2022-10-29T10:10:46Z</time>
      </trkpt>
      <trkpt lat="44.35987" lon="3.76781">
        <ele>996.2</ele>
        <time>2022-10-29T10:10:47Z</time>
      </trkpt>
      <trkpt lat="44.35988" lon="3.76778">
        <ele>996</ele>
        <time>2022-10-29T10:10:48Z</time>
      </trkpt>
      <trkpt lat="44.35989" lon="3.76774">
        <ele>995.8</ele>
        <time>2022-10-29T10:10:49Z</time>
      </trkpt>
      <trkpt lat="44.35991" lon="3.76771">
        <ele>995.6</ele>
        <time>2022-10-29T10:10:50Z</time>
      </trkpt>
      <trkpt lat="44.35993" lon="3.76768">
        <ele>995.4</ele>
        <time>2022-10-29T10:10:51Z</time>
      </trkpt>
      <trkpt lat="44.35995" lon="3.76765">
        <ele>995.4</ele>
        <time>2022-10-29T10:10:52Z</time>
      </trkpt>
      <trkpt lat="44.35997" lon="3.76763">
        <ele>995.2</ele>
        <time>2022-10-29T10:10:53Z</time>
      </trkpt>
      <trkpt lat="44.35998" lon="3.7676">
        <ele>995.2</ele>
        <time>2022-10-29T10:10:54Z</time>
      </trkpt>
      <trkpt lat="44.36001" lon="3.76758">
        <ele>995</ele>
        <time>2022-10-29T10:10:55Z</time>
      </trkpt>
      <trkpt lat="44.36003" lon="3.76756">
        <ele>994.8</ele>
        <time>2022-10-29T10:10:56Z</time>
      </trkpt>
      <trkpt lat="44.36004" lon="3.76754">
        <ele>994.8</ele>
        <time>2022-10-29T10:10:57Z</time>
      </trkpt>
      <trkpt lat="44.36006" lon="3.76753">
        <ele>994.6</ele>
        <time>2022-10-29T10:10:58Z</time>
      </trkpt>
      <trkpt lat="44.36006" lon="3.76752">
        <ele>994.4</ele>
        <time>2022-10-29T10:10:59Z</time>
      </trkpt>
      <trkpt lat="44.36007" lon="3.76752">
        <ele>994.4</ele>
        <time>2022-10-29T10:11:00Z</time>
      </trkpt>
      <trkpt lat="44.36007" lon="3.76751">
        <ele>994.2</ele>
        <time>2022-10-29T10:11:01Z</time>
      </trkpt>
      <trkpt lat="44.36008" lon="3.76751">
        <ele>994</ele>
        <time>2022-10-29T10:11:02Z</time>
      </trkpt>
      <trkpt lat="44.36009" lon="3.76751">
        <ele>994</ele>
        <time>2022-10-29T10:11:03Z</time>
      </trkpt>
      <trkpt lat="44.36009" lon="3.7675">
        <ele>993.8</ele>
        <time>2022-10-29T10:11:04Z</time>
      </trkpt>
      <trkpt lat="44.3601" lon="3.7675">
        <ele>993.8</ele>
        <time>2022-10-29T10:11:05Z</time>
      </trkpt>
      <trkpt lat="44.3601" lon="3.7675">
        <ele>993.6</ele>
        <time>2022-10-29T10:11:06Z</time>
      </trkpt>
      <trkpt lat="44.36011" lon="3.76749">
        <ele>993.6</ele>
        <time>2022-10-29T10:11:07Z</time>
      </trkpt>
      <trkpt lat="44.36011" lon="3.76749">
        <ele>993.6</ele>
        <time>2022-10-29T10:11:08Z</time>
      </trkpt>
      <trkpt lat="44.36012" lon="3.76748">
        <ele>993.4</ele>
        <time>2022-10-29T10:11:09Z</time>
      </trkpt>
      <trkpt lat="44.36012" lon="3.76748">
        <ele>993.2</ele>
        <time>2022-10-29T10:11:14Z</time>
      </trkpt>
      <trkpt lat="44.36013" lon="3.76748">
        <ele>993.2</ele>
        <time>2022-10-29T10:11:15Z</time>
      </trkpt>
      <trkpt lat="44.36014" lon="3.76747">
        <ele>993.2</ele>
        <time>2022-10-29T10:11:16Z</time>
      </trkpt>
      <trkpt lat="44.36014" lon="3.76747">
        <ele>993.2</ele>
        <time>2022-10-29T10:11:17Z</time>
      </trkpt>
      <trkpt lat="44.36015" lon="3.76747">
        <ele>993.2</ele>
        <time>2022-10-29T10:11:18Z</time>
      </trkpt>
      <trkpt lat="44.36015" lon="3.76746">
        <ele>993.2</ele>
        <time>2022-10-29T10:11:19Z</time>
      </trkpt>
      <trkpt lat="44.36016" lon="3.76746">
        <ele>993</ele>
        <time>2022-10-29T10:11:37Z</time>
      </trkpt>
      <trkpt lat="44.36016" lon="3.76745">
        <ele>992.8</ele>
        <time>2022-10-29T10:11:38Z</time>
      </trkpt>
      <trkpt lat="44.36023" lon="3.76742">
        <ele>992.6</ele>
        <time>2022-10-29T10:11:39Z</time>
      </trkpt>
      <trkpt lat="44.3603" lon="3.76737">
        <ele>992.4</ele>
        <time>2022-10-29T10:11:40Z</time>
      </trkpt>
      <trkpt lat="44.36036" lon="3.76733">
        <ele>992.2</ele>
        <time>2022-10-29T10:11:41Z</time>
      </trkpt>
      <trkpt lat="44.36042" lon="3.76731">
        <ele>992</ele>
        <time>2022-10-29T10:11:42Z</time>
      </trkpt>
      <trkpt lat="44.36049" lon="3.76729">
        <ele>991.8</ele>
        <time>2022-10-29T10:11:43Z</time>
      </trkpt>
      <trkpt lat="44.36055" lon="3.76727">
        <ele>991.6</ele>
        <time>2022-10-29T10:11:44Z</time>
      </trkpt>
      <trkpt lat="44.36062" lon="3.76725">
        <ele>991.4</ele>
        <time>2022-10-29T10:11:45Z</time>
      </trkpt>
      <trkpt lat="44.36069" lon="3.76723">
        <ele>991.2</ele>
        <time>2022-10-29T10:11:46Z</time>
      </trkpt>
      <trkpt lat="44.36076" lon="3.76721">
        <ele>991</ele>
        <time>2022-10-29T10:11:47Z</time>
      </trkpt>
      <trkpt lat="44.36082" lon="3.76719">
        <ele>990.8</ele>
        <time>2022-10-29T10:11:48Z</time>
      </trkpt>
      <trkpt lat="44.36089" lon="3.76718">
        <ele>990.8</ele>
        <time>2022-10-29T10:11:49Z</time>
      </trkpt>
      <trkpt lat="44.36096" lon="3.76715">
        <ele>990.6</ele>
        <time>2022-10-29T10:11:50Z</time>
      </trkpt>
      <trkpt lat="44.36103" lon="3.76713">
        <ele>990.4</ele>
        <time>2022-10-29T10:11:51Z</time>
      </trkpt>
      <trkpt lat="44.3611" lon="3.76711">
        <ele>990.2</ele>
        <time>2022-10-29T10:11:52Z</time>
      </trkpt>
      <trkpt lat="44.36117" lon="3.76708">
        <ele>990</ele>
        <time>2022-10-29T10:11:53Z</time>
      </trkpt>
      <trkpt lat="44.36123" lon="3.76706">
        <ele>989.8</ele>
        <time>2022-10-29T10:11:54Z</time>
      </trkpt>
      <trkpt lat="44.3613" lon="3.76703">
        <ele>989.6</ele>
        <time>2022-10-29T10:11:55Z</time>
      </trkpt>
      <trkpt lat="44.36136" lon="3.76699">
        <ele>989.4</ele>
        <time>2022-10-29T10:11:56Z</time>
      </trkpt>
      <trkpt lat="44.36142" lon="3.76695">
        <ele>989</ele>
        <time>2022-10-29T10:11:57Z</time>
      </trkpt>
      <trkpt lat="44.36148" lon="3.7669">
        <ele>988.8</ele>
        <time>2022-10-29T10:11:58Z</time>
      </trkpt>
      <trkpt lat="44.36153" lon="3.76684">
        <ele>988.2</ele>
        <time>2022-10-29T10:11:59Z</time>
      </trkpt>
      <trkpt lat="44.36156" lon="3.76677">
        <ele>987.8</ele>
        <time>2022-10-29T10:12:00Z</time>
      </trkpt>
      <trkpt lat="44.36159" lon="3.7667">
        <ele>987.4</ele>
        <time>2022-10-29T10:12:01Z</time>
      </trkpt>
      <trkpt lat="44.3616" lon="3.76664">
        <ele>987</ele>
        <time>2022-10-29T10:12:02Z</time>
      </trkpt>
      <trkpt lat="44.3616" lon="3.76659">
        <ele>986.6</ele>
        <time>2022-10-29T10:12:03Z</time>
      </trkpt>
      <trkpt lat="44.3616" lon="3.76655">
        <ele>986.4</ele>
        <time>2022-10-29T10:12:04Z</time>
      </trkpt>
      <trkpt lat="44.36161" lon="3.76652">
        <ele>986.2</ele>
        <time>2022-10-29T10:12:05Z</time>
      </trkpt>
      <trkpt lat="44.36161" lon="3.7665">
        <ele>986</ele>
        <time>2022-10-29T10:12:06Z</time>
      </trkpt>
      <trkpt lat="44.36161" lon="3.76648">
        <ele>985.8</ele>
        <time>2022-10-29T10:12:07Z</time>
      </trkpt>
      <trkpt lat="44.36161" lon="3.76648">
        <ele>985.8</ele>
        <time>2022-10-29T10:12:08Z</time>
      </trkpt>
      <trkpt lat="44.36161" lon="3.76648">
        <ele>985.8</ele>
        <time>2022-10-29T10:12:09Z</time>
      </trkpt>
      <trkpt lat="44.36161" lon="3.76648">
        <ele>985.6</ele>
        <time>2022-10-29T10:12:10Z</time>
      </trkpt>
      <trkpt lat="44.36161" lon="3.76648">
        <ele>985.6</ele>
        <time>2022-10-29T10:12:11Z</time>
      </trkpt>
      <trkpt lat="44.36161" lon="3.76648">
        <ele>985.6</ele>
        <time>2022-10-29T10:12:12Z</time>
      </trkpt>
      <trkpt lat="44.36161" lon="3.76648">
        <ele>985.6</ele>
        <time>2022-10-29T10:12:13Z</time>
      </trkpt>
      <trkpt lat="44.36161" lon="3.76646">
        <ele>985.4</ele>
        <time>2022-10-29T10:12:26Z</time>
      </trkpt>
      <trkpt lat="44.3616" lon="3.76644">
        <ele>985.4</ele>
        <time>2022-10-29T10:12:27Z</time>
      </trkpt>
      <trkpt lat="44.3616" lon="3.76639">
        <ele>985.4</ele>
        <time>2022-10-29T10:12:28Z</time>
      </trkpt>
      <trkpt lat="44.3616" lon="3.76634">
        <ele>985.4</ele>
        <time>2022-10-29T10:12:29Z</time>
      </trkpt>
      <trkpt lat="44.36159" lon="3.7663">
        <ele>985.4</ele>
        <time>2022-10-29T10:12:30Z</time>
      </trkpt>
      <trkpt lat="44.36158" lon="3.76626">
        <ele>985.4</ele>
        <time>2022-10-29T10:12:31Z</time>
      </trkpt>
      <trkpt lat="44.36157" lon="3.76623">
        <ele>985.4</ele>
        <time>2022-10-29T10:12:32Z</time>
      </trkpt>
      <trkpt lat="44.36156" lon="3.7662">
        <ele>985.6</ele>
        <time>2022-10-29T10:12:33Z</time>
      </trkpt>
      <trkpt lat="44.36155" lon="3.76618">
        <ele>985.6</ele>
        <time>2022-10-29T10:12:34Z</time>
      </trkpt>
      <trkpt lat="44.36153" lon="3.76615">
        <ele>985.6</ele>
        <time>2022-10-29T10:12:35Z</time>
      </trkpt>
      <trkpt lat="44.36152" lon="3.76612">
        <ele>985.6</ele>
        <time>2022-10-29T10:12:36Z</time>
      </trkpt>
      <trkpt lat="44.36149" lon="3.76609">
        <ele>985.6</ele>
        <time>2022-10-29T10:12:37Z</time>
      </trkpt>
      <trkpt lat="44.36146" lon="3.76607">
        <ele>985.8</ele>
        <time>2022-10-29T10:12:38Z</time>
      </trkpt>
      <trkpt lat="44.36142" lon="3.76606">
        <ele>985.6</ele>
        <time>2022-10-29T10:12:39Z</time>
      </trkpt>
      <trkpt lat="44.36138" lon="3.76605">
        <ele>985.6</ele>
        <time>2022-10-29T10:12:40Z</time>
      </trkpt>
      <trkpt lat="44.36134" lon="3.76604">
        <ele>985.6</ele>
        <time>2022-10-29T10:12:41Z</time>
      </trkpt>
      <trkpt lat="44.3613" lon="3.76604">
        <ele>985.6</ele>
        <time>2022-10-29T10:12:42Z</time>
      </trkpt>
      <trkpt lat="44.36125" lon="3.76605">
        <ele>985.6</ele>
        <time>2022-10-29T10:12:43Z</time>
      </trkpt>
      <trkpt lat="44.36121" lon="3.76606">
        <ele>985.4</ele>
        <time>2022-10-29T10:12:44Z</time>
      </trkpt>
      <trkpt lat="44.36116" lon="3.76608">
        <ele>985.4</ele>
        <time>2022-10-29T10:12:45Z</time>
      </trkpt>
      <trkpt lat="44.36111" lon="3.7661">
        <ele>985.4</ele>
        <time>2022-10-29T10:12:46Z</time>
      </trkpt>
      <trkpt lat="44.36107" lon="3.76612">
        <ele>985.4</ele>
        <time>2022-10-29T10:12:47Z</time>
      </trkpt>
      <trkpt lat="44.36102" lon="3.76613">
        <ele>985.4</ele>
        <time>2022-10-29T10:12:48Z</time>
      </trkpt>
      <trkpt lat="44.36096" lon="3.76613">
        <ele>985.4</ele>
        <time>2022-10-29T10:12:49Z</time>
      </trkpt>
      <trkpt lat="44.36092" lon="3.76613">
        <ele>985.4</ele>
        <time>2022-10-29T10:12:50Z</time>
      </trkpt>
      <trkpt lat="44.36087" lon="3.76613">
        <ele>985.2</ele>
        <time>2022-10-29T10:12:51Z</time>
      </trkpt>
      <trkpt lat="44.36082" lon="3.76612">
        <ele>985.2</ele>
        <time>2022-10-29T10:12:52Z</time>
      </trkpt>
      <trkpt lat="44.36076" lon="3.7661">
        <ele>985</ele>
        <time>2022-10-29T10:12:53Z</time>
      </trkpt>
      <trkpt lat="44.36071" lon="3.76608">
        <ele>985</ele>
        <time>2022-10-29T10:12:54Z</time>
      </trkpt>
      <trkpt lat="44.36066" lon="3.76604">
        <ele>984.8</ele>
        <time>2022-10-29T10:12:55Z</time>
      </trkpt>
      <trkpt lat="44.36062" lon="3.76599">
        <ele>984.6</ele>
        <time>2022-10-29T10:12:56Z</time>
      </trkpt>
      <trkpt lat="44.36057" lon="3.76594">
        <ele>984.4</ele>
        <time>2022-10-29T10:12:57Z</time>
      </trkpt>
      <trkpt lat="44.36054" lon="3.76587">
        <ele>984.4</ele>
        <time>2022-10-29T10:12:58Z</time>
      </trkpt>
      <trkpt lat="44.36051" lon="3.7658">
        <ele>984.2</ele>
        <time>2022-10-29T10:12:59Z</time>
      </trkpt>
      <trkpt lat="44.36049" lon="3.76572">
        <ele>984</ele>
        <time>2022-10-29T10:13:00Z</time>
      </trkpt>
      <trkpt lat="44.36048" lon="3.76563">
        <ele>984</ele>
        <time>2022-10-29T10:13:01Z</time>
      </trkpt>
      <trkpt lat="44.36048" lon="3.76555">
        <ele>983.8</ele>
        <time>2022-10-29T10:13:02Z</time>
      </trkpt>
      <trkpt lat="44.36048" lon="3.76546">
        <ele>983.8</ele>
        <time>2022-10-29T10:13:03Z</time>
      </trkpt>
      <trkpt lat="44.36049" lon="3.76538">
        <ele>983.8</ele>
        <time>2022-10-29T10:13:04Z</time>
      </trkpt>
      <trkpt lat="44.36049" lon="3.76529">
        <ele>983.6</ele>
        <time>2022-10-29T10:13:05Z</time>
      </trkpt>
      <trkpt lat="44.3605" lon="3.76521">
        <ele>983.6</ele>
        <time>2022-10-29T10:13:06Z</time>
      </trkpt>
      <trkpt lat="44.36051" lon="3.76512">
        <ele>983.6</ele>
        <time>2022-10-29T10:13:07Z</time>
      </trkpt>
      <trkpt lat="44.36052" lon="3.76504">
        <ele>983.4</ele>
        <time>2022-10-29T10:13:08Z</time>
      </trkpt>
      <trkpt lat="44.36052" lon="3.76496">
        <ele>983.4</ele>
        <time>2022-10-29T10:13:09Z</time>
      </trkpt>
      <trkpt lat="44.36052" lon="3.76487">
        <ele>983.4</ele>
        <time>2022-10-29T10:13:10Z</time>
      </trkpt>
      <trkpt lat="44.36052" lon="3.76479">
        <ele>983.4</ele>
        <time>2022-10-29T10:13:11Z</time>
      </trkpt>
      <trkpt lat="44.36052" lon="3.76471">
        <ele>983.2</ele>
        <time>2022-10-29T10:13:12Z</time>
      </trkpt>
      <trkpt lat="44.36052" lon="3.76463">
        <ele>983.2</ele>
        <time>2022-10-29T10:13:13Z</time>
      </trkpt>
      <trkpt lat="44.36051" lon="3.76455">
        <ele>983</ele>
        <time>2022-10-29T10:13:14Z</time>
      </trkpt>
      <trkpt lat="44.3605" lon="3.76447">
        <ele>983</ele>
        <time>2022-10-29T10:13:15Z</time>
      </trkpt>
      <trkpt lat="44.36049" lon="3.76439">
        <ele>982.8</ele>
        <time>2022-10-29T10:13:16Z</time>
      </trkpt>
      <trkpt lat="44.36048" lon="3.76431">
        <ele>982.8</ele>
        <time>2022-10-29T10:13:17Z</time>
      </trkpt>
      <trkpt lat="44.36046" lon="3.76423">
        <ele>982.6</ele>
        <time>2022-10-29T10:13:18Z</time>
      </trkpt>
      <trkpt lat="44.36044" lon="3.76416">
        <ele>982.2</ele>
        <time>2022-10-29T10:13:19Z</time>
      </trkpt>
      <trkpt lat="44.36042" lon="3.76408">
        <ele>982</ele>
        <time>2022-10-29T10:13:20Z</time>
      </trkpt>
      <trkpt lat="44.36041" lon="3.764">
        <ele>982</ele>
        <time>2022-10-29T10:13:21Z</time>
      </trkpt>
      <trkpt lat="44.36039" lon="3.76392">
        <ele>981.8</ele>
        <time>2022-10-29T10:13:22Z</time>
      </trkpt>
      <trkpt lat="44.36038" lon="3.76385">
        <ele>981.6</ele>
        <time>2022-10-29T10:13:23Z</time>
      </trkpt>
      <trkpt lat="44.36037" lon="3.76376">
        <ele>981.4</ele>
        <time>2022-10-29T10:13:24Z</time>
      </trkpt>
      <trkpt lat="44.36036" lon="3.76368">
        <ele>981.2</ele>
        <time>2022-10-29T10:13:25Z</time>
      </trkpt>
      <trkpt lat="44.36035" lon="3.76359">
        <ele>981</ele>
        <time>2022-10-29T10:13:26Z</time>
      </trkpt>
      <trkpt lat="44.36035" lon="3.76351">
        <ele>981</ele>
        <time>2022-10-29T10:13:27Z</time>
      </trkpt>
      <trkpt lat="44.36035" lon="3.7634">
        <ele>980.8</ele>
        <time>2022-10-29T10:13:28Z</time>
      </trkpt>
      <trkpt lat="44.36034" lon="3.76331">
        <ele>980.6</ele>
        <time>2022-10-29T10:13:29Z</time>
      </trkpt>
      <trkpt lat="44.36034" lon="3.76321">
        <ele>980.6</ele>
        <time>2022-10-29T10:13:30Z</time>
      </trkpt>
      <trkpt lat="44.36035" lon="3.76312">
        <ele>980.4</ele>
        <time>2022-10-29T10:13:31Z</time>
      </trkpt>
      <trkpt lat="44.36035" lon="3.76303">
        <ele>980.2</ele>
        <time>2022-10-29T10:13:32Z</time>
      </trkpt>
      <trkpt lat="44.36035" lon="3.76294">
        <ele>980.2</ele>
        <time>2022-10-29T10:13:33Z</time>
      </trkpt>
      <trkpt lat="44.36035" lon="3.76284">
        <ele>980</ele>
        <time>2022-10-29T10:13:34Z</time>
      </trkpt>
      <trkpt lat="44.36035" lon="3.76275">
        <ele>980</ele>
        <time>2022-10-29T10:13:35Z</time>
      </trkpt>
      <trkpt lat="44.36034" lon="3.76266">
        <ele>979.8</ele>
        <time>2022-10-29T10:13:36Z</time>
      </trkpt>
      <trkpt lat="44.36034" lon="3.76256">
        <ele>979.8</ele>
        <time>2022-10-29T10:13:37Z</time>
      </trkpt>
      <trkpt lat="44.36034" lon="3.76246">
        <ele>979.6</ele>
        <time>2022-10-29T10:13:38Z</time>
      </trkpt>
      <trkpt lat="44.36034" lon="3.76237">
        <ele>979.4</ele>
        <time>2022-10-29T10:13:39Z</time>
      </trkpt>
      <trkpt lat="44.36033" lon="3.76227">
        <ele>979.2</ele>
        <time>2022-10-29T10:13:40Z</time>
      </trkpt>
      <trkpt lat="44.36032" lon="3.76217">
        <ele>978.8</ele>
        <time>2022-10-29T10:13:41Z</time>
      </trkpt>
      <trkpt lat="44.36031" lon="3.76207">
        <ele>978.6</ele>
        <time>2022-10-29T10:13:42Z</time>
      </trkpt>
      <trkpt lat="44.36031" lon="3.76196">
        <ele>978.4</ele>
        <time>2022-10-29T10:13:43Z</time>
      </trkpt>
      <trkpt lat="44.36031" lon="3.76187">
        <ele>978.2</ele>
        <time>2022-10-29T10:13:44Z</time>
      </trkpt>
      <trkpt lat="44.36031" lon="3.76177">
        <ele>978</ele>
        <time>2022-10-29T10:13:45Z</time>
      </trkpt>
      <trkpt lat="44.3603" lon="3.76167">
        <ele>977.8</ele>
        <time>2022-10-29T10:13:46Z</time>
      </trkpt>
      <trkpt lat="44.3603" lon="3.76156">
        <ele>977.6</ele>
        <time>2022-10-29T10:13:47Z</time>
      </trkpt>
      <trkpt lat="44.3603" lon="3.76146">
        <ele>977.4</ele>
        <time>2022-10-29T10:13:48Z</time>
      </trkpt>
      <trkpt lat="44.36029" lon="3.76135">
        <ele>977.2</ele>
        <time>2022-10-29T10:13:49Z</time>
      </trkpt>
      <trkpt lat="44.36029" lon="3.76125">
        <ele>976.8</ele>
        <time>2022-10-29T10:13:50Z</time>
      </trkpt>
      <trkpt lat="44.36028" lon="3.76114">
        <ele>976.6</ele>
        <time>2022-10-29T10:13:51Z</time>
      </trkpt>
      <trkpt lat="44.36027" lon="3.76102">
        <ele>976.2</ele>
        <time>2022-10-29T10:13:52Z</time>
      </trkpt>
      <trkpt lat="44.36027" lon="3.76092">
        <ele>975.8</ele>
        <time>2022-10-29T10:13:53Z</time>
      </trkpt>
      <trkpt lat="44.36025" lon="3.76079">
        <ele>975.2</ele>
        <time>2022-10-29T10:13:54Z</time>
      </trkpt>
      <trkpt lat="44.36023" lon="3.76068">
        <ele>974.8</ele>
        <time>2022-10-29T10:13:55Z</time>
      </trkpt>
      <trkpt lat="44.36021" lon="3.76056">
        <ele>974.4</ele>
        <time>2022-10-29T10:13:56Z</time>
      </trkpt>
      <trkpt lat="44.36019" lon="3.76045">
        <ele>974</ele>
        <time>2022-10-29T10:13:57Z</time>
      </trkpt>
      <trkpt lat="44.36017" lon="3.76033">
        <ele>973.6</ele>
        <time>2022-10-29T10:13:58Z</time>
      </trkpt>
      <trkpt lat="44.36016" lon="3.76021">
        <ele>973.2</ele>
        <time>2022-10-29T10:13:59Z</time>
      </trkpt>
      <trkpt lat="44.36015" lon="3.76008">
        <ele>972.8</ele>
        <time>2022-10-29T10:14:00Z</time>
      </trkpt>
      <trkpt lat="44.36015" lon="3.75995">
        <ele>972.4</ele>
        <time>2022-10-29T10:14:01Z</time>
      </trkpt>
      <trkpt lat="44.36016" lon="3.75983">
        <ele>972.2</ele>
        <time>2022-10-29T10:14:02Z</time>
      </trkpt>
      <trkpt lat="44.36019" lon="3.7597">
        <ele>971.8</ele>
        <time>2022-10-29T10:14:03Z</time>
      </trkpt>
      <trkpt lat="44.36021" lon="3.75958">
        <ele>971.6</ele>
        <time>2022-10-29T10:14:04Z</time>
      </trkpt>
      <trkpt lat="44.36022" lon="3.75945">
        <ele>971.2</ele>
        <time>2022-10-29T10:14:05Z</time>
      </trkpt>
      <trkpt lat="44.36022" lon="3.75932">
        <ele>970.8</ele>
        <time>2022-10-29T10:14:06Z</time>
      </trkpt>
      <trkpt lat="44.36022" lon="3.75918">
        <ele>970.4</ele>
        <time>2022-10-29T10:14:07Z</time>
      </trkpt>
      <trkpt lat="44.3602" lon="3.75905">
        <ele>970</ele>
        <time>2022-10-29T10:14:08Z</time>
      </trkpt>
      <trkpt lat="44.36018" lon="3.75891">
        <ele>969.2</ele>
        <time>2022-10-29T10:14:09Z</time>
      </trkpt>
      <trkpt lat="44.36016" lon="3.75878">
        <ele>968.8</ele>
        <time>2022-10-29T10:14:10Z</time>
      </trkpt>
      <trkpt lat="44.36013" lon="3.75865">
        <ele>968.2</ele>
        <time>2022-10-29T10:14:11Z</time>
      </trkpt>
      <trkpt lat="44.36011" lon="3.75852">
        <ele>967.8</ele>
        <time>2022-10-29T10:14:12Z</time>
      </trkpt>
      <trkpt lat="44.36007" lon="3.75839">
        <ele>967.2</ele>
        <time>2022-10-29T10:14:13Z</time>
      </trkpt>
      <trkpt lat="44.36004" lon="3.75826">
        <ele>966.8</ele>
        <time>2022-10-29T10:14:14Z</time>
      </trkpt>
      <trkpt lat="44.36" lon="3.75813">
        <ele>966.2</ele>
        <time>2022-10-29T10:14:15Z</time>
      </trkpt>
      <trkpt lat="44.35996" lon="3.758">
        <ele>965.8</ele>
        <time>2022-10-29T10:14:16Z</time>
      </trkpt>
      <trkpt lat="44.35991" lon="3.75788">
        <ele>965.4</ele>
        <time>2022-10-29T10:14:17Z</time>
      </trkpt>
      <trkpt lat="44.35987" lon="3.75776">
        <ele>964.8</ele>
        <time>2022-10-29T10:14:18Z</time>
      </trkpt>
      <trkpt lat="44.35984" lon="3.75761">
        <ele>964.4</ele>
        <time>2022-10-29T10:14:19Z</time>
      </trkpt>
      <trkpt lat="44.3598" lon="3.75747">
        <ele>963.8</ele>
        <time>2022-10-29T10:14:20Z</time>
      </trkpt>
      <trkpt lat="44.35978" lon="3.75733">
        <ele>963.4</ele>
        <time>2022-10-29T10:14:21Z</time>
      </trkpt>
      <trkpt lat="44.35978" lon="3.75718">
        <ele>963</ele>
        <time>2022-10-29T10:14:22Z</time>
      </trkpt>
      <trkpt lat="44.3598" lon="3.75703">
        <ele>962.4</ele>
        <time>2022-10-29T10:14:23Z</time>
      </trkpt>
      <trkpt lat="44.35983" lon="3.75689">
        <ele>962</ele>
        <time>2022-10-29T10:14:24Z</time>
      </trkpt>
      <trkpt lat="44.35989" lon="3.75676">
        <ele>961.6</ele>
        <time>2022-10-29T10:14:25Z</time>
      </trkpt>
      <trkpt lat="44.35996" lon="3.75665">
        <ele>961.2</ele>
        <time>2022-10-29T10:14:26Z</time>
      </trkpt>
      <trkpt lat="44.36004" lon="3.75656">
        <ele>960.8</ele>
        <time>2022-10-29T10:14:27Z</time>
      </trkpt>
      <trkpt lat="44.36013" lon="3.75648">
        <ele>960.8</ele>
        <time>2022-10-29T10:14:28Z</time>
      </trkpt>
      <trkpt lat="44.36023" lon="3.75639">
        <ele>960.4</ele>
        <time>2022-10-29T10:14:29Z</time>
      </trkpt>
      <trkpt lat="44.36031" lon="3.75631">
        <ele>960</ele>
        <time>2022-10-29T10:14:30Z</time>
      </trkpt>
      <trkpt lat="44.3604" lon="3.75621">
        <ele>959.4</ele>
        <time>2022-10-29T10:14:31Z</time>
      </trkpt>
      <trkpt lat="44.36048" lon="3.75611">
        <ele>958.8</ele>
        <time>2022-10-29T10:14:32Z</time>
      </trkpt>
      <trkpt lat="44.36056" lon="3.75601">
        <ele>958</ele>
        <time>2022-10-29T10:14:33Z</time>
      </trkpt>
      <trkpt lat="44.36064" lon="3.75591">
        <ele>957.6</ele>
        <time>2022-10-29T10:14:34Z</time>
      </trkpt>
      <trkpt lat="44.36073" lon="3.75583">
        <ele>956.8</ele>
        <time>2022-10-29T10:14:35Z</time>
      </trkpt>
      <trkpt lat="44.36081" lon="3.75574">
        <ele>956.2</ele>
        <time>2022-10-29T10:14:36Z</time>
      </trkpt>
      <trkpt lat="44.36091" lon="3.75565">
        <ele>955.6</ele>
        <time>2022-10-29T10:14:37Z</time>
      </trkpt>
      <trkpt lat="44.361" lon="3.75557">
        <ele>955</ele>
        <time>2022-10-29T10:14:38Z</time>
      </trkpt>
      <trkpt lat="44.36108" lon="3.7555">
        <ele>954.6</ele>
        <time>2022-10-29T10:14:39Z</time>
      </trkpt>
      <trkpt lat="44.36117" lon="3.75544">
        <ele>954.2</ele>
        <time>2022-10-29T10:14:40Z</time>
      </trkpt>
      <trkpt lat="44.36127" lon="3.75537">
        <ele>953.6</ele>
        <time>2022-10-29T10:14:41Z</time>
      </trkpt>
      <trkpt lat="44.36137" lon="3.75532">
        <ele>953</ele>
        <time>2022-10-29T10:14:42Z</time>
      </trkpt>
      <trkpt lat="44.36147" lon="3.75527">
        <ele>952.6</ele>
        <time>2022-10-29T10:14:43Z</time>
      </trkpt>
      <trkpt lat="44.36157" lon="3.75522">
        <ele>952</ele>
        <time>2022-10-29T10:14:44Z</time>
      </trkpt>
      <trkpt lat="44.36168" lon="3.75516">
        <ele>951.6</ele>
        <time>2022-10-29T10:14:45Z</time>
      </trkpt>
      <trkpt lat="44.36178" lon="3.75511">
        <ele>951.2</ele>
        <time>2022-10-29T10:14:46Z</time>
      </trkpt>
      <trkpt lat="44.36187" lon="3.75505">
        <ele>950.8</ele>
        <time>2022-10-29T10:14:47Z</time>
      </trkpt>
      <trkpt lat="44.36197" lon="3.755">
        <ele>950.4</ele>
        <time>2022-10-29T10:14:48Z</time>
      </trkpt>
      <trkpt lat="44.36206" lon="3.75493">
        <ele>949.8</ele>
        <time>2022-10-29T10:14:49Z</time>
      </trkpt>
      <trkpt lat="44.36216" lon="3.75488">
        <ele>949.2</ele>
        <time>2022-10-29T10:14:50Z</time>
      </trkpt>
      <trkpt lat="44.36226" lon="3.75481">
        <ele>948.8</ele>
        <time>2022-10-29T10:14:51Z</time>
      </trkpt>
      <trkpt lat="44.36235" lon="3.75476">
        <ele>948.2</ele>
        <time>2022-10-29T10:14:52Z</time>
      </trkpt>
      <trkpt lat="44.36244" lon="3.7547">
        <ele>947.8</ele>
        <time>2022-10-29T10:14:53Z</time>
      </trkpt>
      <trkpt lat="44.36253" lon="3.75465">
        <ele>947.4</ele>
        <time>2022-10-29T10:14:54Z</time>
      </trkpt>
      <trkpt lat="44.36263" lon="3.75459">
        <ele>946.8</ele>
        <time>2022-10-29T10:14:55Z</time>
      </trkpt>
      <trkpt lat="44.36273" lon="3.75453">
        <ele>946.4</ele>
        <time>2022-10-29T10:14:56Z</time>
      </trkpt>
      <trkpt lat="44.36282" lon="3.75448">
        <ele>946</ele>
        <time>2022-10-29T10:14:57Z</time>
      </trkpt>
      <trkpt lat="44.36291" lon="3.75441">
        <ele>945.4</ele>
        <time>2022-10-29T10:14:58Z</time>
      </trkpt>
      <trkpt lat="44.36299" lon="3.75432">
        <ele>945</ele>
        <time>2022-10-29T10:14:59Z</time>
      </trkpt>
      <trkpt lat="44.36306" lon="3.75422">
        <ele>944.6</ele>
        <time>2022-10-29T10:15:00Z</time>
      </trkpt>
      <trkpt lat="44.36312" lon="3.7541">
        <ele>944.2</ele>
        <time>2022-10-29T10:15:01Z</time>
      </trkpt>
      <trkpt lat="44.36318" lon="3.75399">
        <ele>943.8</ele>
        <time>2022-10-29T10:15:02Z</time>
      </trkpt>
      <trkpt lat="44.36323" lon="3.75386">
        <ele>943.2</ele>
        <time>2022-10-29T10:15:03Z</time>
      </trkpt>
      <trkpt lat="44.36328" lon="3.75374">
        <ele>942.8</ele>
        <time>2022-10-29T10:15:04Z</time>
      </trkpt>
      <trkpt lat="44.36333" lon="3.75362">
        <ele>942.2</ele>
        <time>2022-10-29T10:15:05Z</time>
      </trkpt>
      <trkpt lat="44.36338" lon="3.7535">
        <ele>941.8</ele>
        <time>2022-10-29T10:15:06Z</time>
      </trkpt>
      <trkpt lat="44.36342" lon="3.75337">
        <ele>941.2</ele>
        <time>2022-10-29T10:15:07Z</time>
      </trkpt>
      <trkpt lat="44.36346" lon="3.75324">
        <ele>940.6</ele>
        <time>2022-10-29T10:15:08Z</time>
      </trkpt>
      <trkpt lat="44.36349" lon="3.75311">
        <ele>940</ele>
        <time>2022-10-29T10:15:09Z</time>
      </trkpt>
      <trkpt lat="44.36351" lon="3.75296">
        <ele>939.6</ele>
        <time>2022-10-29T10:15:10Z</time>
      </trkpt>
      <trkpt lat="44.36352" lon="3.75282">
        <ele>939.2</ele>
        <time>2022-10-29T10:15:11Z</time>
      </trkpt>
      <trkpt lat="44.36352" lon="3.75269">
        <ele>938.6</ele>
        <time>2022-10-29T10:15:12Z</time>
      </trkpt>
      <trkpt lat="44.36351" lon="3.75254">
        <ele>938</ele>
        <time>2022-10-29T10:15:13Z</time>
      </trkpt>
      <trkpt lat="44.36349" lon="3.7524">
        <ele>937.4</ele>
        <time>2022-10-29T10:15:14Z</time>
      </trkpt>
      <trkpt lat="44.36347" lon="3.75227">
        <ele>936.8</ele>
        <time>2022-10-29T10:15:15Z</time>
      </trkpt>
      <trkpt lat="44.36345" lon="3.75212">
        <ele>936.4</ele>
        <time>2022-10-29T10:15:16Z</time>
      </trkpt>
      <trkpt lat="44.36342" lon="3.75198">
        <ele>936</ele>
        <time>2022-10-29T10:15:17Z</time>
      </trkpt>
      <trkpt lat="44.36338" lon="3.75185">
        <ele>935.4</ele>
        <time>2022-10-29T10:15:18Z</time>
      </trkpt>
      <trkpt lat="44.36334" lon="3.75172">
        <ele>934.8</ele>
        <time>2022-10-29T10:15:19Z</time>
      </trkpt>
      <trkpt lat="44.3633" lon="3.75159">
        <ele>934</ele>
        <time>2022-10-29T10:15:20Z</time>
      </trkpt>
      <trkpt lat="44.36325" lon="3.75147">
        <ele>933.4</ele>
        <time>2022-10-29T10:15:21Z</time>
      </trkpt>
      <trkpt lat="44.3632" lon="3.75133">
        <ele>932.8</ele>
        <time>2022-10-29T10:15:22Z</time>
      </trkpt>
      <trkpt lat="44.36317" lon="3.75119">
        <ele>932.4</ele>
        <time>2022-10-29T10:15:23Z</time>
      </trkpt>
      <trkpt lat="44.36314" lon="3.75105">
        <ele>931.8</ele>
        <time>2022-10-29T10:15:24Z</time>
      </trkpt>
      <trkpt lat="44.36312" lon="3.7509">
        <ele>931.4</ele>
        <time>2022-10-29T10:15:25Z</time>
      </trkpt>
      <trkpt lat="44.3631" lon="3.75076">
        <ele>930.8</ele>
        <time>2022-10-29T10:15:26Z</time>
      </trkpt>
      <trkpt lat="44.36309" lon="3.7506">
        <ele>930.2</ele>
        <time>2022-10-29T10:15:27Z</time>
      </trkpt>
      <trkpt lat="44.36308" lon="3.75045">
        <ele>929.6</ele>
        <time>2022-10-29T10:15:28Z</time>
      </trkpt>
      <trkpt lat="44.36308" lon="3.75031">
        <ele>929.4</ele>
        <time>2022-10-29T10:15:29Z</time>
      </trkpt>
      <trkpt lat="44.36307" lon="3.75015">
        <ele>929</ele>
        <time>2022-10-29T10:15:30Z</time>
      </trkpt>
      <trkpt lat="44.36307" lon="3.74999">
        <ele>928.6</ele>
        <time>2022-10-29T10:15:31Z</time>
      </trkpt>
      <trkpt lat="44.36308" lon="3.74984">
        <ele>928.2</ele>
        <time>2022-10-29T10:15:32Z</time>
      </trkpt>
      <trkpt lat="44.36309" lon="3.74969">
        <ele>927.6</ele>
        <time>2022-10-29T10:15:33Z</time>
      </trkpt>
      <trkpt lat="44.36311" lon="3.74954">
        <ele>927</ele>
        <time>2022-10-29T10:15:34Z</time>
      </trkpt>
      <trkpt lat="44.36314" lon="3.7494">
        <ele>926.6</ele>
        <time>2022-10-29T10:15:35Z</time>
      </trkpt>
      <trkpt lat="44.36318" lon="3.74926">
        <ele>926</ele>
        <time>2022-10-29T10:15:36Z</time>
      </trkpt>
      <trkpt lat="44.36323" lon="3.74911">
        <ele>925.6</ele>
        <time>2022-10-29T10:15:37Z</time>
      </trkpt>
      <trkpt lat="44.36327" lon="3.74898">
        <ele>925</ele>
        <time>2022-10-29T10:15:38Z</time>
      </trkpt>
      <trkpt lat="44.3633" lon="3.74884">
        <ele>924.2</ele>
        <time>2022-10-29T10:15:39Z</time>
      </trkpt>
      <trkpt lat="44.36333" lon="3.74871">
        <ele>923.4</ele>
        <time>2022-10-29T10:15:40Z</time>
      </trkpt>
      <trkpt lat="44.36334" lon="3.7486">
        <ele>922.6</ele>
        <time>2022-10-29T10:15:41Z</time>
      </trkpt>
      <trkpt lat="44.36336" lon="3.7485">
        <ele>921.8</ele>
        <time>2022-10-29T10:15:42Z</time>
      </trkpt>
      <trkpt lat="44.36336" lon="3.74843">
        <ele>921</ele>
        <time>2022-10-29T10:15:43Z</time>
      </trkpt>
      <trkpt lat="44.36336" lon="3.74838">
        <ele>920.4</ele>
        <time>2022-10-29T10:15:44Z</time>
      </trkpt>
      <trkpt lat="44.36336" lon="3.74834">
        <ele>920</ele>
        <time>2022-10-29T10:15:45Z</time>
      </trkpt>
      <trkpt lat="44.36336" lon="3.74832">
        <ele>919.6</ele>
        <time>2022-10-29T10:15:46Z</time>
      </trkpt>
      <trkpt lat="44.36336" lon="3.74831">
        <ele>919.4</ele>
        <time>2022-10-29T10:15:47Z</time>
      </trkpt>
      <trkpt lat="44.36336" lon="3.7483">
        <ele>919.2</ele>
        <time>2022-10-29T10:15:48Z</time>
      </trkpt>
      <trkpt lat="44.36336" lon="3.74829">
        <ele>919</ele>
        <time>2022-10-29T10:15:50Z</time>
      </trkpt>
      <trkpt lat="44.36336" lon="3.74829">
        <ele>918.8</ele>
        <time>2022-10-29T10:15:51Z</time>
      </trkpt>
      <trkpt lat="44.36336" lon="3.74828">
        <ele>918.8</ele>
        <time>2022-10-29T10:15:52Z</time>
      </trkpt>
      <trkpt lat="44.36336" lon="3.74828">
        <ele>918.6</ele>
        <time>2022-10-29T10:15:53Z</time>
      </trkpt>
      <trkpt lat="44.36335" lon="3.74827">
        <ele>918.6</ele>
        <time>2022-10-29T10:15:54Z</time>
      </trkpt>
      <trkpt lat="44.36335" lon="3.74827">
        <ele>918.6</ele>
        <time>2022-10-29T10:15:55Z</time>
      </trkpt>
      <trkpt lat="44.36335" lon="3.74827">
        <ele>918.6</ele>
        <time>2022-10-29T10:15:56Z</time>
      </trkpt>
      <trkpt lat="44.36335" lon="3.74828">
        <ele>918.6</ele>
        <time>2022-10-29T10:15:57Z</time>
      </trkpt>
      <trkpt lat="44.36335" lon="3.74828">
        <ele>918.4</ele>
        <time>2022-10-29T10:15:58Z</time>
      </trkpt>
      <trkpt lat="44.36335" lon="3.74823">
        <ele>917.6</ele>
        <time>2022-10-29T10:17:48Z</time>
      </trkpt>
      <trkpt lat="44.36336" lon="3.74819">
        <ele>917.6</ele>
        <time>2022-10-29T10:17:49Z</time>
      </trkpt>
      <trkpt lat="44.36337" lon="3.74814">
        <ele>917.6</ele>
        <time>2022-10-29T10:17:50Z</time>
      </trkpt>
      <trkpt lat="44.36338" lon="3.7481">
        <ele>917.6</ele>
        <time>2022-10-29T10:17:51Z</time>
      </trkpt>
      <trkpt lat="44.36338" lon="3.74805">
        <ele>917.4</ele>
        <time>2022-10-29T10:17:52Z</time>
      </trkpt>
      <trkpt lat="44.36338" lon="3.748">
        <ele>917.4</ele>
        <time>2022-10-29T10:17:53Z</time>
      </trkpt>
      <trkpt lat="44.36339" lon="3.74794">
        <ele>917.2</ele>
        <time>2022-10-29T10:17:54Z</time>
      </trkpt>
      <trkpt lat="44.36339" lon="3.74788">
        <ele>917.2</ele>
        <time>2022-10-29T10:17:55Z</time>
      </trkpt>
      <trkpt lat="44.3634" lon="3.74782">
        <ele>917.2</ele>
        <time>2022-10-29T10:17:56Z</time>
      </trkpt>
      <trkpt lat="44.36341" lon="3.74775">
        <ele>917</ele>
        <time>2022-10-29T10:17:57Z</time>
      </trkpt>
      <trkpt lat="44.36343" lon="3.74768">
        <ele>917</ele>
        <time>2022-10-29T10:17:58Z</time>
      </trkpt>
      <trkpt lat="44.36344" lon="3.74761">
        <ele>917</ele>
        <time>2022-10-29T10:17:59Z</time>
      </trkpt>
      <trkpt lat="44.36344" lon="3.74753">
        <ele>916.8</ele>
        <time>2022-10-29T10:18:00Z</time>
      </trkpt>
      <trkpt lat="44.36344" lon="3.74745">
        <ele>916.8</ele>
        <time>2022-10-29T10:18:01Z</time>
      </trkpt>
      <trkpt lat="44.36343" lon="3.74737">
        <ele>916.4</ele>
        <time>2022-10-29T10:18:02Z</time>
      </trkpt>
      <trkpt lat="44.36341" lon="3.74728">
        <ele>916.2</ele>
        <time>2022-10-29T10:18:03Z</time>
      </trkpt>
      <trkpt lat="44.3634" lon="3.74719">
        <ele>915.8</ele>
        <time>2022-10-29T10:18:04Z</time>
      </trkpt>
      <trkpt lat="44.36338" lon="3.74712">
        <ele>915.4</ele>
        <time>2022-10-29T10:18:05Z</time>
      </trkpt>
      <trkpt lat="44.36336" lon="3.74704">
        <ele>915</ele>
        <time>2022-10-29T10:18:06Z</time>
      </trkpt>
      <trkpt lat="44.36334" lon="3.74696">
        <ele>914.6</ele>
        <time>2022-10-29T10:18:07Z</time>
      </trkpt>
      <trkpt lat="44.36331" lon="3.74688">
        <ele>914.2</ele>
        <time>2022-10-29T10:18:08Z</time>
      </trkpt>
      <trkpt lat="44.36329" lon="3.7468">
        <ele>913.8</ele>
        <time>2022-10-29T10:18:09Z</time>
      </trkpt>
      <trkpt lat="44.36326" lon="3.74673">
        <ele>913.2</ele>
        <time>2022-10-29T10:18:10Z</time>
      </trkpt>
      <trkpt lat="44.36323" lon="3.74666">
        <ele>912.6</ele>
        <time>2022-10-29T10:18:11Z</time>
      </trkpt>
      <trkpt lat="44.3632" lon="3.74658">
        <ele>912.2</ele>
        <time>2022-10-29T10:18:12Z</time>
      </trkpt>
      <trkpt lat="44.36317" lon="3.7465">
        <ele>911.6</ele>
        <time>2022-10-29T10:18:13Z</time>
      </trkpt>
      <trkpt lat="44.36314" lon="3.74642">
        <ele>911</ele>
        <time>2022-10-29T10:18:14Z</time>
      </trkpt>
      <trkpt lat="44.36311" lon="3.74635">
        <ele>910.6</ele>
        <time>2022-10-29T10:18:15Z</time>
      </trkpt>
      <trkpt lat="44.36309" lon="3.74628">
        <ele>910</ele>
        <time>2022-10-29T10:18:16Z</time>
      </trkpt>
      <trkpt lat="44.36308" lon="3.7462">
        <ele>909.6</ele>
        <time>2022-10-29T10:18:17Z</time>
      </trkpt>
      <trkpt lat="44.36308" lon="3.74613">
        <ele>909.2</ele>
        <time>2022-10-29T10:18:18Z</time>
      </trkpt>
      <trkpt lat="44.36307" lon="3.74605">
        <ele>908.8</ele>
        <time>2022-10-29T10:18:19Z</time>
      </trkpt>
      <trkpt lat="44.36307" lon="3.74596">
        <ele>908.4</ele>
        <time>2022-10-29T10:18:20Z</time>
      </trkpt>
      <trkpt lat="44.36307" lon="3.74586">
        <ele>907.8</ele>
        <time>2022-10-29T10:18:21Z</time>
      </trkpt>
      <trkpt lat="44.36306" lon="3.74576">
        <ele>907.4</ele>
        <time>2022-10-29T10:18:22Z</time>
      </trkpt>
      <trkpt lat="44.36306" lon="3.74567">
        <ele>907</ele>
        <time>2022-10-29T10:18:23Z</time>
      </trkpt>
      <trkpt lat="44.36306" lon="3.74557">
        <ele>906.4</ele>
        <time>2022-10-29T10:18:24Z</time>
      </trkpt>
      <trkpt lat="44.36305" lon="3.74549">
        <ele>905.8</ele>
        <time>2022-10-29T10:18:25Z</time>
      </trkpt>
      <trkpt lat="44.36305" lon="3.74541">
        <ele>905.4</ele>
        <time>2022-10-29T10:18:26Z</time>
      </trkpt>
      <trkpt lat="44.36304" lon="3.74533">
        <ele>904.8</ele>
        <time>2022-10-29T10:18:27Z</time>
      </trkpt>
      <trkpt lat="44.36304" lon="3.74526">
        <ele>904.2</ele>
        <time>2022-10-29T10:18:28Z</time>
      </trkpt>
      <trkpt lat="44.36304" lon="3.74519">
        <ele>903.8</ele>
        <time>2022-10-29T10:18:29Z</time>
      </trkpt>
      <trkpt lat="44.36303" lon="3.74513">
        <ele>903.4</ele>
        <time>2022-10-29T10:18:30Z</time>
      </trkpt>
      <trkpt lat="44.36303" lon="3.74507">
        <ele>902.8</ele>
        <time>2022-10-29T10:18:31Z</time>
      </trkpt>
      <trkpt lat="44.36302" lon="3.74502">
        <ele>902.4</ele>
        <time>2022-10-29T10:18:32Z</time>
      </trkpt>
      <trkpt lat="44.36301" lon="3.74496">
        <ele>902.2</ele>
        <time>2022-10-29T10:18:33Z</time>
      </trkpt>
      <trkpt lat="44.36301" lon="3.74491">
        <ele>901.8</ele>
        <time>2022-10-29T10:18:34Z</time>
      </trkpt>
      <trkpt lat="44.36302" lon="3.74485">
        <ele>901.6</ele>
        <time>2022-10-29T10:18:35Z</time>
      </trkpt>
      <trkpt lat="44.36303" lon="3.7448">
        <ele>901.4</ele>
        <time>2022-10-29T10:18:36Z</time>
      </trkpt>
      <trkpt lat="44.36304" lon="3.74476">
        <ele>901.2</ele>
        <time>2022-10-29T10:18:37Z</time>
      </trkpt>
      <trkpt lat="44.36305" lon="3.74472">
        <ele>901</ele>
        <time>2022-10-29T10:18:38Z</time>
      </trkpt>
      <trkpt lat="44.36307" lon="3.74467">
        <ele>901</ele>
        <time>2022-10-29T10:18:39Z</time>
      </trkpt>
      <trkpt lat="44.36309" lon="3.74462">
        <ele>900.8</ele>
        <time>2022-10-29T10:18:40Z</time>
      </trkpt>
      <trkpt lat="44.3631" lon="3.74456">
        <ele>900.8</ele>
        <time>2022-10-29T10:18:41Z</time>
      </trkpt>
      <trkpt lat="44.36312" lon="3.74451">
        <ele>900.8</ele>
        <time>2022-10-29T10:18:42Z</time>
      </trkpt>
      <trkpt lat="44.36313" lon="3.74446">
        <ele>900.8</ele>
        <time>2022-10-29T10:18:43Z</time>
      </trkpt>
      <trkpt lat="44.36314" lon="3.7444">
        <ele>900.6</ele>
        <time>2022-10-29T10:18:44Z</time>
      </trkpt>
      <trkpt lat="44.36315" lon="3.74435">
        <ele>900.4</ele>
        <time>2022-10-29T10:18:45Z</time>
      </trkpt>
      <trkpt lat="44.36316" lon="3.74431">
        <ele>900.4</ele>
        <time>2022-10-29T10:18:46Z</time>
      </trkpt>
      <trkpt lat="44.36317" lon="3.74428">
        <ele>900.2</ele>
        <time>2022-10-29T10:18:47Z</time>
      </trkpt>
      <trkpt lat="44.36318" lon="3.74425">
        <ele>900.2</ele>
        <time>2022-10-29T10:18:48Z</time>
      </trkpt>
      <trkpt lat="44.36318" lon="3.74424">
        <ele>900.2</ele>
        <time>2022-10-29T10:18:49Z</time>
      </trkpt>
      <trkpt lat="44.36319" lon="3.74423">
        <ele>900</ele>
        <time>2022-10-29T10:18:50Z</time>
      </trkpt>
      <trkpt lat="44.36319" lon="3.74422">
        <ele>900</ele>
        <time>2022-10-29T10:18:51Z</time>
      </trkpt>
      <trkpt lat="44.36319" lon="3.74421">
        <ele>900</ele>
        <time>2022-10-29T10:18:52Z</time>
      </trkpt>
      <trkpt lat="44.36319" lon="3.7442">
        <ele>900</ele>
        <time>2022-10-29T10:18:53Z</time>
      </trkpt>
      <trkpt lat="44.3632" lon="3.74418">
        <ele>900</ele>
        <time>2022-10-29T10:18:54Z</time>
      </trkpt>
      <trkpt lat="44.36321" lon="3.74416">
        <ele>900</ele>
        <time>2022-10-29T10:18:55Z</time>
      </trkpt>
      <trkpt lat="44.36321" lon="3.74414">
        <ele>900</ele>
        <time>2022-10-29T10:18:56Z</time>
      </trkpt>
      <trkpt lat="44.36321" lon="3.74411">
        <ele>900</ele>
        <time>2022-10-29T10:18:57Z</time>
      </trkpt>
      <trkpt lat="44.36321" lon="3.74408">
        <ele>899.8</ele>
        <time>2022-10-29T10:18:58Z</time>
      </trkpt>
      <trkpt lat="44.36321" lon="3.74406">
        <ele>899.8</ele>
        <time>2022-10-29T10:18:59Z</time>
      </trkpt>
      <trkpt lat="44.36322" lon="3.74404">
        <ele>899.8</ele>
        <time>2022-10-29T10:19:00Z</time>
      </trkpt>
      <trkpt lat="44.36323" lon="3.74402">
        <ele>899.8</ele>
        <time>2022-10-29T10:19:01Z</time>
      </trkpt>
      <trkpt lat="44.36323" lon="3.744">
        <ele>899.8</ele>
        <time>2022-10-29T10:19:02Z</time>
      </trkpt>
      <trkpt lat="44.36324" lon="3.74398">
        <ele>899.8</ele>
        <time>2022-10-29T10:19:03Z</time>
      </trkpt>
      <trkpt lat="44.36324" lon="3.74397">
        <ele>899.6</ele>
        <time>2022-10-29T10:19:04Z</time>
      </trkpt>
      <trkpt lat="44.36325" lon="3.74396">
        <ele>899.6</ele>
        <time>2022-10-29T10:19:05Z</time>
      </trkpt>
      <trkpt lat="44.36325" lon="3.74395">
        <ele>899.6</ele>
        <time>2022-10-29T10:19:06Z</time>
      </trkpt>
      <trkpt lat="44.36325" lon="3.74393">
        <ele>899.6</ele>
        <time>2022-10-29T10:19:07Z</time>
      </trkpt>
      <trkpt lat="44.36326" lon="3.74391">
        <ele>899.6</ele>
        <time>2022-10-29T10:19:08Z</time>
      </trkpt>
      <trkpt lat="44.36326" lon="3.74389">
        <ele>899.6</ele>
        <time>2022-10-29T10:19:09Z</time>
      </trkpt>
      <trkpt lat="44.36327" lon="3.74387">
        <ele>899.6</ele>
        <time>2022-10-29T10:19:10Z</time>
      </trkpt>
      <trkpt lat="44.36328" lon="3.74384">
        <ele>899.6</ele>
        <time>2022-10-29T10:19:11Z</time>
      </trkpt>
      <trkpt lat="44.36328" lon="3.74382">
        <ele>899.6</ele>
        <time>2022-10-29T10:19:12Z</time>
      </trkpt>
      <trkpt lat="44.36328" lon="3.74378">
        <ele>899.6</ele>
        <time>2022-10-29T10:19:13Z</time>
      </trkpt>
      <trkpt lat="44.36328" lon="3.74376">
        <ele>899.4</ele>
        <time>2022-10-29T10:19:14Z</time>
      </trkpt>
      <trkpt lat="44.36327" lon="3.74373">
        <ele>899.4</ele>
        <time>2022-10-29T10:19:15Z</time>
      </trkpt>
      <trkpt lat="44.36328" lon="3.74371">
        <ele>899.4</ele>
        <time>2022-10-29T10:19:16Z</time>
      </trkpt>
      <trkpt lat="44.36328" lon="3.7437">
        <ele>899.4</ele>
        <time>2022-10-29T10:19:17Z</time>
      </trkpt>
      <trkpt lat="44.36329" lon="3.74369">
        <ele>899.4</ele>
        <time>2022-10-29T10:19:18Z</time>
      </trkpt>
      <trkpt lat="44.3633" lon="3.7437">
        <ele>899.4</ele>
        <time>2022-10-29T10:19:19Z</time>
      </trkpt>
      <trkpt lat="44.36331" lon="3.74371">
        <ele>899.4</ele>
        <time>2022-10-29T10:19:20Z</time>
      </trkpt>
      <trkpt lat="44.36331" lon="3.74373">
        <ele>899.4</ele>
        <time>2022-10-29T10:19:21Z</time>
      </trkpt>
      <trkpt lat="44.36331" lon="3.74375">
        <ele>899.4</ele>
        <time>2022-10-29T10:19:22Z</time>
      </trkpt>
      <trkpt lat="44.36331" lon="3.74378">
        <ele>899.4</ele>
        <time>2022-10-29T10:19:23Z</time>
      </trkpt>
      <trkpt lat="44.3633" lon="3.74381">
        <ele>899.4</ele>
        <time>2022-10-29T10:19:24Z</time>
      </trkpt>
      <trkpt lat="44.3633" lon="3.74383">
        <ele>899.4</ele>
        <time>2022-10-29T10:19:25Z</time>
      </trkpt>
      <trkpt lat="44.3633" lon="3.74385">
        <ele>899.6</ele>
        <time>2022-10-29T10:19:26Z</time>
      </trkpt>
      <trkpt lat="44.36329" lon="3.74388">
        <ele>899.6</ele>
        <time>2022-10-29T10:19:27Z</time>
      </trkpt>
      <trkpt lat="44.36329" lon="3.74391">
        <ele>899.6</ele>
        <time>2022-10-29T10:19:28Z</time>
      </trkpt>
      <trkpt lat="44.36329" lon="3.74394">
        <ele>899.6</ele>
        <time>2022-10-29T10:19:29Z</time>
      </trkpt>
      <trkpt lat="44.36329" lon="3.74396">
        <ele>899.6</ele>
        <time>2022-10-29T10:19:30Z</time>
      </trkpt>
      <trkpt lat="44.36329" lon="3.74399">
        <ele>899.6</ele>
        <time>2022-10-29T10:19:31Z</time>
      </trkpt>
      <trkpt lat="44.36329" lon="3.74402">
        <ele>899.6</ele>
        <time>2022-10-29T10:19:32Z</time>
      </trkpt>
      <trkpt lat="44.36328" lon="3.74405">
        <ele>899.6</ele>
        <time>2022-10-29T10:19:33Z</time>
      </trkpt>
      <trkpt lat="44.36327" lon="3.74408">
        <ele>899.6</ele>
        <time>2022-10-29T10:19:34Z</time>
      </trkpt>
      <trkpt lat="44.36326" lon="3.74411">
        <ele>899.6</ele>
        <time>2022-10-29T10:19:35Z</time>
      </trkpt>
      <trkpt lat="44.36325" lon="3.74414">
        <ele>899.6</ele>
        <time>2022-10-29T10:19:36Z</time>
      </trkpt>
      <trkpt lat="44.36325" lon="3.74417">
        <ele>899.6</ele>
        <time>2022-10-29T10:19:37Z</time>
      </trkpt>
      <trkpt lat="44.36324" lon="3.74419">
        <ele>899.6</ele>
        <time>2022-10-29T10:19:38Z</time>
      </trkpt>
      <trkpt lat="44.36324" lon="3.74419">
        <ele>899.6</ele>
        <time>2022-10-29T10:19:39Z</time>
      </trkpt>
      <trkpt lat="44.36323" lon="3.7442">
        <ele>899.6</ele>
        <time>2022-10-29T10:19:40Z</time>
      </trkpt>
      <trkpt lat="44.36323" lon="3.7442">
        <ele>899.6</ele>
        <time>2022-10-29T10:19:41Z</time>
      </trkpt>
      <trkpt lat="44.36322" lon="3.74419">
        <ele>899.6</ele>
        <time>2022-10-29T10:19:42Z</time>
      </trkpt>
      <trkpt lat="44.36322" lon="3.7442">
        <ele>899.6</ele>
        <time>2022-10-29T10:19:43Z</time>
      </trkpt>
      <trkpt lat="44.36321" lon="3.74421">
        <ele>899.4</ele>
        <time>2022-10-29T10:19:44Z</time>
      </trkpt>
      <trkpt lat="44.36321" lon="3.74421">
        <ele>899.4</ele>
        <time>2022-10-29T10:19:45Z</time>
      </trkpt>
      <trkpt lat="44.36321" lon="3.74421">
        <ele>899.4</ele>
        <time>2022-10-29T10:19:46Z</time>
      </trkpt>
      <trkpt lat="44.36323" lon="3.74424">
        <ele>899.2</ele>
        <time>2022-10-29T10:19:54Z</time>
      </trkpt>
      <trkpt lat="44.36323" lon="3.74424">
        <ele>899.4</ele>
        <time>2022-10-29T10:19:55Z</time>
      </trkpt>
      <trkpt lat="44.36323" lon="3.74423">
        <ele>899.4</ele>
        <time>2022-10-29T10:19:56Z</time>
      </trkpt>
      <trkpt lat="44.36323" lon="3.74423">
        <ele>899.2</ele>
        <time>2022-10-29T10:19:57Z</time>
      </trkpt>
      <trkpt lat="44.36323" lon="3.74423">
        <ele>899.4</ele>
        <time>2022-10-29T10:19:58Z</time>
      </trkpt>
      <trkpt lat="44.36323" lon="3.74423">
        <ele>899.4</ele>
        <time>2022-10-29T10:19:59Z</time>
      </trkpt>
      <trkpt lat="44.36323" lon="3.74422">
        <ele>899.4</ele>
        <time>2022-10-29T10:20:00Z</time>
      </trkpt>
      <trkpt lat="44.36324" lon="3.74407">
        <ele>899.2</ele>
        <time>2022-10-29T11:05:30Z</time>
      </trkpt>
      <trkpt lat="44.36325" lon="3.74403">
        <ele>899.2</ele>
        <time>2022-10-29T11:05:31Z</time>
      </trkpt>
      <trkpt lat="44.36325" lon="3.744">
        <ele>899.2</ele>
        <time>2022-10-29T11:05:32Z</time>
      </trkpt>
      <trkpt lat="44.36326" lon="3.74397">
        <ele>899.2</ele>
        <time>2022-10-29T11:05:33Z</time>
      </trkpt>
      <trkpt lat="44.36327" lon="3.74394">
        <ele>899.2</ele>
        <time>2022-10-29T11:05:34Z</time>
      </trkpt>
      <trkpt lat="44.36328" lon="3.7439">
        <ele>899.2</ele>
        <time>2022-10-29T11:05:35Z</time>
      </trkpt>
      <trkpt lat="44.36329" lon="3.74386">
        <ele>899.2</ele>
        <time>2022-10-29T11:05:36Z</time>
      </trkpt>
      <trkpt lat="44.36329" lon="3.74382">
        <ele>899.2</ele>
        <time>2022-10-29T11:05:37Z</time>
      </trkpt>
      <trkpt lat="44.3633" lon="3.74378">
        <ele>899</ele>
        <time>2022-10-29T11:05:38Z</time>
      </trkpt>
      <trkpt lat="44.3633" lon="3.74374">
        <ele>899</ele>
        <time>2022-10-29T11:05:39Z</time>
      </trkpt>
      <trkpt lat="44.3633" lon="3.7437">
        <ele>899</ele>
        <time>2022-10-29T11:05:40Z</time>
      </trkpt>
      <trkpt lat="44.3633" lon="3.74366">
        <ele>899</ele>
        <time>2022-10-29T11:05:41Z</time>
      </trkpt>
      <trkpt lat="44.36328" lon="3.74363">
        <ele>899</ele>
        <time>2022-10-29T11:05:42Z</time>
      </trkpt>
      <trkpt lat="44.36326" lon="3.7436">
        <ele>899.2</ele>
        <time>2022-10-29T11:05:43Z</time>
      </trkpt>
      <trkpt lat="44.36324" lon="3.74358">
        <ele>899.2</ele>
        <time>2022-10-29T11:05:44Z</time>
      </trkpt>
      <trkpt lat="44.36322" lon="3.74356">
        <ele>899.4</ele>
        <time>2022-10-29T11:05:45Z</time>
      </trkpt>
      <trkpt lat="44.3632" lon="3.74355">
        <ele>899.4</ele>
        <time>2022-10-29T11:05:46Z</time>
      </trkpt>
      <trkpt lat="44.36319" lon="3.74354">
        <ele>899.4</ele>
        <time>2022-10-29T11:05:47Z</time>
      </trkpt>
      <trkpt lat="44.36318" lon="3.74354">
        <ele>899.6</ele>
        <time>2022-10-29T11:05:48Z</time>
      </trkpt>
      <trkpt lat="44.36316" lon="3.74354">
        <ele>899.6</ele>
        <time>2022-10-29T11:05:49Z</time>
      </trkpt>
      <trkpt lat="44.36315" lon="3.74354">
        <ele>899.6</ele>
        <time>2022-10-29T11:05:50Z</time>
      </trkpt>
      <trkpt lat="44.36313" lon="3.74354">
        <ele>899.6</ele>
        <time>2022-10-29T11:05:51Z</time>
      </trkpt>
      <trkpt lat="44.36312" lon="3.74354">
        <ele>899.6</ele>
        <time>2022-10-29T11:05:52Z</time>
      </trkpt>
      <trkpt lat="44.36311" lon="3.74353">
        <ele>899.6</ele>
        <time>2022-10-29T11:05:53Z</time>
      </trkpt>
      <trkpt lat="44.36311" lon="3.74352">
        <ele>899.4</ele>
        <time>2022-10-29T11:05:54Z</time>
      </trkpt>
      <trkpt lat="44.36312" lon="3.74352">
        <ele>899.4</ele>
        <time>2022-10-29T11:05:55Z</time>
      </trkpt>
      <trkpt lat="44.36313" lon="3.74352">
        <ele>899.4</ele>
        <time>2022-10-29T11:05:56Z</time>
      </trkpt>
      <trkpt lat="44.36313" lon="3.74352">
        <ele>899.4</ele>
        <time>2022-10-29T11:05:57Z</time>
      </trkpt>
      <trkpt lat="44.36313" lon="3.74352">
        <ele>899.4</ele>
        <time>2022-10-29T11:05:58Z</time>
      </trkpt>
      <trkpt lat="44.36313" lon="3.74352">
        <ele>899.4</ele>
        <time>2022-10-29T11:05:59Z</time>
      </trkpt>
      <trkpt lat="44.36313" lon="3.74352">
        <ele>899.4</ele>
        <time>2022-10-29T11:06:00Z</time>
      </trkpt>
      <trkpt lat="44.36315" lon="3.74353">
        <ele>899.4</ele>
        <time>2022-10-29T11:06:15Z</time>
      </trkpt>
      <trkpt lat="44.36316" lon="3.74354">
        <ele>899.4</ele>
        <time>2022-10-29T11:06:16Z</time>
      </trkpt>
      <trkpt lat="44.36318" lon="3.74355">
        <ele>899.4</ele>
        <time>2022-10-29T11:06:17Z</time>
      </trkpt>
      <trkpt lat="44.36321" lon="3.74357">
        <ele>899.4</ele>
        <time>2022-10-29T11:06:18Z</time>
      </trkpt>
      <trkpt lat="44.36324" lon="3.74358">
        <ele>899.2</ele>
        <time>2022-10-29T11:06:19Z</time>
      </trkpt>
      <trkpt lat="44.36327" lon="3.74359">
        <ele>899</ele>
        <time>2022-10-29T11:06:20Z</time>
      </trkpt>
      <trkpt lat="44.3633" lon="3.7436">
        <ele>898.8</ele>
        <time>2022-10-29T11:06:21Z</time>
      </trkpt>
      <trkpt lat="44.36333" lon="3.74361">
        <ele>898.8</ele>
        <time>2022-10-29T11:06:22Z</time>
      </trkpt>
      <trkpt lat="44.36336" lon="3.74361">
        <ele>898.8</ele>
        <time>2022-10-29T11:06:23Z</time>
      </trkpt>
      <trkpt lat="44.36339" lon="3.74361">
        <ele>898.8</ele>
        <time>2022-10-29T11:06:24Z</time>
      </trkpt>
      <trkpt lat="44.36342" lon="3.7436">
        <ele>899</ele>
        <time>2022-10-29T11:06:25Z</time>
      </trkpt>
      <trkpt lat="44.36344" lon="3.74359">
        <ele>899</ele>
        <time>2022-10-29T11:06:26Z</time>
      </trkpt>
      <trkpt lat="44.36346" lon="3.74358">
        <ele>899.2</ele>
        <time>2022-10-29T11:06:27Z</time>
      </trkpt>
      <trkpt lat="44.36348" lon="3.74357">
        <ele>899.2</ele>
        <time>2022-10-29T11:06:28Z</time>
      </trkpt>
      <trkpt lat="44.3635" lon="3.74356">
        <ele>899.4</ele>
        <time>2022-10-29T11:06:29Z</time>
      </trkpt>
      <trkpt lat="44.36352" lon="3.74356">
        <ele>899.4</ele>
        <time>2022-10-29T11:06:30Z</time>
      </trkpt>
      <trkpt lat="44.36353" lon="3.74355">
        <ele>899.4</ele>
        <time>2022-10-29T11:06:31Z</time>
      </trkpt>
      <trkpt lat="44.36354" lon="3.74355">
        <ele>899.4</ele>
        <time>2022-10-29T11:06:32Z</time>
      </trkpt>
      <trkpt lat="44.36354" lon="3.74355">
        <ele>899.4</ele>
        <time>2022-10-29T11:06:33Z</time>
      </trkpt>
      <trkpt lat="44.36354" lon="3.74355">
        <ele>899.4</ele>
        <time>2022-10-29T11:06:34Z</time>
      </trkpt>
      <trkpt lat="44.36354" lon="3.74355">
        <ele>899.4</ele>
        <time>2022-10-29T11:06:35Z</time>
      </trkpt>
      <trkpt lat="44.36354" lon="3.74355">
        <ele>899.4</ele>
        <time>2022-10-29T11:06:36Z</time>
      </trkpt>
      <trkpt lat="44.36354" lon="3.74355">
        <ele>899.4</ele>
        <time>2022-10-29T11:06:37Z</time>
      </trkpt>
      <trkpt lat="44.36354" lon="3.74355">
        <ele>899.4</ele>
        <time>2022-10-29T11:06:38Z</time>
      </trkpt>
      <trkpt lat="44.36355" lon="3.74354">
        <ele>899.4</ele>
        <time>2022-10-29T11:07:27Z</time>
      </trkpt>
      <trkpt lat="44.36357" lon="3.74353">
        <ele>899.4</ele>
        <time>2022-10-29T11:07:28Z</time>
      </trkpt>
      <trkpt lat="44.36359" lon="3.74351">
        <ele>899.4</ele>
        <time>2022-10-29T11:07:29Z</time>
      </trkpt>
      <trkpt lat="44.36362" lon="3.74348">
        <ele>899.4</ele>
        <time>2022-10-29T11:07:30Z</time>
      </trkpt>
      <trkpt lat="44.36364" lon="3.74346">
        <ele>899.4</ele>
        <time>2022-10-29T11:07:31Z</time>
      </trkpt>
      <trkpt lat="44.36367" lon="3.74344">
        <ele>899.4</ele>
        <time>2022-10-29T11:07:32Z</time>
      </trkpt>
      <trkpt lat="44.3637" lon="3.74342">
        <ele>899.4</ele>
        <time>2022-10-29T11:07:33Z</time>
      </trkpt>
      <trkpt lat="44.36372" lon="3.74339">
        <ele>899.6</ele>
        <time>2022-10-29T11:07:34Z</time>
      </trkpt>
      <trkpt lat="44.36375" lon="3.74335">
        <ele>899.6</ele>
        <time>2022-10-29T11:07:35Z</time>
      </trkpt>
      <trkpt lat="44.36377" lon="3.74332">
        <ele>899.6</ele>
        <time>2022-10-29T11:07:36Z</time>
      </trkpt>
      <trkpt lat="44.36378" lon="3.74328">
        <ele>899.8</ele>
        <time>2022-10-29T11:07:37Z</time>
      </trkpt>
      <trkpt lat="44.36379" lon="3.74324">
        <ele>899.8</ele>
        <time>2022-10-29T11:07:38Z</time>
      </trkpt>
      <trkpt lat="44.3638" lon="3.7432">
        <ele>900</ele>
        <time>2022-10-29T11:07:39Z</time>
      </trkpt>
      <trkpt lat="44.36379" lon="3.74315">
        <ele>900</ele>
        <time>2022-10-29T11:07:40Z</time>
      </trkpt>
      <trkpt lat="44.36379" lon="3.7431">
        <ele>900.2</ele>
        <time>2022-10-29T11:07:41Z</time>
      </trkpt>
      <trkpt lat="44.36378" lon="3.74305">
        <ele>900.2</ele>
        <time>2022-10-29T11:07:42Z</time>
      </trkpt>
      <trkpt lat="44.36378" lon="3.743">
        <ele>900.2</ele>
        <time>2022-10-29T11:07:43Z</time>
      </trkpt>
      <trkpt lat="44.36378" lon="3.74295">
        <ele>900.2</ele>
        <time>2022-10-29T11:07:44Z</time>
      </trkpt>
      <trkpt lat="44.36378" lon="3.7429">
        <ele>900.4</ele>
        <time>2022-10-29T11:07:45Z</time>
      </trkpt>
      <trkpt lat="44.36379" lon="3.74285">
        <ele>900.4</ele>
        <time>2022-10-29T11:07:46Z</time>
      </trkpt>
      <trkpt lat="44.3638" lon="3.7428">
        <ele>900.4</ele>
        <time>2022-10-29T11:07:47Z</time>
      </trkpt>
      <trkpt lat="44.36382" lon="3.74275">
        <ele>900.6</ele>
        <time>2022-10-29T11:07:48Z</time>
      </trkpt>
      <trkpt lat="44.36383" lon="3.74271">
        <ele>900.8</ele>
        <time>2022-10-29T11:07:49Z</time>
      </trkpt>
      <trkpt lat="44.36385" lon="3.74268">
        <ele>900.8</ele>
        <time>2022-10-29T11:07:50Z</time>
      </trkpt>
      <trkpt lat="44.36387" lon="3.74265">
        <ele>901</ele>
        <time>2022-10-29T11:07:51Z</time>
      </trkpt>
      <trkpt lat="44.36389" lon="3.74261">
        <ele>901.2</ele>
        <time>2022-10-29T11:07:52Z</time>
      </trkpt>
      <trkpt lat="44.36391" lon="3.74259">
        <ele>901.2</ele>
        <time>2022-10-29T11:07:53Z</time>
      </trkpt>
      <trkpt lat="44.36393" lon="3.74255">
        <ele>901.4</ele>
        <time>2022-10-29T11:07:54Z</time>
      </trkpt>
      <trkpt lat="44.36395" lon="3.74253">
        <ele>901.6</ele>
        <time>2022-10-29T11:07:55Z</time>
      </trkpt>
      <trkpt lat="44.36397" lon="3.7425">
        <ele>901.8</ele>
        <time>2022-10-29T11:07:56Z</time>
      </trkpt>
      <trkpt lat="44.36399" lon="3.74248">
        <ele>902</ele>
        <time>2022-10-29T11:07:57Z</time>
      </trkpt>
      <trkpt lat="44.36401" lon="3.74246">
        <ele>902.2</ele>
        <time>2022-10-29T11:07:58Z</time>
      </trkpt>
      <trkpt lat="44.36404" lon="3.74244">
        <ele>902.4</ele>
        <time>2022-10-29T11:07:59Z</time>
      </trkpt>
      <trkpt lat="44.36406" lon="3.74242">
        <ele>902.6</ele>
        <time>2022-10-29T11:08:00Z</time>
      </trkpt>
      <trkpt lat="44.36408" lon="3.74239">
        <ele>902.8</ele>
        <time>2022-10-29T11:08:01Z</time>
      </trkpt>
      <trkpt lat="44.3641" lon="3.74237">
        <ele>903</ele>
        <time>2022-10-29T11:08:02Z</time>
      </trkpt>
      <trkpt lat="44.36412" lon="3.74234">
        <ele>903.4</ele>
        <time>2022-10-29T11:08:03Z</time>
      </trkpt>
      <trkpt lat="44.36414" lon="3.74232">
        <ele>903.6</ele>
        <time>2022-10-29T11:08:04Z</time>
      </trkpt>
      <trkpt lat="44.36416" lon="3.7423">
        <ele>903.8</ele>
        <time>2022-10-29T11:08:05Z</time>
      </trkpt>
      <trkpt lat="44.36418" lon="3.74228">
        <ele>904</ele>
        <time>2022-10-29T11:08:06Z</time>
      </trkpt>
      <trkpt lat="44.3642" lon="3.74226">
        <ele>904.2</ele>
        <time>2022-10-29T11:08:07Z</time>
      </trkpt>
      <trkpt lat="44.36422" lon="3.74224">
        <ele>904.4</ele>
        <time>2022-10-29T11:08:08Z</time>
      </trkpt>
      <trkpt lat="44.36424" lon="3.74222">
        <ele>904.6</ele>
        <time>2022-10-29T11:08:09Z</time>
      </trkpt>
      <trkpt lat="44.36425" lon="3.74219">
        <ele>904.8</ele>
        <time>2022-10-29T11:08:10Z</time>
      </trkpt>
      <trkpt lat="44.36428" lon="3.74217">
        <ele>905</ele>
        <time>2022-10-29T11:08:11Z</time>
      </trkpt>
      <trkpt lat="44.3643" lon="3.74215">
        <ele>905.2</ele>
        <time>2022-10-29T11:08:12Z</time>
      </trkpt>
      <trkpt lat="44.36432" lon="3.74212">
        <ele>905.4</ele>
        <time>2022-10-29T11:08:13Z</time>
      </trkpt>
      <trkpt lat="44.36434" lon="3.7421">
        <ele>905.6</ele>
        <time>2022-10-29T11:08:14Z</time>
      </trkpt>
      <trkpt lat="44.36436" lon="3.74208">
        <ele>905.8</ele>
        <time>2022-10-29T11:08:15Z</time>
      </trkpt>
      <trkpt lat="44.36438" lon="3.74206">
        <ele>906</ele>
        <time>2022-10-29T11:08:16Z</time>
      </trkpt>
      <trkpt lat="44.3644" lon="3.74204">
        <ele>906</ele>
        <time>2022-10-29T11:08:17Z</time>
      </trkpt>
      <trkpt lat="44.36442" lon="3.74202">
        <ele>906.2</ele>
        <time>2022-10-29T11:08:18Z</time>
      </trkpt>
      <trkpt lat="44.36444" lon="3.74199">
        <ele>906.4</ele>
        <time>2022-10-29T11:08:19Z</time>
      </trkpt>
      <trkpt lat="44.36446" lon="3.74197">
        <ele>906.6</ele>
        <time>2022-10-29T11:08:20Z</time>
      </trkpt>
      <trkpt lat="44.36447" lon="3.74194">
        <ele>906.8</ele>
        <time>2022-10-29T11:08:21Z</time>
      </trkpt>
      <trkpt lat="44.36449" lon="3.74191">
        <ele>907</ele>
        <time>2022-10-29T11:08:22Z</time>
      </trkpt>
      <trkpt lat="44.36452" lon="3.74189">
        <ele>907.2</ele>
        <time>2022-10-29T11:08:23Z</time>
      </trkpt>
      <trkpt lat="44.36454" lon="3.74187">
        <ele>907.4</ele>
        <time>2022-10-29T11:08:24Z</time>
      </trkpt>
      <trkpt lat="44.36456" lon="3.74184">
        <ele>907.6</ele>
        <time>2022-10-29T11:08:25Z</time>
      </trkpt>
      <trkpt lat="44.36457" lon="3.74181">
        <ele>907.8</ele>
        <time>2022-10-29T11:08:26Z</time>
      </trkpt>
      <trkpt lat="44.36459" lon="3.74179">
        <ele>908</ele>
        <time>2022-10-29T11:08:27Z</time>
      </trkpt>
      <trkpt lat="44.36462" lon="3.74177">
        <ele>908.2</ele>
        <time>2022-10-29T11:08:28Z</time>
      </trkpt>
      <trkpt lat="44.36464" lon="3.74174">
        <ele>908.2</ele>
        <time>2022-10-29T11:08:29Z</time>
      </trkpt>
      <trkpt lat="44.36465" lon="3.74172">
        <ele>908.4</ele>
        <time>2022-10-29T11:08:30Z</time>
      </trkpt>
      <trkpt lat="44.36467" lon="3.74169">
        <ele>908.6</ele>
        <time>2022-10-29T11:08:31Z</time>
      </trkpt>
      <trkpt lat="44.36469" lon="3.74166">
        <ele>908.6</ele>
        <time>2022-10-29T11:08:32Z</time>
      </trkpt>
      <trkpt lat="44.3647" lon="3.74163">
        <ele>908.8</ele>
        <time>2022-10-29T11:08:33Z</time>
      </trkpt>
      <trkpt lat="44.36472" lon="3.7416">
        <ele>909</ele>
        <time>2022-10-29T11:08:34Z</time>
      </trkpt>
      <trkpt lat="44.36474" lon="3.74158">
        <ele>909.2</ele>
        <time>2022-10-29T11:08:35Z</time>
      </trkpt>
      <trkpt lat="44.36475" lon="3.74155">
        <ele>909.2</ele>
        <time>2022-10-29T11:08:36Z</time>
      </trkpt>
      <trkpt lat="44.36477" lon="3.74152">
        <ele>909.4</ele>
        <time>2022-10-29T11:08:37Z</time>
      </trkpt>
      <trkpt lat="44.36479" lon="3.7415">
        <ele>909.6</ele>
        <time>2022-10-29T11:08:38Z</time>
      </trkpt>
      <trkpt lat="44.36481" lon="3.74147">
        <ele>909.8</ele>
        <time>2022-10-29T11:08:39Z</time>
      </trkpt>
      <trkpt lat="44.36482" lon="3.74144">
        <ele>910</ele>
        <time>2022-10-29T11:08:40Z</time>
      </trkpt>
      <trkpt lat="44.36484" lon="3.74141">
        <ele>910.2</ele>
        <time>2022-10-29T11:08:41Z</time>
      </trkpt>
      <trkpt lat="44.36486" lon="3.74139">
        <ele>910.2</ele>
        <time>2022-10-29T11:08:42Z</time>
      </trkpt>
      <trkpt lat="44.36488" lon="3.74136">
        <ele>910.4</ele>
        <time>2022-10-29T11:08:43Z</time>
      </trkpt>
      <trkpt lat="44.3649" lon="3.74133">
        <ele>910.6</ele>
        <time>2022-10-29T11:08:44Z</time>
      </trkpt>
      <trkpt lat="44.36492" lon="3.74131">
        <ele>910.6</ele>
        <time>2022-10-29T11:08:45Z</time>
      </trkpt>
      <trkpt lat="44.36494" lon="3.74128">
        <ele>910.8</ele>
        <time>2022-10-29T11:08:46Z</time>
      </trkpt>
      <trkpt lat="44.36496" lon="3.74126">
        <ele>911</ele>
        <time>2022-10-29T11:08:47Z</time>
      </trkpt>
      <trkpt lat="44.36498" lon="3.74123">
        <ele>911.2</ele>
        <time>2022-10-29T11:08:48Z</time>
      </trkpt>
      <trkpt lat="44.365" lon="3.7412">
        <ele>911.4</ele>
        <time>2022-10-29T11:08:49Z</time>
      </trkpt>
      <trkpt lat="44.36502" lon="3.74117">
        <ele>911.6</ele>
        <time>2022-10-29T11:08:50Z</time>
      </trkpt>
      <trkpt lat="44.36504" lon="3.74114">
        <ele>911.6</ele>
        <time>2022-10-29T11:08:51Z</time>
      </trkpt>
      <trkpt lat="44.36506" lon="3.74112">
        <ele>911.8</ele>
        <time>2022-10-29T11:08:52Z</time>
      </trkpt>
      <trkpt lat="44.36508" lon="3.74109">
        <ele>912</ele>
        <time>2022-10-29T11:08:53Z</time>
      </trkpt>
      <trkpt lat="44.3651" lon="3.74107">
        <ele>912.2</ele>
        <time>2022-10-29T11:08:54Z</time>
      </trkpt>
      <trkpt lat="44.36512" lon="3.74104">
        <ele>912.2</ele>
        <time>2022-10-29T11:08:55Z</time>
      </trkpt>
      <trkpt lat="44.36515" lon="3.74102">
        <ele>912.4</ele>
        <time>2022-10-29T11:08:56Z</time>
      </trkpt>
      <trkpt lat="44.36516" lon="3.74099">
        <ele>912.6</ele>
        <time>2022-10-29T11:08:57Z</time>
      </trkpt>
      <trkpt lat="44.36519" lon="3.74097">
        <ele>912.8</ele>
        <time>2022-10-29T11:08:58Z</time>
      </trkpt>
      <trkpt lat="44.36521" lon="3.74094">
        <ele>913</ele>
        <time>2022-10-29T11:08:59Z</time>
      </trkpt>
      <trkpt lat="44.36523" lon="3.74092">
        <ele>913</ele>
        <time>2022-10-29T11:09:00Z</time>
      </trkpt>
      <trkpt lat="44.36525" lon="3.74089">
        <ele>913.2</ele>
        <time>2022-10-29T11:09:01Z</time>
      </trkpt>
      <trkpt lat="44.36528" lon="3.74087">
        <ele>913.4</ele>
        <time>2022-10-29T11:09:02Z</time>
      </trkpt>
      <trkpt lat="44.3653" lon="3.74085">
        <ele>913.6</ele>
        <time>2022-10-29T11:09:03Z</time>
      </trkpt>
      <trkpt lat="44.36532" lon="3.74082">
        <ele>913.8</ele>
        <time>2022-10-29T11:09:04Z</time>
      </trkpt>
      <trkpt lat="44.36534" lon="3.7408">
        <ele>914</ele>
        <time>2022-10-29T11:09:05Z</time>
      </trkpt>
      <trkpt lat="44.36536" lon="3.74077">
        <ele>914.2</ele>
        <time>2022-10-29T11:09:06Z</time>
      </trkpt>
      <trkpt lat="44.36538" lon="3.74075">
        <ele>914.4</ele>
        <time>2022-10-29T11:09:07Z</time>
      </trkpt>
      <trkpt lat="44.3654" lon="3.74072">
        <ele>914.6</ele>
        <time>2022-10-29T11:09:08Z</time>
      </trkpt>
      <trkpt lat="44.36542" lon="3.7407">
        <ele>914.8</ele>
        <time>2022-10-29T11:09:09Z</time>
      </trkpt>
      <trkpt lat="44.36544" lon="3.74067">
        <ele>914.8</ele>
        <time>2022-10-29T11:09:10Z</time>
      </trkpt>
      <trkpt lat="44.36546" lon="3.74064">
        <ele>915</ele>
        <time>2022-10-29T11:09:11Z</time>
      </trkpt>
      <trkpt lat="44.36548" lon="3.74061">
        <ele>915.2</ele>
        <time>2022-10-29T11:09:12Z</time>
      </trkpt>
      <trkpt lat="44.3655" lon="3.74059">
        <ele>915.4</ele>
        <time>2022-10-29T11:09:13Z</time>
      </trkpt>
      <trkpt lat="44.36552" lon="3.74056">
        <ele>915.6</ele>
        <time>2022-10-29T11:09:14Z</time>
      </trkpt>
      <trkpt lat="44.36554" lon="3.74053">
        <ele>915.6</ele>
        <time>2022-10-29T11:09:15Z</time>
      </trkpt>
      <trkpt lat="44.36556" lon="3.74051">
        <ele>915.8</ele>
        <time>2022-10-29T11:09:16Z</time>
      </trkpt>
      <trkpt lat="44.36557" lon="3.74048">
        <ele>916</ele>
        <time>2022-10-29T11:09:17Z</time>
      </trkpt>
      <trkpt lat="44.36559" lon="3.74045">
        <ele>916.2</ele>
        <time>2022-10-29T11:09:18Z</time>
      </trkpt>
      <trkpt lat="44.36561" lon="3.74042">
        <ele>916.2</ele>
        <time>2022-10-29T11:09:19Z</time>
      </trkpt>
      <trkpt lat="44.36563" lon="3.7404">
        <ele>916.4</ele>
        <time>2022-10-29T11:09:20Z</time>
      </trkpt>
      <trkpt lat="44.36565" lon="3.74037">
        <ele>916.6</ele>
        <time>2022-10-29T11:09:21Z</time>
      </trkpt>
      <trkpt lat="44.36567" lon="3.74034">
        <ele>916.8</ele>
        <time>2022-10-29T11:09:22Z</time>
      </trkpt>
      <trkpt lat="44.36569" lon="3.74032">
        <ele>916.8</ele>
        <time>2022-10-29T11:09:23Z</time>
      </trkpt>
      <trkpt lat="44.36571" lon="3.74029">
        <ele>917</ele>
        <time>2022-10-29T11:09:24Z</time>
      </trkpt>
      <trkpt lat="44.36573" lon="3.74026">
        <ele>917.2</ele>
        <time>2022-10-29T11:09:25Z</time>
      </trkpt>
      <trkpt lat="44.36575" lon="3.74023">
        <ele>917.2</ele>
        <time>2022-10-29T11:09:26Z</time>
      </trkpt>
      <trkpt lat="44.36576" lon="3.7402">
        <ele>917.4</ele>
        <time>2022-10-29T11:09:27Z</time>
      </trkpt>
      <trkpt lat="44.36578" lon="3.74017">
        <ele>917.6</ele>
        <time>2022-10-29T11:09:28Z</time>
      </trkpt>
      <trkpt lat="44.3658" lon="3.74015">
        <ele>917.6</ele>
        <time>2022-10-29T11:09:29Z</time>
      </trkpt>
      <trkpt lat="44.36582" lon="3.74012">
        <ele>917.8</ele>
        <time>2022-10-29T11:09:30Z</time>
      </trkpt>
      <trkpt lat="44.36584" lon="3.74008">
        <ele>918</ele>
        <time>2022-10-29T11:09:31Z</time>
      </trkpt>
      <trkpt lat="44.36585" lon="3.74005">
        <ele>918.2</ele>
        <time>2022-10-29T11:09:32Z</time>
      </trkpt>
      <trkpt lat="44.36587" lon="3.74002">
        <ele>918.4</ele>
        <time>2022-10-29T11:09:33Z</time>
      </trkpt>
      <trkpt lat="44.36589" lon="3.73999">
        <ele>918.6</ele>
        <time>2022-10-29T11:09:34Z</time>
      </trkpt>
      <trkpt lat="44.36591" lon="3.73996">
        <ele>918.6</ele>
        <time>2022-10-29T11:09:35Z</time>
      </trkpt>
      <trkpt lat="44.36593" lon="3.73993">
        <ele>918.8</ele>
        <time>2022-10-29T11:09:36Z</time>
      </trkpt>
      <trkpt lat="44.36594" lon="3.7399">
        <ele>919</ele>
        <time>2022-10-29T11:09:37Z</time>
      </trkpt>
      <trkpt lat="44.36597" lon="3.73987">
        <ele>919.2</ele>
        <time>2022-10-29T11:09:38Z</time>
      </trkpt>
      <trkpt lat="44.36598" lon="3.73984">
        <ele>919.2</ele>
        <time>2022-10-29T11:09:39Z</time>
      </trkpt>
      <trkpt lat="44.366" lon="3.73981">
        <ele>919.4</ele>
        <time>2022-10-29T11:09:40Z</time>
      </trkpt>
      <trkpt lat="44.36602" lon="3.73978">
        <ele>919.6</ele>
        <time>2022-10-29T11:09:41Z</time>
      </trkpt>
      <trkpt lat="44.36604" lon="3.73974">
        <ele>919.6</ele>
        <time>2022-10-29T11:09:42Z</time>
      </trkpt>
      <trkpt lat="44.36605" lon="3.73971">
        <ele>919.8</ele>
        <time>2022-10-29T11:09:43Z</time>
      </trkpt>
      <trkpt lat="44.36607" lon="3.73968">
        <ele>920</ele>
        <time>2022-10-29T11:09:44Z</time>
      </trkpt>
      <trkpt lat="44.36609" lon="3.73965">
        <ele>920.2</ele>
        <time>2022-10-29T11:09:45Z</time>
      </trkpt>
      <trkpt lat="44.3661" lon="3.73961">
        <ele>920.4</ele>
        <time>2022-10-29T11:09:46Z</time>
      </trkpt>
      <trkpt lat="44.36612" lon="3.73958">
        <ele>920.4</ele>
        <time>2022-10-29T11:09:47Z</time>
      </trkpt>
      <trkpt lat="44.36614" lon="3.73955">
        <ele>920.6</ele>
        <time>2022-10-29T11:09:48Z</time>
      </trkpt>
      <trkpt lat="44.36615" lon="3.73952">
        <ele>920.8</ele>
        <time>2022-10-29T11:09:49Z</time>
      </trkpt>
      <trkpt lat="44.36617" lon="3.73949">
        <ele>921</ele>
        <time>2022-10-29T11:09:50Z</time>
      </trkpt>
      <trkpt lat="44.36618" lon="3.73946">
        <ele>921</ele>
        <time>2022-10-29T11:09:51Z</time>
      </trkpt>
      <trkpt lat="44.3662" lon="3.73942">
        <ele>921.2</ele>
        <time>2022-10-29T11:09:52Z</time>
      </trkpt>
      <trkpt lat="44.36621" lon="3.73939">
        <ele>921.4</ele>
        <time>2022-10-29T11:09:53Z</time>
      </trkpt>
      <trkpt lat="44.36623" lon="3.73936">
        <ele>921.6</ele>
        <time>2022-10-29T11:09:54Z</time>
      </trkpt>
      <trkpt lat="44.36624" lon="3.73933">
        <ele>921.8</ele>
        <time>2022-10-29T11:09:55Z</time>
      </trkpt>
      <trkpt lat="44.36625" lon="3.73929">
        <ele>922</ele>
        <time>2022-10-29T11:09:56Z</time>
      </trkpt>
      <trkpt lat="44.36627" lon="3.73926">
        <ele>922.2</ele>
        <time>2022-10-29T11:09:57Z</time>
      </trkpt>
      <trkpt lat="44.36628" lon="3.73923">
        <ele>922.4</ele>
        <time>2022-10-29T11:09:58Z</time>
      </trkpt>
      <trkpt lat="44.36629" lon="3.73919">
        <ele>922.6</ele>
        <time>2022-10-29T11:09:59Z</time>
      </trkpt>
      <trkpt lat="44.3663" lon="3.73915">
        <ele>922.6</ele>
        <time>2022-10-29T11:10:00Z</time>
      </trkpt>
      <trkpt lat="44.36631" lon="3.73912">
        <ele>922.8</ele>
        <time>2022-10-29T11:10:01Z</time>
      </trkpt>
      <trkpt lat="44.36632" lon="3.73909">
        <ele>923</ele>
        <time>2022-10-29T11:10:02Z</time>
      </trkpt>
      <trkpt lat="44.36634" lon="3.73905">
        <ele>923.2</ele>
        <time>2022-10-29T11:10:03Z</time>
      </trkpt>
      <trkpt lat="44.36635" lon="3.73901">
        <ele>923.4</ele>
        <time>2022-10-29T11:10:04Z</time>
      </trkpt>
      <trkpt lat="44.36635" lon="3.73898">
        <ele>923.4</ele>
        <time>2022-10-29T11:10:05Z</time>
      </trkpt>
      <trkpt lat="44.36636" lon="3.73894">
        <ele>923.6</ele>
        <time>2022-10-29T11:10:06Z</time>
      </trkpt>
      <trkpt lat="44.36637" lon="3.7389">
        <ele>923.8</ele>
        <time>2022-10-29T11:10:07Z</time>
      </trkpt>
      <trkpt lat="44.36637" lon="3.73886">
        <ele>924</ele>
        <time>2022-10-29T11:10:08Z</time>
      </trkpt>
      <trkpt lat="44.36638" lon="3.73882">
        <ele>924.2</ele>
        <time>2022-10-29T11:10:09Z</time>
      </trkpt>
      <trkpt lat="44.36639" lon="3.73878">
        <ele>924.4</ele>
        <time>2022-10-29T11:10:10Z</time>
      </trkpt>
      <trkpt lat="44.3664" lon="3.73874">
        <ele>924.6</ele>
        <time>2022-10-29T11:10:11Z</time>
      </trkpt>
      <trkpt lat="44.36641" lon="3.7387">
        <ele>924.6</ele>
        <time>2022-10-29T11:10:12Z</time>
      </trkpt>
      <trkpt lat="44.36642" lon="3.73867">
        <ele>924.8</ele>
        <time>2022-10-29T11:10:13Z</time>
      </trkpt>
      <trkpt lat="44.36643" lon="3.73863">
        <ele>925</ele>
        <time>2022-10-29T11:10:14Z</time>
      </trkpt>
      <trkpt lat="44.36644" lon="3.73859">
        <ele>925.2</ele>
        <time>2022-10-29T11:10:15Z</time>
      </trkpt>
      <trkpt lat="44.36646" lon="3.73855">
        <ele>925.4</ele>
        <time>2022-10-29T11:10:16Z</time>
      </trkpt>
      <trkpt lat="44.36647" lon="3.73852">
        <ele>925.4</ele>
        <time>2022-10-29T11:10:17Z</time>
      </trkpt>
      <trkpt lat="44.36649" lon="3.73848">
        <ele>925.6</ele>
        <time>2022-10-29T11:10:18Z</time>
      </trkpt>
      <trkpt lat="44.3665" lon="3.73845">
        <ele>925.8</ele>
        <time>2022-10-29T11:10:19Z</time>
      </trkpt>
      <trkpt lat="44.36652" lon="3.73842">
        <ele>925.8</ele>
        <time>2022-10-29T11:10:20Z</time>
      </trkpt>
      <trkpt lat="44.36654" lon="3.73839">
        <ele>926</ele>
        <time>2022-10-29T11:10:21Z</time>
      </trkpt>
      <trkpt lat="44.36655" lon="3.73835">
        <ele>926.2</ele>
        <time>2022-10-29T11:10:22Z</time>
      </trkpt>
      <trkpt lat="44.36657" lon="3.73832">
        <ele>926.2</ele>
        <time>2022-10-29T11:10:23Z</time>
      </trkpt>
      <trkpt lat="44.36659" lon="3.73829">
        <ele>926.4</ele>
        <time>2022-10-29T11:10:24Z</time>
      </trkpt>
      <trkpt lat="44.36661" lon="3.73826">
        <ele>926.4</ele>
        <time>2022-10-29T11:10:25Z</time>
      </trkpt>
      <trkpt lat="44.36663" lon="3.73823">
        <ele>926.6</ele>
        <time>2022-10-29T11:10:26Z</time>
      </trkpt>
      <trkpt lat="44.36664" lon="3.73819">
        <ele>926.8</ele>
        <time>2022-10-29T11:10:27Z</time>
      </trkpt>
      <trkpt lat="44.36667" lon="3.73816">
        <ele>927</ele>
        <time>2022-10-29T11:10:28Z</time>
      </trkpt>
      <trkpt lat="44.36669" lon="3.73814">
        <ele>927</ele>
        <time>2022-10-29T11:10:29Z</time>
      </trkpt>
      <trkpt lat="44.36671" lon="3.73811">
        <ele>927.2</ele>
        <time>2022-10-29T11:10:30Z</time>
      </trkpt>
      <trkpt lat="44.36674" lon="3.73808">
        <ele>927.4</ele>
        <time>2022-10-29T11:10:31Z</time>
      </trkpt>
      <trkpt lat="44.36676" lon="3.73805">
        <ele>927.4</ele>
        <time>2022-10-29T11:10:32Z</time>
      </trkpt>
      <trkpt lat="44.36678" lon="3.73803">
        <ele>927.6</ele>
        <time>2022-10-29T11:10:33Z</time>
      </trkpt>
      <trkpt lat="44.36681" lon="3.738">
        <ele>927.8</ele>
        <time>2022-10-29T11:10:34Z</time>
      </trkpt>
      <trkpt lat="44.36683" lon="3.73798">
        <ele>927.8</ele>
        <time>2022-10-29T11:10:35Z</time>
      </trkpt>
      <trkpt lat="44.36685" lon="3.73795">
        <ele>928</ele>
        <time>2022-10-29T11:10:36Z</time>
      </trkpt>
      <trkpt lat="44.36687" lon="3.73792">
        <ele>928.2</ele>
        <time>2022-10-29T11:10:37Z</time>
      </trkpt>
      <trkpt lat="44.36689" lon="3.73789">
        <ele>928.2</ele>
        <time>2022-10-29T11:10:38Z</time>
      </trkpt>
      <trkpt lat="44.36691" lon="3.73786">
        <ele>928.4</ele>
        <time>2022-10-29T11:10:39Z</time>
      </trkpt>
      <trkpt lat="44.36692" lon="3.73782">
        <ele>928.6</ele>
        <time>2022-10-29T11:10:40Z</time>
      </trkpt>
      <trkpt lat="44.36692" lon="3.73777">
        <ele>928.6</ele>
        <time>2022-10-29T11:10:41Z</time>
      </trkpt>
      <trkpt lat="44.36692" lon="3.73773">
        <ele>928.8</ele>
        <time>2022-10-29T11:10:42Z</time>
      </trkpt>
      <trkpt lat="44.36691" lon="3.73768">
        <ele>929</ele>
        <time>2022-10-29T11:10:43Z</time>
      </trkpt>
      <trkpt lat="44.3669" lon="3.73763">
        <ele>929</ele>
        <time>2022-10-29T11:10:44Z</time>
      </trkpt>
      <trkpt lat="44.3669" lon="3.73759">
        <ele>929.2</ele>
        <time>2022-10-29T11:10:45Z</time>
      </trkpt>
      <trkpt lat="44.36688" lon="3.73755">
        <ele>929.4</ele>
        <time>2022-10-29T11:10:46Z</time>
      </trkpt>
      <trkpt lat="44.36687" lon="3.73751">
        <ele>929.4</ele>
        <time>2022-10-29T11:10:47Z</time>
      </trkpt>
      <trkpt lat="44.36685" lon="3.73747">
        <ele>929.6</ele>
        <time>2022-10-29T11:10:48Z</time>
      </trkpt>
      <trkpt lat="44.36684" lon="3.73743">
        <ele>929.6</ele>
        <time>2022-10-29T11:10:49Z</time>
      </trkpt>
      <trkpt lat="44.36682" lon="3.7374">
        <ele>929.8</ele>
        <time>2022-10-29T11:10:50Z</time>
      </trkpt>
      <trkpt lat="44.36681" lon="3.73736">
        <ele>929.8</ele>
        <time>2022-10-29T11:10:51Z</time>
      </trkpt>
      <trkpt lat="44.3668" lon="3.73732">
        <ele>930</ele>
        <time>2022-10-29T11:10:52Z</time>
      </trkpt>
      <trkpt lat="44.36678" lon="3.73728">
        <ele>930</ele>
        <time>2022-10-29T11:10:53Z</time>
      </trkpt>
      <trkpt lat="44.36677" lon="3.73725">
        <ele>930.2</ele>
        <time>2022-10-29T11:10:54Z</time>
      </trkpt>
      <trkpt lat="44.36675" lon="3.7372">
        <ele>930.2</ele>
        <time>2022-10-29T11:10:55Z</time>
      </trkpt>
      <trkpt lat="44.36674" lon="3.73716">
        <ele>930.4</ele>
        <time>2022-10-29T11:10:56Z</time>
      </trkpt>
      <trkpt lat="44.36673" lon="3.73712">
        <ele>930.4</ele>
        <time>2022-10-29T11:10:57Z</time>
      </trkpt>
      <trkpt lat="44.36672" lon="3.73708">
        <ele>930.6</ele>
        <time>2022-10-29T11:10:58Z</time>
      </trkpt>
      <trkpt lat="44.36671" lon="3.73704">
        <ele>930.6</ele>
        <time>2022-10-29T11:10:59Z</time>
      </trkpt>
      <trkpt lat="44.36671" lon="3.737">
        <ele>930.8</ele>
        <time>2022-10-29T11:11:00Z</time>
      </trkpt>
      <trkpt lat="44.36671" lon="3.73695">
        <ele>930.8</ele>
        <time>2022-10-29T11:11:01Z</time>
      </trkpt>
      <trkpt lat="44.36671" lon="3.73691">
        <ele>931</ele>
        <time>2022-10-29T11:11:02Z</time>
      </trkpt>
      <trkpt lat="44.36671" lon="3.73687">
        <ele>931</ele>
        <time>2022-10-29T11:11:03Z</time>
      </trkpt>
      <trkpt lat="44.36671" lon="3.73682">
        <ele>931.2</ele>
        <time>2022-10-29T11:11:04Z</time>
      </trkpt>
      <trkpt lat="44.36671" lon="3.73678">
        <ele>931.2</ele>
        <time>2022-10-29T11:11:05Z</time>
      </trkpt>
      <trkpt lat="44.36671" lon="3.73674">
        <ele>931.4</ele>
        <time>2022-10-29T11:11:06Z</time>
      </trkpt>
      <trkpt lat="44.36671" lon="3.73669">
        <ele>931.6</ele>
        <time>2022-10-29T11:11:07Z</time>
      </trkpt>
      <trkpt lat="44.36672" lon="3.73664">
        <ele>931.6</ele>
        <time>2022-10-29T11:11:08Z</time>
      </trkpt>
      <trkpt lat="44.36672" lon="3.7366">
        <ele>931.6</ele>
        <time>2022-10-29T11:11:09Z</time>
      </trkpt>
      <trkpt lat="44.36673" lon="3.73656">
        <ele>931.8</ele>
        <time>2022-10-29T11:11:10Z</time>
      </trkpt>
      <trkpt lat="44.36674" lon="3.73652">
        <ele>932</ele>
        <time>2022-10-29T11:11:11Z</time>
      </trkpt>
      <trkpt lat="44.36675" lon="3.73648">
        <ele>932.2</ele>
        <time>2022-10-29T11:11:12Z</time>
      </trkpt>
      <trkpt lat="44.36675" lon="3.73644">
        <ele>932.2</ele>
        <time>2022-10-29T11:11:13Z</time>
      </trkpt>
      <trkpt lat="44.36676" lon="3.7364">
        <ele>932.4</ele>
        <time>2022-10-29T11:11:14Z</time>
      </trkpt>
      <trkpt lat="44.36677" lon="3.73636">
        <ele>932.6</ele>
        <time>2022-10-29T11:11:15Z</time>
      </trkpt>
      <trkpt lat="44.36678" lon="3.73632">
        <ele>932.6</ele>
        <time>2022-10-29T11:11:16Z</time>
      </trkpt>
      <trkpt lat="44.3668" lon="3.73628">
        <ele>932.8</ele>
        <time>2022-10-29T11:11:17Z</time>
      </trkpt>
      <trkpt lat="44.36681" lon="3.73625">
        <ele>933</ele>
        <time>2022-10-29T11:11:18Z</time>
      </trkpt>
      <trkpt lat="44.36682" lon="3.73621">
        <ele>933.2</ele>
        <time>2022-10-29T11:11:19Z</time>
      </trkpt>
      <trkpt lat="44.36684" lon="3.73617">
        <ele>933.4</ele>
        <time>2022-10-29T11:11:20Z</time>
      </trkpt>
      <trkpt lat="44.36685" lon="3.73613">
        <ele>933.6</ele>
        <time>2022-10-29T11:11:21Z</time>
      </trkpt>
      <trkpt lat="44.36687" lon="3.73609">
        <ele>933.6</ele>
        <time>2022-10-29T11:11:22Z</time>
      </trkpt>
      <trkpt lat="44.36688" lon="3.73606">
        <ele>933.8</ele>
        <time>2022-10-29T11:11:23Z</time>
      </trkpt>
      <trkpt lat="44.36689" lon="3.73602">
        <ele>934</ele>
        <time>2022-10-29T11:11:24Z</time>
      </trkpt>
      <trkpt lat="44.36691" lon="3.73598">
        <ele>934</ele>
        <time>2022-10-29T11:11:25Z</time>
      </trkpt>
      <trkpt lat="44.36692" lon="3.73594">
        <ele>934.2</ele>
        <time>2022-10-29T11:11:26Z</time>
      </trkpt>
      <trkpt lat="44.36694" lon="3.7359">
        <ele>934.2</ele>
        <time>2022-10-29T11:11:27Z</time>
      </trkpt>
      <trkpt lat="44.36695" lon="3.73587">
        <ele>934.4</ele>
        <time>2022-10-29T11:11:28Z</time>
      </trkpt>
      <trkpt lat="44.36697" lon="3.73583">
        <ele>934.6</ele>
        <time>2022-10-29T11:11:29Z</time>
      </trkpt>
      <trkpt lat="44.36698" lon="3.7358">
        <ele>934.6</ele>
        <time>2022-10-29T11:11:30Z</time>
      </trkpt>
      <trkpt lat="44.367" lon="3.73576">
        <ele>934.8</ele>
        <time>2022-10-29T11:11:31Z</time>
      </trkpt>
      <trkpt lat="44.36702" lon="3.73572">
        <ele>935</ele>
        <time>2022-10-29T11:11:32Z</time>
      </trkpt>
      <trkpt lat="44.36703" lon="3.73568">
        <ele>935.2</ele>
        <time>2022-10-29T11:11:33Z</time>
      </trkpt>
      <trkpt lat="44.36704" lon="3.73564">
        <ele>935.4</ele>
        <time>2022-10-29T11:11:34Z</time>
      </trkpt>
      <trkpt lat="44.36706" lon="3.7356">
        <ele>935.6</ele>
        <time>2022-10-29T11:11:35Z</time>
      </trkpt>
      <trkpt lat="44.36707" lon="3.73557">
        <ele>935.6</ele>
        <time>2022-10-29T11:11:36Z</time>
      </trkpt>
      <trkpt lat="44.36708" lon="3.73552">
        <ele>935.8</ele>
        <time>2022-10-29T11:11:37Z</time>
      </trkpt>
      <trkpt lat="44.36709" lon="3.73548">
        <ele>935.8</ele>
        <time>2022-10-29T11:11:38Z</time>
      </trkpt>
      <trkpt lat="44.3671" lon="3.73545">
        <ele>936</ele>
        <time>2022-10-29T11:11:39Z</time>
      </trkpt>
      <trkpt lat="44.36711" lon="3.73541">
        <ele>936.2</ele>
        <time>2022-10-29T11:11:40Z</time>
      </trkpt>
      <trkpt lat="44.36712" lon="3.73537">
        <ele>936.2</ele>
        <time>2022-10-29T11:11:41Z</time>
      </trkpt>
      <trkpt lat="44.36713" lon="3.73533">
        <ele>936.4</ele>
        <time>2022-10-29T11:11:42Z</time>
      </trkpt>
      <trkpt lat="44.36714" lon="3.73529">
        <ele>936.4</ele>
        <time>2022-10-29T11:11:43Z</time>
      </trkpt>
      <trkpt lat="44.36716" lon="3.73525">
        <ele>936.6</ele>
        <time>2022-10-29T11:11:44Z</time>
      </trkpt>
      <trkpt lat="44.36717" lon="3.73521">
        <ele>936.8</ele>
        <time>2022-10-29T11:11:45Z</time>
      </trkpt>
      <trkpt lat="44.36718" lon="3.73517">
        <ele>937</ele>
        <time>2022-10-29T11:11:46Z</time>
      </trkpt>
      <trkpt lat="44.36719" lon="3.73513">
        <ele>937.2</ele>
        <time>2022-10-29T11:11:47Z</time>
      </trkpt>
      <trkpt lat="44.3672" lon="3.7351">
        <ele>937.4</ele>
        <time>2022-10-29T11:11:48Z</time>
      </trkpt>
      <trkpt lat="44.36721" lon="3.73506">
        <ele>937.6</ele>
        <time>2022-10-29T11:11:49Z</time>
      </trkpt>
      <trkpt lat="44.36722" lon="3.73502">
        <ele>937.8</ele>
        <time>2022-10-29T11:11:50Z</time>
      </trkpt>
      <trkpt lat="44.36724" lon="3.73499">
        <ele>938</ele>
        <time>2022-10-29T11:11:51Z</time>
      </trkpt>
      <trkpt lat="44.36725" lon="3.73495">
        <ele>938</ele>
        <time>2022-10-29T11:11:52Z</time>
      </trkpt>
      <trkpt lat="44.36726" lon="3.73491">
        <ele>938.2</ele>
        <time>2022-10-29T11:11:53Z</time>
      </trkpt>
      <trkpt lat="44.36728" lon="3.73488">
        <ele>938.2</ele>
        <time>2022-10-29T11:11:54Z</time>
      </trkpt>
      <trkpt lat="44.36729" lon="3.73484">
        <ele>938.4</ele>
        <time>2022-10-29T11:11:55Z</time>
      </trkpt>
      <trkpt lat="44.36731" lon="3.7348">
        <ele>938.4</ele>
        <time>2022-10-29T11:11:56Z</time>
      </trkpt>
      <trkpt lat="44.36732" lon="3.73476">
        <ele>938.4</ele>
        <time>2022-10-29T11:11:57Z</time>
      </trkpt>
      <trkpt lat="44.36733" lon="3.73472">
        <ele>938.6</ele>
        <time>2022-10-29T11:11:58Z</time>
      </trkpt>
      <trkpt lat="44.36733" lon="3.73468">
        <ele>938.6</ele>
        <time>2022-10-29T11:11:59Z</time>
      </trkpt>
      <trkpt lat="44.36734" lon="3.73463">
        <ele>938.8</ele>
        <time>2022-10-29T11:12:00Z</time>
      </trkpt>
      <trkpt lat="44.36734" lon="3.73458">
        <ele>939</ele>
        <time>2022-10-29T11:12:01Z</time>
      </trkpt>
      <trkpt lat="44.36734" lon="3.73454">
        <ele>939</ele>
        <time>2022-10-29T11:12:02Z</time>
      </trkpt>
      <trkpt lat="44.36733" lon="3.73449">
        <ele>939.2</ele>
        <time>2022-10-29T11:12:03Z</time>
      </trkpt>
      <trkpt lat="44.36732" lon="3.73444">
        <ele>939.2</ele>
        <time>2022-10-29T11:12:04Z</time>
      </trkpt>
      <trkpt lat="44.36731" lon="3.73439">
        <ele>939.2</ele>
        <time>2022-10-29T11:12:05Z</time>
      </trkpt>
      <trkpt lat="44.3673" lon="3.73435">
        <ele>939.2</ele>
        <time>2022-10-29T11:12:06Z</time>
      </trkpt>
      <trkpt lat="44.36729" lon="3.7343">
        <ele>939.4</ele>
        <time>2022-10-29T11:12:07Z</time>
      </trkpt>
      <trkpt lat="44.36728" lon="3.73426">
        <ele>939.4</ele>
        <time>2022-10-29T11:12:08Z</time>
      </trkpt>
      <trkpt lat="44.36726" lon="3.73422">
        <ele>939.4</ele>
        <time>2022-10-29T11:12:09Z</time>
      </trkpt>
      <trkpt lat="44.36725" lon="3.73417">
        <ele>939.4</ele>
        <time>2022-10-29T11:12:10Z</time>
      </trkpt>
      <trkpt lat="44.36723" lon="3.73413">
        <ele>939.6</ele>
        <time>2022-10-29T11:12:11Z</time>
      </trkpt>
      <trkpt lat="44.36722" lon="3.73408">
        <ele>939.6</ele>
        <time>2022-10-29T11:12:12Z</time>
      </trkpt>
      <trkpt lat="44.3672" lon="3.73404">
        <ele>939.6</ele>
        <time>2022-10-29T11:12:13Z</time>
      </trkpt>
      <trkpt lat="44.36718" lon="3.734">
        <ele>939.8</ele>
        <time>2022-10-29T11:12:14Z</time>
      </trkpt>
      <trkpt lat="44.36716" lon="3.73395">
        <ele>939.8</ele>
        <time>2022-10-29T11:12:15Z</time>
      </trkpt>
      <trkpt lat="44.36714" lon="3.73391">
        <ele>940</ele>
        <time>2022-10-29T11:12:16Z</time>
      </trkpt>
      <trkpt lat="44.36711" lon="3.73388">
        <ele>940</ele>
        <time>2022-10-29T11:12:17Z</time>
      </trkpt>
      <trkpt lat="44.36709" lon="3.73384">
        <ele>940.2</ele>
        <time>2022-10-29T11:12:18Z</time>
      </trkpt>
      <trkpt lat="44.36706" lon="3.73382">
        <ele>940.2</ele>
        <time>2022-10-29T11:12:19Z</time>
      </trkpt>
      <trkpt lat="44.36702" lon="3.7338">
        <ele>940.4</ele>
        <time>2022-10-29T11:12:20Z</time>
      </trkpt>
      <trkpt lat="44.36698" lon="3.73379">
        <ele>940.4</ele>
        <time>2022-10-29T11:12:21Z</time>
      </trkpt>
      <trkpt lat="44.36694" lon="3.73378">
        <ele>940.4</ele>
        <time>2022-10-29T11:12:22Z</time>
      </trkpt>
      <trkpt lat="44.36691" lon="3.73378">
        <ele>940.4</ele>
        <time>2022-10-29T11:12:23Z</time>
      </trkpt>
      <trkpt lat="44.36687" lon="3.73378">
        <ele>940.4</ele>
        <time>2022-10-29T11:12:24Z</time>
      </trkpt>
      <trkpt lat="44.36683" lon="3.73378">
        <ele>940.4</ele>
        <time>2022-10-29T11:12:25Z</time>
      </trkpt>
      <trkpt lat="44.36679" lon="3.7338">
        <ele>940.6</ele>
        <time>2022-10-29T11:12:26Z</time>
      </trkpt>
      <trkpt lat="44.36675" lon="3.73381">
        <ele>940.6</ele>
        <time>2022-10-29T11:12:27Z</time>
      </trkpt>
      <trkpt lat="44.36671" lon="3.73383">
        <ele>940.6</ele>
        <time>2022-10-29T11:12:28Z</time>
      </trkpt>
      <trkpt lat="44.36667" lon="3.73385">
        <ele>940.6</ele>
        <time>2022-10-29T11:12:29Z</time>
      </trkpt>
      <trkpt lat="44.36663" lon="3.73388">
        <ele>940.6</ele>
        <time>2022-10-29T11:12:30Z</time>
      </trkpt>
      <trkpt lat="44.3666" lon="3.73391">
        <ele>940.6</ele>
        <time>2022-10-29T11:12:31Z</time>
      </trkpt>
      <trkpt lat="44.36656" lon="3.73393">
        <ele>940.8</ele>
        <time>2022-10-29T11:12:32Z</time>
      </trkpt>
      <trkpt lat="44.36652" lon="3.73396">
        <ele>940.8</ele>
        <time>2022-10-29T11:12:33Z</time>
      </trkpt>
      <trkpt lat="44.36649" lon="3.73398">
        <ele>940.8</ele>
        <time>2022-10-29T11:12:34Z</time>
      </trkpt>
      <trkpt lat="44.36645" lon="3.73401">
        <ele>940.6</ele>
        <time>2022-10-29T11:12:35Z</time>
      </trkpt>
      <trkpt lat="44.3664" lon="3.73403">
        <ele>940.6</ele>
        <time>2022-10-29T11:12:36Z</time>
      </trkpt>
      <trkpt lat="44.36636" lon="3.73406">
        <ele>940.6</ele>
        <time>2022-10-29T11:12:37Z</time>
      </trkpt>
      <trkpt lat="44.36631" lon="3.73409">
        <ele>940.6</ele>
        <time>2022-10-29T11:12:38Z</time>
      </trkpt>
      <trkpt lat="44.36627" lon="3.73411">
        <ele>940.8</ele>
        <time>2022-10-29T11:12:39Z</time>
      </trkpt>
      <trkpt lat="44.36623" lon="3.73413">
        <ele>940.8</ele>
        <time>2022-10-29T11:12:40Z</time>
      </trkpt>
      <trkpt lat="44.36619" lon="3.73414">
        <ele>940.8</ele>
        <time>2022-10-29T11:12:41Z</time>
      </trkpt>
      <trkpt lat="44.36614" lon="3.73416">
        <ele>940.8</ele>
        <time>2022-10-29T11:12:42Z</time>
      </trkpt>
      <trkpt lat="44.36609" lon="3.73418">
        <ele>940.8</ele>
        <time>2022-10-29T11:12:43Z</time>
      </trkpt>
      <trkpt lat="44.36605" lon="3.73419">
        <ele>940.6</ele>
        <time>2022-10-29T11:12:44Z</time>
      </trkpt>
      <trkpt lat="44.366" lon="3.7342">
        <ele>940.6</ele>
        <time>2022-10-29T11:12:45Z</time>
      </trkpt>
      <trkpt lat="44.36595" lon="3.73421">
        <ele>940.6</ele>
        <time>2022-10-29T11:12:46Z</time>
      </trkpt>
      <trkpt lat="44.3659" lon="3.73422">
        <ele>940.6</ele>
        <time>2022-10-29T11:12:47Z</time>
      </trkpt>
      <trkpt lat="44.36586" lon="3.73423">
        <ele>940.6</ele>
        <time>2022-10-29T11:12:48Z</time>
      </trkpt>
      <trkpt lat="44.36581" lon="3.73423">
        <ele>940.6</ele>
        <time>2022-10-29T11:12:49Z</time>
      </trkpt>
      <trkpt lat="44.36576" lon="3.73423">
        <ele>940.6</ele>
        <time>2022-10-29T11:12:50Z</time>
      </trkpt>
      <trkpt lat="44.36572" lon="3.73423">
        <ele>940.6</ele>
        <time>2022-10-29T11:12:51Z</time>
      </trkpt>
      <trkpt lat="44.36567" lon="3.73422">
        <ele>940.4</ele>
        <time>2022-10-29T11:12:52Z</time>
      </trkpt>
      <trkpt lat="44.36562" lon="3.73422">
        <ele>940.4</ele>
        <time>2022-10-29T11:12:53Z</time>
      </trkpt>
      <trkpt lat="44.36557" lon="3.73421">
        <ele>940.4</ele>
        <time>2022-10-29T11:12:54Z</time>
      </trkpt>
      <trkpt lat="44.36552" lon="3.73421">
        <ele>940.4</ele>
        <time>2022-10-29T11:12:55Z</time>
      </trkpt>
      <trkpt lat="44.36547" lon="3.73419">
        <ele>940.4</ele>
        <time>2022-10-29T11:12:56Z</time>
      </trkpt>
      <trkpt lat="44.36542" lon="3.73418">
        <ele>940.6</ele>
        <time>2022-10-29T11:12:57Z</time>
      </trkpt>
      <trkpt lat="44.36537" lon="3.73416">
        <ele>940.6</ele>
        <time>2022-10-29T11:12:58Z</time>
      </trkpt>
      <trkpt lat="44.36532" lon="3.73415">
        <ele>940.6</ele>
        <time>2022-10-29T11:12:59Z</time>
      </trkpt>
      <trkpt lat="44.36528" lon="3.73414">
        <ele>940.6</ele>
        <time>2022-10-29T11:13:00Z</time>
      </trkpt>
      <trkpt lat="44.36523" lon="3.73414">
        <ele>940.6</ele>
        <time>2022-10-29T11:13:01Z</time>
      </trkpt>
      <trkpt lat="44.36518" lon="3.73414">
        <ele>940.8</ele>
        <time>2022-10-29T11:13:02Z</time>
      </trkpt>
      <trkpt lat="44.36514" lon="3.73414">
        <ele>940.8</ele>
        <time>2022-10-29T11:13:03Z</time>
      </trkpt>
      <trkpt lat="44.36509" lon="3.73414">
        <ele>940.8</ele>
        <time>2022-10-29T11:13:04Z</time>
      </trkpt>
      <trkpt lat="44.36505" lon="3.73415">
        <ele>941</ele>
        <time>2022-10-29T11:13:05Z</time>
      </trkpt>
      <trkpt lat="44.365" lon="3.73416">
        <ele>941</ele>
        <time>2022-10-29T11:13:06Z</time>
      </trkpt>
      <trkpt lat="44.36495" lon="3.73418">
        <ele>941</ele>
        <time>2022-10-29T11:13:07Z</time>
      </trkpt>
      <trkpt lat="44.36491" lon="3.73419">
        <ele>941</ele>
        <time>2022-10-29T11:13:08Z</time>
      </trkpt>
      <trkpt lat="44.36487" lon="3.73421">
        <ele>941.2</ele>
        <time>2022-10-29T11:13:09Z</time>
      </trkpt>
      <trkpt lat="44.36482" lon="3.73423">
        <ele>941.2</ele>
        <time>2022-10-29T11:13:10Z</time>
      </trkpt>
      <trkpt lat="44.36477" lon="3.73425">
        <ele>941.2</ele>
        <time>2022-10-29T11:13:11Z</time>
      </trkpt>
      <trkpt lat="44.36473" lon="3.73427">
        <ele>941.2</ele>
        <time>2022-10-29T11:13:12Z</time>
      </trkpt>
      <trkpt lat="44.36469" lon="3.7343">
        <ele>941.2</ele>
        <time>2022-10-29T11:13:13Z</time>
      </trkpt>
      <trkpt lat="44.36464" lon="3.73432">
        <ele>941.4</ele>
        <time>2022-10-29T11:13:14Z</time>
      </trkpt>
      <trkpt lat="44.3646" lon="3.73435">
        <ele>941.4</ele>
        <time>2022-10-29T11:13:15Z</time>
      </trkpt>
      <trkpt lat="44.36455" lon="3.73437">
        <ele>941.4</ele>
        <time>2022-10-29T11:13:16Z</time>
      </trkpt>
      <trkpt lat="44.36451" lon="3.73439">
        <ele>941.4</ele>
        <time>2022-10-29T11:13:17Z</time>
      </trkpt>
      <trkpt lat="44.36446" lon="3.73442">
        <ele>941.4</ele>
        <time>2022-10-29T11:13:18Z</time>
      </trkpt>
      <trkpt lat="44.36442" lon="3.73444">
        <ele>941.4</ele>
        <time>2022-10-29T11:13:19Z</time>
      </trkpt>
      <trkpt lat="44.36437" lon="3.73446">
        <ele>941.4</ele>
        <time>2022-10-29T11:13:20Z</time>
      </trkpt>
      <trkpt lat="44.36432" lon="3.73449">
        <ele>941.4</ele>
        <time>2022-10-29T11:13:21Z</time>
      </trkpt>
      <trkpt lat="44.36428" lon="3.73451">
        <ele>941.4</ele>
        <time>2022-10-29T11:13:22Z</time>
      </trkpt>
      <trkpt lat="44.36423" lon="3.73453">
        <ele>941.4</ele>
        <time>2022-10-29T11:13:23Z</time>
      </trkpt>
      <trkpt lat="44.36419" lon="3.73455">
        <ele>941.4</ele>
        <time>2022-10-29T11:13:24Z</time>
      </trkpt>
      <trkpt lat="44.36415" lon="3.73458">
        <ele>941.2</ele>
        <time>2022-10-29T11:13:25Z</time>
      </trkpt>
      <trkpt lat="44.36411" lon="3.7346">
        <ele>941.2</ele>
        <time>2022-10-29T11:13:26Z</time>
      </trkpt>
      <trkpt lat="44.36406" lon="3.73462">
        <ele>941</ele>
        <time>2022-10-29T11:13:27Z</time>
      </trkpt>
      <trkpt lat="44.36402" lon="3.73464">
        <ele>941</ele>
        <time>2022-10-29T11:13:28Z</time>
      </trkpt>
      <trkpt lat="44.36398" lon="3.73466">
        <ele>941</ele>
        <time>2022-10-29T11:13:29Z</time>
      </trkpt>
      <trkpt lat="44.36394" lon="3.73468">
        <ele>941</ele>
        <time>2022-10-29T11:13:30Z</time>
      </trkpt>
      <trkpt lat="44.36391" lon="3.73472">
        <ele>941</ele>
        <time>2022-10-29T11:13:31Z</time>
      </trkpt>
      <trkpt lat="44.36387" lon="3.73475">
        <ele>941</ele>
        <time>2022-10-29T11:13:32Z</time>
      </trkpt>
      <trkpt lat="44.36384" lon="3.73478">
        <ele>941</ele>
        <time>2022-10-29T11:13:33Z</time>
      </trkpt>
      <trkpt lat="44.36381" lon="3.7348">
        <ele>941</ele>
        <time>2022-10-29T11:13:34Z</time>
      </trkpt>
      <trkpt lat="44.36378" lon="3.73481">
        <ele>941</ele>
        <time>2022-10-29T11:13:35Z</time>
      </trkpt>
      <trkpt lat="44.36375" lon="3.73483">
        <ele>941</ele>
        <time>2022-10-29T11:13:36Z</time>
      </trkpt>
      <trkpt lat="44.36372" lon="3.73484">
        <ele>941.2</ele>
        <time>2022-10-29T11:13:37Z</time>
      </trkpt>
      <trkpt lat="44.3637" lon="3.73484">
        <ele>941.2</ele>
        <time>2022-10-29T11:13:38Z</time>
      </trkpt>
      <trkpt lat="44.36367" lon="3.73485">
        <ele>941.2</ele>
        <time>2022-10-29T11:13:39Z</time>
      </trkpt>
      <trkpt lat="44.36365" lon="3.73486">
        <ele>941.2</ele>
        <time>2022-10-29T11:13:40Z</time>
      </trkpt>
      <trkpt lat="44.36362" lon="3.73487">
        <ele>941.2</ele>
        <time>2022-10-29T11:13:41Z</time>
      </trkpt>
      <trkpt lat="44.3636" lon="3.73488">
        <ele>941.2</ele>
        <time>2022-10-29T11:13:42Z</time>
      </trkpt>
      <trkpt lat="44.36358" lon="3.73488">
        <ele>941.2</ele>
        <time>2022-10-29T11:13:43Z</time>
      </trkpt>
      <trkpt lat="44.36356" lon="3.73488">
        <ele>941.2</ele>
        <time>2022-10-29T11:13:44Z</time>
      </trkpt>
      <trkpt lat="44.36353" lon="3.73488">
        <ele>941.2</ele>
        <time>2022-10-29T11:13:45Z</time>
      </trkpt>
      <trkpt lat="44.36351" lon="3.73487">
        <ele>941.2</ele>
        <time>2022-10-29T11:13:46Z</time>
      </trkpt>
      <trkpt lat="44.36348" lon="3.73486">
        <ele>941.2</ele>
        <time>2022-10-29T11:13:47Z</time>
      </trkpt>
      <trkpt lat="44.36345" lon="3.73486">
        <ele>941.2</ele>
        <time>2022-10-29T11:13:48Z</time>
      </trkpt>
      <trkpt lat="44.36342" lon="3.73486">
        <ele>941.2</ele>
        <time>2022-10-29T11:13:49Z</time>
      </trkpt>
      <trkpt lat="44.36339" lon="3.73486">
        <ele>941.2</ele>
        <time>2022-10-29T11:13:50Z</time>
      </trkpt>
      <trkpt lat="44.36335" lon="3.73486">
        <ele>941.2</ele>
        <time>2022-10-29T11:13:51Z</time>
      </trkpt>
      <trkpt lat="44.36332" lon="3.73487">
        <ele>941</ele>
        <time>2022-10-29T11:13:52Z</time>
      </trkpt>
      <trkpt lat="44.36328" lon="3.73487">
        <ele>941</ele>
        <time>2022-10-29T11:13:53Z</time>
      </trkpt>
      <trkpt lat="44.36324" lon="3.73488">
        <ele>941</ele>
        <time>2022-10-29T11:13:54Z</time>
      </trkpt>
      <trkpt lat="44.36321" lon="3.73489">
        <ele>941</ele>
        <time>2022-10-29T11:13:55Z</time>
      </trkpt>
      <trkpt lat="44.36317" lon="3.73491">
        <ele>941</ele>
        <time>2022-10-29T11:13:56Z</time>
      </trkpt>
      <trkpt lat="44.36313" lon="3.73492">
        <ele>941</ele>
        <time>2022-10-29T11:13:57Z</time>
      </trkpt>
      <trkpt lat="44.36309" lon="3.73494">
        <ele>941</ele>
        <time>2022-10-29T11:13:58Z</time>
      </trkpt>
      <trkpt lat="44.36305" lon="3.73495">
        <ele>941</ele>
        <time>2022-10-29T11:13:59Z</time>
      </trkpt>
      <trkpt lat="44.363" lon="3.73497">
        <ele>941</ele>
        <time>2022-10-29T11:14:00Z</time>
      </trkpt>
      <trkpt lat="44.36296" lon="3.73499">
        <ele>941.2</ele>
        <time>2022-10-29T11:14:01Z</time>
      </trkpt>
      <trkpt lat="44.36291" lon="3.735">
        <ele>941.2</ele>
        <time>2022-10-29T11:14:02Z</time>
      </trkpt>
      <trkpt lat="44.36287" lon="3.73501">
        <ele>941.2</ele>
        <time>2022-10-29T11:14:03Z</time>
      </trkpt>
      <trkpt lat="44.36282" lon="3.73501">
        <ele>941.4</ele>
        <time>2022-10-29T11:14:04Z</time>
      </trkpt>
      <trkpt lat="44.36278" lon="3.73502">
        <ele>941.4</ele>
        <time>2022-10-29T11:14:05Z</time>
      </trkpt>
      <trkpt lat="44.36273" lon="3.73503">
        <ele>941.4</ele>
        <time>2022-10-29T11:14:06Z</time>
      </trkpt>
      <trkpt lat="44.36268" lon="3.73504">
        <ele>941.4</ele>
        <time>2022-10-29T11:14:07Z</time>
      </trkpt>
      <trkpt lat="44.36263" lon="3.73504">
        <ele>941.6</ele>
        <time>2022-10-29T11:14:08Z</time>
      </trkpt>
      <trkpt lat="44.36259" lon="3.73504">
        <ele>941.6</ele>
        <time>2022-10-29T11:14:09Z</time>
      </trkpt>
      <trkpt lat="44.36254" lon="3.73504">
        <ele>941.6</ele>
        <time>2022-10-29T11:14:10Z</time>
      </trkpt>
      <trkpt lat="44.36249" lon="3.73504">
        <ele>941.8</ele>
        <time>2022-10-29T11:14:11Z</time>
      </trkpt>
      <trkpt lat="44.36244" lon="3.73504">
        <ele>941.8</ele>
        <time>2022-10-29T11:14:12Z</time>
      </trkpt>
      <trkpt lat="44.36239" lon="3.73503">
        <ele>941.8</ele>
        <time>2022-10-29T11:14:13Z</time>
      </trkpt>
      <trkpt lat="44.36235" lon="3.73503">
        <ele>941.8</ele>
        <time>2022-10-29T11:14:14Z</time>
      </trkpt>
      <trkpt lat="44.3623" lon="3.73503">
        <ele>941.8</ele>
        <time>2022-10-29T11:14:15Z</time>
      </trkpt>
      <trkpt lat="44.36225" lon="3.73503">
        <ele>941.8</ele>
        <time>2022-10-29T11:14:16Z</time>
      </trkpt>
      <trkpt lat="44.36221" lon="3.73502">
        <ele>941.8</ele>
        <time>2022-10-29T11:14:17Z</time>
      </trkpt>
      <trkpt lat="44.36216" lon="3.73502">
        <ele>941.8</ele>
        <time>2022-10-29T11:14:18Z</time>
      </trkpt>
      <trkpt lat="44.36212" lon="3.73501">
        <ele>941.8</ele>
        <time>2022-10-29T11:14:19Z</time>
      </trkpt>
      <trkpt lat="44.36207" lon="3.73501">
        <ele>941.8</ele>
        <time>2022-10-29T11:14:20Z</time>
      </trkpt>
      <trkpt lat="44.36203" lon="3.735">
        <ele>942</ele>
        <time>2022-10-29T11:14:21Z</time>
      </trkpt>
      <trkpt lat="44.36198" lon="3.735">
        <ele>942</ele>
        <time>2022-10-29T11:14:22Z</time>
      </trkpt>
      <trkpt lat="44.36194" lon="3.735">
        <ele>942</ele>
        <time>2022-10-29T11:14:23Z</time>
      </trkpt>
      <trkpt lat="44.3619" lon="3.735">
        <ele>942</ele>
        <time>2022-10-29T11:14:24Z</time>
      </trkpt>
      <trkpt lat="44.36185" lon="3.73499">
        <ele>942</ele>
        <time>2022-10-29T11:14:25Z</time>
      </trkpt>
      <trkpt lat="44.36181" lon="3.73499">
        <ele>942</ele>
        <time>2022-10-29T11:14:26Z</time>
      </trkpt>
      <trkpt lat="44.36177" lon="3.73498">
        <ele>942</ele>
        <time>2022-10-29T11:14:27Z</time>
      </trkpt>
      <trkpt lat="44.36173" lon="3.73497">
        <ele>942</ele>
        <time>2022-10-29T11:14:28Z</time>
      </trkpt>
      <trkpt lat="44.36169" lon="3.73495">
        <ele>942</ele>
        <time>2022-10-29T11:14:29Z</time>
      </trkpt>
      <trkpt lat="44.36165" lon="3.73493">
        <ele>942</ele>
        <time>2022-10-29T11:14:30Z</time>
      </trkpt>
      <trkpt lat="44.36161" lon="3.7349">
        <ele>941.8</ele>
        <time>2022-10-29T11:14:31Z</time>
      </trkpt>
      <trkpt lat="44.36157" lon="3.73486">
        <ele>941.8</ele>
        <time>2022-10-29T11:14:32Z</time>
      </trkpt>
      <trkpt lat="44.36153" lon="3.73482">
        <ele>941.8</ele>
        <time>2022-10-29T11:14:33Z</time>
      </trkpt>
      <trkpt lat="44.3615" lon="3.73477">
        <ele>941.8</ele>
        <time>2022-10-29T11:14:34Z</time>
      </trkpt>
      <trkpt lat="44.36147" lon="3.73472">
        <ele>941.8</ele>
        <time>2022-10-29T11:14:35Z</time>
      </trkpt>
      <trkpt lat="44.36145" lon="3.73466">
        <ele>941.8</ele>
        <time>2022-10-29T11:14:36Z</time>
      </trkpt>
      <trkpt lat="44.36144" lon="3.73459">
        <ele>942</ele>
        <time>2022-10-29T11:14:37Z</time>
      </trkpt>
      <trkpt lat="44.36144" lon="3.73452">
        <ele>942</ele>
        <time>2022-10-29T11:14:38Z</time>
      </trkpt>
      <trkpt lat="44.36145" lon="3.73445">
        <ele>942</ele>
        <time>2022-10-29T11:14:39Z</time>
      </trkpt>
      <trkpt lat="44.36147" lon="3.73439">
        <ele>942</ele>
        <time>2022-10-29T11:14:40Z</time>
      </trkpt>
      <trkpt lat="44.36149" lon="3.73432">
        <ele>942</ele>
        <time>2022-10-29T11:14:41Z</time>
      </trkpt>
      <trkpt lat="44.36152" lon="3.73426">
        <ele>942</ele>
        <time>2022-10-29T11:14:42Z</time>
      </trkpt>
      <trkpt lat="44.36156" lon="3.73421">
        <ele>942</ele>
        <time>2022-10-29T11:14:43Z</time>
      </trkpt>
      <trkpt lat="44.3616" lon="3.73416">
        <ele>942</ele>
        <time>2022-10-29T11:14:44Z</time>
      </trkpt>
      <trkpt lat="44.36164" lon="3.73411">
        <ele>942</ele>
        <time>2022-10-29T11:14:45Z</time>
      </trkpt>
      <trkpt lat="44.36168" lon="3.73406">
        <ele>942</ele>
        <time>2022-10-29T11:14:46Z</time>
      </trkpt>
      <trkpt lat="44.36172" lon="3.73402">
        <ele>942</ele>
        <time>2022-10-29T11:14:47Z</time>
      </trkpt>
      <trkpt lat="44.36176" lon="3.73398">
        <ele>941.8</ele>
        <time>2022-10-29T11:14:48Z</time>
      </trkpt>
      <trkpt lat="44.3618" lon="3.73394">
        <ele>941.6</ele>
        <time>2022-10-29T11:14:49Z</time>
      </trkpt>
      <trkpt lat="44.36183" lon="3.7339">
        <ele>941.4</ele>
        <time>2022-10-29T11:14:50Z</time>
      </trkpt>
      <trkpt lat="44.36186" lon="3.73387">
        <ele>941.2</ele>
        <time>2022-10-29T11:14:51Z</time>
      </trkpt>
      <trkpt lat="44.36188" lon="3.73383">
        <ele>941</ele>
        <time>2022-10-29T11:14:52Z</time>
      </trkpt>
      <trkpt lat="44.3619" lon="3.7338">
        <ele>940.8</ele>
        <time>2022-10-29T11:14:53Z</time>
      </trkpt>
      <trkpt lat="44.36192" lon="3.73377">
        <ele>940.6</ele>
        <time>2022-10-29T11:14:54Z</time>
      </trkpt>
      <trkpt lat="44.36194" lon="3.73374">
        <ele>940.2</ele>
        <time>2022-10-29T11:14:55Z</time>
      </trkpt>
      <trkpt lat="44.36195" lon="3.73372">
        <ele>940</ele>
        <time>2022-10-29T11:14:56Z</time>
      </trkpt>
      <trkpt lat="44.36196" lon="3.73371">
        <ele>939.8</ele>
        <time>2022-10-29T11:14:57Z</time>
      </trkpt>
      <trkpt lat="44.36196" lon="3.73371">
        <ele>939.8</ele>
        <time>2022-10-29T11:14:58Z</time>
      </trkpt>
      <trkpt lat="44.36198" lon="3.7337">
        <ele>939.4</ele>
        <time>2022-10-29T11:15:40Z</time>
      </trkpt>
      <trkpt lat="44.362" lon="3.73368">
        <ele>939.4</ele>
        <time>2022-10-29T11:15:41Z</time>
      </trkpt>
      <trkpt lat="44.36202" lon="3.73366">
        <ele>939.4</ele>
        <time>2022-10-29T11:15:42Z</time>
      </trkpt>
      <trkpt lat="44.36206" lon="3.73362">
        <ele>939.4</ele>
        <time>2022-10-29T11:15:43Z</time>
      </trkpt>
      <trkpt lat="44.36209" lon="3.73359">
        <ele>939.4</ele>
        <time>2022-10-29T11:15:44Z</time>
      </trkpt>
      <trkpt lat="44.36212" lon="3.73355">
        <ele>939.4</ele>
        <time>2022-10-29T11:15:45Z</time>
      </trkpt>
      <trkpt lat="44.36216" lon="3.7335">
        <ele>939.2</ele>
        <time>2022-10-29T11:15:46Z</time>
      </trkpt>
      <trkpt lat="44.36219" lon="3.73345">
        <ele>939.2</ele>
        <time>2022-10-29T11:15:47Z</time>
      </trkpt>
      <trkpt lat="44.36222" lon="3.73339">
        <ele>939.2</ele>
        <time>2022-10-29T11:15:48Z</time>
      </trkpt>
      <trkpt lat="44.36226" lon="3.73333">
        <ele>939</ele>
        <time>2022-10-29T11:15:49Z</time>
      </trkpt>
      <trkpt lat="44.36229" lon="3.73327">
        <ele>939</ele>
        <time>2022-10-29T11:15:50Z</time>
      </trkpt>
      <trkpt lat="44.36233" lon="3.7332">
        <ele>938.8</ele>
        <time>2022-10-29T11:15:51Z</time>
      </trkpt>
      <trkpt lat="44.36236" lon="3.73314">
        <ele>938.6</ele>
        <time>2022-10-29T11:15:52Z</time>
      </trkpt>
      <trkpt lat="44.3624" lon="3.73307">
        <ele>938.6</ele>
        <time>2022-10-29T11:15:53Z</time>
      </trkpt>
      <trkpt lat="44.36243" lon="3.73301">
        <ele>938.4</ele>
        <time>2022-10-29T11:15:54Z</time>
      </trkpt>
      <trkpt lat="44.36247" lon="3.73295">
        <ele>938.2</ele>
        <time>2022-10-29T11:15:55Z</time>
      </trkpt>
      <trkpt lat="44.3625" lon="3.73287">
        <ele>938</ele>
        <time>2022-10-29T11:15:56Z</time>
      </trkpt>
      <trkpt lat="44.36254" lon="3.7328">
        <ele>937.8</ele>
        <time>2022-10-29T11:15:57Z</time>
      </trkpt>
      <trkpt lat="44.36256" lon="3.73273">
        <ele>937.8</ele>
        <time>2022-10-29T11:15:58Z</time>
      </trkpt>
      <trkpt lat="44.36259" lon="3.73265">
        <ele>937.6</ele>
        <time>2022-10-29T11:15:59Z</time>
      </trkpt>
      <trkpt lat="44.36261" lon="3.73258">
        <ele>937.4</ele>
        <time>2022-10-29T11:16:00Z</time>
      </trkpt>
      <trkpt lat="44.36263" lon="3.73249">
        <ele>937.2</ele>
        <time>2022-10-29T11:16:01Z</time>
      </trkpt>
      <trkpt lat="44.36264" lon="3.73241">
        <ele>937</ele>
        <time>2022-10-29T11:16:02Z</time>
      </trkpt>
      <trkpt lat="44.36265" lon="3.73232">
        <ele>936.8</ele>
        <time>2022-10-29T11:16:03Z</time>
      </trkpt>
      <trkpt lat="44.36267" lon="3.73223">
        <ele>936.6</ele>
        <time>2022-10-29T11:16:04Z</time>
      </trkpt>
      <trkpt lat="44.36268" lon="3.73214">
        <ele>936.4</ele>
        <time>2022-10-29T11:16:05Z</time>
      </trkpt>
      <trkpt lat="44.36268" lon="3.73205">
        <ele>936.2</ele>
        <time>2022-10-29T11:16:06Z</time>
      </trkpt>
      <trkpt lat="44.36268" lon="3.73195">
        <ele>936</ele>
        <time>2022-10-29T11:16:07Z</time>
      </trkpt>
      <trkpt lat="44.36269" lon="3.73186">
        <ele>936</ele>
        <time>2022-10-29T11:16:08Z</time>
      </trkpt>
      <trkpt lat="44.36269" lon="3.73178">
        <ele>935.8</ele>
        <time>2022-10-29T11:16:09Z</time>
      </trkpt>
      <trkpt lat="44.36268" lon="3.73169">
        <ele>935.6</ele>
        <time>2022-10-29T11:16:10Z</time>
      </trkpt>
      <trkpt lat="44.36268" lon="3.7316">
        <ele>935.4</ele>
        <time>2022-10-29T11:16:11Z</time>
      </trkpt>
      <trkpt lat="44.36268" lon="3.73151">
        <ele>935.2</ele>
        <time>2022-10-29T11:16:12Z</time>
      </trkpt>
      <trkpt lat="44.36268" lon="3.73141">
        <ele>935</ele>
        <time>2022-10-29T11:16:13Z</time>
      </trkpt>
      <trkpt lat="44.36267" lon="3.73132">
        <ele>934.8</ele>
        <time>2022-10-29T11:16:14Z</time>
      </trkpt>
      <trkpt lat="44.36265" lon="3.73124">
        <ele>934.6</ele>
        <time>2022-10-29T11:16:15Z</time>
      </trkpt>
      <trkpt lat="44.36262" lon="3.73114">
        <ele>934.2</ele>
        <time>2022-10-29T11:16:16Z</time>
      </trkpt>
      <trkpt lat="44.36259" lon="3.73105">
        <ele>934</ele>
        <time>2022-10-29T11:16:17Z</time>
      </trkpt>
      <trkpt lat="44.36257" lon="3.73097">
        <ele>933.8</ele>
        <time>2022-10-29T11:16:18Z</time>
      </trkpt>
      <trkpt lat="44.36254" lon="3.73089">
        <ele>933.6</ele>
        <time>2022-10-29T11:16:19Z</time>
      </trkpt>
      <trkpt lat="44.36251" lon="3.73082">
        <ele>933.4</ele>
        <time>2022-10-29T11:16:20Z</time>
      </trkpt>
      <trkpt lat="44.36247" lon="3.73074">
        <ele>933.2</ele>
        <time>2022-10-29T11:16:21Z</time>
      </trkpt>
      <trkpt lat="44.36244" lon="3.73066">
        <ele>933</ele>
        <time>2022-10-29T11:16:22Z</time>
      </trkpt>
      <trkpt lat="44.36241" lon="3.73058">
        <ele>932.8</ele>
        <time>2022-10-29T11:16:23Z</time>
      </trkpt>
      <trkpt lat="44.36238" lon="3.73049">
        <ele>932.6</ele>
        <time>2022-10-29T11:16:24Z</time>
      </trkpt>
      <trkpt lat="44.36236" lon="3.7304">
        <ele>932.4</ele>
        <time>2022-10-29T11:16:25Z</time>
      </trkpt>
      <trkpt lat="44.36235" lon="3.73031">
        <ele>932</ele>
        <time>2022-10-29T11:16:26Z</time>
      </trkpt>
      <trkpt lat="44.36233" lon="3.73022">
        <ele>931.8</ele>
        <time>2022-10-29T11:16:27Z</time>
      </trkpt>
      <trkpt lat="44.36233" lon="3.73012">
        <ele>931.6</ele>
        <time>2022-10-29T11:16:28Z</time>
      </trkpt>
      <trkpt lat="44.36234" lon="3.73001">
        <ele>931.2</ele>
        <time>2022-10-29T11:16:29Z</time>
      </trkpt>
      <trkpt lat="44.36235" lon="3.72992">
        <ele>931</ele>
        <time>2022-10-29T11:16:30Z</time>
      </trkpt>
      <trkpt lat="44.36236" lon="3.72981">
        <ele>930.6</ele>
        <time>2022-10-29T11:16:31Z</time>
      </trkpt>
      <trkpt lat="44.36237" lon="3.72971">
        <ele>930.4</ele>
        <time>2022-10-29T11:16:32Z</time>
      </trkpt>
      <trkpt lat="44.36239" lon="3.72961">
        <ele>930.2</ele>
        <time>2022-10-29T11:16:33Z</time>
      </trkpt>
      <trkpt lat="44.3624" lon="3.72951">
        <ele>930</ele>
        <time>2022-10-29T11:16:34Z</time>
      </trkpt>
      <trkpt lat="44.36242" lon="3.72941">
        <ele>929.8</ele>
        <time>2022-10-29T11:16:35Z</time>
      </trkpt>
      <trkpt lat="44.36243" lon="3.72932">
        <ele>929.6</ele>
        <time>2022-10-29T11:16:36Z</time>
      </trkpt>
      <trkpt lat="44.36244" lon="3.72921">
        <ele>929.4</ele>
        <time>2022-10-29T11:16:37Z</time>
      </trkpt>
      <trkpt lat="44.36246" lon="3.72912">
        <ele>929</ele>
        <time>2022-10-29T11:16:38Z</time>
      </trkpt>
      <trkpt lat="44.36247" lon="3.72903">
        <ele>929</ele>
        <time>2022-10-29T11:16:39Z</time>
      </trkpt>
      <trkpt lat="44.36249" lon="3.72893">
        <ele>928.8</ele>
        <time>2022-10-29T11:16:40Z</time>
      </trkpt>
      <trkpt lat="44.3625" lon="3.72882">
        <ele>928.4</ele>
        <time>2022-10-29T11:16:41Z</time>
      </trkpt>
      <trkpt lat="44.36252" lon="3.72873">
        <ele>928.2</ele>
        <time>2022-10-29T11:16:42Z</time>
      </trkpt>
      <trkpt lat="44.36253" lon="3.72863">
        <ele>928</ele>
        <time>2022-10-29T11:16:43Z</time>
      </trkpt>
      <trkpt lat="44.36255" lon="3.72853">
        <ele>928</ele>
        <time>2022-10-29T11:16:44Z</time>
      </trkpt>
      <trkpt lat="44.36256" lon="3.72842">
        <ele>927.8</ele>
        <time>2022-10-29T11:16:45Z</time>
      </trkpt>
      <trkpt lat="44.36256" lon="3.72832">
        <ele>927.6</ele>
        <time>2022-10-29T11:16:46Z</time>
      </trkpt>
      <trkpt lat="44.36255" lon="3.72821">
        <ele>927.4</ele>
        <time>2022-10-29T11:16:47Z</time>
      </trkpt>
      <trkpt lat="44.36253" lon="3.72812">
        <ele>927.2</ele>
        <time>2022-10-29T11:16:48Z</time>
      </trkpt>
      <trkpt lat="44.3625" lon="3.72802">
        <ele>926.8</ele>
        <time>2022-10-29T11:16:49Z</time>
      </trkpt>
      <trkpt lat="44.36247" lon="3.72793">
        <ele>926.6</ele>
        <time>2022-10-29T11:16:50Z</time>
      </trkpt>
      <trkpt lat="44.36243" lon="3.72784">
        <ele>926.4</ele>
        <time>2022-10-29T11:16:51Z</time>
      </trkpt>
      <trkpt lat="44.36239" lon="3.72776">
        <ele>926</ele>
        <time>2022-10-29T11:16:52Z</time>
      </trkpt>
      <trkpt lat="44.36234" lon="3.72769">
        <ele>925.8</ele>
        <time>2022-10-29T11:16:53Z</time>
      </trkpt>
      <trkpt lat="44.36228" lon="3.72763">
        <ele>925.4</ele>
        <time>2022-10-29T11:16:54Z</time>
      </trkpt>
      <trkpt lat="44.36222" lon="3.72758">
        <ele>925</ele>
        <time>2022-10-29T11:16:55Z</time>
      </trkpt>
      <trkpt lat="44.36215" lon="3.72755">
        <ele>924.8</ele>
        <time>2022-10-29T11:16:56Z</time>
      </trkpt>
      <trkpt lat="44.36209" lon="3.72752">
        <ele>924.4</ele>
        <time>2022-10-29T11:16:57Z</time>
      </trkpt>
      <trkpt lat="44.36203" lon="3.72747">
        <ele>924.2</ele>
        <time>2022-10-29T11:16:58Z</time>
      </trkpt>
      <trkpt lat="44.36198" lon="3.7274">
        <ele>923.8</ele>
        <time>2022-10-29T11:16:59Z</time>
      </trkpt>
      <trkpt lat="44.36194" lon="3.72732">
        <ele>923.4</ele>
        <time>2022-10-29T11:17:00Z</time>
      </trkpt>
      <trkpt lat="44.36192" lon="3.72723">
        <ele>923.2</ele>
        <time>2022-10-29T11:17:01Z</time>
      </trkpt>
      <trkpt lat="44.36193" lon="3.72714">
        <ele>922.8</ele>
        <time>2022-10-29T11:17:02Z</time>
      </trkpt>
      <trkpt lat="44.36195" lon="3.72705">
        <ele>922.4</ele>
        <time>2022-10-29T11:17:03Z</time>
      </trkpt>
      <trkpt lat="44.362" lon="3.72696">
        <ele>922.2</ele>
        <time>2022-10-29T11:17:04Z</time>
      </trkpt>
      <trkpt lat="44.36206" lon="3.72688">
        <ele>922</ele>
        <time>2022-10-29T11:17:05Z</time>
      </trkpt>
      <trkpt lat="44.36212" lon="3.7268">
        <ele>921.8</ele>
        <time>2022-10-29T11:17:06Z</time>
      </trkpt>
      <trkpt lat="44.36216" lon="3.72672">
        <ele>921.6</ele>
        <time>2022-10-29T11:17:07Z</time>
      </trkpt>
      <trkpt lat="44.3622" lon="3.72663">
        <ele>921.4</ele>
        <time>2022-10-29T11:17:08Z</time>
      </trkpt>
      <trkpt lat="44.36223" lon="3.72654">
        <ele>921.4</ele>
        <time>2022-10-29T11:17:09Z</time>
      </trkpt>
      <trkpt lat="44.36223" lon="3.72645">
        <ele>921.2</ele>
        <time>2022-10-29T11:17:10Z</time>
      </trkpt>
      <trkpt lat="44.36222" lon="3.72635">
        <ele>921</ele>
        <time>2022-10-29T11:17:11Z</time>
      </trkpt>
      <trkpt lat="44.36219" lon="3.72625">
        <ele>920.8</ele>
        <time>2022-10-29T11:17:12Z</time>
      </trkpt>
      <trkpt lat="44.36216" lon="3.72616">
        <ele>920.6</ele>
        <time>2022-10-29T11:17:13Z</time>
      </trkpt>
      <trkpt lat="44.36212" lon="3.72607">
        <ele>920.4</ele>
        <time>2022-10-29T11:17:14Z</time>
      </trkpt>
      <trkpt lat="44.3621" lon="3.72598">
        <ele>920.2</ele>
        <time>2022-10-29T11:17:15Z</time>
      </trkpt>
      <trkpt lat="44.36208" lon="3.72588">
        <ele>920</ele>
        <time>2022-10-29T11:17:16Z</time>
      </trkpt>
      <trkpt lat="44.36208" lon="3.72579">
        <ele>919.8</ele>
        <time>2022-10-29T11:17:17Z</time>
      </trkpt>
      <trkpt lat="44.36208" lon="3.72569">
        <ele>919.6</ele>
        <time>2022-10-29T11:17:18Z</time>
      </trkpt>
      <trkpt lat="44.3621" lon="3.72559">
        <ele>919.2</ele>
        <time>2022-10-29T11:17:19Z</time>
      </trkpt>
      <trkpt lat="44.36212" lon="3.72549">
        <ele>919</ele>
        <time>2022-10-29T11:17:20Z</time>
      </trkpt>
      <trkpt lat="44.36214" lon="3.72538">
        <ele>918.6</ele>
        <time>2022-10-29T11:17:21Z</time>
      </trkpt>
      <trkpt lat="44.36216" lon="3.72528">
        <ele>918.4</ele>
        <time>2022-10-29T11:17:22Z</time>
      </trkpt>
      <trkpt lat="44.36218" lon="3.72518">
        <ele>918</ele>
        <time>2022-10-29T11:17:23Z</time>
      </trkpt>
      <trkpt lat="44.36221" lon="3.72509">
        <ele>917.8</ele>
        <time>2022-10-29T11:17:24Z</time>
      </trkpt>
      <trkpt lat="44.36223" lon="3.72499">
        <ele>917.4</ele>
        <time>2022-10-29T11:17:25Z</time>
      </trkpt>
      <trkpt lat="44.36226" lon="3.72489">
        <ele>917.2</ele>
        <time>2022-10-29T11:17:26Z</time>
      </trkpt>
      <trkpt lat="44.3623" lon="3.72479">
        <ele>917.2</ele>
        <time>2022-10-29T11:17:27Z</time>
      </trkpt>
      <trkpt lat="44.36234" lon="3.72469">
        <ele>917</ele>
        <time>2022-10-29T11:17:28Z</time>
      </trkpt>
      <trkpt lat="44.36237" lon="3.7246">
        <ele>916.8</ele>
        <time>2022-10-29T11:17:29Z</time>
      </trkpt>
      <trkpt lat="44.36241" lon="3.72451">
        <ele>916.8</ele>
        <time>2022-10-29T11:17:30Z</time>
      </trkpt>
      <trkpt lat="44.36244" lon="3.72441">
        <ele>916.4</ele>
        <time>2022-10-29T11:17:31Z</time>
      </trkpt>
      <trkpt lat="44.36248" lon="3.72431">
        <ele>916.2</ele>
        <time>2022-10-29T11:17:32Z</time>
      </trkpt>
      <trkpt lat="44.3625" lon="3.72421">
        <ele>916</ele>
        <time>2022-10-29T11:17:33Z</time>
      </trkpt>
      <trkpt lat="44.36251" lon="3.7241">
        <ele>915.8</ele>
        <time>2022-10-29T11:17:34Z</time>
      </trkpt>
      <trkpt lat="44.36251" lon="3.724">
        <ele>915.6</ele>
        <time>2022-10-29T11:17:35Z</time>
      </trkpt>
      <trkpt lat="44.36249" lon="3.72389">
        <ele>915.2</ele>
        <time>2022-10-29T11:17:36Z</time>
      </trkpt>
      <trkpt lat="44.36247" lon="3.72379">
        <ele>914.8</ele>
        <time>2022-10-29T11:17:37Z</time>
      </trkpt>
      <trkpt lat="44.36244" lon="3.72368">
        <ele>914.4</ele>
        <time>2022-10-29T11:17:38Z</time>
      </trkpt>
      <trkpt lat="44.36241" lon="3.72358">
        <ele>914</ele>
        <time>2022-10-29T11:17:39Z</time>
      </trkpt>
      <trkpt lat="44.36237" lon="3.72349">
        <ele>913.8</ele>
        <time>2022-10-29T11:17:40Z</time>
      </trkpt>
      <trkpt lat="44.36233" lon="3.72339">
        <ele>913.4</ele>
        <time>2022-10-29T11:17:41Z</time>
      </trkpt>
      <trkpt lat="44.36228" lon="3.7233">
        <ele>913</ele>
        <time>2022-10-29T11:17:42Z</time>
      </trkpt>
      <trkpt lat="44.36224" lon="3.7232">
        <ele>912.6</ele>
        <time>2022-10-29T11:17:43Z</time>
      </trkpt>
      <trkpt lat="44.36221" lon="3.72311">
        <ele>912.2</ele>
        <time>2022-10-29T11:17:44Z</time>
      </trkpt>
      <trkpt lat="44.36217" lon="3.72301">
        <ele>912</ele>
        <time>2022-10-29T11:17:45Z</time>
      </trkpt>
      <trkpt lat="44.36213" lon="3.72291">
        <ele>911.8</ele>
        <time>2022-10-29T11:17:46Z</time>
      </trkpt>
      <trkpt lat="44.3621" lon="3.72281">
        <ele>911.4</ele>
        <time>2022-10-29T11:17:47Z</time>
      </trkpt>
      <trkpt lat="44.36207" lon="3.72271">
        <ele>911</ele>
        <time>2022-10-29T11:17:48Z</time>
      </trkpt>
      <trkpt lat="44.36203" lon="3.7226">
        <ele>910.6</ele>
        <time>2022-10-29T11:17:49Z</time>
      </trkpt>
      <trkpt lat="44.36201" lon="3.72249">
        <ele>910.2</ele>
        <time>2022-10-29T11:17:50Z</time>
      </trkpt>
      <trkpt lat="44.36199" lon="3.72238">
        <ele>909.8</ele>
        <time>2022-10-29T11:17:51Z</time>
      </trkpt>
      <trkpt lat="44.36199" lon="3.72226">
        <ele>909.4</ele>
        <time>2022-10-29T11:17:52Z</time>
      </trkpt>
      <trkpt lat="44.362" lon="3.72215">
        <ele>909</ele>
        <time>2022-10-29T11:17:53Z</time>
      </trkpt>
      <trkpt lat="44.36202" lon="3.72203">
        <ele>908.6</ele>
        <time>2022-10-29T11:17:54Z</time>
      </trkpt>
      <trkpt lat="44.36205" lon="3.72191">
        <ele>908.4</ele>
        <time>2022-10-29T11:17:55Z</time>
      </trkpt>
      <trkpt lat="44.36207" lon="3.7218">
        <ele>908.2</ele>
        <time>2022-10-29T11:17:56Z</time>
      </trkpt>
      <trkpt lat="44.3621" lon="3.72169">
        <ele>907.8</ele>
        <time>2022-10-29T11:17:57Z</time>
      </trkpt>
      <trkpt lat="44.36213" lon="3.72157">
        <ele>907.6</ele>
        <time>2022-10-29T11:17:58Z</time>
      </trkpt>
      <trkpt lat="44.36217" lon="3.72146">
        <ele>907.4</ele>
        <time>2022-10-29T11:17:59Z</time>
      </trkpt>
      <trkpt lat="44.3622" lon="3.72135">
        <ele>907.2</ele>
        <time>2022-10-29T11:18:00Z</time>
      </trkpt>
      <trkpt lat="44.36223" lon="3.72124">
        <ele>907</ele>
        <time>2022-10-29T11:18:01Z</time>
      </trkpt>
      <trkpt lat="44.36227" lon="3.72114">
        <ele>906.8</ele>
        <time>2022-10-29T11:18:02Z</time>
      </trkpt>
      <trkpt lat="44.3623" lon="3.72103">
        <ele>906.6</ele>
        <time>2022-10-29T11:18:03Z</time>
      </trkpt>
      <trkpt lat="44.36234" lon="3.72092">
        <ele>906.2</ele>
        <time>2022-10-29T11:18:04Z</time>
      </trkpt>
      <trkpt lat="44.36237" lon="3.72083">
        <ele>906</ele>
        <time>2022-10-29T11:18:05Z</time>
      </trkpt>
      <trkpt lat="44.36241" lon="3.72073">
        <ele>905.8</ele>
        <time>2022-10-29T11:18:06Z</time>
      </trkpt>
      <trkpt lat="44.36244" lon="3.72063">
        <ele>905.6</ele>
        <time>2022-10-29T11:18:07Z</time>
      </trkpt>
      <trkpt lat="44.36248" lon="3.72053">
        <ele>905.4</ele>
        <time>2022-10-29T11:18:08Z</time>
      </trkpt>
      <trkpt lat="44.36252" lon="3.72043">
        <ele>905.2</ele>
        <time>2022-10-29T11:18:09Z</time>
      </trkpt>
      <trkpt lat="44.36255" lon="3.72033">
        <ele>905</ele>
        <time>2022-10-29T11:18:10Z</time>
      </trkpt>
      <trkpt lat="44.36258" lon="3.72024">
        <ele>904.6</ele>
        <time>2022-10-29T11:18:11Z</time>
      </trkpt>
      <trkpt lat="44.36259" lon="3.72015">
        <ele>904.2</ele>
        <time>2022-10-29T11:18:12Z</time>
      </trkpt>
      <trkpt lat="44.36259" lon="3.72003">
        <ele>904</ele>
        <time>2022-10-29T11:18:13Z</time>
      </trkpt>
      <trkpt lat="44.36257" lon="3.71992">
        <ele>903.6</ele>
        <time>2022-10-29T11:18:14Z</time>
      </trkpt>
      <trkpt lat="44.36254" lon="3.71982">
        <ele>903</ele>
        <time>2022-10-29T11:18:15Z</time>
      </trkpt>
      <trkpt lat="44.36249" lon="3.71973">
        <ele>902.6</ele>
        <time>2022-10-29T11:18:16Z</time>
      </trkpt>
      <trkpt lat="44.36244" lon="3.71967">
        <ele>902.2</ele>
        <time>2022-10-29T11:18:17Z</time>
      </trkpt>
      <trkpt lat="44.36236" lon="3.71965">
        <ele>901.8</ele>
        <time>2022-10-29T11:18:18Z</time>
      </trkpt>
      <trkpt lat="44.36229" lon="3.71965">
        <ele>901.4</ele>
        <time>2022-10-29T11:18:19Z</time>
      </trkpt>
      <trkpt lat="44.36221" lon="3.71968">
        <ele>901</ele>
        <time>2022-10-29T11:18:20Z</time>
      </trkpt>
      <trkpt lat="44.36214" lon="3.71973">
        <ele>900.8</ele>
        <time>2022-10-29T11:18:21Z</time>
      </trkpt>
      <trkpt lat="44.36206" lon="3.71977">
        <ele>900.6</ele>
        <time>2022-10-29T11:18:22Z</time>
      </trkpt>
      <trkpt lat="44.36199" lon="3.71981">
        <ele>900.2</ele>
        <time>2022-10-29T11:18:23Z</time>
      </trkpt>
      <trkpt lat="44.36191" lon="3.71984">
        <ele>900</ele>
        <time>2022-10-29T11:18:24Z</time>
      </trkpt>
      <trkpt lat="44.36183" lon="3.71987">
        <ele>899.8</ele>
        <time>2022-10-29T11:18:25Z</time>
      </trkpt>
      <trkpt lat="44.36176" lon="3.71989">
        <ele>899.6</ele>
        <time>2022-10-29T11:18:26Z</time>
      </trkpt>
      <trkpt lat="44.36168" lon="3.7199">
        <ele>899</ele>
        <time>2022-10-29T11:18:27Z</time>
      </trkpt>
      <trkpt lat="44.36161" lon="3.71991">
        <ele>898.4</ele>
        <time>2022-10-29T11:18:28Z</time>
      </trkpt>
      <trkpt lat="44.36155" lon="3.71991">
        <ele>898</ele>
        <time>2022-10-29T11:18:29Z</time>
      </trkpt>
      <trkpt lat="44.3615" lon="3.71991">
        <ele>897.4</ele>
        <time>2022-10-29T11:18:30Z</time>
      </trkpt>
      <trkpt lat="44.36144" lon="3.71992">
        <ele>897</ele>
        <time>2022-10-29T11:18:31Z</time>
      </trkpt>
      <trkpt lat="44.36138" lon="3.71992">
        <ele>896.6</ele>
        <time>2022-10-29T11:18:32Z</time>
      </trkpt>
      <trkpt lat="44.36133" lon="3.71992">
        <ele>896.2</ele>
        <time>2022-10-29T11:18:33Z</time>
      </trkpt>
      <trkpt lat="44.36127" lon="3.7199">
        <ele>896</ele>
        <time>2022-10-29T11:18:34Z</time>
      </trkpt>
      <trkpt lat="44.36122" lon="3.71987">
        <ele>895.6</ele>
        <time>2022-10-29T11:18:35Z</time>
      </trkpt>
      <trkpt lat="44.36117" lon="3.71982">
        <ele>895.4</ele>
        <time>2022-10-29T11:18:36Z</time>
      </trkpt>
      <trkpt lat="44.36112" lon="3.71975">
        <ele>895.2</ele>
        <time>2022-10-29T11:18:37Z</time>
      </trkpt>
      <trkpt lat="44.36108" lon="3.71967">
        <ele>895</ele>
        <time>2022-10-29T11:18:38Z</time>
      </trkpt>
      <trkpt lat="44.36106" lon="3.71959">
        <ele>894.8</ele>
        <time>2022-10-29T11:18:39Z</time>
      </trkpt>
      <trkpt lat="44.36106" lon="3.7195">
        <ele>894.6</ele>
        <time>2022-10-29T11:18:40Z</time>
      </trkpt>
      <trkpt lat="44.36107" lon="3.7194">
        <ele>894.6</ele>
        <time>2022-10-29T11:18:41Z</time>
      </trkpt>
      <trkpt lat="44.3611" lon="3.71931">
        <ele>894.4</ele>
        <time>2022-10-29T11:18:42Z</time>
      </trkpt>
      <trkpt lat="44.36112" lon="3.71921">
        <ele>894.2</ele>
        <time>2022-10-29T11:18:43Z</time>
      </trkpt>
      <trkpt lat="44.36115" lon="3.71911">
        <ele>894.2</ele>
        <time>2022-10-29T11:18:44Z</time>
      </trkpt>
      <trkpt lat="44.36118" lon="3.71901">
        <ele>894</ele>
        <time>2022-10-29T11:18:45Z</time>
      </trkpt>
      <trkpt lat="44.36121" lon="3.71891">
        <ele>893.8</ele>
        <time>2022-10-29T11:18:46Z</time>
      </trkpt>
      <trkpt lat="44.36123" lon="3.71881">
        <ele>893.6</ele>
        <time>2022-10-29T11:18:47Z</time>
      </trkpt>
      <trkpt lat="44.36125" lon="3.71871">
        <ele>893.4</ele>
        <time>2022-10-29T11:18:48Z</time>
      </trkpt>
      <trkpt lat="44.36127" lon="3.7186">
        <ele>893.2</ele>
        <time>2022-10-29T11:18:49Z</time>
      </trkpt>
      <trkpt lat="44.36128" lon="3.71848">
        <ele>893</ele>
        <time>2022-10-29T11:18:50Z</time>
      </trkpt>
      <trkpt lat="44.36129" lon="3.71838">
        <ele>892.6</ele>
        <time>2022-10-29T11:18:51Z</time>
      </trkpt>
      <trkpt lat="44.3613" lon="3.71827">
        <ele>892.4</ele>
        <time>2022-10-29T11:18:52Z</time>
      </trkpt>
      <trkpt lat="44.36131" lon="3.71817">
        <ele>892.2</ele>
        <time>2022-10-29T11:18:53Z</time>
      </trkpt>
      <trkpt lat="44.36133" lon="3.71806">
        <ele>892</ele>
        <time>2022-10-29T11:18:54Z</time>
      </trkpt>
      <trkpt lat="44.36135" lon="3.71795">
        <ele>891.6</ele>
        <time>2022-10-29T11:18:55Z</time>
      </trkpt>
      <trkpt lat="44.36137" lon="3.71784">
        <ele>891.6</ele>
        <time>2022-10-29T11:18:56Z</time>
      </trkpt>
      <trkpt lat="44.36139" lon="3.71773">
        <ele>891.4</ele>
        <time>2022-10-29T11:18:57Z</time>
      </trkpt>
      <trkpt lat="44.36141" lon="3.71762">
        <ele>891.2</ele>
        <time>2022-10-29T11:18:58Z</time>
      </trkpt>
      <trkpt lat="44.36143" lon="3.7175">
        <ele>890.8</ele>
        <time>2022-10-29T11:18:59Z</time>
      </trkpt>
      <trkpt lat="44.36143" lon="3.71739">
        <ele>890.6</ele>
        <time>2022-10-29T11:19:00Z</time>
      </trkpt>
      <trkpt lat="44.36142" lon="3.71728">
        <ele>890.4</ele>
        <time>2022-10-29T11:19:01Z</time>
      </trkpt>
      <trkpt lat="44.36141" lon="3.71717">
        <ele>890.4</ele>
        <time>2022-10-29T11:19:02Z</time>
      </trkpt>
      <trkpt lat="44.36139" lon="3.71705">
        <ele>890</ele>
        <time>2022-10-29T11:19:03Z</time>
      </trkpt>
      <trkpt lat="44.36137" lon="3.71694">
        <ele>889.4</ele>
        <time>2022-10-29T11:19:04Z</time>
      </trkpt>
      <trkpt lat="44.36135" lon="3.71683">
        <ele>888.8</ele>
        <time>2022-10-29T11:19:05Z</time>
      </trkpt>
      <trkpt lat="44.36134" lon="3.71672">
        <ele>888.2</ele>
        <time>2022-10-29T11:19:06Z</time>
      </trkpt>
      <trkpt lat="44.36133" lon="3.7166">
        <ele>887.6</ele>
        <time>2022-10-29T11:19:07Z</time>
      </trkpt>
      <trkpt lat="44.36133" lon="3.71649">
        <ele>887</ele>
        <time>2022-10-29T11:19:08Z</time>
      </trkpt>
      <trkpt lat="44.36132" lon="3.71637">
        <ele>886.4</ele>
        <time>2022-10-29T11:19:09Z</time>
      </trkpt>
      <trkpt lat="44.36132" lon="3.71626">
        <ele>886</ele>
        <time>2022-10-29T11:19:10Z</time>
      </trkpt>
      <trkpt lat="44.3613" lon="3.71614">
        <ele>885.6</ele>
        <time>2022-10-29T11:19:11Z</time>
      </trkpt>
      <trkpt lat="44.36129" lon="3.71602">
        <ele>885.2</ele>
        <time>2022-10-29T11:19:12Z</time>
      </trkpt>
      <trkpt lat="44.36127" lon="3.71591">
        <ele>885</ele>
        <time>2022-10-29T11:19:13Z</time>
      </trkpt>
      <trkpt lat="44.36124" lon="3.71579">
        <ele>884.4</ele>
        <time>2022-10-29T11:19:14Z</time>
      </trkpt>
      <trkpt lat="44.36121" lon="3.71568">
        <ele>884</ele>
        <time>2022-10-29T11:19:15Z</time>
      </trkpt>
      <trkpt lat="44.36118" lon="3.71557">
        <ele>883.6</ele>
        <time>2022-10-29T11:19:16Z</time>
      </trkpt>
      <trkpt lat="44.36117" lon="3.71547">
        <ele>883.2</ele>
        <time>2022-10-29T11:19:17Z</time>
      </trkpt>
      <trkpt lat="44.36116" lon="3.71538">
        <ele>882.8</ele>
        <time>2022-10-29T11:19:18Z</time>
      </trkpt>
      <trkpt lat="44.36116" lon="3.71529">
        <ele>882.4</ele>
        <time>2022-10-29T11:19:19Z</time>
      </trkpt>
      <trkpt lat="44.36118" lon="3.71521">
        <ele>882</ele>
        <time>2022-10-29T11:19:20Z</time>
      </trkpt>
      <trkpt lat="44.36123" lon="3.71513">
        <ele>881.8</ele>
        <time>2022-10-29T11:19:21Z</time>
      </trkpt>
      <trkpt lat="44.36129" lon="3.71507">
        <ele>881.4</ele>
        <time>2022-10-29T11:19:22Z</time>
      </trkpt>
      <trkpt lat="44.36134" lon="3.71503">
        <ele>881</ele>
        <time>2022-10-29T11:19:23Z</time>
      </trkpt>
      <trkpt lat="44.3614" lon="3.71499">
        <ele>880.8</ele>
        <time>2022-10-29T11:19:24Z</time>
      </trkpt>
      <trkpt lat="44.36147" lon="3.71495">
        <ele>880.4</ele>
        <time>2022-10-29T11:19:25Z</time>
      </trkpt>
      <trkpt lat="44.36154" lon="3.71492">
        <ele>880.2</ele>
        <time>2022-10-29T11:19:26Z</time>
      </trkpt>
      <trkpt lat="44.3616" lon="3.71488">
        <ele>879.8</ele>
        <time>2022-10-29T11:19:27Z</time>
      </trkpt>
      <trkpt lat="44.36167" lon="3.71483">
        <ele>879.6</ele>
        <time>2022-10-29T11:19:28Z</time>
      </trkpt>
      <trkpt lat="44.36174" lon="3.71479">
        <ele>879.2</ele>
        <time>2022-10-29T11:19:29Z</time>
      </trkpt>
      <trkpt lat="44.36181" lon="3.71474">
        <ele>879</ele>
        <time>2022-10-29T11:19:30Z</time>
      </trkpt>
      <trkpt lat="44.36187" lon="3.7147">
        <ele>878.8</ele>
        <time>2022-10-29T11:19:31Z</time>
      </trkpt>
      <trkpt lat="44.36193" lon="3.71465">
        <ele>878.4</ele>
        <time>2022-10-29T11:19:32Z</time>
      </trkpt>
      <trkpt lat="44.362" lon="3.7146">
        <ele>878.2</ele>
        <time>2022-10-29T11:19:33Z</time>
      </trkpt>
      <trkpt lat="44.36206" lon="3.71455">
        <ele>877.8</ele>
        <time>2022-10-29T11:19:34Z</time>
      </trkpt>
      <trkpt lat="44.36212" lon="3.7145">
        <ele>877.6</ele>
        <time>2022-10-29T11:19:35Z</time>
      </trkpt>
      <trkpt lat="44.36219" lon="3.71445">
        <ele>877.2</ele>
        <time>2022-10-29T11:19:36Z</time>
      </trkpt>
      <trkpt lat="44.36226" lon="3.71438">
        <ele>877</ele>
        <time>2022-10-29T11:19:37Z</time>
      </trkpt>
      <trkpt lat="44.36232" lon="3.7143">
        <ele>876.8</ele>
        <time>2022-10-29T11:19:38Z</time>
      </trkpt>
      <trkpt lat="44.36237" lon="3.71422">
        <ele>876.4</ele>
        <time>2022-10-29T11:19:39Z</time>
      </trkpt>
      <trkpt lat="44.36245" lon="3.7141">
        <ele>876.2</ele>
        <time>2022-10-29T11:19:40Z</time>
      </trkpt>
      <trkpt lat="44.3625" lon="3.714">
        <ele>875.8</ele>
        <time>2022-10-29T11:19:41Z</time>
      </trkpt>
      <trkpt lat="44.36254" lon="3.7139">
        <ele>875.4</ele>
        <time>2022-10-29T11:19:42Z</time>
      </trkpt>
      <trkpt lat="44.36257" lon="3.71379">
        <ele>875.2</ele>
        <time>2022-10-29T11:19:43Z</time>
      </trkpt>
      <trkpt lat="44.36261" lon="3.71368">
        <ele>874.8</ele>
        <time>2022-10-29T11:19:44Z</time>
      </trkpt>
      <trkpt lat="44.36265" lon="3.71357">
        <ele>874.6</ele>
        <time>2022-10-29T11:19:45Z</time>
      </trkpt>
      <trkpt lat="44.36268" lon="3.71346">
        <ele>874.2</ele>
        <time>2022-10-29T11:19:46Z</time>
      </trkpt>
      <trkpt lat="44.36272" lon="3.71334">
        <ele>873.8</ele>
        <time>2022-10-29T11:19:47Z</time>
      </trkpt>
      <trkpt lat="44.36276" lon="3.71322">
        <ele>873.4</ele>
        <time>2022-10-29T11:19:48Z</time>
      </trkpt>
      <trkpt lat="44.3628" lon="3.71312">
        <ele>873.2</ele>
        <time>2022-10-29T11:19:49Z</time>
      </trkpt>
      <trkpt lat="44.36283" lon="3.713">
        <ele>872.8</ele>
        <time>2022-10-29T11:19:50Z</time>
      </trkpt>
      <trkpt lat="44.36286" lon="3.71289">
        <ele>872.6</ele>
        <time>2022-10-29T11:19:51Z</time>
      </trkpt>
      <trkpt lat="44.36289" lon="3.71278">
        <ele>872.2</ele>
        <time>2022-10-29T11:19:52Z</time>
      </trkpt>
      <trkpt lat="44.36293" lon="3.71266">
        <ele>871.8</ele>
        <time>2022-10-29T11:19:53Z</time>
      </trkpt>
      <trkpt lat="44.36296" lon="3.71254">
        <ele>871.4</ele>
        <time>2022-10-29T11:19:54Z</time>
      </trkpt>
      <trkpt lat="44.363" lon="3.71242">
        <ele>871.2</ele>
        <time>2022-10-29T11:19:55Z</time>
      </trkpt>
      <trkpt lat="44.36303" lon="3.71231">
        <ele>870.8</ele>
        <time>2022-10-29T11:19:56Z</time>
      </trkpt>
      <trkpt lat="44.36307" lon="3.71221">
        <ele>870.4</ele>
        <time>2022-10-29T11:19:57Z</time>
      </trkpt>
      <trkpt lat="44.36313" lon="3.71211">
        <ele>870.2</ele>
        <time>2022-10-29T11:19:58Z</time>
      </trkpt>
      <trkpt lat="44.36318" lon="3.71202">
        <ele>869.8</ele>
        <time>2022-10-29T11:19:59Z</time>
      </trkpt>
      <trkpt lat="44.36324" lon="3.71193">
        <ele>869.6</ele>
        <time>2022-10-29T11:20:00Z</time>
      </trkpt>
      <trkpt lat="44.36329" lon="3.71184">
        <ele>869.2</ele>
        <time>2022-10-29T11:20:01Z</time>
      </trkpt>
      <trkpt lat="44.36334" lon="3.71175">
        <ele>868.8</ele>
        <time>2022-10-29T11:20:02Z</time>
      </trkpt>
      <trkpt lat="44.36338" lon="3.71165">
        <ele>868.4</ele>
        <time>2022-10-29T11:20:03Z</time>
      </trkpt>
      <trkpt lat="44.36341" lon="3.71153">
        <ele>867.8</ele>
        <time>2022-10-29T11:20:04Z</time>
      </trkpt>
      <trkpt lat="44.36343" lon="3.71142">
        <ele>867.4</ele>
        <time>2022-10-29T11:20:05Z</time>
      </trkpt>
      <trkpt lat="44.36344" lon="3.7113">
        <ele>867</ele>
        <time>2022-10-29T11:20:06Z</time>
      </trkpt>
      <trkpt lat="44.36345" lon="3.71117">
        <ele>866.6</ele>
        <time>2022-10-29T11:20:07Z</time>
      </trkpt>
      <trkpt lat="44.36347" lon="3.71105">
        <ele>866</ele>
        <time>2022-10-29T11:20:08Z</time>
      </trkpt>
      <trkpt lat="44.36349" lon="3.71094">
        <ele>865.8</ele>
        <time>2022-10-29T11:20:09Z</time>
      </trkpt>
      <trkpt lat="44.36353" lon="3.71083">
        <ele>865.4</ele>
        <time>2022-10-29T11:20:10Z</time>
      </trkpt>
      <trkpt lat="44.36358" lon="3.71073">
        <ele>865.2</ele>
        <time>2022-10-29T11:20:11Z</time>
      </trkpt>
      <trkpt lat="44.36363" lon="3.71063">
        <ele>865</ele>
        <time>2022-10-29T11:20:12Z</time>
      </trkpt>
      <trkpt lat="44.36368" lon="3.71053">
        <ele>864.8</ele>
        <time>2022-10-29T11:20:13Z</time>
      </trkpt>
      <trkpt lat="44.36372" lon="3.71042">
        <ele>864.4</ele>
        <time>2022-10-29T11:20:14Z</time>
      </trkpt>
      <trkpt lat="44.36374" lon="3.71032">
        <ele>864</ele>
        <time>2022-10-29T11:20:15Z</time>
      </trkpt>
      <trkpt lat="44.36377" lon="3.7102">
        <ele>863.6</ele>
        <time>2022-10-29T11:20:16Z</time>
      </trkpt>
      <trkpt lat="44.36379" lon="3.71008">
        <ele>863.2</ele>
        <time>2022-10-29T11:20:17Z</time>
      </trkpt>
      <trkpt lat="44.36381" lon="3.70996">
        <ele>862.8</ele>
        <time>2022-10-29T11:20:18Z</time>
      </trkpt>
      <trkpt lat="44.36383" lon="3.70984">
        <ele>862.6</ele>
        <time>2022-10-29T11:20:19Z</time>
      </trkpt>
      <trkpt lat="44.36386" lon="3.70973">
        <ele>862.2</ele>
        <time>2022-10-29T11:20:20Z</time>
      </trkpt>
      <trkpt lat="44.36389" lon="3.70962">
        <ele>862</ele>
        <time>2022-10-29T11:20:21Z</time>
      </trkpt>
      <trkpt lat="44.36392" lon="3.7095">
        <ele>861.6</ele>
        <time>2022-10-29T11:20:22Z</time>
      </trkpt>
      <trkpt lat="44.36395" lon="3.70939">
        <ele>861.4</ele>
        <time>2022-10-29T11:20:23Z</time>
      </trkpt>
      <trkpt lat="44.36397" lon="3.70927">
        <ele>861</ele>
        <time>2022-10-29T11:20:24Z</time>
      </trkpt>
      <trkpt lat="44.36399" lon="3.70916">
        <ele>860.8</ele>
        <time>2022-10-29T11:20:25Z</time>
      </trkpt>
      <trkpt lat="44.364" lon="3.70904">
        <ele>860.2</ele>
        <time>2022-10-29T11:20:26Z</time>
      </trkpt>
      <trkpt lat="44.36401" lon="3.70892">
        <ele>859.8</ele>
        <time>2022-10-29T11:20:27Z</time>
      </trkpt>
      <trkpt lat="44.36403" lon="3.70881">
        <ele>859.4</ele>
        <time>2022-10-29T11:20:28Z</time>
      </trkpt>
      <trkpt lat="44.36405" lon="3.70869">
        <ele>859</ele>
        <time>2022-10-29T11:20:29Z</time>
      </trkpt>
      <trkpt lat="44.36408" lon="3.70859">
        <ele>858.6</ele>
        <time>2022-10-29T11:20:30Z</time>
      </trkpt>
      <trkpt lat="44.36412" lon="3.70849">
        <ele>858.2</ele>
        <time>2022-10-29T11:20:31Z</time>
      </trkpt>
      <trkpt lat="44.36417" lon="3.7084">
        <ele>858</ele>
        <time>2022-10-29T11:20:32Z</time>
      </trkpt>
      <trkpt lat="44.36422" lon="3.70832">
        <ele>857.8</ele>
        <time>2022-10-29T11:20:33Z</time>
      </trkpt>
      <trkpt lat="44.36428" lon="3.70824">
        <ele>857.4</ele>
        <time>2022-10-29T11:20:34Z</time>
      </trkpt>
      <trkpt lat="44.36434" lon="3.70816">
        <ele>857.2</ele>
        <time>2022-10-29T11:20:35Z</time>
      </trkpt>
      <trkpt lat="44.36439" lon="3.70809">
        <ele>857</ele>
        <time>2022-10-29T11:20:36Z</time>
      </trkpt>
      <trkpt lat="44.36445" lon="3.708">
        <ele>856.6</ele>
        <time>2022-10-29T11:20:37Z</time>
      </trkpt>
      <trkpt lat="44.36451" lon="3.70792">
        <ele>856.2</ele>
        <time>2022-10-29T11:20:38Z</time>
      </trkpt>
      <trkpt lat="44.36458" lon="3.70784">
        <ele>856</ele>
        <time>2022-10-29T11:20:39Z</time>
      </trkpt>
      <trkpt lat="44.36465" lon="3.70776">
        <ele>855.6</ele>
        <time>2022-10-29T11:20:40Z</time>
      </trkpt>
      <trkpt lat="44.36472" lon="3.70768">
        <ele>855.2</ele>
        <time>2022-10-29T11:20:41Z</time>
      </trkpt>
      <trkpt lat="44.36479" lon="3.7076">
        <ele>854.6</ele>
        <time>2022-10-29T11:20:42Z</time>
      </trkpt>
      <trkpt lat="44.36486" lon="3.70753">
        <ele>854.2</ele>
        <time>2022-10-29T11:20:43Z</time>
      </trkpt>
      <trkpt lat="44.36494" lon="3.70746">
        <ele>853.8</ele>
        <time>2022-10-29T11:20:44Z</time>
      </trkpt>
      <trkpt lat="44.36503" lon="3.70739">
        <ele>853.4</ele>
        <time>2022-10-29T11:20:45Z</time>
      </trkpt>
      <trkpt lat="44.36511" lon="3.70734">
        <ele>853</ele>
        <time>2022-10-29T11:20:46Z</time>
      </trkpt>
      <trkpt lat="44.3652" lon="3.70729">
        <ele>852.6</ele>
        <time>2022-10-29T11:20:47Z</time>
      </trkpt>
      <trkpt lat="44.3653" lon="3.70726">
        <ele>852.2</ele>
        <time>2022-10-29T11:20:48Z</time>
      </trkpt>
      <trkpt lat="44.3654" lon="3.70725">
        <ele>851.6</ele>
        <time>2022-10-29T11:20:49Z</time>
      </trkpt>
      <trkpt lat="44.3655" lon="3.70726">
        <ele>851.2</ele>
        <time>2022-10-29T11:20:50Z</time>
      </trkpt>
      <trkpt lat="44.36559" lon="3.70728">
        <ele>850.6</ele>
        <time>2022-10-29T11:20:51Z</time>
      </trkpt>
      <trkpt lat="44.36567" lon="3.70731">
        <ele>850</ele>
        <time>2022-10-29T11:20:52Z</time>
      </trkpt>
      <trkpt lat="44.36574" lon="3.70733">
        <ele>849.6</ele>
        <time>2022-10-29T11:20:53Z</time>
      </trkpt>
      <trkpt lat="44.36582" lon="3.70732">
        <ele>849.4</ele>
        <time>2022-10-29T11:20:54Z</time>
      </trkpt>
      <trkpt lat="44.36589" lon="3.70728">
        <ele>849</ele>
        <time>2022-10-29T11:20:55Z</time>
      </trkpt>
      <trkpt lat="44.36595" lon="3.70723">
        <ele>848.6</ele>
        <time>2022-10-29T11:20:56Z</time>
      </trkpt>
      <trkpt lat="44.36602" lon="3.70717">
        <ele>848.2</ele>
        <time>2022-10-29T11:20:57Z</time>
      </trkpt>
      <trkpt lat="44.36608" lon="3.7071">
        <ele>847.8</ele>
        <time>2022-10-29T11:20:58Z</time>
      </trkpt>
      <trkpt lat="44.36614" lon="3.70704">
        <ele>847.4</ele>
        <time>2022-10-29T11:20:59Z</time>
      </trkpt>
      <trkpt lat="44.3662" lon="3.70697">
        <ele>847</ele>
        <time>2022-10-29T11:21:00Z</time>
      </trkpt>
      <trkpt lat="44.36626" lon="3.70691">
        <ele>846.4</ele>
        <time>2022-10-29T11:21:01Z</time>
      </trkpt>
      <trkpt lat="44.36631" lon="3.70686">
        <ele>845.8</ele>
        <time>2022-10-29T11:21:02Z</time>
      </trkpt>
      <trkpt lat="44.36634" lon="3.70681">
        <ele>845.2</ele>
        <time>2022-10-29T11:21:03Z</time>
      </trkpt>
      <trkpt lat="44.36637" lon="3.70678">
        <ele>844.8</ele>
        <time>2022-10-29T11:21:04Z</time>
      </trkpt>
      <trkpt lat="44.36638" lon="3.70675">
        <ele>844.4</ele>
        <time>2022-10-29T11:21:05Z</time>
      </trkpt>
      <trkpt lat="44.36639" lon="3.70673">
        <ele>844</ele>
        <time>2022-10-29T11:21:06Z</time>
      </trkpt>
      <trkpt lat="44.3664" lon="3.7067">
        <ele>843.6</ele>
        <time>2022-10-29T11:21:07Z</time>
      </trkpt>
      <trkpt lat="44.36641" lon="3.70667">
        <ele>843.4</ele>
        <time>2022-10-29T11:21:08Z</time>
      </trkpt>
      <trkpt lat="44.36642" lon="3.70663">
        <ele>843.4</ele>
        <time>2022-10-29T11:21:09Z</time>
      </trkpt>
      <trkpt lat="44.36643" lon="3.70659">
        <ele>843.2</ele>
        <time>2022-10-29T11:21:10Z</time>
      </trkpt>
      <trkpt lat="44.36645" lon="3.70655">
        <ele>843</ele>
        <time>2022-10-29T11:21:11Z</time>
      </trkpt>
      <trkpt lat="44.36647" lon="3.7065">
        <ele>842.8</ele>
        <time>2022-10-29T11:21:12Z</time>
      </trkpt>
      <trkpt lat="44.36649" lon="3.70646">
        <ele>842.6</ele>
        <time>2022-10-29T11:21:13Z</time>
      </trkpt>
      <trkpt lat="44.36651" lon="3.70642">
        <ele>842.4</ele>
        <time>2022-10-29T11:21:14Z</time>
      </trkpt>
      <trkpt lat="44.36653" lon="3.70638">
        <ele>842.2</ele>
        <time>2022-10-29T11:21:15Z</time>
      </trkpt>
      <trkpt lat="44.36655" lon="3.70635">
        <ele>842</ele>
        <time>2022-10-29T11:21:16Z</time>
      </trkpt>
      <trkpt lat="44.36658" lon="3.70632">
        <ele>841.6</ele>
        <time>2022-10-29T11:21:17Z</time>
      </trkpt>
      <trkpt lat="44.3666" lon="3.70628">
        <ele>841.4</ele>
        <time>2022-10-29T11:21:18Z</time>
      </trkpt>
      <trkpt lat="44.36663" lon="3.70624">
        <ele>841.2</ele>
        <time>2022-10-29T11:21:19Z</time>
      </trkpt>
      <trkpt lat="44.36665" lon="3.7062">
        <ele>840.8</ele>
        <time>2022-10-29T11:21:20Z</time>
      </trkpt>
      <trkpt lat="44.36667" lon="3.70617">
        <ele>840.6</ele>
        <time>2022-10-29T11:21:21Z</time>
      </trkpt>
      <trkpt lat="44.36668" lon="3.70615">
        <ele>840.2</ele>
        <time>2022-10-29T11:21:22Z</time>
      </trkpt>
      <trkpt lat="44.36669" lon="3.70614">
        <ele>840</ele>
        <time>2022-10-29T11:21:23Z</time>
      </trkpt>
      <trkpt lat="44.3667" lon="3.70613">
        <ele>839.2</ele>
        <time>2022-10-29T11:21:42Z</time>
      </trkpt>
      <trkpt lat="44.36671" lon="3.70612">
        <ele>839.2</ele>
        <time>2022-10-29T11:21:43Z</time>
      </trkpt>
      <trkpt lat="44.36674" lon="3.70608">
        <ele>839.2</ele>
        <time>2022-10-29T11:21:44Z</time>
      </trkpt>
      <trkpt lat="44.36677" lon="3.70602">
        <ele>839.2</ele>
        <time>2022-10-29T11:21:45Z</time>
      </trkpt>
      <trkpt lat="44.36681" lon="3.70594">
        <ele>839</ele>
        <time>2022-10-29T11:21:46Z</time>
      </trkpt>
      <trkpt lat="44.36684" lon="3.70587">
        <ele>839</ele>
        <time>2022-10-29T11:21:47Z</time>
      </trkpt>
      <trkpt lat="44.36687" lon="3.7058">
        <ele>839</ele>
        <time>2022-10-29T11:21:48Z</time>
      </trkpt>
      <trkpt lat="44.36689" lon="3.70572">
        <ele>838.8</ele>
        <time>2022-10-29T11:21:49Z</time>
      </trkpt>
      <trkpt lat="44.36691" lon="3.70563">
        <ele>838.4</ele>
        <time>2022-10-29T11:21:50Z</time>
      </trkpt>
      <trkpt lat="44.36692" lon="3.70554">
        <ele>838.2</ele>
        <time>2022-10-29T11:21:51Z</time>
      </trkpt>
      <trkpt lat="44.36692" lon="3.70544">
        <ele>837.8</ele>
        <time>2022-10-29T11:21:52Z</time>
      </trkpt>
      <trkpt lat="44.36689" lon="3.70535">
        <ele>837.4</ele>
        <time>2022-10-29T11:21:53Z</time>
      </trkpt>
      <trkpt lat="44.36683" lon="3.70527">
        <ele>837</ele>
        <time>2022-10-29T11:21:54Z</time>
      </trkpt>
      <trkpt lat="44.36676" lon="3.70523">
        <ele>836.8</ele>
        <time>2022-10-29T11:21:55Z</time>
      </trkpt>
      <trkpt lat="44.36668" lon="3.70522">
        <ele>836.6</ele>
        <time>2022-10-29T11:21:56Z</time>
      </trkpt>
      <trkpt lat="44.3666" lon="3.70526">
        <ele>836.4</ele>
        <time>2022-10-29T11:21:57Z</time>
      </trkpt>
      <trkpt lat="44.36652" lon="3.70531">
        <ele>836</ele>
        <time>2022-10-29T11:21:58Z</time>
      </trkpt>
      <trkpt lat="44.36645" lon="3.70534">
        <ele>835.4</ele>
        <time>2022-10-29T11:21:59Z</time>
      </trkpt>
      <trkpt lat="44.3664" lon="3.70537">
        <ele>834.8</ele>
        <time>2022-10-29T11:22:00Z</time>
      </trkpt>
      <trkpt lat="44.36637" lon="3.70539">
        <ele>834</ele>
        <time>2022-10-29T11:22:01Z</time>
      </trkpt>
      <trkpt lat="44.36636" lon="3.70542">
        <ele>833.6</ele>
        <time>2022-10-29T11:22:02Z</time>
      </trkpt>
      <trkpt lat="44.36637" lon="3.70544">
        <ele>833.2</ele>
        <time>2022-10-29T11:22:03Z</time>
      </trkpt>
      <trkpt lat="44.36638" lon="3.70544">
        <ele>833</ele>
        <time>2022-10-29T11:22:04Z</time>
      </trkpt>
      <trkpt lat="44.3664" lon="3.70544">
        <ele>832.8</ele>
        <time>2022-10-29T11:22:05Z</time>
      </trkpt>
      <trkpt lat="44.36643" lon="3.70543">
        <ele>832.8</ele>
        <time>2022-10-29T11:22:06Z</time>
      </trkpt>
      <trkpt lat="44.36646" lon="3.70541">
        <ele>832.8</ele>
        <time>2022-10-29T11:22:07Z</time>
      </trkpt>
      <trkpt lat="44.3665" lon="3.70538">
        <ele>832.8</ele>
        <time>2022-10-29T11:22:08Z</time>
      </trkpt>
      <trkpt lat="44.36653" lon="3.70535">
        <ele>833</ele>
        <time>2022-10-29T11:22:09Z</time>
      </trkpt>
      <trkpt lat="44.36657" lon="3.70532">
        <ele>833</ele>
        <time>2022-10-29T11:22:10Z</time>
      </trkpt>
      <trkpt lat="44.36661" lon="3.70529">
        <ele>833.2</ele>
        <time>2022-10-29T11:22:11Z</time>
      </trkpt>
      <trkpt lat="44.36665" lon="3.70527">
        <ele>833.4</ele>
        <time>2022-10-29T11:22:12Z</time>
      </trkpt>
      <trkpt lat="44.3667" lon="3.70525">
        <ele>833.6</ele>
        <time>2022-10-29T11:22:13Z</time>
      </trkpt>
      <trkpt lat="44.36674" lon="3.70525">
        <ele>833.8</ele>
        <time>2022-10-29T11:22:14Z</time>
      </trkpt>
      <trkpt lat="44.36678" lon="3.70527">
        <ele>834.2</ele>
        <time>2022-10-29T11:22:15Z</time>
      </trkpt>
      <trkpt lat="44.36681" lon="3.70529">
        <ele>834.4</ele>
        <time>2022-10-29T11:22:16Z</time>
      </trkpt>
      <trkpt lat="44.36685" lon="3.70532">
        <ele>834.6</ele>
        <time>2022-10-29T11:22:17Z</time>
      </trkpt>
      <trkpt lat="44.36687" lon="3.70535">
        <ele>835</ele>
        <time>2022-10-29T11:22:18Z</time>
      </trkpt>
      <trkpt lat="44.36689" lon="3.70539">
        <ele>835.2</ele>
        <time>2022-10-29T11:22:19Z</time>
      </trkpt>
      <trkpt lat="44.36691" lon="3.70544">
        <ele>835.4</ele>
        <time>2022-10-29T11:22:20Z</time>
      </trkpt>
      <trkpt lat="44.36692" lon="3.70549">
        <ele>835.6</ele>
        <time>2022-10-29T11:22:21Z</time>
      </trkpt>
      <trkpt lat="44.36692" lon="3.70554">
        <ele>835.8</ele>
        <time>2022-10-29T11:22:22Z</time>
      </trkpt>
      <trkpt lat="44.36691" lon="3.70559">
        <ele>836</ele>
        <time>2022-10-29T11:22:23Z</time>
      </trkpt>
      <trkpt lat="44.3669" lon="3.70564">
        <ele>836</ele>
        <time>2022-10-29T11:22:24Z</time>
      </trkpt>
      <trkpt lat="44.36688" lon="3.70569">
        <ele>836.2</ele>
        <time>2022-10-29T11:22:25Z</time>
      </trkpt>
      <trkpt lat="44.36687" lon="3.70574">
        <ele>836.4</ele>
        <time>2022-10-29T11:22:26Z</time>
      </trkpt>
      <trkpt lat="44.36686" lon="3.70578">
        <ele>836.6</ele>
        <time>2022-10-29T11:22:27Z</time>
      </trkpt>
      <trkpt lat="44.36685" lon="3.70583">
        <ele>836.8</ele>
        <time>2022-10-29T11:22:28Z</time>
      </trkpt>
      <trkpt lat="44.36683" lon="3.70587">
        <ele>837.2</ele>
        <time>2022-10-29T11:22:29Z</time>
      </trkpt>
      <trkpt lat="44.36682" lon="3.70591">
        <ele>837.4</ele>
        <time>2022-10-29T11:22:30Z</time>
      </trkpt>
      <trkpt lat="44.36681" lon="3.70595">
        <ele>837.6</ele>
        <time>2022-10-29T11:22:31Z</time>
      </trkpt>
      <trkpt lat="44.36679" lon="3.70599">
        <ele>837.8</ele>
        <time>2022-10-29T11:22:32Z</time>
      </trkpt>
      <trkpt lat="44.36677" lon="3.70603">
        <ele>838</ele>
        <time>2022-10-29T11:22:33Z</time>
      </trkpt>
      <trkpt lat="44.36675" lon="3.70606">
        <ele>838.2</ele>
        <time>2022-10-29T11:22:34Z</time>
      </trkpt>
      <trkpt lat="44.36673" lon="3.70609">
        <ele>838.2</ele>
        <time>2022-10-29T11:22:35Z</time>
      </trkpt>
      <trkpt lat="44.36671" lon="3.70611">
        <ele>838.4</ele>
        <time>2022-10-29T11:22:36Z</time>
      </trkpt>
      <trkpt lat="44.3667" lon="3.70613">
        <ele>838.4</ele>
        <time>2022-10-29T11:22:37Z</time>
      </trkpt>
      <trkpt lat="44.36669" lon="3.70614">
        <ele>838.6</ele>
        <time>2022-10-29T11:22:38Z</time>
      </trkpt>
      <trkpt lat="44.36668" lon="3.70615">
        <ele>838.8</ele>
        <time>2022-10-29T11:22:46Z</time>
      </trkpt>
      <trkpt lat="44.36669" lon="3.70616">
        <ele>838.8</ele>
        <time>2022-10-29T11:22:47Z</time>
      </trkpt>
      <trkpt lat="44.3667" lon="3.70616">
        <ele>838.8</ele>
        <time>2022-10-29T11:22:48Z</time>
      </trkpt>
      <trkpt lat="44.36671" lon="3.70615">
        <ele>838.8</ele>
        <time>2022-10-29T11:22:49Z</time>
      </trkpt>
      <trkpt lat="44.36673" lon="3.70614">
        <ele>838.8</ele>
        <time>2022-10-29T11:22:50Z</time>
      </trkpt>
      <trkpt lat="44.36675" lon="3.70611">
        <ele>838.8</ele>
        <time>2022-10-29T11:22:51Z</time>
      </trkpt>
      <trkpt lat="44.36676" lon="3.70607">
        <ele>838.6</ele>
        <time>2022-10-29T11:22:52Z</time>
      </trkpt>
      <trkpt lat="44.36678" lon="3.70603">
        <ele>838.6</ele>
        <time>2022-10-29T11:22:53Z</time>
      </trkpt>
      <trkpt lat="44.3668" lon="3.70599">
        <ele>838.4</ele>
        <time>2022-10-29T11:22:54Z</time>
      </trkpt>
      <trkpt lat="44.36682" lon="3.70594">
        <ele>838.4</ele>
        <time>2022-10-29T11:22:55Z</time>
      </trkpt>
      <trkpt lat="44.36684" lon="3.70588">
        <ele>838.2</ele>
        <time>2022-10-29T11:22:56Z</time>
      </trkpt>
      <trkpt lat="44.36686" lon="3.70582">
        <ele>838</ele>
        <time>2022-10-29T11:22:57Z</time>
      </trkpt>
      <trkpt lat="44.36688" lon="3.70576">
        <ele>837.8</ele>
        <time>2022-10-29T11:22:58Z</time>
      </trkpt>
      <trkpt lat="44.3669" lon="3.70569">
        <ele>837.6</ele>
        <time>2022-10-29T11:22:59Z</time>
      </trkpt>
      <trkpt lat="44.36692" lon="3.70562">
        <ele>837.4</ele>
        <time>2022-10-29T11:23:00Z</time>
      </trkpt>
      <trkpt lat="44.36693" lon="3.70554">
        <ele>837</ele>
        <time>2022-10-29T11:23:01Z</time>
      </trkpt>
      <trkpt lat="44.36693" lon="3.70547">
        <ele>836.8</ele>
        <time>2022-10-29T11:23:02Z</time>
      </trkpt>
      <trkpt lat="44.36693" lon="3.7054">
        <ele>836.4</ele>
        <time>2022-10-29T11:23:03Z</time>
      </trkpt>
      <trkpt lat="44.36691" lon="3.70534">
        <ele>836</ele>
        <time>2022-10-29T11:23:04Z</time>
      </trkpt>
      <trkpt lat="44.36689" lon="3.7053">
        <ele>835.6</ele>
        <time>2022-10-29T11:23:05Z</time>
      </trkpt>
      <trkpt lat="44.36688" lon="3.70528">
        <ele>835.4</ele>
        <time>2022-10-29T11:23:06Z</time>
      </trkpt>
      <trkpt lat="44.36687" lon="3.70527">
        <ele>835.2</ele>
        <time>2022-10-29T11:23:07Z</time>
      </trkpt>
      <trkpt lat="44.36687" lon="3.70527">
        <ele>835</ele>
        <time>2022-10-29T11:23:08Z</time>
      </trkpt>
      <trkpt lat="44.36687" lon="3.70527">
        <ele>835</ele>
        <time>2022-10-29T11:23:09Z</time>
      </trkpt>
      <trkpt lat="44.36687" lon="3.70527">
        <ele>834.8</ele>
        <time>2022-10-29T11:23:10Z</time>
      </trkpt>
      <trkpt lat="44.36687" lon="3.70527">
        <ele>834.8</ele>
        <time>2022-10-29T11:23:11Z</time>
      </trkpt>
      <trkpt lat="44.36687" lon="3.70527">
        <ele>834.6</ele>
        <time>2022-10-29T11:23:12Z</time>
      </trkpt>
      <trkpt lat="44.36686" lon="3.70526">
        <ele>834.4</ele>
        <time>2022-10-29T11:23:27Z</time>
      </trkpt>
      <trkpt lat="44.36684" lon="3.70524">
        <ele>834.4</ele>
        <time>2022-10-29T11:23:28Z</time>
      </trkpt>
      <trkpt lat="44.36681" lon="3.70523">
        <ele>834.4</ele>
        <time>2022-10-29T11:23:29Z</time>
      </trkpt>
      <trkpt lat="44.36679" lon="3.70523">
        <ele>834.4</ele>
        <time>2022-10-29T11:23:30Z</time>
      </trkpt>
      <trkpt lat="44.36679" lon="3.70524">
        <ele>834.4</ele>
        <time>2022-10-29T11:23:31Z</time>
      </trkpt>
      <trkpt lat="44.36678" lon="3.70525">
        <ele>834.2</ele>
        <time>2022-10-29T11:23:32Z</time>
      </trkpt>
      <trkpt lat="44.36678" lon="3.70525">
        <ele>834.2</ele>
        <time>2022-10-29T11:23:33Z</time>
      </trkpt>
      <trkpt lat="44.36676" lon="3.70525">
        <ele>834.2</ele>
        <time>2022-10-29T11:23:34Z</time>
      </trkpt>
      <trkpt lat="44.36674" lon="3.70524">
        <ele>834.2</ele>
        <time>2022-10-29T11:23:35Z</time>
      </trkpt>
      <trkpt lat="44.36671" lon="3.70523">
        <ele>834.2</ele>
        <time>2022-10-29T11:23:36Z</time>
      </trkpt>
      <trkpt lat="44.36668" lon="3.70522">
        <ele>834.2</ele>
        <time>2022-10-29T11:23:37Z</time>
      </trkpt>
      <trkpt lat="44.36665" lon="3.70523">
        <ele>834.2</ele>
        <time>2022-10-29T11:23:38Z</time>
      </trkpt>
      <trkpt lat="44.36661" lon="3.70525">
        <ele>834</ele>
        <time>2022-10-29T11:23:39Z</time>
      </trkpt>
      <trkpt lat="44.36657" lon="3.70528">
        <ele>834</ele>
        <time>2022-10-29T11:23:40Z</time>
      </trkpt>
      <trkpt lat="44.36654" lon="3.70532">
        <ele>833.8</ele>
        <time>2022-10-29T11:23:41Z</time>
      </trkpt>
      <trkpt lat="44.36649" lon="3.70534">
        <ele>833.8</ele>
        <time>2022-10-29T11:23:42Z</time>
      </trkpt>
      <trkpt lat="44.36644" lon="3.70535">
        <ele>833.6</ele>
        <time>2022-10-29T11:23:43Z</time>
      </trkpt>
      <trkpt lat="44.36638" lon="3.70535">
        <ele>833.6</ele>
        <time>2022-10-29T11:23:44Z</time>
      </trkpt>
      <trkpt lat="44.36633" lon="3.70531">
        <ele>833.4</ele>
        <time>2022-10-29T11:23:45Z</time>
      </trkpt>
      <trkpt lat="44.36629" lon="3.70524">
        <ele>833</ele>
        <time>2022-10-29T11:23:46Z</time>
      </trkpt>
      <trkpt lat="44.36626" lon="3.70515">
        <ele>832.6</ele>
        <time>2022-10-29T11:23:47Z</time>
      </trkpt>
      <trkpt lat="44.36624" lon="3.70505">
        <ele>832.2</ele>
        <time>2022-10-29T11:23:48Z</time>
      </trkpt>
      <trkpt lat="44.36624" lon="3.70496">
        <ele>832</ele>
        <time>2022-10-29T11:23:49Z</time>
      </trkpt>
      <trkpt lat="44.36626" lon="3.70486">
        <ele>831.6</ele>
        <time>2022-10-29T11:23:50Z</time>
      </trkpt>
      <trkpt lat="44.36628" lon="3.70477">
        <ele>831.2</ele>
        <time>2022-10-29T11:23:51Z</time>
      </trkpt>
      <trkpt lat="44.36631" lon="3.70468">
        <ele>830.8</ele>
        <time>2022-10-29T11:23:52Z</time>
      </trkpt>
      <trkpt lat="44.36634" lon="3.70458">
        <ele>830.4</ele>
        <time>2022-10-29T11:23:53Z</time>
      </trkpt>
      <trkpt lat="44.36637" lon="3.70448">
        <ele>830.2</ele>
        <time>2022-10-29T11:23:54Z</time>
      </trkpt>
      <trkpt lat="44.3664" lon="3.70438">
        <ele>829.8</ele>
        <time>2022-10-29T11:23:55Z</time>
      </trkpt>
      <trkpt lat="44.36642" lon="3.70428">
        <ele>829.4</ele>
        <time>2022-10-29T11:23:56Z</time>
      </trkpt>
      <trkpt lat="44.36645" lon="3.70418">
        <ele>829.2</ele>
        <time>2022-10-29T11:23:57Z</time>
      </trkpt>
      <trkpt lat="44.36648" lon="3.70408">
        <ele>828.8</ele>
        <time>2022-10-29T11:23:58Z</time>
      </trkpt>
      <trkpt lat="44.36652" lon="3.70397">
        <ele>828.4</ele>
        <time>2022-10-29T11:23:59Z</time>
      </trkpt>
      <trkpt lat="44.36654" lon="3.70388">
        <ele>828</ele>
        <time>2022-10-29T11:24:00Z</time>
      </trkpt>
      <trkpt lat="44.36656" lon="3.70382">
        <ele>827.6</ele>
        <time>2022-10-29T11:24:01Z</time>
      </trkpt>
      <trkpt lat="44.36659" lon="3.70368">
        <ele>827.4</ele>
        <time>2022-10-29T11:24:02Z</time>
      </trkpt>
      <trkpt lat="44.36661" lon="3.70352">
        <ele>827</ele>
        <time>2022-10-29T11:24:03Z</time>
      </trkpt>
      <trkpt lat="44.36664" lon="3.70341">
        <ele>826.6</ele>
        <time>2022-10-29T11:24:04Z</time>
      </trkpt>
      <trkpt lat="44.36666" lon="3.7033">
        <ele>826.4</ele>
        <time>2022-10-29T11:24:05Z</time>
      </trkpt>
      <trkpt lat="44.36667" lon="3.70318">
        <ele>826</ele>
        <time>2022-10-29T11:24:06Z</time>
      </trkpt>
      <trkpt lat="44.36669" lon="3.70307">
        <ele>825.6</ele>
        <time>2022-10-29T11:24:07Z</time>
      </trkpt>
      <trkpt lat="44.36671" lon="3.70295">
        <ele>825</ele>
        <time>2022-10-29T11:24:08Z</time>
      </trkpt>
      <trkpt lat="44.36673" lon="3.70283">
        <ele>824.6</ele>
        <time>2022-10-29T11:24:09Z</time>
      </trkpt>
      <trkpt lat="44.36675" lon="3.70271">
        <ele>824.2</ele>
        <time>2022-10-29T11:24:10Z</time>
      </trkpt>
      <trkpt lat="44.36678" lon="3.7026">
        <ele>823.8</ele>
        <time>2022-10-29T11:24:11Z</time>
      </trkpt>
      <trkpt lat="44.36682" lon="3.70248">
        <ele>823.4</ele>
        <time>2022-10-29T11:24:12Z</time>
      </trkpt>
      <trkpt lat="44.36685" lon="3.70237">
        <ele>823</ele>
        <time>2022-10-29T11:24:13Z</time>
      </trkpt>
      <trkpt lat="44.36687" lon="3.70225">
        <ele>822.6</ele>
        <time>2022-10-29T11:24:14Z</time>
      </trkpt>
      <trkpt lat="44.36688" lon="3.70213">
        <ele>822.4</ele>
        <time>2022-10-29T11:24:15Z</time>
      </trkpt>
      <trkpt lat="44.36687" lon="3.702">
        <ele>822</ele>
        <time>2022-10-29T11:24:16Z</time>
      </trkpt>
      <trkpt lat="44.36686" lon="3.70188">
        <ele>821.6</ele>
        <time>2022-10-29T11:24:17Z</time>
      </trkpt>
      <trkpt lat="44.36684" lon="3.70175">
        <ele>821.2</ele>
        <time>2022-10-29T11:24:18Z</time>
      </trkpt>
      <trkpt lat="44.36682" lon="3.70161">
        <ele>820.6</ele>
        <time>2022-10-29T11:24:19Z</time>
      </trkpt>
      <trkpt lat="44.3668" lon="3.70149">
        <ele>820.2</ele>
        <time>2022-10-29T11:24:20Z</time>
      </trkpt>
      <trkpt lat="44.36678" lon="3.70136">
        <ele>819.6</ele>
        <time>2022-10-29T11:24:21Z</time>
      </trkpt>
      <trkpt lat="44.36677" lon="3.70122">
        <ele>819.2</ele>
        <time>2022-10-29T11:24:22Z</time>
      </trkpt>
      <trkpt lat="44.36677" lon="3.70109">
        <ele>818.6</ele>
        <time>2022-10-29T11:24:23Z</time>
      </trkpt>
      <trkpt lat="44.36678" lon="3.70096">
        <ele>818.2</ele>
        <time>2022-10-29T11:24:24Z</time>
      </trkpt>
      <trkpt lat="44.3668" lon="3.70083">
        <ele>817.6</ele>
        <time>2022-10-29T11:24:25Z</time>
      </trkpt>
      <trkpt lat="44.36683" lon="3.7007">
        <ele>817.2</ele>
        <time>2022-10-29T11:24:26Z</time>
      </trkpt>
      <trkpt lat="44.36687" lon="3.70059">
        <ele>816.8</ele>
        <time>2022-10-29T11:24:27Z</time>
      </trkpt>
      <trkpt lat="44.36693" lon="3.70047">
        <ele>816.4</ele>
        <time>2022-10-29T11:24:28Z</time>
      </trkpt>
      <trkpt lat="44.36699" lon="3.70038">
        <ele>816</ele>
        <time>2022-10-29T11:24:29Z</time>
      </trkpt>
      <trkpt lat="44.36707" lon="3.70031">
        <ele>815.6</ele>
        <time>2022-10-29T11:24:30Z</time>
      </trkpt>
      <trkpt lat="44.36714" lon="3.70023">
        <ele>815.2</ele>
        <time>2022-10-29T11:24:31Z</time>
      </trkpt>
      <trkpt lat="44.3672" lon="3.70015">
        <ele>814.8</ele>
        <time>2022-10-29T11:24:32Z</time>
      </trkpt>
      <trkpt lat="44.36723" lon="3.70006">
        <ele>814.4</ele>
        <time>2022-10-29T11:24:33Z</time>
      </trkpt>
      <trkpt lat="44.36725" lon="3.69997">
        <ele>814</ele>
        <time>2022-10-29T11:24:34Z</time>
      </trkpt>
      <trkpt lat="44.36724" lon="3.69987">
        <ele>813.8</ele>
        <time>2022-10-29T11:24:35Z</time>
      </trkpt>
      <trkpt lat="44.3672" lon="3.69978">
        <ele>813.4</ele>
        <time>2022-10-29T11:24:36Z</time>
      </trkpt>
      <trkpt lat="44.36713" lon="3.69971">
        <ele>813</ele>
        <time>2022-10-29T11:24:37Z</time>
      </trkpt>
      <trkpt lat="44.36706" lon="3.69967">
        <ele>812.6</ele>
        <time>2022-10-29T11:24:38Z</time>
      </trkpt>
      <trkpt lat="44.36699" lon="3.69963">
        <ele>812.2</ele>
        <time>2022-10-29T11:24:39Z</time>
      </trkpt>
      <trkpt lat="44.36692" lon="3.69959">
        <ele>811.8</ele>
        <time>2022-10-29T11:24:40Z</time>
      </trkpt>
      <trkpt lat="44.36684" lon="3.69955">
        <ele>811.4</ele>
        <time>2022-10-29T11:24:41Z</time>
      </trkpt>
      <trkpt lat="44.36677" lon="3.6995">
        <ele>811</ele>
        <time>2022-10-29T11:24:42Z</time>
      </trkpt>
      <trkpt lat="44.3667" lon="3.69945">
        <ele>810.6</ele>
        <time>2022-10-29T11:24:43Z</time>
      </trkpt>
      <trkpt lat="44.36662" lon="3.6994">
        <ele>810</ele>
        <time>2022-10-29T11:24:44Z</time>
      </trkpt>
      <trkpt lat="44.36655" lon="3.69935">
        <ele>809.6</ele>
        <time>2022-10-29T11:24:45Z</time>
      </trkpt>
      <trkpt lat="44.36647" lon="3.69931">
        <ele>809</ele>
        <time>2022-10-29T11:24:46Z</time>
      </trkpt>
      <trkpt lat="44.36639" lon="3.69927">
        <ele>808.4</ele>
        <time>2022-10-29T11:24:47Z</time>
      </trkpt>
      <trkpt lat="44.3663" lon="3.69924">
        <ele>807.8</ele>
        <time>2022-10-29T11:24:48Z</time>
      </trkpt>
      <trkpt lat="44.36622" lon="3.6992">
        <ele>807.2</ele>
        <time>2022-10-29T11:24:49Z</time>
      </trkpt>
      <trkpt lat="44.36614" lon="3.69917">
        <ele>806.6</ele>
        <time>2022-10-29T11:24:50Z</time>
      </trkpt>
      <trkpt lat="44.36606" lon="3.69912">
        <ele>806</ele>
        <time>2022-10-29T11:24:51Z</time>
      </trkpt>
      <trkpt lat="44.36599" lon="3.69904">
        <ele>805.6</ele>
        <time>2022-10-29T11:24:52Z</time>
      </trkpt>
      <trkpt lat="44.36592" lon="3.69895">
        <ele>805</ele>
        <time>2022-10-29T11:24:53Z</time>
      </trkpt>
      <trkpt lat="44.36586" lon="3.69884">
        <ele>804.6</ele>
        <time>2022-10-29T11:24:54Z</time>
      </trkpt>
      <trkpt lat="44.36581" lon="3.69872">
        <ele>804</ele>
        <time>2022-10-29T11:24:55Z</time>
      </trkpt>
      <trkpt lat="44.36577" lon="3.69861">
        <ele>803.6</ele>
        <time>2022-10-29T11:24:56Z</time>
      </trkpt>
      <trkpt lat="44.36571" lon="3.69849">
        <ele>803</ele>
        <time>2022-10-29T11:24:57Z</time>
      </trkpt>
      <trkpt lat="44.36564" lon="3.69839">
        <ele>802.6</ele>
        <time>2022-10-29T11:24:58Z</time>
      </trkpt>
      <trkpt lat="44.36557" lon="3.6983">
        <ele>802</ele>
        <time>2022-10-29T11:24:59Z</time>
      </trkpt>
      <trkpt lat="44.36549" lon="3.69822">
        <ele>801.6</ele>
        <time>2022-10-29T11:25:00Z</time>
      </trkpt>
      <trkpt lat="44.36542" lon="3.69813">
        <ele>801</ele>
        <time>2022-10-29T11:25:01Z</time>
      </trkpt>
      <trkpt lat="44.36536" lon="3.69802">
        <ele>800.4</ele>
        <time>2022-10-29T11:25:02Z</time>
      </trkpt>
      <trkpt lat="44.36531" lon="3.6979">
        <ele>799.8</ele>
        <time>2022-10-29T11:25:03Z</time>
      </trkpt>
      <trkpt lat="44.36528" lon="3.69777">
        <ele>799</ele>
        <time>2022-10-29T11:25:04Z</time>
      </trkpt>
      <trkpt lat="44.36525" lon="3.69763">
        <ele>798.4</ele>
        <time>2022-10-29T11:25:05Z</time>
      </trkpt>
      <trkpt lat="44.36522" lon="3.69749">
        <ele>797.8</ele>
        <time>2022-10-29T11:25:06Z</time>
      </trkpt>
      <trkpt lat="44.3652" lon="3.69734">
        <ele>797.2</ele>
        <time>2022-10-29T11:25:07Z</time>
      </trkpt>
      <trkpt lat="44.36518" lon="3.6972">
        <ele>796.8</ele>
        <time>2022-10-29T11:25:08Z</time>
      </trkpt>
      <trkpt lat="44.36515" lon="3.69704">
        <ele>796.2</ele>
        <time>2022-10-29T11:25:09Z</time>
      </trkpt>
      <trkpt lat="44.36513" lon="3.69688">
        <ele>795.8</ele>
        <time>2022-10-29T11:25:10Z</time>
      </trkpt>
      <trkpt lat="44.36511" lon="3.69673">
        <ele>795.4</ele>
        <time>2022-10-29T11:25:11Z</time>
      </trkpt>
      <trkpt lat="44.3651" lon="3.69659">
        <ele>794.8</ele>
        <time>2022-10-29T11:25:12Z</time>
      </trkpt>
      <trkpt lat="44.36507" lon="3.69644">
        <ele>794.4</ele>
        <time>2022-10-29T11:25:13Z</time>
      </trkpt>
      <trkpt lat="44.36505" lon="3.69629">
        <ele>794</ele>
        <time>2022-10-29T11:25:14Z</time>
      </trkpt>
      <trkpt lat="44.36503" lon="3.69615">
        <ele>793.6</ele>
        <time>2022-10-29T11:25:15Z</time>
      </trkpt>
      <trkpt lat="44.365" lon="3.696">
        <ele>793.2</ele>
        <time>2022-10-29T11:25:16Z</time>
      </trkpt>
      <trkpt lat="44.36497" lon="3.69586">
        <ele>792.8</ele>
        <time>2022-10-29T11:25:17Z</time>
      </trkpt>
      <trkpt lat="44.36494" lon="3.69572">
        <ele>792.2</ele>
        <time>2022-10-29T11:25:18Z</time>
      </trkpt>
      <trkpt lat="44.36491" lon="3.69558">
        <ele>791.6</ele>
        <time>2022-10-29T11:25:19Z</time>
      </trkpt>
      <trkpt lat="44.36486" lon="3.69545">
        <ele>791</ele>
        <time>2022-10-29T11:25:20Z</time>
      </trkpt>
      <trkpt lat="44.36481" lon="3.69532">
        <ele>790.4</ele>
        <time>2022-10-29T11:25:21Z</time>
      </trkpt>
      <trkpt lat="44.36475" lon="3.69519">
        <ele>789.8</ele>
        <time>2022-10-29T11:25:22Z</time>
      </trkpt>
      <trkpt lat="44.36469" lon="3.69507">
        <ele>789.2</ele>
        <time>2022-10-29T11:25:23Z</time>
      </trkpt>
      <trkpt lat="44.36463" lon="3.69495">
        <ele>788.6</ele>
        <time>2022-10-29T11:25:24Z</time>
      </trkpt>
      <trkpt lat="44.36458" lon="3.69482">
        <ele>788</ele>
        <time>2022-10-29T11:25:25Z</time>
      </trkpt>
      <trkpt lat="44.36452" lon="3.69469">
        <ele>787.4</ele>
        <time>2022-10-29T11:25:26Z</time>
      </trkpt>
      <trkpt lat="44.36446" lon="3.69456">
        <ele>786.6</ele>
        <time>2022-10-29T11:25:27Z</time>
      </trkpt>
      <trkpt lat="44.36441" lon="3.69443">
        <ele>786</ele>
        <time>2022-10-29T11:25:28Z</time>
      </trkpt>
      <trkpt lat="44.36435" lon="3.6943">
        <ele>785.6</ele>
        <time>2022-10-29T11:25:29Z</time>
      </trkpt>
      <trkpt lat="44.3643" lon="3.69418">
        <ele>785</ele>
        <time>2022-10-29T11:25:30Z</time>
      </trkpt>
      <trkpt lat="44.36424" lon="3.69405">
        <ele>784.4</ele>
        <time>2022-10-29T11:25:31Z</time>
      </trkpt>
      <trkpt lat="44.36418" lon="3.69391">
        <ele>783.6</ele>
        <time>2022-10-29T11:25:32Z</time>
      </trkpt>
      <trkpt lat="44.36413" lon="3.69379">
        <ele>783</ele>
        <time>2022-10-29T11:25:33Z</time>
      </trkpt>
      <trkpt lat="44.36407" lon="3.69365">
        <ele>782.4</ele>
        <time>2022-10-29T11:25:34Z</time>
      </trkpt>
      <trkpt lat="44.364" lon="3.69352">
        <ele>782</ele>
        <time>2022-10-29T11:25:35Z</time>
      </trkpt>
      <trkpt lat="44.36393" lon="3.69339">
        <ele>781.6</ele>
        <time>2022-10-29T11:25:36Z</time>
      </trkpt>
      <trkpt lat="44.36387" lon="3.69326">
        <ele>781.2</ele>
        <time>2022-10-29T11:25:37Z</time>
      </trkpt>
      <trkpt lat="44.36382" lon="3.69313">
        <ele>780.8</ele>
        <time>2022-10-29T11:25:38Z</time>
      </trkpt>
      <trkpt lat="44.36378" lon="3.693">
        <ele>780.2</ele>
        <time>2022-10-29T11:25:39Z</time>
      </trkpt>
      <trkpt lat="44.36375" lon="3.69286">
        <ele>779.8</ele>
        <time>2022-10-29T11:25:40Z</time>
      </trkpt>
      <trkpt lat="44.36374" lon="3.69271">
        <ele>779.2</ele>
        <time>2022-10-29T11:25:41Z</time>
      </trkpt>
      <trkpt lat="44.36374" lon="3.69257">
        <ele>778.6</ele>
        <time>2022-10-29T11:25:42Z</time>
      </trkpt>
      <trkpt lat="44.36372" lon="3.69241">
        <ele>778</ele>
        <time>2022-10-29T11:25:43Z</time>
      </trkpt>
      <trkpt lat="44.3637" lon="3.69226">
        <ele>777.4</ele>
        <time>2022-10-29T11:25:44Z</time>
      </trkpt>
      <trkpt lat="44.36369" lon="3.69211">
        <ele>777</ele>
        <time>2022-10-29T11:25:45Z</time>
      </trkpt>
      <trkpt lat="44.36368" lon="3.69195">
        <ele>776.6</ele>
        <time>2022-10-29T11:25:46Z</time>
      </trkpt>
      <trkpt lat="44.36368" lon="3.69179">
        <ele>776</ele>
        <time>2022-10-29T11:25:47Z</time>
      </trkpt>
      <trkpt lat="44.36369" lon="3.69163">
        <ele>775.4</ele>
        <time>2022-10-29T11:25:48Z</time>
      </trkpt>
      <trkpt lat="44.3637" lon="3.69147">
        <ele>775</ele>
        <time>2022-10-29T11:25:49Z</time>
      </trkpt>
      <trkpt lat="44.36372" lon="3.69131">
        <ele>774.4</ele>
        <time>2022-10-29T11:25:50Z</time>
      </trkpt>
      <trkpt lat="44.36373" lon="3.69116">
        <ele>773.6</ele>
        <time>2022-10-29T11:25:51Z</time>
      </trkpt>
      <trkpt lat="44.36374" lon="3.691">
        <ele>772.8</ele>
        <time>2022-10-29T11:25:52Z</time>
      </trkpt>
      <trkpt lat="44.36376" lon="3.69084">
        <ele>772</ele>
        <time>2022-10-29T11:25:53Z</time>
      </trkpt>
      <trkpt lat="44.36378" lon="3.69068">
        <ele>771.4</ele>
        <time>2022-10-29T11:25:54Z</time>
      </trkpt>
      <trkpt lat="44.36381" lon="3.69053">
        <ele>771.2</ele>
        <time>2022-10-29T11:25:55Z</time>
      </trkpt>
      <trkpt lat="44.36383" lon="3.69036">
        <ele>770.6</ele>
        <time>2022-10-29T11:25:56Z</time>
      </trkpt>
      <trkpt lat="44.36386" lon="3.69021">
        <ele>770.2</ele>
        <time>2022-10-29T11:25:57Z</time>
      </trkpt>
      <trkpt lat="44.3639" lon="3.69007">
        <ele>769.6</ele>
        <time>2022-10-29T11:25:58Z</time>
      </trkpt>
      <trkpt lat="44.36394" lon="3.68991">
        <ele>768.8</ele>
        <time>2022-10-29T11:25:59Z</time>
      </trkpt>
      <trkpt lat="44.364" lon="3.68977">
        <ele>768.2</ele>
        <time>2022-10-29T11:26:00Z</time>
      </trkpt>
      <trkpt lat="44.36408" lon="3.68963">
        <ele>768</ele>
        <time>2022-10-29T11:26:01Z</time>
      </trkpt>
      <trkpt lat="44.36415" lon="3.6895">
        <ele>767.8</ele>
        <time>2022-10-29T11:26:02Z</time>
      </trkpt>
      <trkpt lat="44.36421" lon="3.68935">
        <ele>767.2</ele>
        <time>2022-10-29T11:26:03Z</time>
      </trkpt>
      <trkpt lat="44.36427" lon="3.68922">
        <ele>766.4</ele>
        <time>2022-10-29T11:26:04Z</time>
      </trkpt>
      <trkpt lat="44.36433" lon="3.68908">
        <ele>765.8</ele>
        <time>2022-10-29T11:26:05Z</time>
      </trkpt>
      <trkpt lat="44.36438" lon="3.68895">
        <ele>765</ele>
        <time>2022-10-29T11:26:06Z</time>
      </trkpt>
      <trkpt lat="44.36443" lon="3.68881">
        <ele>764.4</ele>
        <time>2022-10-29T11:26:07Z</time>
      </trkpt>
      <trkpt lat="44.36444" lon="3.68867">
        <ele>763.8</ele>
        <time>2022-10-29T11:26:08Z</time>
      </trkpt>
      <trkpt lat="44.36444" lon="3.68853">
        <ele>763.2</ele>
        <time>2022-10-29T11:26:09Z</time>
      </trkpt>
      <trkpt lat="44.36444" lon="3.68837">
        <ele>762.4</ele>
        <time>2022-10-29T11:26:10Z</time>
      </trkpt>
      <trkpt lat="44.36443" lon="3.68823">
        <ele>761.6</ele>
        <time>2022-10-29T11:26:11Z</time>
      </trkpt>
      <trkpt lat="44.36442" lon="3.68809">
        <ele>761</ele>
        <time>2022-10-29T11:26:12Z</time>
      </trkpt>
      <trkpt lat="44.3644" lon="3.68794">
        <ele>760.4</ele>
        <time>2022-10-29T11:26:13Z</time>
      </trkpt>
      <trkpt lat="44.3644" lon="3.68779">
        <ele>760</ele>
        <time>2022-10-29T11:26:14Z</time>
      </trkpt>
      <trkpt lat="44.36438" lon="3.68765">
        <ele>759.4</ele>
        <time>2022-10-29T11:26:15Z</time>
      </trkpt>
      <trkpt lat="44.36436" lon="3.68751">
        <ele>758.8</ele>
        <time>2022-10-29T11:26:16Z</time>
      </trkpt>
      <trkpt lat="44.36432" lon="3.68738">
        <ele>758</ele>
        <time>2022-10-29T11:26:17Z</time>
      </trkpt>
      <trkpt lat="44.36428" lon="3.68726">
        <ele>757.2</ele>
        <time>2022-10-29T11:26:18Z</time>
      </trkpt>
      <trkpt lat="44.36422" lon="3.68714">
        <ele>756.4</ele>
        <time>2022-10-29T11:26:19Z</time>
      </trkpt>
      <trkpt lat="44.36415" lon="3.68704">
        <ele>755.4</ele>
        <time>2022-10-29T11:26:20Z</time>
      </trkpt>
      <trkpt lat="44.36407" lon="3.68695">
        <ele>754.8</ele>
        <time>2022-10-29T11:26:21Z</time>
      </trkpt>
      <trkpt lat="44.36398" lon="3.68688">
        <ele>754.2</ele>
        <time>2022-10-29T11:26:22Z</time>
      </trkpt>
      <trkpt lat="44.36389" lon="3.68682">
        <ele>753.6</ele>
        <time>2022-10-29T11:26:23Z</time>
      </trkpt>
      <trkpt lat="44.36379" lon="3.68676">
        <ele>753</ele>
        <time>2022-10-29T11:26:24Z</time>
      </trkpt>
      <trkpt lat="44.36368" lon="3.6867">
        <ele>752.6</ele>
        <time>2022-10-29T11:26:25Z</time>
      </trkpt>
      <trkpt lat="44.36359" lon="3.68664">
        <ele>751.8</ele>
        <time>2022-10-29T11:26:26Z</time>
      </trkpt>
      <trkpt lat="44.36351" lon="3.68658">
        <ele>751.2</ele>
        <time>2022-10-29T11:26:27Z</time>
      </trkpt>
      <trkpt lat="44.36344" lon="3.6865">
        <ele>750.6</ele>
        <time>2022-10-29T11:26:28Z</time>
      </trkpt>
      <trkpt lat="44.3634" lon="3.6864">
        <ele>750</ele>
        <time>2022-10-29T11:26:29Z</time>
      </trkpt>
      <trkpt lat="44.36338" lon="3.68629">
        <ele>749.4</ele>
        <time>2022-10-29T11:26:30Z</time>
      </trkpt>
      <trkpt lat="44.3634" lon="3.68615">
        <ele>749</ele>
        <time>2022-10-29T11:26:31Z</time>
      </trkpt>
      <trkpt lat="44.36343" lon="3.68601">
        <ele>748.6</ele>
        <time>2022-10-29T11:26:32Z</time>
      </trkpt>
      <trkpt lat="44.36346" lon="3.68588">
        <ele>748.2</ele>
        <time>2022-10-29T11:26:33Z</time>
      </trkpt>
      <trkpt lat="44.3635" lon="3.68576">
        <ele>747.6</ele>
        <time>2022-10-29T11:26:34Z</time>
      </trkpt>
      <trkpt lat="44.36355" lon="3.68565">
        <ele>747.2</ele>
        <time>2022-10-29T11:26:35Z</time>
      </trkpt>
      <trkpt lat="44.36362" lon="3.68557">
        <ele>746.6</ele>
        <time>2022-10-29T11:26:36Z</time>
      </trkpt>
      <trkpt lat="44.36371" lon="3.6855">
        <ele>746.2</ele>
        <time>2022-10-29T11:26:37Z</time>
      </trkpt>
      <trkpt lat="44.3638" lon="3.68545">
        <ele>745.8</ele>
        <time>2022-10-29T11:26:38Z</time>
      </trkpt>
      <trkpt lat="44.36389" lon="3.6854">
        <ele>745.4</ele>
        <time>2022-10-29T11:26:39Z</time>
      </trkpt>
      <trkpt lat="44.36399" lon="3.68535">
        <ele>745</ele>
        <time>2022-10-29T11:26:40Z</time>
      </trkpt>
      <trkpt lat="44.36408" lon="3.6853">
        <ele>744.6</ele>
        <time>2022-10-29T11:26:41Z</time>
      </trkpt>
      <trkpt lat="44.36417" lon="3.68524">
        <ele>744.2</ele>
        <time>2022-10-29T11:26:42Z</time>
      </trkpt>
      <trkpt lat="44.36427" lon="3.68519">
        <ele>743.6</ele>
        <time>2022-10-29T11:26:43Z</time>
      </trkpt>
      <trkpt lat="44.36436" lon="3.68514">
        <ele>743.2</ele>
        <time>2022-10-29T11:26:44Z</time>
      </trkpt>
      <trkpt lat="44.36446" lon="3.68508">
        <ele>742.8</ele>
        <time>2022-10-29T11:26:45Z</time>
      </trkpt>
      <trkpt lat="44.36455" lon="3.68501">
        <ele>742.4</ele>
        <time>2022-10-29T11:26:46Z</time>
      </trkpt>
      <trkpt lat="44.36464" lon="3.68492">
        <ele>742</ele>
        <time>2022-10-29T11:26:47Z</time>
      </trkpt>
      <trkpt lat="44.36471" lon="3.68483">
        <ele>741.4</ele>
        <time>2022-10-29T11:26:48Z</time>
      </trkpt>
      <trkpt lat="44.36476" lon="3.68474">
        <ele>740.8</ele>
        <time>2022-10-29T11:26:49Z</time>
      </trkpt>
      <trkpt lat="44.36479" lon="3.68463">
        <ele>740.2</ele>
        <time>2022-10-29T11:26:50Z</time>
      </trkpt>
      <trkpt lat="44.36482" lon="3.68453">
        <ele>739.4</ele>
        <time>2022-10-29T11:26:51Z</time>
      </trkpt>
      <trkpt lat="44.36481" lon="3.68444">
        <ele>738.8</ele>
        <time>2022-10-29T11:26:52Z</time>
      </trkpt>
      <trkpt lat="44.36478" lon="3.68437">
        <ele>738.4</ele>
        <time>2022-10-29T11:26:53Z</time>
      </trkpt>
      <trkpt lat="44.36474" lon="3.68432">
        <ele>738</ele>
        <time>2022-10-29T11:26:54Z</time>
      </trkpt>
      <trkpt lat="44.36469" lon="3.68429">
        <ele>737.6</ele>
        <time>2022-10-29T11:26:55Z</time>
      </trkpt>
      <trkpt lat="44.36464" lon="3.68428">
        <ele>737.2</ele>
        <time>2022-10-29T11:26:56Z</time>
      </trkpt>
      <trkpt lat="44.3646" lon="3.68428">
        <ele>736.8</ele>
        <time>2022-10-29T11:26:57Z</time>
      </trkpt>
      <trkpt lat="44.36455" lon="3.68429">
        <ele>736.6</ele>
        <time>2022-10-29T11:26:58Z</time>
      </trkpt>
      <trkpt lat="44.3645" lon="3.68432">
        <ele>736.4</ele>
        <time>2022-10-29T11:26:59Z</time>
      </trkpt>
      <trkpt lat="44.36445" lon="3.68435">
        <ele>736.2</ele>
        <time>2022-10-29T11:27:00Z</time>
      </trkpt>
      <trkpt lat="44.36441" lon="3.68438">
        <ele>736</ele>
        <time>2022-10-29T11:27:01Z</time>
      </trkpt>
      <trkpt lat="44.36435" lon="3.68442">
        <ele>735.8</ele>
        <time>2022-10-29T11:27:02Z</time>
      </trkpt>
      <trkpt lat="44.3643" lon="3.68445">
        <ele>735.8</ele>
        <time>2022-10-29T11:27:03Z</time>
      </trkpt>
      <trkpt lat="44.36424" lon="3.68449">
        <ele>735.6</ele>
        <time>2022-10-29T11:27:04Z</time>
      </trkpt>
      <trkpt lat="44.36418" lon="3.68451">
        <ele>735.6</ele>
        <time>2022-10-29T11:27:05Z</time>
      </trkpt>
      <trkpt lat="44.36411" lon="3.68453">
        <ele>735.4</ele>
        <time>2022-10-29T11:27:06Z</time>
      </trkpt>
      <trkpt lat="44.36403" lon="3.68453">
        <ele>735.4</ele>
        <time>2022-10-29T11:27:07Z</time>
      </trkpt>
      <trkpt lat="44.36396" lon="3.68452">
        <ele>735.2</ele>
        <time>2022-10-29T11:27:08Z</time>
      </trkpt>
      <trkpt lat="44.3639" lon="3.68449">
        <ele>734.8</ele>
        <time>2022-10-29T11:27:09Z</time>
      </trkpt>
      <trkpt lat="44.36383" lon="3.68445">
        <ele>734.6</ele>
        <time>2022-10-29T11:27:10Z</time>
      </trkpt>
      <trkpt lat="44.36376" lon="3.68442">
        <ele>734.2</ele>
        <time>2022-10-29T11:27:11Z</time>
      </trkpt>
      <trkpt lat="44.3637" lon="3.68438">
        <ele>734</ele>
        <time>2022-10-29T11:27:12Z</time>
      </trkpt>
      <trkpt lat="44.36364" lon="3.68435">
        <ele>733.6</ele>
        <time>2022-10-29T11:27:13Z</time>
      </trkpt>
      <trkpt lat="44.36357" lon="3.68433">
        <ele>733.4</ele>
        <time>2022-10-29T11:27:14Z</time>
      </trkpt>
      <trkpt lat="44.36351" lon="3.68431">
        <ele>733.2</ele>
        <time>2022-10-29T11:27:15Z</time>
      </trkpt>
      <trkpt lat="44.36344" lon="3.6843">
        <ele>733</ele>
        <time>2022-10-29T11:27:16Z</time>
      </trkpt>
      <trkpt lat="44.36339" lon="3.68429">
        <ele>733</ele>
        <time>2022-10-29T11:27:17Z</time>
      </trkpt>
      <trkpt lat="44.36333" lon="3.6843">
        <ele>733</ele>
        <time>2022-10-29T11:27:18Z</time>
      </trkpt>
      <trkpt lat="44.36327" lon="3.68432">
        <ele>733</ele>
        <time>2022-10-29T11:27:19Z</time>
      </trkpt>
      <trkpt lat="44.36322" lon="3.68433">
        <ele>732.8</ele>
        <time>2022-10-29T11:27:20Z</time>
      </trkpt>
      <trkpt lat="44.36316" lon="3.68435">
        <ele>732.4</ele>
        <time>2022-10-29T11:27:21Z</time>
      </trkpt>
      <trkpt lat="44.3631" lon="3.68438">
        <ele>732.2</ele>
        <time>2022-10-29T11:27:22Z</time>
      </trkpt>
      <trkpt lat="44.36305" lon="3.68441">
        <ele>732</ele>
        <time>2022-10-29T11:27:23Z</time>
      </trkpt>
      <trkpt lat="44.363" lon="3.68444">
        <ele>731.8</ele>
        <time>2022-10-29T11:27:24Z</time>
      </trkpt>
      <trkpt lat="44.36295" lon="3.68448">
        <ele>731.8</ele>
        <time>2022-10-29T11:27:25Z</time>
      </trkpt>
      <trkpt lat="44.3629" lon="3.68452">
        <ele>731.6</ele>
        <time>2022-10-29T11:27:26Z</time>
      </trkpt>
      <trkpt lat="44.36285" lon="3.68457">
        <ele>731.2</ele>
        <time>2022-10-29T11:27:27Z</time>
      </trkpt>
      <trkpt lat="44.36279" lon="3.68462">
        <ele>731</ele>
        <time>2022-10-29T11:27:28Z</time>
      </trkpt>
      <trkpt lat="44.36273" lon="3.68467">
        <ele>730.8</ele>
        <time>2022-10-29T11:27:29Z</time>
      </trkpt>
      <trkpt lat="44.36267" lon="3.68473">
        <ele>730.6</ele>
        <time>2022-10-29T11:27:30Z</time>
      </trkpt>
      <trkpt lat="44.36261" lon="3.68479">
        <ele>730.4</ele>
        <time>2022-10-29T11:27:31Z</time>
      </trkpt>
      <trkpt lat="44.36255" lon="3.68486">
        <ele>730.2</ele>
        <time>2022-10-29T11:27:32Z</time>
      </trkpt>
      <trkpt lat="44.36249" lon="3.68492">
        <ele>730.2</ele>
        <time>2022-10-29T11:27:33Z</time>
      </trkpt>
      <trkpt lat="44.36244" lon="3.68498">
        <ele>730</ele>
        <time>2022-10-29T11:27:34Z</time>
      </trkpt>
      <trkpt lat="44.36238" lon="3.68504">
        <ele>729.8</ele>
        <time>2022-10-29T11:27:35Z</time>
      </trkpt>
      <trkpt lat="44.36232" lon="3.68509">
        <ele>729.8</ele>
        <time>2022-10-29T11:27:36Z</time>
      </trkpt>
      <trkpt lat="44.36226" lon="3.68515">
        <ele>729.6</ele>
        <time>2022-10-29T11:27:37Z</time>
      </trkpt>
      <trkpt lat="44.36221" lon="3.68521">
        <ele>729.4</ele>
        <time>2022-10-29T11:27:38Z</time>
      </trkpt>
      <trkpt lat="44.36216" lon="3.68527">
        <ele>729.2</ele>
        <time>2022-10-29T11:27:39Z</time>
      </trkpt>
      <trkpt lat="44.3621" lon="3.68534">
        <ele>728.8</ele>
        <time>2022-10-29T11:27:40Z</time>
      </trkpt>
      <trkpt lat="44.36204" lon="3.6854">
        <ele>728.6</ele>
        <time>2022-10-29T11:27:41Z</time>
      </trkpt>
      <trkpt lat="44.36198" lon="3.68546">
        <ele>728.4</ele>
        <time>2022-10-29T11:27:42Z</time>
      </trkpt>
      <trkpt lat="44.36192" lon="3.68551">
        <ele>728.2</ele>
        <time>2022-10-29T11:27:43Z</time>
      </trkpt>
      <trkpt lat="44.36185" lon="3.68554">
        <ele>728</ele>
        <time>2022-10-29T11:27:44Z</time>
      </trkpt>
      <trkpt lat="44.36177" lon="3.68556">
        <ele>727.8</ele>
        <time>2022-10-29T11:27:45Z</time>
      </trkpt>
      <trkpt lat="44.36169" lon="3.68556">
        <ele>727.4</ele>
        <time>2022-10-29T11:27:46Z</time>
      </trkpt>
      <trkpt lat="44.36161" lon="3.68555">
        <ele>727.2</ele>
        <time>2022-10-29T11:27:47Z</time>
      </trkpt>
      <trkpt lat="44.36154" lon="3.68552">
        <ele>727.2</ele>
        <time>2022-10-29T11:27:48Z</time>
      </trkpt>
      <trkpt lat="44.36147" lon="3.68547">
        <ele>727</ele>
        <time>2022-10-29T11:27:49Z</time>
      </trkpt>
      <trkpt lat="44.36141" lon="3.68541">
        <ele>726.8</ele>
        <time>2022-10-29T11:27:50Z</time>
      </trkpt>
      <trkpt lat="44.36136" lon="3.68533">
        <ele>726.8</ele>
        <time>2022-10-29T11:27:51Z</time>
      </trkpt>
      <trkpt lat="44.36133" lon="3.68523">
        <ele>726.6</ele>
        <time>2022-10-29T11:27:52Z</time>
      </trkpt>
      <trkpt lat="44.36132" lon="3.68513">
        <ele>726.6</ele>
        <time>2022-10-29T11:27:53Z</time>
      </trkpt>
      <trkpt lat="44.36132" lon="3.68502">
        <ele>726.8</ele>
        <time>2022-10-29T11:27:54Z</time>
      </trkpt>
      <trkpt lat="44.36133" lon="3.68491">
        <ele>726.8</ele>
        <time>2022-10-29T11:27:55Z</time>
      </trkpt>
      <trkpt lat="44.36134" lon="3.6848">
        <ele>726.6</ele>
        <time>2022-10-29T11:27:56Z</time>
      </trkpt>
      <trkpt lat="44.36135" lon="3.6847">
        <ele>726.6</ele>
        <time>2022-10-29T11:27:57Z</time>
      </trkpt>
      <trkpt lat="44.36136" lon="3.68459">
        <ele>726.6</ele>
        <time>2022-10-29T11:27:58Z</time>
      </trkpt>
      <trkpt lat="44.36137" lon="3.68449">
        <ele>726.4</ele>
        <time>2022-10-29T11:27:59Z</time>
      </trkpt>
      <trkpt lat="44.36137" lon="3.68439">
        <ele>726.2</ele>
        <time>2022-10-29T11:28:00Z</time>
      </trkpt>
      <trkpt lat="44.36139" lon="3.68429">
        <ele>726</ele>
        <time>2022-10-29T11:28:01Z</time>
      </trkpt>
      <trkpt lat="44.36141" lon="3.68419">
        <ele>725.8</ele>
        <time>2022-10-29T11:28:02Z</time>
      </trkpt>
      <trkpt lat="44.36145" lon="3.6841">
        <ele>725.8</ele>
        <time>2022-10-29T11:28:03Z</time>
      </trkpt>
      <trkpt lat="44.36148" lon="3.68401">
        <ele>725.6</ele>
        <time>2022-10-29T11:28:04Z</time>
      </trkpt>
      <trkpt lat="44.36152" lon="3.68391">
        <ele>725.4</ele>
        <time>2022-10-29T11:28:05Z</time>
      </trkpt>
      <trkpt lat="44.36155" lon="3.68381">
        <ele>725.4</ele>
        <time>2022-10-29T11:28:06Z</time>
      </trkpt>
      <trkpt lat="44.36159" lon="3.68371">
        <ele>725.2</ele>
        <time>2022-10-29T11:28:07Z</time>
      </trkpt>
      <trkpt lat="44.36163" lon="3.68362">
        <ele>725</ele>
        <time>2022-10-29T11:28:08Z</time>
      </trkpt>
      <trkpt lat="44.36166" lon="3.68353">
        <ele>725</ele>
        <time>2022-10-29T11:28:09Z</time>
      </trkpt>
      <trkpt lat="44.3617" lon="3.68344">
        <ele>724.8</ele>
        <time>2022-10-29T11:28:10Z</time>
      </trkpt>
      <trkpt lat="44.36174" lon="3.68335">
        <ele>724.8</ele>
        <time>2022-10-29T11:28:11Z</time>
      </trkpt>
      <trkpt lat="44.36178" lon="3.68326">
        <ele>724.6</ele>
        <time>2022-10-29T11:28:12Z</time>
      </trkpt>
      <trkpt lat="44.36182" lon="3.68317">
        <ele>724.2</ele>
        <time>2022-10-29T11:28:13Z</time>
      </trkpt>
      <trkpt lat="44.36185" lon="3.68308">
        <ele>724</ele>
        <time>2022-10-29T11:28:14Z</time>
      </trkpt>
      <trkpt lat="44.36189" lon="3.68298">
        <ele>723.6</ele>
        <time>2022-10-29T11:28:15Z</time>
      </trkpt>
      <trkpt lat="44.36194" lon="3.68289">
        <ele>723.4</ele>
        <time>2022-10-29T11:28:16Z</time>
      </trkpt>
      <trkpt lat="44.36197" lon="3.68279">
        <ele>723.2</ele>
        <time>2022-10-29T11:28:17Z</time>
      </trkpt>
      <trkpt lat="44.36201" lon="3.68269">
        <ele>723</ele>
        <time>2022-10-29T11:28:18Z</time>
      </trkpt>
      <trkpt lat="44.36205" lon="3.68259">
        <ele>722.8</ele>
        <time>2022-10-29T11:28:19Z</time>
      </trkpt>
      <trkpt lat="44.36208" lon="3.6825">
        <ele>722.6</ele>
        <time>2022-10-29T11:28:20Z</time>
      </trkpt>
      <trkpt lat="44.3621" lon="3.6824">
        <ele>722.2</ele>
        <time>2022-10-29T11:28:21Z</time>
      </trkpt>
      <trkpt lat="44.36211" lon="3.68229">
        <ele>722</ele>
        <time>2022-10-29T11:28:22Z</time>
      </trkpt>
      <trkpt lat="44.36212" lon="3.68219">
        <ele>721.8</ele>
        <time>2022-10-29T11:28:23Z</time>
      </trkpt>
      <trkpt lat="44.36213" lon="3.68209">
        <ele>721.6</ele>
        <time>2022-10-29T11:28:24Z</time>
      </trkpt>
      <trkpt lat="44.36213" lon="3.68198">
        <ele>721.4</ele>
        <time>2022-10-29T11:28:25Z</time>
      </trkpt>
      <trkpt lat="44.36213" lon="3.68187">
        <ele>721</ele>
        <time>2022-10-29T11:28:26Z</time>
      </trkpt>
      <trkpt lat="44.36213" lon="3.68177">
        <ele>720.8</ele>
        <time>2022-10-29T11:28:27Z</time>
      </trkpt>
      <trkpt lat="44.36213" lon="3.68167">
        <ele>720.6</ele>
        <time>2022-10-29T11:28:28Z</time>
      </trkpt>
      <trkpt lat="44.36213" lon="3.68157">
        <ele>720.4</ele>
        <time>2022-10-29T11:28:29Z</time>
      </trkpt>
      <trkpt lat="44.36214" lon="3.68147">
        <ele>720.2</ele>
        <time>2022-10-29T11:28:30Z</time>
      </trkpt>
      <trkpt lat="44.36214" lon="3.68136">
        <ele>720</ele>
        <time>2022-10-29T11:28:31Z</time>
      </trkpt>
      <trkpt lat="44.36214" lon="3.68126">
        <ele>719.8</ele>
        <time>2022-10-29T11:28:32Z</time>
      </trkpt>
      <trkpt lat="44.36214" lon="3.68116">
        <ele>719.6</ele>
        <time>2022-10-29T11:28:33Z</time>
      </trkpt>
      <trkpt lat="44.36214" lon="3.68107">
        <ele>719.4</ele>
        <time>2022-10-29T11:28:34Z</time>
      </trkpt>
      <trkpt lat="44.36214" lon="3.68097">
        <ele>719.2</ele>
        <time>2022-10-29T11:28:35Z</time>
      </trkpt>
      <trkpt lat="44.36214" lon="3.68088">
        <ele>719.2</ele>
        <time>2022-10-29T11:28:36Z</time>
      </trkpt>
      <trkpt lat="44.36213" lon="3.68079">
        <ele>719</ele>
        <time>2022-10-29T11:28:37Z</time>
      </trkpt>
      <trkpt lat="44.36211" lon="3.68069">
        <ele>718.8</ele>
        <time>2022-10-29T11:28:38Z</time>
      </trkpt>
      <trkpt lat="44.36207" lon="3.68061">
        <ele>718.8</ele>
        <time>2022-10-29T11:28:39Z</time>
      </trkpt>
      <trkpt lat="44.36203" lon="3.68054">
        <ele>718.6</ele>
        <time>2022-10-29T11:28:40Z</time>
      </trkpt>
      <trkpt lat="44.36198" lon="3.68047">
        <ele>718.6</ele>
        <time>2022-10-29T11:28:41Z</time>
      </trkpt>
      <trkpt lat="44.36194" lon="3.68041">
        <ele>718.4</ele>
        <time>2022-10-29T11:28:42Z</time>
      </trkpt>
      <trkpt lat="44.36189" lon="3.68035">
        <ele>718.2</ele>
        <time>2022-10-29T11:28:43Z</time>
      </trkpt>
      <trkpt lat="44.36183" lon="3.6803">
        <ele>718</ele>
        <time>2022-10-29T11:28:44Z</time>
      </trkpt>
      <trkpt lat="44.36178" lon="3.68025">
        <ele>718</ele>
        <time>2022-10-29T11:28:45Z</time>
      </trkpt>
      <trkpt lat="44.36171" lon="3.68021">
        <ele>717.6</ele>
        <time>2022-10-29T11:28:46Z</time>
      </trkpt>
      <trkpt lat="44.36165" lon="3.68018">
        <ele>717.4</ele>
        <time>2022-10-29T11:28:47Z</time>
      </trkpt>
      <trkpt lat="44.36159" lon="3.68016">
        <ele>717.4</ele>
        <time>2022-10-29T11:28:48Z</time>
      </trkpt>
      <trkpt lat="44.36153" lon="3.68014">
        <ele>717.2</ele>
        <time>2022-10-29T11:28:49Z</time>
      </trkpt>
      <trkpt lat="44.36148" lon="3.68011">
        <ele>716.8</ele>
        <time>2022-10-29T11:28:50Z</time>
      </trkpt>
      <trkpt lat="44.36144" lon="3.68009">
        <ele>716.6</ele>
        <time>2022-10-29T11:28:51Z</time>
      </trkpt>
      <trkpt lat="44.36139" lon="3.68005">
        <ele>716.2</ele>
        <time>2022-10-29T11:28:52Z</time>
      </trkpt>
      <trkpt lat="44.36136" lon="3.68001">
        <ele>715.8</ele>
        <time>2022-10-29T11:28:53Z</time>
      </trkpt>
      <trkpt lat="44.36133" lon="3.67997">
        <ele>715.4</ele>
        <time>2022-10-29T11:28:54Z</time>
      </trkpt>
      <trkpt lat="44.3613" lon="3.67995">
        <ele>715.2</ele>
        <time>2022-10-29T11:28:55Z</time>
      </trkpt>
      <trkpt lat="44.36128" lon="3.67994">
        <ele>715</ele>
        <time>2022-10-29T11:28:56Z</time>
      </trkpt>
      <trkpt lat="44.36127" lon="3.67992">
        <ele>715</ele>
        <time>2022-10-29T11:28:57Z</time>
      </trkpt>
      <trkpt lat="44.36126" lon="3.67991">
        <ele>714.8</ele>
        <time>2022-10-29T11:28:58Z</time>
      </trkpt>
      <trkpt lat="44.36125" lon="3.67989">
        <ele>714.8</ele>
        <time>2022-10-29T11:28:59Z</time>
      </trkpt>
      <trkpt lat="44.36124" lon="3.67988">
        <ele>714.8</ele>
        <time>2022-10-29T11:29:00Z</time>
      </trkpt>
      <trkpt lat="44.36125" lon="3.67986">
        <ele>714.8</ele>
        <time>2022-10-29T11:29:01Z</time>
      </trkpt>
      <trkpt lat="44.36125" lon="3.67985">
        <ele>714.6</ele>
        <time>2022-10-29T11:29:02Z</time>
      </trkpt>
      <trkpt lat="44.36125" lon="3.67982">
        <ele>714.6</ele>
        <time>2022-10-29T11:29:03Z</time>
      </trkpt>
      <trkpt lat="44.36126" lon="3.67979">
        <ele>714.6</ele>
        <time>2022-10-29T11:29:04Z</time>
      </trkpt>
      <trkpt lat="44.36126" lon="3.67975">
        <ele>714.4</ele>
        <time>2022-10-29T11:29:05Z</time>
      </trkpt>
      <trkpt lat="44.36125" lon="3.67969">
        <ele>714.4</ele>
        <time>2022-10-29T11:29:06Z</time>
      </trkpt>
      <trkpt lat="44.36125" lon="3.67964">
        <ele>714.6</ele>
        <time>2022-10-29T11:29:07Z</time>
      </trkpt>
      <trkpt lat="44.36123" lon="3.67958">
        <ele>714.4</ele>
        <time>2022-10-29T11:29:08Z</time>
      </trkpt>
      <trkpt lat="44.36122" lon="3.67951">
        <ele>714.4</ele>
        <time>2022-10-29T11:29:09Z</time>
      </trkpt>
      <trkpt lat="44.3612" lon="3.67945">
        <ele>714.4</ele>
        <time>2022-10-29T11:29:10Z</time>
      </trkpt>
      <trkpt lat="44.36118" lon="3.67938">
        <ele>714.4</ele>
        <time>2022-10-29T11:29:11Z</time>
      </trkpt>
      <trkpt lat="44.36115" lon="3.67932">
        <ele>714.2</ele>
        <time>2022-10-29T11:29:12Z</time>
      </trkpt>
      <trkpt lat="44.36112" lon="3.67926">
        <ele>714</ele>
        <time>2022-10-29T11:29:13Z</time>
      </trkpt>
      <trkpt lat="44.36109" lon="3.67919">
        <ele>713.8</ele>
        <time>2022-10-29T11:29:14Z</time>
      </trkpt>
      <trkpt lat="44.36106" lon="3.67912">
        <ele>713.8</ele>
        <time>2022-10-29T11:29:15Z</time>
      </trkpt>
      <trkpt lat="44.36102" lon="3.67905">
        <ele>713.6</ele>
        <time>2022-10-29T11:29:16Z</time>
      </trkpt>
      <trkpt lat="44.36099" lon="3.67898">
        <ele>713.6</ele>
        <time>2022-10-29T11:29:17Z</time>
      </trkpt>
      <trkpt lat="44.36096" lon="3.6789">
        <ele>713.2</ele>
        <time>2022-10-29T11:29:18Z</time>
      </trkpt>
      <trkpt lat="44.36093" lon="3.67882">
        <ele>713.2</ele>
        <time>2022-10-29T11:29:19Z</time>
      </trkpt>
      <trkpt lat="44.3609" lon="3.67875">
        <ele>713</ele>
        <time>2022-10-29T11:29:20Z</time>
      </trkpt>
      <trkpt lat="44.36087" lon="3.67866">
        <ele>712.8</ele>
        <time>2022-10-29T11:29:21Z</time>
      </trkpt>
      <trkpt lat="44.36084" lon="3.67858">
        <ele>712.8</ele>
        <time>2022-10-29T11:29:22Z</time>
      </trkpt>
      <trkpt lat="44.36082" lon="3.6785">
        <ele>712.6</ele>
        <time>2022-10-29T11:29:23Z</time>
      </trkpt>
      <trkpt lat="44.36079" lon="3.67842">
        <ele>712.4</ele>
        <time>2022-10-29T11:29:24Z</time>
      </trkpt>
      <trkpt lat="44.36077" lon="3.67834">
        <ele>712.4</ele>
        <time>2022-10-29T11:29:25Z</time>
      </trkpt>
      <trkpt lat="44.36075" lon="3.67826">
        <ele>712.2</ele>
        <time>2022-10-29T11:29:26Z</time>
      </trkpt>
      <trkpt lat="44.36073" lon="3.67818">
        <ele>712.2</ele>
        <time>2022-10-29T11:29:27Z</time>
      </trkpt>
      <trkpt lat="44.36071" lon="3.67809">
        <ele>712</ele>
        <time>2022-10-29T11:29:28Z</time>
      </trkpt>
      <trkpt lat="44.36069" lon="3.67801">
        <ele>712</ele>
        <time>2022-10-29T11:29:29Z</time>
      </trkpt>
      <trkpt lat="44.36069" lon="3.67792">
        <ele>711.8</ele>
        <time>2022-10-29T11:29:30Z</time>
      </trkpt>
      <trkpt lat="44.36069" lon="3.67782">
        <ele>711.8</ele>
        <time>2022-10-29T11:29:31Z</time>
      </trkpt>
      <trkpt lat="44.3607" lon="3.67773">
        <ele>711.8</ele>
        <time>2022-10-29T11:29:32Z</time>
      </trkpt>
      <trkpt lat="44.36073" lon="3.67764">
        <ele>711.8</ele>
        <time>2022-10-29T11:29:33Z</time>
      </trkpt>
      <trkpt lat="44.36075" lon="3.67755">
        <ele>711.6</ele>
        <time>2022-10-29T11:29:34Z</time>
      </trkpt>
      <trkpt lat="44.36079" lon="3.67747">
        <ele>711.6</ele>
        <time>2022-10-29T11:29:35Z</time>
      </trkpt>
      <trkpt lat="44.36082" lon="3.67739">
        <ele>711.4</ele>
        <time>2022-10-29T11:29:36Z</time>
      </trkpt>
      <trkpt lat="44.36086" lon="3.6773">
        <ele>711.2</ele>
        <time>2022-10-29T11:29:37Z</time>
      </trkpt>
      <trkpt lat="44.36089" lon="3.67722">
        <ele>711.2</ele>
        <time>2022-10-29T11:29:38Z</time>
      </trkpt>
      <trkpt lat="44.36093" lon="3.67714">
        <ele>711.2</ele>
        <time>2022-10-29T11:29:39Z</time>
      </trkpt>
      <trkpt lat="44.36097" lon="3.67706">
        <ele>711</ele>
        <time>2022-10-29T11:29:40Z</time>
      </trkpt>
      <trkpt lat="44.36102" lon="3.67699">
        <ele>711</ele>
        <time>2022-10-29T11:29:41Z</time>
      </trkpt>
      <trkpt lat="44.36107" lon="3.67691">
        <ele>710.6</ele>
        <time>2022-10-29T11:29:42Z</time>
      </trkpt>
      <trkpt lat="44.36112" lon="3.67685">
        <ele>710.4</ele>
        <time>2022-10-29T11:29:43Z</time>
      </trkpt>
      <trkpt lat="44.36116" lon="3.67677">
        <ele>710.4</ele>
        <time>2022-10-29T11:29:44Z</time>
      </trkpt>
      <trkpt lat="44.3612" lon="3.6767">
        <ele>710.2</ele>
        <time>2022-10-29T11:29:45Z</time>
      </trkpt>
      <trkpt lat="44.36124" lon="3.67662">
        <ele>710.2</ele>
        <time>2022-10-29T11:29:46Z</time>
      </trkpt>
      <trkpt lat="44.36128" lon="3.67652">
        <ele>710</ele>
        <time>2022-10-29T11:29:47Z</time>
      </trkpt>
      <trkpt lat="44.36131" lon="3.67643">
        <ele>710</ele>
        <time>2022-10-29T11:29:48Z</time>
      </trkpt>
      <trkpt lat="44.36134" lon="3.67634">
        <ele>709.8</ele>
        <time>2022-10-29T11:29:49Z</time>
      </trkpt>
      <trkpt lat="44.36137" lon="3.67625">
        <ele>709.6</ele>
        <time>2022-10-29T11:29:50Z</time>
      </trkpt>
      <trkpt lat="44.3614" lon="3.67616">
        <ele>709.6</ele>
        <time>2022-10-29T11:29:51Z</time>
      </trkpt>
      <trkpt lat="44.36143" lon="3.67607">
        <ele>709.4</ele>
        <time>2022-10-29T11:29:52Z</time>
      </trkpt>
      <trkpt lat="44.36147" lon="3.67598">
        <ele>709.4</ele>
        <time>2022-10-29T11:29:53Z</time>
      </trkpt>
      <trkpt lat="44.36151" lon="3.6759">
        <ele>709.2</ele>
        <time>2022-10-29T11:29:54Z</time>
      </trkpt>
      <trkpt lat="44.36155" lon="3.67581">
        <ele>709</ele>
        <time>2022-10-29T11:29:55Z</time>
      </trkpt>
      <trkpt lat="44.36159" lon="3.67572">
        <ele>708.8</ele>
        <time>2022-10-29T11:29:56Z</time>
      </trkpt>
      <trkpt lat="44.36162" lon="3.67562">
        <ele>708.6</ele>
        <time>2022-10-29T11:29:57Z</time>
      </trkpt>
      <trkpt lat="44.36166" lon="3.67553">
        <ele>708.4</ele>
        <time>2022-10-29T11:29:58Z</time>
      </trkpt>
      <trkpt lat="44.36169" lon="3.67543">
        <ele>708.2</ele>
        <time>2022-10-29T11:29:59Z</time>
      </trkpt>
      <trkpt lat="44.36172" lon="3.67534">
        <ele>708</ele>
        <time>2022-10-29T11:30:00Z</time>
      </trkpt>
      <trkpt lat="44.36175" lon="3.67524">
        <ele>707.6</ele>
        <time>2022-10-29T11:30:01Z</time>
      </trkpt>
      <trkpt lat="44.36178" lon="3.67514">
        <ele>707.4</ele>
        <time>2022-10-29T11:30:02Z</time>
      </trkpt>
      <trkpt lat="44.36181" lon="3.67505">
        <ele>707.2</ele>
        <time>2022-10-29T11:30:03Z</time>
      </trkpt>
      <trkpt lat="44.36184" lon="3.67496">
        <ele>707</ele>
        <time>2022-10-29T11:30:04Z</time>
      </trkpt>
      <trkpt lat="44.36187" lon="3.67486">
        <ele>706.8</ele>
        <time>2022-10-29T11:30:05Z</time>
      </trkpt>
      <trkpt lat="44.3619" lon="3.67476">
        <ele>706.6</ele>
        <time>2022-10-29T11:30:06Z</time>
      </trkpt>
      <trkpt lat="44.36192" lon="3.67466">
        <ele>706.4</ele>
        <time>2022-10-29T11:30:07Z</time>
      </trkpt>
      <trkpt lat="44.36194" lon="3.67456">
        <ele>706.2</ele>
        <time>2022-10-29T11:30:08Z</time>
      </trkpt>
      <trkpt lat="44.36195" lon="3.67446">
        <ele>706</ele>
        <time>2022-10-29T11:30:09Z</time>
      </trkpt>
      <trkpt lat="44.36196" lon="3.67435">
        <ele>705.8</ele>
        <time>2022-10-29T11:30:10Z</time>
      </trkpt>
      <trkpt lat="44.36198" lon="3.67426">
        <ele>705.6</ele>
        <time>2022-10-29T11:30:11Z</time>
      </trkpt>
      <trkpt lat="44.362" lon="3.67415">
        <ele>705.4</ele>
        <time>2022-10-29T11:30:12Z</time>
      </trkpt>
      <trkpt lat="44.36203" lon="3.67405">
        <ele>705.2</ele>
        <time>2022-10-29T11:30:13Z</time>
      </trkpt>
      <trkpt lat="44.36207" lon="3.67395">
        <ele>705</ele>
        <time>2022-10-29T11:30:14Z</time>
      </trkpt>
      <trkpt lat="44.3621" lon="3.67385">
        <ele>704.8</ele>
        <time>2022-10-29T11:30:15Z</time>
      </trkpt>
      <trkpt lat="44.36213" lon="3.67376">
        <ele>704.6</ele>
        <time>2022-10-29T11:30:16Z</time>
      </trkpt>
      <trkpt lat="44.36217" lon="3.67367">
        <ele>704.4</ele>
        <time>2022-10-29T11:30:17Z</time>
      </trkpt>
      <trkpt lat="44.3622" lon="3.67358">
        <ele>704.2</ele>
        <time>2022-10-29T11:30:18Z</time>
      </trkpt>
      <trkpt lat="44.36223" lon="3.67348">
        <ele>704</ele>
        <time>2022-10-29T11:30:19Z</time>
      </trkpt>
      <trkpt lat="44.36227" lon="3.67339">
        <ele>703.8</ele>
        <time>2022-10-29T11:30:20Z</time>
      </trkpt>
      <trkpt lat="44.36231" lon="3.6733">
        <ele>703.6</ele>
        <time>2022-10-29T11:30:21Z</time>
      </trkpt>
      <trkpt lat="44.36235" lon="3.67322">
        <ele>703.4</ele>
        <time>2022-10-29T11:30:22Z</time>
      </trkpt>
      <trkpt lat="44.3624" lon="3.67314">
        <ele>703.2</ele>
        <time>2022-10-29T11:30:23Z</time>
      </trkpt>
      <trkpt lat="44.36245" lon="3.67307">
        <ele>703</ele>
        <time>2022-10-29T11:30:24Z</time>
      </trkpt>
      <trkpt lat="44.3625" lon="3.673">
        <ele>702.6</ele>
        <time>2022-10-29T11:30:25Z</time>
      </trkpt>
      <trkpt lat="44.36254" lon="3.67292">
        <ele>702.6</ele>
        <time>2022-10-29T11:30:26Z</time>
      </trkpt>
      <trkpt lat="44.36259" lon="3.67285">
        <ele>702.4</ele>
        <time>2022-10-29T11:30:27Z</time>
      </trkpt>
      <trkpt lat="44.36263" lon="3.67278">
        <ele>702.2</ele>
        <time>2022-10-29T11:30:28Z</time>
      </trkpt>
      <trkpt lat="44.36267" lon="3.6727">
        <ele>702.2</ele>
        <time>2022-10-29T11:30:29Z</time>
      </trkpt>
      <trkpt lat="44.36269" lon="3.67261">
        <ele>702</ele>
        <time>2022-10-29T11:30:30Z</time>
      </trkpt>
      <trkpt lat="44.3627" lon="3.67252">
        <ele>701.8</ele>
        <time>2022-10-29T11:30:31Z</time>
      </trkpt>
      <trkpt lat="44.3627" lon="3.67243">
        <ele>701.6</ele>
        <time>2022-10-29T11:30:32Z</time>
      </trkpt>
      <trkpt lat="44.36268" lon="3.67235">
        <ele>701.4</ele>
        <time>2022-10-29T11:30:33Z</time>
      </trkpt>
      <trkpt lat="44.36266" lon="3.67227">
        <ele>701.2</ele>
        <time>2022-10-29T11:30:34Z</time>
      </trkpt>
      <trkpt lat="44.36264" lon="3.67219">
        <ele>701</ele>
        <time>2022-10-29T11:30:35Z</time>
      </trkpt>
      <trkpt lat="44.36261" lon="3.67211">
        <ele>700.6</ele>
        <time>2022-10-29T11:30:36Z</time>
      </trkpt>
      <trkpt lat="44.36257" lon="3.67203">
        <ele>700.4</ele>
        <time>2022-10-29T11:30:37Z</time>
      </trkpt>
      <trkpt lat="44.36254" lon="3.67195">
        <ele>700.2</ele>
        <time>2022-10-29T11:30:38Z</time>
      </trkpt>
      <trkpt lat="44.36251" lon="3.67186">
        <ele>700</ele>
        <time>2022-10-29T11:30:39Z</time>
      </trkpt>
      <trkpt lat="44.36248" lon="3.67177">
        <ele>699.8</ele>
        <time>2022-10-29T11:30:40Z</time>
      </trkpt>
      <trkpt lat="44.36244" lon="3.67168">
        <ele>699.4</ele>
        <time>2022-10-29T11:30:41Z</time>
      </trkpt>
      <trkpt lat="44.36241" lon="3.67159">
        <ele>699.2</ele>
        <time>2022-10-29T11:30:42Z</time>
      </trkpt>
      <trkpt lat="44.36238" lon="3.6715">
        <ele>698.8</ele>
        <time>2022-10-29T11:30:43Z</time>
      </trkpt>
      <trkpt lat="44.36234" lon="3.67141">
        <ele>698.6</ele>
        <time>2022-10-29T11:30:44Z</time>
      </trkpt>
      <trkpt lat="44.36231" lon="3.67132">
        <ele>698.4</ele>
        <time>2022-10-29T11:30:45Z</time>
      </trkpt>
      <trkpt lat="44.36228" lon="3.67123">
        <ele>698.2</ele>
        <time>2022-10-29T11:30:46Z</time>
      </trkpt>
      <trkpt lat="44.36224" lon="3.67114">
        <ele>698</ele>
        <time>2022-10-29T11:30:47Z</time>
      </trkpt>
      <trkpt lat="44.36219" lon="3.67106">
        <ele>697.8</ele>
        <time>2022-10-29T11:30:48Z</time>
      </trkpt>
      <trkpt lat="44.36213" lon="3.67099">
        <ele>697.4</ele>
        <time>2022-10-29T11:30:49Z</time>
      </trkpt>
      <trkpt lat="44.36208" lon="3.67092">
        <ele>697.2</ele>
        <time>2022-10-29T11:30:50Z</time>
      </trkpt>
      <trkpt lat="44.36202" lon="3.67085">
        <ele>696.8</ele>
        <time>2022-10-29T11:30:51Z</time>
      </trkpt>
      <trkpt lat="44.36197" lon="3.67078">
        <ele>696.6</ele>
        <time>2022-10-29T11:30:52Z</time>
      </trkpt>
      <trkpt lat="44.3619" lon="3.6707">
        <ele>696.4</ele>
        <time>2022-10-29T11:30:53Z</time>
      </trkpt>
      <trkpt lat="44.36184" lon="3.67063">
        <ele>696.2</ele>
        <time>2022-10-29T11:30:54Z</time>
      </trkpt>
      <trkpt lat="44.36178" lon="3.67056">
        <ele>695.8</ele>
        <time>2022-10-29T11:30:55Z</time>
      </trkpt>
      <trkpt lat="44.36172" lon="3.67049">
        <ele>695.6</ele>
        <time>2022-10-29T11:30:56Z</time>
      </trkpt>
      <trkpt lat="44.36166" lon="3.67042">
        <ele>695.4</ele>
        <time>2022-10-29T11:30:57Z</time>
      </trkpt>
      <trkpt lat="44.3616" lon="3.67035">
        <ele>695</ele>
        <time>2022-10-29T11:30:58Z</time>
      </trkpt>
      <trkpt lat="44.36154" lon="3.67028">
        <ele>694.8</ele>
        <time>2022-10-29T11:30:59Z</time>
      </trkpt>
      <trkpt lat="44.36148" lon="3.67022">
        <ele>694.6</ele>
        <time>2022-10-29T11:31:00Z</time>
      </trkpt>
      <trkpt lat="44.36143" lon="3.67015">
        <ele>694.4</ele>
        <time>2022-10-29T11:31:01Z</time>
      </trkpt>
      <trkpt lat="44.36136" lon="3.67009">
        <ele>694.2</ele>
        <time>2022-10-29T11:31:02Z</time>
      </trkpt>
      <trkpt lat="44.3613" lon="3.67003">
        <ele>694.2</ele>
        <time>2022-10-29T11:31:03Z</time>
      </trkpt>
      <trkpt lat="44.36123" lon="3.66998">
        <ele>694</ele>
        <time>2022-10-29T11:31:04Z</time>
      </trkpt>
      <trkpt lat="44.36116" lon="3.66993">
        <ele>694</ele>
        <time>2022-10-29T11:31:05Z</time>
      </trkpt>
      <trkpt lat="44.3611" lon="3.6699">
        <ele>694</ele>
        <time>2022-10-29T11:31:06Z</time>
      </trkpt>
      <trkpt lat="44.36103" lon="3.66987">
        <ele>694</ele>
        <time>2022-10-29T11:31:07Z</time>
      </trkpt>
      <trkpt lat="44.36096" lon="3.66984">
        <ele>694</ele>
        <time>2022-10-29T11:31:08Z</time>
      </trkpt>
      <trkpt lat="44.36088" lon="3.66983">
        <ele>694</ele>
        <time>2022-10-29T11:31:09Z</time>
      </trkpt>
      <trkpt lat="44.36082" lon="3.66982">
        <ele>693.6</ele>
        <time>2022-10-29T11:31:10Z</time>
      </trkpt>
      <trkpt lat="44.36075" lon="3.66982">
        <ele>693.6</ele>
        <time>2022-10-29T11:31:11Z</time>
      </trkpt>
      <trkpt lat="44.36068" lon="3.66983">
        <ele>693.2</ele>
        <time>2022-10-29T11:31:12Z</time>
      </trkpt>
      <trkpt lat="44.36061" lon="3.66983">
        <ele>693</ele>
        <time>2022-10-29T11:31:13Z</time>
      </trkpt>
      <trkpt lat="44.36054" lon="3.66983">
        <ele>692.8</ele>
        <time>2022-10-29T11:31:14Z</time>
      </trkpt>
      <trkpt lat="44.36047" lon="3.66981">
        <ele>692.6</ele>
        <time>2022-10-29T11:31:15Z</time>
      </trkpt>
      <trkpt lat="44.36039" lon="3.66979">
        <ele>692.6</ele>
        <time>2022-10-29T11:31:16Z</time>
      </trkpt>
      <trkpt lat="44.36032" lon="3.66976">
        <ele>692.4</ele>
        <time>2022-10-29T11:31:17Z</time>
      </trkpt>
      <trkpt lat="44.36025" lon="3.66973">
        <ele>692.4</ele>
        <time>2022-10-29T11:31:18Z</time>
      </trkpt>
      <trkpt lat="44.36019" lon="3.6697">
        <ele>692.2</ele>
        <time>2022-10-29T11:31:19Z</time>
      </trkpt>
      <trkpt lat="44.36012" lon="3.66967">
        <ele>691.8</ele>
        <time>2022-10-29T11:31:20Z</time>
      </trkpt>
      <trkpt lat="44.36006" lon="3.66964">
        <ele>691.8</ele>
        <time>2022-10-29T11:31:21Z</time>
      </trkpt>
      <trkpt lat="44.35999" lon="3.66962">
        <ele>691.6</ele>
        <time>2022-10-29T11:31:22Z</time>
      </trkpt>
      <trkpt lat="44.35992" lon="3.66959">
        <ele>691.4</ele>
        <time>2022-10-29T11:31:23Z</time>
      </trkpt>
      <trkpt lat="44.35986" lon="3.66956">
        <ele>691.2</ele>
        <time>2022-10-29T11:31:24Z</time>
      </trkpt>
      <trkpt lat="44.3598" lon="3.66953">
        <ele>691</ele>
        <time>2022-10-29T11:31:25Z</time>
      </trkpt>
      <trkpt lat="44.35973" lon="3.66949">
        <ele>690.8</ele>
        <time>2022-10-29T11:31:26Z</time>
      </trkpt>
      <trkpt lat="44.35967" lon="3.66945">
        <ele>690.6</ele>
        <time>2022-10-29T11:31:27Z</time>
      </trkpt>
      <trkpt lat="44.35961" lon="3.66939">
        <ele>690.4</ele>
        <time>2022-10-29T11:31:28Z</time>
      </trkpt>
      <trkpt lat="44.35955" lon="3.66933">
        <ele>690.4</ele>
        <time>2022-10-29T11:31:29Z</time>
      </trkpt>
      <trkpt lat="44.3595" lon="3.66926">
        <ele>690.2</ele>
        <time>2022-10-29T11:31:30Z</time>
      </trkpt>
      <trkpt lat="44.35945" lon="3.66919">
        <ele>690.2</ele>
        <time>2022-10-29T11:31:31Z</time>
      </trkpt>
      <trkpt lat="44.35941" lon="3.66912">
        <ele>690.2</ele>
        <time>2022-10-29T11:31:32Z</time>
      </trkpt>
      <trkpt lat="44.35936" lon="3.66905">
        <ele>690.2</ele>
        <time>2022-10-29T11:31:33Z</time>
      </trkpt>
      <trkpt lat="44.3593" lon="3.669">
        <ele>690</ele>
        <time>2022-10-29T11:31:34Z</time>
      </trkpt>
      <trkpt lat="44.35924" lon="3.66896">
        <ele>689.8</ele>
        <time>2022-10-29T11:31:35Z</time>
      </trkpt>
      <trkpt lat="44.35918" lon="3.66893">
        <ele>689.6</ele>
        <time>2022-10-29T11:31:36Z</time>
      </trkpt>
      <trkpt lat="44.35912" lon="3.66889">
        <ele>689.6</ele>
        <time>2022-10-29T11:31:37Z</time>
      </trkpt>
      <trkpt lat="44.35905" lon="3.66886">
        <ele>689.4</ele>
        <time>2022-10-29T11:31:38Z</time>
      </trkpt>
      <trkpt lat="44.35899" lon="3.66883">
        <ele>689.4</ele>
        <time>2022-10-29T11:31:39Z</time>
      </trkpt>
      <trkpt lat="44.35893" lon="3.66881">
        <ele>689.2</ele>
        <time>2022-10-29T11:31:40Z</time>
      </trkpt>
      <trkpt lat="44.35886" lon="3.66879">
        <ele>689.2</ele>
        <time>2022-10-29T11:31:41Z</time>
      </trkpt>
      <trkpt lat="44.35879" lon="3.66878">
        <ele>689</ele>
        <time>2022-10-29T11:31:42Z</time>
      </trkpt>
      <trkpt lat="44.35873" lon="3.66877">
        <ele>688.8</ele>
        <time>2022-10-29T11:31:43Z</time>
      </trkpt>
      <trkpt lat="44.35866" lon="3.66877">
        <ele>688.6</ele>
        <time>2022-10-29T11:31:44Z</time>
      </trkpt>
      <trkpt lat="44.35859" lon="3.66876">
        <ele>688.6</ele>
        <time>2022-10-29T11:31:45Z</time>
      </trkpt>
      <trkpt lat="44.35853" lon="3.66875">
        <ele>688.4</ele>
        <time>2022-10-29T11:31:46Z</time>
      </trkpt>
      <trkpt lat="44.35847" lon="3.66873">
        <ele>688.4</ele>
        <time>2022-10-29T11:31:47Z</time>
      </trkpt>
      <trkpt lat="44.35841" lon="3.6687">
        <ele>688.2</ele>
        <time>2022-10-29T11:31:48Z</time>
      </trkpt>
      <trkpt lat="44.35836" lon="3.66865">
        <ele>688.2</ele>
        <time>2022-10-29T11:31:49Z</time>
      </trkpt>
      <trkpt lat="44.35831" lon="3.6686">
        <ele>688.2</ele>
        <time>2022-10-29T11:31:50Z</time>
      </trkpt>
      <trkpt lat="44.35826" lon="3.66854">
        <ele>688</ele>
        <time>2022-10-29T11:31:51Z</time>
      </trkpt>
      <trkpt lat="44.35821" lon="3.66848">
        <ele>688</ele>
        <time>2022-10-29T11:31:52Z</time>
      </trkpt>
      <trkpt lat="44.35816" lon="3.66842">
        <ele>688</ele>
        <time>2022-10-29T11:31:53Z</time>
      </trkpt>
      <trkpt lat="44.35812" lon="3.66836">
        <ele>688</ele>
        <time>2022-10-29T11:31:54Z</time>
      </trkpt>
      <trkpt lat="44.35807" lon="3.66831">
        <ele>687.8</ele>
        <time>2022-10-29T11:31:55Z</time>
      </trkpt>
      <trkpt lat="44.35801" lon="3.66827">
        <ele>688</ele>
        <time>2022-10-29T11:31:56Z</time>
      </trkpt>
      <trkpt lat="44.35795" lon="3.66823">
        <ele>687.8</ele>
        <time>2022-10-29T11:31:57Z</time>
      </trkpt>
      <trkpt lat="44.3579" lon="3.6682">
        <ele>687.8</ele>
        <time>2022-10-29T11:31:58Z</time>
      </trkpt>
      <trkpt lat="44.35784" lon="3.66817">
        <ele>687.8</ele>
        <time>2022-10-29T11:31:59Z</time>
      </trkpt>
      <trkpt lat="44.35779" lon="3.66814">
        <ele>687.8</ele>
        <time>2022-10-29T11:32:00Z</time>
      </trkpt>
      <trkpt lat="44.35773" lon="3.66811">
        <ele>687.6</ele>
        <time>2022-10-29T11:32:01Z</time>
      </trkpt>
      <trkpt lat="44.35767" lon="3.66809">
        <ele>687.6</ele>
        <time>2022-10-29T11:32:02Z</time>
      </trkpt>
      <trkpt lat="44.35761" lon="3.66806">
        <ele>687.6</ele>
        <time>2022-10-29T11:32:03Z</time>
      </trkpt>
      <trkpt lat="44.35756" lon="3.66803">
        <ele>687.4</ele>
        <time>2022-10-29T11:32:04Z</time>
      </trkpt>
      <trkpt lat="44.3575" lon="3.668">
        <ele>687.4</ele>
        <time>2022-10-29T11:32:05Z</time>
      </trkpt>
      <trkpt lat="44.35744" lon="3.66797">
        <ele>687.2</ele>
        <time>2022-10-29T11:32:06Z</time>
      </trkpt>
      <trkpt lat="44.35739" lon="3.66793">
        <ele>687.2</ele>
        <time>2022-10-29T11:32:07Z</time>
      </trkpt>
      <trkpt lat="44.35734" lon="3.66788">
        <ele>687</ele>
        <time>2022-10-29T11:32:08Z</time>
      </trkpt>
      <trkpt lat="44.35729" lon="3.66784">
        <ele>687</ele>
        <time>2022-10-29T11:32:09Z</time>
      </trkpt>
      <trkpt lat="44.35725" lon="3.66779">
        <ele>686.8</ele>
        <time>2022-10-29T11:32:10Z</time>
      </trkpt>
      <trkpt lat="44.35721" lon="3.66773">
        <ele>686.8</ele>
        <time>2022-10-29T11:32:11Z</time>
      </trkpt>
      <trkpt lat="44.35717" lon="3.66767">
        <ele>686.8</ele>
        <time>2022-10-29T11:32:12Z</time>
      </trkpt>
      <trkpt lat="44.35713" lon="3.66761">
        <ele>686.6</ele>
        <time>2022-10-29T11:32:13Z</time>
      </trkpt>
      <trkpt lat="44.35711" lon="3.66754">
        <ele>686.6</ele>
        <time>2022-10-29T11:32:14Z</time>
      </trkpt>
      <trkpt lat="44.35708" lon="3.66746">
        <ele>686.4</ele>
        <time>2022-10-29T11:32:15Z</time>
      </trkpt>
      <trkpt lat="44.35707" lon="3.66738">
        <ele>686.4</ele>
        <time>2022-10-29T11:32:16Z</time>
      </trkpt>
      <trkpt lat="44.35706" lon="3.66731">
        <ele>686.4</ele>
        <time>2022-10-29T11:32:17Z</time>
      </trkpt>
      <trkpt lat="44.35706" lon="3.66722">
        <ele>686.2</ele>
        <time>2022-10-29T11:32:18Z</time>
      </trkpt>
      <trkpt lat="44.35707" lon="3.66713">
        <ele>686.2</ele>
        <time>2022-10-29T11:32:19Z</time>
      </trkpt>
      <trkpt lat="44.35707" lon="3.66704">
        <ele>686</ele>
        <time>2022-10-29T11:32:20Z</time>
      </trkpt>
      <trkpt lat="44.35708" lon="3.66695">
        <ele>685.8</ele>
        <time>2022-10-29T11:32:21Z</time>
      </trkpt>
      <trkpt lat="44.35708" lon="3.66687">
        <ele>685.6</ele>
        <time>2022-10-29T11:32:22Z</time>
      </trkpt>
      <trkpt lat="44.35709" lon="3.66678">
        <ele>685.4</ele>
        <time>2022-10-29T11:32:23Z</time>
      </trkpt>
      <trkpt lat="44.35709" lon="3.66669">
        <ele>685.4</ele>
        <time>2022-10-29T11:32:24Z</time>
      </trkpt>
      <trkpt lat="44.3571" lon="3.6666">
        <ele>685.2</ele>
        <time>2022-10-29T11:32:25Z</time>
      </trkpt>
      <trkpt lat="44.35711" lon="3.66651">
        <ele>685.2</ele>
        <time>2022-10-29T11:32:26Z</time>
      </trkpt>
      <trkpt lat="44.35711" lon="3.66642">
        <ele>685</ele>
        <time>2022-10-29T11:32:27Z</time>
      </trkpt>
      <trkpt lat="44.35712" lon="3.66634">
        <ele>685</ele>
        <time>2022-10-29T11:32:28Z</time>
      </trkpt>
      <trkpt lat="44.35713" lon="3.66625">
        <ele>685</ele>
        <time>2022-10-29T11:32:29Z</time>
      </trkpt>
      <trkpt lat="44.35713" lon="3.66615">
        <ele>684.8</ele>
        <time>2022-10-29T11:32:30Z</time>
      </trkpt>
      <trkpt lat="44.35713" lon="3.66606">
        <ele>684.8</ele>
        <time>2022-10-29T11:32:31Z</time>
      </trkpt>
      <trkpt lat="44.35713" lon="3.66596">
        <ele>684.8</ele>
        <time>2022-10-29T11:32:32Z</time>
      </trkpt>
      <trkpt lat="44.35713" lon="3.66587">
        <ele>684.8</ele>
        <time>2022-10-29T11:32:33Z</time>
      </trkpt>
      <trkpt lat="44.35712" lon="3.66578">
        <ele>684.6</ele>
        <time>2022-10-29T11:32:34Z</time>
      </trkpt>
      <trkpt lat="44.3571" lon="3.66568">
        <ele>684.6</ele>
        <time>2022-10-29T11:32:35Z</time>
      </trkpt>
      <trkpt lat="44.35709" lon="3.66559">
        <ele>684.4</ele>
        <time>2022-10-29T11:32:36Z</time>
      </trkpt>
      <trkpt lat="44.35707" lon="3.6655">
        <ele>684.4</ele>
        <time>2022-10-29T11:32:37Z</time>
      </trkpt>
      <trkpt lat="44.35705" lon="3.66541">
        <ele>684.2</ele>
        <time>2022-10-29T11:32:38Z</time>
      </trkpt>
      <trkpt lat="44.35703" lon="3.66533">
        <ele>684</ele>
        <time>2022-10-29T11:32:39Z</time>
      </trkpt>
      <trkpt lat="44.35701" lon="3.66524">
        <ele>684</ele>
        <time>2022-10-29T11:32:40Z</time>
      </trkpt>
      <trkpt lat="44.357" lon="3.66514">
        <ele>683.8</ele>
        <time>2022-10-29T11:32:41Z</time>
      </trkpt>
      <trkpt lat="44.35699" lon="3.66505">
        <ele>683.6</ele>
        <time>2022-10-29T11:32:42Z</time>
      </trkpt>
      <trkpt lat="44.35698" lon="3.66495">
        <ele>683.6</ele>
        <time>2022-10-29T11:32:43Z</time>
      </trkpt>
      <trkpt lat="44.35699" lon="3.66485">
        <ele>683.4</ele>
        <time>2022-10-29T11:32:44Z</time>
      </trkpt>
      <trkpt lat="44.357" lon="3.66475">
        <ele>683.4</ele>
        <time>2022-10-29T11:32:45Z</time>
      </trkpt>
      <trkpt lat="44.357" lon="3.66466">
        <ele>683.2</ele>
        <time>2022-10-29T11:32:46Z</time>
      </trkpt>
      <trkpt lat="44.35702" lon="3.66457">
        <ele>683.2</ele>
        <time>2022-10-29T11:32:47Z</time>
      </trkpt>
      <trkpt lat="44.35702" lon="3.66448">
        <ele>683.2</ele>
        <time>2022-10-29T11:32:48Z</time>
      </trkpt>
      <trkpt lat="44.35703" lon="3.66439">
        <ele>683.2</ele>
        <time>2022-10-29T11:32:49Z</time>
      </trkpt>
      <trkpt lat="44.35704" lon="3.6643">
        <ele>683.2</ele>
        <time>2022-10-29T11:32:50Z</time>
      </trkpt>
      <trkpt lat="44.35705" lon="3.66421">
        <ele>683.2</ele>
        <time>2022-10-29T11:32:51Z</time>
      </trkpt>
      <trkpt lat="44.35706" lon="3.66412">
        <ele>683.2</ele>
        <time>2022-10-29T11:32:52Z</time>
      </trkpt>
      <trkpt lat="44.35706" lon="3.66403">
        <ele>683.2</ele>
        <time>2022-10-29T11:32:53Z</time>
      </trkpt>
      <trkpt lat="44.35707" lon="3.66394">
        <ele>683.2</ele>
        <time>2022-10-29T11:32:54Z</time>
      </trkpt>
      <trkpt lat="44.35708" lon="3.66385">
        <ele>683.2</ele>
        <time>2022-10-29T11:32:55Z</time>
      </trkpt>
      <trkpt lat="44.35709" lon="3.66376">
        <ele>683.2</ele>
        <time>2022-10-29T11:32:56Z</time>
      </trkpt>
      <trkpt lat="44.35709" lon="3.66368">
        <ele>683.2</ele>
        <time>2022-10-29T11:32:57Z</time>
      </trkpt>
      <trkpt lat="44.35709" lon="3.66358">
        <ele>683.2</ele>
        <time>2022-10-29T11:32:58Z</time>
      </trkpt>
      <trkpt lat="44.35709" lon="3.66349">
        <ele>683</ele>
        <time>2022-10-29T11:32:59Z</time>
      </trkpt>
      <trkpt lat="44.3571" lon="3.6634">
        <ele>683</ele>
        <time>2022-10-29T11:33:00Z</time>
      </trkpt>
      <trkpt lat="44.3571" lon="3.66331">
        <ele>682.8</ele>
        <time>2022-10-29T11:33:01Z</time>
      </trkpt>
      <trkpt lat="44.3571" lon="3.66322">
        <ele>682.8</ele>
        <time>2022-10-29T11:33:02Z</time>
      </trkpt>
      <trkpt lat="44.35709" lon="3.66313">
        <ele>682.8</ele>
        <time>2022-10-29T11:33:03Z</time>
      </trkpt>
      <trkpt lat="44.35709" lon="3.66304">
        <ele>682.8</ele>
        <time>2022-10-29T11:33:04Z</time>
      </trkpt>
      <trkpt lat="44.3571" lon="3.66295">
        <ele>682.8</ele>
        <time>2022-10-29T11:33:05Z</time>
      </trkpt>
      <trkpt lat="44.3571" lon="3.66285">
        <ele>682.8</ele>
        <time>2022-10-29T11:33:06Z</time>
      </trkpt>
      <trkpt lat="44.3571" lon="3.66276">
        <ele>682.6</ele>
        <time>2022-10-29T11:33:07Z</time>
      </trkpt>
      <trkpt lat="44.35711" lon="3.66267">
        <ele>682.6</ele>
        <time>2022-10-29T11:33:08Z</time>
      </trkpt>
      <trkpt lat="44.35712" lon="3.66258">
        <ele>682.6</ele>
        <time>2022-10-29T11:33:09Z</time>
      </trkpt>
      <trkpt lat="44.35713" lon="3.66249">
        <ele>682.4</ele>
        <time>2022-10-29T11:33:10Z</time>
      </trkpt>
      <trkpt lat="44.35714" lon="3.6624">
        <ele>682.4</ele>
        <time>2022-10-29T11:33:11Z</time>
      </trkpt>
      <trkpt lat="44.35715" lon="3.66231">
        <ele>682.2</ele>
        <time>2022-10-29T11:33:12Z</time>
      </trkpt>
      <trkpt lat="44.35716" lon="3.66223">
        <ele>682.2</ele>
        <time>2022-10-29T11:33:13Z</time>
      </trkpt>
      <trkpt lat="44.35718" lon="3.66214">
        <ele>682.4</ele>
        <time>2022-10-29T11:33:14Z</time>
      </trkpt>
      <trkpt lat="44.35719" lon="3.66206">
        <ele>682.4</ele>
        <time>2022-10-29T11:33:15Z</time>
      </trkpt>
      <trkpt lat="44.3572" lon="3.66197">
        <ele>682.4</ele>
        <time>2022-10-29T11:33:16Z</time>
      </trkpt>
      <trkpt lat="44.35722" lon="3.66189">
        <ele>682.4</ele>
        <time>2022-10-29T11:33:17Z</time>
      </trkpt>
      <trkpt lat="44.35723" lon="3.66181">
        <ele>682.4</ele>
        <time>2022-10-29T11:33:18Z</time>
      </trkpt>
      <trkpt lat="44.35724" lon="3.66172">
        <ele>682.4</ele>
        <time>2022-10-29T11:33:19Z</time>
      </trkpt>
      <trkpt lat="44.35725" lon="3.66164">
        <ele>682.4</ele>
        <time>2022-10-29T11:33:20Z</time>
      </trkpt>
      <trkpt lat="44.35727" lon="3.66155">
        <ele>682.4</ele>
        <time>2022-10-29T11:33:21Z</time>
      </trkpt>
      <trkpt lat="44.35729" lon="3.66147">
        <ele>682.2</ele>
        <time>2022-10-29T11:33:22Z</time>
      </trkpt>
      <trkpt lat="44.3573" lon="3.66138">
        <ele>682.2</ele>
        <time>2022-10-29T11:33:23Z</time>
      </trkpt>
      <trkpt lat="44.35731" lon="3.66129">
        <ele>682</ele>
        <time>2022-10-29T11:33:24Z</time>
      </trkpt>
      <trkpt lat="44.35731" lon="3.6612">
        <ele>682</ele>
        <time>2022-10-29T11:33:25Z</time>
      </trkpt>
      <trkpt lat="44.35729" lon="3.66112">
        <ele>682</ele>
        <time>2022-10-29T11:33:26Z</time>
      </trkpt>
      <trkpt lat="44.35725" lon="3.66105">
        <ele>681.8</ele>
        <time>2022-10-29T11:33:27Z</time>
      </trkpt>
      <trkpt lat="44.3572" lon="3.661">
        <ele>681.6</ele>
        <time>2022-10-29T11:33:28Z</time>
      </trkpt>
      <trkpt lat="44.35713" lon="3.66096">
        <ele>681.6</ele>
        <time>2022-10-29T11:33:29Z</time>
      </trkpt>
      <trkpt lat="44.35707" lon="3.66094">
        <ele>681.6</ele>
        <time>2022-10-29T11:33:30Z</time>
      </trkpt>
      <trkpt lat="44.357" lon="3.66093">
        <ele>681.4</ele>
        <time>2022-10-29T11:33:31Z</time>
      </trkpt>
      <trkpt lat="44.35694" lon="3.66093">
        <ele>681.2</ele>
        <time>2022-10-29T11:33:32Z</time>
      </trkpt>
      <trkpt lat="44.35688" lon="3.66093">
        <ele>681</ele>
        <time>2022-10-29T11:33:33Z</time>
      </trkpt>
      <trkpt lat="44.35682" lon="3.66093">
        <ele>681</ele>
        <time>2022-10-29T11:33:34Z</time>
      </trkpt>
      <trkpt lat="44.35677" lon="3.66094">
        <ele>680.8</ele>
        <time>2022-10-29T11:33:35Z</time>
      </trkpt>
      <trkpt lat="44.35671" lon="3.66094">
        <ele>680.6</ele>
        <time>2022-10-29T11:33:36Z</time>
      </trkpt>
      <trkpt lat="44.35664" lon="3.66093">
        <ele>680.4</ele>
        <time>2022-10-29T11:33:37Z</time>
      </trkpt>
      <trkpt lat="44.35658" lon="3.66093">
        <ele>680.2</ele>
        <time>2022-10-29T11:33:38Z</time>
      </trkpt>
      <trkpt lat="44.35652" lon="3.66092">
        <ele>679.8</ele>
        <time>2022-10-29T11:33:39Z</time>
      </trkpt>
      <trkpt lat="44.35646" lon="3.66089">
        <ele>679.6</ele>
        <time>2022-10-29T11:33:40Z</time>
      </trkpt>
      <trkpt lat="44.3564" lon="3.66086">
        <ele>679.4</ele>
        <time>2022-10-29T11:33:41Z</time>
      </trkpt>
      <trkpt lat="44.35634" lon="3.66082">
        <ele>679.2</ele>
        <time>2022-10-29T11:33:42Z</time>
      </trkpt>
      <trkpt lat="44.35628" lon="3.66078">
        <ele>679</ele>
        <time>2022-10-29T11:33:43Z</time>
      </trkpt>
      <trkpt lat="44.35623" lon="3.66075">
        <ele>678.6</ele>
        <time>2022-10-29T11:33:44Z</time>
      </trkpt>
      <trkpt lat="44.35617" lon="3.66072">
        <ele>678.4</ele>
        <time>2022-10-29T11:33:45Z</time>
      </trkpt>
      <trkpt lat="44.35613" lon="3.6607">
        <ele>678</ele>
        <time>2022-10-29T11:33:46Z</time>
      </trkpt>
      <trkpt lat="44.3561" lon="3.66068">
        <ele>677.8</ele>
        <time>2022-10-29T11:33:47Z</time>
      </trkpt>
      <trkpt lat="44.35607" lon="3.66068">
        <ele>677.6</ele>
        <time>2022-10-29T11:33:48Z</time>
      </trkpt>
      <trkpt lat="44.35605" lon="3.66067">
        <ele>677.4</ele>
        <time>2022-10-29T11:33:49Z</time>
      </trkpt>
      <trkpt lat="44.35603" lon="3.66066">
        <ele>677.2</ele>
        <time>2022-10-29T11:33:50Z</time>
      </trkpt>
      <trkpt lat="44.35602" lon="3.66066">
        <ele>677</ele>
        <time>2022-10-29T11:33:51Z</time>
      </trkpt>
      <trkpt lat="44.35601" lon="3.66066">
        <ele>677</ele>
        <time>2022-10-29T11:33:52Z</time>
      </trkpt>
      <trkpt lat="44.35601" lon="3.66064">
        <ele>676.8</ele>
        <time>2022-10-29T11:34:10Z</time>
      </trkpt>
      <trkpt lat="44.35599" lon="3.66062">
        <ele>676.8</ele>
        <time>2022-10-29T11:34:11Z</time>
      </trkpt>
      <trkpt lat="44.35596" lon="3.66059">
        <ele>676.6</ele>
        <time>2022-10-29T11:34:12Z</time>
      </trkpt>
      <trkpt lat="44.35592" lon="3.66055">
        <ele>676.6</ele>
        <time>2022-10-29T11:34:13Z</time>
      </trkpt>
      <trkpt lat="44.35589" lon="3.66053">
        <ele>676.6</ele>
        <time>2022-10-29T11:34:14Z</time>
      </trkpt>
      <trkpt lat="44.35585" lon="3.66049">
        <ele>676.6</ele>
        <time>2022-10-29T11:34:15Z</time>
      </trkpt>
      <trkpt lat="44.35581" lon="3.66045">
        <ele>676.6</ele>
        <time>2022-10-29T11:34:16Z</time>
      </trkpt>
      <trkpt lat="44.35577" lon="3.6604">
        <ele>676.4</ele>
        <time>2022-10-29T11:34:17Z</time>
      </trkpt>
      <trkpt lat="44.35573" lon="3.66034">
        <ele>676.2</ele>
        <time>2022-10-29T11:34:18Z</time>
      </trkpt>
      <trkpt lat="44.35569" lon="3.66029">
        <ele>676.2</ele>
        <time>2022-10-29T11:34:19Z</time>
      </trkpt>
      <trkpt lat="44.35565" lon="3.66023">
        <ele>676.2</ele>
        <time>2022-10-29T11:34:20Z</time>
      </trkpt>
      <trkpt lat="44.3556" lon="3.66018">
        <ele>676</ele>
        <time>2022-10-29T11:34:21Z</time>
      </trkpt>
      <trkpt lat="44.35555" lon="3.66014">
        <ele>676</ele>
        <time>2022-10-29T11:34:22Z</time>
      </trkpt>
      <trkpt lat="44.35549" lon="3.6601">
        <ele>676</ele>
        <time>2022-10-29T11:34:23Z</time>
      </trkpt>
      <trkpt lat="44.35543" lon="3.66007">
        <ele>675.8</ele>
        <time>2022-10-29T11:34:24Z</time>
      </trkpt>
      <trkpt lat="44.35538" lon="3.66002">
        <ele>675.6</ele>
        <time>2022-10-29T11:34:25Z</time>
      </trkpt>
      <trkpt lat="44.35533" lon="3.65996">
        <ele>675.4</ele>
        <time>2022-10-29T11:34:26Z</time>
      </trkpt>
      <trkpt lat="44.35529" lon="3.65988">
        <ele>675</ele>
        <time>2022-10-29T11:34:27Z</time>
      </trkpt>
      <trkpt lat="44.35527" lon="3.65978">
        <ele>674.8</ele>
        <time>2022-10-29T11:34:28Z</time>
      </trkpt>
      <trkpt lat="44.35525" lon="3.65967">
        <ele>674.8</ele>
        <time>2022-10-29T11:34:29Z</time>
      </trkpt>
      <trkpt lat="44.35525" lon="3.65958">
        <ele>674.6</ele>
        <time>2022-10-29T11:34:30Z</time>
      </trkpt>
      <trkpt lat="44.35527" lon="3.65947">
        <ele>674.4</ele>
        <time>2022-10-29T11:34:31Z</time>
      </trkpt>
      <trkpt lat="44.35528" lon="3.65937">
        <ele>674.2</ele>
        <time>2022-10-29T11:34:32Z</time>
      </trkpt>
      <trkpt lat="44.3553" lon="3.65928">
        <ele>674</ele>
        <time>2022-10-29T11:34:33Z</time>
      </trkpt>
      <trkpt lat="44.35532" lon="3.65918">
        <ele>673.6</ele>
        <time>2022-10-29T11:34:34Z</time>
      </trkpt>
      <trkpt lat="44.35534" lon="3.65907">
        <ele>673.2</ele>
        <time>2022-10-29T11:34:35Z</time>
      </trkpt>
      <trkpt lat="44.35536" lon="3.65897">
        <ele>672.8</ele>
        <time>2022-10-29T11:34:36Z</time>
      </trkpt>
      <trkpt lat="44.3554" lon="3.65887">
        <ele>672.6</ele>
        <time>2022-10-29T11:34:37Z</time>
      </trkpt>
      <trkpt lat="44.35544" lon="3.65877">
        <ele>672.4</ele>
        <time>2022-10-29T11:34:38Z</time>
      </trkpt>
      <trkpt lat="44.35549" lon="3.65868">
        <ele>672</ele>
        <time>2022-10-29T11:34:39Z</time>
      </trkpt>
      <trkpt lat="44.35555" lon="3.65859">
        <ele>671.8</ele>
        <time>2022-10-29T11:34:40Z</time>
      </trkpt>
      <trkpt lat="44.35561" lon="3.65851">
        <ele>671.6</ele>
        <time>2022-10-29T11:34:41Z</time>
      </trkpt>
      <trkpt lat="44.35567" lon="3.65843">
        <ele>671.4</ele>
        <time>2022-10-29T11:34:42Z</time>
      </trkpt>
      <trkpt lat="44.35573" lon="3.65834">
        <ele>671</ele>
        <time>2022-10-29T11:34:43Z</time>
      </trkpt>
      <trkpt lat="44.3558" lon="3.65825">
        <ele>670.6</ele>
        <time>2022-10-29T11:34:44Z</time>
      </trkpt>
      <trkpt lat="44.35586" lon="3.65817">
        <ele>670.4</ele>
        <time>2022-10-29T11:34:45Z</time>
      </trkpt>
      <trkpt lat="44.35591" lon="3.65808">
        <ele>670.2</ele>
        <time>2022-10-29T11:34:46Z</time>
      </trkpt>
      <trkpt lat="44.35597" lon="3.65799">
        <ele>670</ele>
        <time>2022-10-29T11:34:47Z</time>
      </trkpt>
      <trkpt lat="44.35602" lon="3.65789">
        <ele>669.8</ele>
        <time>2022-10-29T11:34:48Z</time>
      </trkpt>
      <trkpt lat="44.35607" lon="3.6578">
        <ele>669.8</ele>
        <time>2022-10-29T11:34:49Z</time>
      </trkpt>
      <trkpt lat="44.35612" lon="3.6577">
        <ele>669.6</ele>
        <time>2022-10-29T11:34:50Z</time>
      </trkpt>
      <trkpt lat="44.35616" lon="3.6576">
        <ele>669.2</ele>
        <time>2022-10-29T11:34:51Z</time>
      </trkpt>
      <trkpt lat="44.3562" lon="3.6575">
        <ele>669</ele>
        <time>2022-10-29T11:34:52Z</time>
      </trkpt>
      <trkpt lat="44.35624" lon="3.65741">
        <ele>668.8</ele>
        <time>2022-10-29T11:34:53Z</time>
      </trkpt>
      <trkpt lat="44.35628" lon="3.65729">
        <ele>668.6</ele>
        <time>2022-10-29T11:34:54Z</time>
      </trkpt>
      <trkpt lat="44.35632" lon="3.6572">
        <ele>668.2</ele>
        <time>2022-10-29T11:34:55Z</time>
      </trkpt>
      <trkpt lat="44.35636" lon="3.6571">
        <ele>667.8</ele>
        <time>2022-10-29T11:34:56Z</time>
      </trkpt>
      <trkpt lat="44.35639" lon="3.65701">
        <ele>667.6</ele>
        <time>2022-10-29T11:34:57Z</time>
      </trkpt>
      <trkpt lat="44.35644" lon="3.65691">
        <ele>667.4</ele>
        <time>2022-10-29T11:34:58Z</time>
      </trkpt>
      <trkpt lat="44.35647" lon="3.65682">
        <ele>667.2</ele>
        <time>2022-10-29T11:34:59Z</time>
      </trkpt>
      <trkpt lat="44.35651" lon="3.65673">
        <ele>667.2</ele>
        <time>2022-10-29T11:35:00Z</time>
      </trkpt>
      <trkpt lat="44.35654" lon="3.65663">
        <ele>667</ele>
        <time>2022-10-29T11:35:01Z</time>
      </trkpt>
      <trkpt lat="44.35658" lon="3.65653">
        <ele>666.8</ele>
        <time>2022-10-29T11:35:02Z</time>
      </trkpt>
      <trkpt lat="44.35661" lon="3.65644">
        <ele>666.6</ele>
        <time>2022-10-29T11:35:03Z</time>
      </trkpt>
      <trkpt lat="44.35664" lon="3.65634">
        <ele>666.4</ele>
        <time>2022-10-29T11:35:04Z</time>
      </trkpt>
      <trkpt lat="44.35666" lon="3.65624">
        <ele>666.4</ele>
        <time>2022-10-29T11:35:05Z</time>
      </trkpt>
      <trkpt lat="44.35669" lon="3.65615">
        <ele>666.2</ele>
        <time>2022-10-29T11:35:06Z</time>
      </trkpt>
      <trkpt lat="44.35671" lon="3.65605">
        <ele>665.8</ele>
        <time>2022-10-29T11:35:07Z</time>
      </trkpt>
      <trkpt lat="44.35673" lon="3.65595">
        <ele>665.4</ele>
        <time>2022-10-29T11:35:08Z</time>
      </trkpt>
      <trkpt lat="44.35675" lon="3.65585">
        <ele>665.2</ele>
        <time>2022-10-29T11:35:09Z</time>
      </trkpt>
      <trkpt lat="44.35676" lon="3.65575">
        <ele>665</ele>
        <time>2022-10-29T11:35:10Z</time>
      </trkpt>
      <trkpt lat="44.35677" lon="3.65565">
        <ele>664.6</ele>
        <time>2022-10-29T11:35:11Z</time>
      </trkpt>
      <trkpt lat="44.35677" lon="3.65555">
        <ele>664.4</ele>
        <time>2022-10-29T11:35:12Z</time>
      </trkpt>
      <trkpt lat="44.35675" lon="3.65544">
        <ele>664.2</ele>
        <time>2022-10-29T11:35:13Z</time>
      </trkpt>
      <trkpt lat="44.35673" lon="3.65534">
        <ele>664</ele>
        <time>2022-10-29T11:35:14Z</time>
      </trkpt>
      <trkpt lat="44.35671" lon="3.65524">
        <ele>663.6</ele>
        <time>2022-10-29T11:35:15Z</time>
      </trkpt>
      <trkpt lat="44.35668" lon="3.65515">
        <ele>663.2</ele>
        <time>2022-10-29T11:35:16Z</time>
      </trkpt>
      <trkpt lat="44.35665" lon="3.65505">
        <ele>662.8</ele>
        <time>2022-10-29T11:35:17Z</time>
      </trkpt>
      <trkpt lat="44.35663" lon="3.65495">
        <ele>662.6</ele>
        <time>2022-10-29T11:35:18Z</time>
      </trkpt>
      <trkpt lat="44.3566" lon="3.65486">
        <ele>662.4</ele>
        <time>2022-10-29T11:35:19Z</time>
      </trkpt>
      <trkpt lat="44.35657" lon="3.65476">
        <ele>662</ele>
        <time>2022-10-29T11:35:20Z</time>
      </trkpt>
      <trkpt lat="44.35654" lon="3.65465">
        <ele>661.6</ele>
        <time>2022-10-29T11:35:21Z</time>
      </trkpt>
      <trkpt lat="44.35651" lon="3.65455">
        <ele>661.4</ele>
        <time>2022-10-29T11:35:22Z</time>
      </trkpt>
      <trkpt lat="44.35649" lon="3.65446">
        <ele>661</ele>
        <time>2022-10-29T11:35:23Z</time>
      </trkpt>
      <trkpt lat="44.35646" lon="3.65435">
        <ele>660.8</ele>
        <time>2022-10-29T11:35:24Z</time>
      </trkpt>
      <trkpt lat="44.35642" lon="3.65425">
        <ele>660.6</ele>
        <time>2022-10-29T11:35:25Z</time>
      </trkpt>
      <trkpt lat="44.3564" lon="3.65415">
        <ele>660.4</ele>
        <time>2022-10-29T11:35:26Z</time>
      </trkpt>
      <trkpt lat="44.35637" lon="3.65405">
        <ele>660.2</ele>
        <time>2022-10-29T11:35:27Z</time>
      </trkpt>
      <trkpt lat="44.35634" lon="3.65395">
        <ele>659.8</ele>
        <time>2022-10-29T11:35:28Z</time>
      </trkpt>
      <trkpt lat="44.35632" lon="3.65385">
        <ele>659.6</ele>
        <time>2022-10-29T11:35:29Z</time>
      </trkpt>
      <trkpt lat="44.35629" lon="3.65376">
        <ele>659.2</ele>
        <time>2022-10-29T11:35:30Z</time>
      </trkpt>
      <trkpt lat="44.35626" lon="3.65366">
        <ele>659</ele>
        <time>2022-10-29T11:35:31Z</time>
      </trkpt>
      <trkpt lat="44.35624" lon="3.65355">
        <ele>658.6</ele>
        <time>2022-10-29T11:35:32Z</time>
      </trkpt>
      <trkpt lat="44.35622" lon="3.65344">
        <ele>658.2</ele>
        <time>2022-10-29T11:35:33Z</time>
      </trkpt>
      <trkpt lat="44.35621" lon="3.65333">
        <ele>657.8</ele>
        <time>2022-10-29T11:35:34Z</time>
      </trkpt>
      <trkpt lat="44.35621" lon="3.65321">
        <ele>657.4</ele>
        <time>2022-10-29T11:35:35Z</time>
      </trkpt>
      <trkpt lat="44.35621" lon="3.65309">
        <ele>657</ele>
        <time>2022-10-29T11:35:36Z</time>
      </trkpt>
      <trkpt lat="44.35621" lon="3.65298">
        <ele>656.6</ele>
        <time>2022-10-29T11:35:37Z</time>
      </trkpt>
      <trkpt lat="44.35623" lon="3.65287">
        <ele>656.2</ele>
        <time>2022-10-29T11:35:38Z</time>
      </trkpt>
      <trkpt lat="44.35626" lon="3.65276">
        <ele>656</ele>
        <time>2022-10-29T11:35:39Z</time>
      </trkpt>
      <trkpt lat="44.35629" lon="3.65265">
        <ele>655.8</ele>
        <time>2022-10-29T11:35:40Z</time>
      </trkpt>
      <trkpt lat="44.35631" lon="3.65254">
        <ele>655.4</ele>
        <time>2022-10-29T11:35:41Z</time>
      </trkpt>
      <trkpt lat="44.35632" lon="3.65243">
        <ele>655.2</ele>
        <time>2022-10-29T11:35:42Z</time>
      </trkpt>
      <trkpt lat="44.35632" lon="3.65232">
        <ele>654.8</ele>
        <time>2022-10-29T11:35:43Z</time>
      </trkpt>
      <trkpt lat="44.3563" lon="3.65221">
        <ele>654.6</ele>
        <time>2022-10-29T11:35:44Z</time>
      </trkpt>
      <trkpt lat="44.35628" lon="3.6521">
        <ele>654.4</ele>
        <time>2022-10-29T11:35:45Z</time>
      </trkpt>
      <trkpt lat="44.35623" lon="3.652">
        <ele>654</ele>
        <time>2022-10-29T11:35:46Z</time>
      </trkpt>
      <trkpt lat="44.35618" lon="3.65191">
        <ele>653.8</ele>
        <time>2022-10-29T11:35:47Z</time>
      </trkpt>
      <trkpt lat="44.35611" lon="3.65185">
        <ele>653.6</ele>
        <time>2022-10-29T11:35:48Z</time>
      </trkpt>
      <trkpt lat="44.35604" lon="3.65179">
        <ele>653.2</ele>
        <time>2022-10-29T11:35:49Z</time>
      </trkpt>
      <trkpt lat="44.35596" lon="3.65176">
        <ele>653</ele>
        <time>2022-10-29T11:35:50Z</time>
      </trkpt>
      <trkpt lat="44.35589" lon="3.65176">
        <ele>652.6</ele>
        <time>2022-10-29T11:35:51Z</time>
      </trkpt>
      <trkpt lat="44.35581" lon="3.65177">
        <ele>652.4</ele>
        <time>2022-10-29T11:35:52Z</time>
      </trkpt>
      <trkpt lat="44.35573" lon="3.65179">
        <ele>652.2</ele>
        <time>2022-10-29T11:35:53Z</time>
      </trkpt>
      <trkpt lat="44.35566" lon="3.65182">
        <ele>652</ele>
        <time>2022-10-29T11:35:54Z</time>
      </trkpt>
      <trkpt lat="44.35559" lon="3.65186">
        <ele>651.8</ele>
        <time>2022-10-29T11:35:55Z</time>
      </trkpt>
      <trkpt lat="44.35552" lon="3.6519">
        <ele>651.6</ele>
        <time>2022-10-29T11:35:56Z</time>
      </trkpt>
      <trkpt lat="44.35546" lon="3.65193">
        <ele>651.4</ele>
        <time>2022-10-29T11:35:57Z</time>
      </trkpt>
      <trkpt lat="44.35539" lon="3.65196">
        <ele>651.2</ele>
        <time>2022-10-29T11:35:58Z</time>
      </trkpt>
      <trkpt lat="44.35533" lon="3.65199">
        <ele>650.8</ele>
        <time>2022-10-29T11:35:59Z</time>
      </trkpt>
      <trkpt lat="44.35526" lon="3.65201">
        <ele>650.6</ele>
        <time>2022-10-29T11:36:00Z</time>
      </trkpt>
      <trkpt lat="44.35518" lon="3.65201">
        <ele>650.6</ele>
        <time>2022-10-29T11:36:01Z</time>
      </trkpt>
      <trkpt lat="44.35511" lon="3.652">
        <ele>650.4</ele>
        <time>2022-10-29T11:36:02Z</time>
      </trkpt>
      <trkpt lat="44.35504" lon="3.65197">
        <ele>650.2</ele>
        <time>2022-10-29T11:36:03Z</time>
      </trkpt>
      <trkpt lat="44.35497" lon="3.65193">
        <ele>650.2</ele>
        <time>2022-10-29T11:36:04Z</time>
      </trkpt>
      <trkpt lat="44.35491" lon="3.65188">
        <ele>650</ele>
        <time>2022-10-29T11:36:05Z</time>
      </trkpt>
      <trkpt lat="44.35485" lon="3.65182">
        <ele>649.8</ele>
        <time>2022-10-29T11:36:06Z</time>
      </trkpt>
      <trkpt lat="44.35479" lon="3.65176">
        <ele>649.6</ele>
        <time>2022-10-29T11:36:07Z</time>
      </trkpt>
      <trkpt lat="44.35474" lon="3.6517">
        <ele>649.6</ele>
        <time>2022-10-29T11:36:08Z</time>
      </trkpt>
      <trkpt lat="44.35468" lon="3.65163">
        <ele>649.4</ele>
        <time>2022-10-29T11:36:09Z</time>
      </trkpt>
      <trkpt lat="44.35463" lon="3.65157">
        <ele>649.2</ele>
        <time>2022-10-29T11:36:10Z</time>
      </trkpt>
      <trkpt lat="44.35457" lon="3.6515">
        <ele>649</ele>
        <time>2022-10-29T11:36:11Z</time>
      </trkpt>
      <trkpt lat="44.35453" lon="3.65143">
        <ele>649</ele>
        <time>2022-10-29T11:36:12Z</time>
      </trkpt>
      <trkpt lat="44.35447" lon="3.65135">
        <ele>648.8</ele>
        <time>2022-10-29T11:36:13Z</time>
      </trkpt>
      <trkpt lat="44.35443" lon="3.65126">
        <ele>648.6</ele>
        <time>2022-10-29T11:36:14Z</time>
      </trkpt>
      <trkpt lat="44.35439" lon="3.65118">
        <ele>648.6</ele>
        <time>2022-10-29T11:36:15Z</time>
      </trkpt>
      <trkpt lat="44.35437" lon="3.65108">
        <ele>648.4</ele>
        <time>2022-10-29T11:36:16Z</time>
      </trkpt>
      <trkpt lat="44.35435" lon="3.65099">
        <ele>648.4</ele>
        <time>2022-10-29T11:36:17Z</time>
      </trkpt>
      <trkpt lat="44.35433" lon="3.65089">
        <ele>648.2</ele>
        <time>2022-10-29T11:36:18Z</time>
      </trkpt>
      <trkpt lat="44.35432" lon="3.65079">
        <ele>648.2</ele>
        <time>2022-10-29T11:36:19Z</time>
      </trkpt>
      <trkpt lat="44.35431" lon="3.65069">
        <ele>648</ele>
        <time>2022-10-29T11:36:20Z</time>
      </trkpt>
      <trkpt lat="44.3543" lon="3.65059">
        <ele>648</ele>
        <time>2022-10-29T11:36:21Z</time>
      </trkpt>
      <trkpt lat="44.35429" lon="3.65049">
        <ele>648</ele>
        <time>2022-10-29T11:36:22Z</time>
      </trkpt>
      <trkpt lat="44.35429" lon="3.6504">
        <ele>647.8</ele>
        <time>2022-10-29T11:36:23Z</time>
      </trkpt>
      <trkpt lat="44.35428" lon="3.6503">
        <ele>647.8</ele>
        <time>2022-10-29T11:36:24Z</time>
      </trkpt>
      <trkpt lat="44.35428" lon="3.65021">
        <ele>647.8</ele>
        <time>2022-10-29T11:36:25Z</time>
      </trkpt>
      <trkpt lat="44.35427" lon="3.65012">
        <ele>647.8</ele>
        <time>2022-10-29T11:36:26Z</time>
      </trkpt>
      <trkpt lat="44.35427" lon="3.65002">
        <ele>647.8</ele>
        <time>2022-10-29T11:36:27Z</time>
      </trkpt>
      <trkpt lat="44.35426" lon="3.64992">
        <ele>647.6</ele>
        <time>2022-10-29T11:36:28Z</time>
      </trkpt>
      <trkpt lat="44.35426" lon="3.64983">
        <ele>647.6</ele>
        <time>2022-10-29T11:36:29Z</time>
      </trkpt>
      <trkpt lat="44.35425" lon="3.64974">
        <ele>647.8</ele>
        <time>2022-10-29T11:36:30Z</time>
      </trkpt>
      <trkpt lat="44.35425" lon="3.64964">
        <ele>647.6</ele>
        <time>2022-10-29T11:36:31Z</time>
      </trkpt>
      <trkpt lat="44.35424" lon="3.64955">
        <ele>647.6</ele>
        <time>2022-10-29T11:36:32Z</time>
      </trkpt>
      <trkpt lat="44.35424" lon="3.64946">
        <ele>647.6</ele>
        <time>2022-10-29T11:36:33Z</time>
      </trkpt>
      <trkpt lat="44.35424" lon="3.64937">
        <ele>647.6</ele>
        <time>2022-10-29T11:36:34Z</time>
      </trkpt>
      <trkpt lat="44.35425" lon="3.64928">
        <ele>647.6</ele>
        <time>2022-10-29T11:36:35Z</time>
      </trkpt>
      <trkpt lat="44.35426" lon="3.64919">
        <ele>647.6</ele>
        <time>2022-10-29T11:36:36Z</time>
      </trkpt>
      <trkpt lat="44.35428" lon="3.64911">
        <ele>647.4</ele>
        <time>2022-10-29T11:36:37Z</time>
      </trkpt>
      <trkpt lat="44.35429" lon="3.64901">
        <ele>647.4</ele>
        <time>2022-10-29T11:36:38Z</time>
      </trkpt>
      <trkpt lat="44.35431" lon="3.64893">
        <ele>647.4</ele>
        <time>2022-10-29T11:36:39Z</time>
      </trkpt>
      <trkpt lat="44.35433" lon="3.64884">
        <ele>647.4</ele>
        <time>2022-10-29T11:36:40Z</time>
      </trkpt>
      <trkpt lat="44.35434" lon="3.64875">
        <ele>647.4</ele>
        <time>2022-10-29T11:36:41Z</time>
      </trkpt>
      <trkpt lat="44.35435" lon="3.64866">
        <ele>647.4</ele>
        <time>2022-10-29T11:36:42Z</time>
      </trkpt>
      <trkpt lat="44.35437" lon="3.64857">
        <ele>647.4</ele>
        <time>2022-10-29T11:36:43Z</time>
      </trkpt>
      <trkpt lat="44.35438" lon="3.64848">
        <ele>647.4</ele>
        <time>2022-10-29T11:36:44Z</time>
      </trkpt>
      <trkpt lat="44.35438" lon="3.64839">
        <ele>647.2</ele>
        <time>2022-10-29T11:36:45Z</time>
      </trkpt>
      <trkpt lat="44.3544" lon="3.6483">
        <ele>647</ele>
        <time>2022-10-29T11:36:46Z</time>
      </trkpt>
      <trkpt lat="44.35441" lon="3.64821">
        <ele>646.8</ele>
        <time>2022-10-29T11:36:47Z</time>
      </trkpt>
      <trkpt lat="44.35441" lon="3.64812">
        <ele>646.8</ele>
        <time>2022-10-29T11:36:48Z</time>
      </trkpt>
      <trkpt lat="44.35442" lon="3.64802">
        <ele>647</ele>
        <time>2022-10-29T11:36:49Z</time>
      </trkpt>
      <trkpt lat="44.35443" lon="3.64793">
        <ele>646.8</ele>
        <time>2022-10-29T11:36:50Z</time>
      </trkpt>
      <trkpt lat="44.35444" lon="3.64783">
        <ele>646.8</ele>
        <time>2022-10-29T11:36:51Z</time>
      </trkpt>
      <trkpt lat="44.35445" lon="3.64774">
        <ele>646.6</ele>
        <time>2022-10-29T11:36:52Z</time>
      </trkpt>
      <trkpt lat="44.35446" lon="3.64764">
        <ele>646.6</ele>
        <time>2022-10-29T11:36:53Z</time>
      </trkpt>
      <trkpt lat="44.35447" lon="3.64756">
        <ele>646.6</ele>
        <time>2022-10-29T11:36:54Z</time>
      </trkpt>
      <trkpt lat="44.35449" lon="3.64747">
        <ele>646.4</ele>
        <time>2022-10-29T11:36:55Z</time>
      </trkpt>
      <trkpt lat="44.35452" lon="3.64738">
        <ele>646.4</ele>
        <time>2022-10-29T11:36:56Z</time>
      </trkpt>
      <trkpt lat="44.35454" lon="3.64729">
        <ele>646.4</ele>
        <time>2022-10-29T11:36:57Z</time>
      </trkpt>
      <trkpt lat="44.35457" lon="3.64721">
        <ele>646.4</ele>
        <time>2022-10-29T11:36:58Z</time>
      </trkpt>
      <trkpt lat="44.3546" lon="3.64712">
        <ele>646.4</ele>
        <time>2022-10-29T11:36:59Z</time>
      </trkpt>
      <trkpt lat="44.35463" lon="3.64704">
        <ele>646.4</ele>
        <time>2022-10-29T11:37:00Z</time>
      </trkpt>
      <trkpt lat="44.35466" lon="3.64695">
        <ele>646.2</ele>
        <time>2022-10-29T11:37:01Z</time>
      </trkpt>
      <trkpt lat="44.35468" lon="3.64687">
        <ele>646.2</ele>
        <time>2022-10-29T11:37:02Z</time>
      </trkpt>
      <trkpt lat="44.3547" lon="3.64679">
        <ele>646.2</ele>
        <time>2022-10-29T11:37:03Z</time>
      </trkpt>
      <trkpt lat="44.35472" lon="3.6467">
        <ele>646.2</ele>
        <time>2022-10-29T11:37:04Z</time>
      </trkpt>
      <trkpt lat="44.35473" lon="3.6466">
        <ele>646</ele>
        <time>2022-10-29T11:37:05Z</time>
      </trkpt>
      <trkpt lat="44.35474" lon="3.64651">
        <ele>646</ele>
        <time>2022-10-29T11:37:06Z</time>
      </trkpt>
      <trkpt lat="44.35476" lon="3.64642">
        <ele>645.8</ele>
        <time>2022-10-29T11:37:07Z</time>
      </trkpt>
      <trkpt lat="44.35478" lon="3.64634">
        <ele>645.8</ele>
        <time>2022-10-29T11:37:08Z</time>
      </trkpt>
      <trkpt lat="44.35481" lon="3.64626">
        <ele>645.6</ele>
        <time>2022-10-29T11:37:09Z</time>
      </trkpt>
      <trkpt lat="44.35484" lon="3.64618">
        <ele>645.6</ele>
        <time>2022-10-29T11:37:10Z</time>
      </trkpt>
      <trkpt lat="44.35488" lon="3.64611">
        <ele>645.6</ele>
        <time>2022-10-29T11:37:11Z</time>
      </trkpt>
      <trkpt lat="44.35493" lon="3.64604">
        <ele>645.6</ele>
        <time>2022-10-29T11:37:12Z</time>
      </trkpt>
      <trkpt lat="44.35498" lon="3.64598">
        <ele>645.6</ele>
        <time>2022-10-29T11:37:13Z</time>
      </trkpt>
      <trkpt lat="44.35503" lon="3.64592">
        <ele>645.6</ele>
        <time>2022-10-29T11:37:14Z</time>
      </trkpt>
      <trkpt lat="44.35508" lon="3.64585">
        <ele>645.6</ele>
        <time>2022-10-29T11:37:15Z</time>
      </trkpt>
      <trkpt lat="44.35513" lon="3.64579">
        <ele>645.6</ele>
        <time>2022-10-29T11:37:16Z</time>
      </trkpt>
      <trkpt lat="44.35518" lon="3.64572">
        <ele>645.6</ele>
        <time>2022-10-29T11:37:17Z</time>
      </trkpt>
      <trkpt lat="44.35522" lon="3.64565">
        <ele>645.6</ele>
        <time>2022-10-29T11:37:18Z</time>
      </trkpt>
      <trkpt lat="44.35526" lon="3.64557">
        <ele>645.6</ele>
        <time>2022-10-29T11:37:19Z</time>
      </trkpt>
      <trkpt lat="44.35529" lon="3.6455">
        <ele>645.6</ele>
        <time>2022-10-29T11:37:20Z</time>
      </trkpt>
      <trkpt lat="44.35533" lon="3.64542">
        <ele>645.6</ele>
        <time>2022-10-29T11:37:21Z</time>
      </trkpt>
      <trkpt lat="44.35536" lon="3.64535">
        <ele>645.4</ele>
        <time>2022-10-29T11:37:22Z</time>
      </trkpt>
      <trkpt lat="44.35539" lon="3.64527">
        <ele>645.4</ele>
        <time>2022-10-29T11:37:23Z</time>
      </trkpt>
      <trkpt lat="44.35543" lon="3.6452">
        <ele>645.4</ele>
        <time>2022-10-29T11:37:24Z</time>
      </trkpt>
      <trkpt lat="44.35547" lon="3.64513">
        <ele>645.4</ele>
        <time>2022-10-29T11:37:25Z</time>
      </trkpt>
      <trkpt lat="44.3555" lon="3.64507">
        <ele>645.2</ele>
        <time>2022-10-29T11:37:26Z</time>
      </trkpt>
      <trkpt lat="44.35553" lon="3.645">
        <ele>645.2</ele>
        <time>2022-10-29T11:37:27Z</time>
      </trkpt>
      <trkpt lat="44.35557" lon="3.64493">
        <ele>645</ele>
        <time>2022-10-29T11:37:28Z</time>
      </trkpt>
      <trkpt lat="44.35559" lon="3.64486">
        <ele>645</ele>
        <time>2022-10-29T11:37:29Z</time>
      </trkpt>
      <trkpt lat="44.35562" lon="3.64479">
        <ele>645</ele>
        <time>2022-10-29T11:37:30Z</time>
      </trkpt>
      <trkpt lat="44.35564" lon="3.64472">
        <ele>644.8</ele>
        <time>2022-10-29T11:37:31Z</time>
      </trkpt>
      <trkpt lat="44.35567" lon="3.64466">
        <ele>644.8</ele>
        <time>2022-10-29T11:37:32Z</time>
      </trkpt>
      <trkpt lat="44.35569" lon="3.6446">
        <ele>644.6</ele>
        <time>2022-10-29T11:37:33Z</time>
      </trkpt>
      <trkpt lat="44.3557" lon="3.64454">
        <ele>644.6</ele>
        <time>2022-10-29T11:37:34Z</time>
      </trkpt>
      <trkpt lat="44.35571" lon="3.64448">
        <ele>644.4</ele>
        <time>2022-10-29T11:37:35Z</time>
      </trkpt>
      <trkpt lat="44.35572" lon="3.64443">
        <ele>644.4</ele>
        <time>2022-10-29T11:37:36Z</time>
      </trkpt>
      <trkpt lat="44.35572" lon="3.64439">
        <ele>644.2</ele>
        <time>2022-10-29T11:37:37Z</time>
      </trkpt>
      <trkpt lat="44.35573" lon="3.64435">
        <ele>644</ele>
        <time>2022-10-29T11:37:38Z</time>
      </trkpt>
      <trkpt lat="44.35574" lon="3.64432">
        <ele>644</ele>
        <time>2022-10-29T11:37:39Z</time>
      </trkpt>
      <trkpt lat="44.35574" lon="3.6443">
        <ele>643.8</ele>
        <time>2022-10-29T11:37:42Z</time>
      </trkpt>
      <trkpt lat="44.35575" lon="3.64428">
        <ele>643.8</ele>
        <time>2022-10-29T11:37:43Z</time>
      </trkpt>
      <trkpt lat="44.35576" lon="3.64426">
        <ele>643.8</ele>
        <time>2022-10-29T11:37:44Z</time>
      </trkpt>
      <trkpt lat="44.35578" lon="3.64424">
        <ele>643.8</ele>
        <time>2022-10-29T11:37:45Z</time>
      </trkpt>
      <trkpt lat="44.3558" lon="3.6442">
        <ele>643.8</ele>
        <time>2022-10-29T11:37:46Z</time>
      </trkpt>
      <trkpt lat="44.35581" lon="3.64416">
        <ele>643.8</ele>
        <time>2022-10-29T11:37:47Z</time>
      </trkpt>
      <trkpt lat="44.35583" lon="3.64412">
        <ele>644</ele>
        <time>2022-10-29T11:37:48Z</time>
      </trkpt>
      <trkpt lat="44.35585" lon="3.64408">
        <ele>644</ele>
        <time>2022-10-29T11:37:49Z</time>
      </trkpt>
      <trkpt lat="44.35586" lon="3.64403">
        <ele>644</ele>
        <time>2022-10-29T11:37:50Z</time>
      </trkpt>
      <trkpt lat="44.35588" lon="3.64398">
        <ele>644</ele>
        <time>2022-10-29T11:37:51Z</time>
      </trkpt>
      <trkpt lat="44.35589" lon="3.64393">
        <ele>644</ele>
        <time>2022-10-29T11:37:52Z</time>
      </trkpt>
      <trkpt lat="44.35591" lon="3.64388">
        <ele>644</ele>
        <time>2022-10-29T11:37:53Z</time>
      </trkpt>
      <trkpt lat="44.35593" lon="3.64383">
        <ele>643.8</ele>
        <time>2022-10-29T11:37:54Z</time>
      </trkpt>
      <trkpt lat="44.35594" lon="3.64378">
        <ele>643.8</ele>
        <time>2022-10-29T11:37:55Z</time>
      </trkpt>
      <trkpt lat="44.35595" lon="3.64373">
        <ele>643.8</ele>
        <time>2022-10-29T11:37:56Z</time>
      </trkpt>
      <trkpt lat="44.35596" lon="3.64368">
        <ele>643.8</ele>
        <time>2022-10-29T11:37:57Z</time>
      </trkpt>
      <trkpt lat="44.35597" lon="3.64363">
        <ele>643.8</ele>
        <time>2022-10-29T11:37:58Z</time>
      </trkpt>
      <trkpt lat="44.35597" lon="3.64359">
        <ele>643.8</ele>
        <time>2022-10-29T11:37:59Z</time>
      </trkpt>
      <trkpt lat="44.35599" lon="3.64354">
        <ele>643.8</ele>
        <time>2022-10-29T11:38:00Z</time>
      </trkpt>
      <trkpt lat="44.356" lon="3.6435">
        <ele>643.8</ele>
        <time>2022-10-29T11:38:01Z</time>
      </trkpt>
      <trkpt lat="44.35601" lon="3.64345">
        <ele>643.8</ele>
        <time>2022-10-29T11:38:02Z</time>
      </trkpt>
      <trkpt lat="44.35603" lon="3.64341">
        <ele>643.8</ele>
        <time>2022-10-29T11:38:03Z</time>
      </trkpt>
      <trkpt lat="44.35604" lon="3.64337">
        <ele>643.8</ele>
        <time>2022-10-29T11:38:04Z</time>
      </trkpt>
      <trkpt lat="44.35607" lon="3.64333">
        <ele>643.8</ele>
        <time>2022-10-29T11:38:05Z</time>
      </trkpt>
      <trkpt lat="44.35609" lon="3.64329">
        <ele>643.8</ele>
        <time>2022-10-29T11:38:06Z</time>
      </trkpt>
      <trkpt lat="44.35611" lon="3.64325">
        <ele>643.8</ele>
        <time>2022-10-29T11:38:07Z</time>
      </trkpt>
      <trkpt lat="44.35613" lon="3.64321">
        <ele>643.8</ele>
        <time>2022-10-29T11:38:08Z</time>
      </trkpt>
      <trkpt lat="44.35614" lon="3.64317">
        <ele>643.8</ele>
        <time>2022-10-29T11:38:09Z</time>
      </trkpt>
      <trkpt lat="44.35615" lon="3.64312">
        <ele>643.8</ele>
        <time>2022-10-29T11:38:10Z</time>
      </trkpt>
      <trkpt lat="44.35616" lon="3.64308">
        <ele>643.8</ele>
        <time>2022-10-29T11:38:11Z</time>
      </trkpt>
      <trkpt lat="44.35617" lon="3.64304">
        <ele>643.6</ele>
        <time>2022-10-29T11:38:12Z</time>
      </trkpt>
      <trkpt lat="44.35619" lon="3.64301">
        <ele>643.6</ele>
        <time>2022-10-29T11:38:13Z</time>
      </trkpt>
      <trkpt lat="44.3562" lon="3.64297">
        <ele>643.6</ele>
        <time>2022-10-29T11:38:14Z</time>
      </trkpt>
      <trkpt lat="44.3562" lon="3.64293">
        <ele>643.8</ele>
        <time>2022-10-29T11:38:15Z</time>
      </trkpt>
      <trkpt lat="44.3562" lon="3.6429">
        <ele>643.6</ele>
        <time>2022-10-29T11:38:16Z</time>
      </trkpt>
      <trkpt lat="44.3562" lon="3.64286">
        <ele>643.6</ele>
        <time>2022-10-29T11:38:17Z</time>
      </trkpt>
      <trkpt lat="44.3562" lon="3.64284">
        <ele>643.6</ele>
        <time>2022-10-29T11:38:18Z</time>
      </trkpt>
      <trkpt lat="44.35621" lon="3.64281">
        <ele>643.6</ele>
        <time>2022-10-29T11:38:19Z</time>
      </trkpt>
      <trkpt lat="44.35621" lon="3.64279">
        <ele>643.6</ele>
        <time>2022-10-29T11:38:20Z</time>
      </trkpt>
      <trkpt lat="44.35621" lon="3.64278">
        <ele>643.6</ele>
        <time>2022-10-29T11:38:21Z</time>
      </trkpt>
      <trkpt lat="44.35622" lon="3.64276">
        <ele>643.6</ele>
        <time>2022-10-29T11:38:22Z</time>
      </trkpt>
      <trkpt lat="44.35622" lon="3.64275">
        <ele>643.6</ele>
        <time>2022-10-29T11:38:23Z</time>
      </trkpt>
      <trkpt lat="44.35623" lon="3.64273">
        <ele>643.6</ele>
        <time>2022-10-29T11:38:42Z</time>
      </trkpt>
      <trkpt lat="44.35623" lon="3.64272">
        <ele>643.6</ele>
        <time>2022-10-29T11:38:43Z</time>
      </trkpt>
      <trkpt lat="44.35625" lon="3.6427">
        <ele>643.6</ele>
        <time>2022-10-29T11:38:44Z</time>
      </trkpt>
      <trkpt lat="44.35627" lon="3.64266">
        <ele>643.6</ele>
        <time>2022-10-29T11:38:45Z</time>
      </trkpt>
      <trkpt lat="44.3563" lon="3.64261">
        <ele>643.6</ele>
        <time>2022-10-29T11:38:46Z</time>
      </trkpt>
      <trkpt lat="44.35633" lon="3.64258">
        <ele>643.6</ele>
        <time>2022-10-29T11:38:47Z</time>
      </trkpt>
      <trkpt lat="44.35635" lon="3.64253">
        <ele>643.6</ele>
        <time>2022-10-29T11:38:48Z</time>
      </trkpt>
      <trkpt lat="44.35638" lon="3.6425">
        <ele>643.8</ele>
        <time>2022-10-29T11:38:49Z</time>
      </trkpt>
      <trkpt lat="44.35641" lon="3.64246">
        <ele>643.8</ele>
        <time>2022-10-29T11:38:50Z</time>
      </trkpt>
      <trkpt lat="44.35645" lon="3.64244">
        <ele>643.8</ele>
        <time>2022-10-29T11:38:51Z</time>
      </trkpt>
      <trkpt lat="44.35649" lon="3.64242">
        <ele>643.6</ele>
        <time>2022-10-29T11:38:52Z</time>
      </trkpt>
      <trkpt lat="44.35653" lon="3.6424">
        <ele>643.6</ele>
        <time>2022-10-29T11:38:53Z</time>
      </trkpt>
      <trkpt lat="44.35657" lon="3.6424">
        <ele>643.4</ele>
        <time>2022-10-29T11:38:54Z</time>
      </trkpt>
      <trkpt lat="44.35662" lon="3.6424">
        <ele>643.2</ele>
        <time>2022-10-29T11:38:55Z</time>
      </trkpt>
      <trkpt lat="44.35668" lon="3.64242">
        <ele>643.2</ele>
        <time>2022-10-29T11:38:56Z</time>
      </trkpt>
      <trkpt lat="44.35673" lon="3.64244">
        <ele>643</ele>
        <time>2022-10-29T11:38:57Z</time>
      </trkpt>
      <trkpt lat="44.35679" lon="3.64247">
        <ele>642.8</ele>
        <time>2022-10-29T11:38:58Z</time>
      </trkpt>
      <trkpt lat="44.35684" lon="3.64249">
        <ele>642.6</ele>
        <time>2022-10-29T11:38:59Z</time>
      </trkpt>
      <trkpt lat="44.35689" lon="3.64252">
        <ele>642.4</ele>
        <time>2022-10-29T11:39:00Z</time>
      </trkpt>
      <trkpt lat="44.35695" lon="3.64255">
        <ele>642.4</ele>
        <time>2022-10-29T11:39:01Z</time>
      </trkpt>
      <trkpt lat="44.35702" lon="3.64257">
        <ele>642.2</ele>
        <time>2022-10-29T11:39:02Z</time>
      </trkpt>
      <trkpt lat="44.35708" lon="3.64258">
        <ele>642</ele>
        <time>2022-10-29T11:39:03Z</time>
      </trkpt>
      <trkpt lat="44.35715" lon="3.64259">
        <ele>641.8</ele>
        <time>2022-10-29T11:39:04Z</time>
      </trkpt>
      <trkpt lat="44.35721" lon="3.64259">
        <ele>641.6</ele>
        <time>2022-10-29T11:39:05Z</time>
      </trkpt>
      <trkpt lat="44.35728" lon="3.6426">
        <ele>641.4</ele>
        <time>2022-10-29T11:39:06Z</time>
      </trkpt>
      <trkpt lat="44.35734" lon="3.64261">
        <ele>641.2</ele>
        <time>2022-10-29T11:39:07Z</time>
      </trkpt>
      <trkpt lat="44.35741" lon="3.64262">
        <ele>641</ele>
        <time>2022-10-29T11:39:08Z</time>
      </trkpt>
      <trkpt lat="44.35747" lon="3.64264">
        <ele>640.8</ele>
        <time>2022-10-29T11:39:09Z</time>
      </trkpt>
      <trkpt lat="44.35752" lon="3.64266">
        <ele>640.6</ele>
        <time>2022-10-29T11:39:10Z</time>
      </trkpt>
      <trkpt lat="44.35758" lon="3.64269">
        <ele>640.4</ele>
        <time>2022-10-29T11:39:11Z</time>
      </trkpt>
      <trkpt lat="44.35765" lon="3.64272">
        <ele>640</ele>
        <time>2022-10-29T11:39:12Z</time>
      </trkpt>
      <trkpt lat="44.35771" lon="3.64275">
        <ele>639.8</ele>
        <time>2022-10-29T11:39:13Z</time>
      </trkpt>
      <trkpt lat="44.35777" lon="3.64278">
        <ele>639.6</ele>
        <time>2022-10-29T11:39:14Z</time>
      </trkpt>
      <trkpt lat="44.35785" lon="3.64282">
        <ele>639.4</ele>
        <time>2022-10-29T11:39:15Z</time>
      </trkpt>
      <trkpt lat="44.35792" lon="3.64286">
        <ele>639</ele>
        <time>2022-10-29T11:39:16Z</time>
      </trkpt>
      <trkpt lat="44.35799" lon="3.6429">
        <ele>638.8</ele>
        <time>2022-10-29T11:39:17Z</time>
      </trkpt>
      <trkpt lat="44.35806" lon="3.64293">
        <ele>638.4</ele>
        <time>2022-10-29T11:39:18Z</time>
      </trkpt>
      <trkpt lat="44.35814" lon="3.64294">
        <ele>638</ele>
        <time>2022-10-29T11:39:19Z</time>
      </trkpt>
      <trkpt lat="44.3582" lon="3.64293">
        <ele>637.6</ele>
        <time>2022-10-29T11:39:20Z</time>
      </trkpt>
      <trkpt lat="44.35826" lon="3.6429">
        <ele>637.4</ele>
        <time>2022-10-29T11:39:21Z</time>
      </trkpt>
      <trkpt lat="44.35831" lon="3.64284">
        <ele>637</ele>
        <time>2022-10-29T11:39:22Z</time>
      </trkpt>
      <trkpt lat="44.35836" lon="3.64278">
        <ele>636.8</ele>
        <time>2022-10-29T11:39:23Z</time>
      </trkpt>
      <trkpt lat="44.35839" lon="3.6427">
        <ele>636.6</ele>
        <time>2022-10-29T11:39:24Z</time>
      </trkpt>
      <trkpt lat="44.3584" lon="3.6426">
        <ele>636.4</ele>
        <time>2022-10-29T11:39:25Z</time>
      </trkpt>
      <trkpt lat="44.3584" lon="3.64251">
        <ele>636.2</ele>
        <time>2022-10-29T11:39:26Z</time>
      </trkpt>
      <trkpt lat="44.35838" lon="3.64242">
        <ele>636</ele>
        <time>2022-10-29T11:39:27Z</time>
      </trkpt>
      <trkpt lat="44.35835" lon="3.64233">
        <ele>635.8</ele>
        <time>2022-10-29T11:39:28Z</time>
      </trkpt>
      <trkpt lat="44.35831" lon="3.64224">
        <ele>635.6</ele>
        <time>2022-10-29T11:39:29Z</time>
      </trkpt>
      <trkpt lat="44.35827" lon="3.64215">
        <ele>635.4</ele>
        <time>2022-10-29T11:39:30Z</time>
      </trkpt>
      <trkpt lat="44.35822" lon="3.64207">
        <ele>635</ele>
        <time>2022-10-29T11:39:31Z</time>
      </trkpt>
      <trkpt lat="44.35817" lon="3.64199">
        <ele>634.6</ele>
        <time>2022-10-29T11:39:32Z</time>
      </trkpt>
      <trkpt lat="44.35812" lon="3.64191">
        <ele>634.4</ele>
        <time>2022-10-29T11:39:33Z</time>
      </trkpt>
      <trkpt lat="44.35806" lon="3.64182">
        <ele>634.2</ele>
        <time>2022-10-29T11:39:34Z</time>
      </trkpt>
      <trkpt lat="44.358" lon="3.64175">
        <ele>633.8</ele>
        <time>2022-10-29T11:39:35Z</time>
      </trkpt>
      <trkpt lat="44.35792" lon="3.64169">
        <ele>633.6</ele>
        <time>2022-10-29T11:39:36Z</time>
      </trkpt>
      <trkpt lat="44.35784" lon="3.64165">
        <ele>633.2</ele>
        <time>2022-10-29T11:39:37Z</time>
      </trkpt>
      <trkpt lat="44.35776" lon="3.64163">
        <ele>633</ele>
        <time>2022-10-29T11:39:38Z</time>
      </trkpt>
      <trkpt lat="44.35767" lon="3.64161">
        <ele>632.6</ele>
        <time>2022-10-29T11:39:39Z</time>
      </trkpt>
      <trkpt lat="44.3576" lon="3.64159">
        <ele>632.4</ele>
        <time>2022-10-29T11:39:40Z</time>
      </trkpt>
      <trkpt lat="44.35751" lon="3.64157">
        <ele>632.2</ele>
        <time>2022-10-29T11:39:41Z</time>
      </trkpt>
      <trkpt lat="44.35742" lon="3.64155">
        <ele>631.8</ele>
        <time>2022-10-29T11:39:42Z</time>
      </trkpt>
      <trkpt lat="44.35733" lon="3.64152">
        <ele>631.4</ele>
        <time>2022-10-29T11:39:43Z</time>
      </trkpt>
      <trkpt lat="44.35726" lon="3.64149">
        <ele>631</ele>
        <time>2022-10-29T11:39:44Z</time>
      </trkpt>
      <trkpt lat="44.35718" lon="3.64144">
        <ele>630.8</ele>
        <time>2022-10-29T11:39:45Z</time>
      </trkpt>
      <trkpt lat="44.3571" lon="3.64139">
        <ele>630.4</ele>
        <time>2022-10-29T11:39:46Z</time>
      </trkpt>
      <trkpt lat="44.35703" lon="3.64133">
        <ele>630.2</ele>
        <time>2022-10-29T11:39:47Z</time>
      </trkpt>
      <trkpt lat="44.35696" lon="3.64125">
        <ele>629.8</ele>
        <time>2022-10-29T11:39:48Z</time>
      </trkpt>
      <trkpt lat="44.35689" lon="3.64117">
        <ele>629.4</ele>
        <time>2022-10-29T11:39:49Z</time>
      </trkpt>
      <trkpt lat="44.35683" lon="3.64109">
        <ele>629.2</ele>
        <time>2022-10-29T11:39:50Z</time>
      </trkpt>
      <trkpt lat="44.35678" lon="3.641">
        <ele>628.8</ele>
        <time>2022-10-29T11:39:51Z</time>
      </trkpt>
      <trkpt lat="44.35673" lon="3.6409">
        <ele>628.6</ele>
        <time>2022-10-29T11:39:52Z</time>
      </trkpt>
      <trkpt lat="44.35668" lon="3.6408">
        <ele>628.2</ele>
        <time>2022-10-29T11:39:53Z</time>
      </trkpt>
      <trkpt lat="44.35663" lon="3.64069">
        <ele>628</ele>
        <time>2022-10-29T11:39:54Z</time>
      </trkpt>
      <trkpt lat="44.35659" lon="3.64058">
        <ele>627.8</ele>
        <time>2022-10-29T11:39:55Z</time>
      </trkpt>
      <trkpt lat="44.35656" lon="3.64047">
        <ele>627.6</ele>
        <time>2022-10-29T11:39:56Z</time>
      </trkpt>
      <trkpt lat="44.35654" lon="3.64036">
        <ele>627.6</ele>
        <time>2022-10-29T11:39:57Z</time>
      </trkpt>
      <trkpt lat="44.35651" lon="3.64026">
        <ele>627.6</ele>
        <time>2022-10-29T11:39:58Z</time>
      </trkpt>
      <trkpt lat="44.3565" lon="3.64016">
        <ele>627.6</ele>
        <time>2022-10-29T11:39:59Z</time>
      </trkpt>
      <trkpt lat="44.35647" lon="3.64006">
        <ele>627.6</ele>
        <time>2022-10-29T11:40:00Z</time>
      </trkpt>
      <trkpt lat="44.35644" lon="3.63998">
        <ele>627.6</ele>
        <time>2022-10-29T11:40:01Z</time>
      </trkpt>
      <trkpt lat="44.35641" lon="3.6399">
        <ele>627.8</ele>
        <time>2022-10-29T11:40:02Z</time>
      </trkpt>
      <trkpt lat="44.35639" lon="3.63982">
        <ele>627.8</ele>
        <time>2022-10-29T11:40:03Z</time>
      </trkpt>
      <trkpt lat="44.35636" lon="3.63975">
        <ele>628</ele>
        <time>2022-10-29T11:40:04Z</time>
      </trkpt>
      <trkpt lat="44.35634" lon="3.63968">
        <ele>628.2</ele>
        <time>2022-10-29T11:40:05Z</time>
      </trkpt>
      <trkpt lat="44.35631" lon="3.6396">
        <ele>628.4</ele>
        <time>2022-10-29T11:40:06Z</time>
      </trkpt>
      <trkpt lat="44.35629" lon="3.63953">
        <ele>628.4</ele>
        <time>2022-10-29T11:40:07Z</time>
      </trkpt>
      <trkpt lat="44.35627" lon="3.63946">
        <ele>628.6</ele>
        <time>2022-10-29T11:40:08Z</time>
      </trkpt>
      <trkpt lat="44.35626" lon="3.6394">
        <ele>628.8</ele>
        <time>2022-10-29T11:40:09Z</time>
      </trkpt>
      <trkpt lat="44.35624" lon="3.63934">
        <ele>629</ele>
        <time>2022-10-29T11:40:10Z</time>
      </trkpt>
      <trkpt lat="44.35622" lon="3.63928">
        <ele>629.2</ele>
        <time>2022-10-29T11:40:11Z</time>
      </trkpt>
      <trkpt lat="44.3562" lon="3.63923">
        <ele>629.4</ele>
        <time>2022-10-29T11:40:12Z</time>
      </trkpt>
      <trkpt lat="44.35618" lon="3.63918">
        <ele>629.6</ele>
        <time>2022-10-29T11:40:13Z</time>
      </trkpt>
      <trkpt lat="44.35617" lon="3.63913">
        <ele>629.8</ele>
        <time>2022-10-29T11:40:14Z</time>
      </trkpt>
      <trkpt lat="44.35614" lon="3.63908">
        <ele>630</ele>
        <time>2022-10-29T11:40:15Z</time>
      </trkpt>
      <trkpt lat="44.35612" lon="3.63904">
        <ele>630</ele>
        <time>2022-10-29T11:40:16Z</time>
      </trkpt>
      <trkpt lat="44.35609" lon="3.63899">
        <ele>630.2</ele>
        <time>2022-10-29T11:40:17Z</time>
      </trkpt>
      <trkpt lat="44.35607" lon="3.63895">
        <ele>630.4</ele>
        <time>2022-10-29T11:40:18Z</time>
      </trkpt>
      <trkpt lat="44.35604" lon="3.6389">
        <ele>630.6</ele>
        <time>2022-10-29T11:40:19Z</time>
      </trkpt>
      <trkpt lat="44.356" lon="3.63887">
        <ele>630.6</ele>
        <time>2022-10-29T11:40:20Z</time>
      </trkpt>
      <trkpt lat="44.35597" lon="3.63883">
        <ele>630.8</ele>
        <time>2022-10-29T11:40:21Z</time>
      </trkpt>
      <trkpt lat="44.35594" lon="3.63879">
        <ele>631</ele>
        <time>2022-10-29T11:40:22Z</time>
      </trkpt>
      <trkpt lat="44.35591" lon="3.63875">
        <ele>631</ele>
        <time>2022-10-29T11:40:23Z</time>
      </trkpt>
      <trkpt lat="44.35589" lon="3.63871">
        <ele>631.2</ele>
        <time>2022-10-29T11:40:24Z</time>
      </trkpt>
      <trkpt lat="44.35585" lon="3.63867">
        <ele>631.4</ele>
        <time>2022-10-29T11:40:25Z</time>
      </trkpt>
      <trkpt lat="44.35582" lon="3.63864">
        <ele>631.6</ele>
        <time>2022-10-29T11:40:26Z</time>
      </trkpt>
      <trkpt lat="44.35579" lon="3.6386">
        <ele>631.6</ele>
        <time>2022-10-29T11:40:27Z</time>
      </trkpt>
      <trkpt lat="44.35576" lon="3.63856">
        <ele>631.8</ele>
        <time>2022-10-29T11:40:28Z</time>
      </trkpt>
      <trkpt lat="44.35573" lon="3.63853">
        <ele>632</ele>
        <time>2022-10-29T11:40:29Z</time>
      </trkpt>
      <trkpt lat="44.35569" lon="3.6385">
        <ele>632</ele>
        <time>2022-10-29T11:40:30Z</time>
      </trkpt>
      <trkpt lat="44.35566" lon="3.63848">
        <ele>632.2</ele>
        <time>2022-10-29T11:40:31Z</time>
      </trkpt>
      <trkpt lat="44.35561" lon="3.63846">
        <ele>632.2</ele>
        <time>2022-10-29T11:40:32Z</time>
      </trkpt>
      <trkpt lat="44.35558" lon="3.63843">
        <ele>632.2</ele>
        <time>2022-10-29T11:40:33Z</time>
      </trkpt>
      <trkpt lat="44.35554" lon="3.6384">
        <ele>632.2</ele>
        <time>2022-10-29T11:40:34Z</time>
      </trkpt>
      <trkpt lat="44.35551" lon="3.63836">
        <ele>632.4</ele>
        <time>2022-10-29T11:40:35Z</time>
      </trkpt>
      <trkpt lat="44.35547" lon="3.63832">
        <ele>632.6</ele>
        <time>2022-10-29T11:40:36Z</time>
      </trkpt>
      <trkpt lat="44.35544" lon="3.63829">
        <ele>632.6</ele>
        <time>2022-10-29T11:40:37Z</time>
      </trkpt>
      <trkpt lat="44.35541" lon="3.63825">
        <ele>632.8</ele>
        <time>2022-10-29T11:40:38Z</time>
      </trkpt>
      <trkpt lat="44.35538" lon="3.63821">
        <ele>632.8</ele>
        <time>2022-10-29T11:40:39Z</time>
      </trkpt>
      <trkpt lat="44.35536" lon="3.63817">
        <ele>633</ele>
        <time>2022-10-29T11:40:40Z</time>
      </trkpt>
      <trkpt lat="44.35532" lon="3.63813">
        <ele>633</ele>
        <time>2022-10-29T11:40:41Z</time>
      </trkpt>
      <trkpt lat="44.35529" lon="3.63808">
        <ele>633.2</ele>
        <time>2022-10-29T11:40:42Z</time>
      </trkpt>
      <trkpt lat="44.35526" lon="3.63804">
        <ele>633.2</ele>
        <time>2022-10-29T11:40:43Z</time>
      </trkpt>
      <trkpt lat="44.35524" lon="3.638">
        <ele>633.4</ele>
        <time>2022-10-29T11:40:44Z</time>
      </trkpt>
      <trkpt lat="44.35521" lon="3.63796">
        <ele>633.4</ele>
        <time>2022-10-29T11:40:45Z</time>
      </trkpt>
      <trkpt lat="44.35517" lon="3.63792">
        <ele>633.6</ele>
        <time>2022-10-29T11:40:46Z</time>
      </trkpt>
      <trkpt lat="44.35514" lon="3.63788">
        <ele>633.6</ele>
        <time>2022-10-29T11:40:47Z</time>
      </trkpt>
      <trkpt lat="44.35511" lon="3.63785">
        <ele>633.8</ele>
        <time>2022-10-29T11:40:48Z</time>
      </trkpt>
      <trkpt lat="44.35508" lon="3.63781">
        <ele>633.8</ele>
        <time>2022-10-29T11:40:49Z</time>
      </trkpt>
      <trkpt lat="44.35505" lon="3.63778">
        <ele>634</ele>
        <time>2022-10-29T11:40:50Z</time>
      </trkpt>
      <trkpt lat="44.35502" lon="3.63775">
        <ele>634.2</ele>
        <time>2022-10-29T11:40:51Z</time>
      </trkpt>
      <trkpt lat="44.35499" lon="3.63772">
        <ele>634.2</ele>
        <time>2022-10-29T11:40:52Z</time>
      </trkpt>
      <trkpt lat="44.35496" lon="3.63769">
        <ele>634.4</ele>
        <time>2022-10-29T11:40:53Z</time>
      </trkpt>
      <trkpt lat="44.35492" lon="3.63766">
        <ele>634.4</ele>
        <time>2022-10-29T11:40:54Z</time>
      </trkpt>
      <trkpt lat="44.35489" lon="3.63763">
        <ele>634.6</ele>
        <time>2022-10-29T11:40:55Z</time>
      </trkpt>
      <trkpt lat="44.35486" lon="3.6376">
        <ele>634.6</ele>
        <time>2022-10-29T11:40:56Z</time>
      </trkpt>
      <trkpt lat="44.35482" lon="3.63757">
        <ele>634.8</ele>
        <time>2022-10-29T11:40:57Z</time>
      </trkpt>
      <trkpt lat="44.35479" lon="3.63754">
        <ele>634.8</ele>
        <time>2022-10-29T11:40:58Z</time>
      </trkpt>
      <trkpt lat="44.35475" lon="3.63751">
        <ele>635</ele>
        <time>2022-10-29T11:40:59Z</time>
      </trkpt>
      <trkpt lat="44.35472" lon="3.63747">
        <ele>635</ele>
        <time>2022-10-29T11:41:00Z</time>
      </trkpt>
      <trkpt lat="44.35469" lon="3.63743">
        <ele>635</ele>
        <time>2022-10-29T11:41:01Z</time>
      </trkpt>
      <trkpt lat="44.35466" lon="3.63739">
        <ele>635.2</ele>
        <time>2022-10-29T11:41:02Z</time>
      </trkpt>
      <trkpt lat="44.35463" lon="3.63735">
        <ele>635.2</ele>
        <time>2022-10-29T11:41:03Z</time>
      </trkpt>
      <trkpt lat="44.3546" lon="3.6373">
        <ele>635.2</ele>
        <time>2022-10-29T11:41:04Z</time>
      </trkpt>
      <trkpt lat="44.35457" lon="3.63725">
        <ele>635.2</ele>
        <time>2022-10-29T11:41:05Z</time>
      </trkpt>
      <trkpt lat="44.35455" lon="3.63719">
        <ele>635</ele>
        <time>2022-10-29T11:41:06Z</time>
      </trkpt>
      <trkpt lat="44.35453" lon="3.63713">
        <ele>635</ele>
        <time>2022-10-29T11:41:07Z</time>
      </trkpt>
      <trkpt lat="44.35451" lon="3.63707">
        <ele>635</ele>
        <time>2022-10-29T11:41:08Z</time>
      </trkpt>
      <trkpt lat="44.3545" lon="3.637">
        <ele>635</ele>
        <time>2022-10-29T11:41:09Z</time>
      </trkpt>
      <trkpt lat="44.35449" lon="3.63693">
        <ele>635</ele>
        <time>2022-10-29T11:41:10Z</time>
      </trkpt>
      <trkpt lat="44.35448" lon="3.63685">
        <ele>634.8</ele>
        <time>2022-10-29T11:41:11Z</time>
      </trkpt>
      <trkpt lat="44.35447" lon="3.63678">
        <ele>634.6</ele>
        <time>2022-10-29T11:41:12Z</time>
      </trkpt>
      <trkpt lat="44.35447" lon="3.6367">
        <ele>634.4</ele>
        <time>2022-10-29T11:41:13Z</time>
      </trkpt>
      <trkpt lat="44.35446" lon="3.63662">
        <ele>634.2</ele>
        <time>2022-10-29T11:41:14Z</time>
      </trkpt>
      <trkpt lat="44.35445" lon="3.63653">
        <ele>634</ele>
        <time>2022-10-29T11:41:15Z</time>
      </trkpt>
      <trkpt lat="44.35444" lon="3.63644">
        <ele>633.8</ele>
        <time>2022-10-29T11:41:16Z</time>
      </trkpt>
      <trkpt lat="44.35443" lon="3.63635">
        <ele>633.6</ele>
        <time>2022-10-29T11:41:17Z</time>
      </trkpt>
      <trkpt lat="44.35443" lon="3.63627">
        <ele>633.4</ele>
        <time>2022-10-29T11:41:18Z</time>
      </trkpt>
      <trkpt lat="44.35442" lon="3.63617">
        <ele>633.2</ele>
        <time>2022-10-29T11:41:19Z</time>
      </trkpt>
      <trkpt lat="44.35441" lon="3.63607">
        <ele>633</ele>
        <time>2022-10-29T11:41:20Z</time>
      </trkpt>
      <trkpt lat="44.3544" lon="3.63597">
        <ele>632.8</ele>
        <time>2022-10-29T11:41:21Z</time>
      </trkpt>
      <trkpt lat="44.3544" lon="3.63588">
        <ele>632.6</ele>
        <time>2022-10-29T11:41:22Z</time>
      </trkpt>
      <trkpt lat="44.35438" lon="3.63577">
        <ele>632.4</ele>
        <time>2022-10-29T11:41:23Z</time>
      </trkpt>
      <trkpt lat="44.35437" lon="3.63566">
        <ele>632.2</ele>
        <time>2022-10-29T11:41:24Z</time>
      </trkpt>
      <trkpt lat="44.35435" lon="3.63555">
        <ele>631.8</ele>
        <time>2022-10-29T11:41:25Z</time>
      </trkpt>
      <trkpt lat="44.35434" lon="3.63543">
        <ele>631.4</ele>
        <time>2022-10-29T11:41:26Z</time>
      </trkpt>
      <trkpt lat="44.35433" lon="3.63532">
        <ele>631.2</ele>
        <time>2022-10-29T11:41:27Z</time>
      </trkpt>
      <trkpt lat="44.35432" lon="3.6352">
        <ele>630.8</ele>
        <time>2022-10-29T11:41:28Z</time>
      </trkpt>
      <trkpt lat="44.3543" lon="3.63509">
        <ele>630.4</ele>
        <time>2022-10-29T11:41:29Z</time>
      </trkpt>
      <trkpt lat="44.35429" lon="3.63497">
        <ele>630</ele>
        <time>2022-10-29T11:41:30Z</time>
      </trkpt>
      <trkpt lat="44.35428" lon="3.63484">
        <ele>629.6</ele>
        <time>2022-10-29T11:41:31Z</time>
      </trkpt>
      <trkpt lat="44.35426" lon="3.63473">
        <ele>629.2</ele>
        <time>2022-10-29T11:41:32Z</time>
      </trkpt>
      <trkpt lat="44.35425" lon="3.63461">
        <ele>628.8</ele>
        <time>2022-10-29T11:41:33Z</time>
      </trkpt>
      <trkpt lat="44.35423" lon="3.63448">
        <ele>628.4</ele>
        <time>2022-10-29T11:41:34Z</time>
      </trkpt>
      <trkpt lat="44.35421" lon="3.63436">
        <ele>627.8</ele>
        <time>2022-10-29T11:41:35Z</time>
      </trkpt>
      <trkpt lat="44.35419" lon="3.63423">
        <ele>627.4</ele>
        <time>2022-10-29T11:41:36Z</time>
      </trkpt>
      <trkpt lat="44.35417" lon="3.6341">
        <ele>627</ele>
        <time>2022-10-29T11:41:37Z</time>
      </trkpt>
      <trkpt lat="44.35415" lon="3.63397">
        <ele>626.4</ele>
        <time>2022-10-29T11:41:38Z</time>
      </trkpt>
      <trkpt lat="44.35414" lon="3.63384">
        <ele>626</ele>
        <time>2022-10-29T11:41:39Z</time>
      </trkpt>
      <trkpt lat="44.35413" lon="3.6337">
        <ele>625.6</ele>
        <time>2022-10-29T11:41:40Z</time>
      </trkpt>
      <trkpt lat="44.35413" lon="3.63357">
        <ele>625</ele>
        <time>2022-10-29T11:41:41Z</time>
      </trkpt>
      <trkpt lat="44.35414" lon="3.63343">
        <ele>624.6</ele>
        <time>2022-10-29T11:41:42Z</time>
      </trkpt>
      <trkpt lat="44.35414" lon="3.6333">
        <ele>624.2</ele>
        <time>2022-10-29T11:41:43Z</time>
      </trkpt>
      <trkpt lat="44.35415" lon="3.63318">
        <ele>624</ele>
        <time>2022-10-29T11:41:44Z</time>
      </trkpt>
      <trkpt lat="44.35416" lon="3.63305">
        <ele>623.6</ele>
        <time>2022-10-29T11:41:45Z</time>
      </trkpt>
      <trkpt lat="44.35417" lon="3.63293">
        <ele>623.2</ele>
        <time>2022-10-29T11:41:46Z</time>
      </trkpt>
      <trkpt lat="44.35418" lon="3.63282">
        <ele>622.8</ele>
        <time>2022-10-29T11:41:47Z</time>
      </trkpt>
      <trkpt lat="44.3542" lon="3.6327">
        <ele>622.6</ele>
        <time>2022-10-29T11:41:48Z</time>
      </trkpt>
      <trkpt lat="44.3542" lon="3.63258">
        <ele>622.4</ele>
        <time>2022-10-29T11:41:49Z</time>
      </trkpt>
      <trkpt lat="44.35421" lon="3.63246">
        <ele>622.2</ele>
        <time>2022-10-29T11:41:50Z</time>
      </trkpt>
      <trkpt lat="44.35422" lon="3.63235">
        <ele>622.2</ele>
        <time>2022-10-29T11:41:51Z</time>
      </trkpt>
      <trkpt lat="44.3542" lon="3.63225">
        <ele>622</ele>
        <time>2022-10-29T11:41:52Z</time>
      </trkpt>
      <trkpt lat="44.35418" lon="3.63217">
        <ele>621.8</ele>
        <time>2022-10-29T11:41:53Z</time>
      </trkpt>
      <trkpt lat="44.35416" lon="3.63211">
        <ele>621.6</ele>
        <time>2022-10-29T11:41:54Z</time>
      </trkpt>
      <trkpt lat="44.35414" lon="3.63206">
        <ele>621.4</ele>
        <time>2022-10-29T11:41:55Z</time>
      </trkpt>
      <trkpt lat="44.35413" lon="3.63202">
        <ele>621.4</ele>
        <time>2022-10-29T11:41:56Z</time>
      </trkpt>
      <trkpt lat="44.35413" lon="3.63198">
        <ele>621.4</ele>
        <time>2022-10-29T11:41:57Z</time>
      </trkpt>
      <trkpt lat="44.35413" lon="3.63195">
        <ele>621.4</ele>
        <time>2022-10-29T11:41:58Z</time>
      </trkpt>
      <trkpt lat="44.35412" lon="3.63192">
        <ele>621.4</ele>
        <time>2022-10-29T11:41:59Z</time>
      </trkpt>
      <trkpt lat="44.35412" lon="3.6319">
        <ele>621.4</ele>
        <time>2022-10-29T11:42:00Z</time>
      </trkpt>
      <trkpt lat="44.35412" lon="3.63188">
        <ele>621.4</ele>
        <time>2022-10-29T11:42:01Z</time>
      </trkpt>
      <trkpt lat="44.35412" lon="3.63188">
        <ele>621.4</ele>
        <time>2022-10-29T11:42:02Z</time>
      </trkpt>
      <trkpt lat="44.35413" lon="3.63184">
        <ele>621.4</ele>
        <time>2022-10-29T11:42:30Z</time>
      </trkpt>
      <trkpt lat="44.35414" lon="3.6318">
        <ele>621.4</ele>
        <time>2022-10-29T11:42:31Z</time>
      </trkpt>
      <trkpt lat="44.35415" lon="3.63176">
        <ele>621.4</ele>
        <time>2022-10-29T11:42:32Z</time>
      </trkpt>
      <trkpt lat="44.35415" lon="3.63172">
        <ele>621.4</ele>
        <time>2022-10-29T11:42:33Z</time>
      </trkpt>
      <trkpt lat="44.35416" lon="3.63169">
        <ele>621.6</ele>
        <time>2022-10-29T11:42:34Z</time>
      </trkpt>
      <trkpt lat="44.35416" lon="3.63165">
        <ele>621.6</ele>
        <time>2022-10-29T11:42:35Z</time>
      </trkpt>
      <trkpt lat="44.35415" lon="3.63161">
        <ele>621.8</ele>
        <time>2022-10-29T11:42:36Z</time>
      </trkpt>
      <trkpt lat="44.35415" lon="3.63157">
        <ele>622</ele>
        <time>2022-10-29T11:42:37Z</time>
      </trkpt>
      <trkpt lat="44.35415" lon="3.63153">
        <ele>622.2</ele>
        <time>2022-10-29T11:42:38Z</time>
      </trkpt>
      <trkpt lat="44.35416" lon="3.63149">
        <ele>622.4</ele>
        <time>2022-10-29T11:42:39Z</time>
      </trkpt>
      <trkpt lat="44.35416" lon="3.63145">
        <ele>622.4</ele>
        <time>2022-10-29T11:42:40Z</time>
      </trkpt>
      <trkpt lat="44.35417" lon="3.6314">
        <ele>622.6</ele>
        <time>2022-10-29T11:42:41Z</time>
      </trkpt>
      <trkpt lat="44.35417" lon="3.63136">
        <ele>622.8</ele>
        <time>2022-10-29T11:42:42Z</time>
      </trkpt>
      <trkpt lat="44.35417" lon="3.63132">
        <ele>623</ele>
        <time>2022-10-29T11:42:43Z</time>
      </trkpt>
      <trkpt lat="44.35417" lon="3.63127">
        <ele>623</ele>
        <time>2022-10-29T11:42:44Z</time>
      </trkpt>
      <trkpt lat="44.35418" lon="3.63123">
        <ele>623.2</ele>
        <time>2022-10-29T11:42:45Z</time>
      </trkpt>
      <trkpt lat="44.35418" lon="3.63119">
        <ele>623.4</ele>
        <time>2022-10-29T11:42:46Z</time>
      </trkpt>
      <trkpt lat="44.35418" lon="3.63114">
        <ele>623.6</ele>
        <time>2022-10-29T11:42:47Z</time>
      </trkpt>
      <trkpt lat="44.35418" lon="3.6311">
        <ele>623.8</ele>
        <time>2022-10-29T11:42:48Z</time>
      </trkpt>
      <trkpt lat="44.35418" lon="3.63106">
        <ele>624</ele>
        <time>2022-10-29T11:42:49Z</time>
      </trkpt>
      <trkpt lat="44.35419" lon="3.63101">
        <ele>624.2</ele>
        <time>2022-10-29T11:42:50Z</time>
      </trkpt>
      <trkpt lat="44.35419" lon="3.63096">
        <ele>624.4</ele>
        <time>2022-10-29T11:42:51Z</time>
      </trkpt>
      <trkpt lat="44.35419" lon="3.63092">
        <ele>624.8</ele>
        <time>2022-10-29T11:42:52Z</time>
      </trkpt>
      <trkpt lat="44.3542" lon="3.63088">
        <ele>625</ele>
        <time>2022-10-29T11:42:53Z</time>
      </trkpt>
      <trkpt lat="44.3542" lon="3.63084">
        <ele>625.2</ele>
        <time>2022-10-29T11:42:54Z</time>
      </trkpt>
      <trkpt lat="44.3542" lon="3.6308">
        <ele>625.6</ele>
        <time>2022-10-29T11:42:55Z</time>
      </trkpt>
      <trkpt lat="44.35419" lon="3.63076">
        <ele>625.8</ele>
        <time>2022-10-29T11:42:56Z</time>
      </trkpt>
      <trkpt lat="44.35418" lon="3.63072">
        <ele>626</ele>
        <time>2022-10-29T11:42:57Z</time>
      </trkpt>
      <trkpt lat="44.35416" lon="3.63069">
        <ele>626</ele>
        <time>2022-10-29T11:42:58Z</time>
      </trkpt>
      <trkpt lat="44.35415" lon="3.63067">
        <ele>626.2</ele>
        <time>2022-10-29T11:42:59Z</time>
      </trkpt>
      <trkpt lat="44.35413" lon="3.63066">
        <ele>626.2</ele>
        <time>2022-10-29T11:43:00Z</time>
      </trkpt>
      <trkpt lat="44.35412" lon="3.63066">
        <ele>626.2</ele>
        <time>2022-10-29T11:43:01Z</time>
      </trkpt>
      <trkpt lat="44.35412" lon="3.63066">
        <ele>626.2</ele>
        <time>2022-10-29T11:43:02Z</time>
      </trkpt>
      <trkpt lat="44.35412" lon="3.63066">
        <ele>626.2</ele>
        <time>2022-10-29T11:43:03Z</time>
      </trkpt>
      <trkpt lat="44.35412" lon="3.63066">
        <ele>626.2</ele>
        <time>2022-10-29T11:43:04Z</time>
      </trkpt>
      <trkpt lat="44.35412" lon="3.63066">
        <ele>626.2</ele>
        <time>2022-10-29T11:43:05Z</time>
      </trkpt>
      <trkpt lat="44.35412" lon="3.63066">
        <ele>626.2</ele>
        <time>2022-10-29T11:43:06Z</time>
      </trkpt>
      <trkpt lat="44.35412" lon="3.63066">
        <ele>626.2</ele>
        <time>2022-10-29T11:43:07Z</time>
      </trkpt>
      <trkpt lat="44.35411" lon="3.63064">
        <ele>626.2</ele>
        <time>2022-10-29T11:43:19Z</time>
      </trkpt>
      <trkpt lat="44.3541" lon="3.63061">
        <ele>626.2</ele>
        <time>2022-10-29T11:43:20Z</time>
      </trkpt>
      <trkpt lat="44.35408" lon="3.63058">
        <ele>626.4</ele>
        <time>2022-10-29T11:43:21Z</time>
      </trkpt>
      <trkpt lat="44.35406" lon="3.63054">
        <ele>626.6</ele>
        <time>2022-10-29T11:43:22Z</time>
      </trkpt>
      <trkpt lat="44.35405" lon="3.6305">
        <ele>626.6</ele>
        <time>2022-10-29T11:43:23Z</time>
      </trkpt>
      <trkpt lat="44.35404" lon="3.63046">
        <ele>626.8</ele>
        <time>2022-10-29T11:43:24Z</time>
      </trkpt>
      <trkpt lat="44.35402" lon="3.63042">
        <ele>627</ele>
        <time>2022-10-29T11:43:25Z</time>
      </trkpt>
      <trkpt lat="44.354" lon="3.63038">
        <ele>627.2</ele>
        <time>2022-10-29T11:43:26Z</time>
      </trkpt>
      <trkpt lat="44.35398" lon="3.63034">
        <ele>627.6</ele>
        <time>2022-10-29T11:43:27Z</time>
      </trkpt>
      <trkpt lat="44.35396" lon="3.6303">
        <ele>627.8</ele>
        <time>2022-10-29T11:43:28Z</time>
      </trkpt>
      <trkpt lat="44.35394" lon="3.63027">
        <ele>628</ele>
        <time>2022-10-29T11:43:29Z</time>
      </trkpt>
      <trkpt lat="44.35392" lon="3.63023">
        <ele>628.2</ele>
        <time>2022-10-29T11:43:30Z</time>
      </trkpt>
      <trkpt lat="44.3539" lon="3.6302">
        <ele>628.4</ele>
        <time>2022-10-29T11:43:31Z</time>
      </trkpt>
      <trkpt lat="44.35388" lon="3.63016">
        <ele>628.6</ele>
        <time>2022-10-29T11:43:32Z</time>
      </trkpt>
      <trkpt lat="44.35385" lon="3.63012">
        <ele>628.8</ele>
        <time>2022-10-29T11:43:33Z</time>
      </trkpt>
      <trkpt lat="44.35383" lon="3.63009">
        <ele>629</ele>
        <time>2022-10-29T11:43:34Z</time>
      </trkpt>
      <trkpt lat="44.35381" lon="3.63005">
        <ele>629.2</ele>
        <time>2022-10-29T11:43:35Z</time>
      </trkpt>
      <trkpt lat="44.35378" lon="3.63002">
        <ele>629.4</ele>
        <time>2022-10-29T11:43:36Z</time>
      </trkpt>
      <trkpt lat="44.35375" lon="3.63">
        <ele>629.4</ele>
        <time>2022-10-29T11:43:37Z</time>
      </trkpt>
      <trkpt lat="44.35372" lon="3.62998">
        <ele>629.6</ele>
        <time>2022-10-29T11:43:38Z</time>
      </trkpt>
      <trkpt lat="44.35368" lon="3.62996">
        <ele>629.8</ele>
        <time>2022-10-29T11:43:39Z</time>
      </trkpt>
      <trkpt lat="44.35365" lon="3.62996">
        <ele>630</ele>
        <time>2022-10-29T11:43:40Z</time>
      </trkpt>
      <trkpt lat="44.35361" lon="3.62996">
        <ele>630.2</ele>
        <time>2022-10-29T11:43:41Z</time>
      </trkpt>
      <trkpt lat="44.35358" lon="3.62996">
        <ele>630.4</ele>
        <time>2022-10-29T11:43:42Z</time>
      </trkpt>
      <trkpt lat="44.35354" lon="3.62998">
        <ele>630.6</ele>
        <time>2022-10-29T11:43:43Z</time>
      </trkpt>
      <trkpt lat="44.35351" lon="3.62999">
        <ele>630.8</ele>
        <time>2022-10-29T11:43:44Z</time>
      </trkpt>
      <trkpt lat="44.35348" lon="3.63001">
        <ele>631.2</ele>
        <time>2022-10-29T11:43:45Z</time>
      </trkpt>
      <trkpt lat="44.35345" lon="3.63003">
        <ele>631.2</ele>
        <time>2022-10-29T11:43:46Z</time>
      </trkpt>
      <trkpt lat="44.35343" lon="3.63005">
        <ele>631.4</ele>
        <time>2022-10-29T11:43:47Z</time>
      </trkpt>
      <trkpt lat="44.35341" lon="3.63008">
        <ele>631.6</ele>
        <time>2022-10-29T11:43:48Z</time>
      </trkpt>
      <trkpt lat="44.35339" lon="3.63011">
        <ele>631.6</ele>
        <time>2022-10-29T11:43:49Z</time>
      </trkpt>
      <trkpt lat="44.35338" lon="3.63013">
        <ele>631.6</ele>
        <time>2022-10-29T11:43:50Z</time>
      </trkpt>
      <trkpt lat="44.35337" lon="3.63014">
        <ele>631.8</ele>
        <time>2022-10-29T11:43:51Z</time>
      </trkpt>
      <trkpt lat="44.35336" lon="3.63015">
        <ele>631.6</ele>
        <time>2022-10-29T11:43:52Z</time>
      </trkpt>
      <trkpt lat="44.35335" lon="3.63015">
        <ele>631.6</ele>
        <time>2022-10-29T11:43:53Z</time>
      </trkpt>
      <trkpt lat="44.35335" lon="3.63015">
        <ele>631.6</ele>
        <time>2022-10-29T11:43:54Z</time>
      </trkpt>
      <trkpt lat="44.35335" lon="3.63017">
        <ele>631.4</ele>
        <time>2022-10-29T11:44:02Z</time>
      </trkpt>
      <trkpt lat="44.35334" lon="3.63017">
        <ele>631.4</ele>
        <time>2022-10-29T11:44:03Z</time>
      </trkpt>
      <trkpt lat="44.35334" lon="3.63017">
        <ele>631.2</ele>
        <time>2022-10-29T11:44:04Z</time>
      </trkpt>
      <trkpt lat="44.35333" lon="3.63018">
        <ele>631.2</ele>
        <time>2022-10-29T11:44:05Z</time>
      </trkpt>
      <trkpt lat="44.35332" lon="3.63019">
        <ele>631</ele>
        <time>2022-10-29T11:44:06Z</time>
      </trkpt>
      <trkpt lat="44.3533" lon="3.63019">
        <ele>630.8</ele>
        <time>2022-10-29T11:44:07Z</time>
      </trkpt>
      <trkpt lat="44.35327" lon="3.63019">
        <ele>630.6</ele>
        <time>2022-10-29T11:44:08Z</time>
      </trkpt>
      <trkpt lat="44.35325" lon="3.63018">
        <ele>630.2</ele>
        <time>2022-10-29T11:44:09Z</time>
      </trkpt>
      <trkpt lat="44.35322" lon="3.63017">
        <ele>630</ele>
        <time>2022-10-29T11:44:10Z</time>
      </trkpt>
      <trkpt lat="44.3532" lon="3.63015">
        <ele>629.6</ele>
        <time>2022-10-29T11:44:11Z</time>
      </trkpt>
      <trkpt lat="44.35318" lon="3.63014">
        <ele>629.4</ele>
        <time>2022-10-29T11:44:12Z</time>
      </trkpt>
      <trkpt lat="44.35315" lon="3.63013">
        <ele>629</ele>
        <time>2022-10-29T11:44:13Z</time>
      </trkpt>
      <trkpt lat="44.35313" lon="3.63012">
        <ele>628.6</ele>
        <time>2022-10-29T11:44:14Z</time>
      </trkpt>
      <trkpt lat="44.3531" lon="3.63011">
        <ele>628.2</ele>
        <time>2022-10-29T11:44:15Z</time>
      </trkpt>
      <trkpt lat="44.35308" lon="3.6301">
        <ele>627.8</ele>
        <time>2022-10-29T11:44:16Z</time>
      </trkpt>
      <trkpt lat="44.35305" lon="3.63009">
        <ele>627.4</ele>
        <time>2022-10-29T11:44:17Z</time>
      </trkpt>
      <trkpt lat="44.35302" lon="3.63009">
        <ele>627</ele>
        <time>2022-10-29T11:44:18Z</time>
      </trkpt>
      <trkpt lat="44.35299" lon="3.63009">
        <ele>626.6</ele>
        <time>2022-10-29T11:44:19Z</time>
      </trkpt>
      <trkpt lat="44.35296" lon="3.63008">
        <ele>626.2</ele>
        <time>2022-10-29T11:44:20Z</time>
      </trkpt>
      <trkpt lat="44.35293" lon="3.63009">
        <ele>625.8</ele>
        <time>2022-10-29T11:44:21Z</time>
      </trkpt>
      <trkpt lat="44.35291" lon="3.63009">
        <ele>625.4</ele>
        <time>2022-10-29T11:44:22Z</time>
      </trkpt>
      <trkpt lat="44.35289" lon="3.63009">
        <ele>625.2</ele>
        <time>2022-10-29T11:44:23Z</time>
      </trkpt>
      <trkpt lat="44.35288" lon="3.63008">
        <ele>625</ele>
        <time>2022-10-29T11:44:24Z</time>
      </trkpt>
      <trkpt lat="44.35287" lon="3.63008">
        <ele>624.8</ele>
        <time>2022-10-29T11:44:25Z</time>
      </trkpt>
      <trkpt lat="44.35287" lon="3.63008">
        <ele>624.6</ele>
        <time>2022-10-29T11:44:26Z</time>
      </trkpt>
      <trkpt lat="44.35287" lon="3.63008">
        <ele>624.6</ele>
        <time>2022-10-29T11:44:27Z</time>
      </trkpt>
      <trkpt lat="44.35288" lon="3.63007">
        <ele>624.4</ele>
        <time>2022-10-29T11:44:28Z</time>
      </trkpt>
      <trkpt lat="44.35288" lon="3.63008">
        <ele>624.4</ele>
        <time>2022-10-29T11:44:29Z</time>
      </trkpt>
      <trkpt lat="44.35288" lon="3.63008">
        <ele>624.4</ele>
        <time>2022-10-29T11:44:30Z</time>
      </trkpt>
      <trkpt lat="44.35288" lon="3.63008">
        <ele>624.4</ele>
        <time>2022-10-29T11:44:31Z</time>
      </trkpt>
      <trkpt lat="44.3529" lon="3.63008">
        <ele>624.4</ele>
        <time>2022-10-29T11:45:16Z</time>
      </trkpt>
      <trkpt lat="44.35291" lon="3.63009">
        <ele>624.4</ele>
        <time>2022-10-29T11:45:17Z</time>
      </trkpt>
      <trkpt lat="44.35292" lon="3.63009">
        <ele>624.4</ele>
        <time>2022-10-29T11:45:18Z</time>
      </trkpt>
      <trkpt lat="44.35294" lon="3.63009">
        <ele>624.4</ele>
        <time>2022-10-29T11:45:19Z</time>
      </trkpt>
      <trkpt lat="44.35295" lon="3.63008">
        <ele>624.4</ele>
        <time>2022-10-29T11:45:20Z</time>
      </trkpt>
      <trkpt lat="44.35296" lon="3.63008">
        <ele>624.6</ele>
        <time>2022-10-29T11:45:21Z</time>
      </trkpt>
      <trkpt lat="44.35297" lon="3.63008">
        <ele>624.6</ele>
        <time>2022-10-29T11:45:22Z</time>
      </trkpt>
      <trkpt lat="44.35298" lon="3.63008">
        <ele>624.6</ele>
        <time>2022-10-29T11:45:23Z</time>
      </trkpt>
      <trkpt lat="44.35299" lon="3.63008">
        <ele>624.8</ele>
        <time>2022-10-29T11:45:24Z</time>
      </trkpt>
      <trkpt lat="44.353" lon="3.63008">
        <ele>625</ele>
        <time>2022-10-29T11:45:25Z</time>
      </trkpt>
      <trkpt lat="44.35301" lon="3.63008">
        <ele>625</ele>
        <time>2022-10-29T11:45:26Z</time>
      </trkpt>
      <trkpt lat="44.35303" lon="3.63009">
        <ele>625.2</ele>
        <time>2022-10-29T11:45:27Z</time>
      </trkpt>
      <trkpt lat="44.35303" lon="3.63009">
        <ele>625.4</ele>
        <time>2022-10-29T11:45:28Z</time>
      </trkpt>
      <trkpt lat="44.35305" lon="3.6301">
        <ele>625.6</ele>
        <time>2022-10-29T11:45:29Z</time>
      </trkpt>
      <trkpt lat="44.35306" lon="3.6301">
        <ele>625.8</ele>
        <time>2022-10-29T11:45:30Z</time>
      </trkpt>
      <trkpt lat="44.35307" lon="3.63011">
        <ele>626</ele>
        <time>2022-10-29T11:45:31Z</time>
      </trkpt>
      <trkpt lat="44.35308" lon="3.63011">
        <ele>626</ele>
        <time>2022-10-29T11:45:32Z</time>
      </trkpt>
      <trkpt lat="44.35309" lon="3.63012">
        <ele>626.2</ele>
        <time>2022-10-29T11:45:33Z</time>
      </trkpt>
      <trkpt lat="44.35309" lon="3.63012">
        <ele>626.4</ele>
        <time>2022-10-29T11:45:34Z</time>
      </trkpt>
      <trkpt lat="44.3531" lon="3.63013">
        <ele>626.6</ele>
        <time>2022-10-29T11:45:35Z</time>
      </trkpt>
      <trkpt lat="44.35311" lon="3.63013">
        <ele>626.8</ele>
        <time>2022-10-29T11:45:36Z</time>
      </trkpt>
      <trkpt lat="44.35312" lon="3.63013">
        <ele>627</ele>
        <time>2022-10-29T11:45:37Z</time>
      </trkpt>
      <trkpt lat="44.35313" lon="3.63014">
        <ele>627.2</ele>
        <time>2022-10-29T11:45:38Z</time>
      </trkpt>
      <trkpt lat="44.35314" lon="3.63015">
        <ele>627.2</ele>
        <time>2022-10-29T11:45:39Z</time>
      </trkpt>
      <trkpt lat="44.35314" lon="3.63015">
        <ele>627.4</ele>
        <time>2022-10-29T11:45:40Z</time>
      </trkpt>
      <trkpt lat="44.35315" lon="3.63016">
        <ele>627.6</ele>
        <time>2022-10-29T11:45:41Z</time>
      </trkpt>
      <trkpt lat="44.35316" lon="3.63016">
        <ele>627.8</ele>
        <time>2022-10-29T11:45:42Z</time>
      </trkpt>
      <trkpt lat="44.35317" lon="3.63017">
        <ele>628</ele>
        <time>2022-10-29T11:45:43Z</time>
      </trkpt>
      <trkpt lat="44.35318" lon="3.63017">
        <ele>628</ele>
        <time>2022-10-29T11:45:44Z</time>
      </trkpt>
      <trkpt lat="44.35319" lon="3.63018">
        <ele>628.2</ele>
        <time>2022-10-29T11:45:45Z</time>
      </trkpt>
      <trkpt lat="44.35321" lon="3.63018">
        <ele>628.4</ele>
        <time>2022-10-29T11:45:46Z</time>
      </trkpt>
      <trkpt lat="44.35322" lon="3.63018">
        <ele>628.4</ele>
        <time>2022-10-29T11:45:47Z</time>
      </trkpt>
      <trkpt lat="44.35323" lon="3.63018">
        <ele>628.6</ele>
        <time>2022-10-29T11:45:48Z</time>
      </trkpt>
      <trkpt lat="44.35324" lon="3.63018">
        <ele>628.8</ele>
        <time>2022-10-29T11:45:49Z</time>
      </trkpt>
      <trkpt lat="44.35325" lon="3.63018">
        <ele>629</ele>
        <time>2022-10-29T11:45:50Z</time>
      </trkpt>
      <trkpt lat="44.35326" lon="3.63017">
        <ele>629.2</ele>
        <time>2022-10-29T11:45:51Z</time>
      </trkpt>
      <trkpt lat="44.35327" lon="3.63016">
        <ele>629.4</ele>
        <time>2022-10-29T11:45:52Z</time>
      </trkpt>
      <trkpt lat="44.35327" lon="3.63015">
        <ele>629.6</ele>
        <time>2022-10-29T11:45:53Z</time>
      </trkpt>
      <trkpt lat="44.35327" lon="3.63014">
        <ele>629.8</ele>
        <time>2022-10-29T11:45:54Z</time>
      </trkpt>
      <trkpt lat="44.35326" lon="3.63013">
        <ele>630</ele>
        <time>2022-10-29T11:45:55Z</time>
      </trkpt>
      <trkpt lat="44.35326" lon="3.63012">
        <ele>630.2</ele>
        <time>2022-10-29T11:45:56Z</time>
      </trkpt>
      <trkpt lat="44.35326" lon="3.63012">
        <ele>630.2</ele>
        <time>2022-10-29T11:45:57Z</time>
      </trkpt>
      <trkpt lat="44.35325" lon="3.63011">
        <ele>630.4</ele>
        <time>2022-10-29T11:45:58Z</time>
      </trkpt>
      <trkpt lat="44.35324" lon="3.6301">
        <ele>630.4</ele>
        <time>2022-10-29T11:45:59Z</time>
      </trkpt>
      <trkpt lat="44.35323" lon="3.63008">
        <ele>630.6</ele>
        <time>2022-10-29T11:46:00Z</time>
      </trkpt>
      <trkpt lat="44.35322" lon="3.63007">
        <ele>630.8</ele>
        <time>2022-10-29T11:46:01Z</time>
      </trkpt>
      <trkpt lat="44.35321" lon="3.63005">
        <ele>630.8</ele>
        <time>2022-10-29T11:46:02Z</time>
      </trkpt>
      <trkpt lat="44.35319" lon="3.63003">
        <ele>631</ele>
        <time>2022-10-29T11:46:03Z</time>
      </trkpt>
      <trkpt lat="44.35316" lon="3.63001">
        <ele>631</ele>
        <time>2022-10-29T11:46:04Z</time>
      </trkpt>
      <trkpt lat="44.35313" lon="3.63">
        <ele>631.2</ele>
        <time>2022-10-29T11:46:05Z</time>
      </trkpt>
      <trkpt lat="44.3531" lon="3.62998">
        <ele>631.2</ele>
        <time>2022-10-29T11:46:06Z</time>
      </trkpt>
      <trkpt lat="44.35307" lon="3.62996">
        <ele>631.2</ele>
        <time>2022-10-29T11:46:07Z</time>
      </trkpt>
      <trkpt lat="44.35304" lon="3.62994">
        <ele>631.2</ele>
        <time>2022-10-29T11:46:08Z</time>
      </trkpt>
      <trkpt lat="44.35301" lon="3.62992">
        <ele>631.2</ele>
        <time>2022-10-29T11:46:09Z</time>
      </trkpt>
      <trkpt lat="44.35297" lon="3.62991">
        <ele>631.4</ele>
        <time>2022-10-29T11:46:10Z</time>
      </trkpt>
      <trkpt lat="44.35294" lon="3.62989">
        <ele>631.2</ele>
        <time>2022-10-29T11:46:11Z</time>
      </trkpt>
      <trkpt lat="44.3529" lon="3.62987">
        <ele>631.2</ele>
        <time>2022-10-29T11:46:12Z</time>
      </trkpt>
      <trkpt lat="44.35287" lon="3.62985">
        <ele>631.2</ele>
        <time>2022-10-29T11:46:13Z</time>
      </trkpt>
      <trkpt lat="44.35283" lon="3.62983">
        <ele>631.2</ele>
        <time>2022-10-29T11:46:14Z</time>
      </trkpt>
      <trkpt lat="44.35279" lon="3.62982">
        <ele>631.2</ele>
        <time>2022-10-29T11:46:15Z</time>
      </trkpt>
      <trkpt lat="44.35275" lon="3.62981">
        <ele>631.4</ele>
        <time>2022-10-29T11:46:16Z</time>
      </trkpt>
      <trkpt lat="44.35271" lon="3.6298">
        <ele>631.4</ele>
        <time>2022-10-29T11:46:17Z</time>
      </trkpt>
      <trkpt lat="44.35267" lon="3.62979">
        <ele>631.4</ele>
        <time>2022-10-29T11:46:18Z</time>
      </trkpt>
      <trkpt lat="44.35263" lon="3.62978">
        <ele>631.4</ele>
        <time>2022-10-29T11:46:19Z</time>
      </trkpt>
      <trkpt lat="44.35259" lon="3.62978">
        <ele>631.4</ele>
        <time>2022-10-29T11:46:20Z</time>
      </trkpt>
      <trkpt lat="44.35255" lon="3.62978">
        <ele>631.6</ele>
        <time>2022-10-29T11:46:21Z</time>
      </trkpt>
      <trkpt lat="44.3525" lon="3.62979">
        <ele>631.6</ele>
        <time>2022-10-29T11:46:22Z</time>
      </trkpt>
      <trkpt lat="44.35246" lon="3.62979">
        <ele>631.6</ele>
        <time>2022-10-29T11:46:23Z</time>
      </trkpt>
      <trkpt lat="44.35242" lon="3.6298">
        <ele>631.6</ele>
        <time>2022-10-29T11:46:24Z</time>
      </trkpt>
      <trkpt lat="44.35237" lon="3.6298">
        <ele>631.6</ele>
        <time>2022-10-29T11:46:25Z</time>
      </trkpt>
      <trkpt lat="44.35232" lon="3.62981">
        <ele>631.8</ele>
        <time>2022-10-29T11:46:26Z</time>
      </trkpt>
      <trkpt lat="44.35227" lon="3.62981">
        <ele>631.8</ele>
        <time>2022-10-29T11:46:27Z</time>
      </trkpt>
      <trkpt lat="44.35222" lon="3.62982">
        <ele>631.8</ele>
        <time>2022-10-29T11:46:28Z</time>
      </trkpt>
      <trkpt lat="44.35217" lon="3.62983">
        <ele>631.8</ele>
        <time>2022-10-29T11:46:29Z</time>
      </trkpt>
      <trkpt lat="44.35213" lon="3.62983">
        <ele>632</ele>
        <time>2022-10-29T11:46:30Z</time>
      </trkpt>
      <trkpt lat="44.35207" lon="3.62984">
        <ele>632</ele>
        <time>2022-10-29T11:46:31Z</time>
      </trkpt>
      <trkpt lat="44.35202" lon="3.62986">
        <ele>632</ele>
        <time>2022-10-29T11:46:32Z</time>
      </trkpt>
      <trkpt lat="44.35198" lon="3.62987">
        <ele>632</ele>
        <time>2022-10-29T11:46:33Z</time>
      </trkpt>
      <trkpt lat="44.35193" lon="3.62988">
        <ele>632</ele>
        <time>2022-10-29T11:46:34Z</time>
      </trkpt>
      <trkpt lat="44.35188" lon="3.6299">
        <ele>632</ele>
        <time>2022-10-29T11:46:35Z</time>
      </trkpt>
      <trkpt lat="44.35184" lon="3.62992">
        <ele>632</ele>
        <time>2022-10-29T11:46:36Z</time>
      </trkpt>
      <trkpt lat="44.35179" lon="3.62994">
        <ele>632.2</ele>
        <time>2022-10-29T11:46:37Z</time>
      </trkpt>
      <trkpt lat="44.35175" lon="3.62996">
        <ele>632.2</ele>
        <time>2022-10-29T11:46:38Z</time>
      </trkpt>
      <trkpt lat="44.3517" lon="3.62998">
        <ele>632.2</ele>
        <time>2022-10-29T11:46:39Z</time>
      </trkpt>
      <trkpt lat="44.35166" lon="3.63001">
        <ele>632.4</ele>
        <time>2022-10-29T11:46:40Z</time>
      </trkpt>
      <trkpt lat="44.35162" lon="3.63004">
        <ele>632.4</ele>
        <time>2022-10-29T11:46:41Z</time>
      </trkpt>
      <trkpt lat="44.35158" lon="3.63007">
        <ele>632.6</ele>
        <time>2022-10-29T11:46:42Z</time>
      </trkpt>
      <trkpt lat="44.35153" lon="3.63011">
        <ele>632.6</ele>
        <time>2022-10-29T11:46:43Z</time>
      </trkpt>
      <trkpt lat="44.35149" lon="3.63015">
        <ele>632.6</ele>
        <time>2022-10-29T11:46:44Z</time>
      </trkpt>
      <trkpt lat="44.35145" lon="3.6302">
        <ele>632.6</ele>
        <time>2022-10-29T11:46:45Z</time>
      </trkpt>
      <trkpt lat="44.35141" lon="3.63025">
        <ele>632.6</ele>
        <time>2022-10-29T11:46:46Z</time>
      </trkpt>
      <trkpt lat="44.35138" lon="3.63029">
        <ele>632.6</ele>
        <time>2022-10-29T11:46:47Z</time>
      </trkpt>
      <trkpt lat="44.35134" lon="3.63033">
        <ele>632.6</ele>
        <time>2022-10-29T11:46:48Z</time>
      </trkpt>
      <trkpt lat="44.3513" lon="3.63037">
        <ele>632.8</ele>
        <time>2022-10-29T11:46:49Z</time>
      </trkpt>
      <trkpt lat="44.35127" lon="3.63042">
        <ele>632.8</ele>
        <time>2022-10-29T11:46:50Z</time>
      </trkpt>
      <trkpt lat="44.35123" lon="3.63046">
        <ele>632.8</ele>
        <time>2022-10-29T11:46:51Z</time>
      </trkpt>
      <trkpt lat="44.35119" lon="3.63051">
        <ele>632.8</ele>
        <time>2022-10-29T11:46:52Z</time>
      </trkpt>
      <trkpt lat="44.35116" lon="3.63055">
        <ele>632.8</ele>
        <time>2022-10-29T11:46:53Z</time>
      </trkpt>
      <trkpt lat="44.35112" lon="3.63059">
        <ele>632.8</ele>
        <time>2022-10-29T11:46:54Z</time>
      </trkpt>
      <trkpt lat="44.35109" lon="3.63064">
        <ele>632.8</ele>
        <time>2022-10-29T11:46:55Z</time>
      </trkpt>
      <trkpt lat="44.35105" lon="3.63068">
        <ele>632.8</ele>
        <time>2022-10-29T11:46:56Z</time>
      </trkpt>
      <trkpt lat="44.35101" lon="3.63073">
        <ele>633</ele>
        <time>2022-10-29T11:46:57Z</time>
      </trkpt>
      <trkpt lat="44.35098" lon="3.63077">
        <ele>633</ele>
        <time>2022-10-29T11:46:58Z</time>
      </trkpt>
      <trkpt lat="44.35094" lon="3.63081">
        <ele>633</ele>
        <time>2022-10-29T11:46:59Z</time>
      </trkpt>
      <trkpt lat="44.3509" lon="3.63085">
        <ele>633.2</ele>
        <time>2022-10-29T11:47:00Z</time>
      </trkpt>
      <trkpt lat="44.35086" lon="3.6309">
        <ele>633.2</ele>
        <time>2022-10-29T11:47:01Z</time>
      </trkpt>
      <trkpt lat="44.35082" lon="3.63094">
        <ele>633.2</ele>
        <time>2022-10-29T11:47:02Z</time>
      </trkpt>
      <trkpt lat="44.35078" lon="3.63098">
        <ele>633.4</ele>
        <time>2022-10-29T11:47:03Z</time>
      </trkpt>
      <trkpt lat="44.35074" lon="3.63102">
        <ele>633.4</ele>
        <time>2022-10-29T11:47:04Z</time>
      </trkpt>
      <trkpt lat="44.3507" lon="3.63106">
        <ele>633.6</ele>
        <time>2022-10-29T11:47:05Z</time>
      </trkpt>
      <trkpt lat="44.35066" lon="3.6311">
        <ele>633.6</ele>
        <time>2022-10-29T11:47:06Z</time>
      </trkpt>
      <trkpt lat="44.35062" lon="3.63114">
        <ele>633.6</ele>
        <time>2022-10-29T11:47:07Z</time>
      </trkpt>
      <trkpt lat="44.35058" lon="3.63117">
        <ele>633.8</ele>
        <time>2022-10-29T11:47:08Z</time>
      </trkpt>
      <trkpt lat="44.35053" lon="3.63119">
        <ele>633.8</ele>
        <time>2022-10-29T11:47:09Z</time>
      </trkpt>
      <trkpt lat="44.35049" lon="3.63122">
        <ele>633.8</ele>
        <time>2022-10-29T11:47:10Z</time>
      </trkpt>
      <trkpt lat="44.35044" lon="3.63125">
        <ele>633.8</ele>
        <time>2022-10-29T11:47:11Z</time>
      </trkpt>
      <trkpt lat="44.3504" lon="3.63127">
        <ele>634</ele>
        <time>2022-10-29T11:47:12Z</time>
      </trkpt>
      <trkpt lat="44.35036" lon="3.63129">
        <ele>634</ele>
        <time>2022-10-29T11:47:13Z</time>
      </trkpt>
      <trkpt lat="44.35031" lon="3.63131">
        <ele>634</ele>
        <time>2022-10-29T11:47:14Z</time>
      </trkpt>
      <trkpt lat="44.35027" lon="3.63133">
        <ele>634</ele>
        <time>2022-10-29T11:47:15Z</time>
      </trkpt>
      <trkpt lat="44.35023" lon="3.63134">
        <ele>634.2</ele>
        <time>2022-10-29T11:47:16Z</time>
      </trkpt>
      <trkpt lat="44.35018" lon="3.63135">
        <ele>634.4</ele>
        <time>2022-10-29T11:47:17Z</time>
      </trkpt>
      <trkpt lat="44.35014" lon="3.63135">
        <ele>634.4</ele>
        <time>2022-10-29T11:47:18Z</time>
      </trkpt>
      <trkpt lat="44.35009" lon="3.63135">
        <ele>634.4</ele>
        <time>2022-10-29T11:47:19Z</time>
      </trkpt>
      <trkpt lat="44.35004" lon="3.63136">
        <ele>634.4</ele>
        <time>2022-10-29T11:47:20Z</time>
      </trkpt>
      <trkpt lat="44.34999" lon="3.63136">
        <ele>634.4</ele>
        <time>2022-10-29T11:47:21Z</time>
      </trkpt>
      <trkpt lat="44.34994" lon="3.63136">
        <ele>634.6</ele>
        <time>2022-10-29T11:47:22Z</time>
      </trkpt>
      <trkpt lat="44.34989" lon="3.63135">
        <ele>634.6</ele>
        <time>2022-10-29T11:47:23Z</time>
      </trkpt>
      <trkpt lat="44.34984" lon="3.63133">
        <ele>634.8</ele>
        <time>2022-10-29T11:47:24Z</time>
      </trkpt>
      <trkpt lat="44.34979" lon="3.63131">
        <ele>634.8</ele>
        <time>2022-10-29T11:47:25Z</time>
      </trkpt>
      <trkpt lat="44.34975" lon="3.63128">
        <ele>634.8</ele>
        <time>2022-10-29T11:47:26Z</time>
      </trkpt>
      <trkpt lat="44.3497" lon="3.63126">
        <ele>634.8</ele>
        <time>2022-10-29T11:47:27Z</time>
      </trkpt>
      <trkpt lat="44.34966" lon="3.63123">
        <ele>634.8</ele>
        <time>2022-10-29T11:47:28Z</time>
      </trkpt>
      <trkpt lat="44.34962" lon="3.6312">
        <ele>634.8</ele>
        <time>2022-10-29T11:47:29Z</time>
      </trkpt>
      <trkpt lat="44.34957" lon="3.63118">
        <ele>634.8</ele>
        <time>2022-10-29T11:47:30Z</time>
      </trkpt>
      <trkpt lat="44.34953" lon="3.63115">
        <ele>635</ele>
        <time>2022-10-29T11:47:31Z</time>
      </trkpt>
      <trkpt lat="44.34949" lon="3.63112">
        <ele>635</ele>
        <time>2022-10-29T11:47:32Z</time>
      </trkpt>
      <trkpt lat="44.34945" lon="3.63107">
        <ele>635.2</ele>
        <time>2022-10-29T11:47:33Z</time>
      </trkpt>
      <trkpt lat="44.34943" lon="3.63102">
        <ele>635.4</ele>
        <time>2022-10-29T11:47:34Z</time>
      </trkpt>
      <trkpt lat="44.34941" lon="3.63096">
        <ele>635.6</ele>
        <time>2022-10-29T11:47:35Z</time>
      </trkpt>
      <trkpt lat="44.34939" lon="3.6309">
        <ele>635.8</ele>
        <time>2022-10-29T11:47:36Z</time>
      </trkpt>
      <trkpt lat="44.34938" lon="3.63083">
        <ele>636</ele>
        <time>2022-10-29T11:47:37Z</time>
      </trkpt>
      <trkpt lat="44.34937" lon="3.63077">
        <ele>636</ele>
        <time>2022-10-29T11:47:38Z</time>
      </trkpt>
      <trkpt lat="44.34936" lon="3.6307">
        <ele>636</ele>
        <time>2022-10-29T11:47:39Z</time>
      </trkpt>
      <trkpt lat="44.34936" lon="3.63064">
        <ele>636.2</ele>
        <time>2022-10-29T11:47:40Z</time>
      </trkpt>
      <trkpt lat="44.34935" lon="3.63057">
        <ele>636</ele>
        <time>2022-10-29T11:47:41Z</time>
      </trkpt>
      <trkpt lat="44.34935" lon="3.63051">
        <ele>636</ele>
        <time>2022-10-29T11:47:42Z</time>
      </trkpt>
      <trkpt lat="44.34935" lon="3.63044">
        <ele>636</ele>
        <time>2022-10-29T11:47:43Z</time>
      </trkpt>
      <trkpt lat="44.34935" lon="3.63038">
        <ele>636</ele>
        <time>2022-10-29T11:47:44Z</time>
      </trkpt>
      <trkpt lat="44.34935" lon="3.63031">
        <ele>636</ele>
        <time>2022-10-29T11:47:45Z</time>
      </trkpt>
      <trkpt lat="44.34935" lon="3.63024">
        <ele>636</ele>
        <time>2022-10-29T11:47:46Z</time>
      </trkpt>
      <trkpt lat="44.34936" lon="3.63018">
        <ele>636</ele>
        <time>2022-10-29T11:47:47Z</time>
      </trkpt>
      <trkpt lat="44.34936" lon="3.63011">
        <ele>636</ele>
        <time>2022-10-29T11:47:48Z</time>
      </trkpt>
      <trkpt lat="44.34937" lon="3.63004">
        <ele>636</ele>
        <time>2022-10-29T11:47:49Z</time>
      </trkpt>
      <trkpt lat="44.34937" lon="3.62997">
        <ele>636</ele>
        <time>2022-10-29T11:47:50Z</time>
      </trkpt>
      <trkpt lat="44.34937" lon="3.6299">
        <ele>636.2</ele>
        <time>2022-10-29T11:47:51Z</time>
      </trkpt>
      <trkpt lat="44.34937" lon="3.62983">
        <ele>636.4</ele>
        <time>2022-10-29T11:47:52Z</time>
      </trkpt>
      <trkpt lat="44.34938" lon="3.62976">
        <ele>636.4</ele>
        <time>2022-10-29T11:47:53Z</time>
      </trkpt>
      <trkpt lat="44.34938" lon="3.62969">
        <ele>636.4</ele>
        <time>2022-10-29T11:47:54Z</time>
      </trkpt>
      <trkpt lat="44.34938" lon="3.62962">
        <ele>636.4</ele>
        <time>2022-10-29T11:47:55Z</time>
      </trkpt>
      <trkpt lat="44.34938" lon="3.62955">
        <ele>636.4</ele>
        <time>2022-10-29T11:47:56Z</time>
      </trkpt>
      <trkpt lat="44.34938" lon="3.62948">
        <ele>636.4</ele>
        <time>2022-10-29T11:47:57Z</time>
      </trkpt>
      <trkpt lat="44.34938" lon="3.62942">
        <ele>636.6</ele>
        <time>2022-10-29T11:47:58Z</time>
      </trkpt>
      <trkpt lat="44.34938" lon="3.62934">
        <ele>636.6</ele>
        <time>2022-10-29T11:47:59Z</time>
      </trkpt>
      <trkpt lat="44.34938" lon="3.62928">
        <ele>636.6</ele>
        <time>2022-10-29T11:48:00Z</time>
      </trkpt>
      <trkpt lat="44.34937" lon="3.62921">
        <ele>636.8</ele>
        <time>2022-10-29T11:48:01Z</time>
      </trkpt>
      <trkpt lat="44.34937" lon="3.62914">
        <ele>636.8</ele>
        <time>2022-10-29T11:48:02Z</time>
      </trkpt>
      <trkpt lat="44.34936" lon="3.62907">
        <ele>637</ele>
        <time>2022-10-29T11:48:03Z</time>
      </trkpt>
      <trkpt lat="44.34935" lon="3.629">
        <ele>637</ele>
        <time>2022-10-29T11:48:04Z</time>
      </trkpt>
      <trkpt lat="44.34934" lon="3.62894">
        <ele>637.2</ele>
        <time>2022-10-29T11:48:05Z</time>
      </trkpt>
      <trkpt lat="44.34934" lon="3.62887">
        <ele>637.2</ele>
        <time>2022-10-29T11:48:06Z</time>
      </trkpt>
      <trkpt lat="44.34934" lon="3.62881">
        <ele>637.2</ele>
        <time>2022-10-29T11:48:07Z</time>
      </trkpt>
      <trkpt lat="44.34933" lon="3.62875">
        <ele>637.4</ele>
        <time>2022-10-29T11:48:08Z</time>
      </trkpt>
      <trkpt lat="44.34932" lon="3.62868">
        <ele>637.4</ele>
        <time>2022-10-29T11:48:09Z</time>
      </trkpt>
      <trkpt lat="44.34931" lon="3.62862">
        <ele>637.4</ele>
        <time>2022-10-29T11:48:10Z</time>
      </trkpt>
      <trkpt lat="44.3493" lon="3.62856">
        <ele>637.6</ele>
        <time>2022-10-29T11:48:11Z</time>
      </trkpt>
      <trkpt lat="44.34929" lon="3.6285">
        <ele>637.6</ele>
        <time>2022-10-29T11:48:12Z</time>
      </trkpt>
      <trkpt lat="44.34927" lon="3.62845">
        <ele>637.8</ele>
        <time>2022-10-29T11:48:13Z</time>
      </trkpt>
      <trkpt lat="44.34924" lon="3.62839">
        <ele>637.8</ele>
        <time>2022-10-29T11:48:14Z</time>
      </trkpt>
      <trkpt lat="44.34921" lon="3.62833">
        <ele>637.8</ele>
        <time>2022-10-29T11:48:15Z</time>
      </trkpt>
      <trkpt lat="44.34919" lon="3.62828">
        <ele>638</ele>
        <time>2022-10-29T11:48:16Z</time>
      </trkpt>
      <trkpt lat="44.34915" lon="3.62823">
        <ele>638</ele>
        <time>2022-10-29T11:48:17Z</time>
      </trkpt>
      <trkpt lat="44.34912" lon="3.62818">
        <ele>638</ele>
        <time>2022-10-29T11:48:18Z</time>
      </trkpt>
      <trkpt lat="44.34909" lon="3.62813">
        <ele>638.2</ele>
        <time>2022-10-29T11:48:19Z</time>
      </trkpt>
      <trkpt lat="44.34907" lon="3.62808">
        <ele>638.2</ele>
        <time>2022-10-29T11:48:20Z</time>
      </trkpt>
      <trkpt lat="44.34904" lon="3.62802">
        <ele>638.2</ele>
        <time>2022-10-29T11:48:21Z</time>
      </trkpt>
      <trkpt lat="44.34902" lon="3.62795">
        <ele>638.2</ele>
        <time>2022-10-29T11:48:22Z</time>
      </trkpt>
      <trkpt lat="44.34901" lon="3.62789">
        <ele>638.4</ele>
        <time>2022-10-29T11:48:23Z</time>
      </trkpt>
      <trkpt lat="44.349" lon="3.62782">
        <ele>638.4</ele>
        <time>2022-10-29T11:48:24Z</time>
      </trkpt>
      <trkpt lat="44.349" lon="3.62776">
        <ele>638.6</ele>
        <time>2022-10-29T11:48:25Z</time>
      </trkpt>
      <trkpt lat="44.349" lon="3.62769">
        <ele>638.6</ele>
        <time>2022-10-29T11:48:26Z</time>
      </trkpt>
      <trkpt lat="44.34901" lon="3.62763">
        <ele>638.6</ele>
        <time>2022-10-29T11:48:27Z</time>
      </trkpt>
      <trkpt lat="44.34901" lon="3.62756">
        <ele>638.6</ele>
        <time>2022-10-29T11:48:28Z</time>
      </trkpt>
      <trkpt lat="44.349" lon="3.62751">
        <ele>638.6</ele>
        <time>2022-10-29T11:48:29Z</time>
      </trkpt>
      <trkpt lat="44.34899" lon="3.62746">
        <ele>638.6</ele>
        <time>2022-10-29T11:48:30Z</time>
      </trkpt>
      <trkpt lat="44.34899" lon="3.62742">
        <ele>638.6</ele>
        <time>2022-10-29T11:48:31Z</time>
      </trkpt>
      <trkpt lat="44.34898" lon="3.62738">
        <ele>638.6</ele>
        <time>2022-10-29T11:48:32Z</time>
      </trkpt>
      <trkpt lat="44.34898" lon="3.62736">
        <ele>638.6</ele>
        <time>2022-10-29T11:48:33Z</time>
      </trkpt>
      <trkpt lat="44.34899" lon="3.62734">
        <ele>638.6</ele>
        <time>2022-10-29T11:48:34Z</time>
      </trkpt>
      <trkpt lat="44.34899" lon="3.62733">
        <ele>638.8</ele>
        <time>2022-10-29T11:48:35Z</time>
      </trkpt>
      <trkpt lat="44.349" lon="3.62729">
        <ele>638.6</ele>
        <time>2022-10-29T11:49:50Z</time>
      </trkpt>
      <trkpt lat="44.34901" lon="3.62726">
        <ele>638.8</ele>
        <time>2022-10-29T11:49:51Z</time>
      </trkpt>
      <trkpt lat="44.34903" lon="3.62721">
        <ele>638.8</ele>
        <time>2022-10-29T11:49:52Z</time>
      </trkpt>
      <trkpt lat="44.34905" lon="3.62717">
        <ele>638.8</ele>
        <time>2022-10-29T11:49:53Z</time>
      </trkpt>
      <trkpt lat="44.34906" lon="3.62713">
        <ele>638.8</ele>
        <time>2022-10-29T11:49:54Z</time>
      </trkpt>
      <trkpt lat="44.34907" lon="3.62708">
        <ele>638.8</ele>
        <time>2022-10-29T11:49:55Z</time>
      </trkpt>
      <trkpt lat="44.34908" lon="3.62704">
        <ele>639</ele>
        <time>2022-10-29T11:49:56Z</time>
      </trkpt>
      <trkpt lat="44.34909" lon="3.62699">
        <ele>639</ele>
        <time>2022-10-29T11:49:57Z</time>
      </trkpt>
      <trkpt lat="44.34909" lon="3.62693">
        <ele>639.2</ele>
        <time>2022-10-29T11:49:58Z</time>
      </trkpt>
      <trkpt lat="44.34909" lon="3.62686">
        <ele>639.2</ele>
        <time>2022-10-29T11:49:59Z</time>
      </trkpt>
      <trkpt lat="44.34908" lon="3.6268">
        <ele>639.2</ele>
        <time>2022-10-29T11:50:00Z</time>
      </trkpt>
      <trkpt lat="44.34907" lon="3.62674">
        <ele>639.4</ele>
        <time>2022-10-29T11:50:01Z</time>
      </trkpt>
      <trkpt lat="44.34905" lon="3.62668">
        <ele>639.4</ele>
        <time>2022-10-29T11:50:02Z</time>
      </trkpt>
      <trkpt lat="44.34903" lon="3.62662">
        <ele>639.6</ele>
        <time>2022-10-29T11:50:03Z</time>
      </trkpt>
      <trkpt lat="44.34901" lon="3.62657">
        <ele>639.6</ele>
        <time>2022-10-29T11:50:04Z</time>
      </trkpt>
      <trkpt lat="44.34899" lon="3.62651">
        <ele>639.6</ele>
        <time>2022-10-29T11:50:05Z</time>
      </trkpt>
      <trkpt lat="44.34897" lon="3.62645">
        <ele>639.4</ele>
        <time>2022-10-29T11:50:06Z</time>
      </trkpt>
      <trkpt lat="44.34896" lon="3.62639">
        <ele>639.4</ele>
        <time>2022-10-29T11:50:07Z</time>
      </trkpt>
      <trkpt lat="44.34896" lon="3.62632">
        <ele>639.2</ele>
        <time>2022-10-29T11:50:08Z</time>
      </trkpt>
      <trkpt lat="44.34897" lon="3.62625">
        <ele>639.2</ele>
        <time>2022-10-29T11:50:09Z</time>
      </trkpt>
      <trkpt lat="44.34898" lon="3.62619">
        <ele>639.2</ele>
        <time>2022-10-29T11:50:10Z</time>
      </trkpt>
      <trkpt lat="44.34898" lon="3.62612">
        <ele>639</ele>
        <time>2022-10-29T11:50:11Z</time>
      </trkpt>
      <trkpt lat="44.34897" lon="3.62605">
        <ele>639</ele>
        <time>2022-10-29T11:50:12Z</time>
      </trkpt>
      <trkpt lat="44.34896" lon="3.62598">
        <ele>639</ele>
        <time>2022-10-29T11:50:13Z</time>
      </trkpt>
      <trkpt lat="44.34894" lon="3.62591">
        <ele>639</ele>
        <time>2022-10-29T11:50:14Z</time>
      </trkpt>
      <trkpt lat="44.34893" lon="3.62585">
        <ele>639</ele>
        <time>2022-10-29T11:50:15Z</time>
      </trkpt>
      <trkpt lat="44.34892" lon="3.62578">
        <ele>638.8</ele>
        <time>2022-10-29T11:50:16Z</time>
      </trkpt>
      <trkpt lat="44.34891" lon="3.62572">
        <ele>638.8</ele>
        <time>2022-10-29T11:50:17Z</time>
      </trkpt>
      <trkpt lat="44.3489" lon="3.62566">
        <ele>638.8</ele>
        <time>2022-10-29T11:50:18Z</time>
      </trkpt>
      <trkpt lat="44.34888" lon="3.6256">
        <ele>638.8</ele>
        <time>2022-10-29T11:50:19Z</time>
      </trkpt>
      <trkpt lat="44.34886" lon="3.62555">
        <ele>638.8</ele>
        <time>2022-10-29T11:50:20Z</time>
      </trkpt>
      <trkpt lat="44.34883" lon="3.62549">
        <ele>638.8</ele>
        <time>2022-10-29T11:50:21Z</time>
      </trkpt>
      <trkpt lat="44.34882" lon="3.62544">
        <ele>638.6</ele>
        <time>2022-10-29T11:50:22Z</time>
      </trkpt>
      <trkpt lat="44.3488" lon="3.62538">
        <ele>638.6</ele>
        <time>2022-10-29T11:50:23Z</time>
      </trkpt>
      <trkpt lat="44.3488" lon="3.62531">
        <ele>638.4</ele>
        <time>2022-10-29T11:50:24Z</time>
      </trkpt>
      <trkpt lat="44.3488" lon="3.62524">
        <ele>638.4</ele>
        <time>2022-10-29T11:50:25Z</time>
      </trkpt>
      <trkpt lat="44.3488" lon="3.62517">
        <ele>638.4</ele>
        <time>2022-10-29T11:50:26Z</time>
      </trkpt>
      <trkpt lat="44.3488" lon="3.6251">
        <ele>638.4</ele>
        <time>2022-10-29T11:50:27Z</time>
      </trkpt>
      <trkpt lat="44.34881" lon="3.62503">
        <ele>638.2</ele>
        <time>2022-10-29T11:50:28Z</time>
      </trkpt>
      <trkpt lat="44.34882" lon="3.62496">
        <ele>638.2</ele>
        <time>2022-10-29T11:50:29Z</time>
      </trkpt>
      <trkpt lat="44.34883" lon="3.6249">
        <ele>638</ele>
        <time>2022-10-29T11:50:30Z</time>
      </trkpt>
      <trkpt lat="44.34884" lon="3.62482">
        <ele>638</ele>
        <time>2022-10-29T11:50:31Z</time>
      </trkpt>
      <trkpt lat="44.34884" lon="3.62475">
        <ele>637.8</ele>
        <time>2022-10-29T11:50:32Z</time>
      </trkpt>
      <trkpt lat="44.34885" lon="3.62468">
        <ele>637.6</ele>
        <time>2022-10-29T11:50:33Z</time>
      </trkpt>
      <trkpt lat="44.34885" lon="3.6246">
        <ele>637.4</ele>
        <time>2022-10-29T11:50:34Z</time>
      </trkpt>
      <trkpt lat="44.34885" lon="3.62453">
        <ele>637.2</ele>
        <time>2022-10-29T11:50:35Z</time>
      </trkpt>
      <trkpt lat="44.34886" lon="3.62445">
        <ele>637.2</ele>
        <time>2022-10-29T11:50:36Z</time>
      </trkpt>
      <trkpt lat="44.34886" lon="3.62437">
        <ele>637</ele>
        <time>2022-10-29T11:50:37Z</time>
      </trkpt>
      <trkpt lat="44.34886" lon="3.6243">
        <ele>636.8</ele>
        <time>2022-10-29T11:50:38Z</time>
      </trkpt>
      <trkpt lat="44.34887" lon="3.62422">
        <ele>636.8</ele>
        <time>2022-10-29T11:50:39Z</time>
      </trkpt>
      <trkpt lat="44.34887" lon="3.62414">
        <ele>636.6</ele>
        <time>2022-10-29T11:50:40Z</time>
      </trkpt>
      <trkpt lat="44.34887" lon="3.62407">
        <ele>636.6</ele>
        <time>2022-10-29T11:50:41Z</time>
      </trkpt>
      <trkpt lat="44.34887" lon="3.62399">
        <ele>636.6</ele>
        <time>2022-10-29T11:50:42Z</time>
      </trkpt>
      <trkpt lat="44.34887" lon="3.62391">
        <ele>636.4</ele>
        <time>2022-10-29T11:50:43Z</time>
      </trkpt>
      <trkpt lat="44.34886" lon="3.62384">
        <ele>636.4</ele>
        <time>2022-10-29T11:50:44Z</time>
      </trkpt>
      <trkpt lat="44.34886" lon="3.62377">
        <ele>636.2</ele>
        <time>2022-10-29T11:50:45Z</time>
      </trkpt>
      <trkpt lat="44.34885" lon="3.62369">
        <ele>636.2</ele>
        <time>2022-10-29T11:50:46Z</time>
      </trkpt>
      <trkpt lat="44.34885" lon="3.62361">
        <ele>636.2</ele>
        <time>2022-10-29T11:50:47Z</time>
      </trkpt>
      <trkpt lat="44.34884" lon="3.62354">
        <ele>636.2</ele>
        <time>2022-10-29T11:50:48Z</time>
      </trkpt>
      <trkpt lat="44.34883" lon="3.62345">
        <ele>636.2</ele>
        <time>2022-10-29T11:50:49Z</time>
      </trkpt>
      <trkpt lat="44.34883" lon="3.62338">
        <ele>636</ele>
        <time>2022-10-29T11:50:50Z</time>
      </trkpt>
      <trkpt lat="44.34882" lon="3.62331">
        <ele>635.8</ele>
        <time>2022-10-29T11:50:51Z</time>
      </trkpt>
      <trkpt lat="44.34881" lon="3.62323">
        <ele>635.6</ele>
        <time>2022-10-29T11:50:52Z</time>
      </trkpt>
      <trkpt lat="44.3488" lon="3.62315">
        <ele>635.4</ele>
        <time>2022-10-29T11:50:53Z</time>
      </trkpt>
      <trkpt lat="44.34878" lon="3.62308">
        <ele>635.2</ele>
        <time>2022-10-29T11:50:54Z</time>
      </trkpt>
      <trkpt lat="44.34877" lon="3.623">
        <ele>635</ele>
        <time>2022-10-29T11:50:55Z</time>
      </trkpt>
      <trkpt lat="44.34875" lon="3.62291">
        <ele>634.8</ele>
        <time>2022-10-29T11:50:56Z</time>
      </trkpt>
      <trkpt lat="44.34873" lon="3.62282">
        <ele>634.6</ele>
        <time>2022-10-29T11:50:57Z</time>
      </trkpt>
      <trkpt lat="44.34871" lon="3.62273">
        <ele>634.4</ele>
        <time>2022-10-29T11:50:58Z</time>
      </trkpt>
      <trkpt lat="44.34869" lon="3.62263">
        <ele>634</ele>
        <time>2022-10-29T11:50:59Z</time>
      </trkpt>
      <trkpt lat="44.34867" lon="3.62254">
        <ele>633.6</ele>
        <time>2022-10-29T11:51:00Z</time>
      </trkpt>
      <trkpt lat="44.34865" lon="3.62245">
        <ele>633.2</ele>
        <time>2022-10-29T11:51:01Z</time>
      </trkpt>
      <trkpt lat="44.34863" lon="3.62235">
        <ele>632.8</ele>
        <time>2022-10-29T11:51:02Z</time>
      </trkpt>
      <trkpt lat="44.34861" lon="3.62226">
        <ele>632.4</ele>
        <time>2022-10-29T11:51:03Z</time>
      </trkpt>
      <trkpt lat="44.34858" lon="3.62217">
        <ele>632.2</ele>
        <time>2022-10-29T11:51:04Z</time>
      </trkpt>
      <trkpt lat="44.34855" lon="3.62208">
        <ele>631.8</ele>
        <time>2022-10-29T11:51:05Z</time>
      </trkpt>
      <trkpt lat="44.34852" lon="3.62199">
        <ele>631.6</ele>
        <time>2022-10-29T11:51:06Z</time>
      </trkpt>
      <trkpt lat="44.34849" lon="3.6219">
        <ele>631.2</ele>
        <time>2022-10-29T11:51:07Z</time>
      </trkpt>
      <trkpt lat="44.34845" lon="3.62181">
        <ele>630.8</ele>
        <time>2022-10-29T11:51:08Z</time>
      </trkpt>
      <trkpt lat="44.34841" lon="3.62172">
        <ele>630.4</ele>
        <time>2022-10-29T11:51:09Z</time>
      </trkpt>
      <trkpt lat="44.34837" lon="3.62164">
        <ele>630</ele>
        <time>2022-10-29T11:51:10Z</time>
      </trkpt>
      <trkpt lat="44.34833" lon="3.62154">
        <ele>629.6</ele>
        <time>2022-10-29T11:51:11Z</time>
      </trkpt>
      <trkpt lat="44.3483" lon="3.62146">
        <ele>629.4</ele>
        <time>2022-10-29T11:51:12Z</time>
      </trkpt>
      <trkpt lat="44.34825" lon="3.62136">
        <ele>629</ele>
        <time>2022-10-29T11:51:13Z</time>
      </trkpt>
      <trkpt lat="44.34821" lon="3.62127">
        <ele>628.8</ele>
        <time>2022-10-29T11:51:14Z</time>
      </trkpt>
      <trkpt lat="44.34817" lon="3.62118">
        <ele>628.4</ele>
        <time>2022-10-29T11:51:15Z</time>
      </trkpt>
      <trkpt lat="44.34813" lon="3.62109">
        <ele>628</ele>
        <time>2022-10-29T11:51:16Z</time>
      </trkpt>
      <trkpt lat="44.34808" lon="3.621">
        <ele>627.4</ele>
        <time>2022-10-29T11:51:17Z</time>
      </trkpt>
      <trkpt lat="44.34804" lon="3.6209">
        <ele>627</ele>
        <time>2022-10-29T11:51:18Z</time>
      </trkpt>
      <trkpt lat="44.34799" lon="3.62081">
        <ele>626.6</ele>
        <time>2022-10-29T11:51:19Z</time>
      </trkpt>
      <trkpt lat="44.34794" lon="3.62071">
        <ele>626</ele>
        <time>2022-10-29T11:51:20Z</time>
      </trkpt>
      <trkpt lat="44.34789" lon="3.62062">
        <ele>625.8</ele>
        <time>2022-10-29T11:51:21Z</time>
      </trkpt>
      <trkpt lat="44.34784" lon="3.62051">
        <ele>625.4</ele>
        <time>2022-10-29T11:51:22Z</time>
      </trkpt>
      <trkpt lat="44.34779" lon="3.62042">
        <ele>625.2</ele>
        <time>2022-10-29T11:51:23Z</time>
      </trkpt>
      <trkpt lat="44.34774" lon="3.62032">
        <ele>624.8</ele>
        <time>2022-10-29T11:51:24Z</time>
      </trkpt>
      <trkpt lat="44.34769" lon="3.62022">
        <ele>624.2</ele>
        <time>2022-10-29T11:51:25Z</time>
      </trkpt>
      <trkpt lat="44.34763" lon="3.62012">
        <ele>623.8</ele>
        <time>2022-10-29T11:51:26Z</time>
      </trkpt>
      <trkpt lat="44.34758" lon="3.62002">
        <ele>623.4</ele>
        <time>2022-10-29T11:51:27Z</time>
      </trkpt>
      <trkpt lat="44.34753" lon="3.61992">
        <ele>622.8</ele>
        <time>2022-10-29T11:51:28Z</time>
      </trkpt>
      <trkpt lat="44.34747" lon="3.61981">
        <ele>622.4</ele>
        <time>2022-10-29T11:51:29Z</time>
      </trkpt>
      <trkpt lat="44.34743" lon="3.6197">
        <ele>622</ele>
        <time>2022-10-29T11:51:30Z</time>
      </trkpt>
      <trkpt lat="44.34738" lon="3.61959">
        <ele>621.6</ele>
        <time>2022-10-29T11:51:31Z</time>
      </trkpt>
      <trkpt lat="44.34734" lon="3.61947">
        <ele>621.4</ele>
        <time>2022-10-29T11:51:32Z</time>
      </trkpt>
      <trkpt lat="44.3473" lon="3.61936">
        <ele>620.8</ele>
        <time>2022-10-29T11:51:33Z</time>
      </trkpt>
      <trkpt lat="44.34725" lon="3.61924">
        <ele>620.6</ele>
        <time>2022-10-29T11:51:34Z</time>
      </trkpt>
      <trkpt lat="44.3472" lon="3.61913">
        <ele>620.4</ele>
        <time>2022-10-29T11:51:35Z</time>
      </trkpt>
      <trkpt lat="44.34715" lon="3.61903">
        <ele>620.2</ele>
        <time>2022-10-29T11:51:36Z</time>
      </trkpt>
      <trkpt lat="44.34709" lon="3.61893">
        <ele>619.8</ele>
        <time>2022-10-29T11:51:37Z</time>
      </trkpt>
      <trkpt lat="44.34702" lon="3.61885">
        <ele>619.4</ele>
        <time>2022-10-29T11:51:38Z</time>
      </trkpt>
      <trkpt lat="44.34695" lon="3.61877">
        <ele>619</ele>
        <time>2022-10-29T11:51:39Z</time>
      </trkpt>
      <trkpt lat="44.34688" lon="3.6187">
        <ele>618.4</ele>
        <time>2022-10-29T11:51:40Z</time>
      </trkpt>
      <trkpt lat="44.3468" lon="3.61861">
        <ele>617.6</ele>
        <time>2022-10-29T11:51:41Z</time>
      </trkpt>
      <trkpt lat="44.34672" lon="3.61853">
        <ele>616.8</ele>
        <time>2022-10-29T11:51:42Z</time>
      </trkpt>
      <trkpt lat="44.34665" lon="3.61844">
        <ele>616.4</ele>
        <time>2022-10-29T11:51:43Z</time>
      </trkpt>
      <trkpt lat="44.34658" lon="3.61835">
        <ele>615.6</ele>
        <time>2022-10-29T11:51:44Z</time>
      </trkpt>
      <trkpt lat="44.34652" lon="3.61824">
        <ele>615</ele>
        <time>2022-10-29T11:51:45Z</time>
      </trkpt>
      <trkpt lat="44.34647" lon="3.61813">
        <ele>614.2</ele>
        <time>2022-10-29T11:51:46Z</time>
      </trkpt>
      <trkpt lat="44.34641" lon="3.61801">
        <ele>613.6</ele>
        <time>2022-10-29T11:51:47Z</time>
      </trkpt>
      <trkpt lat="44.34637" lon="3.6179">
        <ele>613</ele>
        <time>2022-10-29T11:51:48Z</time>
      </trkpt>
      <trkpt lat="44.34631" lon="3.61776">
        <ele>612.2</ele>
        <time>2022-10-29T11:51:49Z</time>
      </trkpt>
      <trkpt lat="44.34626" lon="3.61764">
        <ele>611.4</ele>
        <time>2022-10-29T11:51:50Z</time>
      </trkpt>
      <trkpt lat="44.34621" lon="3.61751">
        <ele>610.6</ele>
        <time>2022-10-29T11:51:51Z</time>
      </trkpt>
      <trkpt lat="44.34615" lon="3.61737">
        <ele>610</ele>
        <time>2022-10-29T11:51:52Z</time>
      </trkpt>
      <trkpt lat="44.3461" lon="3.61725">
        <ele>609.2</ele>
        <time>2022-10-29T11:51:53Z</time>
      </trkpt>
      <trkpt lat="44.34604" lon="3.61711">
        <ele>608.6</ele>
        <time>2022-10-29T11:51:54Z</time>
      </trkpt>
      <trkpt lat="44.34598" lon="3.61698">
        <ele>608.2</ele>
        <time>2022-10-29T11:51:55Z</time>
      </trkpt>
      <trkpt lat="44.34593" lon="3.61685">
        <ele>607.4</ele>
        <time>2022-10-29T11:51:56Z</time>
      </trkpt>
      <trkpt lat="44.34587" lon="3.61671">
        <ele>606.8</ele>
        <time>2022-10-29T11:51:57Z</time>
      </trkpt>
      <trkpt lat="44.34581" lon="3.61657">
        <ele>606</ele>
        <time>2022-10-29T11:51:58Z</time>
      </trkpt>
      <trkpt lat="44.34576" lon="3.61644">
        <ele>605.4</ele>
        <time>2022-10-29T11:51:59Z</time>
      </trkpt>
      <trkpt lat="44.34571" lon="3.61631">
        <ele>604.6</ele>
        <time>2022-10-29T11:52:00Z</time>
      </trkpt>
      <trkpt lat="44.34565" lon="3.61618">
        <ele>603.6</ele>
        <time>2022-10-29T11:52:01Z</time>
      </trkpt>
      <trkpt lat="44.34559" lon="3.61604">
        <ele>602.8</ele>
        <time>2022-10-29T11:52:02Z</time>
      </trkpt>
      <trkpt lat="44.34554" lon="3.6159">
        <ele>602</ele>
        <time>2022-10-29T11:52:03Z</time>
      </trkpt>
      <trkpt lat="44.3455" lon="3.61576">
        <ele>601.2</ele>
        <time>2022-10-29T11:52:04Z</time>
      </trkpt>
      <trkpt lat="44.34546" lon="3.61562">
        <ele>600.4</ele>
        <time>2022-10-29T11:52:05Z</time>
      </trkpt>
      <trkpt lat="44.34543" lon="3.61548">
        <ele>599.2</ele>
        <time>2022-10-29T11:52:06Z</time>
      </trkpt>
      <trkpt lat="44.3454" lon="3.61536">
        <ele>598</ele>
        <time>2022-10-29T11:52:07Z</time>
      </trkpt>
      <trkpt lat="44.34537" lon="3.61524">
        <ele>596.8</ele>
        <time>2022-10-29T11:52:08Z</time>
      </trkpt>
      <trkpt lat="44.34535" lon="3.61513">
        <ele>595.8</ele>
        <time>2022-10-29T11:52:09Z</time>
      </trkpt>
      <trkpt lat="44.34532" lon="3.61503">
        <ele>594.6</ele>
        <time>2022-10-29T11:52:10Z</time>
      </trkpt>
      <trkpt lat="44.3453" lon="3.61492">
        <ele>593.8</ele>
        <time>2022-10-29T11:52:11Z</time>
      </trkpt>
      <trkpt lat="44.34528" lon="3.61481">
        <ele>593</ele>
        <time>2022-10-29T11:52:12Z</time>
      </trkpt>
      <trkpt lat="44.34525" lon="3.6147">
        <ele>592.4</ele>
        <time>2022-10-29T11:52:13Z</time>
      </trkpt>
      <trkpt lat="44.34523" lon="3.61459">
        <ele>591.8</ele>
        <time>2022-10-29T11:52:14Z</time>
      </trkpt>
      <trkpt lat="44.3452" lon="3.61448">
        <ele>591.2</ele>
        <time>2022-10-29T11:52:15Z</time>
      </trkpt>
      <trkpt lat="44.34517" lon="3.61436">
        <ele>590.6</ele>
        <time>2022-10-29T11:52:16Z</time>
      </trkpt>
      <trkpt lat="44.34514" lon="3.61424">
        <ele>590</ele>
        <time>2022-10-29T11:52:17Z</time>
      </trkpt>
      <trkpt lat="44.3451" lon="3.61412">
        <ele>589.4</ele>
        <time>2022-10-29T11:52:18Z</time>
      </trkpt>
      <trkpt lat="44.34506" lon="3.614">
        <ele>589</ele>
        <time>2022-10-29T11:52:19Z</time>
      </trkpt>
      <trkpt lat="44.34502" lon="3.61388">
        <ele>588.4</ele>
        <time>2022-10-29T11:52:20Z</time>
      </trkpt>
      <trkpt lat="44.34498" lon="3.61374">
        <ele>587.8</ele>
        <time>2022-10-29T11:52:21Z</time>
      </trkpt>
      <trkpt lat="44.34494" lon="3.61361">
        <ele>587.2</ele>
        <time>2022-10-29T11:52:22Z</time>
      </trkpt>
      <trkpt lat="44.34491" lon="3.61348">
        <ele>586.8</ele>
        <time>2022-10-29T11:52:23Z</time>
      </trkpt>
      <trkpt lat="44.34489" lon="3.61334">
        <ele>586.2</ele>
        <time>2022-10-29T11:52:24Z</time>
      </trkpt>
      <trkpt lat="44.34489" lon="3.6132">
        <ele>585.6</ele>
        <time>2022-10-29T11:52:25Z</time>
      </trkpt>
      <trkpt lat="44.3449" lon="3.61307">
        <ele>585.2</ele>
        <time>2022-10-29T11:52:26Z</time>
      </trkpt>
      <trkpt lat="44.34491" lon="3.61293">
        <ele>584.6</ele>
        <time>2022-10-29T11:52:27Z</time>
      </trkpt>
      <trkpt lat="44.34492" lon="3.61279">
        <ele>584</ele>
        <time>2022-10-29T11:52:28Z</time>
      </trkpt>
      <trkpt lat="44.34494" lon="3.61266">
        <ele>583.6</ele>
        <time>2022-10-29T11:52:29Z</time>
      </trkpt>
      <trkpt lat="44.34496" lon="3.61254">
        <ele>583.2</ele>
        <time>2022-10-29T11:52:30Z</time>
      </trkpt>
      <trkpt lat="44.34498" lon="3.61241">
        <ele>583</ele>
        <time>2022-10-29T11:52:31Z</time>
      </trkpt>
      <trkpt lat="44.34499" lon="3.61229">
        <ele>582.8</ele>
        <time>2022-10-29T11:52:32Z</time>
      </trkpt>
      <trkpt lat="44.345" lon="3.61218">
        <ele>582.4</ele>
        <time>2022-10-29T11:52:33Z</time>
      </trkpt>
      <trkpt lat="44.34501" lon="3.61207">
        <ele>582.2</ele>
        <time>2022-10-29T11:52:34Z</time>
      </trkpt>
      <trkpt lat="44.34503" lon="3.61196">
        <ele>582</ele>
        <time>2022-10-29T11:52:35Z</time>
      </trkpt>
      <trkpt lat="44.34504" lon="3.61186">
        <ele>582</ele>
        <time>2022-10-29T11:52:36Z</time>
      </trkpt>
      <trkpt lat="44.34504" lon="3.61176">
        <ele>581.8</ele>
        <time>2022-10-29T11:52:37Z</time>
      </trkpt>
      <trkpt lat="44.34506" lon="3.61166">
        <ele>582</ele>
        <time>2022-10-29T11:52:38Z</time>
      </trkpt>
      <trkpt lat="44.34507" lon="3.61157">
        <ele>581.8</ele>
        <time>2022-10-29T11:52:39Z</time>
      </trkpt>
      <trkpt lat="44.34508" lon="3.61149">
        <ele>581.8</ele>
        <time>2022-10-29T11:52:40Z</time>
      </trkpt>
      <trkpt lat="44.34509" lon="3.6114">
        <ele>582</ele>
        <time>2022-10-29T11:52:41Z</time>
      </trkpt>
      <trkpt lat="44.3451" lon="3.61132">
        <ele>581.6</ele>
        <time>2022-10-29T11:52:42Z</time>
      </trkpt>
      <trkpt lat="44.34511" lon="3.61123">
        <ele>581.2</ele>
        <time>2022-10-29T11:52:43Z</time>
      </trkpt>
      <trkpt lat="44.34512" lon="3.61116">
        <ele>581</ele>
        <time>2022-10-29T11:52:44Z</time>
      </trkpt>
      <trkpt lat="44.34512" lon="3.61108">
        <ele>580.8</ele>
        <time>2022-10-29T11:52:45Z</time>
      </trkpt>
      <trkpt lat="44.34513" lon="3.61101">
        <ele>580.8</ele>
        <time>2022-10-29T11:52:46Z</time>
      </trkpt>
      <trkpt lat="44.34513" lon="3.61094">
        <ele>580.6</ele>
        <time>2022-10-29T11:52:47Z</time>
      </trkpt>
      <trkpt lat="44.34512" lon="3.61088">
        <ele>580.2</ele>
        <time>2022-10-29T11:52:48Z</time>
      </trkpt>
      <trkpt lat="44.34512" lon="3.61085">
        <ele>580</ele>
        <time>2022-10-29T11:52:49Z</time>
      </trkpt>
      <trkpt lat="44.34512" lon="3.61083">
        <ele>579.8</ele>
        <time>2022-10-29T11:52:50Z</time>
      </trkpt>
      <trkpt lat="44.34512" lon="3.61083">
        <ele>579.6</ele>
        <time>2022-10-29T11:52:51Z</time>
      </trkpt>
      <trkpt lat="44.34514" lon="3.61082">
        <ele>579</ele>
        <time>2022-10-29T11:52:58Z</time>
      </trkpt>
      <trkpt lat="44.34515" lon="3.61082">
        <ele>579</ele>
        <time>2022-10-29T11:52:59Z</time>
      </trkpt>
      <trkpt lat="44.34515" lon="3.61082">
        <ele>579</ele>
        <time>2022-10-29T11:53:00Z</time>
      </trkpt>
      <trkpt lat="44.34515" lon="3.61082">
        <ele>579</ele>
        <time>2022-10-29T11:53:01Z</time>
      </trkpt>
      <trkpt lat="44.34515" lon="3.61082">
        <ele>579</ele>
        <time>2022-10-29T11:53:02Z</time>
      </trkpt>
      <trkpt lat="44.34515" lon="3.61082">
        <ele>579</ele>
        <time>2022-10-29T11:53:03Z</time>
      </trkpt>
      <trkpt lat="44.34515" lon="3.61082">
        <ele>579</ele>
        <time>2022-10-29T11:53:04Z</time>
      </trkpt>
      <trkpt lat="44.34515" lon="3.61081">
        <ele>579.2</ele>
        <time>2022-10-29T11:54:40Z</time>
      </trkpt>
      <trkpt lat="44.34516" lon="3.6108">
        <ele>579.2</ele>
        <time>2022-10-29T11:54:41Z</time>
      </trkpt>
      <trkpt lat="44.34517" lon="3.61077">
        <ele>579.2</ele>
        <time>2022-10-29T11:54:42Z</time>
      </trkpt>
      <trkpt lat="44.34519" lon="3.61073">
        <ele>579</ele>
        <time>2022-10-29T11:54:43Z</time>
      </trkpt>
      <trkpt lat="44.34522" lon="3.61068">
        <ele>579</ele>
        <time>2022-10-29T11:54:44Z</time>
      </trkpt>
      <trkpt lat="44.34524" lon="3.61064">
        <ele>578.8</ele>
        <time>2022-10-29T11:54:45Z</time>
      </trkpt>
      <trkpt lat="44.34526" lon="3.61059">
        <ele>578.8</ele>
        <time>2022-10-29T11:54:46Z</time>
      </trkpt>
      <trkpt lat="44.34529" lon="3.61054">
        <ele>578.6</ele>
        <time>2022-10-29T11:54:47Z</time>
      </trkpt>
      <trkpt lat="44.3453" lon="3.6105">
        <ele>578.6</ele>
        <time>2022-10-29T11:54:48Z</time>
      </trkpt>
      <trkpt lat="44.34532" lon="3.61044">
        <ele>578.4</ele>
        <time>2022-10-29T11:54:49Z</time>
      </trkpt>
      <trkpt lat="44.34534" lon="3.61039">
        <ele>578.4</ele>
        <time>2022-10-29T11:54:50Z</time>
      </trkpt>
      <trkpt lat="44.34535" lon="3.61034">
        <ele>578.4</ele>
        <time>2022-10-29T11:54:51Z</time>
      </trkpt>
      <trkpt lat="44.34537" lon="3.61029">
        <ele>578.4</ele>
        <time>2022-10-29T11:54:52Z</time>
      </trkpt>
      <trkpt lat="44.34539" lon="3.61023">
        <ele>578.4</ele>
        <time>2022-10-29T11:54:53Z</time>
      </trkpt>
      <trkpt lat="44.3454" lon="3.61017">
        <ele>578.4</ele>
        <time>2022-10-29T11:54:54Z</time>
      </trkpt>
      <trkpt lat="44.34542" lon="3.61011">
        <ele>578.2</ele>
        <time>2022-10-29T11:54:55Z</time>
      </trkpt>
      <trkpt lat="44.34544" lon="3.61005">
        <ele>578.2</ele>
        <time>2022-10-29T11:54:56Z</time>
      </trkpt>
      <trkpt lat="44.34546" lon="3.60999">
        <ele>578</ele>
        <time>2022-10-29T11:54:57Z</time>
      </trkpt>
      <trkpt lat="44.34548" lon="3.60993">
        <ele>578</ele>
        <time>2022-10-29T11:54:58Z</time>
      </trkpt>
      <trkpt lat="44.3455" lon="3.60988">
        <ele>577.8</ele>
        <time>2022-10-29T11:54:59Z</time>
      </trkpt>
      <trkpt lat="44.34552" lon="3.60982">
        <ele>577.8</ele>
        <time>2022-10-29T11:55:00Z</time>
      </trkpt>
      <trkpt lat="44.34555" lon="3.60976">
        <ele>577.6</ele>
        <time>2022-10-29T11:55:01Z</time>
      </trkpt>
      <trkpt lat="44.34557" lon="3.6097">
        <ele>577.6</ele>
        <time>2022-10-29T11:55:02Z</time>
      </trkpt>
      <trkpt lat="44.34559" lon="3.60964">
        <ele>577.4</ele>
        <time>2022-10-29T11:55:03Z</time>
      </trkpt>
      <trkpt lat="44.34561" lon="3.60958">
        <ele>577.2</ele>
        <time>2022-10-29T11:55:04Z</time>
      </trkpt>
      <trkpt lat="44.34563" lon="3.60952">
        <ele>577.2</ele>
        <time>2022-10-29T11:55:05Z</time>
      </trkpt>
      <trkpt lat="44.34566" lon="3.60946">
        <ele>577</ele>
        <time>2022-10-29T11:55:06Z</time>
      </trkpt>
      <trkpt lat="44.34568" lon="3.60939">
        <ele>577</ele>
        <time>2022-10-29T11:55:07Z</time>
      </trkpt>
      <trkpt lat="44.3457" lon="3.60932">
        <ele>576.8</ele>
        <time>2022-10-29T11:55:08Z</time>
      </trkpt>
      <trkpt lat="44.34572" lon="3.60925">
        <ele>576.6</ele>
        <time>2022-10-29T11:55:09Z</time>
      </trkpt>
      <trkpt lat="44.34574" lon="3.60918">
        <ele>576.6</ele>
        <time>2022-10-29T11:55:10Z</time>
      </trkpt>
      <trkpt lat="44.34577" lon="3.60912">
        <ele>576.4</ele>
        <time>2022-10-29T11:55:11Z</time>
      </trkpt>
      <trkpt lat="44.34579" lon="3.60905">
        <ele>576.4</ele>
        <time>2022-10-29T11:55:12Z</time>
      </trkpt>
      <trkpt lat="44.34581" lon="3.60899">
        <ele>576.2</ele>
        <time>2022-10-29T11:55:13Z</time>
      </trkpt>
      <trkpt lat="44.34584" lon="3.60893">
        <ele>576.2</ele>
        <time>2022-10-29T11:55:14Z</time>
      </trkpt>
      <trkpt lat="44.34586" lon="3.60886">
        <ele>576.2</ele>
        <time>2022-10-29T11:55:15Z</time>
      </trkpt>
      <trkpt lat="44.34589" lon="3.6088">
        <ele>576.2</ele>
        <time>2022-10-29T11:55:16Z</time>
      </trkpt>
      <trkpt lat="44.3459" lon="3.60873">
        <ele>576.2</ele>
        <time>2022-10-29T11:55:17Z</time>
      </trkpt>
      <trkpt lat="44.34593" lon="3.60866">
        <ele>576.2</ele>
        <time>2022-10-29T11:55:18Z</time>
      </trkpt>
      <trkpt lat="44.34596" lon="3.6086">
        <ele>576.2</ele>
        <time>2022-10-29T11:55:19Z</time>
      </trkpt>
      <trkpt lat="44.34599" lon="3.60853">
        <ele>576.4</ele>
        <time>2022-10-29T11:55:20Z</time>
      </trkpt>
      <trkpt lat="44.34601" lon="3.60847">
        <ele>576.4</ele>
        <time>2022-10-29T11:55:21Z</time>
      </trkpt>
      <trkpt lat="44.34604" lon="3.60841">
        <ele>576.6</ele>
        <time>2022-10-29T11:55:22Z</time>
      </trkpt>
      <trkpt lat="44.34606" lon="3.60836">
        <ele>576.6</ele>
        <time>2022-10-29T11:55:23Z</time>
      </trkpt>
      <trkpt lat="44.34608" lon="3.6083">
        <ele>576.6</ele>
        <time>2022-10-29T11:55:24Z</time>
      </trkpt>
      <trkpt lat="44.3461" lon="3.60825">
        <ele>576.6</ele>
        <time>2022-10-29T11:55:25Z</time>
      </trkpt>
      <trkpt lat="44.34612" lon="3.6082">
        <ele>576.6</ele>
        <time>2022-10-29T11:55:26Z</time>
      </trkpt>
      <trkpt lat="44.34614" lon="3.60815">
        <ele>576.6</ele>
        <time>2022-10-29T11:55:27Z</time>
      </trkpt>
      <trkpt lat="44.34617" lon="3.60809">
        <ele>576.6</ele>
        <time>2022-10-29T11:55:28Z</time>
      </trkpt>
      <trkpt lat="44.34619" lon="3.60804">
        <ele>576.4</ele>
        <time>2022-10-29T11:55:29Z</time>
      </trkpt>
      <trkpt lat="44.34622" lon="3.60799">
        <ele>576.4</ele>
        <time>2022-10-29T11:55:30Z</time>
      </trkpt>
      <trkpt lat="44.34625" lon="3.60793">
        <ele>576.2</ele>
        <time>2022-10-29T11:55:31Z</time>
      </trkpt>
      <trkpt lat="44.34628" lon="3.60788">
        <ele>576</ele>
        <time>2022-10-29T11:55:32Z</time>
      </trkpt>
      <trkpt lat="44.34631" lon="3.60782">
        <ele>576</ele>
        <time>2022-10-29T11:55:33Z</time>
      </trkpt>
      <trkpt lat="44.34634" lon="3.60777">
        <ele>575.8</ele>
        <time>2022-10-29T11:55:34Z</time>
      </trkpt>
      <trkpt lat="44.34637" lon="3.60771">
        <ele>575.8</ele>
        <time>2022-10-29T11:55:35Z</time>
      </trkpt>
      <trkpt lat="44.34639" lon="3.60765">
        <ele>575.6</ele>
        <time>2022-10-29T11:55:36Z</time>
      </trkpt>
      <trkpt lat="44.34641" lon="3.60759">
        <ele>575.4</ele>
        <time>2022-10-29T11:55:37Z</time>
      </trkpt>
      <trkpt lat="44.34643" lon="3.60753">
        <ele>575.4</ele>
        <time>2022-10-29T11:55:38Z</time>
      </trkpt>
      <trkpt lat="44.34644" lon="3.60747">
        <ele>575.2</ele>
        <time>2022-10-29T11:55:39Z</time>
      </trkpt>
      <trkpt lat="44.34645" lon="3.60742">
        <ele>575.2</ele>
        <time>2022-10-29T11:55:40Z</time>
      </trkpt>
      <trkpt lat="44.34646" lon="3.60735">
        <ele>575</ele>
        <time>2022-10-29T11:55:41Z</time>
      </trkpt>
      <trkpt lat="44.34646" lon="3.60728">
        <ele>575</ele>
        <time>2022-10-29T11:55:42Z</time>
      </trkpt>
      <trkpt lat="44.34646" lon="3.60722">
        <ele>574.8</ele>
        <time>2022-10-29T11:55:43Z</time>
      </trkpt>
      <trkpt lat="44.34645" lon="3.60715">
        <ele>574.8</ele>
        <time>2022-10-29T11:55:44Z</time>
      </trkpt>
      <trkpt lat="44.34645" lon="3.60709">
        <ele>574.8</ele>
        <time>2022-10-29T11:55:45Z</time>
      </trkpt>
      <trkpt lat="44.34645" lon="3.60702">
        <ele>574.8</ele>
        <time>2022-10-29T11:55:46Z</time>
      </trkpt>
      <trkpt lat="44.34646" lon="3.60696">
        <ele>574.6</ele>
        <time>2022-10-29T11:55:47Z</time>
      </trkpt>
      <trkpt lat="44.34646" lon="3.60689">
        <ele>574.6</ele>
        <time>2022-10-29T11:55:48Z</time>
      </trkpt>
      <trkpt lat="44.34646" lon="3.60682">
        <ele>574.6</ele>
        <time>2022-10-29T11:55:49Z</time>
      </trkpt>
      <trkpt lat="44.34646" lon="3.60676">
        <ele>574.6</ele>
        <time>2022-10-29T11:55:50Z</time>
      </trkpt>
      <trkpt lat="44.34647" lon="3.60669">
        <ele>574.6</ele>
        <time>2022-10-29T11:55:51Z</time>
      </trkpt>
      <trkpt lat="44.34647" lon="3.60664">
        <ele>574.6</ele>
        <time>2022-10-29T11:55:52Z</time>
      </trkpt>
      <trkpt lat="44.34648" lon="3.60658">
        <ele>574.6</ele>
        <time>2022-10-29T11:55:53Z</time>
      </trkpt>
      <trkpt lat="44.34649" lon="3.60653">
        <ele>574.6</ele>
        <time>2022-10-29T11:55:54Z</time>
      </trkpt>
      <trkpt lat="44.34651" lon="3.60649">
        <ele>574.8</ele>
        <time>2022-10-29T11:55:55Z</time>
      </trkpt>
      <trkpt lat="44.34653" lon="3.60645">
        <ele>574.8</ele>
        <time>2022-10-29T11:55:56Z</time>
      </trkpt>
      <trkpt lat="44.34656" lon="3.60641">
        <ele>574.8</ele>
        <time>2022-10-29T11:55:57Z</time>
      </trkpt>
      <trkpt lat="44.34658" lon="3.60637">
        <ele>574.8</ele>
        <time>2022-10-29T11:55:58Z</time>
      </trkpt>
      <trkpt lat="44.3466" lon="3.60633">
        <ele>575</ele>
        <time>2022-10-29T11:55:59Z</time>
      </trkpt>
      <trkpt lat="44.34661" lon="3.60629">
        <ele>575</ele>
        <time>2022-10-29T11:56:00Z</time>
      </trkpt>
      <trkpt lat="44.34662" lon="3.60626">
        <ele>575.2</ele>
        <time>2022-10-29T11:56:01Z</time>
      </trkpt>
      <trkpt lat="44.34663" lon="3.60621">
        <ele>575.2</ele>
        <time>2022-10-29T11:56:02Z</time>
      </trkpt>
      <trkpt lat="44.34664" lon="3.60617">
        <ele>575.2</ele>
        <time>2022-10-29T11:56:03Z</time>
      </trkpt>
      <trkpt lat="44.34663" lon="3.60612">
        <ele>575.4</ele>
        <time>2022-10-29T11:56:04Z</time>
      </trkpt>
      <trkpt lat="44.34661" lon="3.60608">
        <ele>575.4</ele>
        <time>2022-10-29T11:56:05Z</time>
      </trkpt>
      <trkpt lat="44.34658" lon="3.60604">
        <ele>575.6</ele>
        <time>2022-10-29T11:56:06Z</time>
      </trkpt>
      <trkpt lat="44.34656" lon="3.60599">
        <ele>575.8</ele>
        <time>2022-10-29T11:56:07Z</time>
      </trkpt>
      <trkpt lat="44.34655" lon="3.60594">
        <ele>576</ele>
        <time>2022-10-29T11:56:08Z</time>
      </trkpt>
      <trkpt lat="44.34655" lon="3.60589">
        <ele>576</ele>
        <time>2022-10-29T11:56:09Z</time>
      </trkpt>
      <trkpt lat="44.34655" lon="3.60584">
        <ele>576</ele>
        <time>2022-10-29T11:56:10Z</time>
      </trkpt>
      <trkpt lat="44.34654" lon="3.60578">
        <ele>576</ele>
        <time>2022-10-29T11:56:11Z</time>
      </trkpt>
      <trkpt lat="44.34654" lon="3.60572">
        <ele>576</ele>
        <time>2022-10-29T11:56:12Z</time>
      </trkpt>
      <trkpt lat="44.34654" lon="3.60567">
        <ele>576.2</ele>
        <time>2022-10-29T11:56:13Z</time>
      </trkpt>
      <trkpt lat="44.34654" lon="3.60561">
        <ele>576.2</ele>
        <time>2022-10-29T11:56:14Z</time>
      </trkpt>
      <trkpt lat="44.34653" lon="3.60556">
        <ele>576.4</ele>
        <time>2022-10-29T11:56:15Z</time>
      </trkpt>
      <trkpt lat="44.34652" lon="3.6055">
        <ele>576.4</ele>
        <time>2022-10-29T11:56:16Z</time>
      </trkpt>
      <trkpt lat="44.34652" lon="3.60546">
        <ele>576.6</ele>
        <time>2022-10-29T11:56:17Z</time>
      </trkpt>
      <trkpt lat="44.34652" lon="3.60541">
        <ele>576.8</ele>
        <time>2022-10-29T11:56:18Z</time>
      </trkpt>
      <trkpt lat="44.34652" lon="3.60537">
        <ele>577</ele>
        <time>2022-10-29T11:56:19Z</time>
      </trkpt>
      <trkpt lat="44.34652" lon="3.60534">
        <ele>577.2</ele>
        <time>2022-10-29T11:56:20Z</time>
      </trkpt>
      <trkpt lat="44.34652" lon="3.6053">
        <ele>577.2</ele>
        <time>2022-10-29T11:56:21Z</time>
      </trkpt>
      <trkpt lat="44.34651" lon="3.60527">
        <ele>577.4</ele>
        <time>2022-10-29T11:56:22Z</time>
      </trkpt>
      <trkpt lat="44.34651" lon="3.60523">
        <ele>577.6</ele>
        <time>2022-10-29T11:56:23Z</time>
      </trkpt>
      <trkpt lat="44.34651" lon="3.60521">
        <ele>578</ele>
        <time>2022-10-29T11:56:24Z</time>
      </trkpt>
      <trkpt lat="44.34651" lon="3.60518">
        <ele>578.2</ele>
        <time>2022-10-29T11:56:25Z</time>
      </trkpt>
      <trkpt lat="44.3465" lon="3.60516">
        <ele>578.4</ele>
        <time>2022-10-29T11:56:26Z</time>
      </trkpt>
      <trkpt lat="44.34649" lon="3.60514">
        <ele>578.6</ele>
        <time>2022-10-29T11:56:27Z</time>
      </trkpt>
      <trkpt lat="44.34648" lon="3.60511">
        <ele>578.8</ele>
        <time>2022-10-29T11:56:28Z</time>
      </trkpt>
      <trkpt lat="44.34646" lon="3.60509">
        <ele>579</ele>
        <time>2022-10-29T11:56:29Z</time>
      </trkpt>
      <trkpt lat="44.34644" lon="3.60506">
        <ele>579</ele>
        <time>2022-10-29T11:56:30Z</time>
      </trkpt>
      <trkpt lat="44.34642" lon="3.60503">
        <ele>579</ele>
        <time>2022-10-29T11:56:31Z</time>
      </trkpt>
      <trkpt lat="44.34641" lon="3.60499">
        <ele>579.2</ele>
        <time>2022-10-29T11:56:32Z</time>
      </trkpt>
      <trkpt lat="44.34639" lon="3.60496">
        <ele>579.2</ele>
        <time>2022-10-29T11:56:33Z</time>
      </trkpt>
      <trkpt lat="44.34637" lon="3.60492">
        <ele>579.2</ele>
        <time>2022-10-29T11:56:34Z</time>
      </trkpt>
      <trkpt lat="44.34636" lon="3.60488">
        <ele>579.4</ele>
        <time>2022-10-29T11:56:35Z</time>
      </trkpt>
      <trkpt lat="44.34635" lon="3.60484">
        <ele>579.4</ele>
        <time>2022-10-29T11:56:36Z</time>
      </trkpt>
      <trkpt lat="44.34634" lon="3.60479">
        <ele>579.6</ele>
        <time>2022-10-29T11:56:37Z</time>
      </trkpt>
      <trkpt lat="44.34633" lon="3.60476">
        <ele>579.6</ele>
        <time>2022-10-29T11:56:38Z</time>
      </trkpt>
      <trkpt lat="44.34632" lon="3.60472">
        <ele>579.8</ele>
        <time>2022-10-29T11:56:39Z</time>
      </trkpt>
      <trkpt lat="44.34631" lon="3.60468">
        <ele>580</ele>
        <time>2022-10-29T11:56:40Z</time>
      </trkpt>
      <trkpt lat="44.3463" lon="3.60466">
        <ele>580.2</ele>
        <time>2022-10-29T11:56:41Z</time>
      </trkpt>
      <trkpt lat="44.34628" lon="3.60463">
        <ele>580.4</ele>
        <time>2022-10-29T11:56:42Z</time>
      </trkpt>
      <trkpt lat="44.34627" lon="3.6046">
        <ele>580.6</ele>
        <time>2022-10-29T11:56:43Z</time>
      </trkpt>
      <trkpt lat="44.34626" lon="3.60457">
        <ele>580.8</ele>
        <time>2022-10-29T11:56:44Z</time>
      </trkpt>
      <trkpt lat="44.34625" lon="3.60453">
        <ele>581</ele>
        <time>2022-10-29T11:56:45Z</time>
      </trkpt>
      <trkpt lat="44.34624" lon="3.6045">
        <ele>581</ele>
        <time>2022-10-29T11:56:46Z</time>
      </trkpt>
      <trkpt lat="44.34624" lon="3.60448">
        <ele>581.2</ele>
        <time>2022-10-29T11:56:47Z</time>
      </trkpt>
      <trkpt lat="44.34622" lon="3.60445">
        <ele>581.2</ele>
        <time>2022-10-29T11:56:48Z</time>
      </trkpt>
      <trkpt lat="44.34621" lon="3.60442">
        <ele>581.4</ele>
        <time>2022-10-29T11:56:49Z</time>
      </trkpt>
      <trkpt lat="44.3462" lon="3.60439">
        <ele>581.6</ele>
        <time>2022-10-29T11:56:50Z</time>
      </trkpt>
      <trkpt lat="44.34618" lon="3.60437">
        <ele>581.6</ele>
        <time>2022-10-29T11:56:51Z</time>
      </trkpt>
      <trkpt lat="44.34617" lon="3.60434">
        <ele>581.8</ele>
        <time>2022-10-29T11:56:52Z</time>
      </trkpt>
      <trkpt lat="44.34616" lon="3.60432">
        <ele>582</ele>
        <time>2022-10-29T11:56:53Z</time>
      </trkpt>
      <trkpt lat="44.34616" lon="3.60429">
        <ele>582.2</ele>
        <time>2022-10-29T11:56:54Z</time>
      </trkpt>
      <trkpt lat="44.34616" lon="3.60426">
        <ele>582.4</ele>
        <time>2022-10-29T11:56:55Z</time>
      </trkpt>
      <trkpt lat="44.34615" lon="3.60424">
        <ele>582.6</ele>
        <time>2022-10-29T11:56:56Z</time>
      </trkpt>
      <trkpt lat="44.34615" lon="3.60421">
        <ele>582.8</ele>
        <time>2022-10-29T11:56:57Z</time>
      </trkpt>
      <trkpt lat="44.34614" lon="3.60418">
        <ele>583</ele>
        <time>2022-10-29T11:56:58Z</time>
      </trkpt>
      <trkpt lat="44.34613" lon="3.60416">
        <ele>583.2</ele>
        <time>2022-10-29T11:56:59Z</time>
      </trkpt>
      <trkpt lat="44.34613" lon="3.60413">
        <ele>583.4</ele>
        <time>2022-10-29T11:57:00Z</time>
      </trkpt>
      <trkpt lat="44.34611" lon="3.60411">
        <ele>583.6</ele>
        <time>2022-10-29T11:57:01Z</time>
      </trkpt>
      <trkpt lat="44.3461" lon="3.60409">
        <ele>583.8</ele>
        <time>2022-10-29T11:57:02Z</time>
      </trkpt>
      <trkpt lat="44.34609" lon="3.60406">
        <ele>584</ele>
        <time>2022-10-29T11:57:03Z</time>
      </trkpt>
      <trkpt lat="44.34608" lon="3.60403">
        <ele>584.2</ele>
        <time>2022-10-29T11:57:04Z</time>
      </trkpt>
      <trkpt lat="44.34607" lon="3.60401">
        <ele>584.4</ele>
        <time>2022-10-29T11:57:05Z</time>
      </trkpt>
      <trkpt lat="44.34606" lon="3.60399">
        <ele>584.6</ele>
        <time>2022-10-29T11:57:06Z</time>
      </trkpt>
      <trkpt lat="44.34604" lon="3.60396">
        <ele>584.8</ele>
        <time>2022-10-29T11:57:07Z</time>
      </trkpt>
      <trkpt lat="44.34603" lon="3.60394">
        <ele>585</ele>
        <time>2022-10-29T11:57:08Z</time>
      </trkpt>
      <trkpt lat="44.34602" lon="3.60392">
        <ele>585</ele>
        <time>2022-10-29T11:57:09Z</time>
      </trkpt>
      <trkpt lat="44.34602" lon="3.6039">
        <ele>585.2</ele>
        <time>2022-10-29T11:57:10Z</time>
      </trkpt>
      <trkpt lat="44.346" lon="3.60388">
        <ele>585.2</ele>
        <time>2022-10-29T11:57:11Z</time>
      </trkpt>
      <trkpt lat="44.346" lon="3.60386">
        <ele>585.2</ele>
        <time>2022-10-29T11:57:12Z</time>
      </trkpt>
      <trkpt lat="44.34598" lon="3.60384">
        <ele>585</ele>
        <time>2022-10-29T11:57:13Z</time>
      </trkpt>
      <trkpt lat="44.34598" lon="3.6038">
        <ele>584.8</ele>
        <time>2022-10-29T11:57:14Z</time>
      </trkpt>
      <trkpt lat="44.34596" lon="3.60377">
        <ele>584.4</ele>
        <time>2022-10-29T11:57:15Z</time>
      </trkpt>
      <trkpt lat="44.34593" lon="3.60373">
        <ele>584</ele>
        <time>2022-10-29T11:57:16Z</time>
      </trkpt>
      <trkpt lat="44.34591" lon="3.6037">
        <ele>583.6</ele>
        <time>2022-10-29T11:57:17Z</time>
      </trkpt>
      <trkpt lat="44.34587" lon="3.60366">
        <ele>583</ele>
        <time>2022-10-29T11:57:18Z</time>
      </trkpt>
      <trkpt lat="44.34584" lon="3.60363">
        <ele>582.4</ele>
        <time>2022-10-29T11:57:19Z</time>
      </trkpt>
      <trkpt lat="44.34581" lon="3.6036">
        <ele>581.8</ele>
        <time>2022-10-29T11:57:20Z</time>
      </trkpt>
      <trkpt lat="44.34578" lon="3.60357">
        <ele>581.4</ele>
        <time>2022-10-29T11:57:21Z</time>
      </trkpt>
      <trkpt lat="44.34575" lon="3.60354">
        <ele>581</ele>
        <time>2022-10-29T11:57:22Z</time>
      </trkpt>
      <trkpt lat="44.34574" lon="3.60352">
        <ele>580.4</ele>
        <time>2022-10-29T11:57:23Z</time>
      </trkpt>
      <trkpt lat="44.34573" lon="3.60349">
        <ele>580</ele>
        <time>2022-10-29T11:57:24Z</time>
      </trkpt>
      <trkpt lat="44.34573" lon="3.60346">
        <ele>579.6</ele>
        <time>2022-10-29T11:57:25Z</time>
      </trkpt>
      <trkpt lat="44.34572" lon="3.60344">
        <ele>579.2</ele>
        <time>2022-10-29T11:57:26Z</time>
      </trkpt>
      <trkpt lat="44.34571" lon="3.60342">
        <ele>578.6</ele>
        <time>2022-10-29T11:57:27Z</time>
      </trkpt>
      <trkpt lat="44.3457" lon="3.60339">
        <ele>578.2</ele>
        <time>2022-10-29T11:57:28Z</time>
      </trkpt>
      <trkpt lat="44.34568" lon="3.60337">
        <ele>577.6</ele>
        <time>2022-10-29T11:57:29Z</time>
      </trkpt>
      <trkpt lat="44.34567" lon="3.60334">
        <ele>577</ele>
        <time>2022-10-29T11:57:30Z</time>
      </trkpt>
      <trkpt lat="44.34566" lon="3.60331">
        <ele>576.4</ele>
        <time>2022-10-29T11:57:31Z</time>
      </trkpt>
      <trkpt lat="44.34566" lon="3.60328">
        <ele>575.8</ele>
        <time>2022-10-29T11:57:32Z</time>
      </trkpt>
      <trkpt lat="44.34566" lon="3.60324">
        <ele>575.4</ele>
        <time>2022-10-29T11:57:33Z</time>
      </trkpt>
      <trkpt lat="44.34566" lon="3.60321">
        <ele>574.8</ele>
        <time>2022-10-29T11:57:34Z</time>
      </trkpt>
      <trkpt lat="44.34565" lon="3.60318">
        <ele>574.4</ele>
        <time>2022-10-29T11:57:35Z</time>
      </trkpt>
      <trkpt lat="44.34564" lon="3.60316">
        <ele>573.8</ele>
        <time>2022-10-29T11:57:36Z</time>
      </trkpt>
      <trkpt lat="44.34562" lon="3.60314">
        <ele>573.4</ele>
        <time>2022-10-29T11:57:37Z</time>
      </trkpt>
      <trkpt lat="44.34561" lon="3.60312">
        <ele>572.8</ele>
        <time>2022-10-29T11:57:38Z</time>
      </trkpt>
      <trkpt lat="44.3456" lon="3.60309">
        <ele>572.4</ele>
        <time>2022-10-29T11:57:39Z</time>
      </trkpt>
      <trkpt lat="44.34558" lon="3.60307">
        <ele>571.8</ele>
        <time>2022-10-29T11:57:40Z</time>
      </trkpt>
      <trkpt lat="44.34556" lon="3.60304">
        <ele>571.2</ele>
        <time>2022-10-29T11:57:41Z</time>
      </trkpt>
      <trkpt lat="44.34555" lon="3.60301">
        <ele>570.6</ele>
        <time>2022-10-29T11:57:42Z</time>
      </trkpt>
      <trkpt lat="44.34553" lon="3.60297">
        <ele>570.2</ele>
        <time>2022-10-29T11:57:43Z</time>
      </trkpt>
      <trkpt lat="44.3455" lon="3.60292">
        <ele>569.8</ele>
        <time>2022-10-29T11:57:44Z</time>
      </trkpt>
      <trkpt lat="44.34548" lon="3.60285">
        <ele>569.4</ele>
        <time>2022-10-29T11:57:45Z</time>
      </trkpt>
      <trkpt lat="44.34545" lon="3.60278">
        <ele>569.2</ele>
        <time>2022-10-29T11:57:46Z</time>
      </trkpt>
      <trkpt lat="44.34543" lon="3.60271">
        <ele>568.8</ele>
        <time>2022-10-29T11:57:47Z</time>
      </trkpt>
      <trkpt lat="44.3454" lon="3.60263">
        <ele>568.6</ele>
        <time>2022-10-29T11:57:48Z</time>
      </trkpt>
      <trkpt lat="44.34536" lon="3.60256">
        <ele>568.6</ele>
        <time>2022-10-29T11:57:49Z</time>
      </trkpt>
      <trkpt lat="44.34534" lon="3.60249">
        <ele>568.4</ele>
        <time>2022-10-29T11:57:50Z</time>
      </trkpt>
      <trkpt lat="44.34532" lon="3.60243">
        <ele>568.2</ele>
        <time>2022-10-29T11:57:51Z</time>
      </trkpt>
      <trkpt lat="44.3453" lon="3.60238">
        <ele>568</ele>
        <time>2022-10-29T11:57:52Z</time>
      </trkpt>
      <trkpt lat="44.34529" lon="3.60232">
        <ele>568</ele>
        <time>2022-10-29T11:57:53Z</time>
      </trkpt>
      <trkpt lat="44.34528" lon="3.60226">
        <ele>567.8</ele>
        <time>2022-10-29T11:57:54Z</time>
      </trkpt>
      <trkpt lat="44.34527" lon="3.60221">
        <ele>567.8</ele>
        <time>2022-10-29T11:57:55Z</time>
      </trkpt>
      <trkpt lat="44.34526" lon="3.60215">
        <ele>567.8</ele>
        <time>2022-10-29T11:57:56Z</time>
      </trkpt>
      <trkpt lat="44.34524" lon="3.6021">
        <ele>567.8</ele>
        <time>2022-10-29T11:57:57Z</time>
      </trkpt>
      <trkpt lat="44.34523" lon="3.60206">
        <ele>567.8</ele>
        <time>2022-10-29T11:57:58Z</time>
      </trkpt>
      <trkpt lat="44.34522" lon="3.60201">
        <ele>567.8</ele>
        <time>2022-10-29T11:57:59Z</time>
      </trkpt>
      <trkpt lat="44.34521" lon="3.60196">
        <ele>568</ele>
        <time>2022-10-29T11:58:00Z</time>
      </trkpt>
      <trkpt lat="44.3452" lon="3.60191">
        <ele>568.2</ele>
        <time>2022-10-29T11:58:01Z</time>
      </trkpt>
      <trkpt lat="44.34518" lon="3.60185">
        <ele>568.4</ele>
        <time>2022-10-29T11:58:02Z</time>
      </trkpt>
      <trkpt lat="44.34518" lon="3.6018">
        <ele>568.6</ele>
        <time>2022-10-29T11:58:03Z</time>
      </trkpt>
      <trkpt lat="44.34516" lon="3.60174">
        <ele>568.4</ele>
        <time>2022-10-29T11:58:04Z</time>
      </trkpt>
      <trkpt lat="44.34515" lon="3.60169">
        <ele>568.4</ele>
        <time>2022-10-29T11:58:05Z</time>
      </trkpt>
      <trkpt lat="44.34514" lon="3.60163">
        <ele>568.4</ele>
        <time>2022-10-29T11:58:06Z</time>
      </trkpt>
      <trkpt lat="44.34513" lon="3.60158">
        <ele>568.4</ele>
        <time>2022-10-29T11:58:07Z</time>
      </trkpt>
      <trkpt lat="44.34512" lon="3.60152">
        <ele>568.6</ele>
        <time>2022-10-29T11:58:08Z</time>
      </trkpt>
      <trkpt lat="44.34511" lon="3.60147">
        <ele>568.6</ele>
        <time>2022-10-29T11:58:09Z</time>
      </trkpt>
      <trkpt lat="44.3451" lon="3.60142">
        <ele>568.6</ele>
        <time>2022-10-29T11:58:10Z</time>
      </trkpt>
      <trkpt lat="44.34508" lon="3.60137">
        <ele>568.6</ele>
        <time>2022-10-29T11:58:11Z</time>
      </trkpt>
      <trkpt lat="44.34507" lon="3.60132">
        <ele>568.6</ele>
        <time>2022-10-29T11:58:12Z</time>
      </trkpt>
      <trkpt lat="44.34506" lon="3.60129">
        <ele>568.8</ele>
        <time>2022-10-29T11:58:13Z</time>
      </trkpt>
      <trkpt lat="44.34504" lon="3.60127">
        <ele>568.8</ele>
        <time>2022-10-29T11:58:14Z</time>
      </trkpt>
      <trkpt lat="44.34503" lon="3.60125">
        <ele>569</ele>
        <time>2022-10-29T11:58:15Z</time>
      </trkpt>
      <trkpt lat="44.34503" lon="3.60124">
        <ele>569</ele>
        <time>2022-10-29T11:58:16Z</time>
      </trkpt>
      <trkpt lat="44.34502" lon="3.60122">
        <ele>569</ele>
        <time>2022-10-29T11:58:17Z</time>
      </trkpt>
      <trkpt lat="44.34502" lon="3.60119">
        <ele>568.8</ele>
        <time>2022-10-29T11:58:18Z</time>
      </trkpt>
      <trkpt lat="44.34502" lon="3.60115">
        <ele>568.8</ele>
        <time>2022-10-29T11:58:19Z</time>
      </trkpt>
      <trkpt lat="44.34502" lon="3.60111">
        <ele>568.8</ele>
        <time>2022-10-29T11:58:20Z</time>
      </trkpt>
      <trkpt lat="44.34501" lon="3.60106">
        <ele>568.8</ele>
        <time>2022-10-29T11:58:21Z</time>
      </trkpt>
      <trkpt lat="44.345" lon="3.60102">
        <ele>568.8</ele>
        <time>2022-10-29T11:58:22Z</time>
      </trkpt>
      <trkpt lat="44.34499" lon="3.60097">
        <ele>568.8</ele>
        <time>2022-10-29T11:58:23Z</time>
      </trkpt>
      <trkpt lat="44.34497" lon="3.60092">
        <ele>568.8</ele>
        <time>2022-10-29T11:58:24Z</time>
      </trkpt>
      <trkpt lat="44.34496" lon="3.60087">
        <ele>568.8</ele>
        <time>2022-10-29T11:58:25Z</time>
      </trkpt>
      <trkpt lat="44.34494" lon="3.60081">
        <ele>568.8</ele>
        <time>2022-10-29T11:58:26Z</time>
      </trkpt>
      <trkpt lat="44.34493" lon="3.60075">
        <ele>568.8</ele>
        <time>2022-10-29T11:58:27Z</time>
      </trkpt>
      <trkpt lat="44.34492" lon="3.60069">
        <ele>568.8</ele>
        <time>2022-10-29T11:58:28Z</time>
      </trkpt>
      <trkpt lat="44.34491" lon="3.60063">
        <ele>568.8</ele>
        <time>2022-10-29T11:58:29Z</time>
      </trkpt>
      <trkpt lat="44.34489" lon="3.60056">
        <ele>568.8</ele>
        <time>2022-10-29T11:58:30Z</time>
      </trkpt>
      <trkpt lat="44.34488" lon="3.6005">
        <ele>568.8</ele>
        <time>2022-10-29T11:58:31Z</time>
      </trkpt>
      <trkpt lat="44.34487" lon="3.60043">
        <ele>568.8</ele>
        <time>2022-10-29T11:58:32Z</time>
      </trkpt>
      <trkpt lat="44.34486" lon="3.60037">
        <ele>568.8</ele>
        <time>2022-10-29T11:58:33Z</time>
      </trkpt>
      <trkpt lat="44.34484" lon="3.6003">
        <ele>568.8</ele>
        <time>2022-10-29T11:58:34Z</time>
      </trkpt>
      <trkpt lat="44.34483" lon="3.60024">
        <ele>568.8</ele>
        <time>2022-10-29T11:58:35Z</time>
      </trkpt>
      <trkpt lat="44.34482" lon="3.60017">
        <ele>568.8</ele>
        <time>2022-10-29T11:58:36Z</time>
      </trkpt>
      <trkpt lat="44.3448" lon="3.60011">
        <ele>568.8</ele>
        <time>2022-10-29T11:58:37Z</time>
      </trkpt>
      <trkpt lat="44.34479" lon="3.60004">
        <ele>568.8</ele>
        <time>2022-10-29T11:58:38Z</time>
      </trkpt>
      <trkpt lat="44.34478" lon="3.59997">
        <ele>568.8</ele>
        <time>2022-10-29T11:58:39Z</time>
      </trkpt>
      <trkpt lat="44.34477" lon="3.59991">
        <ele>568.8</ele>
        <time>2022-10-29T11:58:40Z</time>
      </trkpt>
      <trkpt lat="44.34475" lon="3.59984">
        <ele>568.8</ele>
        <time>2022-10-29T11:58:41Z</time>
      </trkpt>
      <trkpt lat="44.34474" lon="3.59977">
        <ele>568.8</ele>
        <time>2022-10-29T11:58:42Z</time>
      </trkpt>
      <trkpt lat="44.34472" lon="3.5997">
        <ele>568.8</ele>
        <time>2022-10-29T11:58:43Z</time>
      </trkpt>
      <trkpt lat="44.3447" lon="3.59962">
        <ele>568.6</ele>
        <time>2022-10-29T11:58:44Z</time>
      </trkpt>
      <trkpt lat="44.34469" lon="3.59954">
        <ele>568.8</ele>
        <time>2022-10-29T11:58:45Z</time>
      </trkpt>
      <trkpt lat="44.34468" lon="3.59946">
        <ele>568.8</ele>
        <time>2022-10-29T11:58:46Z</time>
      </trkpt>
      <trkpt lat="44.34468" lon="3.59938">
        <ele>568.6</ele>
        <time>2022-10-29T11:58:47Z</time>
      </trkpt>
      <trkpt lat="44.34467" lon="3.5993">
        <ele>568.6</ele>
        <time>2022-10-29T11:58:48Z</time>
      </trkpt>
      <trkpt lat="44.34467" lon="3.59922">
        <ele>568.4</ele>
        <time>2022-10-29T11:58:49Z</time>
      </trkpt>
      <trkpt lat="44.34467" lon="3.59915">
        <ele>568.4</ele>
        <time>2022-10-29T11:58:50Z</time>
      </trkpt>
      <trkpt lat="44.34468" lon="3.59907">
        <ele>568.2</ele>
        <time>2022-10-29T11:58:51Z</time>
      </trkpt>
      <trkpt lat="44.34469" lon="3.59899">
        <ele>568.2</ele>
        <time>2022-10-29T11:58:52Z</time>
      </trkpt>
      <trkpt lat="44.3447" lon="3.59891">
        <ele>568.2</ele>
        <time>2022-10-29T11:58:53Z</time>
      </trkpt>
      <trkpt lat="44.34471" lon="3.59884">
        <ele>568.2</ele>
        <time>2022-10-29T11:58:54Z</time>
      </trkpt>
      <trkpt lat="44.34472" lon="3.59876">
        <ele>568.2</ele>
        <time>2022-10-29T11:58:55Z</time>
      </trkpt>
      <trkpt lat="44.34473" lon="3.59868">
        <ele>568.2</ele>
        <time>2022-10-29T11:58:56Z</time>
      </trkpt>
      <trkpt lat="44.34474" lon="3.5986">
        <ele>568</ele>
        <time>2022-10-29T11:58:57Z</time>
      </trkpt>
      <trkpt lat="44.34476" lon="3.59853">
        <ele>568</ele>
        <time>2022-10-29T11:58:58Z</time>
      </trkpt>
      <trkpt lat="44.34477" lon="3.59846">
        <ele>567.8</ele>
        <time>2022-10-29T11:58:59Z</time>
      </trkpt>
      <trkpt lat="44.34478" lon="3.5984">
        <ele>567.6</ele>
        <time>2022-10-29T11:59:00Z</time>
      </trkpt>
      <trkpt lat="44.34479" lon="3.59835">
        <ele>567.6</ele>
        <time>2022-10-29T11:59:01Z</time>
      </trkpt>
      <trkpt lat="44.3448" lon="3.59829">
        <ele>567.4</ele>
        <time>2022-10-29T11:59:02Z</time>
      </trkpt>
      <trkpt lat="44.34482" lon="3.59824">
        <ele>567.4</ele>
        <time>2022-10-29T11:59:03Z</time>
      </trkpt>
      <trkpt lat="44.34482" lon="3.59819">
        <ele>567.4</ele>
        <time>2022-10-29T11:59:04Z</time>
      </trkpt>
      <trkpt lat="44.34483" lon="3.59813">
        <ele>567.4</ele>
        <time>2022-10-29T11:59:05Z</time>
      </trkpt>
      <trkpt lat="44.34483" lon="3.59807">
        <ele>567.4</ele>
        <time>2022-10-29T11:59:06Z</time>
      </trkpt>
      <trkpt lat="44.34483" lon="3.598">
        <ele>567.4</ele>
        <time>2022-10-29T11:59:07Z</time>
      </trkpt>
      <trkpt lat="44.34483" lon="3.59794">
        <ele>567.4</ele>
        <time>2022-10-29T11:59:08Z</time>
      </trkpt>
      <trkpt lat="44.34483" lon="3.59787">
        <ele>567.2</ele>
        <time>2022-10-29T11:59:09Z</time>
      </trkpt>
      <trkpt lat="44.34483" lon="3.5978">
        <ele>567.2</ele>
        <time>2022-10-29T11:59:10Z</time>
      </trkpt>
      <trkpt lat="44.34483" lon="3.59773">
        <ele>567.2</ele>
        <time>2022-10-29T11:59:11Z</time>
      </trkpt>
      <trkpt lat="44.34483" lon="3.59766">
        <ele>567</ele>
        <time>2022-10-29T11:59:12Z</time>
      </trkpt>
      <trkpt lat="44.34482" lon="3.59758">
        <ele>567</ele>
        <time>2022-10-29T11:59:13Z</time>
      </trkpt>
      <trkpt lat="44.34482" lon="3.59751">
        <ele>567</ele>
        <time>2022-10-29T11:59:14Z</time>
      </trkpt>
      <trkpt lat="44.34481" lon="3.59744">
        <ele>567</ele>
        <time>2022-10-29T11:59:15Z</time>
      </trkpt>
      <trkpt lat="44.34481" lon="3.59736">
        <ele>566.8</ele>
        <time>2022-10-29T11:59:16Z</time>
      </trkpt>
      <trkpt lat="44.3448" lon="3.59728">
        <ele>566.8</ele>
        <time>2022-10-29T11:59:17Z</time>
      </trkpt>
      <trkpt lat="44.3448" lon="3.5972">
        <ele>566.8</ele>
        <time>2022-10-29T11:59:18Z</time>
      </trkpt>
      <trkpt lat="44.34479" lon="3.59714">
        <ele>566.8</ele>
        <time>2022-10-29T11:59:19Z</time>
      </trkpt>
      <trkpt lat="44.34478" lon="3.59705">
        <ele>566.8</ele>
        <time>2022-10-29T11:59:20Z</time>
      </trkpt>
      <trkpt lat="44.34477" lon="3.59697">
        <ele>566.8</ele>
        <time>2022-10-29T11:59:21Z</time>
      </trkpt>
      <trkpt lat="44.34475" lon="3.59688">
        <ele>566.8</ele>
        <time>2022-10-29T11:59:22Z</time>
      </trkpt>
      <trkpt lat="44.34474" lon="3.5968">
        <ele>566.6</ele>
        <time>2022-10-29T11:59:23Z</time>
      </trkpt>
      <trkpt lat="44.34472" lon="3.59672">
        <ele>566.6</ele>
        <time>2022-10-29T11:59:24Z</time>
      </trkpt>
      <trkpt lat="44.34471" lon="3.59664">
        <ele>566.4</ele>
        <time>2022-10-29T11:59:25Z</time>
      </trkpt>
      <trkpt lat="44.3447" lon="3.59657">
        <ele>566.4</ele>
        <time>2022-10-29T11:59:26Z</time>
      </trkpt>
      <trkpt lat="44.34468" lon="3.59649">
        <ele>566.4</ele>
        <time>2022-10-29T11:59:27Z</time>
      </trkpt>
      <trkpt lat="44.34468" lon="3.5964">
        <ele>566.4</ele>
        <time>2022-10-29T11:59:28Z</time>
      </trkpt>
      <trkpt lat="44.34468" lon="3.59632">
        <ele>566.4</ele>
        <time>2022-10-29T11:59:29Z</time>
      </trkpt>
      <trkpt lat="44.34468" lon="3.59624">
        <ele>566.4</ele>
        <time>2022-10-29T11:59:30Z</time>
      </trkpt>
      <trkpt lat="44.34468" lon="3.59616">
        <ele>566.2</ele>
        <time>2022-10-29T11:59:31Z</time>
      </trkpt>
      <trkpt lat="44.34468" lon="3.59608">
        <ele>566.2</ele>
        <time>2022-10-29T11:59:32Z</time>
      </trkpt>
      <trkpt lat="44.34469" lon="3.59601">
        <ele>566.2</ele>
        <time>2022-10-29T11:59:33Z</time>
      </trkpt>
      <trkpt lat="44.34469" lon="3.59593">
        <ele>566.2</ele>
        <time>2022-10-29T11:59:34Z</time>
      </trkpt>
      <trkpt lat="44.3447" lon="3.59585">
        <ele>566.2</ele>
        <time>2022-10-29T11:59:35Z</time>
      </trkpt>
      <trkpt lat="44.34471" lon="3.59578">
        <ele>566</ele>
        <time>2022-10-29T11:59:36Z</time>
      </trkpt>
      <trkpt lat="44.34473" lon="3.5957">
        <ele>566</ele>
        <time>2022-10-29T11:59:37Z</time>
      </trkpt>
      <trkpt lat="44.34474" lon="3.59563">
        <ele>566</ele>
        <time>2022-10-29T11:59:38Z</time>
      </trkpt>
      <trkpt lat="44.34476" lon="3.59556">
        <ele>566</ele>
        <time>2022-10-29T11:59:39Z</time>
      </trkpt>
      <trkpt lat="44.34477" lon="3.59549">
        <ele>566</ele>
        <time>2022-10-29T11:59:40Z</time>
      </trkpt>
      <trkpt lat="44.34479" lon="3.59542">
        <ele>566</ele>
        <time>2022-10-29T11:59:41Z</time>
      </trkpt>
      <trkpt lat="44.3448" lon="3.59534">
        <ele>566</ele>
        <time>2022-10-29T11:59:42Z</time>
      </trkpt>
      <trkpt lat="44.34481" lon="3.59527">
        <ele>565.8</ele>
        <time>2022-10-29T11:59:43Z</time>
      </trkpt>
      <trkpt lat="44.34483" lon="3.5952">
        <ele>565.8</ele>
        <time>2022-10-29T11:59:44Z</time>
      </trkpt>
      <trkpt lat="44.34484" lon="3.59512">
        <ele>565.8</ele>
        <time>2022-10-29T11:59:45Z</time>
      </trkpt>
      <trkpt lat="44.34485" lon="3.59504">
        <ele>565.8</ele>
        <time>2022-10-29T11:59:46Z</time>
      </trkpt>
      <trkpt lat="44.34487" lon="3.59497">
        <ele>565.8</ele>
        <time>2022-10-29T11:59:47Z</time>
      </trkpt>
      <trkpt lat="44.34488" lon="3.5949">
        <ele>565.8</ele>
        <time>2022-10-29T11:59:48Z</time>
      </trkpt>
      <trkpt lat="44.3449" lon="3.59483">
        <ele>565.8</ele>
        <time>2022-10-29T11:59:49Z</time>
      </trkpt>
      <trkpt lat="44.34492" lon="3.59476">
        <ele>565.6</ele>
        <time>2022-10-29T11:59:50Z</time>
      </trkpt>
      <trkpt lat="44.34494" lon="3.59469">
        <ele>565.6</ele>
        <time>2022-10-29T11:59:51Z</time>
      </trkpt>
      <trkpt lat="44.34496" lon="3.59462">
        <ele>565.4</ele>
        <time>2022-10-29T11:59:52Z</time>
      </trkpt>
      <trkpt lat="44.34498" lon="3.59454">
        <ele>565.4</ele>
        <time>2022-10-29T11:59:53Z</time>
      </trkpt>
      <trkpt lat="44.345" lon="3.59447">
        <ele>565.4</ele>
        <time>2022-10-29T11:59:54Z</time>
      </trkpt>
      <trkpt lat="44.34502" lon="3.59439">
        <ele>565.4</ele>
        <time>2022-10-29T11:59:55Z</time>
      </trkpt>
      <trkpt lat="44.34504" lon="3.59432">
        <ele>565.2</ele>
        <time>2022-10-29T11:59:56Z</time>
      </trkpt>
      <trkpt lat="44.34505" lon="3.59425">
        <ele>565.2</ele>
        <time>2022-10-29T11:59:57Z</time>
      </trkpt>
      <trkpt lat="44.34507" lon="3.59417">
        <ele>565</ele>
        <time>2022-10-29T11:59:58Z</time>
      </trkpt>
      <trkpt lat="44.34509" lon="3.5941">
        <ele>565</ele>
        <time>2022-10-29T11:59:59Z</time>
      </trkpt>
      <trkpt lat="44.34511" lon="3.59403">
        <ele>565</ele>
        <time>2022-10-29T12:00:00Z</time>
      </trkpt>
      <trkpt lat="44.34513" lon="3.59395">
        <ele>564.8</ele>
        <time>2022-10-29T12:00:01Z</time>
      </trkpt>
      <trkpt lat="44.34515" lon="3.59388">
        <ele>564.8</ele>
        <time>2022-10-29T12:00:02Z</time>
      </trkpt>
      <trkpt lat="44.34518" lon="3.5938">
        <ele>564.6</ele>
        <time>2022-10-29T12:00:03Z</time>
      </trkpt>
      <trkpt lat="44.3452" lon="3.59373">
        <ele>564.6</ele>
        <time>2022-10-29T12:00:04Z</time>
      </trkpt>
      <trkpt lat="44.34522" lon="3.59366">
        <ele>564.6</ele>
        <time>2022-10-29T12:00:05Z</time>
      </trkpt>
      <trkpt lat="44.34523" lon="3.59359">
        <ele>564.6</ele>
        <time>2022-10-29T12:00:06Z</time>
      </trkpt>
      <trkpt lat="44.34525" lon="3.59352">
        <ele>564.6</ele>
        <time>2022-10-29T12:00:07Z</time>
      </trkpt>
      <trkpt lat="44.34527" lon="3.59344">
        <ele>564.6</ele>
        <time>2022-10-29T12:00:08Z</time>
      </trkpt>
      <trkpt lat="44.34528" lon="3.59337">
        <ele>564.6</ele>
        <time>2022-10-29T12:00:09Z</time>
      </trkpt>
      <trkpt lat="44.3453" lon="3.5933">
        <ele>564.8</ele>
        <time>2022-10-29T12:00:10Z</time>
      </trkpt>
      <trkpt lat="44.34532" lon="3.59322">
        <ele>564.8</ele>
        <time>2022-10-29T12:00:11Z</time>
      </trkpt>
      <trkpt lat="44.34534" lon="3.59316">
        <ele>564.8</ele>
        <time>2022-10-29T12:00:12Z</time>
      </trkpt>
      <trkpt lat="44.34537" lon="3.59308">
        <ele>564.8</ele>
        <time>2022-10-29T12:00:13Z</time>
      </trkpt>
      <trkpt lat="44.34539" lon="3.59301">
        <ele>564.8</ele>
        <time>2022-10-29T12:00:14Z</time>
      </trkpt>
      <trkpt lat="44.34542" lon="3.59295">
        <ele>564.8</ele>
        <time>2022-10-29T12:00:15Z</time>
      </trkpt>
      <trkpt lat="44.34544" lon="3.59288">
        <ele>564.8</ele>
        <time>2022-10-29T12:00:16Z</time>
      </trkpt>
      <trkpt lat="44.34547" lon="3.59281">
        <ele>564.6</ele>
        <time>2022-10-29T12:00:17Z</time>
      </trkpt>
      <trkpt lat="44.3455" lon="3.59275">
        <ele>564.6</ele>
        <time>2022-10-29T12:00:18Z</time>
      </trkpt>
      <trkpt lat="44.34552" lon="3.59269">
        <ele>564.6</ele>
        <time>2022-10-29T12:00:19Z</time>
      </trkpt>
      <trkpt lat="44.34554" lon="3.59263">
        <ele>564.4</ele>
        <time>2022-10-29T12:00:20Z</time>
      </trkpt>
      <trkpt lat="44.34556" lon="3.59258">
        <ele>564.4</ele>
        <time>2022-10-29T12:00:21Z</time>
      </trkpt>
      <trkpt lat="44.34558" lon="3.59252">
        <ele>564.4</ele>
        <time>2022-10-29T12:00:22Z</time>
      </trkpt>
      <trkpt lat="44.34559" lon="3.59247">
        <ele>564.4</ele>
        <time>2022-10-29T12:00:23Z</time>
      </trkpt>
      <trkpt lat="44.34561" lon="3.59242">
        <ele>564.4</ele>
        <time>2022-10-29T12:00:24Z</time>
      </trkpt>
      <trkpt lat="44.34562" lon="3.59236">
        <ele>564.4</ele>
        <time>2022-10-29T12:00:25Z</time>
      </trkpt>
      <trkpt lat="44.34563" lon="3.59231">
        <ele>564.2</ele>
        <time>2022-10-29T12:00:26Z</time>
      </trkpt>
      <trkpt lat="44.34565" lon="3.59225">
        <ele>564.2</ele>
        <time>2022-10-29T12:00:27Z</time>
      </trkpt>
      <trkpt lat="44.34566" lon="3.5922">
        <ele>564.2</ele>
        <time>2022-10-29T12:00:28Z</time>
      </trkpt>
      <trkpt lat="44.34568" lon="3.59215">
        <ele>564.2</ele>
        <time>2022-10-29T12:00:29Z</time>
      </trkpt>
      <trkpt lat="44.3457" lon="3.5921">
        <ele>564.2</ele>
        <time>2022-10-29T12:00:30Z</time>
      </trkpt>
      <trkpt lat="44.34573" lon="3.59206">
        <ele>564.2</ele>
        <time>2022-10-29T12:00:31Z</time>
      </trkpt>
      <trkpt lat="44.34576" lon="3.59201">
        <ele>564.2</ele>
        <time>2022-10-29T12:00:32Z</time>
      </trkpt>
      <trkpt lat="44.34579" lon="3.59197">
        <ele>564.2</ele>
        <time>2022-10-29T12:00:33Z</time>
      </trkpt>
      <trkpt lat="44.34583" lon="3.59194">
        <ele>564.2</ele>
        <time>2022-10-29T12:00:34Z</time>
      </trkpt>
      <trkpt lat="44.34586" lon="3.5919">
        <ele>564.2</ele>
        <time>2022-10-29T12:00:35Z</time>
      </trkpt>
      <trkpt lat="44.34589" lon="3.59186">
        <ele>564.2</ele>
        <time>2022-10-29T12:00:36Z</time>
      </trkpt>
      <trkpt lat="44.34593" lon="3.59182">
        <ele>564.2</ele>
        <time>2022-10-29T12:00:37Z</time>
      </trkpt>
      <trkpt lat="44.34596" lon="3.59178">
        <ele>564.2</ele>
        <time>2022-10-29T12:00:38Z</time>
      </trkpt>
      <trkpt lat="44.34599" lon="3.59174">
        <ele>564.2</ele>
        <time>2022-10-29T12:00:39Z</time>
      </trkpt>
      <trkpt lat="44.34603" lon="3.5917">
        <ele>564.4</ele>
        <time>2022-10-29T12:00:40Z</time>
      </trkpt>
      <trkpt lat="44.34606" lon="3.59166">
        <ele>564.4</ele>
        <time>2022-10-29T12:00:41Z</time>
      </trkpt>
      <trkpt lat="44.34609" lon="3.59163">
        <ele>564.6</ele>
        <time>2022-10-29T12:00:42Z</time>
      </trkpt>
      <trkpt lat="44.34612" lon="3.59161">
        <ele>564.6</ele>
        <time>2022-10-29T12:00:43Z</time>
      </trkpt>
      <trkpt lat="44.34614" lon="3.59158">
        <ele>564.8</ele>
        <time>2022-10-29T12:00:44Z</time>
      </trkpt>
      <trkpt lat="44.34617" lon="3.59156">
        <ele>565</ele>
        <time>2022-10-29T12:00:45Z</time>
      </trkpt>
      <trkpt lat="44.34619" lon="3.59154">
        <ele>565.2</ele>
        <time>2022-10-29T12:00:46Z</time>
      </trkpt>
      <trkpt lat="44.34621" lon="3.59152">
        <ele>565.4</ele>
        <time>2022-10-29T12:00:47Z</time>
      </trkpt>
      <trkpt lat="44.34624" lon="3.59151">
        <ele>565.6</ele>
        <time>2022-10-29T12:00:48Z</time>
      </trkpt>
      <trkpt lat="44.34627" lon="3.59149">
        <ele>565.8</ele>
        <time>2022-10-29T12:00:49Z</time>
      </trkpt>
      <trkpt lat="44.34629" lon="3.59147">
        <ele>566</ele>
        <time>2022-10-29T12:00:50Z</time>
      </trkpt>
      <trkpt lat="44.34632" lon="3.59146">
        <ele>566.2</ele>
        <time>2022-10-29T12:00:51Z</time>
      </trkpt>
      <trkpt lat="44.34635" lon="3.59146">
        <ele>566.6</ele>
        <time>2022-10-29T12:00:52Z</time>
      </trkpt>
      <trkpt lat="44.34637" lon="3.59146">
        <ele>566.8</ele>
        <time>2022-10-29T12:00:53Z</time>
      </trkpt>
      <trkpt lat="44.34639" lon="3.59146">
        <ele>567.2</ele>
        <time>2022-10-29T12:00:54Z</time>
      </trkpt>
      <trkpt lat="44.34642" lon="3.59147">
        <ele>567.4</ele>
        <time>2022-10-29T12:00:55Z</time>
      </trkpt>
      <trkpt lat="44.34644" lon="3.59148">
        <ele>567.6</ele>
        <time>2022-10-29T12:00:56Z</time>
      </trkpt>
      <trkpt lat="44.34646" lon="3.59149">
        <ele>567.8</ele>
        <time>2022-10-29T12:00:57Z</time>
      </trkpt>
      <trkpt lat="44.34648" lon="3.59148">
        <ele>567.8</ele>
        <time>2022-10-29T12:00:58Z</time>
      </trkpt>
      <trkpt lat="44.34651" lon="3.59147">
        <ele>568</ele>
        <time>2022-10-29T12:00:59Z</time>
      </trkpt>
      <trkpt lat="44.34652" lon="3.59144">
        <ele>568.2</ele>
        <time>2022-10-29T12:01:00Z</time>
      </trkpt>
      <trkpt lat="44.34652" lon="3.59141">
        <ele>568.2</ele>
        <time>2022-10-29T12:01:01Z</time>
      </trkpt>
      <trkpt lat="44.34652" lon="3.59137">
        <ele>568.4</ele>
        <time>2022-10-29T12:01:02Z</time>
      </trkpt>
      <trkpt lat="44.34652" lon="3.59133">
        <ele>568.6</ele>
        <time>2022-10-29T12:01:03Z</time>
      </trkpt>
      <trkpt lat="44.34651" lon="3.59129">
        <ele>568.6</ele>
        <time>2022-10-29T12:01:04Z</time>
      </trkpt>
      <trkpt lat="44.34651" lon="3.59125">
        <ele>568.8</ele>
        <time>2022-10-29T12:01:05Z</time>
      </trkpt>
      <trkpt lat="44.3465" lon="3.59122">
        <ele>569</ele>
        <time>2022-10-29T12:01:06Z</time>
      </trkpt>
      <trkpt lat="44.3465" lon="3.59118">
        <ele>569.2</ele>
        <time>2022-10-29T12:01:07Z</time>
      </trkpt>
      <trkpt lat="44.34649" lon="3.59115">
        <ele>569.4</ele>
        <time>2022-10-29T12:01:08Z</time>
      </trkpt>
      <trkpt lat="44.34648" lon="3.59112">
        <ele>569.6</ele>
        <time>2022-10-29T12:01:09Z</time>
      </trkpt>
      <trkpt lat="44.34647" lon="3.59109">
        <ele>569.8</ele>
        <time>2022-10-29T12:01:10Z</time>
      </trkpt>
      <trkpt lat="44.34646" lon="3.59105">
        <ele>570</ele>
        <time>2022-10-29T12:01:11Z</time>
      </trkpt>
      <trkpt lat="44.34645" lon="3.59102">
        <ele>570.4</ele>
        <time>2022-10-29T12:01:12Z</time>
      </trkpt>
      <trkpt lat="44.34644" lon="3.591">
        <ele>570.6</ele>
        <time>2022-10-29T12:01:13Z</time>
      </trkpt>
      <trkpt lat="44.34643" lon="3.59097">
        <ele>570.8</ele>
        <time>2022-10-29T12:01:14Z</time>
      </trkpt>
      <trkpt lat="44.34642" lon="3.59094">
        <ele>571</ele>
        <time>2022-10-29T12:01:15Z</time>
      </trkpt>
      <trkpt lat="44.34641" lon="3.59091">
        <ele>571.2</ele>
        <time>2022-10-29T12:01:16Z</time>
      </trkpt>
      <trkpt lat="44.3464" lon="3.59087">
        <ele>571.4</ele>
        <time>2022-10-29T12:01:17Z</time>
      </trkpt>
      <trkpt lat="44.3464" lon="3.59084">
        <ele>571.8</ele>
        <time>2022-10-29T12:01:18Z</time>
      </trkpt>
      <trkpt lat="44.34639" lon="3.59081">
        <ele>572</ele>
        <time>2022-10-29T12:01:19Z</time>
      </trkpt>
      <trkpt lat="44.34638" lon="3.59078">
        <ele>572.2</ele>
        <time>2022-10-29T12:01:20Z</time>
      </trkpt>
      <trkpt lat="44.34637" lon="3.59076">
        <ele>572.6</ele>
        <time>2022-10-29T12:01:21Z</time>
      </trkpt>
      <trkpt lat="44.34636" lon="3.59073">
        <ele>572.8</ele>
        <time>2022-10-29T12:01:22Z</time>
      </trkpt>
      <trkpt lat="44.34635" lon="3.59071">
        <ele>573</ele>
        <time>2022-10-29T12:01:23Z</time>
      </trkpt>
      <trkpt lat="44.34635" lon="3.59068">
        <ele>573.2</ele>
        <time>2022-10-29T12:01:24Z</time>
      </trkpt>
      <trkpt lat="44.34634" lon="3.59065">
        <ele>573.6</ele>
        <time>2022-10-29T12:01:25Z</time>
      </trkpt>
      <trkpt lat="44.34634" lon="3.59063">
        <ele>573.8</ele>
        <time>2022-10-29T12:01:26Z</time>
      </trkpt>
      <trkpt lat="44.34633" lon="3.5906">
        <ele>574</ele>
        <time>2022-10-29T12:01:27Z</time>
      </trkpt>
      <trkpt lat="44.34633" lon="3.59057">
        <ele>574.2</ele>
        <time>2022-10-29T12:01:28Z</time>
      </trkpt>
      <trkpt lat="44.34632" lon="3.59054">
        <ele>574.6</ele>
        <time>2022-10-29T12:01:29Z</time>
      </trkpt>
      <trkpt lat="44.34631" lon="3.59051">
        <ele>574.8</ele>
        <time>2022-10-29T12:01:30Z</time>
      </trkpt>
      <trkpt lat="44.3463" lon="3.59049">
        <ele>575</ele>
        <time>2022-10-29T12:01:31Z</time>
      </trkpt>
      <trkpt lat="44.34629" lon="3.59046">
        <ele>575.2</ele>
        <time>2022-10-29T12:01:32Z</time>
      </trkpt>
      <trkpt lat="44.34629" lon="3.59044">
        <ele>575.4</ele>
        <time>2022-10-29T12:01:33Z</time>
      </trkpt>
      <trkpt lat="44.34628" lon="3.59041">
        <ele>575.6</ele>
        <time>2022-10-29T12:01:34Z</time>
      </trkpt>
      <trkpt lat="44.34627" lon="3.59038">
        <ele>575.8</ele>
        <time>2022-10-29T12:01:35Z</time>
      </trkpt>
      <trkpt lat="44.34626" lon="3.59035">
        <ele>576</ele>
        <time>2022-10-29T12:01:36Z</time>
      </trkpt>
      <trkpt lat="44.34624" lon="3.59033">
        <ele>576.2</ele>
        <time>2022-10-29T12:01:37Z</time>
      </trkpt>
      <trkpt lat="44.34623" lon="3.5903">
        <ele>576.6</ele>
        <time>2022-10-29T12:01:38Z</time>
      </trkpt>
      <trkpt lat="44.34621" lon="3.59027">
        <ele>576.8</ele>
        <time>2022-10-29T12:01:39Z</time>
      </trkpt>
      <trkpt lat="44.3462" lon="3.59024">
        <ele>577</ele>
        <time>2022-10-29T12:01:40Z</time>
      </trkpt>
      <trkpt lat="44.34618" lon="3.59021">
        <ele>577.2</ele>
        <time>2022-10-29T12:01:41Z</time>
      </trkpt>
      <trkpt lat="44.34617" lon="3.59018">
        <ele>577.4</ele>
        <time>2022-10-29T12:01:42Z</time>
      </trkpt>
      <trkpt lat="44.34616" lon="3.59015">
        <ele>577.6</ele>
        <time>2022-10-29T12:01:43Z</time>
      </trkpt>
      <trkpt lat="44.34615" lon="3.59013">
        <ele>577.8</ele>
        <time>2022-10-29T12:01:44Z</time>
      </trkpt>
      <trkpt lat="44.34615" lon="3.59011">
        <ele>578.2</ele>
        <time>2022-10-29T12:01:45Z</time>
      </trkpt>
      <trkpt lat="44.34613" lon="3.59008">
        <ele>578.4</ele>
        <time>2022-10-29T12:01:46Z</time>
      </trkpt>
      <trkpt lat="44.34612" lon="3.59006">
        <ele>578.6</ele>
        <time>2022-10-29T12:01:47Z</time>
      </trkpt>
      <trkpt lat="44.34611" lon="3.59004">
        <ele>578.8</ele>
        <time>2022-10-29T12:01:48Z</time>
      </trkpt>
      <trkpt lat="44.3461" lon="3.59001">
        <ele>579.2</ele>
        <time>2022-10-29T12:01:49Z</time>
      </trkpt>
      <trkpt lat="44.34608" lon="3.58999">
        <ele>579.4</ele>
        <time>2022-10-29T12:01:50Z</time>
      </trkpt>
      <trkpt lat="44.34606" lon="3.58997">
        <ele>579.6</ele>
        <time>2022-10-29T12:01:51Z</time>
      </trkpt>
      <trkpt lat="44.34605" lon="3.58994">
        <ele>580</ele>
        <time>2022-10-29T12:01:52Z</time>
      </trkpt>
      <trkpt lat="44.34604" lon="3.58992">
        <ele>580.2</ele>
        <time>2022-10-29T12:01:53Z</time>
      </trkpt>
      <trkpt lat="44.34603" lon="3.5899">
        <ele>580.4</ele>
        <time>2022-10-29T12:01:54Z</time>
      </trkpt>
      <trkpt lat="44.34603" lon="3.58987">
        <ele>580.6</ele>
        <time>2022-10-29T12:01:55Z</time>
      </trkpt>
      <trkpt lat="44.34602" lon="3.58985">
        <ele>580.8</ele>
        <time>2022-10-29T12:01:56Z</time>
      </trkpt>
      <trkpt lat="44.34602" lon="3.58982">
        <ele>581.2</ele>
        <time>2022-10-29T12:01:57Z</time>
      </trkpt>
      <trkpt lat="44.34601" lon="3.5898">
        <ele>581.4</ele>
        <time>2022-10-29T12:01:58Z</time>
      </trkpt>
      <trkpt lat="44.346" lon="3.58978">
        <ele>581.6</ele>
        <time>2022-10-29T12:01:59Z</time>
      </trkpt>
      <trkpt lat="44.346" lon="3.58975">
        <ele>581.6</ele>
        <time>2022-10-29T12:02:00Z</time>
      </trkpt>
      <trkpt lat="44.34599" lon="3.58972">
        <ele>581.8</ele>
        <time>2022-10-29T12:02:01Z</time>
      </trkpt>
      <trkpt lat="44.34598" lon="3.58969">
        <ele>582</ele>
        <time>2022-10-29T12:02:02Z</time>
      </trkpt>
      <trkpt lat="44.34598" lon="3.58966">
        <ele>582.2</ele>
        <time>2022-10-29T12:02:03Z</time>
      </trkpt>
      <trkpt lat="44.34597" lon="3.58963">
        <ele>582.4</ele>
        <time>2022-10-29T12:02:04Z</time>
      </trkpt>
      <trkpt lat="44.34596" lon="3.58961">
        <ele>582.6</ele>
        <time>2022-10-29T12:02:05Z</time>
      </trkpt>
      <trkpt lat="44.34596" lon="3.58958">
        <ele>582.8</ele>
        <time>2022-10-29T12:02:06Z</time>
      </trkpt>
      <trkpt lat="44.34596" lon="3.58955">
        <ele>583</ele>
        <time>2022-10-29T12:02:07Z</time>
      </trkpt>
      <trkpt lat="44.34595" lon="3.58953">
        <ele>583.2</ele>
        <time>2022-10-29T12:02:08Z</time>
      </trkpt>
      <trkpt lat="44.34595" lon="3.5895">
        <ele>583.4</ele>
        <time>2022-10-29T12:02:09Z</time>
      </trkpt>
      <trkpt lat="44.34596" lon="3.58947">
        <ele>583.6</ele>
        <time>2022-10-29T12:02:10Z</time>
      </trkpt>
      <trkpt lat="44.34596" lon="3.58943">
        <ele>583.8</ele>
        <time>2022-10-29T12:02:11Z</time>
      </trkpt>
      <trkpt lat="44.34596" lon="3.5894">
        <ele>584</ele>
        <time>2022-10-29T12:02:12Z</time>
      </trkpt>
      <trkpt lat="44.34596" lon="3.58938">
        <ele>584.2</ele>
        <time>2022-10-29T12:02:13Z</time>
      </trkpt>
      <trkpt lat="44.34597" lon="3.58935">
        <ele>584.4</ele>
        <time>2022-10-29T12:02:14Z</time>
      </trkpt>
      <trkpt lat="44.34597" lon="3.58932">
        <ele>584.6</ele>
        <time>2022-10-29T12:02:15Z</time>
      </trkpt>
      <trkpt lat="44.34596" lon="3.58929">
        <ele>584.8</ele>
        <time>2022-10-29T12:02:16Z</time>
      </trkpt>
      <trkpt lat="44.34595" lon="3.58927">
        <ele>585</ele>
        <time>2022-10-29T12:02:17Z</time>
      </trkpt>
      <trkpt lat="44.34594" lon="3.58925">
        <ele>585.2</ele>
        <time>2022-10-29T12:02:18Z</time>
      </trkpt>
      <trkpt lat="44.34591" lon="3.58924">
        <ele>585.4</ele>
        <time>2022-10-29T12:02:19Z</time>
      </trkpt>
      <trkpt lat="44.34589" lon="3.58924">
        <ele>585.6</ele>
        <time>2022-10-29T12:02:20Z</time>
      </trkpt>
      <trkpt lat="44.34587" lon="3.58924">
        <ele>585.6</ele>
        <time>2022-10-29T12:02:21Z</time>
      </trkpt>
      <trkpt lat="44.34585" lon="3.58924">
        <ele>585.8</ele>
        <time>2022-10-29T12:02:22Z</time>
      </trkpt>
      <trkpt lat="44.34583" lon="3.58925">
        <ele>586</ele>
        <time>2022-10-29T12:02:23Z</time>
      </trkpt>
      <trkpt lat="44.34581" lon="3.58925">
        <ele>586</ele>
        <time>2022-10-29T12:02:24Z</time>
      </trkpt>
      <trkpt lat="44.34579" lon="3.58926">
        <ele>586</ele>
        <time>2022-10-29T12:02:25Z</time>
      </trkpt>
      <trkpt lat="44.34576" lon="3.58927">
        <ele>586.2</ele>
        <time>2022-10-29T12:02:26Z</time>
      </trkpt>
      <trkpt lat="44.34574" lon="3.58928">
        <ele>586.2</ele>
        <time>2022-10-29T12:02:27Z</time>
      </trkpt>
      <trkpt lat="44.34571" lon="3.58929">
        <ele>586.2</ele>
        <time>2022-10-29T12:02:28Z</time>
      </trkpt>
      <trkpt lat="44.34567" lon="3.58929">
        <ele>586.2</ele>
        <time>2022-10-29T12:02:29Z</time>
      </trkpt>
      <trkpt lat="44.34564" lon="3.58928">
        <ele>586</ele>
        <time>2022-10-29T12:02:30Z</time>
      </trkpt>
      <trkpt lat="44.3456" lon="3.58926">
        <ele>585.8</ele>
        <time>2022-10-29T12:02:31Z</time>
      </trkpt>
      <trkpt lat="44.34556" lon="3.58924">
        <ele>585.8</ele>
        <time>2022-10-29T12:02:32Z</time>
      </trkpt>
      <trkpt lat="44.34552" lon="3.58921">
        <ele>585.6</ele>
        <time>2022-10-29T12:02:33Z</time>
      </trkpt>
      <trkpt lat="44.34547" lon="3.58918">
        <ele>585.4</ele>
        <time>2022-10-29T12:02:34Z</time>
      </trkpt>
      <trkpt lat="44.34542" lon="3.58916">
        <ele>585.2</ele>
        <time>2022-10-29T12:02:35Z</time>
      </trkpt>
      <trkpt lat="44.34537" lon="3.58915">
        <ele>585.2</ele>
        <time>2022-10-29T12:02:36Z</time>
      </trkpt>
      <trkpt lat="44.34532" lon="3.58914">
        <ele>585</ele>
        <time>2022-10-29T12:02:37Z</time>
      </trkpt>
      <trkpt lat="44.34528" lon="3.58914">
        <ele>585</ele>
        <time>2022-10-29T12:02:38Z</time>
      </trkpt>
      <trkpt lat="44.34524" lon="3.58913">
        <ele>585</ele>
        <time>2022-10-29T12:02:39Z</time>
      </trkpt>
      <trkpt lat="44.34519" lon="3.58911">
        <ele>585</ele>
        <time>2022-10-29T12:02:40Z</time>
      </trkpt>
      <trkpt lat="44.34515" lon="3.5891">
        <ele>585.2</ele>
        <time>2022-10-29T12:02:41Z</time>
      </trkpt>
      <trkpt lat="44.3451" lon="3.58909">
        <ele>585.2</ele>
        <time>2022-10-29T12:02:42Z</time>
      </trkpt>
      <trkpt lat="44.34506" lon="3.58908">
        <ele>585.4</ele>
        <time>2022-10-29T12:02:43Z</time>
      </trkpt>
      <trkpt lat="44.34503" lon="3.58907">
        <ele>585.6</ele>
        <time>2022-10-29T12:02:44Z</time>
      </trkpt>
      <trkpt lat="44.345" lon="3.58906">
        <ele>585.8</ele>
        <time>2022-10-29T12:02:45Z</time>
      </trkpt>
      <trkpt lat="44.34497" lon="3.58905">
        <ele>585.8</ele>
        <time>2022-10-29T12:02:46Z</time>
      </trkpt>
      <trkpt lat="44.34494" lon="3.58904">
        <ele>586</ele>
        <time>2022-10-29T12:02:47Z</time>
      </trkpt>
      <trkpt lat="44.3449" lon="3.58903">
        <ele>586</ele>
        <time>2022-10-29T12:02:48Z</time>
      </trkpt>
      <trkpt lat="44.34486" lon="3.58902">
        <ele>586.2</ele>
        <time>2022-10-29T12:02:49Z</time>
      </trkpt>
      <trkpt lat="44.34483" lon="3.58901">
        <ele>586.2</ele>
        <time>2022-10-29T12:02:50Z</time>
      </trkpt>
      <trkpt lat="44.3448" lon="3.58901">
        <ele>586.2</ele>
        <time>2022-10-29T12:02:51Z</time>
      </trkpt>
      <trkpt lat="44.34476" lon="3.58901">
        <ele>586.4</ele>
        <time>2022-10-29T12:02:52Z</time>
      </trkpt>
      <trkpt lat="44.34473" lon="3.58901">
        <ele>586.4</ele>
        <time>2022-10-29T12:02:53Z</time>
      </trkpt>
      <trkpt lat="44.34469" lon="3.589">
        <ele>586.6</ele>
        <time>2022-10-29T12:02:54Z</time>
      </trkpt>
      <trkpt lat="44.34465" lon="3.58899">
        <ele>586.8</ele>
        <time>2022-10-29T12:02:55Z</time>
      </trkpt>
      <trkpt lat="44.34462" lon="3.58898">
        <ele>587</ele>
        <time>2022-10-29T12:02:56Z</time>
      </trkpt>
      <trkpt lat="44.34459" lon="3.58897">
        <ele>587</ele>
        <time>2022-10-29T12:02:57Z</time>
      </trkpt>
      <trkpt lat="44.34456" lon="3.58896">
        <ele>587.2</ele>
        <time>2022-10-29T12:02:58Z</time>
      </trkpt>
      <trkpt lat="44.34452" lon="3.58895">
        <ele>587.4</ele>
        <time>2022-10-29T12:02:59Z</time>
      </trkpt>
      <trkpt lat="44.34449" lon="3.58894">
        <ele>587.6</ele>
        <time>2022-10-29T12:03:00Z</time>
      </trkpt>
      <trkpt lat="44.34446" lon="3.58894">
        <ele>587.8</ele>
        <time>2022-10-29T12:03:01Z</time>
      </trkpt>
      <trkpt lat="44.34443" lon="3.58894">
        <ele>587.8</ele>
        <time>2022-10-29T12:03:02Z</time>
      </trkpt>
      <trkpt lat="44.3444" lon="3.58893">
        <ele>588</ele>
        <time>2022-10-29T12:03:03Z</time>
      </trkpt>
      <trkpt lat="44.34436" lon="3.58893">
        <ele>588</ele>
        <time>2022-10-29T12:03:04Z</time>
      </trkpt>
      <trkpt lat="44.34432" lon="3.58892">
        <ele>588.2</ele>
        <time>2022-10-29T12:03:05Z</time>
      </trkpt>
      <trkpt lat="44.34429" lon="3.58892">
        <ele>588.2</ele>
        <time>2022-10-29T12:03:06Z</time>
      </trkpt>
      <trkpt lat="44.34425" lon="3.58891">
        <ele>588.4</ele>
        <time>2022-10-29T12:03:07Z</time>
      </trkpt>
      <trkpt lat="44.34421" lon="3.5889">
        <ele>588.4</ele>
        <time>2022-10-29T12:03:08Z</time>
      </trkpt>
      <trkpt lat="44.34417" lon="3.5889">
        <ele>588.4</ele>
        <time>2022-10-29T12:03:09Z</time>
      </trkpt>
      <trkpt lat="44.34413" lon="3.5889">
        <ele>588.4</ele>
        <time>2022-10-29T12:03:10Z</time>
      </trkpt>
      <trkpt lat="44.3441" lon="3.58889">
        <ele>588.6</ele>
        <time>2022-10-29T12:03:11Z</time>
      </trkpt>
      <trkpt lat="44.34407" lon="3.58888">
        <ele>588.6</ele>
        <time>2022-10-29T12:03:12Z</time>
      </trkpt>
      <trkpt lat="44.34403" lon="3.58886">
        <ele>588.8</ele>
        <time>2022-10-29T12:03:13Z</time>
      </trkpt>
      <trkpt lat="44.34401" lon="3.58883">
        <ele>589</ele>
        <time>2022-10-29T12:03:14Z</time>
      </trkpt>
      <trkpt lat="44.34398" lon="3.58881">
        <ele>589</ele>
        <time>2022-10-29T12:03:15Z</time>
      </trkpt>
      <trkpt lat="44.34395" lon="3.58878">
        <ele>589.2</ele>
        <time>2022-10-29T12:03:16Z</time>
      </trkpt>
      <trkpt lat="44.34393" lon="3.58875">
        <ele>589.4</ele>
        <time>2022-10-29T12:03:17Z</time>
      </trkpt>
      <trkpt lat="44.3439" lon="3.58873">
        <ele>589.6</ele>
        <time>2022-10-29T12:03:18Z</time>
      </trkpt>
      <trkpt lat="44.34388" lon="3.58871">
        <ele>589.8</ele>
        <time>2022-10-29T12:03:19Z</time>
      </trkpt>
      <trkpt lat="44.34385" lon="3.58869">
        <ele>590</ele>
        <time>2022-10-29T12:03:20Z</time>
      </trkpt>
      <trkpt lat="44.34382" lon="3.58867">
        <ele>590.2</ele>
        <time>2022-10-29T12:03:21Z</time>
      </trkpt>
      <trkpt lat="44.34379" lon="3.58865">
        <ele>590.4</ele>
        <time>2022-10-29T12:03:22Z</time>
      </trkpt>
      <trkpt lat="44.34376" lon="3.58863">
        <ele>590.6</ele>
        <time>2022-10-29T12:03:23Z</time>
      </trkpt>
      <trkpt lat="44.34373" lon="3.58862">
        <ele>590.6</ele>
        <time>2022-10-29T12:03:24Z</time>
      </trkpt>
      <trkpt lat="44.3437" lon="3.58861">
        <ele>590.8</ele>
        <time>2022-10-29T12:03:25Z</time>
      </trkpt>
      <trkpt lat="44.34367" lon="3.58861">
        <ele>591</ele>
        <time>2022-10-29T12:03:26Z</time>
      </trkpt>
      <trkpt lat="44.34364" lon="3.5886">
        <ele>591</ele>
        <time>2022-10-29T12:03:27Z</time>
      </trkpt>
      <trkpt lat="44.3436" lon="3.5886">
        <ele>591.2</ele>
        <time>2022-10-29T12:03:28Z</time>
      </trkpt>
      <trkpt lat="44.34356" lon="3.58859">
        <ele>591.2</ele>
        <time>2022-10-29T12:03:29Z</time>
      </trkpt>
      <trkpt lat="44.34353" lon="3.58858">
        <ele>591.2</ele>
        <time>2022-10-29T12:03:30Z</time>
      </trkpt>
      <trkpt lat="44.34349" lon="3.58858">
        <ele>591.2</ele>
        <time>2022-10-29T12:03:31Z</time>
      </trkpt>
      <trkpt lat="44.34345" lon="3.58858">
        <ele>591.2</ele>
        <time>2022-10-29T12:03:32Z</time>
      </trkpt>
      <trkpt lat="44.34342" lon="3.58859">
        <ele>591.2</ele>
        <time>2022-10-29T12:03:33Z</time>
      </trkpt>
      <trkpt lat="44.34338" lon="3.5886">
        <ele>591</ele>
        <time>2022-10-29T12:03:34Z</time>
      </trkpt>
      <trkpt lat="44.34334" lon="3.58862">
        <ele>591</ele>
        <time>2022-10-29T12:03:35Z</time>
      </trkpt>
      <trkpt lat="44.3433" lon="3.58865">
        <ele>590.8</ele>
        <time>2022-10-29T12:03:36Z</time>
      </trkpt>
      <trkpt lat="44.34326" lon="3.58867">
        <ele>590.6</ele>
        <time>2022-10-29T12:03:37Z</time>
      </trkpt>
      <trkpt lat="44.34321" lon="3.5887">
        <ele>590.4</ele>
        <time>2022-10-29T12:03:38Z</time>
      </trkpt>
      <trkpt lat="44.34316" lon="3.58874">
        <ele>590.2</ele>
        <time>2022-10-29T12:03:39Z</time>
      </trkpt>
      <trkpt lat="44.34311" lon="3.58876">
        <ele>590</ele>
        <time>2022-10-29T12:03:40Z</time>
      </trkpt>
      <trkpt lat="44.34305" lon="3.5888">
        <ele>589.8</ele>
        <time>2022-10-29T12:03:41Z</time>
      </trkpt>
      <trkpt lat="44.34298" lon="3.58883">
        <ele>589.6</ele>
        <time>2022-10-29T12:03:42Z</time>
      </trkpt>
      <trkpt lat="44.34292" lon="3.58884">
        <ele>589.4</ele>
        <time>2022-10-29T12:03:43Z</time>
      </trkpt>
      <trkpt lat="44.34286" lon="3.58886">
        <ele>589.4</ele>
        <time>2022-10-29T12:03:44Z</time>
      </trkpt>
      <trkpt lat="44.34279" lon="3.58888">
        <ele>589</ele>
        <time>2022-10-29T12:03:45Z</time>
      </trkpt>
      <trkpt lat="44.34274" lon="3.5889">
        <ele>588.8</ele>
        <time>2022-10-29T12:03:46Z</time>
      </trkpt>
      <trkpt lat="44.34268" lon="3.58894">
        <ele>588.6</ele>
        <time>2022-10-29T12:03:47Z</time>
      </trkpt>
      <trkpt lat="44.34262" lon="3.58896">
        <ele>588.4</ele>
        <time>2022-10-29T12:03:48Z</time>
      </trkpt>
      <trkpt lat="44.34255" lon="3.58899">
        <ele>588.2</ele>
        <time>2022-10-29T12:03:49Z</time>
      </trkpt>
      <trkpt lat="44.34248" lon="3.589">
        <ele>588</ele>
        <time>2022-10-29T12:03:50Z</time>
      </trkpt>
      <trkpt lat="44.34242" lon="3.58902">
        <ele>587.8</ele>
        <time>2022-10-29T12:03:51Z</time>
      </trkpt>
      <trkpt lat="44.34237" lon="3.58902">
        <ele>587.6</ele>
        <time>2022-10-29T12:03:52Z</time>
      </trkpt>
      <trkpt lat="44.34231" lon="3.58903">
        <ele>587.2</ele>
        <time>2022-10-29T12:03:53Z</time>
      </trkpt>
      <trkpt lat="44.34225" lon="3.58903">
        <ele>587</ele>
        <time>2022-10-29T12:03:54Z</time>
      </trkpt>
      <trkpt lat="44.3422" lon="3.58903">
        <ele>587</ele>
        <time>2022-10-29T12:03:55Z</time>
      </trkpt>
      <trkpt lat="44.34216" lon="3.58904">
        <ele>587</ele>
        <time>2022-10-29T12:03:56Z</time>
      </trkpt>
      <trkpt lat="44.34211" lon="3.58905">
        <ele>586.8</ele>
        <time>2022-10-29T12:03:57Z</time>
      </trkpt>
      <trkpt lat="44.34206" lon="3.58907">
        <ele>586.8</ele>
        <time>2022-10-29T12:03:58Z</time>
      </trkpt>
      <trkpt lat="44.34202" lon="3.58909">
        <ele>586.8</ele>
        <time>2022-10-29T12:03:59Z</time>
      </trkpt>
      <trkpt lat="44.34197" lon="3.58911">
        <ele>586.8</ele>
        <time>2022-10-29T12:04:00Z</time>
      </trkpt>
      <trkpt lat="44.34193" lon="3.58914">
        <ele>586.8</ele>
        <time>2022-10-29T12:04:01Z</time>
      </trkpt>
      <trkpt lat="44.34188" lon="3.58917">
        <ele>586.8</ele>
        <time>2022-10-29T12:04:02Z</time>
      </trkpt>
      <trkpt lat="44.34183" lon="3.5892">
        <ele>586.8</ele>
        <time>2022-10-29T12:04:03Z</time>
      </trkpt>
      <trkpt lat="44.34179" lon="3.58923">
        <ele>587</ele>
        <time>2022-10-29T12:04:04Z</time>
      </trkpt>
      <trkpt lat="44.34175" lon="3.58926">
        <ele>587</ele>
        <time>2022-10-29T12:04:05Z</time>
      </trkpt>
      <trkpt lat="44.34171" lon="3.58928">
        <ele>587.2</ele>
        <time>2022-10-29T12:04:06Z</time>
      </trkpt>
      <trkpt lat="44.34167" lon="3.58931">
        <ele>587.4</ele>
        <time>2022-10-29T12:04:07Z</time>
      </trkpt>
      <trkpt lat="44.34163" lon="3.58933">
        <ele>587.6</ele>
        <time>2022-10-29T12:04:08Z</time>
      </trkpt>
      <trkpt lat="44.34159" lon="3.58935">
        <ele>587.8</ele>
        <time>2022-10-29T12:04:09Z</time>
      </trkpt>
      <trkpt lat="44.34156" lon="3.58937">
        <ele>588</ele>
        <time>2022-10-29T12:04:10Z</time>
      </trkpt>
      <trkpt lat="44.34153" lon="3.5894">
        <ele>588.2</ele>
        <time>2022-10-29T12:04:11Z</time>
      </trkpt>
      <trkpt lat="44.34151" lon="3.58942">
        <ele>588.4</ele>
        <time>2022-10-29T12:04:12Z</time>
      </trkpt>
      <trkpt lat="44.34148" lon="3.58944">
        <ele>588.6</ele>
        <time>2022-10-29T12:04:13Z</time>
      </trkpt>
      <trkpt lat="44.34147" lon="3.58947">
        <ele>588.8</ele>
        <time>2022-10-29T12:04:14Z</time>
      </trkpt>
      <trkpt lat="44.34145" lon="3.58949">
        <ele>588.8</ele>
        <time>2022-10-29T12:04:15Z</time>
      </trkpt>
      <trkpt lat="44.34144" lon="3.58951">
        <ele>589</ele>
        <time>2022-10-29T12:04:16Z</time>
      </trkpt>
      <trkpt lat="44.34143" lon="3.58952">
        <ele>589.2</ele>
        <time>2022-10-29T12:04:17Z</time>
      </trkpt>
      <trkpt lat="44.34142" lon="3.58953">
        <ele>589.2</ele>
        <time>2022-10-29T12:04:18Z</time>
      </trkpt>
      <trkpt lat="44.34141" lon="3.58954">
        <ele>589.6</ele>
        <time>2022-10-29T12:04:36Z</time>
      </trkpt>
      <trkpt lat="44.34139" lon="3.58955">
        <ele>589.6</ele>
        <time>2022-10-29T12:04:37Z</time>
      </trkpt>
      <trkpt lat="44.34137" lon="3.58957">
        <ele>589.6</ele>
        <time>2022-10-29T12:04:38Z</time>
      </trkpt>
      <trkpt lat="44.34135" lon="3.58959">
        <ele>589.8</ele>
        <time>2022-10-29T12:04:39Z</time>
      </trkpt>
      <trkpt lat="44.34132" lon="3.5896">
        <ele>590</ele>
        <time>2022-10-29T12:04:40Z</time>
      </trkpt>
      <trkpt lat="44.3413" lon="3.58962">
        <ele>590</ele>
        <time>2022-10-29T12:04:41Z</time>
      </trkpt>
      <trkpt lat="44.34127" lon="3.58964">
        <ele>590.2</ele>
        <time>2022-10-29T12:04:42Z</time>
      </trkpt>
      <trkpt lat="44.34124" lon="3.58965">
        <ele>590.4</ele>
        <time>2022-10-29T12:04:43Z</time>
      </trkpt>
      <trkpt lat="44.34121" lon="3.58967">
        <ele>590.4</ele>
        <time>2022-10-29T12:04:44Z</time>
      </trkpt>
      <trkpt lat="44.34118" lon="3.58969">
        <ele>590.4</ele>
        <time>2022-10-29T12:04:45Z</time>
      </trkpt>
      <trkpt lat="44.34115" lon="3.5897">
        <ele>590.6</ele>
        <time>2022-10-29T12:04:46Z</time>
      </trkpt>
      <trkpt lat="44.34111" lon="3.58972">
        <ele>590.6</ele>
        <time>2022-10-29T12:04:47Z</time>
      </trkpt>
      <trkpt lat="44.34108" lon="3.58973">
        <ele>590.6</ele>
        <time>2022-10-29T12:04:48Z</time>
      </trkpt>
      <trkpt lat="44.34105" lon="3.58975">
        <ele>590.8</ele>
        <time>2022-10-29T12:04:49Z</time>
      </trkpt>
      <trkpt lat="44.34101" lon="3.58977">
        <ele>590.8</ele>
        <time>2022-10-29T12:04:50Z</time>
      </trkpt>
      <trkpt lat="44.34099" lon="3.58978">
        <ele>591</ele>
        <time>2022-10-29T12:04:51Z</time>
      </trkpt>
      <trkpt lat="44.34097" lon="3.5898">
        <ele>591.2</ele>
        <time>2022-10-29T12:04:52Z</time>
      </trkpt>
      <trkpt lat="44.34094" lon="3.58981">
        <ele>591.2</ele>
        <time>2022-10-29T12:04:53Z</time>
      </trkpt>
      <trkpt lat="44.34092" lon="3.58982">
        <ele>591.4</ele>
        <time>2022-10-29T12:04:54Z</time>
      </trkpt>
      <trkpt lat="44.34089" lon="3.58983">
        <ele>591.4</ele>
        <time>2022-10-29T12:04:55Z</time>
      </trkpt>
      <trkpt lat="44.34086" lon="3.58983">
        <ele>591.4</ele>
        <time>2022-10-29T12:04:56Z</time>
      </trkpt>
      <trkpt lat="44.34083" lon="3.58984">
        <ele>591.4</ele>
        <time>2022-10-29T12:04:57Z</time>
      </trkpt>
      <trkpt lat="44.34079" lon="3.58984">
        <ele>591.2</ele>
        <time>2022-10-29T12:04:58Z</time>
      </trkpt>
      <trkpt lat="44.34076" lon="3.58985">
        <ele>591.2</ele>
        <time>2022-10-29T12:04:59Z</time>
      </trkpt>
      <trkpt lat="44.34072" lon="3.58985">
        <ele>591</ele>
        <time>2022-10-29T12:05:00Z</time>
      </trkpt>
      <trkpt lat="44.34069" lon="3.58985">
        <ele>590.8</ele>
        <time>2022-10-29T12:05:01Z</time>
      </trkpt>
      <trkpt lat="44.34066" lon="3.58985">
        <ele>590.6</ele>
        <time>2022-10-29T12:05:02Z</time>
      </trkpt>
      <trkpt lat="44.34063" lon="3.58984">
        <ele>590.4</ele>
        <time>2022-10-29T12:05:03Z</time>
      </trkpt>
      <trkpt lat="44.34061" lon="3.58983">
        <ele>590.4</ele>
        <time>2022-10-29T12:05:04Z</time>
      </trkpt>
      <trkpt lat="44.34058" lon="3.58982">
        <ele>590.2</ele>
        <time>2022-10-29T12:05:05Z</time>
      </trkpt>
      <trkpt lat="44.34055" lon="3.58981">
        <ele>590</ele>
        <time>2022-10-29T12:05:06Z</time>
      </trkpt>
      <trkpt lat="44.34051" lon="3.58979">
        <ele>589.8</ele>
        <time>2022-10-29T12:05:07Z</time>
      </trkpt>
      <trkpt lat="44.34046" lon="3.58977">
        <ele>589.4</ele>
        <time>2022-10-29T12:05:08Z</time>
      </trkpt>
      <trkpt lat="44.34042" lon="3.58975">
        <ele>588.8</ele>
        <time>2022-10-29T12:05:09Z</time>
      </trkpt>
      <trkpt lat="44.34039" lon="3.58973">
        <ele>588.4</ele>
        <time>2022-10-29T12:05:10Z</time>
      </trkpt>
      <trkpt lat="44.34036" lon="3.58972">
        <ele>587.8</ele>
        <time>2022-10-29T12:05:11Z</time>
      </trkpt>
      <trkpt lat="44.34032" lon="3.5897">
        <ele>587.4</ele>
        <time>2022-10-29T12:05:12Z</time>
      </trkpt>
      <trkpt lat="44.34029" lon="3.58967">
        <ele>587</ele>
        <time>2022-10-29T12:05:13Z</time>
      </trkpt>
      <trkpt lat="44.34024" lon="3.58964">
        <ele>586.4</ele>
        <time>2022-10-29T12:05:14Z</time>
      </trkpt>
      <trkpt lat="44.3402" lon="3.5896">
        <ele>585.8</ele>
        <time>2022-10-29T12:05:15Z</time>
      </trkpt>
      <trkpt lat="44.34017" lon="3.58957">
        <ele>585.2</ele>
        <time>2022-10-29T12:05:16Z</time>
      </trkpt>
      <trkpt lat="44.34012" lon="3.58956">
        <ele>584.6</ele>
        <time>2022-10-29T12:05:17Z</time>
      </trkpt>
      <trkpt lat="44.34007" lon="3.58957">
        <ele>584.2</ele>
        <time>2022-10-29T12:05:18Z</time>
      </trkpt>
      <trkpt lat="44.34003" lon="3.58959">
        <ele>583.8</ele>
        <time>2022-10-29T12:05:19Z</time>
      </trkpt>
      <trkpt lat="44.34" lon="3.58963">
        <ele>583.6</ele>
        <time>2022-10-29T12:05:20Z</time>
      </trkpt>
      <trkpt lat="44.33997" lon="3.58967">
        <ele>583.4</ele>
        <time>2022-10-29T12:05:21Z</time>
      </trkpt>
      <trkpt lat="44.33994" lon="3.5897">
        <ele>583.2</ele>
        <time>2022-10-29T12:05:22Z</time>
      </trkpt>
      <trkpt lat="44.33991" lon="3.58974">
        <ele>583</ele>
        <time>2022-10-29T12:05:23Z</time>
      </trkpt>
      <trkpt lat="44.33989" lon="3.58978">
        <ele>582.8</ele>
        <time>2022-10-29T12:05:24Z</time>
      </trkpt>
      <trkpt lat="44.33987" lon="3.58983">
        <ele>582.6</ele>
        <time>2022-10-29T12:05:25Z</time>
      </trkpt>
      <trkpt lat="44.33986" lon="3.58987">
        <ele>582.4</ele>
        <time>2022-10-29T12:05:26Z</time>
      </trkpt>
      <trkpt lat="44.33985" lon="3.5899">
        <ele>582.2</ele>
        <time>2022-10-29T12:05:27Z</time>
      </trkpt>
      <trkpt lat="44.33985" lon="3.58991">
        <ele>582</ele>
        <time>2022-10-29T12:05:28Z</time>
      </trkpt>
      <trkpt lat="44.33985" lon="3.58991">
        <ele>582</ele>
        <time>2022-10-29T12:05:29Z</time>
      </trkpt>
      <trkpt lat="44.33985" lon="3.58991">
        <ele>581.8</ele>
        <time>2022-10-29T12:05:30Z</time>
      </trkpt>
      <trkpt lat="44.33985" lon="3.58991">
        <ele>581.8</ele>
        <time>2022-10-29T12:05:31Z</time>
      </trkpt>
      <trkpt lat="44.33985" lon="3.58991">
        <ele>581.8</ele>
        <time>2022-10-29T12:05:32Z</time>
      </trkpt>
      <trkpt lat="44.33985" lon="3.58991">
        <ele>581.6</ele>
        <time>2022-10-29T12:05:33Z</time>
      </trkpt>
      <trkpt lat="44.33985" lon="3.58991">
        <ele>581.6</ele>
        <time>2022-10-29T12:05:34Z</time>
      </trkpt>
      <trkpt lat="44.33984" lon="3.5899">
        <ele>581.6</ele>
        <time>2022-10-29T12:05:58Z</time>
      </trkpt>
      <trkpt lat="44.33984" lon="3.58988">
        <ele>581.6</ele>
        <time>2022-10-29T12:05:59Z</time>
      </trkpt>
      <trkpt lat="44.33983" lon="3.58985">
        <ele>581.6</ele>
        <time>2022-10-29T12:06:00Z</time>
      </trkpt>
      <trkpt lat="44.33985" lon="3.58981">
        <ele>581.8</ele>
        <time>2022-10-29T12:06:01Z</time>
      </trkpt>
      <trkpt lat="44.33987" lon="3.58979">
        <ele>581.8</ele>
        <time>2022-10-29T12:06:02Z</time>
      </trkpt>
      <trkpt lat="44.33989" lon="3.58976">
        <ele>581.8</ele>
        <time>2022-10-29T12:06:03Z</time>
      </trkpt>
      <trkpt lat="44.33991" lon="3.58973">
        <ele>582</ele>
        <time>2022-10-29T12:06:04Z</time>
      </trkpt>
      <trkpt lat="44.33993" lon="3.58971">
        <ele>582</ele>
        <time>2022-10-29T12:06:05Z</time>
      </trkpt>
      <trkpt lat="44.33996" lon="3.58968">
        <ele>582.2</ele>
        <time>2022-10-29T12:06:06Z</time>
      </trkpt>
      <trkpt lat="44.33998" lon="3.58966">
        <ele>582.2</ele>
        <time>2022-10-29T12:06:07Z</time>
      </trkpt>
      <trkpt lat="44.34" lon="3.58963">
        <ele>582.2</ele>
        <time>2022-10-29T12:06:08Z</time>
      </trkpt>
      <trkpt lat="44.34003" lon="3.5896">
        <ele>582.2</ele>
        <time>2022-10-29T12:06:09Z</time>
      </trkpt>
      <trkpt lat="44.34005" lon="3.58956">
        <ele>582.2</ele>
        <time>2022-10-29T12:06:10Z</time>
      </trkpt>
      <trkpt lat="44.34006" lon="3.58951">
        <ele>582</ele>
        <time>2022-10-29T12:06:11Z</time>
      </trkpt>
      <trkpt lat="44.34006" lon="3.58947">
        <ele>581.8</ele>
        <time>2022-10-29T12:06:12Z</time>
      </trkpt>
      <trkpt lat="44.34005" lon="3.58941">
        <ele>581.6</ele>
        <time>2022-10-29T12:06:13Z</time>
      </trkpt>
      <trkpt lat="44.34002" lon="3.58935">
        <ele>581.4</ele>
        <time>2022-10-29T12:06:14Z</time>
      </trkpt>
      <trkpt lat="44.33998" lon="3.58929">
        <ele>581</ele>
        <time>2022-10-29T12:06:15Z</time>
      </trkpt>
      <trkpt lat="44.33992" lon="3.58922">
        <ele>580.4</ele>
        <time>2022-10-29T12:06:16Z</time>
      </trkpt>
      <trkpt lat="44.33986" lon="3.58914">
        <ele>579.8</ele>
        <time>2022-10-29T12:06:17Z</time>
      </trkpt>
      <trkpt lat="44.33979" lon="3.58905">
        <ele>579.2</ele>
        <time>2022-10-29T12:06:18Z</time>
      </trkpt>
      <trkpt lat="44.33972" lon="3.58896">
        <ele>578.4</ele>
        <time>2022-10-29T12:06:19Z</time>
      </trkpt>
      <trkpt lat="44.33966" lon="3.58887">
        <ele>577.6</ele>
        <time>2022-10-29T12:06:20Z</time>
      </trkpt>
      <trkpt lat="44.33959" lon="3.58878">
        <ele>576.6</ele>
        <time>2022-10-29T12:06:21Z</time>
      </trkpt>
      <trkpt lat="44.33952" lon="3.58869">
        <ele>575.8</ele>
        <time>2022-10-29T12:06:22Z</time>
      </trkpt>
      <trkpt lat="44.33946" lon="3.58861">
        <ele>575</ele>
        <time>2022-10-29T12:06:23Z</time>
      </trkpt>
      <trkpt lat="44.3394" lon="3.58853">
        <ele>574.2</ele>
        <time>2022-10-29T12:06:24Z</time>
      </trkpt>
      <trkpt lat="44.33934" lon="3.58844">
        <ele>573.4</ele>
        <time>2022-10-29T12:06:25Z</time>
      </trkpt>
      <trkpt lat="44.33928" lon="3.58837">
        <ele>572.6</ele>
        <time>2022-10-29T12:06:26Z</time>
      </trkpt>
      <trkpt lat="44.33921" lon="3.5883">
        <ele>572</ele>
        <time>2022-10-29T12:06:27Z</time>
      </trkpt>
      <trkpt lat="44.33914" lon="3.58823">
        <ele>571.4</ele>
        <time>2022-10-29T12:06:28Z</time>
      </trkpt>
      <trkpt lat="44.33906" lon="3.58817">
        <ele>570.8</ele>
        <time>2022-10-29T12:06:29Z</time>
      </trkpt>
      <trkpt lat="44.33899" lon="3.58811">
        <ele>570</ele>
        <time>2022-10-29T12:06:30Z</time>
      </trkpt>
      <trkpt lat="44.3389" lon="3.58804">
        <ele>569.4</ele>
        <time>2022-10-29T12:06:31Z</time>
      </trkpt>
      <trkpt lat="44.33882" lon="3.58797">
        <ele>569</ele>
        <time>2022-10-29T12:06:32Z</time>
      </trkpt>
      <trkpt lat="44.33873" lon="3.5879">
        <ele>568.4</ele>
        <time>2022-10-29T12:06:33Z</time>
      </trkpt>
      <trkpt lat="44.33865" lon="3.58783">
        <ele>567.8</ele>
        <time>2022-10-29T12:06:34Z</time>
      </trkpt>
      <trkpt lat="44.33857" lon="3.58776">
        <ele>567.4</ele>
        <time>2022-10-29T12:06:35Z</time>
      </trkpt>
      <trkpt lat="44.33848" lon="3.58769">
        <ele>566.8</ele>
        <time>2022-10-29T12:06:36Z</time>
      </trkpt>
      <trkpt lat="44.3384" lon="3.58762">
        <ele>566.2</ele>
        <time>2022-10-29T12:06:37Z</time>
      </trkpt>
      <trkpt lat="44.33831" lon="3.58755">
        <ele>565.6</ele>
        <time>2022-10-29T12:06:38Z</time>
      </trkpt>
      <trkpt lat="44.33822" lon="3.58748">
        <ele>565</ele>
        <time>2022-10-29T12:06:39Z</time>
      </trkpt>
      <trkpt lat="44.33814" lon="3.58741">
        <ele>564.4</ele>
        <time>2022-10-29T12:06:40Z</time>
      </trkpt>
      <trkpt lat="44.33805" lon="3.58734">
        <ele>563.8</ele>
        <time>2022-10-29T12:06:41Z</time>
      </trkpt>
      <trkpt lat="44.33798" lon="3.58728">
        <ele>563</ele>
        <time>2022-10-29T12:06:42Z</time>
      </trkpt>
      <trkpt lat="44.33792" lon="3.58723">
        <ele>561.8</ele>
        <time>2022-10-29T12:06:43Z</time>
      </trkpt>
      <trkpt lat="44.33787" lon="3.58719">
        <ele>561</ele>
        <time>2022-10-29T12:06:44Z</time>
      </trkpt>
      <trkpt lat="44.33784" lon="3.58717">
        <ele>560.2</ele>
        <time>2022-10-29T12:06:45Z</time>
      </trkpt>
      <trkpt lat="44.3378" lon="3.58717">
        <ele>559.8</ele>
        <time>2022-10-29T12:06:46Z</time>
      </trkpt>
      <trkpt lat="44.33777" lon="3.58718">
        <ele>559.4</ele>
        <time>2022-10-29T12:06:47Z</time>
      </trkpt>
      <trkpt lat="44.33774" lon="3.58719">
        <ele>559</ele>
        <time>2022-10-29T12:06:48Z</time>
      </trkpt>
      <trkpt lat="44.3377" lon="3.58721">
        <ele>558.6</ele>
        <time>2022-10-29T12:06:49Z</time>
      </trkpt>
      <trkpt lat="44.33765" lon="3.58723">
        <ele>558.4</ele>
        <time>2022-10-29T12:06:50Z</time>
      </trkpt>
      <trkpt lat="44.3376" lon="3.58724">
        <ele>558.2</ele>
        <time>2022-10-29T12:06:51Z</time>
      </trkpt>
      <trkpt lat="44.33755" lon="3.58726">
        <ele>558</ele>
        <time>2022-10-29T12:06:52Z</time>
      </trkpt>
      <trkpt lat="44.33749" lon="3.58728">
        <ele>557.8</ele>
        <time>2022-10-29T12:06:53Z</time>
      </trkpt>
      <trkpt lat="44.33744" lon="3.58729">
        <ele>557.4</ele>
        <time>2022-10-29T12:06:54Z</time>
      </trkpt>
      <trkpt lat="44.33739" lon="3.58731">
        <ele>557.2</ele>
        <time>2022-10-29T12:06:55Z</time>
      </trkpt>
      <trkpt lat="44.33733" lon="3.58732">
        <ele>557.2</ele>
        <time>2022-10-29T12:06:56Z</time>
      </trkpt>
      <trkpt lat="44.33727" lon="3.58734">
        <ele>557</ele>
        <time>2022-10-29T12:06:57Z</time>
      </trkpt>
      <trkpt lat="44.33721" lon="3.58736">
        <ele>556.8</ele>
        <time>2022-10-29T12:06:58Z</time>
      </trkpt>
      <trkpt lat="44.33715" lon="3.58737">
        <ele>556.8</ele>
        <time>2022-10-29T12:06:59Z</time>
      </trkpt>
      <trkpt lat="44.33709" lon="3.58739">
        <ele>556.6</ele>
        <time>2022-10-29T12:07:00Z</time>
      </trkpt>
      <trkpt lat="44.33703" lon="3.5874">
        <ele>556.6</ele>
        <time>2022-10-29T12:07:01Z</time>
      </trkpt>
      <trkpt lat="44.33697" lon="3.58741">
        <ele>556.4</ele>
        <time>2022-10-29T12:07:02Z</time>
      </trkpt>
      <trkpt lat="44.33691" lon="3.58742">
        <ele>556.2</ele>
        <time>2022-10-29T12:07:03Z</time>
      </trkpt>
      <trkpt lat="44.33685" lon="3.58743">
        <ele>556</ele>
        <time>2022-10-29T12:07:04Z</time>
      </trkpt>
      <trkpt lat="44.33679" lon="3.58745">
        <ele>555.8</ele>
        <time>2022-10-29T12:07:05Z</time>
      </trkpt>
      <trkpt lat="44.33674" lon="3.58746">
        <ele>555.6</ele>
        <time>2022-10-29T12:07:06Z</time>
      </trkpt>
      <trkpt lat="44.33667" lon="3.58747">
        <ele>555.4</ele>
        <time>2022-10-29T12:07:07Z</time>
      </trkpt>
      <trkpt lat="44.33661" lon="3.58747">
        <ele>555</ele>
        <time>2022-10-29T12:07:08Z</time>
      </trkpt>
      <trkpt lat="44.33656" lon="3.58745">
        <ele>554.6</ele>
        <time>2022-10-29T12:07:09Z</time>
      </trkpt>
      <trkpt lat="44.33651" lon="3.58742">
        <ele>554.4</ele>
        <time>2022-10-29T12:07:10Z</time>
      </trkpt>
      <trkpt lat="44.33646" lon="3.58738">
        <ele>554.2</ele>
        <time>2022-10-29T12:07:11Z</time>
      </trkpt>
      <trkpt lat="44.33641" lon="3.58733">
        <ele>554</ele>
        <time>2022-10-29T12:07:12Z</time>
      </trkpt>
      <trkpt lat="44.33636" lon="3.58729">
        <ele>553.8</ele>
        <time>2022-10-29T12:07:13Z</time>
      </trkpt>
      <trkpt lat="44.33631" lon="3.58725">
        <ele>553.6</ele>
        <time>2022-10-29T12:07:14Z</time>
      </trkpt>
      <trkpt lat="44.33626" lon="3.5872">
        <ele>553.4</ele>
        <time>2022-10-29T12:07:15Z</time>
      </trkpt>
      <trkpt lat="44.33621" lon="3.58716">
        <ele>553.2</ele>
        <time>2022-10-29T12:07:16Z</time>
      </trkpt>
      <trkpt lat="44.33616" lon="3.58711">
        <ele>553</ele>
        <time>2022-10-29T12:07:17Z</time>
      </trkpt>
      <trkpt lat="44.33611" lon="3.58707">
        <ele>553</ele>
        <time>2022-10-29T12:07:18Z</time>
      </trkpt>
      <trkpt lat="44.33607" lon="3.58703">
        <ele>553</ele>
        <time>2022-10-29T12:07:19Z</time>
      </trkpt>
      <trkpt lat="44.33603" lon="3.58697">
        <ele>553.2</ele>
        <time>2022-10-29T12:07:20Z</time>
      </trkpt>
      <trkpt lat="44.336" lon="3.58691">
        <ele>553.2</ele>
        <time>2022-10-29T12:07:21Z</time>
      </trkpt>
      <trkpt lat="44.33598" lon="3.58684">
        <ele>553.4</ele>
        <time>2022-10-29T12:07:22Z</time>
      </trkpt>
      <trkpt lat="44.33598" lon="3.58678">
        <ele>553.6</ele>
        <time>2022-10-29T12:07:23Z</time>
      </trkpt>
      <trkpt lat="44.33598" lon="3.58672">
        <ele>553.8</ele>
        <time>2022-10-29T12:07:24Z</time>
      </trkpt>
      <trkpt lat="44.33599" lon="3.58666">
        <ele>554</ele>
        <time>2022-10-29T12:07:25Z</time>
      </trkpt>
      <trkpt lat="44.33599" lon="3.5866">
        <ele>554.2</ele>
        <time>2022-10-29T12:07:26Z</time>
      </trkpt>
      <trkpt lat="44.336" lon="3.58655">
        <ele>554.4</ele>
        <time>2022-10-29T12:07:27Z</time>
      </trkpt>
      <trkpt lat="44.33601" lon="3.58649">
        <ele>554.6</ele>
        <time>2022-10-29T12:07:28Z</time>
      </trkpt>
      <trkpt lat="44.33602" lon="3.58643">
        <ele>554.8</ele>
        <time>2022-10-29T12:07:29Z</time>
      </trkpt>
      <trkpt lat="44.33604" lon="3.58638">
        <ele>555</ele>
        <time>2022-10-29T12:07:30Z</time>
      </trkpt>
      <trkpt lat="44.33606" lon="3.58633">
        <ele>555.4</ele>
        <time>2022-10-29T12:07:31Z</time>
      </trkpt>
      <trkpt lat="44.33608" lon="3.58627">
        <ele>555.4</ele>
        <time>2022-10-29T12:07:32Z</time>
      </trkpt>
      <trkpt lat="44.33608" lon="3.58622">
        <ele>555.6</ele>
        <time>2022-10-29T12:07:33Z</time>
      </trkpt>
      <trkpt lat="44.33607" lon="3.58616">
        <ele>555.6</ele>
        <time>2022-10-29T12:07:34Z</time>
      </trkpt>
      <trkpt lat="44.33606" lon="3.58611">
        <ele>555.8</ele>
        <time>2022-10-29T12:07:35Z</time>
      </trkpt>
      <trkpt lat="44.33603" lon="3.58606">
        <ele>555.8</ele>
        <time>2022-10-29T12:07:36Z</time>
      </trkpt>
      <trkpt lat="44.33601" lon="3.58602">
        <ele>555.8</ele>
        <time>2022-10-29T12:07:37Z</time>
      </trkpt>
      <trkpt lat="44.33598" lon="3.58598">
        <ele>556</ele>
        <time>2022-10-29T12:07:38Z</time>
      </trkpt>
      <trkpt lat="44.33594" lon="3.58594">
        <ele>556</ele>
        <time>2022-10-29T12:07:39Z</time>
      </trkpt>
      <trkpt lat="44.3359" lon="3.58592">
        <ele>556</ele>
        <time>2022-10-29T12:07:40Z</time>
      </trkpt>
      <trkpt lat="44.33586" lon="3.58592">
        <ele>555.8</ele>
        <time>2022-10-29T12:07:41Z</time>
      </trkpt>
      <trkpt lat="44.33581" lon="3.58594">
        <ele>555.6</ele>
        <time>2022-10-29T12:07:42Z</time>
      </trkpt>
      <trkpt lat="44.33577" lon="3.58598">
        <ele>555.6</ele>
        <time>2022-10-29T12:07:43Z</time>
      </trkpt>
      <trkpt lat="44.33573" lon="3.58602">
        <ele>555.6</ele>
        <time>2022-10-29T12:07:44Z</time>
      </trkpt>
      <trkpt lat="44.33569" lon="3.58605">
        <ele>555.4</ele>
        <time>2022-10-29T12:07:45Z</time>
      </trkpt>
      <trkpt lat="44.33564" lon="3.58607">
        <ele>555.4</ele>
        <time>2022-10-29T12:07:46Z</time>
      </trkpt>
      <trkpt lat="44.3356" lon="3.58608">
        <ele>555.4</ele>
        <time>2022-10-29T12:07:47Z</time>
      </trkpt>
      <trkpt lat="44.33556" lon="3.58607">
        <ele>555.4</ele>
        <time>2022-10-29T12:07:48Z</time>
      </trkpt>
      <trkpt lat="44.33553" lon="3.58607">
        <ele>555.4</ele>
        <time>2022-10-29T12:07:49Z</time>
      </trkpt>
      <trkpt lat="44.33549" lon="3.58606">
        <ele>555.6</ele>
        <time>2022-10-29T12:07:50Z</time>
      </trkpt>
      <trkpt lat="44.33544" lon="3.58605">
        <ele>555.6</ele>
        <time>2022-10-29T12:07:51Z</time>
      </trkpt>
      <trkpt lat="44.3354" lon="3.58605">
        <ele>555.6</ele>
        <time>2022-10-29T12:07:52Z</time>
      </trkpt>
      <trkpt lat="44.33536" lon="3.58605">
        <ele>555.8</ele>
        <time>2022-10-29T12:07:53Z</time>
      </trkpt>
      <trkpt lat="44.33532" lon="3.58604">
        <ele>555.8</ele>
        <time>2022-10-29T12:07:54Z</time>
      </trkpt>
      <trkpt lat="44.33528" lon="3.58604">
        <ele>556</ele>
        <time>2022-10-29T12:07:55Z</time>
      </trkpt>
      <trkpt lat="44.33524" lon="3.58605">
        <ele>556</ele>
        <time>2022-10-29T12:07:56Z</time>
      </trkpt>
      <trkpt lat="44.3352" lon="3.58606">
        <ele>556.2</ele>
        <time>2022-10-29T12:07:57Z</time>
      </trkpt>
      <trkpt lat="44.33516" lon="3.58606">
        <ele>556.4</ele>
        <time>2022-10-29T12:07:58Z</time>
      </trkpt>
      <trkpt lat="44.33512" lon="3.58607">
        <ele>556.4</ele>
        <time>2022-10-29T12:07:59Z</time>
      </trkpt>
      <trkpt lat="44.33508" lon="3.58608">
        <ele>556.6</ele>
        <time>2022-10-29T12:08:00Z</time>
      </trkpt>
      <trkpt lat="44.33505" lon="3.58608">
        <ele>556.6</ele>
        <time>2022-10-29T12:08:01Z</time>
      </trkpt>
      <trkpt lat="44.335" lon="3.58609">
        <ele>556.8</ele>
        <time>2022-10-29T12:08:02Z</time>
      </trkpt>
      <trkpt lat="44.33496" lon="3.58609">
        <ele>556.8</ele>
        <time>2022-10-29T12:08:03Z</time>
      </trkpt>
      <trkpt lat="44.33491" lon="3.5861">
        <ele>556.8</ele>
        <time>2022-10-29T12:08:04Z</time>
      </trkpt>
      <trkpt lat="44.33487" lon="3.58611">
        <ele>556.8</ele>
        <time>2022-10-29T12:08:05Z</time>
      </trkpt>
      <trkpt lat="44.33483" lon="3.58612">
        <ele>557</ele>
        <time>2022-10-29T12:08:06Z</time>
      </trkpt>
      <trkpt lat="44.33478" lon="3.58613">
        <ele>557</ele>
        <time>2022-10-29T12:08:07Z</time>
      </trkpt>
      <trkpt lat="44.33473" lon="3.58614">
        <ele>557</ele>
        <time>2022-10-29T12:08:08Z</time>
      </trkpt>
      <trkpt lat="44.33469" lon="3.58615">
        <ele>557</ele>
        <time>2022-10-29T12:08:09Z</time>
      </trkpt>
      <trkpt lat="44.33464" lon="3.58617">
        <ele>557</ele>
        <time>2022-10-29T12:08:10Z</time>
      </trkpt>
      <trkpt lat="44.3346" lon="3.58618">
        <ele>557</ele>
        <time>2022-10-29T12:08:11Z</time>
      </trkpt>
      <trkpt lat="44.33455" lon="3.5862">
        <ele>557.2</ele>
        <time>2022-10-29T12:08:12Z</time>
      </trkpt>
      <trkpt lat="44.33451" lon="3.58622">
        <ele>557.2</ele>
        <time>2022-10-29T12:08:13Z</time>
      </trkpt>
      <trkpt lat="44.33447" lon="3.58624">
        <ele>557.2</ele>
        <time>2022-10-29T12:08:14Z</time>
      </trkpt>
      <trkpt lat="44.33443" lon="3.58626">
        <ele>557.2</ele>
        <time>2022-10-29T12:08:15Z</time>
      </trkpt>
      <trkpt lat="44.33439" lon="3.58628">
        <ele>557</ele>
        <time>2022-10-29T12:08:16Z</time>
      </trkpt>
      <trkpt lat="44.33435" lon="3.5863">
        <ele>557</ele>
        <time>2022-10-29T12:08:17Z</time>
      </trkpt>
      <trkpt lat="44.33432" lon="3.58632">
        <ele>557</ele>
        <time>2022-10-29T12:08:18Z</time>
      </trkpt>
      <trkpt lat="44.33428" lon="3.58634">
        <ele>557</ele>
        <time>2022-10-29T12:08:19Z</time>
      </trkpt>
      <trkpt lat="44.33424" lon="3.58636">
        <ele>557</ele>
        <time>2022-10-29T12:08:20Z</time>
      </trkpt>
      <trkpt lat="44.33421" lon="3.58638">
        <ele>556.8</ele>
        <time>2022-10-29T12:08:21Z</time>
      </trkpt>
      <trkpt lat="44.33418" lon="3.5864">
        <ele>556.8</ele>
        <time>2022-10-29T12:08:22Z</time>
      </trkpt>
      <trkpt lat="44.33415" lon="3.58641">
        <ele>556.8</ele>
        <time>2022-10-29T12:08:23Z</time>
      </trkpt>
      <trkpt lat="44.33413" lon="3.58642">
        <ele>556.8</ele>
        <time>2022-10-29T12:08:24Z</time>
      </trkpt>
      <trkpt lat="44.3341" lon="3.58643">
        <ele>556.8</ele>
        <time>2022-10-29T12:08:25Z</time>
      </trkpt>
      <trkpt lat="44.33408" lon="3.58645">
        <ele>556.8</ele>
        <time>2022-10-29T12:08:26Z</time>
      </trkpt>
      <trkpt lat="44.33406" lon="3.58647">
        <ele>557</ele>
        <time>2022-10-29T12:08:27Z</time>
      </trkpt>
      <trkpt lat="44.33403" lon="3.5865">
        <ele>557</ele>
        <time>2022-10-29T12:08:28Z</time>
      </trkpt>
      <trkpt lat="44.334" lon="3.58652">
        <ele>557</ele>
        <time>2022-10-29T12:08:29Z</time>
      </trkpt>
      <trkpt lat="44.33397" lon="3.58654">
        <ele>557.2</ele>
        <time>2022-10-29T12:08:30Z</time>
      </trkpt>
      <trkpt lat="44.33394" lon="3.58657">
        <ele>557.2</ele>
        <time>2022-10-29T12:08:31Z</time>
      </trkpt>
      <trkpt lat="44.3339" lon="3.5866">
        <ele>557.2</ele>
        <time>2022-10-29T12:08:32Z</time>
      </trkpt>
      <trkpt lat="44.33386" lon="3.58662">
        <ele>557.2</ele>
        <time>2022-10-29T12:08:33Z</time>
      </trkpt>
      <trkpt lat="44.33382" lon="3.58665">
        <ele>557.2</ele>
        <time>2022-10-29T12:08:34Z</time>
      </trkpt>
      <trkpt lat="44.33379" lon="3.58669">
        <ele>557.2</ele>
        <time>2022-10-29T12:08:35Z</time>
      </trkpt>
      <trkpt lat="44.33375" lon="3.58672">
        <ele>557.2</ele>
        <time>2022-10-29T12:08:36Z</time>
      </trkpt>
      <trkpt lat="44.33372" lon="3.58676">
        <ele>557.4</ele>
        <time>2022-10-29T12:08:37Z</time>
      </trkpt>
      <trkpt lat="44.33369" lon="3.5868">
        <ele>557.4</ele>
        <time>2022-10-29T12:08:38Z</time>
      </trkpt>
      <trkpt lat="44.33365" lon="3.58684">
        <ele>557.4</ele>
        <time>2022-10-29T12:08:39Z</time>
      </trkpt>
      <trkpt lat="44.33361" lon="3.58688">
        <ele>557.6</ele>
        <time>2022-10-29T12:08:40Z</time>
      </trkpt>
      <trkpt lat="44.33358" lon="3.58692">
        <ele>557.6</ele>
        <time>2022-10-29T12:08:41Z</time>
      </trkpt>
      <trkpt lat="44.33354" lon="3.58696">
        <ele>557.6</ele>
        <time>2022-10-29T12:08:42Z</time>
      </trkpt>
      <trkpt lat="44.3335" lon="3.587">
        <ele>557.6</ele>
        <time>2022-10-29T12:08:43Z</time>
      </trkpt>
      <trkpt lat="44.33346" lon="3.58704">
        <ele>557.6</ele>
        <time>2022-10-29T12:08:44Z</time>
      </trkpt>
      <trkpt lat="44.33343" lon="3.58709">
        <ele>557.6</ele>
        <time>2022-10-29T12:08:45Z</time>
      </trkpt>
      <trkpt lat="44.33339" lon="3.58713">
        <ele>557.6</ele>
        <time>2022-10-29T12:08:46Z</time>
      </trkpt>
      <trkpt lat="44.33336" lon="3.58718">
        <ele>557.6</ele>
        <time>2022-10-29T12:08:47Z</time>
      </trkpt>
      <trkpt lat="44.33333" lon="3.58723">
        <ele>557.6</ele>
        <time>2022-10-29T12:08:48Z</time>
      </trkpt>
      <trkpt lat="44.3333" lon="3.58728">
        <ele>557.6</ele>
        <time>2022-10-29T12:08:49Z</time>
      </trkpt>
      <trkpt lat="44.33326" lon="3.58733">
        <ele>557.6</ele>
        <time>2022-10-29T12:08:50Z</time>
      </trkpt>
      <trkpt lat="44.33323" lon="3.58738">
        <ele>557.8</ele>
        <time>2022-10-29T12:08:51Z</time>
      </trkpt>
      <trkpt lat="44.3332" lon="3.58743">
        <ele>557.8</ele>
        <time>2022-10-29T12:08:52Z</time>
      </trkpt>
      <trkpt lat="44.33317" lon="3.58748">
        <ele>558</ele>
        <time>2022-10-29T12:08:53Z</time>
      </trkpt>
      <trkpt lat="44.33314" lon="3.58753">
        <ele>558.2</ele>
        <time>2022-10-29T12:08:54Z</time>
      </trkpt>
      <trkpt lat="44.33312" lon="3.58758">
        <ele>558.2</ele>
        <time>2022-10-29T12:08:55Z</time>
      </trkpt>
      <trkpt lat="44.33309" lon="3.58764">
        <ele>558.2</ele>
        <time>2022-10-29T12:08:56Z</time>
      </trkpt>
      <trkpt lat="44.33306" lon="3.5877">
        <ele>558.2</ele>
        <time>2022-10-29T12:08:57Z</time>
      </trkpt>
      <trkpt lat="44.33303" lon="3.58776">
        <ele>558.2</ele>
        <time>2022-10-29T12:08:58Z</time>
      </trkpt>
      <trkpt lat="44.333" lon="3.58781">
        <ele>558.2</ele>
        <time>2022-10-29T12:08:59Z</time>
      </trkpt>
      <trkpt lat="44.33298" lon="3.58786">
        <ele>558.2</ele>
        <time>2022-10-29T12:09:00Z</time>
      </trkpt>
      <trkpt lat="44.33296" lon="3.58792">
        <ele>558</ele>
        <time>2022-10-29T12:09:01Z</time>
      </trkpt>
      <trkpt lat="44.33293" lon="3.58797">
        <ele>558</ele>
        <time>2022-10-29T12:09:02Z</time>
      </trkpt>
      <trkpt lat="44.33291" lon="3.58803">
        <ele>558</ele>
        <time>2022-10-29T12:09:03Z</time>
      </trkpt>
      <trkpt lat="44.33288" lon="3.58808">
        <ele>558</ele>
        <time>2022-10-29T12:09:04Z</time>
      </trkpt>
      <trkpt lat="44.33286" lon="3.58814">
        <ele>557.8</ele>
        <time>2022-10-29T12:09:05Z</time>
      </trkpt>
      <trkpt lat="44.33284" lon="3.58819">
        <ele>557.8</ele>
        <time>2022-10-29T12:09:06Z</time>
      </trkpt>
      <trkpt lat="44.33281" lon="3.58825">
        <ele>557.8</ele>
        <time>2022-10-29T12:09:07Z</time>
      </trkpt>
      <trkpt lat="44.33279" lon="3.58831">
        <ele>557.8</ele>
        <time>2022-10-29T12:09:08Z</time>
      </trkpt>
      <trkpt lat="44.33277" lon="3.58837">
        <ele>557.8</ele>
        <time>2022-10-29T12:09:09Z</time>
      </trkpt>
      <trkpt lat="44.33274" lon="3.58843">
        <ele>557.8</ele>
        <time>2022-10-29T12:09:10Z</time>
      </trkpt>
      <trkpt lat="44.33272" lon="3.58849">
        <ele>557.8</ele>
        <time>2022-10-29T12:09:11Z</time>
      </trkpt>
      <trkpt lat="44.33269" lon="3.58855">
        <ele>557.8</ele>
        <time>2022-10-29T12:09:12Z</time>
      </trkpt>
      <trkpt lat="44.33267" lon="3.58861">
        <ele>557.6</ele>
        <time>2022-10-29T12:09:13Z</time>
      </trkpt>
      <trkpt lat="44.33265" lon="3.58867">
        <ele>557.6</ele>
        <time>2022-10-29T12:09:14Z</time>
      </trkpt>
      <trkpt lat="44.33263" lon="3.58874">
        <ele>557.6</ele>
        <time>2022-10-29T12:09:15Z</time>
      </trkpt>
      <trkpt lat="44.3326" lon="3.5888">
        <ele>557.6</ele>
        <time>2022-10-29T12:09:16Z</time>
      </trkpt>
      <trkpt lat="44.33258" lon="3.58886">
        <ele>557.6</ele>
        <time>2022-10-29T12:09:17Z</time>
      </trkpt>
      <trkpt lat="44.33256" lon="3.58892">
        <ele>557.6</ele>
        <time>2022-10-29T12:09:18Z</time>
      </trkpt>
      <trkpt lat="44.33253" lon="3.58898">
        <ele>557.6</ele>
        <time>2022-10-29T12:09:19Z</time>
      </trkpt>
      <trkpt lat="44.33251" lon="3.58904">
        <ele>557.4</ele>
        <time>2022-10-29T12:09:20Z</time>
      </trkpt>
      <trkpt lat="44.33249" lon="3.58911">
        <ele>557.4</ele>
        <time>2022-10-29T12:09:21Z</time>
      </trkpt>
      <trkpt lat="44.33247" lon="3.58917">
        <ele>557.2</ele>
        <time>2022-10-29T12:09:22Z</time>
      </trkpt>
      <trkpt lat="44.33244" lon="3.58923">
        <ele>557.2</ele>
        <time>2022-10-29T12:09:23Z</time>
      </trkpt>
      <trkpt lat="44.33242" lon="3.5893">
        <ele>557.2</ele>
        <time>2022-10-29T12:09:24Z</time>
      </trkpt>
      <trkpt lat="44.3324" lon="3.58936">
        <ele>557.2</ele>
        <time>2022-10-29T12:09:25Z</time>
      </trkpt>
      <trkpt lat="44.33238" lon="3.58942">
        <ele>557.2</ele>
        <time>2022-10-29T12:09:26Z</time>
      </trkpt>
      <trkpt lat="44.33236" lon="3.58948">
        <ele>557.2</ele>
        <time>2022-10-29T12:09:27Z</time>
      </trkpt>
      <trkpt lat="44.33234" lon="3.58954">
        <ele>557.2</ele>
        <time>2022-10-29T12:09:28Z</time>
      </trkpt>
      <trkpt lat="44.33231" lon="3.5896">
        <ele>557.2</ele>
        <time>2022-10-29T12:09:29Z</time>
      </trkpt>
      <trkpt lat="44.33229" lon="3.58966">
        <ele>557.2</ele>
        <time>2022-10-29T12:09:30Z</time>
      </trkpt>
      <trkpt lat="44.33226" lon="3.58973">
        <ele>557.2</ele>
        <time>2022-10-29T12:09:31Z</time>
      </trkpt>
      <trkpt lat="44.33224" lon="3.58978">
        <ele>557.2</ele>
        <time>2022-10-29T12:09:32Z</time>
      </trkpt>
      <trkpt lat="44.33221" lon="3.58984">
        <ele>557.2</ele>
        <time>2022-10-29T12:09:33Z</time>
      </trkpt>
      <trkpt lat="44.33219" lon="3.5899">
        <ele>557.2</ele>
        <time>2022-10-29T12:09:34Z</time>
      </trkpt>
      <trkpt lat="44.33216" lon="3.58996">
        <ele>557.2</ele>
        <time>2022-10-29T12:09:35Z</time>
      </trkpt>
      <trkpt lat="44.33214" lon="3.59001">
        <ele>557.2</ele>
        <time>2022-10-29T12:09:36Z</time>
      </trkpt>
      <trkpt lat="44.33211" lon="3.59007">
        <ele>557.4</ele>
        <time>2022-10-29T12:09:37Z</time>
      </trkpt>
      <trkpt lat="44.33209" lon="3.59013">
        <ele>557.4</ele>
        <time>2022-10-29T12:09:38Z</time>
      </trkpt>
      <trkpt lat="44.33207" lon="3.59019">
        <ele>557.4</ele>
        <time>2022-10-29T12:09:39Z</time>
      </trkpt>
      <trkpt lat="44.33204" lon="3.59024">
        <ele>557.2</ele>
        <time>2022-10-29T12:09:40Z</time>
      </trkpt>
      <trkpt lat="44.33202" lon="3.5903">
        <ele>557.4</ele>
        <time>2022-10-29T12:09:41Z</time>
      </trkpt>
      <trkpt lat="44.332" lon="3.59035">
        <ele>557.4</ele>
        <time>2022-10-29T12:09:42Z</time>
      </trkpt>
      <trkpt lat="44.33198" lon="3.59041">
        <ele>557.2</ele>
        <time>2022-10-29T12:09:43Z</time>
      </trkpt>
      <trkpt lat="44.33195" lon="3.59046">
        <ele>557.2</ele>
        <time>2022-10-29T12:09:44Z</time>
      </trkpt>
      <trkpt lat="44.33193" lon="3.59052">
        <ele>557.2</ele>
        <time>2022-10-29T12:09:45Z</time>
      </trkpt>
      <trkpt lat="44.33191" lon="3.59057">
        <ele>557.2</ele>
        <time>2022-10-29T12:09:46Z</time>
      </trkpt>
      <trkpt lat="44.33189" lon="3.59062">
        <ele>557.2</ele>
        <time>2022-10-29T12:09:47Z</time>
      </trkpt>
      <trkpt lat="44.33186" lon="3.59068">
        <ele>557.2</ele>
        <time>2022-10-29T12:09:48Z</time>
      </trkpt>
      <trkpt lat="44.33183" lon="3.59074">
        <ele>557.2</ele>
        <time>2022-10-29T12:09:49Z</time>
      </trkpt>
      <trkpt lat="44.33181" lon="3.59079">
        <ele>557.2</ele>
        <time>2022-10-29T12:09:50Z</time>
      </trkpt>
      <trkpt lat="44.33178" lon="3.59084">
        <ele>557.2</ele>
        <time>2022-10-29T12:09:51Z</time>
      </trkpt>
      <trkpt lat="44.33176" lon="3.5909">
        <ele>557.2</ele>
        <time>2022-10-29T12:09:52Z</time>
      </trkpt>
      <trkpt lat="44.33173" lon="3.59095">
        <ele>557.2</ele>
        <time>2022-10-29T12:09:53Z</time>
      </trkpt>
      <trkpt lat="44.3317" lon="3.591">
        <ele>557.2</ele>
        <time>2022-10-29T12:09:54Z</time>
      </trkpt>
      <trkpt lat="44.33167" lon="3.59104">
        <ele>557.2</ele>
        <time>2022-10-29T12:09:55Z</time>
      </trkpt>
      <trkpt lat="44.33163" lon="3.59108">
        <ele>557.2</ele>
        <time>2022-10-29T12:09:56Z</time>
      </trkpt>
      <trkpt lat="44.33159" lon="3.59111">
        <ele>557.2</ele>
        <time>2022-10-29T12:09:57Z</time>
      </trkpt>
      <trkpt lat="44.33154" lon="3.59112">
        <ele>557.2</ele>
        <time>2022-10-29T12:09:58Z</time>
      </trkpt>
      <trkpt lat="44.3315" lon="3.59111">
        <ele>557.2</ele>
        <time>2022-10-29T12:09:59Z</time>
      </trkpt>
      <trkpt lat="44.33147" lon="3.59108">
        <ele>557.2</ele>
        <time>2022-10-29T12:10:00Z</time>
      </trkpt>
      <trkpt lat="44.33143" lon="3.59104">
        <ele>557</ele>
        <time>2022-10-29T12:10:01Z</time>
      </trkpt>
      <trkpt lat="44.33139" lon="3.591">
        <ele>557</ele>
        <time>2022-10-29T12:10:02Z</time>
      </trkpt>
      <trkpt lat="44.33136" lon="3.59096">
        <ele>557.2</ele>
        <time>2022-10-29T12:10:03Z</time>
      </trkpt>
      <trkpt lat="44.33133" lon="3.59091">
        <ele>557.2</ele>
        <time>2022-10-29T12:10:04Z</time>
      </trkpt>
      <trkpt lat="44.3313" lon="3.59086">
        <ele>557.4</ele>
        <time>2022-10-29T12:10:05Z</time>
      </trkpt>
      <trkpt lat="44.33127" lon="3.59082">
        <ele>557.2</ele>
        <time>2022-10-29T12:10:06Z</time>
      </trkpt>
      <trkpt lat="44.33124" lon="3.59077">
        <ele>557.4</ele>
        <time>2022-10-29T12:10:07Z</time>
      </trkpt>
      <trkpt lat="44.33121" lon="3.59073">
        <ele>557.4</ele>
        <time>2022-10-29T12:10:08Z</time>
      </trkpt>
      <trkpt lat="44.33118" lon="3.59068">
        <ele>557.2</ele>
        <time>2022-10-29T12:10:09Z</time>
      </trkpt>
      <trkpt lat="44.33114" lon="3.59064">
        <ele>557.2</ele>
        <time>2022-10-29T12:10:10Z</time>
      </trkpt>
      <trkpt lat="44.33111" lon="3.5906">
        <ele>557.2</ele>
        <time>2022-10-29T12:10:11Z</time>
      </trkpt>
      <trkpt lat="44.33107" lon="3.59057">
        <ele>557</ele>
        <time>2022-10-29T12:10:12Z</time>
      </trkpt>
      <trkpt lat="44.33102" lon="3.59054">
        <ele>557</ele>
        <time>2022-10-29T12:10:13Z</time>
      </trkpt>
      <trkpt lat="44.33097" lon="3.59052">
        <ele>557</ele>
        <time>2022-10-29T12:10:14Z</time>
      </trkpt>
      <trkpt lat="44.33092" lon="3.59051">
        <ele>556.8</ele>
        <time>2022-10-29T12:10:15Z</time>
      </trkpt>
      <trkpt lat="44.33087" lon="3.59049">
        <ele>556.6</ele>
        <time>2022-10-29T12:10:16Z</time>
      </trkpt>
      <trkpt lat="44.33082" lon="3.59048">
        <ele>556.4</ele>
        <time>2022-10-29T12:10:17Z</time>
      </trkpt>
      <trkpt lat="44.33077" lon="3.59048">
        <ele>556.4</ele>
        <time>2022-10-29T12:10:18Z</time>
      </trkpt>
      <trkpt lat="44.33071" lon="3.59049">
        <ele>556.2</ele>
        <time>2022-10-29T12:10:19Z</time>
      </trkpt>
      <trkpt lat="44.33065" lon="3.5905">
        <ele>556.2</ele>
        <time>2022-10-29T12:10:20Z</time>
      </trkpt>
      <trkpt lat="44.3306" lon="3.59052">
        <ele>556</ele>
        <time>2022-10-29T12:10:21Z</time>
      </trkpt>
      <trkpt lat="44.33055" lon="3.59055">
        <ele>555.8</ele>
        <time>2022-10-29T12:10:22Z</time>
      </trkpt>
      <trkpt lat="44.33049" lon="3.59058">
        <ele>555.6</ele>
        <time>2022-10-29T12:10:23Z</time>
      </trkpt>
      <trkpt lat="44.33045" lon="3.59062">
        <ele>555.4</ele>
        <time>2022-10-29T12:10:24Z</time>
      </trkpt>
      <trkpt lat="44.3304" lon="3.59066">
        <ele>555.2</ele>
        <time>2022-10-29T12:10:25Z</time>
      </trkpt>
      <trkpt lat="44.33034" lon="3.5907">
        <ele>555</ele>
        <time>2022-10-29T12:10:26Z</time>
      </trkpt>
      <trkpt lat="44.33029" lon="3.59074">
        <ele>554.8</ele>
        <time>2022-10-29T12:10:27Z</time>
      </trkpt>
      <trkpt lat="44.33024" lon="3.59078">
        <ele>554.4</ele>
        <time>2022-10-29T12:10:28Z</time>
      </trkpt>
      <trkpt lat="44.33018" lon="3.59082">
        <ele>554.2</ele>
        <time>2022-10-29T12:10:29Z</time>
      </trkpt>
      <trkpt lat="44.33013" lon="3.59085">
        <ele>554</ele>
        <time>2022-10-29T12:10:30Z</time>
      </trkpt>
      <trkpt lat="44.33007" lon="3.59089">
        <ele>554</ele>
        <time>2022-10-29T12:10:31Z</time>
      </trkpt>
      <trkpt lat="44.33002" lon="3.59093">
        <ele>553.8</ele>
        <time>2022-10-29T12:10:32Z</time>
      </trkpt>
      <trkpt lat="44.32997" lon="3.59096">
        <ele>553.8</ele>
        <time>2022-10-29T12:10:33Z</time>
      </trkpt>
      <trkpt lat="44.32992" lon="3.591">
        <ele>553.6</ele>
        <time>2022-10-29T12:10:34Z</time>
      </trkpt>
      <trkpt lat="44.32988" lon="3.59104">
        <ele>553.6</ele>
        <time>2022-10-29T12:10:35Z</time>
      </trkpt>
      <trkpt lat="44.32983" lon="3.59108">
        <ele>553.6</ele>
        <time>2022-10-29T12:10:36Z</time>
      </trkpt>
      <trkpt lat="44.32978" lon="3.59111">
        <ele>553.6</ele>
        <time>2022-10-29T12:10:37Z</time>
      </trkpt>
      <trkpt lat="44.32974" lon="3.59115">
        <ele>553.6</ele>
        <time>2022-10-29T12:10:38Z</time>
      </trkpt>
      <trkpt lat="44.32969" lon="3.59119">
        <ele>553.6</ele>
        <time>2022-10-29T12:10:39Z</time>
      </trkpt>
      <trkpt lat="44.32965" lon="3.59122">
        <ele>553.6</ele>
        <time>2022-10-29T12:10:40Z</time>
      </trkpt>
      <trkpt lat="44.32961" lon="3.59126">
        <ele>553.6</ele>
        <time>2022-10-29T12:10:41Z</time>
      </trkpt>
      <trkpt lat="44.32957" lon="3.59129">
        <ele>553.6</ele>
        <time>2022-10-29T12:10:42Z</time>
      </trkpt>
      <trkpt lat="44.32953" lon="3.59133">
        <ele>553.8</ele>
        <time>2022-10-29T12:10:43Z</time>
      </trkpt>
      <trkpt lat="44.32948" lon="3.59136">
        <ele>553.8</ele>
        <time>2022-10-29T12:10:44Z</time>
      </trkpt>
      <trkpt lat="44.32944" lon="3.59139">
        <ele>553.8</ele>
        <time>2022-10-29T12:10:45Z</time>
      </trkpt>
      <trkpt lat="44.3294" lon="3.59142">
        <ele>554</ele>
        <time>2022-10-29T12:10:46Z</time>
      </trkpt>
      <trkpt lat="44.32935" lon="3.59146">
        <ele>554</ele>
        <time>2022-10-29T12:10:47Z</time>
      </trkpt>
      <trkpt lat="44.3293" lon="3.59149">
        <ele>554</ele>
        <time>2022-10-29T12:10:48Z</time>
      </trkpt>
      <trkpt lat="44.32926" lon="3.59152">
        <ele>554</ele>
        <time>2022-10-29T12:10:49Z</time>
      </trkpt>
      <trkpt lat="44.32922" lon="3.59155">
        <ele>554</ele>
        <time>2022-10-29T12:10:50Z</time>
      </trkpt>
      <trkpt lat="44.32917" lon="3.59159">
        <ele>554</ele>
        <time>2022-10-29T12:10:51Z</time>
      </trkpt>
      <trkpt lat="44.32913" lon="3.59162">
        <ele>554</ele>
        <time>2022-10-29T12:10:52Z</time>
      </trkpt>
      <trkpt lat="44.32908" lon="3.59164">
        <ele>554.2</ele>
        <time>2022-10-29T12:10:53Z</time>
      </trkpt>
      <trkpt lat="44.32904" lon="3.59165">
        <ele>554.2</ele>
        <time>2022-10-29T12:10:54Z</time>
      </trkpt>
      <trkpt lat="44.32899" lon="3.59165">
        <ele>554</ele>
        <time>2022-10-29T12:10:55Z</time>
      </trkpt>
      <trkpt lat="44.32894" lon="3.59164">
        <ele>554</ele>
        <time>2022-10-29T12:10:56Z</time>
      </trkpt>
      <trkpt lat="44.3289" lon="3.59162">
        <ele>554</ele>
        <time>2022-10-29T12:10:57Z</time>
      </trkpt>
      <trkpt lat="44.32886" lon="3.5916">
        <ele>554</ele>
        <time>2022-10-29T12:10:58Z</time>
      </trkpt>
      <trkpt lat="44.32882" lon="3.5916">
        <ele>554</ele>
        <time>2022-10-29T12:10:59Z</time>
      </trkpt>
      <trkpt lat="44.32878" lon="3.59162">
        <ele>553.8</ele>
        <time>2022-10-29T12:11:00Z</time>
      </trkpt>
      <trkpt lat="44.32875" lon="3.59166">
        <ele>553.8</ele>
        <time>2022-10-29T12:11:01Z</time>
      </trkpt>
      <trkpt lat="44.32873" lon="3.59171">
        <ele>553.8</ele>
        <time>2022-10-29T12:11:02Z</time>
      </trkpt>
      <trkpt lat="44.32872" lon="3.59178">
        <ele>553.8</ele>
        <time>2022-10-29T12:11:03Z</time>
      </trkpt>
      <trkpt lat="44.32872" lon="3.59184">
        <ele>553.8</ele>
        <time>2022-10-29T12:11:04Z</time>
      </trkpt>
      <trkpt lat="44.32871" lon="3.59191">
        <ele>553.8</ele>
        <time>2022-10-29T12:11:05Z</time>
      </trkpt>
      <trkpt lat="44.32868" lon="3.59196">
        <ele>554</ele>
        <time>2022-10-29T12:11:06Z</time>
      </trkpt>
      <trkpt lat="44.32865" lon="3.592">
        <ele>554</ele>
        <time>2022-10-29T12:11:07Z</time>
      </trkpt>
      <trkpt lat="44.32862" lon="3.59204">
        <ele>554</ele>
        <time>2022-10-29T12:11:08Z</time>
      </trkpt>
      <trkpt lat="44.32858" lon="3.59207">
        <ele>554.2</ele>
        <time>2022-10-29T12:11:09Z</time>
      </trkpt>
      <trkpt lat="44.32853" lon="3.59209">
        <ele>554.2</ele>
        <time>2022-10-29T12:11:10Z</time>
      </trkpt>
      <trkpt lat="44.32849" lon="3.59212">
        <ele>554.2</ele>
        <time>2022-10-29T12:11:11Z</time>
      </trkpt>
      <trkpt lat="44.32845" lon="3.59216">
        <ele>554.2</ele>
        <time>2022-10-29T12:11:12Z</time>
      </trkpt>
      <trkpt lat="44.32841" lon="3.59219">
        <ele>554.2</ele>
        <time>2022-10-29T12:11:13Z</time>
      </trkpt>
      <trkpt lat="44.32837" lon="3.59222">
        <ele>554.4</ele>
        <time>2022-10-29T12:11:14Z</time>
      </trkpt>
      <trkpt lat="44.32833" lon="3.59226">
        <ele>554.4</ele>
        <time>2022-10-29T12:11:15Z</time>
      </trkpt>
      <trkpt lat="44.32829" lon="3.59229">
        <ele>554.4</ele>
        <time>2022-10-29T12:11:16Z</time>
      </trkpt>
      <trkpt lat="44.32825" lon="3.59233">
        <ele>554.6</ele>
        <time>2022-10-29T12:11:17Z</time>
      </trkpt>
      <trkpt lat="44.32821" lon="3.59237">
        <ele>554.6</ele>
        <time>2022-10-29T12:11:18Z</time>
      </trkpt>
      <trkpt lat="44.32816" lon="3.5924">
        <ele>554.6</ele>
        <time>2022-10-29T12:11:19Z</time>
      </trkpt>
      <trkpt lat="44.32812" lon="3.59244">
        <ele>554.8</ele>
        <time>2022-10-29T12:11:20Z</time>
      </trkpt>
      <trkpt lat="44.32808" lon="3.59247">
        <ele>554.8</ele>
        <time>2022-10-29T12:11:21Z</time>
      </trkpt>
      <trkpt lat="44.32804" lon="3.59251">
        <ele>554.8</ele>
        <time>2022-10-29T12:11:22Z</time>
      </trkpt>
      <trkpt lat="44.328" lon="3.59254">
        <ele>554.8</ele>
        <time>2022-10-29T12:11:23Z</time>
      </trkpt>
      <trkpt lat="44.32796" lon="3.59257">
        <ele>555</ele>
        <time>2022-10-29T12:11:24Z</time>
      </trkpt>
      <trkpt lat="44.32791" lon="3.5926">
        <ele>555</ele>
        <time>2022-10-29T12:11:25Z</time>
      </trkpt>
      <trkpt lat="44.32787" lon="3.59263">
        <ele>555</ele>
        <time>2022-10-29T12:11:26Z</time>
      </trkpt>
      <trkpt lat="44.32783" lon="3.59267">
        <ele>555</ele>
        <time>2022-10-29T12:11:27Z</time>
      </trkpt>
      <trkpt lat="44.32779" lon="3.5927">
        <ele>555.2</ele>
        <time>2022-10-29T12:11:28Z</time>
      </trkpt>
      <trkpt lat="44.32775" lon="3.59273">
        <ele>555.4</ele>
        <time>2022-10-29T12:11:29Z</time>
      </trkpt>
      <trkpt lat="44.3277" lon="3.59276">
        <ele>555.4</ele>
        <time>2022-10-29T12:11:30Z</time>
      </trkpt>
      <trkpt lat="44.32766" lon="3.59279">
        <ele>555.2</ele>
        <time>2022-10-29T12:11:31Z</time>
      </trkpt>
      <trkpt lat="44.32762" lon="3.59282">
        <ele>555.2</ele>
        <time>2022-10-29T12:11:32Z</time>
      </trkpt>
      <trkpt lat="44.32758" lon="3.59285">
        <ele>555.2</ele>
        <time>2022-10-29T12:11:33Z</time>
      </trkpt>
      <trkpt lat="44.32754" lon="3.59288">
        <ele>555.4</ele>
        <time>2022-10-29T12:11:34Z</time>
      </trkpt>
      <trkpt lat="44.3275" lon="3.59291">
        <ele>555.4</ele>
        <time>2022-10-29T12:11:35Z</time>
      </trkpt>
      <trkpt lat="44.32746" lon="3.59294">
        <ele>555.2</ele>
        <time>2022-10-29T12:11:36Z</time>
      </trkpt>
      <trkpt lat="44.32743" lon="3.59297">
        <ele>555.2</ele>
        <time>2022-10-29T12:11:37Z</time>
      </trkpt>
      <trkpt lat="44.32739" lon="3.593">
        <ele>555.2</ele>
        <time>2022-10-29T12:11:38Z</time>
      </trkpt>
      <trkpt lat="44.32735" lon="3.59303">
        <ele>555.2</ele>
        <time>2022-10-29T12:11:39Z</time>
      </trkpt>
      <trkpt lat="44.32731" lon="3.59306">
        <ele>555.2</ele>
        <time>2022-10-29T12:11:40Z</time>
      </trkpt>
      <trkpt lat="44.32727" lon="3.5931">
        <ele>555.2</ele>
        <time>2022-10-29T12:11:41Z</time>
      </trkpt>
      <trkpt lat="44.32724" lon="3.59313">
        <ele>555.2</ele>
        <time>2022-10-29T12:11:42Z</time>
      </trkpt>
      <trkpt lat="44.3272" lon="3.59316">
        <ele>555.2</ele>
        <time>2022-10-29T12:11:43Z</time>
      </trkpt>
      <trkpt lat="44.32716" lon="3.59319">
        <ele>555.2</ele>
        <time>2022-10-29T12:11:44Z</time>
      </trkpt>
      <trkpt lat="44.32712" lon="3.59322">
        <ele>555.2</ele>
        <time>2022-10-29T12:11:45Z</time>
      </trkpt>
      <trkpt lat="44.32708" lon="3.59325">
        <ele>555.2</ele>
        <time>2022-10-29T12:11:46Z</time>
      </trkpt>
      <trkpt lat="44.32704" lon="3.59328">
        <ele>555.2</ele>
        <time>2022-10-29T12:11:47Z</time>
      </trkpt>
      <trkpt lat="44.327" lon="3.59331">
        <ele>555.2</ele>
        <time>2022-10-29T12:11:48Z</time>
      </trkpt>
      <trkpt lat="44.32696" lon="3.59334">
        <ele>555.2</ele>
        <time>2022-10-29T12:11:49Z</time>
      </trkpt>
      <trkpt lat="44.32692" lon="3.59337">
        <ele>555.2</ele>
        <time>2022-10-29T12:11:50Z</time>
      </trkpt>
      <trkpt lat="44.32688" lon="3.5934">
        <ele>555.2</ele>
        <time>2022-10-29T12:11:51Z</time>
      </trkpt>
      <trkpt lat="44.32685" lon="3.59343">
        <ele>555.2</ele>
        <time>2022-10-29T12:11:52Z</time>
      </trkpt>
      <trkpt lat="44.3268" lon="3.59346">
        <ele>555.2</ele>
        <time>2022-10-29T12:11:53Z</time>
      </trkpt>
      <trkpt lat="44.32676" lon="3.59349">
        <ele>555.4</ele>
        <time>2022-10-29T12:11:54Z</time>
      </trkpt>
      <trkpt lat="44.32672" lon="3.59352">
        <ele>555.4</ele>
        <time>2022-10-29T12:11:55Z</time>
      </trkpt>
      <trkpt lat="44.32668" lon="3.59355">
        <ele>555.4</ele>
        <time>2022-10-29T12:11:56Z</time>
      </trkpt>
      <trkpt lat="44.32665" lon="3.59358">
        <ele>555.2</ele>
        <time>2022-10-29T12:11:57Z</time>
      </trkpt>
      <trkpt lat="44.32661" lon="3.59361">
        <ele>555.2</ele>
        <time>2022-10-29T12:11:58Z</time>
      </trkpt>
      <trkpt lat="44.32657" lon="3.59364">
        <ele>555.2</ele>
        <time>2022-10-29T12:11:59Z</time>
      </trkpt>
      <trkpt lat="44.32653" lon="3.59367">
        <ele>555.2</ele>
        <time>2022-10-29T12:12:00Z</time>
      </trkpt>
      <trkpt lat="44.3265" lon="3.5937">
        <ele>555.2</ele>
        <time>2022-10-29T12:12:01Z</time>
      </trkpt>
      <trkpt lat="44.32646" lon="3.59373">
        <ele>555.2</ele>
        <time>2022-10-29T12:12:02Z</time>
      </trkpt>
      <trkpt lat="44.32641" lon="3.59376">
        <ele>555.2</ele>
        <time>2022-10-29T12:12:03Z</time>
      </trkpt>
      <trkpt lat="44.32637" lon="3.59379">
        <ele>555.4</ele>
        <time>2022-10-29T12:12:04Z</time>
      </trkpt>
      <trkpt lat="44.32634" lon="3.59382">
        <ele>555.4</ele>
        <time>2022-10-29T12:12:05Z</time>
      </trkpt>
      <trkpt lat="44.3263" lon="3.59385">
        <ele>555.4</ele>
        <time>2022-10-29T12:12:06Z</time>
      </trkpt>
      <trkpt lat="44.32626" lon="3.59388">
        <ele>555.4</ele>
        <time>2022-10-29T12:12:07Z</time>
      </trkpt>
      <trkpt lat="44.32621" lon="3.59391">
        <ele>555.4</ele>
        <time>2022-10-29T12:12:08Z</time>
      </trkpt>
      <trkpt lat="44.32618" lon="3.59394">
        <ele>555.2</ele>
        <time>2022-10-29T12:12:09Z</time>
      </trkpt>
      <trkpt lat="44.32614" lon="3.59397">
        <ele>555.2</ele>
        <time>2022-10-29T12:12:10Z</time>
      </trkpt>
      <trkpt lat="44.32611" lon="3.594">
        <ele>555.2</ele>
        <time>2022-10-29T12:12:11Z</time>
      </trkpt>
      <trkpt lat="44.32607" lon="3.59403">
        <ele>555.2</ele>
        <time>2022-10-29T12:12:12Z</time>
      </trkpt>
      <trkpt lat="44.32604" lon="3.59406">
        <ele>555.2</ele>
        <time>2022-10-29T12:12:13Z</time>
      </trkpt>
      <trkpt lat="44.32601" lon="3.59409">
        <ele>555.2</ele>
        <time>2022-10-29T12:12:14Z</time>
      </trkpt>
      <trkpt lat="44.32598" lon="3.59411">
        <ele>555.2</ele>
        <time>2022-10-29T12:12:15Z</time>
      </trkpt>
      <trkpt lat="44.32595" lon="3.59414">
        <ele>555.2</ele>
        <time>2022-10-29T12:12:16Z</time>
      </trkpt>
      <trkpt lat="44.32592" lon="3.59417">
        <ele>555.2</ele>
        <time>2022-10-29T12:12:17Z</time>
      </trkpt>
      <trkpt lat="44.32589" lon="3.59419">
        <ele>555.2</ele>
        <time>2022-10-29T12:12:18Z</time>
      </trkpt>
      <trkpt lat="44.32586" lon="3.59422">
        <ele>555.2</ele>
        <time>2022-10-29T12:12:19Z</time>
      </trkpt>
      <trkpt lat="44.32583" lon="3.59424">
        <ele>555.2</ele>
        <time>2022-10-29T12:12:20Z</time>
      </trkpt>
      <trkpt lat="44.32581" lon="3.59426">
        <ele>555.2</ele>
        <time>2022-10-29T12:12:21Z</time>
      </trkpt>
      <trkpt lat="44.32578" lon="3.59428">
        <ele>555.4</ele>
        <time>2022-10-29T12:12:22Z</time>
      </trkpt>
      <trkpt lat="44.32574" lon="3.59429">
        <ele>555.4</ele>
        <time>2022-10-29T12:12:23Z</time>
      </trkpt>
      <trkpt lat="44.32572" lon="3.59431">
        <ele>555.2</ele>
        <time>2022-10-29T12:12:24Z</time>
      </trkpt>
      <trkpt lat="44.32569" lon="3.59431">
        <ele>555.4</ele>
        <time>2022-10-29T12:12:25Z</time>
      </trkpt>
      <trkpt lat="44.32568" lon="3.5943">
        <ele>555.4</ele>
        <time>2022-10-29T12:12:26Z</time>
      </trkpt>
      <trkpt lat="44.32567" lon="3.59428">
        <ele>555.4</ele>
        <time>2022-10-29T12:12:27Z</time>
      </trkpt>
      <trkpt lat="44.32567" lon="3.59425">
        <ele>555.4</ele>
        <time>2022-10-29T12:12:28Z</time>
      </trkpt>
      <trkpt lat="44.32567" lon="3.59421">
        <ele>555.4</ele>
        <time>2022-10-29T12:12:29Z</time>
      </trkpt>
      <trkpt lat="44.32567" lon="3.59418">
        <ele>555.4</ele>
        <time>2022-10-29T12:12:30Z</time>
      </trkpt>
      <trkpt lat="44.32567" lon="3.59415">
        <ele>555.4</ele>
        <time>2022-10-29T12:12:31Z</time>
      </trkpt>
      <trkpt lat="44.32567" lon="3.59412">
        <ele>555.6</ele>
        <time>2022-10-29T12:12:32Z</time>
      </trkpt>
      <trkpt lat="44.32567" lon="3.59409">
        <ele>555.6</ele>
        <time>2022-10-29T12:12:33Z</time>
      </trkpt>
      <trkpt lat="44.32565" lon="3.59408">
        <ele>555.6</ele>
        <time>2022-10-29T12:12:34Z</time>
      </trkpt>
      <trkpt lat="44.32564" lon="3.59406">
        <ele>555.6</ele>
        <time>2022-10-29T12:12:35Z</time>
      </trkpt>
      <trkpt lat="44.32563" lon="3.59405">
        <ele>555.6</ele>
        <time>2022-10-29T12:12:36Z</time>
      </trkpt>
      <trkpt lat="44.32562" lon="3.59403">
        <ele>555.6</ele>
        <time>2022-10-29T12:12:37Z</time>
      </trkpt>
      <trkpt lat="44.32562" lon="3.59402">
        <ele>555.6</ele>
        <time>2022-10-29T12:12:38Z</time>
      </trkpt>
      <trkpt lat="44.32561" lon="3.594">
        <ele>555.8</ele>
        <time>2022-10-29T12:12:39Z</time>
      </trkpt>
      <trkpt lat="44.32561" lon="3.59398">
        <ele>555.8</ele>
        <time>2022-10-29T12:12:40Z</time>
      </trkpt>
      <trkpt lat="44.32559" lon="3.59396">
        <ele>555.8</ele>
        <time>2022-10-29T12:12:41Z</time>
      </trkpt>
      <trkpt lat="44.32558" lon="3.59393">
        <ele>556</ele>
        <time>2022-10-29T12:12:42Z</time>
      </trkpt>
      <trkpt lat="44.32557" lon="3.59391">
        <ele>556.2</ele>
        <time>2022-10-29T12:12:43Z</time>
      </trkpt>
      <trkpt lat="44.32555" lon="3.59389">
        <ele>556.2</ele>
        <time>2022-10-29T12:12:44Z</time>
      </trkpt>
      <trkpt lat="44.32554" lon="3.59386">
        <ele>556.4</ele>
        <time>2022-10-29T12:12:45Z</time>
      </trkpt>
      <trkpt lat="44.32553" lon="3.59384">
        <ele>556.4</ele>
        <time>2022-10-29T12:12:46Z</time>
      </trkpt>
      <trkpt lat="44.32551" lon="3.59382">
        <ele>556.4</ele>
        <time>2022-10-29T12:12:47Z</time>
      </trkpt>
      <trkpt lat="44.32549" lon="3.59379">
        <ele>556.4</ele>
        <time>2022-10-29T12:12:48Z</time>
      </trkpt>
      <trkpt lat="44.32548" lon="3.59377">
        <ele>556.6</ele>
        <time>2022-10-29T12:12:49Z</time>
      </trkpt>
      <trkpt lat="44.32546" lon="3.59375">
        <ele>556.6</ele>
        <time>2022-10-29T12:12:50Z</time>
      </trkpt>
      <trkpt lat="44.32545" lon="3.59373">
        <ele>556.8</ele>
        <time>2022-10-29T12:12:51Z</time>
      </trkpt>
      <trkpt lat="44.32543" lon="3.5937">
        <ele>556.8</ele>
        <time>2022-10-29T12:12:52Z</time>
      </trkpt>
      <trkpt lat="44.32542" lon="3.59368">
        <ele>557</ele>
        <time>2022-10-29T12:12:53Z</time>
      </trkpt>
      <trkpt lat="44.3254" lon="3.59366">
        <ele>557.2</ele>
        <time>2022-10-29T12:12:54Z</time>
      </trkpt>
      <trkpt lat="44.32538" lon="3.59363">
        <ele>557.2</ele>
        <time>2022-10-29T12:12:55Z</time>
      </trkpt>
      <trkpt lat="44.32538" lon="3.59361">
        <ele>557.4</ele>
        <time>2022-10-29T12:12:56Z</time>
      </trkpt>
      <trkpt lat="44.32537" lon="3.59359">
        <ele>557.6</ele>
        <time>2022-10-29T12:12:57Z</time>
      </trkpt>
      <trkpt lat="44.32536" lon="3.59358">
        <ele>557.6</ele>
        <time>2022-10-29T12:12:58Z</time>
      </trkpt>
      <trkpt lat="44.32535" lon="3.59356">
        <ele>557.8</ele>
        <time>2022-10-29T12:12:59Z</time>
      </trkpt>
      <trkpt lat="44.32534" lon="3.59353">
        <ele>557.8</ele>
        <time>2022-10-29T12:13:00Z</time>
      </trkpt>
      <trkpt lat="44.32534" lon="3.59351">
        <ele>557.8</ele>
        <time>2022-10-29T12:13:01Z</time>
      </trkpt>
      <trkpt lat="44.32534" lon="3.59348">
        <ele>558</ele>
        <time>2022-10-29T12:13:02Z</time>
      </trkpt>
      <trkpt lat="44.32535" lon="3.59344">
        <ele>558</ele>
        <time>2022-10-29T12:13:03Z</time>
      </trkpt>
      <trkpt lat="44.32536" lon="3.59341">
        <ele>558.2</ele>
        <time>2022-10-29T12:13:04Z</time>
      </trkpt>
      <trkpt lat="44.32537" lon="3.59338">
        <ele>558.2</ele>
        <time>2022-10-29T12:13:05Z</time>
      </trkpt>
      <trkpt lat="44.32539" lon="3.59335">
        <ele>558.2</ele>
        <time>2022-10-29T12:13:06Z</time>
      </trkpt>
      <trkpt lat="44.32541" lon="3.59333">
        <ele>558.4</ele>
        <time>2022-10-29T12:13:07Z</time>
      </trkpt>
      <trkpt lat="44.32542" lon="3.59331">
        <ele>558.4</ele>
        <time>2022-10-29T12:13:08Z</time>
      </trkpt>
      <trkpt lat="44.32544" lon="3.59329">
        <ele>558.4</ele>
        <time>2022-10-29T12:13:09Z</time>
      </trkpt>
      <trkpt lat="44.32546" lon="3.59327">
        <ele>558.4</ele>
        <time>2022-10-29T12:13:10Z</time>
      </trkpt>
      <trkpt lat="44.32548" lon="3.59324">
        <ele>558.6</ele>
        <time>2022-10-29T12:13:11Z</time>
      </trkpt>
      <trkpt lat="44.32549" lon="3.59321">
        <ele>558.6</ele>
        <time>2022-10-29T12:13:12Z</time>
      </trkpt>
      <trkpt lat="44.3255" lon="3.59317">
        <ele>558.6</ele>
        <time>2022-10-29T12:13:13Z</time>
      </trkpt>
      <trkpt lat="44.3255" lon="3.59314">
        <ele>558.6</ele>
        <time>2022-10-29T12:13:14Z</time>
      </trkpt>
      <trkpt lat="44.3255" lon="3.59311">
        <ele>558.8</ele>
        <time>2022-10-29T12:13:15Z</time>
      </trkpt>
      <trkpt lat="44.32549" lon="3.59308">
        <ele>558.8</ele>
        <time>2022-10-29T12:13:16Z</time>
      </trkpt>
      <trkpt lat="44.32547" lon="3.59307">
        <ele>558.8</ele>
        <time>2022-10-29T12:13:17Z</time>
      </trkpt>
      <trkpt lat="44.32546" lon="3.59307">
        <ele>559</ele>
        <time>2022-10-29T12:13:18Z</time>
      </trkpt>
      <trkpt lat="44.32544" lon="3.59309">
        <ele>559</ele>
        <time>2022-10-29T12:13:19Z</time>
      </trkpt>
      <trkpt lat="44.32542" lon="3.5931">
        <ele>559</ele>
        <time>2022-10-29T12:13:20Z</time>
      </trkpt>
      <trkpt lat="44.32541" lon="3.59312">
        <ele>559</ele>
        <time>2022-10-29T12:13:21Z</time>
      </trkpt>
      <trkpt lat="44.32541" lon="3.59314">
        <ele>559</ele>
        <time>2022-10-29T12:13:22Z</time>
      </trkpt>
      <trkpt lat="44.3254" lon="3.59316">
        <ele>559</ele>
        <time>2022-10-29T12:13:23Z</time>
      </trkpt>
      <trkpt lat="44.32538" lon="3.59318">
        <ele>558.8</ele>
        <time>2022-10-29T12:13:24Z</time>
      </trkpt>
      <trkpt lat="44.32537" lon="3.59321">
        <ele>558.8</ele>
        <time>2022-10-29T12:13:25Z</time>
      </trkpt>
      <trkpt lat="44.32535" lon="3.59324">
        <ele>558.8</ele>
        <time>2022-10-29T12:13:26Z</time>
      </trkpt>
      <trkpt lat="44.32533" lon="3.59327">
        <ele>558.8</ele>
        <time>2022-10-29T12:13:27Z</time>
      </trkpt>
      <trkpt lat="44.32531" lon="3.5933">
        <ele>558.8</ele>
        <time>2022-10-29T12:13:28Z</time>
      </trkpt>
      <trkpt lat="44.32529" lon="3.59332">
        <ele>558.8</ele>
        <time>2022-10-29T12:13:29Z</time>
      </trkpt>
      <trkpt lat="44.32527" lon="3.59334">
        <ele>558.6</ele>
        <time>2022-10-29T12:13:30Z</time>
      </trkpt>
      <trkpt lat="44.32524" lon="3.59337">
        <ele>558.6</ele>
        <time>2022-10-29T12:13:31Z</time>
      </trkpt>
      <trkpt lat="44.32521" lon="3.5934">
        <ele>558.6</ele>
        <time>2022-10-29T12:13:32Z</time>
      </trkpt>
      <trkpt lat="44.32519" lon="3.59343">
        <ele>558.6</ele>
        <time>2022-10-29T12:13:33Z</time>
      </trkpt>
      <trkpt lat="44.32517" lon="3.59345">
        <ele>558.6</ele>
        <time>2022-10-29T12:13:34Z</time>
      </trkpt>
      <trkpt lat="44.32515" lon="3.59348">
        <ele>558.6</ele>
        <time>2022-10-29T12:13:35Z</time>
      </trkpt>
      <trkpt lat="44.32514" lon="3.59351">
        <ele>558.6</ele>
        <time>2022-10-29T12:13:36Z</time>
      </trkpt>
      <trkpt lat="44.32512" lon="3.59354">
        <ele>558.6</ele>
        <time>2022-10-29T12:13:37Z</time>
      </trkpt>
      <trkpt lat="44.3251" lon="3.59357">
        <ele>558.6</ele>
        <time>2022-10-29T12:13:38Z</time>
      </trkpt>
      <trkpt lat="44.32508" lon="3.59359">
        <ele>558.6</ele>
        <time>2022-10-29T12:13:39Z</time>
      </trkpt>
      <trkpt lat="44.32506" lon="3.59361">
        <ele>558.6</ele>
        <time>2022-10-29T12:13:40Z</time>
      </trkpt>
      <trkpt lat="44.32504" lon="3.59363">
        <ele>558.6</ele>
        <time>2022-10-29T12:13:41Z</time>
      </trkpt>
      <trkpt lat="44.32501" lon="3.59365">
        <ele>558.6</ele>
        <time>2022-10-29T12:13:42Z</time>
      </trkpt>
      <trkpt lat="44.32499" lon="3.59366">
        <ele>558.4</ele>
        <time>2022-10-29T12:13:43Z</time>
      </trkpt>
      <trkpt lat="44.32498" lon="3.59368">
        <ele>558.4</ele>
        <time>2022-10-29T12:13:44Z</time>
      </trkpt>
      <trkpt lat="44.32497" lon="3.59369">
        <ele>558.4</ele>
        <time>2022-10-29T12:13:45Z</time>
      </trkpt>
      <trkpt lat="44.32496" lon="3.59371">
        <ele>558.4</ele>
        <time>2022-10-29T12:13:46Z</time>
      </trkpt>
      <trkpt lat="44.32496" lon="3.59373">
        <ele>558.4</ele>
        <time>2022-10-29T12:13:47Z</time>
      </trkpt>
      <trkpt lat="44.32495" lon="3.59374">
        <ele>558.4</ele>
        <time>2022-10-29T12:13:48Z</time>
      </trkpt>
      <trkpt lat="44.32494" lon="3.59375">
        <ele>558.4</ele>
        <time>2022-10-29T12:13:49Z</time>
      </trkpt>
      <trkpt lat="44.32493" lon="3.59377">
        <ele>558.4</ele>
        <time>2022-10-29T12:13:50Z</time>
      </trkpt>
      <trkpt lat="44.32493" lon="3.59378">
        <ele>558.4</ele>
        <time>2022-10-29T12:13:51Z</time>
      </trkpt>
      <trkpt lat="44.32492" lon="3.59379">
        <ele>558.4</ele>
        <time>2022-10-29T12:13:52Z</time>
      </trkpt>
      <trkpt lat="44.32491" lon="3.59381">
        <ele>558.4</ele>
        <time>2022-10-29T12:13:53Z</time>
      </trkpt>
      <trkpt lat="44.3249" lon="3.59382">
        <ele>558.4</ele>
        <time>2022-10-29T12:13:54Z</time>
      </trkpt>
      <trkpt lat="44.32488" lon="3.59383">
        <ele>558.4</ele>
        <time>2022-10-29T12:13:55Z</time>
      </trkpt>
      <trkpt lat="44.32487" lon="3.59384">
        <ele>558.2</ele>
        <time>2022-10-29T12:13:56Z</time>
      </trkpt>
      <trkpt lat="44.32487" lon="3.59385">
        <ele>558.2</ele>
        <time>2022-10-29T12:13:57Z</time>
      </trkpt>
      <trkpt lat="44.32486" lon="3.59386">
        <ele>558.2</ele>
        <time>2022-10-29T12:13:58Z</time>
      </trkpt>
      <trkpt lat="44.32486" lon="3.59387">
        <ele>558.2</ele>
        <time>2022-10-29T12:13:59Z</time>
      </trkpt>
      <trkpt lat="44.32485" lon="3.59388">
        <ele>558.2</ele>
        <time>2022-10-29T12:14:00Z</time>
      </trkpt>
      <trkpt lat="44.32484" lon="3.59389">
        <ele>558.2</ele>
        <time>2022-10-29T12:14:01Z</time>
      </trkpt>
      <trkpt lat="44.32483" lon="3.5939">
        <ele>558.2</ele>
        <time>2022-10-29T12:14:02Z</time>
      </trkpt>
      <trkpt lat="44.32482" lon="3.5939">
        <ele>558.2</ele>
        <time>2022-10-29T12:14:03Z</time>
      </trkpt>
      <trkpt lat="44.32482" lon="3.59391">
        <ele>558.2</ele>
        <time>2022-10-29T12:14:04Z</time>
      </trkpt>
      <trkpt lat="44.32481" lon="3.59392">
        <ele>558.2</ele>
        <time>2022-10-29T12:14:05Z</time>
      </trkpt>
      <trkpt lat="44.3248" lon="3.59393">
        <ele>558.4</ele>
        <time>2022-10-29T12:14:06Z</time>
      </trkpt>
      <trkpt lat="44.32479" lon="3.59395">
        <ele>558.4</ele>
        <time>2022-10-29T12:14:07Z</time>
      </trkpt>
      <trkpt lat="44.32477" lon="3.59396">
        <ele>558.4</ele>
        <time>2022-10-29T12:14:08Z</time>
      </trkpt>
      <trkpt lat="44.32475" lon="3.59397">
        <ele>558.4</ele>
        <time>2022-10-29T12:14:09Z</time>
      </trkpt>
      <trkpt lat="44.32474" lon="3.59398">
        <ele>558.4</ele>
        <time>2022-10-29T12:14:10Z</time>
      </trkpt>
      <trkpt lat="44.32473" lon="3.59399">
        <ele>558.4</ele>
        <time>2022-10-29T12:14:11Z</time>
      </trkpt>
      <trkpt lat="44.32473" lon="3.59399">
        <ele>558.4</ele>
        <time>2022-10-29T12:14:12Z</time>
      </trkpt>
      <trkpt lat="44.32472" lon="3.594">
        <ele>558.4</ele>
        <time>2022-10-29T12:14:13Z</time>
      </trkpt>
      <trkpt lat="44.32471" lon="3.59401">
        <ele>558.4</ele>
        <time>2022-10-29T12:14:14Z</time>
      </trkpt>
      <trkpt lat="44.3247" lon="3.59401">
        <ele>558.4</ele>
        <time>2022-10-29T12:14:15Z</time>
      </trkpt>
      <trkpt lat="44.3247" lon="3.59403">
        <ele>558.4</ele>
        <time>2022-10-29T12:14:16Z</time>
      </trkpt>
      <trkpt lat="44.3247" lon="3.59404">
        <ele>558.4</ele>
        <time>2022-10-29T12:14:17Z</time>
      </trkpt>
      <trkpt lat="44.32469" lon="3.59405">
        <ele>558.4</ele>
        <time>2022-10-29T12:14:18Z</time>
      </trkpt>
      <trkpt lat="44.32469" lon="3.59406">
        <ele>558.4</ele>
        <time>2022-10-29T12:14:19Z</time>
      </trkpt>
      <trkpt lat="44.32469" lon="3.59408">
        <ele>558.4</ele>
        <time>2022-10-29T12:14:20Z</time>
      </trkpt>
      <trkpt lat="44.32468" lon="3.5941">
        <ele>558.4</ele>
        <time>2022-10-29T12:14:21Z</time>
      </trkpt>
      <trkpt lat="44.32468" lon="3.59412">
        <ele>558.4</ele>
        <time>2022-10-29T12:14:22Z</time>
      </trkpt>
      <trkpt lat="44.32468" lon="3.59415">
        <ele>558.4</ele>
        <time>2022-10-29T12:14:23Z</time>
      </trkpt>
      <trkpt lat="44.32468" lon="3.59418">
        <ele>558.4</ele>
        <time>2022-10-29T12:14:24Z</time>
      </trkpt>
      <trkpt lat="44.32468" lon="3.5942">
        <ele>558.4</ele>
        <time>2022-10-29T12:14:25Z</time>
      </trkpt>
      <trkpt lat="44.32468" lon="3.59423">
        <ele>558.4</ele>
        <time>2022-10-29T12:14:26Z</time>
      </trkpt>
      <trkpt lat="44.32467" lon="3.59426">
        <ele>558.4</ele>
        <time>2022-10-29T12:14:27Z</time>
      </trkpt>
      <trkpt lat="44.32466" lon="3.59428">
        <ele>558.4</ele>
        <time>2022-10-29T12:14:28Z</time>
      </trkpt>
      <trkpt lat="44.32465" lon="3.59429">
        <ele>558.4</ele>
        <time>2022-10-29T12:14:29Z</time>
      </trkpt>
      <trkpt lat="44.32464" lon="3.59431">
        <ele>558.4</ele>
        <time>2022-10-29T12:14:30Z</time>
      </trkpt>
      <trkpt lat="44.32463" lon="3.59434">
        <ele>558.2</ele>
        <time>2022-10-29T12:14:31Z</time>
      </trkpt>
      <trkpt lat="44.32462" lon="3.59437">
        <ele>558.2</ele>
        <time>2022-10-29T12:14:32Z</time>
      </trkpt>
      <trkpt lat="44.32463" lon="3.59441">
        <ele>558.2</ele>
        <time>2022-10-29T12:14:33Z</time>
      </trkpt>
      <trkpt lat="44.32463" lon="3.59446">
        <ele>558.2</ele>
        <time>2022-10-29T12:14:34Z</time>
      </trkpt>
      <trkpt lat="44.32465" lon="3.5945">
        <ele>558.2</ele>
        <time>2022-10-29T12:14:35Z</time>
      </trkpt>
      <trkpt lat="44.32466" lon="3.59455">
        <ele>558.2</ele>
        <time>2022-10-29T12:14:36Z</time>
      </trkpt>
      <trkpt lat="44.32468" lon="3.59459">
        <ele>558.4</ele>
        <time>2022-10-29T12:14:37Z</time>
      </trkpt>
      <trkpt lat="44.3247" lon="3.59463">
        <ele>558.4</ele>
        <time>2022-10-29T12:14:38Z</time>
      </trkpt>
      <trkpt lat="44.32472" lon="3.59467">
        <ele>558.4</ele>
        <time>2022-10-29T12:14:39Z</time>
      </trkpt>
      <trkpt lat="44.32475" lon="3.59472">
        <ele>558.4</ele>
        <time>2022-10-29T12:14:40Z</time>
      </trkpt>
      <trkpt lat="44.32477" lon="3.59477">
        <ele>558.2</ele>
        <time>2022-10-29T12:14:41Z</time>
      </trkpt>
      <trkpt lat="44.32479" lon="3.59481">
        <ele>558.2</ele>
        <time>2022-10-29T12:14:42Z</time>
      </trkpt>
      <trkpt lat="44.32481" lon="3.59485">
        <ele>558</ele>
        <time>2022-10-29T12:14:43Z</time>
      </trkpt>
      <trkpt lat="44.32483" lon="3.59489">
        <ele>557.8</ele>
        <time>2022-10-29T12:14:44Z</time>
      </trkpt>
      <trkpt lat="44.32484" lon="3.59493">
        <ele>557.4</ele>
        <time>2022-10-29T12:14:45Z</time>
      </trkpt>
      <trkpt lat="44.32486" lon="3.59496">
        <ele>557.2</ele>
        <time>2022-10-29T12:14:46Z</time>
      </trkpt>
      <trkpt lat="44.32488" lon="3.59498">
        <ele>557</ele>
        <time>2022-10-29T12:14:47Z</time>
      </trkpt>
      <trkpt lat="44.32487" lon="3.595">
        <ele>556.8</ele>
        <time>2022-10-29T12:14:48Z</time>
      </trkpt>
      <trkpt lat="44.32486" lon="3.59502">
        <ele>556.8</ele>
        <time>2022-10-29T12:14:49Z</time>
      </trkpt>
      <trkpt lat="44.32485" lon="3.59504">
        <ele>556.8</ele>
        <time>2022-10-29T12:14:50Z</time>
      </trkpt>
      <trkpt lat="44.32482" lon="3.59506">
        <ele>556.8</ele>
        <time>2022-10-29T12:14:51Z</time>
      </trkpt>
      <trkpt lat="44.3248" lon="3.59509">
        <ele>557</ele>
        <time>2022-10-29T12:14:52Z</time>
      </trkpt>
      <trkpt lat="44.32478" lon="3.59511">
        <ele>557</ele>
        <time>2022-10-29T12:14:53Z</time>
      </trkpt>
      <trkpt lat="44.32474" lon="3.59513">
        <ele>557</ele>
        <time>2022-10-29T12:14:54Z</time>
      </trkpt>
      <trkpt lat="44.3247" lon="3.59515">
        <ele>557</ele>
        <time>2022-10-29T12:14:55Z</time>
      </trkpt>
      <trkpt lat="44.32466" lon="3.59516">
        <ele>557</ele>
        <time>2022-10-29T12:14:56Z</time>
      </trkpt>
      <trkpt lat="44.32463" lon="3.59517">
        <ele>557</ele>
        <time>2022-10-29T12:14:57Z</time>
      </trkpt>
      <trkpt lat="44.32459" lon="3.5952">
        <ele>557</ele>
        <time>2022-10-29T12:14:58Z</time>
      </trkpt>
      <trkpt lat="44.32456" lon="3.59522">
        <ele>556.8</ele>
        <time>2022-10-29T12:14:59Z</time>
      </trkpt>
      <trkpt lat="44.32453" lon="3.59525">
        <ele>556.8</ele>
        <time>2022-10-29T12:15:00Z</time>
      </trkpt>
      <trkpt lat="44.3245" lon="3.59527">
        <ele>557</ele>
        <time>2022-10-29T12:15:01Z</time>
      </trkpt>
      <trkpt lat="44.32446" lon="3.5953">
        <ele>557</ele>
        <time>2022-10-29T12:15:02Z</time>
      </trkpt>
      <trkpt lat="44.32443" lon="3.59532">
        <ele>557</ele>
        <time>2022-10-29T12:15:03Z</time>
      </trkpt>
      <trkpt lat="44.3244" lon="3.59535">
        <ele>557.2</ele>
        <time>2022-10-29T12:15:04Z</time>
      </trkpt>
      <trkpt lat="44.32436" lon="3.59538">
        <ele>557.2</ele>
        <time>2022-10-29T12:15:05Z</time>
      </trkpt>
      <trkpt lat="44.32433" lon="3.5954">
        <ele>557.2</ele>
        <time>2022-10-29T12:15:06Z</time>
      </trkpt>
      <trkpt lat="44.32429" lon="3.59543">
        <ele>557.2</ele>
        <time>2022-10-29T12:15:07Z</time>
      </trkpt>
      <trkpt lat="44.32426" lon="3.59546">
        <ele>557.2</ele>
        <time>2022-10-29T12:15:08Z</time>
      </trkpt>
      <trkpt lat="44.32422" lon="3.59548">
        <ele>557.4</ele>
        <time>2022-10-29T12:15:09Z</time>
      </trkpt>
      <trkpt lat="44.32419" lon="3.59551">
        <ele>557.4</ele>
        <time>2022-10-29T12:15:10Z</time>
      </trkpt>
      <trkpt lat="44.32416" lon="3.59553">
        <ele>557.4</ele>
        <time>2022-10-29T12:15:11Z</time>
      </trkpt>
      <trkpt lat="44.32413" lon="3.59555">
        <ele>557.6</ele>
        <time>2022-10-29T12:15:12Z</time>
      </trkpt>
      <trkpt lat="44.32409" lon="3.59558">
        <ele>557.6</ele>
        <time>2022-10-29T12:15:13Z</time>
      </trkpt>
      <trkpt lat="44.32406" lon="3.59561">
        <ele>557.6</ele>
        <time>2022-10-29T12:15:14Z</time>
      </trkpt>
      <trkpt lat="44.32403" lon="3.59563">
        <ele>557.6</ele>
        <time>2022-10-29T12:15:15Z</time>
      </trkpt>
      <trkpt lat="44.32399" lon="3.59566">
        <ele>557.6</ele>
        <time>2022-10-29T12:15:16Z</time>
      </trkpt>
      <trkpt lat="44.32396" lon="3.59568">
        <ele>557.6</ele>
        <time>2022-10-29T12:15:17Z</time>
      </trkpt>
      <trkpt lat="44.32393" lon="3.5957">
        <ele>557.4</ele>
        <time>2022-10-29T12:15:18Z</time>
      </trkpt>
      <trkpt lat="44.3239" lon="3.59573">
        <ele>557.6</ele>
        <time>2022-10-29T12:15:19Z</time>
      </trkpt>
      <trkpt lat="44.32387" lon="3.59576">
        <ele>557.6</ele>
        <time>2022-10-29T12:15:20Z</time>
      </trkpt>
      <trkpt lat="44.32384" lon="3.59578">
        <ele>557.6</ele>
        <time>2022-10-29T12:15:21Z</time>
      </trkpt>
      <trkpt lat="44.32381" lon="3.59581">
        <ele>557.6</ele>
        <time>2022-10-29T12:15:22Z</time>
      </trkpt>
      <trkpt lat="44.32379" lon="3.59584">
        <ele>557.8</ele>
        <time>2022-10-29T12:15:23Z</time>
      </trkpt>
      <trkpt lat="44.32376" lon="3.59586">
        <ele>557.8</ele>
        <time>2022-10-29T12:15:24Z</time>
      </trkpt>
      <trkpt lat="44.32373" lon="3.59588">
        <ele>557.8</ele>
        <time>2022-10-29T12:15:25Z</time>
      </trkpt>
      <trkpt lat="44.3237" lon="3.5959">
        <ele>557.8</ele>
        <time>2022-10-29T12:15:26Z</time>
      </trkpt>
      <trkpt lat="44.32367" lon="3.59591">
        <ele>557.8</ele>
        <time>2022-10-29T12:15:27Z</time>
      </trkpt>
      <trkpt lat="44.32365" lon="3.59593">
        <ele>557.8</ele>
        <time>2022-10-29T12:15:28Z</time>
      </trkpt>
      <trkpt lat="44.32362" lon="3.59595">
        <ele>557.8</ele>
        <time>2022-10-29T12:15:29Z</time>
      </trkpt>
      <trkpt lat="44.32358" lon="3.59598">
        <ele>557.8</ele>
        <time>2022-10-29T12:15:30Z</time>
      </trkpt>
      <trkpt lat="44.32355" lon="3.59601">
        <ele>557.8</ele>
        <time>2022-10-29T12:15:31Z</time>
      </trkpt>
      <trkpt lat="44.32352" lon="3.59604">
        <ele>557.8</ele>
        <time>2022-10-29T12:15:32Z</time>
      </trkpt>
      <trkpt lat="44.32349" lon="3.59607">
        <ele>557.8</ele>
        <time>2022-10-29T12:15:33Z</time>
      </trkpt>
      <trkpt lat="44.32346" lon="3.5961">
        <ele>557.8</ele>
        <time>2022-10-29T12:15:34Z</time>
      </trkpt>
      <trkpt lat="44.32343" lon="3.59612">
        <ele>557.6</ele>
        <time>2022-10-29T12:15:35Z</time>
      </trkpt>
      <trkpt lat="44.32341" lon="3.59614">
        <ele>557.6</ele>
        <time>2022-10-29T12:15:36Z</time>
      </trkpt>
      <trkpt lat="44.32338" lon="3.59615">
        <ele>557.6</ele>
        <time>2022-10-29T12:15:37Z</time>
      </trkpt>
      <trkpt lat="44.32336" lon="3.59616">
        <ele>557.8</ele>
        <time>2022-10-29T12:15:38Z</time>
      </trkpt>
      <trkpt lat="44.32333" lon="3.59617">
        <ele>557.8</ele>
        <time>2022-10-29T12:15:39Z</time>
      </trkpt>
      <trkpt lat="44.3233" lon="3.59619">
        <ele>557.8</ele>
        <time>2022-10-29T12:15:40Z</time>
      </trkpt>
      <trkpt lat="44.32326" lon="3.59619">
        <ele>558</ele>
        <time>2022-10-29T12:15:41Z</time>
      </trkpt>
      <trkpt lat="44.32323" lon="3.5962">
        <ele>558</ele>
        <time>2022-10-29T12:15:42Z</time>
      </trkpt>
      <trkpt lat="44.3232" lon="3.59621">
        <ele>558</ele>
        <time>2022-10-29T12:15:43Z</time>
      </trkpt>
      <trkpt lat="44.32316" lon="3.59622">
        <ele>558</ele>
        <time>2022-10-29T12:15:44Z</time>
      </trkpt>
      <trkpt lat="44.32313" lon="3.59622">
        <ele>558</ele>
        <time>2022-10-29T12:15:45Z</time>
      </trkpt>
      <trkpt lat="44.32309" lon="3.59623">
        <ele>558</ele>
        <time>2022-10-29T12:15:46Z</time>
      </trkpt>
      <trkpt lat="44.32306" lon="3.59623">
        <ele>558</ele>
        <time>2022-10-29T12:15:47Z</time>
      </trkpt>
      <trkpt lat="44.32303" lon="3.59624">
        <ele>558</ele>
        <time>2022-10-29T12:15:48Z</time>
      </trkpt>
      <trkpt lat="44.32299" lon="3.59625">
        <ele>558</ele>
        <time>2022-10-29T12:15:49Z</time>
      </trkpt>
      <trkpt lat="44.32295" lon="3.59626">
        <ele>558</ele>
        <time>2022-10-29T12:15:50Z</time>
      </trkpt>
      <trkpt lat="44.32292" lon="3.59626">
        <ele>558</ele>
        <time>2022-10-29T12:15:51Z</time>
      </trkpt>
      <trkpt lat="44.32288" lon="3.59627">
        <ele>558.2</ele>
        <time>2022-10-29T12:15:52Z</time>
      </trkpt>
      <trkpt lat="44.32285" lon="3.59628">
        <ele>558.2</ele>
        <time>2022-10-29T12:15:53Z</time>
      </trkpt>
      <trkpt lat="44.32281" lon="3.59629">
        <ele>558.2</ele>
        <time>2022-10-29T12:15:54Z</time>
      </trkpt>
      <trkpt lat="44.32278" lon="3.5963">
        <ele>558.4</ele>
        <time>2022-10-29T12:15:55Z</time>
      </trkpt>
      <trkpt lat="44.32275" lon="3.59631">
        <ele>558.4</ele>
        <time>2022-10-29T12:15:56Z</time>
      </trkpt>
      <trkpt lat="44.32272" lon="3.59632">
        <ele>558.4</ele>
        <time>2022-10-29T12:15:57Z</time>
      </trkpt>
      <trkpt lat="44.32269" lon="3.59633">
        <ele>558.4</ele>
        <time>2022-10-29T12:15:58Z</time>
      </trkpt>
      <trkpt lat="44.32265" lon="3.59634">
        <ele>558.4</ele>
        <time>2022-10-29T12:15:59Z</time>
      </trkpt>
      <trkpt lat="44.32262" lon="3.59635">
        <ele>558.4</ele>
        <time>2022-10-29T12:16:00Z</time>
      </trkpt>
      <trkpt lat="44.32258" lon="3.59636">
        <ele>558.4</ele>
        <time>2022-10-29T12:16:01Z</time>
      </trkpt>
      <trkpt lat="44.32255" lon="3.59637">
        <ele>558.4</ele>
        <time>2022-10-29T12:16:02Z</time>
      </trkpt>
      <trkpt lat="44.32252" lon="3.59637">
        <ele>558.6</ele>
        <time>2022-10-29T12:16:03Z</time>
      </trkpt>
      <trkpt lat="44.32248" lon="3.59638">
        <ele>558.6</ele>
        <time>2022-10-29T12:16:04Z</time>
      </trkpt>
      <trkpt lat="44.32244" lon="3.59639">
        <ele>558.6</ele>
        <time>2022-10-29T12:16:05Z</time>
      </trkpt>
      <trkpt lat="44.3224" lon="3.59641">
        <ele>558.6</ele>
        <time>2022-10-29T12:16:06Z</time>
      </trkpt>
      <trkpt lat="44.32236" lon="3.59642">
        <ele>558.6</ele>
        <time>2022-10-29T12:16:07Z</time>
      </trkpt>
      <trkpt lat="44.32232" lon="3.59643">
        <ele>558.6</ele>
        <time>2022-10-29T12:16:08Z</time>
      </trkpt>
      <trkpt lat="44.32229" lon="3.59644">
        <ele>558.6</ele>
        <time>2022-10-29T12:16:09Z</time>
      </trkpt>
      <trkpt lat="44.32225" lon="3.59645">
        <ele>558.6</ele>
        <time>2022-10-29T12:16:10Z</time>
      </trkpt>
      <trkpt lat="44.32221" lon="3.59645">
        <ele>558.6</ele>
        <time>2022-10-29T12:16:11Z</time>
      </trkpt>
      <trkpt lat="44.32217" lon="3.59645">
        <ele>558.6</ele>
        <time>2022-10-29T12:16:12Z</time>
      </trkpt>
      <trkpt lat="44.32213" lon="3.59645">
        <ele>558.6</ele>
        <time>2022-10-29T12:16:13Z</time>
      </trkpt>
      <trkpt lat="44.32209" lon="3.59645">
        <ele>558.8</ele>
        <time>2022-10-29T12:16:14Z</time>
      </trkpt>
      <trkpt lat="44.32205" lon="3.59646">
        <ele>559</ele>
        <time>2022-10-29T12:16:15Z</time>
      </trkpt>
      <trkpt lat="44.32201" lon="3.59646">
        <ele>559</ele>
        <time>2022-10-29T12:16:16Z</time>
      </trkpt>
      <trkpt lat="44.32197" lon="3.59647">
        <ele>559</ele>
        <time>2022-10-29T12:16:17Z</time>
      </trkpt>
      <trkpt lat="44.32193" lon="3.59648">
        <ele>559</ele>
        <time>2022-10-29T12:16:18Z</time>
      </trkpt>
      <trkpt lat="44.32189" lon="3.59649">
        <ele>559.2</ele>
        <time>2022-10-29T12:16:19Z</time>
      </trkpt>
      <trkpt lat="44.32185" lon="3.5965">
        <ele>559.2</ele>
        <time>2022-10-29T12:16:20Z</time>
      </trkpt>
      <trkpt lat="44.32181" lon="3.59651">
        <ele>559.2</ele>
        <time>2022-10-29T12:16:21Z</time>
      </trkpt>
      <trkpt lat="44.32177" lon="3.59651">
        <ele>559.2</ele>
        <time>2022-10-29T12:16:22Z</time>
      </trkpt>
      <trkpt lat="44.32173" lon="3.59652">
        <ele>559.4</ele>
        <time>2022-10-29T12:16:23Z</time>
      </trkpt>
      <trkpt lat="44.32169" lon="3.59653">
        <ele>559.4</ele>
        <time>2022-10-29T12:16:24Z</time>
      </trkpt>
      <trkpt lat="44.32165" lon="3.59654">
        <ele>559.4</ele>
        <time>2022-10-29T12:16:25Z</time>
      </trkpt>
      <trkpt lat="44.32161" lon="3.59655">
        <ele>559.4</ele>
        <time>2022-10-29T12:16:26Z</time>
      </trkpt>
      <trkpt lat="44.32158" lon="3.59656">
        <ele>559.4</ele>
        <time>2022-10-29T12:16:27Z</time>
      </trkpt>
      <trkpt lat="44.32154" lon="3.59656">
        <ele>559.4</ele>
        <time>2022-10-29T12:16:28Z</time>
      </trkpt>
      <trkpt lat="44.3215" lon="3.59657">
        <ele>559.4</ele>
        <time>2022-10-29T12:16:29Z</time>
      </trkpt>
      <trkpt lat="44.32147" lon="3.59658">
        <ele>559.4</ele>
        <time>2022-10-29T12:16:30Z</time>
      </trkpt>
      <trkpt lat="44.32144" lon="3.59659">
        <ele>559.4</ele>
        <time>2022-10-29T12:16:31Z</time>
      </trkpt>
      <trkpt lat="44.3214" lon="3.59659">
        <ele>559.4</ele>
        <time>2022-10-29T12:16:32Z</time>
      </trkpt>
      <trkpt lat="44.32137" lon="3.5966">
        <ele>559.4</ele>
        <time>2022-10-29T12:16:33Z</time>
      </trkpt>
      <trkpt lat="44.32134" lon="3.5966">
        <ele>559.4</ele>
        <time>2022-10-29T12:16:34Z</time>
      </trkpt>
      <trkpt lat="44.3213" lon="3.59661">
        <ele>559.4</ele>
        <time>2022-10-29T12:16:35Z</time>
      </trkpt>
      <trkpt lat="44.32127" lon="3.59661">
        <ele>559.4</ele>
        <time>2022-10-29T12:16:36Z</time>
      </trkpt>
      <trkpt lat="44.32123" lon="3.59662">
        <ele>559.4</ele>
        <time>2022-10-29T12:16:37Z</time>
      </trkpt>
      <trkpt lat="44.3212" lon="3.59663">
        <ele>559.6</ele>
        <time>2022-10-29T12:16:38Z</time>
      </trkpt>
      <trkpt lat="44.32116" lon="3.59665">
        <ele>559.6</ele>
        <time>2022-10-29T12:16:39Z</time>
      </trkpt>
      <trkpt lat="44.32113" lon="3.59666">
        <ele>559.6</ele>
        <time>2022-10-29T12:16:40Z</time>
      </trkpt>
      <trkpt lat="44.32109" lon="3.59668">
        <ele>559.8</ele>
        <time>2022-10-29T12:16:41Z</time>
      </trkpt>
      <trkpt lat="44.32105" lon="3.59671">
        <ele>559.8</ele>
        <time>2022-10-29T12:16:42Z</time>
      </trkpt>
      <trkpt lat="44.32102" lon="3.59673">
        <ele>559.8</ele>
        <time>2022-10-29T12:16:43Z</time>
      </trkpt>
      <trkpt lat="44.32098" lon="3.59675">
        <ele>560</ele>
        <time>2022-10-29T12:16:44Z</time>
      </trkpt>
      <trkpt lat="44.32094" lon="3.59678">
        <ele>560</ele>
        <time>2022-10-29T12:16:45Z</time>
      </trkpt>
      <trkpt lat="44.32091" lon="3.5968">
        <ele>560</ele>
        <time>2022-10-29T12:16:46Z</time>
      </trkpt>
      <trkpt lat="44.32087" lon="3.59683">
        <ele>560</ele>
        <time>2022-10-29T12:16:47Z</time>
      </trkpt>
      <trkpt lat="44.32084" lon="3.59685">
        <ele>559.8</ele>
        <time>2022-10-29T12:16:48Z</time>
      </trkpt>
      <trkpt lat="44.32081" lon="3.59687">
        <ele>559.8</ele>
        <time>2022-10-29T12:16:49Z</time>
      </trkpt>
      <trkpt lat="44.32077" lon="3.59689">
        <ele>559.8</ele>
        <time>2022-10-29T12:16:50Z</time>
      </trkpt>
      <trkpt lat="44.32074" lon="3.59691">
        <ele>559.8</ele>
        <time>2022-10-29T12:16:51Z</time>
      </trkpt>
      <trkpt lat="44.3207" lon="3.59692">
        <ele>559.8</ele>
        <time>2022-10-29T12:16:52Z</time>
      </trkpt>
      <trkpt lat="44.32067" lon="3.59694">
        <ele>559.8</ele>
        <time>2022-10-29T12:16:53Z</time>
      </trkpt>
      <trkpt lat="44.32064" lon="3.59697">
        <ele>559.8</ele>
        <time>2022-10-29T12:16:54Z</time>
      </trkpt>
      <trkpt lat="44.3206" lon="3.59699">
        <ele>559.6</ele>
        <time>2022-10-29T12:16:55Z</time>
      </trkpt>
      <trkpt lat="44.32058" lon="3.59701">
        <ele>559.6</ele>
        <time>2022-10-29T12:16:56Z</time>
      </trkpt>
      <trkpt lat="44.32055" lon="3.59703">
        <ele>559.6</ele>
        <time>2022-10-29T12:16:57Z</time>
      </trkpt>
      <trkpt lat="44.32053" lon="3.59705">
        <ele>559.6</ele>
        <time>2022-10-29T12:16:58Z</time>
      </trkpt>
      <trkpt lat="44.3205" lon="3.59707">
        <ele>559.6</ele>
        <time>2022-10-29T12:16:59Z</time>
      </trkpt>
      <trkpt lat="44.32047" lon="3.59709">
        <ele>559.6</ele>
        <time>2022-10-29T12:17:00Z</time>
      </trkpt>
      <trkpt lat="44.32044" lon="3.5971">
        <ele>559.6</ele>
        <time>2022-10-29T12:17:01Z</time>
      </trkpt>
      <trkpt lat="44.32041" lon="3.59712">
        <ele>559.6</ele>
        <time>2022-10-29T12:17:02Z</time>
      </trkpt>
      <trkpt lat="44.32038" lon="3.59714">
        <ele>559.6</ele>
        <time>2022-10-29T12:17:03Z</time>
      </trkpt>
      <trkpt lat="44.32035" lon="3.59716">
        <ele>559.6</ele>
        <time>2022-10-29T12:17:04Z</time>
      </trkpt>
      <trkpt lat="44.32032" lon="3.59718">
        <ele>559.6</ele>
        <time>2022-10-29T12:17:05Z</time>
      </trkpt>
      <trkpt lat="44.32028" lon="3.5972">
        <ele>559.6</ele>
        <time>2022-10-29T12:17:06Z</time>
      </trkpt>
      <trkpt lat="44.32026" lon="3.59723">
        <ele>559.4</ele>
        <time>2022-10-29T12:17:07Z</time>
      </trkpt>
      <trkpt lat="44.32023" lon="3.59725">
        <ele>559.4</ele>
        <time>2022-10-29T12:17:08Z</time>
      </trkpt>
      <trkpt lat="44.32021" lon="3.59727">
        <ele>559.4</ele>
        <time>2022-10-29T12:17:09Z</time>
      </trkpt>
      <trkpt lat="44.32018" lon="3.5973">
        <ele>559.4</ele>
        <time>2022-10-29T12:17:10Z</time>
      </trkpt>
      <trkpt lat="44.32017" lon="3.59732">
        <ele>559.4</ele>
        <time>2022-10-29T12:17:11Z</time>
      </trkpt>
      <trkpt lat="44.32016" lon="3.59735">
        <ele>559.4</ele>
        <time>2022-10-29T12:17:12Z</time>
      </trkpt>
      <trkpt lat="44.32015" lon="3.59738">
        <ele>559.4</ele>
        <time>2022-10-29T12:17:13Z</time>
      </trkpt>
      <trkpt lat="44.32015" lon="3.5974">
        <ele>559.4</ele>
        <time>2022-10-29T12:17:14Z</time>
      </trkpt>
      <trkpt lat="44.32015" lon="3.59742">
        <ele>559.4</ele>
        <time>2022-10-29T12:17:15Z</time>
      </trkpt>
      <trkpt lat="44.32015" lon="3.59743">
        <ele>559.4</ele>
        <time>2022-10-29T12:17:16Z</time>
      </trkpt>
    </trkseg>
  </trk>
</gpx>